<?xml version="1.0" encoding="UTF-8" standalone="no" ?>
<gpx xmlns="http://www.topografix.com/GPX/1/1" xmlns:xsi="http://www.w3.org/2001/XMLSchema-instance" xsi:schemaLocation="http://www.topografix.com/GPX/1/1 http://www.topografix.com/GPX/1/1/gpx.xsd" version="1.1" creator="VisuGPX - https://www.visugpx.com">
  <metadata>
    <name>A/R Charbonnière</name>
  </metadata>
  <trk>
    <name><![CDATA[2023 07 19 A/R Charbonnière]]></name>
    <trkseg>
      <trkpt lat="45.83312" lon="4.7101">
        <ele>308.04559</ele>
        <time>2023-07-19T15:13:25.308Z</time>
      </trkpt>
      <trkpt lat="45.83319" lon="4.71009">
        <ele>307.66129</ele>
        <time>2023-07-19T15:13:27.000Z</time>
      </trkpt>
      <trkpt lat="45.83323" lon="4.71007">
        <ele>307.29495</ele>
        <time>2023-07-19T15:13:28.000Z</time>
      </trkpt>
      <trkpt lat="45.83328" lon="4.71006">
        <ele>307.11865</ele>
        <time>2023-07-19T15:13:29.000Z</time>
      </trkpt>
      <trkpt lat="45.83333" lon="4.71005">
        <ele>307.10822</ele>
        <time>2023-07-19T15:13:30.000Z</time>
      </trkpt>
      <trkpt lat="45.83337" lon="4.71003">
        <ele>307.13602</ele>
        <time>2023-07-19T15:13:31.000Z</time>
      </trkpt>
      <trkpt lat="45.83342" lon="4.71002">
        <ele>307.05069</ele>
        <time>2023-07-19T15:13:32.000Z</time>
      </trkpt>
      <trkpt lat="45.83347" lon="4.71001">
        <ele>306.98843</ele>
        <time>2023-07-19T15:13:33.000Z</time>
      </trkpt>
      <trkpt lat="45.83354" lon="4.70996">
        <ele>306.9696</ele>
        <time>2023-07-19T15:13:34.000Z</time>
      </trkpt>
      <trkpt lat="45.83358" lon="4.70996">
        <ele>306.97427</ele>
        <time>2023-07-19T15:13:35.000Z</time>
      </trkpt>
      <trkpt lat="45.83363" lon="4.70996">
        <ele>306.95325</ele>
        <time>2023-07-19T15:13:36.000Z</time>
      </trkpt>
      <trkpt lat="45.83367" lon="4.70996">
        <ele>306.92831</ele>
        <time>2023-07-19T15:13:37.000Z</time>
      </trkpt>
      <trkpt lat="45.83372" lon="4.70996">
        <ele>306.9342</ele>
        <time>2023-07-19T15:13:38.000Z</time>
      </trkpt>
      <trkpt lat="45.83377" lon="4.70995">
        <ele>306.84845</ele>
        <time>2023-07-19T15:13:39.000Z</time>
      </trkpt>
      <trkpt lat="45.83383" lon="4.70995">
        <ele>306.75748</ele>
        <time>2023-07-19T15:13:40.000Z</time>
      </trkpt>
      <trkpt lat="45.83388" lon="4.70994">
        <ele>306.72552</ele>
        <time>2023-07-19T15:13:41.000Z</time>
      </trkpt>
      <trkpt lat="45.83393" lon="4.70992">
        <ele>306.67361</ele>
        <time>2023-07-19T15:13:42.000Z</time>
      </trkpt>
      <trkpt lat="45.83398" lon="4.7099">
        <ele>306.64481</ele>
        <time>2023-07-19T15:13:43.000Z</time>
      </trkpt>
      <trkpt lat="45.83403" lon="4.70991">
        <ele>306.66556</ele>
        <time>2023-07-19T15:13:44.000Z</time>
      </trkpt>
      <trkpt lat="45.83409" lon="4.7099">
        <ele>306.64624</ele>
        <time>2023-07-19T15:13:45.000Z</time>
      </trkpt>
      <trkpt lat="45.83414" lon="4.7099">
        <ele>306.55328</ele>
        <time>2023-07-19T15:13:46.000Z</time>
      </trkpt>
      <trkpt lat="45.8342" lon="4.70989">
        <ele>306.46606</ele>
        <time>2023-07-19T15:13:47.000Z</time>
      </trkpt>
      <trkpt lat="45.83426" lon="4.7099">
        <ele>306.38498</ele>
        <time>2023-07-19T15:13:48.000Z</time>
      </trkpt>
      <trkpt lat="45.83432" lon="4.7099">
        <ele>306.28815</ele>
        <time>2023-07-19T15:13:49.000Z</time>
      </trkpt>
      <trkpt lat="45.83439" lon="4.70989">
        <ele>306.1734</ele>
        <time>2023-07-19T15:13:50.000Z</time>
      </trkpt>
      <trkpt lat="45.83445" lon="4.70989">
        <ele>306.08112</ele>
        <time>2023-07-19T15:13:51.000Z</time>
      </trkpt>
      <trkpt lat="45.83452" lon="4.70989">
        <ele>306.01968</ele>
        <time>2023-07-19T15:13:52.000Z</time>
      </trkpt>
      <trkpt lat="45.83459" lon="4.70989">
        <ele>305.94666</ele>
        <time>2023-07-19T15:13:53.000Z</time>
      </trkpt>
      <trkpt lat="45.83467" lon="4.70989">
        <ele>305.82986</ele>
        <time>2023-07-19T15:13:54.000Z</time>
      </trkpt>
      <trkpt lat="45.83474" lon="4.7099">
        <ele>305.6922</ele>
        <time>2023-07-19T15:13:55.000Z</time>
      </trkpt>
      <trkpt lat="45.83482" lon="4.7099">
        <ele>305.5672</ele>
        <time>2023-07-19T15:13:56.000Z</time>
      </trkpt>
      <trkpt lat="45.83488" lon="4.7099">
        <ele>305.42349</ele>
        <time>2023-07-19T15:13:57.000Z</time>
      </trkpt>
      <trkpt lat="45.83495" lon="4.70991">
        <ele>305.25433</ele>
        <time>2023-07-19T15:13:58.000Z</time>
      </trkpt>
      <trkpt lat="45.83502" lon="4.70992">
        <ele>305.14246</ele>
        <time>2023-07-19T15:13:59.000Z</time>
      </trkpt>
      <trkpt lat="45.83508" lon="4.70996">
        <ele>305.05209</ele>
        <time>2023-07-19T15:14:00.000Z</time>
      </trkpt>
      <trkpt lat="45.83516" lon="4.71">
        <ele>304.87863</ele>
        <time>2023-07-19T15:14:01.000Z</time>
      </trkpt>
      <trkpt lat="45.83523" lon="4.71005">
        <ele>304.7193</ele>
        <time>2023-07-19T15:14:02.000Z</time>
      </trkpt>
      <trkpt lat="45.8353" lon="4.7101">
        <ele>304.43448</ele>
        <time>2023-07-19T15:14:03.000Z</time>
      </trkpt>
      <trkpt lat="45.83535" lon="4.71016">
        <ele>304.08771</ele>
        <time>2023-07-19T15:14:04.000Z</time>
      </trkpt>
      <trkpt lat="45.83541" lon="4.71021">
        <ele>303.76508</ele>
        <time>2023-07-19T15:14:05.000Z</time>
      </trkpt>
      <trkpt lat="45.83547" lon="4.71025">
        <ele>303.45547</ele>
        <time>2023-07-19T15:14:06.000Z</time>
      </trkpt>
      <trkpt lat="45.83553" lon="4.7103">
        <ele>303.17218</ele>
        <time>2023-07-19T15:14:07.000Z</time>
      </trkpt>
      <trkpt lat="45.83559" lon="4.71034">
        <ele>302.90567</ele>
        <time>2023-07-19T15:14:08.000Z</time>
      </trkpt>
      <trkpt lat="45.83565" lon="4.71038">
        <ele>302.63715</ele>
        <time>2023-07-19T15:14:09.000Z</time>
      </trkpt>
      <trkpt lat="45.83572" lon="4.71042">
        <ele>302.37354</ele>
        <time>2023-07-19T15:14:10.000Z</time>
      </trkpt>
      <trkpt lat="45.83578" lon="4.71046">
        <ele>302.237</ele>
        <time>2023-07-19T15:14:11.000Z</time>
      </trkpt>
      <trkpt lat="45.83584" lon="4.7105">
        <ele>302.03436</ele>
        <time>2023-07-19T15:14:12.000Z</time>
      </trkpt>
      <trkpt lat="45.8359" lon="4.71054">
        <ele>301.82739</ele>
        <time>2023-07-19T15:14:13.000Z</time>
      </trkpt>
      <trkpt lat="45.83597" lon="4.71058">
        <ele>301.63965</ele>
        <time>2023-07-19T15:14:14.000Z</time>
      </trkpt>
      <trkpt lat="45.83603" lon="4.71062">
        <ele>301.44354</ele>
        <time>2023-07-19T15:14:15.000Z</time>
      </trkpt>
      <trkpt lat="45.83609" lon="4.71066">
        <ele>301.23627</ele>
        <time>2023-07-19T15:14:16.000Z</time>
      </trkpt>
      <trkpt lat="45.83615" lon="4.7107">
        <ele>301.03336</ele>
        <time>2023-07-19T15:14:17.000Z</time>
      </trkpt>
      <trkpt lat="45.8362" lon="4.71076">
        <ele>300.82999</ele>
        <time>2023-07-19T15:14:18.000Z</time>
      </trkpt>
      <trkpt lat="45.83626" lon="4.71082">
        <ele>300.58682</ele>
        <time>2023-07-19T15:14:19.000Z</time>
      </trkpt>
      <trkpt lat="45.83632" lon="4.71089">
        <ele>300.30576</ele>
        <time>2023-07-19T15:14:20.000Z</time>
      </trkpt>
      <trkpt lat="45.83637" lon="4.71095">
        <ele>300.00833</ele>
        <time>2023-07-19T15:14:21.000Z</time>
      </trkpt>
      <trkpt lat="45.83644" lon="4.71101">
        <ele>299.68484</ele>
        <time>2023-07-19T15:14:22.000Z</time>
      </trkpt>
      <trkpt lat="45.83651" lon="4.71107">
        <ele>299.43195</ele>
        <time>2023-07-19T15:14:23.000Z</time>
      </trkpt>
      <trkpt lat="45.83657" lon="4.71113">
        <ele>299.18634</ele>
        <time>2023-07-19T15:14:24.000Z</time>
      </trkpt>
      <trkpt lat="45.83664" lon="4.7112">
        <ele>298.93985</ele>
        <time>2023-07-19T15:14:25.000Z</time>
      </trkpt>
      <trkpt lat="45.83671" lon="4.71127">
        <ele>298.64322</ele>
        <time>2023-07-19T15:14:26.000Z</time>
      </trkpt>
      <trkpt lat="45.83678" lon="4.71133">
        <ele>298.3255</ele>
        <time>2023-07-19T15:14:27.000Z</time>
      </trkpt>
      <trkpt lat="45.83683" lon="4.71139">
        <ele>298.01871</ele>
        <time>2023-07-19T15:14:28.000Z</time>
      </trkpt>
      <trkpt lat="45.8369" lon="4.71144">
        <ele>297.82358</ele>
        <time>2023-07-19T15:14:29.000Z</time>
      </trkpt>
      <trkpt lat="45.83695" lon="4.71148">
        <ele>297.61771</ele>
        <time>2023-07-19T15:14:30.000Z</time>
      </trkpt>
      <trkpt lat="45.83699" lon="4.71154">
        <ele>297.24142</ele>
        <time>2023-07-19T15:14:31.000Z</time>
      </trkpt>
      <trkpt lat="45.83698" lon="4.7116">
        <ele>296.94229</ele>
        <time>2023-07-19T15:14:32.000Z</time>
      </trkpt>
      <trkpt lat="45.83696" lon="4.71166">
        <ele>296.64468</ele>
        <time>2023-07-19T15:14:33.000Z</time>
      </trkpt>
      <trkpt lat="45.83694" lon="4.71173">
        <ele>296.36081</ele>
        <time>2023-07-19T15:14:34.000Z</time>
      </trkpt>
      <trkpt lat="45.83692" lon="4.7118">
        <ele>296.10553</ele>
        <time>2023-07-19T15:14:35.000Z</time>
      </trkpt>
      <trkpt lat="45.83689" lon="4.71186">
        <ele>295.85965</ele>
        <time>2023-07-19T15:14:36.000Z</time>
      </trkpt>
      <trkpt lat="45.83687" lon="4.71194">
        <ele>295.63367</ele>
        <time>2023-07-19T15:14:37.000Z</time>
      </trkpt>
      <trkpt lat="45.83684" lon="4.71201">
        <ele>295.38641</ele>
        <time>2023-07-19T15:14:38.000Z</time>
      </trkpt>
      <trkpt lat="45.83682" lon="4.71208">
        <ele>295.17792</ele>
        <time>2023-07-19T15:14:39.000Z</time>
      </trkpt>
      <trkpt lat="45.8368" lon="4.71215">
        <ele>295.01254</ele>
        <time>2023-07-19T15:14:40.000Z</time>
      </trkpt>
      <trkpt lat="45.83678" lon="4.71222">
        <ele>294.91611</ele>
        <time>2023-07-19T15:14:41.000Z</time>
      </trkpt>
      <trkpt lat="45.83677" lon="4.71231">
        <ele>294.83942</ele>
        <time>2023-07-19T15:14:42.000Z</time>
      </trkpt>
      <trkpt lat="45.83675" lon="4.71238">
        <ele>294.79181</ele>
        <time>2023-07-19T15:14:43.000Z</time>
      </trkpt>
      <trkpt lat="45.83673" lon="4.71246">
        <ele>294.76093</ele>
        <time>2023-07-19T15:14:44.000Z</time>
      </trkpt>
      <trkpt lat="45.83671" lon="4.71253">
        <ele>294.76013</ele>
        <time>2023-07-19T15:14:45.000Z</time>
      </trkpt>
      <trkpt lat="45.8367" lon="4.7126">
        <ele>294.78876</ele>
        <time>2023-07-19T15:14:46.000Z</time>
      </trkpt>
      <trkpt lat="45.83669" lon="4.71267">
        <ele>294.86655</ele>
        <time>2023-07-19T15:14:47.000Z</time>
      </trkpt>
      <trkpt lat="45.83668" lon="4.71274">
        <ele>295.09344</ele>
        <time>2023-07-19T15:14:48.000Z</time>
      </trkpt>
      <trkpt lat="45.83666" lon="4.71282">
        <ele>295.14227</ele>
        <time>2023-07-19T15:14:49.000Z</time>
      </trkpt>
      <trkpt lat="45.83665" lon="4.71289">
        <ele>295.18735</ele>
        <time>2023-07-19T15:14:50.000Z</time>
      </trkpt>
      <trkpt lat="45.83662" lon="4.71297">
        <ele>295.2204</ele>
        <time>2023-07-19T15:14:51.000Z</time>
      </trkpt>
      <trkpt lat="45.83661" lon="4.71303">
        <ele>295.28412</ele>
        <time>2023-07-19T15:14:52.000Z</time>
      </trkpt>
      <trkpt lat="45.8366" lon="4.71311">
        <ele>295.38425</ele>
        <time>2023-07-19T15:14:53.000Z</time>
      </trkpt>
      <trkpt lat="45.83658" lon="4.7132">
        <ele>295.44266</ele>
        <time>2023-07-19T15:14:54.000Z</time>
      </trkpt>
      <trkpt lat="45.83657" lon="4.71327">
        <ele>295.49164</ele>
        <time>2023-07-19T15:14:55.000Z</time>
      </trkpt>
      <trkpt lat="45.83655" lon="4.71336">
        <ele>295.56363</ele>
        <time>2023-07-19T15:14:56.000Z</time>
      </trkpt>
      <trkpt lat="45.83653" lon="4.71344">
        <ele>295.62558</ele>
        <time>2023-07-19T15:14:57.000Z</time>
      </trkpt>
      <trkpt lat="45.83651" lon="4.71351">
        <ele>295.69568</ele>
        <time>2023-07-19T15:14:58.000Z</time>
      </trkpt>
      <trkpt lat="45.83649" lon="4.7136">
        <ele>295.78839</ele>
        <time>2023-07-19T15:14:59.000Z</time>
      </trkpt>
      <trkpt lat="45.83648" lon="4.71368">
        <ele>295.84949</ele>
        <time>2023-07-19T15:15:00.000Z</time>
      </trkpt>
      <trkpt lat="45.83647" lon="4.71377">
        <ele>295.88083</ele>
        <time>2023-07-19T15:15:01.000Z</time>
      </trkpt>
      <trkpt lat="45.83646" lon="4.71385">
        <ele>295.90118</ele>
        <time>2023-07-19T15:15:02.000Z</time>
      </trkpt>
      <trkpt lat="45.83644" lon="4.71393">
        <ele>295.88239</ele>
        <time>2023-07-19T15:15:03.000Z</time>
      </trkpt>
      <trkpt lat="45.83642" lon="4.714">
        <ele>295.92847</ele>
        <time>2023-07-19T15:15:04.000Z</time>
      </trkpt>
      <trkpt lat="45.8364" lon="4.71408">
        <ele>295.97073</ele>
        <time>2023-07-19T15:15:05.000Z</time>
      </trkpt>
      <trkpt lat="45.83638" lon="4.71416">
        <ele>295.99179</ele>
        <time>2023-07-19T15:15:06.000Z</time>
      </trkpt>
      <trkpt lat="45.83636" lon="4.71424">
        <ele>296.06473</ele>
        <time>2023-07-19T15:15:07.000Z</time>
      </trkpt>
      <trkpt lat="45.83634" lon="4.71431">
        <ele>295.97101</ele>
        <time>2023-07-19T15:15:08.000Z</time>
      </trkpt>
      <trkpt lat="45.83632" lon="4.71438">
        <ele>295.77124</ele>
        <time>2023-07-19T15:15:09.000Z</time>
      </trkpt>
      <trkpt lat="45.8363" lon="4.71445">
        <ele>295.60065</ele>
        <time>2023-07-19T15:15:10.000Z</time>
      </trkpt>
      <trkpt lat="45.83628" lon="4.71452">
        <ele>295.45847</ele>
        <time>2023-07-19T15:15:11.000Z</time>
      </trkpt>
      <trkpt lat="45.83627" lon="4.71458">
        <ele>295.23193</ele>
        <time>2023-07-19T15:15:12.000Z</time>
      </trkpt>
      <trkpt lat="45.83625" lon="4.71464">
        <ele>295.02069</ele>
        <time>2023-07-19T15:15:13.000Z</time>
      </trkpt>
      <trkpt lat="45.83623" lon="4.7147">
        <ele>294.87903</ele>
        <time>2023-07-19T15:15:14.000Z</time>
      </trkpt>
      <trkpt lat="45.8362" lon="4.71476">
        <ele>294.755</ele>
        <time>2023-07-19T15:15:15.000Z</time>
      </trkpt>
      <trkpt lat="45.83618" lon="4.71481">
        <ele>294.59918</ele>
        <time>2023-07-19T15:15:16.000Z</time>
      </trkpt>
      <trkpt lat="45.83614" lon="4.71484">
        <ele>294.48148</ele>
        <time>2023-07-19T15:15:17.000Z</time>
      </trkpt>
      <trkpt lat="45.8361" lon="4.71488">
        <ele>294.40692</ele>
        <time>2023-07-19T15:15:18.000Z</time>
      </trkpt>
      <trkpt lat="45.83607" lon="4.71493">
        <ele>294.28296</ele>
        <time>2023-07-19T15:15:19.000Z</time>
      </trkpt>
      <trkpt lat="45.83603" lon="4.71497">
        <ele>294.20163</ele>
        <time>2023-07-19T15:15:20.000Z</time>
      </trkpt>
      <trkpt lat="45.83602" lon="4.71502">
        <ele>294.2157</ele>
        <time>2023-07-19T15:15:21.000Z</time>
      </trkpt>
      <trkpt lat="45.83606" lon="4.71509">
        <ele>294.29852</ele>
        <time>2023-07-19T15:15:22.000Z</time>
      </trkpt>
      <trkpt lat="45.83608" lon="4.71516">
        <ele>294.3898</ele>
        <time>2023-07-19T15:15:23.000Z</time>
      </trkpt>
      <trkpt lat="45.83611" lon="4.71524">
        <ele>294.30975</ele>
        <time>2023-07-19T15:15:24.000Z</time>
      </trkpt>
      <trkpt lat="45.83615" lon="4.71531">
        <ele>294.18488</ele>
        <time>2023-07-19T15:15:25.000Z</time>
      </trkpt>
      <trkpt lat="45.83617" lon="4.71537">
        <ele>294.08322</ele>
        <time>2023-07-19T15:15:26.000Z</time>
      </trkpt>
      <trkpt lat="45.83619" lon="4.71544">
        <ele>293.8912</ele>
        <time>2023-07-19T15:15:27.000Z</time>
      </trkpt>
      <trkpt lat="45.83619" lon="4.71551">
        <ele>293.70407</ele>
        <time>2023-07-19T15:15:28.000Z</time>
      </trkpt>
      <trkpt lat="45.83619" lon="4.71557">
        <ele>293.70505</ele>
        <time>2023-07-19T15:15:29.000Z</time>
      </trkpt>
      <trkpt lat="45.83618" lon="4.71562">
        <ele>293.76505</ele>
        <time>2023-07-19T15:15:30.000Z</time>
      </trkpt>
      <trkpt lat="45.83618" lon="4.71568">
        <ele>293.86554</ele>
        <time>2023-07-19T15:15:31.000Z</time>
      </trkpt>
      <trkpt lat="45.83617" lon="4.71573">
        <ele>293.76837</ele>
        <time>2023-07-19T15:15:32.000Z</time>
      </trkpt>
      <trkpt lat="45.83616" lon="4.71581">
        <ele>293.60318</ele>
        <time>2023-07-19T15:15:33.000Z</time>
      </trkpt>
      <trkpt lat="45.83616" lon="4.71587">
        <ele>293.35391</ele>
        <time>2023-07-19T15:15:34.000Z</time>
      </trkpt>
      <trkpt lat="45.83617" lon="4.71591">
        <ele>293.03183</ele>
        <time>2023-07-19T15:15:35.000Z</time>
      </trkpt>
      <trkpt lat="45.83617" lon="4.71594">
        <ele>292.70502</ele>
        <time>2023-07-19T15:15:36.000Z</time>
      </trkpt>
      <trkpt lat="45.83618" lon="4.71599">
        <ele>292.43188</ele>
        <time>2023-07-19T15:15:37.000Z</time>
      </trkpt>
      <trkpt lat="45.83618" lon="4.71605">
        <ele>292.29462</ele>
        <time>2023-07-19T15:15:38.000Z</time>
      </trkpt>
      <trkpt lat="45.83621" lon="4.71611">
        <ele>292.1333</ele>
        <time>2023-07-19T15:15:39.000Z</time>
      </trkpt>
      <trkpt lat="45.83622" lon="4.71616">
        <ele>292.11292</ele>
        <time>2023-07-19T15:15:40.000Z</time>
      </trkpt>
      <trkpt lat="45.83622" lon="4.71622">
        <ele>292.06009</ele>
        <time>2023-07-19T15:15:41.000Z</time>
      </trkpt>
      <trkpt lat="45.83625" lon="4.71627">
        <ele>291.54776</ele>
        <time>2023-07-19T15:15:42.000Z</time>
      </trkpt>
      <trkpt lat="45.83627" lon="4.71633">
        <ele>291.12036</ele>
        <time>2023-07-19T15:15:43.000Z</time>
      </trkpt>
      <trkpt lat="45.83631" lon="4.71638">
        <ele>290.74628</ele>
        <time>2023-07-19T15:15:44.000Z</time>
      </trkpt>
      <trkpt lat="45.83634" lon="4.71643">
        <ele>290.3262</ele>
        <time>2023-07-19T15:15:45.000Z</time>
      </trkpt>
      <trkpt lat="45.8364" lon="4.71649">
        <ele>289.92761</ele>
        <time>2023-07-19T15:15:46.000Z</time>
      </trkpt>
      <trkpt lat="45.83645" lon="4.71651">
        <ele>289.582</ele>
        <time>2023-07-19T15:15:47.000Z</time>
      </trkpt>
      <trkpt lat="45.8365" lon="4.71653">
        <ele>289.26447</ele>
        <time>2023-07-19T15:15:48.000Z</time>
      </trkpt>
      <trkpt lat="45.83656" lon="4.71655">
        <ele>288.89105</ele>
        <time>2023-07-19T15:15:49.000Z</time>
      </trkpt>
      <trkpt lat="45.83661" lon="4.71655">
        <ele>288.41245</ele>
        <time>2023-07-19T15:15:50.000Z</time>
      </trkpt>
      <trkpt lat="45.83666" lon="4.71653">
        <ele>287.96445</ele>
        <time>2023-07-19T15:15:51.000Z</time>
      </trkpt>
      <trkpt lat="45.83672" lon="4.71649">
        <ele>287.84293</ele>
        <time>2023-07-19T15:15:52.000Z</time>
      </trkpt>
      <trkpt lat="45.83678" lon="4.71647">
        <ele>287.90924</ele>
        <time>2023-07-19T15:15:53.000Z</time>
      </trkpt>
      <trkpt lat="45.83683" lon="4.71645">
        <ele>288.04108</ele>
        <time>2023-07-19T15:15:54.000Z</time>
      </trkpt>
      <trkpt lat="45.83686" lon="4.71646">
        <ele>288.22128</ele>
        <time>2023-07-19T15:15:55.000Z</time>
      </trkpt>
      <trkpt lat="45.8369" lon="4.71648">
        <ele>288.58218</ele>
        <time>2023-07-19T15:15:56.000Z</time>
      </trkpt>
      <trkpt lat="45.83698" lon="4.71651">
        <ele>288.82965</ele>
        <time>2023-07-19T15:15:57.000Z</time>
      </trkpt>
      <trkpt lat="45.83701" lon="4.71657">
        <ele>288.89902</ele>
        <time>2023-07-19T15:15:58.000Z</time>
      </trkpt>
      <trkpt lat="45.83705" lon="4.71663">
        <ele>289.04727</ele>
        <time>2023-07-19T15:15:59.000Z</time>
      </trkpt>
      <trkpt lat="45.83708" lon="4.71671">
        <ele>288.81741</ele>
        <time>2023-07-19T15:16:00.000Z</time>
      </trkpt>
      <trkpt lat="45.83714" lon="4.7168">
        <ele>288.427</ele>
        <time>2023-07-19T15:16:01.000Z</time>
      </trkpt>
      <trkpt lat="45.83718" lon="4.71687">
        <ele>288.44937</ele>
        <time>2023-07-19T15:16:02.000Z</time>
      </trkpt>
      <trkpt lat="45.83721" lon="4.71694">
        <ele>288.33868</ele>
        <time>2023-07-19T15:16:03.000Z</time>
      </trkpt>
      <trkpt lat="45.83725" lon="4.71697">
        <ele>288.23944</ele>
        <time>2023-07-19T15:16:04.000Z</time>
      </trkpt>
      <trkpt lat="45.83729" lon="4.71697">
        <ele>288.15057</ele>
        <time>2023-07-19T15:16:05.000Z</time>
      </trkpt>
      <trkpt lat="45.83733" lon="4.71697">
        <ele>288.0047</ele>
        <time>2023-07-19T15:16:06.000Z</time>
      </trkpt>
      <trkpt lat="45.83739" lon="4.71695">
        <ele>287.89032</ele>
        <time>2023-07-19T15:16:07.000Z</time>
      </trkpt>
      <trkpt lat="45.83743" lon="4.71698">
        <ele>287.78094</ele>
        <time>2023-07-19T15:16:08.000Z</time>
      </trkpt>
      <trkpt lat="45.83747" lon="4.71699">
        <ele>287.60962</ele>
        <time>2023-07-19T15:16:09.000Z</time>
      </trkpt>
      <trkpt lat="45.8375" lon="4.717">
        <ele>287.28824</ele>
        <time>2023-07-19T15:16:10.000Z</time>
      </trkpt>
      <trkpt lat="45.83753" lon="4.717">
        <ele>286.91153</ele>
        <time>2023-07-19T15:16:11.000Z</time>
      </trkpt>
      <trkpt lat="45.83757" lon="4.71699">
        <ele>286.3667</ele>
        <time>2023-07-19T15:16:12.000Z</time>
      </trkpt>
      <trkpt lat="45.83761" lon="4.71698">
        <ele>285.68021</ele>
        <time>2023-07-19T15:16:13.000Z</time>
      </trkpt>
      <trkpt lat="45.83765" lon="4.71699">
        <ele>284.96616</ele>
        <time>2023-07-19T15:16:14.000Z</time>
      </trkpt>
      <trkpt lat="45.83769" lon="4.717">
        <ele>284.2785</ele>
        <time>2023-07-19T15:16:15.000Z</time>
      </trkpt>
      <trkpt lat="45.83773" lon="4.71701">
        <ele>283.44403</ele>
        <time>2023-07-19T15:16:16.000Z</time>
      </trkpt>
      <trkpt lat="45.83777" lon="4.71702">
        <ele>282.60989</ele>
        <time>2023-07-19T15:16:17.000Z</time>
      </trkpt>
      <trkpt lat="45.83781" lon="4.71704">
        <ele>281.80109</ele>
        <time>2023-07-19T15:16:18.000Z</time>
      </trkpt>
      <trkpt lat="45.83785" lon="4.71705">
        <ele>280.9744</ele>
        <time>2023-07-19T15:16:19.000Z</time>
      </trkpt>
      <trkpt lat="45.83789" lon="4.71705">
        <ele>280.37881</ele>
        <time>2023-07-19T15:16:20.000Z</time>
      </trkpt>
      <trkpt lat="45.83792" lon="4.71706">
        <ele>279.89996</ele>
        <time>2023-07-19T15:16:21.000Z</time>
      </trkpt>
      <trkpt lat="45.83796" lon="4.71707">
        <ele>279.40063</ele>
        <time>2023-07-19T15:16:22.000Z</time>
      </trkpt>
      <trkpt lat="45.83799" lon="4.71709">
        <ele>279.00037</ele>
        <time>2023-07-19T15:16:23.000Z</time>
      </trkpt>
      <trkpt lat="45.83803" lon="4.7171">
        <ele>278.63629</ele>
        <time>2023-07-19T15:16:24.000Z</time>
      </trkpt>
      <trkpt lat="45.83807" lon="4.71712">
        <ele>278.31622</ele>
        <time>2023-07-19T15:16:25.000Z</time>
      </trkpt>
      <trkpt lat="45.83811" lon="4.71713">
        <ele>278.05743</ele>
        <time>2023-07-19T15:16:26.000Z</time>
      </trkpt>
      <trkpt lat="45.83814" lon="4.71715">
        <ele>278.07162</ele>
        <time>2023-07-19T15:16:27.000Z</time>
      </trkpt>
      <trkpt lat="45.83817" lon="4.71717">
        <ele>278.03967</ele>
        <time>2023-07-19T15:16:28.000Z</time>
      </trkpt>
      <trkpt lat="45.8382" lon="4.71719">
        <ele>278.08551</ele>
        <time>2023-07-19T15:16:29.000Z</time>
      </trkpt>
      <trkpt lat="45.83824" lon="4.71721">
        <ele>278.48099</ele>
        <time>2023-07-19T15:16:30.000Z</time>
      </trkpt>
      <trkpt lat="45.83828" lon="4.71722">
        <ele>278.52411</ele>
        <time>2023-07-19T15:16:31.000Z</time>
      </trkpt>
      <trkpt lat="45.83832" lon="4.71722">
        <ele>278.74872</ele>
        <time>2023-07-19T15:16:32.000Z</time>
      </trkpt>
      <trkpt lat="45.83836" lon="4.71723">
        <ele>278.94614</ele>
        <time>2023-07-19T15:16:33.000Z</time>
      </trkpt>
      <trkpt lat="45.83841" lon="4.71723">
        <ele>279.13214</ele>
        <time>2023-07-19T15:16:34.000Z</time>
      </trkpt>
      <trkpt lat="45.83845" lon="4.71726">
        <ele>279.32471</ele>
        <time>2023-07-19T15:16:35.000Z</time>
      </trkpt>
      <trkpt lat="45.8385" lon="4.71726">
        <ele>279.49643</ele>
        <time>2023-07-19T15:16:36.000Z</time>
      </trkpt>
      <trkpt lat="45.83855" lon="4.71728">
        <ele>279.72116</ele>
        <time>2023-07-19T15:16:37.000Z</time>
      </trkpt>
      <trkpt lat="45.83859" lon="4.7173">
        <ele>279.92587</ele>
        <time>2023-07-19T15:16:38.000Z</time>
      </trkpt>
      <trkpt lat="45.83864" lon="4.71731">
        <ele>280.12125</ele>
        <time>2023-07-19T15:16:39.000Z</time>
      </trkpt>
      <trkpt lat="45.83869" lon="4.71733">
        <ele>280.28665</ele>
        <time>2023-07-19T15:16:40.000Z</time>
      </trkpt>
      <trkpt lat="45.83873" lon="4.71734">
        <ele>280.62265</ele>
        <time>2023-07-19T15:16:41.000Z</time>
      </trkpt>
      <trkpt lat="45.83876" lon="4.71735">
        <ele>281.15204</ele>
        <time>2023-07-19T15:16:42.000Z</time>
      </trkpt>
      <trkpt lat="45.83881" lon="4.71736">
        <ele>281.73199</ele>
        <time>2023-07-19T15:16:43.000Z</time>
      </trkpt>
      <trkpt lat="45.83884" lon="4.71738">
        <ele>281.91061</ele>
        <time>2023-07-19T15:16:44.000Z</time>
      </trkpt>
      <trkpt lat="45.83889" lon="4.71739">
        <ele>282.13312</ele>
        <time>2023-07-19T15:16:45.000Z</time>
      </trkpt>
      <trkpt lat="45.83892" lon="4.71741">
        <ele>282.3233</ele>
        <time>2023-07-19T15:16:46.000Z</time>
      </trkpt>
      <trkpt lat="45.83895" lon="4.71741">
        <ele>282.21808</ele>
        <time>2023-07-19T15:16:47.000Z</time>
      </trkpt>
      <trkpt lat="45.83899" lon="4.71743">
        <ele>282.19708</ele>
        <time>2023-07-19T15:16:48.000Z</time>
      </trkpt>
      <trkpt lat="45.83903" lon="4.71744">
        <ele>282.17865</ele>
        <time>2023-07-19T15:16:49.000Z</time>
      </trkpt>
      <trkpt lat="45.83907" lon="4.71746">
        <ele>281.98846</ele>
        <time>2023-07-19T15:16:50.000Z</time>
      </trkpt>
      <trkpt lat="45.83911" lon="4.71747">
        <ele>282.11993</ele>
        <time>2023-07-19T15:16:51.000Z</time>
      </trkpt>
      <trkpt lat="45.83916" lon="4.71748">
        <ele>282.2056</ele>
        <time>2023-07-19T15:16:52.000Z</time>
      </trkpt>
      <trkpt lat="45.8392" lon="4.7175">
        <ele>282.30673</ele>
        <time>2023-07-19T15:16:53.000Z</time>
      </trkpt>
      <trkpt lat="45.83925" lon="4.71752">
        <ele>282.45868</ele>
        <time>2023-07-19T15:16:54.000Z</time>
      </trkpt>
      <trkpt lat="45.83929" lon="4.71754">
        <ele>282.59454</ele>
        <time>2023-07-19T15:16:55.000Z</time>
      </trkpt>
      <trkpt lat="45.83934" lon="4.71757">
        <ele>282.7525</ele>
        <time>2023-07-19T15:16:56.000Z</time>
      </trkpt>
      <trkpt lat="45.83939" lon="4.71763">
        <ele>282.81332</ele>
        <time>2023-07-19T15:16:57.000Z</time>
      </trkpt>
      <trkpt lat="45.83942" lon="4.71768">
        <ele>282.91031</ele>
        <time>2023-07-19T15:16:58.000Z</time>
      </trkpt>
      <trkpt lat="45.83944" lon="4.71774">
        <ele>283.02118</ele>
        <time>2023-07-19T15:16:59.000Z</time>
      </trkpt>
      <trkpt lat="45.83946" lon="4.7178">
        <ele>283.17233</ele>
        <time>2023-07-19T15:17:00.000Z</time>
      </trkpt>
      <trkpt lat="45.83948" lon="4.71785">
        <ele>283.27441</ele>
        <time>2023-07-19T15:17:01.000Z</time>
      </trkpt>
      <trkpt lat="45.83949" lon="4.71792">
        <ele>283.20862</ele>
        <time>2023-07-19T15:17:02.000Z</time>
      </trkpt>
      <trkpt lat="45.8395" lon="4.71798">
        <ele>283.09882</ele>
        <time>2023-07-19T15:17:03.000Z</time>
      </trkpt>
      <trkpt lat="45.83951" lon="4.71805">
        <ele>283.40768</ele>
        <time>2023-07-19T15:17:04.000Z</time>
      </trkpt>
      <trkpt lat="45.83954" lon="4.71811">
        <ele>283.68658</ele>
        <time>2023-07-19T15:17:05.000Z</time>
      </trkpt>
      <trkpt lat="45.83957" lon="4.71818">
        <ele>284.08618</ele>
        <time>2023-07-19T15:17:06.000Z</time>
      </trkpt>
      <trkpt lat="45.8396" lon="4.71822">
        <ele>284.1387</ele>
        <time>2023-07-19T15:17:07.000Z</time>
      </trkpt>
      <trkpt lat="45.83963" lon="4.71828">
        <ele>284.17798</ele>
        <time>2023-07-19T15:17:08.000Z</time>
      </trkpt>
      <trkpt lat="45.83967" lon="4.71834">
        <ele>284.26657</ele>
        <time>2023-07-19T15:17:09.000Z</time>
      </trkpt>
      <trkpt lat="45.8397" lon="4.71839">
        <ele>284.3688</ele>
        <time>2023-07-19T15:17:10.000Z</time>
      </trkpt>
      <trkpt lat="45.83975" lon="4.71845">
        <ele>284.49496</ele>
        <time>2023-07-19T15:17:11.000Z</time>
      </trkpt>
      <trkpt lat="45.83978" lon="4.71851">
        <ele>284.56097</ele>
        <time>2023-07-19T15:17:12.000Z</time>
      </trkpt>
      <trkpt lat="45.83982" lon="4.71857">
        <ele>284.63303</ele>
        <time>2023-07-19T15:17:13.000Z</time>
      </trkpt>
      <trkpt lat="45.83985" lon="4.71863">
        <ele>284.64423</ele>
        <time>2023-07-19T15:17:14.000Z</time>
      </trkpt>
      <trkpt lat="45.8399" lon="4.71867">
        <ele>284.64529</ele>
        <time>2023-07-19T15:17:15.000Z</time>
      </trkpt>
      <trkpt lat="45.83993" lon="4.71872">
        <ele>284.64377</ele>
        <time>2023-07-19T15:17:16.000Z</time>
      </trkpt>
      <trkpt lat="45.83997" lon="4.71876">
        <ele>284.73209</ele>
        <time>2023-07-19T15:17:17.000Z</time>
      </trkpt>
      <trkpt lat="45.84001" lon="4.71883">
        <ele>284.78137</ele>
        <time>2023-07-19T15:17:18.000Z</time>
      </trkpt>
      <trkpt lat="45.84004" lon="4.71889">
        <ele>284.96255</ele>
        <time>2023-07-19T15:17:19.000Z</time>
      </trkpt>
      <trkpt lat="45.84008" lon="4.71896">
        <ele>285.19406</ele>
        <time>2023-07-19T15:17:20.000Z</time>
      </trkpt>
      <trkpt lat="45.84009" lon="4.71903">
        <ele>285.30548</ele>
        <time>2023-07-19T15:17:21.000Z</time>
      </trkpt>
      <trkpt lat="45.84009" lon="4.7191">
        <ele>285.09332</ele>
        <time>2023-07-19T15:17:22.000Z</time>
      </trkpt>
      <trkpt lat="45.8401" lon="4.71918">
        <ele>284.90714</ele>
        <time>2023-07-19T15:17:23.000Z</time>
      </trkpt>
      <trkpt lat="45.8401" lon="4.71927">
        <ele>284.68057</ele>
        <time>2023-07-19T15:17:24.000Z</time>
      </trkpt>
      <trkpt lat="45.8401" lon="4.71937">
        <ele>284.43549</ele>
        <time>2023-07-19T15:17:25.000Z</time>
      </trkpt>
      <trkpt lat="45.8401" lon="4.71948">
        <ele>284.04593</ele>
        <time>2023-07-19T15:17:26.000Z</time>
      </trkpt>
      <trkpt lat="45.84011" lon="4.71958">
        <ele>283.94742</ele>
        <time>2023-07-19T15:17:27.000Z</time>
      </trkpt>
      <trkpt lat="45.84011" lon="4.71968">
        <ele>283.81134</ele>
        <time>2023-07-19T15:17:28.000Z</time>
      </trkpt>
      <trkpt lat="45.84011" lon="4.71979">
        <ele>283.64984</ele>
        <time>2023-07-19T15:17:29.000Z</time>
      </trkpt>
      <trkpt lat="45.84012" lon="4.7199">
        <ele>283.4523</ele>
        <time>2023-07-19T15:17:30.000Z</time>
      </trkpt>
      <trkpt lat="45.84012" lon="4.72001">
        <ele>283.21136</ele>
        <time>2023-07-19T15:17:31.000Z</time>
      </trkpt>
      <trkpt lat="45.84013" lon="4.72013">
        <ele>282.99158</ele>
        <time>2023-07-19T15:17:32.000Z</time>
      </trkpt>
      <trkpt lat="45.84014" lon="4.72023">
        <ele>282.72809</ele>
        <time>2023-07-19T15:17:33.000Z</time>
      </trkpt>
      <trkpt lat="45.84014" lon="4.72033">
        <ele>282.47556</ele>
        <time>2023-07-19T15:17:34.000Z</time>
      </trkpt>
      <trkpt lat="45.84015" lon="4.72044">
        <ele>282.23303</ele>
        <time>2023-07-19T15:17:35.000Z</time>
      </trkpt>
      <trkpt lat="45.84015" lon="4.72054">
        <ele>281.96719</ele>
        <time>2023-07-19T15:17:36.000Z</time>
      </trkpt>
      <trkpt lat="45.84016" lon="4.72064">
        <ele>281.69855</ele>
        <time>2023-07-19T15:17:37.000Z</time>
      </trkpt>
      <trkpt lat="45.84017" lon="4.72073">
        <ele>281.43658</ele>
        <time>2023-07-19T15:17:38.000Z</time>
      </trkpt>
      <trkpt lat="45.84018" lon="4.72083">
        <ele>281.04758</ele>
        <time>2023-07-19T15:17:39.000Z</time>
      </trkpt>
      <trkpt lat="45.84018" lon="4.72093">
        <ele>280.57791</ele>
        <time>2023-07-19T15:17:40.000Z</time>
      </trkpt>
      <trkpt lat="45.8402" lon="4.72101">
        <ele>280.14481</ele>
        <time>2023-07-19T15:17:41.000Z</time>
      </trkpt>
      <trkpt lat="45.8402" lon="4.7211">
        <ele>280.03464</ele>
        <time>2023-07-19T15:17:42.000Z</time>
      </trkpt>
      <trkpt lat="45.8402" lon="4.72118">
        <ele>279.48004</ele>
        <time>2023-07-19T15:17:43.000Z</time>
      </trkpt>
      <trkpt lat="45.84021" lon="4.72126">
        <ele>278.95847</ele>
        <time>2023-07-19T15:17:44.000Z</time>
      </trkpt>
      <trkpt lat="45.84021" lon="4.72134">
        <ele>278.52655</ele>
        <time>2023-07-19T15:17:45.000Z</time>
      </trkpt>
      <trkpt lat="45.84021" lon="4.72142">
        <ele>278.1459</ele>
        <time>2023-07-19T15:17:46.000Z</time>
      </trkpt>
      <trkpt lat="45.84021" lon="4.72148">
        <ele>277.80685</ele>
        <time>2023-07-19T15:17:47.000Z</time>
      </trkpt>
      <trkpt lat="45.84021" lon="4.72155">
        <ele>277.47412</ele>
        <time>2023-07-19T15:17:48.000Z</time>
      </trkpt>
      <trkpt lat="45.84018" lon="4.7216">
        <ele>277.10812</ele>
        <time>2023-07-19T15:17:49.000Z</time>
      </trkpt>
      <trkpt lat="45.84015" lon="4.72165">
        <ele>276.77621</ele>
        <time>2023-07-19T15:17:50.000Z</time>
      </trkpt>
      <trkpt lat="45.8401" lon="4.72167">
        <ele>276.4729</ele>
        <time>2023-07-19T15:17:51.000Z</time>
      </trkpt>
      <trkpt lat="45.84005" lon="4.72169">
        <ele>276.15912</ele>
        <time>2023-07-19T15:17:52.000Z</time>
      </trkpt>
      <trkpt lat="45.84001" lon="4.72169">
        <ele>275.85815</ele>
        <time>2023-07-19T15:17:53.000Z</time>
      </trkpt>
      <trkpt lat="45.83995" lon="4.72168">
        <ele>275.5683</ele>
        <time>2023-07-19T15:17:54.000Z</time>
      </trkpt>
      <trkpt lat="45.8399" lon="4.72167">
        <ele>275.26532</ele>
        <time>2023-07-19T15:17:55.000Z</time>
      </trkpt>
      <trkpt lat="45.83985" lon="4.72167">
        <ele>274.961</ele>
        <time>2023-07-19T15:17:56.000Z</time>
      </trkpt>
      <trkpt lat="45.8398" lon="4.72166">
        <ele>274.52765</ele>
        <time>2023-07-19T15:17:57.000Z</time>
      </trkpt>
      <trkpt lat="45.83974" lon="4.72165">
        <ele>274.12613</ele>
        <time>2023-07-19T15:17:58.000Z</time>
      </trkpt>
      <trkpt lat="45.8397" lon="4.72163">
        <ele>274.4809</ele>
        <time>2023-07-19T15:17:59.000Z</time>
      </trkpt>
      <trkpt lat="45.83965" lon="4.72161">
        <ele>274.50037</ele>
        <time>2023-07-19T15:18:00.000Z</time>
      </trkpt>
      <trkpt lat="45.83959" lon="4.72162">
        <ele>274.5191</ele>
        <time>2023-07-19T15:18:01.000Z</time>
      </trkpt>
      <trkpt lat="45.83955" lon="4.72161">
        <ele>274.54962</ele>
        <time>2023-07-19T15:18:02.000Z</time>
      </trkpt>
      <trkpt lat="45.8395" lon="4.72159">
        <ele>274.99713</ele>
        <time>2023-07-19T15:18:03.000Z</time>
      </trkpt>
      <trkpt lat="45.83947" lon="4.72159">
        <ele>275.41473</ele>
        <time>2023-07-19T15:18:04.000Z</time>
      </trkpt>
      <trkpt lat="45.83943" lon="4.72158">
        <ele>275.80875</ele>
        <time>2023-07-19T15:18:05.000Z</time>
      </trkpt>
      <trkpt lat="45.8394" lon="4.72159">
        <ele>276.20331</ele>
        <time>2023-07-19T15:18:06.000Z</time>
      </trkpt>
      <trkpt lat="45.83939" lon="4.72163">
        <ele>276.57391</ele>
        <time>2023-07-19T15:18:07.000Z</time>
      </trkpt>
      <trkpt lat="45.8394" lon="4.72169">
        <ele>276.9545</ele>
        <time>2023-07-19T15:18:09.000Z</time>
      </trkpt>
      <trkpt lat="45.83941" lon="4.72174">
        <ele>277.37424</ele>
        <time>2023-07-19T15:18:10.000Z</time>
      </trkpt>
      <trkpt lat="45.83943" lon="4.72178">
        <ele>277.78271</ele>
        <time>2023-07-19T15:18:11.000Z</time>
      </trkpt>
      <trkpt lat="45.83945" lon="4.72182">
        <ele>278.20154</ele>
        <time>2023-07-19T15:18:12.000Z</time>
      </trkpt>
      <trkpt lat="45.83947" lon="4.72187">
        <ele>278.61734</ele>
        <time>2023-07-19T15:18:13.000Z</time>
      </trkpt>
      <trkpt lat="45.83949" lon="4.72192">
        <ele>279.05444</ele>
        <time>2023-07-19T15:18:14.000Z</time>
      </trkpt>
      <trkpt lat="45.83952" lon="4.72197">
        <ele>279.50598</ele>
        <time>2023-07-19T15:18:15.000Z</time>
      </trkpt>
      <trkpt lat="45.83956" lon="4.72204">
        <ele>279.8725</ele>
        <time>2023-07-19T15:18:16.000Z</time>
      </trkpt>
      <trkpt lat="45.83959" lon="4.72209">
        <ele>280.26736</ele>
        <time>2023-07-19T15:18:17.000Z</time>
      </trkpt>
      <trkpt lat="45.83962" lon="4.72214">
        <ele>280.7843</ele>
        <time>2023-07-19T15:18:18.000Z</time>
      </trkpt>
      <trkpt lat="45.83964" lon="4.72219">
        <ele>281.28787</ele>
        <time>2023-07-19T15:18:19.000Z</time>
      </trkpt>
      <trkpt lat="45.83967" lon="4.72225">
        <ele>281.01523</ele>
        <time>2023-07-19T15:18:20.000Z</time>
      </trkpt>
      <trkpt lat="45.83969" lon="4.72229">
        <ele>281.0972</ele>
        <time>2023-07-19T15:18:21.000Z</time>
      </trkpt>
      <trkpt lat="45.83971" lon="4.72235">
        <ele>281.15988</ele>
        <time>2023-07-19T15:18:22.000Z</time>
      </trkpt>
      <trkpt lat="45.83973" lon="4.72242">
        <ele>281.17035</ele>
        <time>2023-07-19T15:18:23.000Z</time>
      </trkpt>
      <trkpt lat="45.83976" lon="4.72248">
        <ele>281.1748</ele>
        <time>2023-07-19T15:18:24.000Z</time>
      </trkpt>
      <trkpt lat="45.83979" lon="4.72253">
        <ele>281.17804</ele>
        <time>2023-07-19T15:18:25.000Z</time>
      </trkpt>
      <trkpt lat="45.83982" lon="4.72259">
        <ele>280.76904</ele>
        <time>2023-07-19T15:18:26.000Z</time>
      </trkpt>
      <trkpt lat="45.83984" lon="4.72264">
        <ele>280.34686</ele>
        <time>2023-07-19T15:18:27.000Z</time>
      </trkpt>
      <trkpt lat="45.83987" lon="4.7227">
        <ele>279.77377</ele>
        <time>2023-07-19T15:18:28.000Z</time>
      </trkpt>
      <trkpt lat="45.83991" lon="4.72275">
        <ele>279.17349</ele>
        <time>2023-07-19T15:18:29.000Z</time>
      </trkpt>
      <trkpt lat="45.83994" lon="4.72281">
        <ele>278.56195</ele>
        <time>2023-07-19T15:18:30.000Z</time>
      </trkpt>
      <trkpt lat="45.83997" lon="4.72286">
        <ele>277.95142</ele>
        <time>2023-07-19T15:18:31.000Z</time>
      </trkpt>
      <trkpt lat="45.84" lon="4.72291">
        <ele>277.32776</ele>
        <time>2023-07-19T15:18:32.000Z</time>
      </trkpt>
      <trkpt lat="45.84003" lon="4.72296">
        <ele>277.03058</ele>
        <time>2023-07-19T15:18:33.000Z</time>
      </trkpt>
      <trkpt lat="45.84007" lon="4.72301">
        <ele>276.70905</ele>
        <time>2023-07-19T15:18:34.000Z</time>
      </trkpt>
      <trkpt lat="45.84009" lon="4.72306">
        <ele>276.36371</ele>
        <time>2023-07-19T15:18:35.000Z</time>
      </trkpt>
      <trkpt lat="45.8401" lon="4.72312">
        <ele>275.83691</ele>
        <time>2023-07-19T15:18:36.000Z</time>
      </trkpt>
      <trkpt lat="45.8401" lon="4.72318">
        <ele>275.14838</ele>
        <time>2023-07-19T15:18:37.000Z</time>
      </trkpt>
      <trkpt lat="45.84007" lon="4.72324">
        <ele>274.4624</ele>
        <time>2023-07-19T15:18:38.000Z</time>
      </trkpt>
      <trkpt lat="45.84004" lon="4.72329">
        <ele>273.78238</ele>
        <time>2023-07-19T15:18:39.000Z</time>
      </trkpt>
      <trkpt lat="45.84" lon="4.72333">
        <ele>273.08215</ele>
        <time>2023-07-19T15:18:40.000Z</time>
      </trkpt>
      <trkpt lat="45.83997" lon="4.72337">
        <ele>272.37112</ele>
        <time>2023-07-19T15:18:41.000Z</time>
      </trkpt>
      <trkpt lat="45.83993" lon="4.72342">
        <ele>271.67642</ele>
        <time>2023-07-19T15:18:42.000Z</time>
      </trkpt>
      <trkpt lat="45.83989" lon="4.72348">
        <ele>271.01889</ele>
        <time>2023-07-19T15:18:43.000Z</time>
      </trkpt>
      <trkpt lat="45.83983" lon="4.72353">
        <ele>270.29883</ele>
        <time>2023-07-19T15:18:44.000Z</time>
      </trkpt>
      <trkpt lat="45.83978" lon="4.72356">
        <ele>269.56488</ele>
        <time>2023-07-19T15:18:45.000Z</time>
      </trkpt>
      <trkpt lat="45.83973" lon="4.72361">
        <ele>269.20065</ele>
        <time>2023-07-19T15:18:46.000Z</time>
      </trkpt>
      <trkpt lat="45.83966" lon="4.72365">
        <ele>268.66254</ele>
        <time>2023-07-19T15:18:47.000Z</time>
      </trkpt>
      <trkpt lat="45.83961" lon="4.72371">
        <ele>268.43881</ele>
        <time>2023-07-19T15:18:48.000Z</time>
      </trkpt>
      <trkpt lat="45.83954" lon="4.72375">
        <ele>268.14618</ele>
        <time>2023-07-19T15:18:49.000Z</time>
      </trkpt>
      <trkpt lat="45.83949" lon="4.72379">
        <ele>267.88843</ele>
        <time>2023-07-19T15:18:50.000Z</time>
      </trkpt>
      <trkpt lat="45.83943" lon="4.72381">
        <ele>267.60785</ele>
        <time>2023-07-19T15:18:51.000Z</time>
      </trkpt>
      <trkpt lat="45.83937" lon="4.72384">
        <ele>267.34256</ele>
        <time>2023-07-19T15:18:52.000Z</time>
      </trkpt>
      <trkpt lat="45.8393" lon="4.72385">
        <ele>266.72186</ele>
        <time>2023-07-19T15:18:53.000Z</time>
      </trkpt>
      <trkpt lat="45.83922" lon="4.72388">
        <ele>266.09097</ele>
        <time>2023-07-19T15:18:54.000Z</time>
      </trkpt>
      <trkpt lat="45.83914" lon="4.72392">
        <ele>265.50934</ele>
        <time>2023-07-19T15:18:55.000Z</time>
      </trkpt>
      <trkpt lat="45.83904" lon="4.72399">
        <ele>265.17068</ele>
        <time>2023-07-19T15:18:56.000Z</time>
      </trkpt>
      <trkpt lat="45.83894" lon="4.72404">
        <ele>264.94589</ele>
        <time>2023-07-19T15:18:57.000Z</time>
      </trkpt>
      <trkpt lat="45.83888" lon="4.72408">
        <ele>264.67447</ele>
        <time>2023-07-19T15:18:58.000Z</time>
      </trkpt>
      <trkpt lat="45.83879" lon="4.72413">
        <ele>264.33133</ele>
        <time>2023-07-19T15:18:59.000Z</time>
      </trkpt>
      <trkpt lat="45.83874" lon="4.72415">
        <ele>263.98706</ele>
        <time>2023-07-19T15:19:00.000Z</time>
      </trkpt>
      <trkpt lat="45.83866" lon="4.72419">
        <ele>263.60208</ele>
        <time>2023-07-19T15:19:01.000Z</time>
      </trkpt>
      <trkpt lat="45.83859" lon="4.72424">
        <ele>263.20303</ele>
        <time>2023-07-19T15:19:02.000Z</time>
      </trkpt>
      <trkpt lat="45.83852" lon="4.72428">
        <ele>262.80255</ele>
        <time>2023-07-19T15:19:03.000Z</time>
      </trkpt>
      <trkpt lat="45.83845" lon="4.72436">
        <ele>262.45636</ele>
        <time>2023-07-19T15:19:04.000Z</time>
      </trkpt>
      <trkpt lat="45.8384" lon="4.72444">
        <ele>262.1503</ele>
        <time>2023-07-19T15:19:05.000Z</time>
      </trkpt>
      <trkpt lat="45.83839" lon="4.72452">
        <ele>261.81827</ele>
        <time>2023-07-19T15:19:06.000Z</time>
      </trkpt>
      <trkpt lat="45.83837" lon="4.7246">
        <ele>261.75562</ele>
        <time>2023-07-19T15:19:07.000Z</time>
      </trkpt>
      <trkpt lat="45.83837" lon="4.7247">
        <ele>261.53806</ele>
        <time>2023-07-19T15:19:08.000Z</time>
      </trkpt>
      <trkpt lat="45.83837" lon="4.72478">
        <ele>261.45172</ele>
        <time>2023-07-19T15:19:09.000Z</time>
      </trkpt>
      <trkpt lat="45.83839" lon="4.72483">
        <ele>261.20764</ele>
        <time>2023-07-19T15:19:10.000Z</time>
      </trkpt>
      <trkpt lat="45.83839" lon="4.72489">
        <ele>261.15091</ele>
        <time>2023-07-19T15:19:11.000Z</time>
      </trkpt>
      <trkpt lat="45.83841" lon="4.725">
        <ele>261.03165</ele>
        <time>2023-07-19T15:19:12.000Z</time>
      </trkpt>
      <trkpt lat="45.83842" lon="4.72509">
        <ele>260.90897</ele>
        <time>2023-07-19T15:19:13.000Z</time>
      </trkpt>
      <trkpt lat="45.83842" lon="4.72517">
        <ele>260.79114</ele>
        <time>2023-07-19T15:19:14.000Z</time>
      </trkpt>
      <trkpt lat="45.8384" lon="4.72528">
        <ele>260.59366</ele>
        <time>2023-07-19T15:19:15.000Z</time>
      </trkpt>
      <trkpt lat="45.83839" lon="4.72536">
        <ele>260.68903</ele>
        <time>2023-07-19T15:19:16.000Z</time>
      </trkpt>
      <trkpt lat="45.83838" lon="4.72543">
        <ele>260.76086</ele>
        <time>2023-07-19T15:19:17.000Z</time>
      </trkpt>
      <trkpt lat="45.83837" lon="4.72549">
        <ele>260.88242</ele>
        <time>2023-07-19T15:19:18.000Z</time>
      </trkpt>
      <trkpt lat="45.83836" lon="4.72557">
        <ele>261.18347</ele>
        <time>2023-07-19T15:19:19.000Z</time>
      </trkpt>
      <trkpt lat="45.83834" lon="4.72565">
        <ele>261.52191</ele>
        <time>2023-07-19T15:19:20.000Z</time>
      </trkpt>
      <trkpt lat="45.8383" lon="4.7257">
        <ele>261.965</ele>
        <time>2023-07-19T15:19:21.000Z</time>
      </trkpt>
      <trkpt lat="45.83828" lon="4.72577">
        <ele>262.37775</ele>
        <time>2023-07-19T15:19:22.000Z</time>
      </trkpt>
      <trkpt lat="45.83827" lon="4.72581">
        <ele>262.8183</ele>
        <time>2023-07-19T15:19:23.000Z</time>
      </trkpt>
      <trkpt lat="45.83825" lon="4.72587">
        <ele>263.18652</ele>
        <time>2023-07-19T15:19:24.000Z</time>
      </trkpt>
      <trkpt lat="45.83823" lon="4.72593">
        <ele>263.26157</ele>
        <time>2023-07-19T15:19:25.000Z</time>
      </trkpt>
      <trkpt lat="45.83822" lon="4.72599">
        <ele>263.42746</ele>
        <time>2023-07-19T15:19:26.000Z</time>
      </trkpt>
      <trkpt lat="45.83818" lon="4.72606">
        <ele>263.45572</ele>
        <time>2023-07-19T15:19:27.000Z</time>
      </trkpt>
      <trkpt lat="45.83816" lon="4.72609">
        <ele>263.53156</ele>
        <time>2023-07-19T15:19:28.000Z</time>
      </trkpt>
      <trkpt lat="45.83813" lon="4.72612">
        <ele>263.5491</ele>
        <time>2023-07-19T15:19:29.000Z</time>
      </trkpt>
      <trkpt lat="45.83809" lon="4.72616">
        <ele>263.69183</ele>
        <time>2023-07-19T15:19:30.000Z</time>
      </trkpt>
      <trkpt lat="45.83804" lon="4.72619">
        <ele>263.63815</ele>
        <time>2023-07-19T15:19:31.000Z</time>
      </trkpt>
      <trkpt lat="45.83799" lon="4.7262">
        <ele>263.62445</ele>
        <time>2023-07-19T15:19:32.000Z</time>
      </trkpt>
      <trkpt lat="45.83795" lon="4.72622">
        <ele>263.59775</ele>
        <time>2023-07-19T15:19:33.000Z</time>
      </trkpt>
      <trkpt lat="45.83789" lon="4.72623">
        <ele>263.75568</ele>
        <time>2023-07-19T15:19:34.000Z</time>
      </trkpt>
      <trkpt lat="45.83785" lon="4.72625">
        <ele>264.03641</ele>
        <time>2023-07-19T15:19:35.000Z</time>
      </trkpt>
      <trkpt lat="45.83781" lon="4.72626">
        <ele>263.98993</ele>
        <time>2023-07-19T15:19:36.000Z</time>
      </trkpt>
      <trkpt lat="45.83777" lon="4.72629">
        <ele>263.77533</ele>
        <time>2023-07-19T15:19:37.000Z</time>
      </trkpt>
      <trkpt lat="45.83772" lon="4.7263">
        <ele>263.88434</ele>
        <time>2023-07-19T15:19:38.000Z</time>
      </trkpt>
      <trkpt lat="45.83769" lon="4.7263">
        <ele>263.92291</ele>
        <time>2023-07-19T15:19:39.000Z</time>
      </trkpt>
      <trkpt lat="45.83764" lon="4.72632">
        <ele>263.99576</ele>
        <time>2023-07-19T15:19:40.000Z</time>
      </trkpt>
      <trkpt lat="45.83758" lon="4.72632">
        <ele>264.01892</ele>
        <time>2023-07-19T15:19:41.000Z</time>
      </trkpt>
      <trkpt lat="45.83752" lon="4.72635">
        <ele>264.14764</ele>
        <time>2023-07-19T15:19:42.000Z</time>
      </trkpt>
      <trkpt lat="45.83747" lon="4.72638">
        <ele>264.25934</ele>
        <time>2023-07-19T15:19:43.000Z</time>
      </trkpt>
      <trkpt lat="45.83742" lon="4.72637">
        <ele>264.39526</ele>
        <time>2023-07-19T15:19:44.000Z</time>
      </trkpt>
      <trkpt lat="45.83738" lon="4.72639">
        <ele>264.69284</ele>
        <time>2023-07-19T15:19:45.000Z</time>
      </trkpt>
      <trkpt lat="45.83732" lon="4.72641">
        <ele>264.93402</ele>
        <time>2023-07-19T15:19:46.000Z</time>
      </trkpt>
      <trkpt lat="45.83729" lon="4.72642">
        <ele>265.29376</ele>
        <time>2023-07-19T15:19:47.000Z</time>
      </trkpt>
      <trkpt lat="45.83724" lon="4.72645">
        <ele>265.70929</ele>
        <time>2023-07-19T15:19:48.000Z</time>
      </trkpt>
      <trkpt lat="45.8372" lon="4.72647">
        <ele>266.06927</ele>
        <time>2023-07-19T15:19:49.000Z</time>
      </trkpt>
      <trkpt lat="45.83716" lon="4.72648">
        <ele>266.53714</ele>
        <time>2023-07-19T15:19:50.000Z</time>
      </trkpt>
      <trkpt lat="45.83713" lon="4.72651">
        <ele>266.98068</ele>
        <time>2023-07-19T15:19:51.000Z</time>
      </trkpt>
      <trkpt lat="45.83708" lon="4.72652">
        <ele>267.61819</ele>
        <time>2023-07-19T15:19:52.000Z</time>
      </trkpt>
      <trkpt lat="45.83704" lon="4.72654">
        <ele>268.32449</ele>
        <time>2023-07-19T15:19:53.000Z</time>
      </trkpt>
      <trkpt lat="45.83701" lon="4.72656">
        <ele>269.04706</ele>
        <time>2023-07-19T15:19:54.000Z</time>
      </trkpt>
      <trkpt lat="45.83697" lon="4.72657">
        <ele>269.85651</ele>
        <time>2023-07-19T15:19:55.000Z</time>
      </trkpt>
      <trkpt lat="45.83691" lon="4.7266">
        <ele>270.60345</ele>
        <time>2023-07-19T15:19:56.000Z</time>
      </trkpt>
      <trkpt lat="45.83688" lon="4.7266">
        <ele>271.53546</ele>
        <time>2023-07-19T15:19:57.000Z</time>
      </trkpt>
      <trkpt lat="45.83685" lon="4.72661">
        <ele>272.14948</ele>
        <time>2023-07-19T15:19:58.000Z</time>
      </trkpt>
      <trkpt lat="45.83682" lon="4.72661">
        <ele>272.29672</ele>
        <time>2023-07-19T15:19:59.000Z</time>
      </trkpt>
      <trkpt lat="45.83678" lon="4.72662">
        <ele>272.48663</ele>
        <time>2023-07-19T15:20:00.000Z</time>
      </trkpt>
      <trkpt lat="45.83673" lon="4.72663">
        <ele>272.69733</ele>
        <time>2023-07-19T15:20:01.000Z</time>
      </trkpt>
      <trkpt lat="45.83668" lon="4.72666">
        <ele>272.78522</ele>
        <time>2023-07-19T15:20:02.000Z</time>
      </trkpt>
      <trkpt lat="45.83664" lon="4.72668">
        <ele>272.82626</ele>
        <time>2023-07-19T15:20:03.000Z</time>
      </trkpt>
      <trkpt lat="45.8366" lon="4.7267">
        <ele>273.06622</ele>
        <time>2023-07-19T15:20:04.000Z</time>
      </trkpt>
      <trkpt lat="45.83657" lon="4.72672">
        <ele>273.4462</ele>
        <time>2023-07-19T15:20:05.000Z</time>
      </trkpt>
      <trkpt lat="45.83652" lon="4.72673">
        <ele>273.81238</ele>
        <time>2023-07-19T15:20:06.000Z</time>
      </trkpt>
      <trkpt lat="45.83649" lon="4.72674">
        <ele>274.2164</ele>
        <time>2023-07-19T15:20:07.000Z</time>
      </trkpt>
      <trkpt lat="45.83646" lon="4.72676">
        <ele>274.46799</ele>
        <time>2023-07-19T15:20:08.000Z</time>
      </trkpt>
      <trkpt lat="45.83643" lon="4.72678">
        <ele>274.70767</ele>
        <time>2023-07-19T15:20:09.000Z</time>
      </trkpt>
      <trkpt lat="45.8364" lon="4.7268">
        <ele>275.03357</ele>
        <time>2023-07-19T15:20:10.000Z</time>
      </trkpt>
      <trkpt lat="45.83637" lon="4.72682">
        <ele>275.46094</ele>
        <time>2023-07-19T15:20:11.000Z</time>
      </trkpt>
      <trkpt lat="45.83634" lon="4.72684">
        <ele>275.59991</ele>
        <time>2023-07-19T15:20:12.000Z</time>
      </trkpt>
      <trkpt lat="45.83631" lon="4.72686">
        <ele>275.11139</ele>
        <time>2023-07-19T15:20:13.000Z</time>
      </trkpt>
      <trkpt lat="45.83629" lon="4.72688">
        <ele>274.43829</ele>
        <time>2023-07-19T15:20:14.000Z</time>
      </trkpt>
      <trkpt lat="45.83627" lon="4.72691">
        <ele>273.62823</ele>
        <time>2023-07-19T15:20:15.000Z</time>
      </trkpt>
      <trkpt lat="45.83624" lon="4.72695">
        <ele>272.97479</ele>
        <time>2023-07-19T15:20:16.000Z</time>
      </trkpt>
      <trkpt lat="45.83621" lon="4.72698">
        <ele>272.42361</ele>
        <time>2023-07-19T15:20:17.000Z</time>
      </trkpt>
      <trkpt lat="45.83619" lon="4.727">
        <ele>271.86404</ele>
        <time>2023-07-19T15:20:18.000Z</time>
      </trkpt>
      <trkpt lat="45.83617" lon="4.72702">
        <ele>271.61984</ele>
        <time>2023-07-19T15:20:19.000Z</time>
      </trkpt>
      <trkpt lat="45.83614" lon="4.72704">
        <ele>271.27692</ele>
        <time>2023-07-19T15:20:20.000Z</time>
      </trkpt>
      <trkpt lat="45.8361" lon="4.72706">
        <ele>270.8808</ele>
        <time>2023-07-19T15:20:21.000Z</time>
      </trkpt>
      <trkpt lat="45.83606" lon="4.72707">
        <ele>270.57324</ele>
        <time>2023-07-19T15:20:22.000Z</time>
      </trkpt>
      <trkpt lat="45.83603" lon="4.72709">
        <ele>270.34854</ele>
        <time>2023-07-19T15:20:23.000Z</time>
      </trkpt>
      <trkpt lat="45.83599" lon="4.72711">
        <ele>269.98016</ele>
        <time>2023-07-19T15:20:24.000Z</time>
      </trkpt>
      <trkpt lat="45.83596" lon="4.72713">
        <ele>269.59198</ele>
        <time>2023-07-19T15:20:25.000Z</time>
      </trkpt>
      <trkpt lat="45.83593" lon="4.72715">
        <ele>269.23798</ele>
        <time>2023-07-19T15:20:26.000Z</time>
      </trkpt>
      <trkpt lat="45.8359" lon="4.72718">
        <ele>268.89047</ele>
        <time>2023-07-19T15:20:27.000Z</time>
      </trkpt>
      <trkpt lat="45.83586" lon="4.7272">
        <ele>268.46954</ele>
        <time>2023-07-19T15:20:28.000Z</time>
      </trkpt>
      <trkpt lat="45.83583" lon="4.72723">
        <ele>268.13376</ele>
        <time>2023-07-19T15:20:29.000Z</time>
      </trkpt>
      <trkpt lat="45.83579" lon="4.72725">
        <ele>268.72717</ele>
        <time>2023-07-19T15:20:30.000Z</time>
      </trkpt>
      <trkpt lat="45.83576" lon="4.72728">
        <ele>268.84305</ele>
        <time>2023-07-19T15:20:31.000Z</time>
      </trkpt>
      <trkpt lat="45.83572" lon="4.7273">
        <ele>269.17474</ele>
        <time>2023-07-19T15:20:32.000Z</time>
      </trkpt>
      <trkpt lat="45.83565" lon="4.72738">
        <ele>270.18344</ele>
        <time>2023-07-19T15:20:33.000Z</time>
      </trkpt>
      <trkpt lat="45.8356" lon="4.72743">
        <ele>271.06256</ele>
        <time>2023-07-19T15:20:35.000Z</time>
      </trkpt>
      <trkpt lat="45.83555" lon="4.72744">
        <ele>271.93777</ele>
        <time>2023-07-19T15:20:36.000Z</time>
      </trkpt>
      <trkpt lat="45.8355" lon="4.72745">
        <ele>272.75397</ele>
        <time>2023-07-19T15:20:37.000Z</time>
      </trkpt>
      <trkpt lat="45.83545" lon="4.72745">
        <ele>273.52802</ele>
        <time>2023-07-19T15:20:38.000Z</time>
      </trkpt>
      <trkpt lat="45.8354" lon="4.72747">
        <ele>274.17609</ele>
        <time>2023-07-19T15:20:39.000Z</time>
      </trkpt>
      <trkpt lat="45.83536" lon="4.72748">
        <ele>274.87885</ele>
        <time>2023-07-19T15:20:40.000Z</time>
      </trkpt>
      <trkpt lat="45.83533" lon="4.72749">
        <ele>275.14517</ele>
        <time>2023-07-19T15:20:41.000Z</time>
      </trkpt>
      <trkpt lat="45.8353" lon="4.72749">
        <ele>275.44559</ele>
        <time>2023-07-19T15:20:42.000Z</time>
      </trkpt>
      <trkpt lat="45.83526" lon="4.7275">
        <ele>275.72882</ele>
        <time>2023-07-19T15:20:43.000Z</time>
      </trkpt>
      <trkpt lat="45.83522" lon="4.72752">
        <ele>275.94824</ele>
        <time>2023-07-19T15:20:44.000Z</time>
      </trkpt>
      <trkpt lat="45.83518" lon="4.72753">
        <ele>276.14557</ele>
        <time>2023-07-19T15:20:45.000Z</time>
      </trkpt>
      <trkpt lat="45.83515" lon="4.72754">
        <ele>276.34393</ele>
        <time>2023-07-19T15:20:46.000Z</time>
      </trkpt>
      <trkpt lat="45.83511" lon="4.72755">
        <ele>276.60287</ele>
        <time>2023-07-19T15:20:47.000Z</time>
      </trkpt>
      <trkpt lat="45.83507" lon="4.72756">
        <ele>276.73004</ele>
        <time>2023-07-19T15:20:48.000Z</time>
      </trkpt>
      <trkpt lat="45.83503" lon="4.72758">
        <ele>276.96484</ele>
        <time>2023-07-19T15:20:49.000Z</time>
      </trkpt>
      <trkpt lat="45.83499" lon="4.7276">
        <ele>277.19357</ele>
        <time>2023-07-19T15:20:50.000Z</time>
      </trkpt>
      <trkpt lat="45.83495" lon="4.72761">
        <ele>276.28973</ele>
        <time>2023-07-19T15:20:51.000Z</time>
      </trkpt>
      <trkpt lat="45.83492" lon="4.72762">
        <ele>275.7674</ele>
        <time>2023-07-19T15:20:52.000Z</time>
      </trkpt>
      <trkpt lat="45.83487" lon="4.72764">
        <ele>275.14835</ele>
        <time>2023-07-19T15:20:53.000Z</time>
      </trkpt>
      <trkpt lat="45.83483" lon="4.72765">
        <ele>274.48267</ele>
        <time>2023-07-19T15:20:54.000Z</time>
      </trkpt>
      <trkpt lat="45.83475" lon="4.72768">
        <ele>273.92453</ele>
        <time>2023-07-19T15:20:55.000Z</time>
      </trkpt>
      <trkpt lat="45.83471" lon="4.72769">
        <ele>273.36035</ele>
        <time>2023-07-19T15:20:56.000Z</time>
      </trkpt>
      <trkpt lat="45.83467" lon="4.7277">
        <ele>272.76825</ele>
        <time>2023-07-19T15:20:57.000Z</time>
      </trkpt>
      <trkpt lat="45.83461" lon="4.72773">
        <ele>272.1524</ele>
        <time>2023-07-19T15:20:58.000Z</time>
      </trkpt>
      <trkpt lat="45.83458" lon="4.72775">
        <ele>271.66803</ele>
        <time>2023-07-19T15:20:59.000Z</time>
      </trkpt>
      <trkpt lat="45.83454" lon="4.72777">
        <ele>271.24234</ele>
        <time>2023-07-19T15:21:00.000Z</time>
      </trkpt>
      <trkpt lat="45.83451" lon="4.72778">
        <ele>271.29889</ele>
        <time>2023-07-19T15:21:01.000Z</time>
      </trkpt>
      <trkpt lat="45.83445" lon="4.72781">
        <ele>271.32379</ele>
        <time>2023-07-19T15:21:02.000Z</time>
      </trkpt>
      <trkpt lat="45.83442" lon="4.72781">
        <ele>271.3833</ele>
        <time>2023-07-19T15:21:03.000Z</time>
      </trkpt>
      <trkpt lat="45.83438" lon="4.72783">
        <ele>271.33206</ele>
        <time>2023-07-19T15:21:04.000Z</time>
      </trkpt>
      <trkpt lat="45.83435" lon="4.72784">
        <ele>271.30688</ele>
        <time>2023-07-19T15:21:05.000Z</time>
      </trkpt>
      <trkpt lat="45.83432" lon="4.72788">
        <ele>271.31732</ele>
        <time>2023-07-19T15:21:06.000Z</time>
      </trkpt>
      <trkpt lat="45.8343" lon="4.72794">
        <ele>271.20819</ele>
        <time>2023-07-19T15:21:07.000Z</time>
      </trkpt>
      <trkpt lat="45.83431" lon="4.728">
        <ele>271.13907</ele>
        <time>2023-07-19T15:21:08.000Z</time>
      </trkpt>
      <trkpt lat="45.83432" lon="4.72804">
        <ele>271.08624</ele>
        <time>2023-07-19T15:21:09.000Z</time>
      </trkpt>
      <trkpt lat="45.83433" lon="4.7281">
        <ele>271.03906</ele>
        <time>2023-07-19T15:21:10.000Z</time>
      </trkpt>
      <trkpt lat="45.83433" lon="4.72817">
        <ele>271.06778</ele>
        <time>2023-07-19T15:21:11.000Z</time>
      </trkpt>
      <trkpt lat="45.8343" lon="4.72823">
        <ele>271.19049</ele>
        <time>2023-07-19T15:21:12.000Z</time>
      </trkpt>
      <trkpt lat="45.83431" lon="4.72827">
        <ele>271.35593</ele>
        <time>2023-07-19T15:21:13.000Z</time>
      </trkpt>
      <trkpt lat="45.83433" lon="4.72832">
        <ele>271.49847</ele>
        <time>2023-07-19T15:21:14.000Z</time>
      </trkpt>
      <trkpt lat="45.83435" lon="4.72837">
        <ele>271.66882</ele>
        <time>2023-07-19T15:21:15.000Z</time>
      </trkpt>
      <trkpt lat="45.83436" lon="4.72842">
        <ele>271.85345</ele>
        <time>2023-07-19T15:21:16.000Z</time>
      </trkpt>
      <trkpt lat="45.83438" lon="4.72847">
        <ele>272.09604</ele>
        <time>2023-07-19T15:21:17.000Z</time>
      </trkpt>
      <trkpt lat="45.83436" lon="4.72853">
        <ele>272.3382</ele>
        <time>2023-07-19T15:21:18.000Z</time>
      </trkpt>
      <trkpt lat="45.83436" lon="4.72859">
        <ele>272.53976</ele>
        <time>2023-07-19T15:21:19.000Z</time>
      </trkpt>
      <trkpt lat="45.83437" lon="4.72864">
        <ele>272.71124</ele>
        <time>2023-07-19T15:21:20.000Z</time>
      </trkpt>
      <trkpt lat="45.83437" lon="4.72869">
        <ele>272.84583</ele>
        <time>2023-07-19T15:21:21.000Z</time>
      </trkpt>
      <trkpt lat="45.83438" lon="4.72874">
        <ele>272.9711</ele>
        <time>2023-07-19T15:21:22.000Z</time>
      </trkpt>
      <trkpt lat="45.83438" lon="4.72881">
        <ele>273.03387</ele>
        <time>2023-07-19T15:21:23.000Z</time>
      </trkpt>
      <trkpt lat="45.83439" lon="4.72886">
        <ele>273.21649</ele>
        <time>2023-07-19T15:21:24.000Z</time>
      </trkpt>
      <trkpt lat="45.8344" lon="4.72891">
        <ele>273.4133</ele>
        <time>2023-07-19T15:21:25.000Z</time>
      </trkpt>
      <trkpt lat="45.83441" lon="4.72896">
        <ele>273.58069</ele>
        <time>2023-07-19T15:21:26.000Z</time>
      </trkpt>
      <trkpt lat="45.83442" lon="4.72901">
        <ele>273.77069</ele>
        <time>2023-07-19T15:21:27.000Z</time>
      </trkpt>
      <trkpt lat="45.83443" lon="4.72905">
        <ele>273.92975</ele>
        <time>2023-07-19T15:21:28.000Z</time>
      </trkpt>
      <trkpt lat="45.83444" lon="4.72911">
        <ele>274.07751</ele>
        <time>2023-07-19T15:21:29.000Z</time>
      </trkpt>
      <trkpt lat="45.83446" lon="4.72917">
        <ele>274.24988</ele>
        <time>2023-07-19T15:21:30.000Z</time>
      </trkpt>
      <trkpt lat="45.83447" lon="4.72922">
        <ele>274.3562</ele>
        <time>2023-07-19T15:21:31.000Z</time>
      </trkpt>
      <trkpt lat="45.83449" lon="4.72927">
        <ele>274.42703</ele>
        <time>2023-07-19T15:21:32.000Z</time>
      </trkpt>
      <trkpt lat="45.83451" lon="4.72933">
        <ele>274.42084</ele>
        <time>2023-07-19T15:21:33.000Z</time>
      </trkpt>
      <trkpt lat="45.83452" lon="4.72937">
        <ele>274.36435</ele>
        <time>2023-07-19T15:21:34.000Z</time>
      </trkpt>
      <trkpt lat="45.83454" lon="4.72943">
        <ele>274.25198</ele>
        <time>2023-07-19T15:21:35.000Z</time>
      </trkpt>
      <trkpt lat="45.83456" lon="4.72948">
        <ele>274.09601</ele>
        <time>2023-07-19T15:21:36.000Z</time>
      </trkpt>
      <trkpt lat="45.83458" lon="4.72953">
        <ele>274.0506</ele>
        <time>2023-07-19T15:21:37.000Z</time>
      </trkpt>
      <trkpt lat="45.83458" lon="4.72957">
        <ele>273.95377</ele>
        <time>2023-07-19T15:21:38.000Z</time>
      </trkpt>
      <trkpt lat="45.83459" lon="4.72962">
        <ele>273.88666</ele>
        <time>2023-07-19T15:21:39.000Z</time>
      </trkpt>
      <trkpt lat="45.8346" lon="4.72967">
        <ele>273.81808</ele>
        <time>2023-07-19T15:21:40.000Z</time>
      </trkpt>
      <trkpt lat="45.83461" lon="4.7297">
        <ele>273.74896</ele>
        <time>2023-07-19T15:21:41.000Z</time>
      </trkpt>
      <trkpt lat="45.83461" lon="4.72974">
        <ele>273.74582</ele>
        <time>2023-07-19T15:21:42.000Z</time>
      </trkpt>
      <trkpt lat="45.83462" lon="4.72977">
        <ele>273.75555</ele>
        <time>2023-07-19T15:21:43.000Z</time>
      </trkpt>
      <trkpt lat="45.83462" lon="4.72981">
        <ele>273.77026</ele>
        <time>2023-07-19T15:21:44.000Z</time>
      </trkpt>
      <trkpt lat="45.83464" lon="4.72985">
        <ele>273.79413</ele>
        <time>2023-07-19T15:21:45.000Z</time>
      </trkpt>
      <trkpt lat="45.83465" lon="4.72989">
        <ele>273.83569</ele>
        <time>2023-07-19T15:21:46.000Z</time>
      </trkpt>
      <trkpt lat="45.83467" lon="4.72995">
        <ele>273.94174</ele>
        <time>2023-07-19T15:21:47.000Z</time>
      </trkpt>
      <trkpt lat="45.83469" lon="4.73">
        <ele>274.09283</ele>
        <time>2023-07-19T15:21:48.000Z</time>
      </trkpt>
      <trkpt lat="45.8347" lon="4.73006">
        <ele>274.17676</ele>
        <time>2023-07-19T15:21:49.000Z</time>
      </trkpt>
      <trkpt lat="45.83472" lon="4.73011">
        <ele>274.27216</ele>
        <time>2023-07-19T15:21:50.000Z</time>
      </trkpt>
      <trkpt lat="45.83474" lon="4.73016">
        <ele>274.38797</ele>
        <time>2023-07-19T15:21:51.000Z</time>
      </trkpt>
      <trkpt lat="45.83477" lon="4.7302">
        <ele>274.53104</ele>
        <time>2023-07-19T15:21:52.000Z</time>
      </trkpt>
      <trkpt lat="45.8348" lon="4.73024">
        <ele>274.72305</ele>
        <time>2023-07-19T15:21:53.000Z</time>
      </trkpt>
      <trkpt lat="45.83483" lon="4.73029">
        <ele>274.98267</ele>
        <time>2023-07-19T15:21:54.000Z</time>
      </trkpt>
      <trkpt lat="45.83486" lon="4.73033">
        <ele>275.31009</ele>
        <time>2023-07-19T15:21:55.000Z</time>
      </trkpt>
      <trkpt lat="45.8349" lon="4.73038">
        <ele>275.67371</ele>
        <time>2023-07-19T15:21:56.000Z</time>
      </trkpt>
      <trkpt lat="45.83493" lon="4.73041">
        <ele>275.9704</ele>
        <time>2023-07-19T15:21:57.000Z</time>
      </trkpt>
      <trkpt lat="45.83496" lon="4.73045">
        <ele>276.29532</ele>
        <time>2023-07-19T15:21:58.000Z</time>
      </trkpt>
      <trkpt lat="45.835" lon="4.73048">
        <ele>276.5918</ele>
        <time>2023-07-19T15:21:59.000Z</time>
      </trkpt>
      <trkpt lat="45.83505" lon="4.73053">
        <ele>276.91422</ele>
        <time>2023-07-19T15:22:00.000Z</time>
      </trkpt>
      <trkpt lat="45.83509" lon="4.73057">
        <ele>277.25916</ele>
        <time>2023-07-19T15:22:01.000Z</time>
      </trkpt>
      <trkpt lat="45.83512" lon="4.73061">
        <ele>277.5625</ele>
        <time>2023-07-19T15:22:02.000Z</time>
      </trkpt>
      <trkpt lat="45.83516" lon="4.73064">
        <ele>277.8342</ele>
        <time>2023-07-19T15:22:03.000Z</time>
      </trkpt>
      <trkpt lat="45.83519" lon="4.73067">
        <ele>278.03687</ele>
        <time>2023-07-19T15:22:04.000Z</time>
      </trkpt>
      <trkpt lat="45.83523" lon="4.73069">
        <ele>278.22256</ele>
        <time>2023-07-19T15:22:05.000Z</time>
      </trkpt>
      <trkpt lat="45.83527" lon="4.73071">
        <ele>278.36639</ele>
        <time>2023-07-19T15:22:06.000Z</time>
      </trkpt>
      <trkpt lat="45.83532" lon="4.73072">
        <ele>278.41571</ele>
        <time>2023-07-19T15:22:07.000Z</time>
      </trkpt>
      <trkpt lat="45.83537" lon="4.73077">
        <ele>278.40665</ele>
        <time>2023-07-19T15:22:08.000Z</time>
      </trkpt>
      <trkpt lat="45.83541" lon="4.73073">
        <ele>278.50467</ele>
        <time>2023-07-19T15:22:09.000Z</time>
      </trkpt>
      <trkpt lat="45.83544" lon="4.73073">
        <ele>278.5463</ele>
        <time>2023-07-19T15:22:10.000Z</time>
      </trkpt>
      <trkpt lat="45.83547" lon="4.73072">
        <ele>278.6127</ele>
        <time>2023-07-19T15:22:11.000Z</time>
      </trkpt>
      <trkpt lat="45.83551" lon="4.73072">
        <ele>278.65186</ele>
        <time>2023-07-19T15:22:12.000Z</time>
      </trkpt>
      <trkpt lat="45.83554" lon="4.73071">
        <ele>278.68231</ele>
        <time>2023-07-19T15:22:13.000Z</time>
      </trkpt>
      <trkpt lat="45.83559" lon="4.7307">
        <ele>278.70554</ele>
        <time>2023-07-19T15:22:14.000Z</time>
      </trkpt>
      <trkpt lat="45.83563" lon="4.73069">
        <ele>278.71552</ele>
        <time>2023-07-19T15:22:15.000Z</time>
      </trkpt>
      <trkpt lat="45.83567" lon="4.73067">
        <ele>278.7066</ele>
        <time>2023-07-19T15:22:16.000Z</time>
      </trkpt>
      <trkpt lat="45.8357" lon="4.73066">
        <ele>278.64532</ele>
        <time>2023-07-19T15:22:17.000Z</time>
      </trkpt>
      <trkpt lat="45.83574" lon="4.73064">
        <ele>278.6138</ele>
        <time>2023-07-19T15:22:18.000Z</time>
      </trkpt>
      <trkpt lat="45.83577" lon="4.73063">
        <ele>278.60242</ele>
        <time>2023-07-19T15:22:19.000Z</time>
      </trkpt>
      <trkpt lat="45.8358" lon="4.73062">
        <ele>278.56921</ele>
        <time>2023-07-19T15:22:20.000Z</time>
      </trkpt>
      <trkpt lat="45.83583" lon="4.73061">
        <ele>278.50946</ele>
        <time>2023-07-19T15:22:21.000Z</time>
      </trkpt>
      <trkpt lat="45.83586" lon="4.7306">
        <ele>278.44937</ele>
        <time>2023-07-19T15:22:22.000Z</time>
      </trkpt>
      <trkpt lat="45.83589" lon="4.73059">
        <ele>278.40125</ele>
        <time>2023-07-19T15:22:23.000Z</time>
      </trkpt>
      <trkpt lat="45.83592" lon="4.73057">
        <ele>278.47525</ele>
        <time>2023-07-19T15:22:24.000Z</time>
      </trkpt>
      <trkpt lat="45.83595" lon="4.73056">
        <ele>278.52832</ele>
        <time>2023-07-19T15:22:25.000Z</time>
      </trkpt>
      <trkpt lat="45.83598" lon="4.73054">
        <ele>278.61981</ele>
        <time>2023-07-19T15:22:26.000Z</time>
      </trkpt>
      <trkpt lat="45.83602" lon="4.73052">
        <ele>278.75003</ele>
        <time>2023-07-19T15:22:27.000Z</time>
      </trkpt>
      <trkpt lat="45.83606" lon="4.7305">
        <ele>278.88959</ele>
        <time>2023-07-19T15:22:28.000Z</time>
      </trkpt>
      <trkpt lat="45.8361" lon="4.73049">
        <ele>278.97043</ele>
        <time>2023-07-19T15:22:29.000Z</time>
      </trkpt>
      <trkpt lat="45.83613" lon="4.73047">
        <ele>279.05972</ele>
        <time>2023-07-19T15:22:30.000Z</time>
      </trkpt>
      <trkpt lat="45.83619" lon="4.73042">
        <ele>279.15118</ele>
        <time>2023-07-19T15:22:31.000Z</time>
      </trkpt>
      <trkpt lat="45.83623" lon="4.7304">
        <ele>279.21576</ele>
        <time>2023-07-19T15:22:32.000Z</time>
      </trkpt>
      <trkpt lat="45.83626" lon="4.73038">
        <ele>279.26187</ele>
        <time>2023-07-19T15:22:33.000Z</time>
      </trkpt>
      <trkpt lat="45.83631" lon="4.73036">
        <ele>279.28162</ele>
        <time>2023-07-19T15:22:34.000Z</time>
      </trkpt>
      <trkpt lat="45.83635" lon="4.73033">
        <ele>279.26581</ele>
        <time>2023-07-19T15:22:35.000Z</time>
      </trkpt>
      <trkpt lat="45.8364" lon="4.73031">
        <ele>279.26129</ele>
        <time>2023-07-19T15:22:36.000Z</time>
      </trkpt>
      <trkpt lat="45.83646" lon="4.7303">
        <ele>279.20538</ele>
        <time>2023-07-19T15:22:37.000Z</time>
      </trkpt>
      <trkpt lat="45.83651" lon="4.73027">
        <ele>279.11276</ele>
        <time>2023-07-19T15:22:38.000Z</time>
      </trkpt>
      <trkpt lat="45.8366" lon="4.73027">
        <ele>278.96979</ele>
        <time>2023-07-19T15:22:39.000Z</time>
      </trkpt>
      <trkpt lat="45.83667" lon="4.73025">
        <ele>278.82663</ele>
        <time>2023-07-19T15:22:40.000Z</time>
      </trkpt>
      <trkpt lat="45.83676" lon="4.73026">
        <ele>278.55695</ele>
        <time>2023-07-19T15:22:41.000Z</time>
      </trkpt>
      <trkpt lat="45.83684" lon="4.73028">
        <ele>278.26093</ele>
        <time>2023-07-19T15:22:42.000Z</time>
      </trkpt>
      <trkpt lat="45.83692" lon="4.73027">
        <ele>278.01358</ele>
        <time>2023-07-19T15:22:43.000Z</time>
      </trkpt>
      <trkpt lat="45.83701" lon="4.73026">
        <ele>277.75967</ele>
        <time>2023-07-19T15:22:44.000Z</time>
      </trkpt>
      <trkpt lat="45.83711" lon="4.73023">
        <ele>277.44333</ele>
        <time>2023-07-19T15:22:45.000Z</time>
      </trkpt>
      <trkpt lat="45.8372" lon="4.73022">
        <ele>277.1452</ele>
        <time>2023-07-19T15:22:46.000Z</time>
      </trkpt>
      <trkpt lat="45.83731" lon="4.73019">
        <ele>276.87735</ele>
        <time>2023-07-19T15:22:47.000Z</time>
      </trkpt>
      <trkpt lat="45.83737" lon="4.73023">
        <ele>276.62457</ele>
        <time>2023-07-19T15:22:48.000Z</time>
      </trkpt>
      <trkpt lat="45.83743" lon="4.73026">
        <ele>276.36206</ele>
        <time>2023-07-19T15:22:49.000Z</time>
      </trkpt>
      <trkpt lat="45.83747" lon="4.73032">
        <ele>276.0874</ele>
        <time>2023-07-19T15:22:50.000Z</time>
      </trkpt>
      <trkpt lat="45.8375" lon="4.73039">
        <ele>275.80576</ele>
        <time>2023-07-19T15:22:51.000Z</time>
      </trkpt>
      <trkpt lat="45.83753" lon="4.73046">
        <ele>275.53107</ele>
        <time>2023-07-19T15:22:52.000Z</time>
      </trkpt>
      <trkpt lat="45.83752" lon="4.73051">
        <ele>275.20135</ele>
        <time>2023-07-19T15:22:53.000Z</time>
      </trkpt>
      <trkpt lat="45.83753" lon="4.73056">
        <ele>274.83673</ele>
        <time>2023-07-19T15:22:54.000Z</time>
      </trkpt>
      <trkpt lat="45.83752" lon="4.73062">
        <ele>274.5105</ele>
        <time>2023-07-19T15:22:55.000Z</time>
      </trkpt>
      <trkpt lat="45.83749" lon="4.73067">
        <ele>274.16306</ele>
        <time>2023-07-19T15:22:56.000Z</time>
      </trkpt>
      <trkpt lat="45.83748" lon="4.7307">
        <ele>273.91766</ele>
        <time>2023-07-19T15:22:57.000Z</time>
      </trkpt>
      <trkpt lat="45.83747" lon="4.73074">
        <ele>273.73523</ele>
        <time>2023-07-19T15:22:58.000Z</time>
      </trkpt>
      <trkpt lat="45.83748" lon="4.73081">
        <ele>273.60156</ele>
        <time>2023-07-19T15:22:59.000Z</time>
      </trkpt>
      <trkpt lat="45.83746" lon="4.73086">
        <ele>273.46933</ele>
        <time>2023-07-19T15:23:00.000Z</time>
      </trkpt>
      <trkpt lat="45.83748" lon="4.73091">
        <ele>273.47391</ele>
        <time>2023-07-19T15:23:01.000Z</time>
      </trkpt>
      <trkpt lat="45.83748" lon="4.73097">
        <ele>273.48022</ele>
        <time>2023-07-19T15:23:02.000Z</time>
      </trkpt>
      <trkpt lat="45.8375" lon="4.73102">
        <ele>273.47772</ele>
        <time>2023-07-19T15:23:03.000Z</time>
      </trkpt>
      <trkpt lat="45.83753" lon="4.73107">
        <ele>273.44257</ele>
        <time>2023-07-19T15:23:04.000Z</time>
      </trkpt>
      <trkpt lat="45.83755" lon="4.73111">
        <ele>273.48938</ele>
        <time>2023-07-19T15:23:05.000Z</time>
      </trkpt>
      <trkpt lat="45.83757" lon="4.73115">
        <ele>273.52368</ele>
        <time>2023-07-19T15:23:06.000Z</time>
      </trkpt>
      <trkpt lat="45.83759" lon="4.73118">
        <ele>273.51764</ele>
        <time>2023-07-19T15:23:07.000Z</time>
      </trkpt>
      <trkpt lat="45.83761" lon="4.73123">
        <ele>273.50458</ele>
        <time>2023-07-19T15:23:08.000Z</time>
      </trkpt>
      <trkpt lat="45.83763" lon="4.73127">
        <ele>273.55481</ele>
        <time>2023-07-19T15:23:09.000Z</time>
      </trkpt>
      <trkpt lat="45.83766" lon="4.73132">
        <ele>273.51752</ele>
        <time>2023-07-19T15:23:10.000Z</time>
      </trkpt>
      <trkpt lat="45.83768" lon="4.73137">
        <ele>273.5563</ele>
        <time>2023-07-19T15:23:11.000Z</time>
      </trkpt>
      <trkpt lat="45.83769" lon="4.73141">
        <ele>273.62024</ele>
        <time>2023-07-19T15:23:12.000Z</time>
      </trkpt>
      <trkpt lat="45.83772" lon="4.73145">
        <ele>273.75891</ele>
        <time>2023-07-19T15:23:13.000Z</time>
      </trkpt>
      <trkpt lat="45.83774" lon="4.7315">
        <ele>273.95316</ele>
        <time>2023-07-19T15:23:14.000Z</time>
      </trkpt>
      <trkpt lat="45.83776" lon="4.73155">
        <ele>274.15823</ele>
        <time>2023-07-19T15:23:15.000Z</time>
      </trkpt>
      <trkpt lat="45.83778" lon="4.7316">
        <ele>274.35077</ele>
        <time>2023-07-19T15:23:16.000Z</time>
      </trkpt>
      <trkpt lat="45.83778" lon="4.73165">
        <ele>274.508</ele>
        <time>2023-07-19T15:23:17.000Z</time>
      </trkpt>
      <trkpt lat="45.83779" lon="4.7317">
        <ele>274.60608</ele>
        <time>2023-07-19T15:23:18.000Z</time>
      </trkpt>
      <trkpt lat="45.83779" lon="4.73174">
        <ele>274.73181</ele>
        <time>2023-07-19T15:23:19.000Z</time>
      </trkpt>
      <trkpt lat="45.83779" lon="4.73179">
        <ele>274.87082</ele>
        <time>2023-07-19T15:23:20.000Z</time>
      </trkpt>
      <trkpt lat="45.83779" lon="4.73185">
        <ele>275.06744</ele>
        <time>2023-07-19T15:23:21.000Z</time>
      </trkpt>
      <trkpt lat="45.83778" lon="4.73189">
        <ele>275.30283</ele>
        <time>2023-07-19T15:23:22.000Z</time>
      </trkpt>
      <trkpt lat="45.83776" lon="4.73193">
        <ele>275.51831</ele>
        <time>2023-07-19T15:23:23.000Z</time>
      </trkpt>
      <trkpt lat="45.83774" lon="4.73196">
        <ele>275.74268</ele>
        <time>2023-07-19T15:23:24.000Z</time>
      </trkpt>
      <trkpt lat="45.83771" lon="4.73198">
        <ele>275.93597</ele>
        <time>2023-07-19T15:23:25.000Z</time>
      </trkpt>
      <trkpt lat="45.83768" lon="4.732">
        <ele>276.10165</ele>
        <time>2023-07-19T15:23:26.000Z</time>
      </trkpt>
      <trkpt lat="45.83765" lon="4.73203">
        <ele>276.27402</ele>
        <time>2023-07-19T15:23:27.000Z</time>
      </trkpt>
      <trkpt lat="45.83763" lon="4.73206">
        <ele>276.44431</ele>
        <time>2023-07-19T15:23:28.000Z</time>
      </trkpt>
      <trkpt lat="45.8376" lon="4.73209">
        <ele>276.58383</ele>
        <time>2023-07-19T15:23:29.000Z</time>
      </trkpt>
      <trkpt lat="45.83757" lon="4.73211">
        <ele>276.80826</ele>
        <time>2023-07-19T15:23:30.000Z</time>
      </trkpt>
      <trkpt lat="45.83755" lon="4.73214">
        <ele>276.91745</ele>
        <time>2023-07-19T15:23:31.000Z</time>
      </trkpt>
      <trkpt lat="45.83752" lon="4.73217">
        <ele>277.02896</ele>
        <time>2023-07-19T15:23:32.000Z</time>
      </trkpt>
      <trkpt lat="45.8375" lon="4.73219">
        <ele>277.08868</ele>
        <time>2023-07-19T15:23:33.000Z</time>
      </trkpt>
      <trkpt lat="45.83747" lon="4.73222">
        <ele>277.1499</ele>
        <time>2023-07-19T15:23:34.000Z</time>
      </trkpt>
      <trkpt lat="45.83744" lon="4.73224">
        <ele>277.21307</ele>
        <time>2023-07-19T15:23:35.000Z</time>
      </trkpt>
      <trkpt lat="45.83742" lon="4.73227">
        <ele>277.30963</ele>
        <time>2023-07-19T15:23:36.000Z</time>
      </trkpt>
      <trkpt lat="45.83739" lon="4.7323">
        <ele>277.40051</ele>
        <time>2023-07-19T15:23:37.000Z</time>
      </trkpt>
      <trkpt lat="45.83736" lon="4.73233">
        <ele>277.53516</ele>
        <time>2023-07-19T15:23:38.000Z</time>
      </trkpt>
      <trkpt lat="45.83734" lon="4.73235">
        <ele>277.69153</ele>
        <time>2023-07-19T15:23:39.000Z</time>
      </trkpt>
      <trkpt lat="45.83732" lon="4.73237">
        <ele>277.82693</ele>
        <time>2023-07-19T15:23:40.000Z</time>
      </trkpt>
      <trkpt lat="45.8373" lon="4.7324">
        <ele>277.888</ele>
        <time>2023-07-19T15:23:41.000Z</time>
      </trkpt>
      <trkpt lat="45.83727" lon="4.73243">
        <ele>277.93765</ele>
        <time>2023-07-19T15:23:42.000Z</time>
      </trkpt>
      <trkpt lat="45.83725" lon="4.73245">
        <ele>277.90762</ele>
        <time>2023-07-19T15:23:43.000Z</time>
      </trkpt>
      <trkpt lat="45.83722" lon="4.73248">
        <ele>277.88095</ele>
        <time>2023-07-19T15:23:44.000Z</time>
      </trkpt>
      <trkpt lat="45.8372" lon="4.73251">
        <ele>277.89767</ele>
        <time>2023-07-19T15:23:45.000Z</time>
      </trkpt>
      <trkpt lat="45.83718" lon="4.73254">
        <ele>277.92682</ele>
        <time>2023-07-19T15:23:46.000Z</time>
      </trkpt>
      <trkpt lat="45.83715" lon="4.73256">
        <ele>277.9776</ele>
        <time>2023-07-19T15:23:47.000Z</time>
      </trkpt>
      <trkpt lat="45.83713" lon="4.73259">
        <ele>278.0556</ele>
        <time>2023-07-19T15:23:48.000Z</time>
      </trkpt>
      <trkpt lat="45.83709" lon="4.73262">
        <ele>278.10422</ele>
        <time>2023-07-19T15:23:49.000Z</time>
      </trkpt>
      <trkpt lat="45.83707" lon="4.73265">
        <ele>278.16983</ele>
        <time>2023-07-19T15:23:50.000Z</time>
      </trkpt>
      <trkpt lat="45.83704" lon="4.73268">
        <ele>278.23059</ele>
        <time>2023-07-19T15:23:51.000Z</time>
      </trkpt>
      <trkpt lat="45.83701" lon="4.73272">
        <ele>278.2778</ele>
        <time>2023-07-19T15:23:52.000Z</time>
      </trkpt>
      <trkpt lat="45.83699" lon="4.73275">
        <ele>278.36133</ele>
        <time>2023-07-19T15:23:53.000Z</time>
      </trkpt>
      <trkpt lat="45.83697" lon="4.73278">
        <ele>278.42154</ele>
        <time>2023-07-19T15:23:54.000Z</time>
      </trkpt>
      <trkpt lat="45.83694" lon="4.73281">
        <ele>278.50339</ele>
        <time>2023-07-19T15:23:55.000Z</time>
      </trkpt>
      <trkpt lat="45.83691" lon="4.73285">
        <ele>278.5972</ele>
        <time>2023-07-19T15:23:56.000Z</time>
      </trkpt>
      <trkpt lat="45.83688" lon="4.73289">
        <ele>278.68393</ele>
        <time>2023-07-19T15:23:57.000Z</time>
      </trkpt>
      <trkpt lat="45.83686" lon="4.73292">
        <ele>278.7431</ele>
        <time>2023-07-19T15:23:58.000Z</time>
      </trkpt>
      <trkpt lat="45.83684" lon="4.73295">
        <ele>278.73297</ele>
        <time>2023-07-19T15:23:59.000Z</time>
      </trkpt>
      <trkpt lat="45.83682" lon="4.73298">
        <ele>278.71454</ele>
        <time>2023-07-19T15:24:00.000Z</time>
      </trkpt>
      <trkpt lat="45.83679" lon="4.73302">
        <ele>278.65945</ele>
        <time>2023-07-19T15:24:01.000Z</time>
      </trkpt>
      <trkpt lat="45.83677" lon="4.73306">
        <ele>278.63831</ele>
        <time>2023-07-19T15:24:02.000Z</time>
      </trkpt>
      <trkpt lat="45.83675" lon="4.7331">
        <ele>278.63202</ele>
        <time>2023-07-19T15:24:03.000Z</time>
      </trkpt>
      <trkpt lat="45.83673" lon="4.73314">
        <ele>278.62018</ele>
        <time>2023-07-19T15:24:04.000Z</time>
      </trkpt>
      <trkpt lat="45.83671" lon="4.73318">
        <ele>278.58575</ele>
        <time>2023-07-19T15:24:05.000Z</time>
      </trkpt>
      <trkpt lat="45.83669" lon="4.73321">
        <ele>278.54727</ele>
        <time>2023-07-19T15:24:06.000Z</time>
      </trkpt>
      <trkpt lat="45.83667" lon="4.73325">
        <ele>278.4826</ele>
        <time>2023-07-19T15:24:07.000Z</time>
      </trkpt>
      <trkpt lat="45.83665" lon="4.73329">
        <ele>278.39154</ele>
        <time>2023-07-19T15:24:08.000Z</time>
      </trkpt>
      <trkpt lat="45.83663" lon="4.73333">
        <ele>278.30298</ele>
        <time>2023-07-19T15:24:09.000Z</time>
      </trkpt>
      <trkpt lat="45.83661" lon="4.73337">
        <ele>278.24908</ele>
        <time>2023-07-19T15:24:10.000Z</time>
      </trkpt>
      <trkpt lat="45.83659" lon="4.73341">
        <ele>278.81796</ele>
        <time>2023-07-19T15:24:11.000Z</time>
      </trkpt>
      <trkpt lat="45.83656" lon="4.73345">
        <ele>279.18265</ele>
        <time>2023-07-19T15:24:12.000Z</time>
      </trkpt>
      <trkpt lat="45.83655" lon="4.7335">
        <ele>279.56085</ele>
        <time>2023-07-19T15:24:13.000Z</time>
      </trkpt>
      <trkpt lat="45.83653" lon="4.73353">
        <ele>279.96393</ele>
        <time>2023-07-19T15:24:14.000Z</time>
      </trkpt>
      <trkpt lat="45.83652" lon="4.73358">
        <ele>280.32993</ele>
        <time>2023-07-19T15:24:15.000Z</time>
      </trkpt>
      <trkpt lat="45.83651" lon="4.73363">
        <ele>280.68555</ele>
        <time>2023-07-19T15:24:16.000Z</time>
      </trkpt>
      <trkpt lat="45.83649" lon="4.73369">
        <ele>281.04126</ele>
        <time>2023-07-19T15:24:17.000Z</time>
      </trkpt>
      <trkpt lat="45.83648" lon="4.73374">
        <ele>281.49048</ele>
        <time>2023-07-19T15:24:18.000Z</time>
      </trkpt>
      <trkpt lat="45.83647" lon="4.73379">
        <ele>281.96945</ele>
        <time>2023-07-19T15:24:19.000Z</time>
      </trkpt>
      <trkpt lat="45.83647" lon="4.73384">
        <ele>282.48343</ele>
        <time>2023-07-19T15:24:20.000Z</time>
      </trkpt>
      <trkpt lat="45.83647" lon="4.73389">
        <ele>283.09384</ele>
        <time>2023-07-19T15:24:21.000Z</time>
      </trkpt>
      <trkpt lat="45.83648" lon="4.73394">
        <ele>283.73126</ele>
        <time>2023-07-19T15:24:22.000Z</time>
      </trkpt>
      <trkpt lat="45.83648" lon="4.73399">
        <ele>284.43011</ele>
        <time>2023-07-19T15:24:23.000Z</time>
      </trkpt>
      <trkpt lat="45.83649" lon="4.73404">
        <ele>285.15005</ele>
        <time>2023-07-19T15:24:24.000Z</time>
      </trkpt>
      <trkpt lat="45.8365" lon="4.73409">
        <ele>285.89978</ele>
        <time>2023-07-19T15:24:25.000Z</time>
      </trkpt>
      <trkpt lat="45.8365" lon="4.73415">
        <ele>286.46527</ele>
        <time>2023-07-19T15:24:26.000Z</time>
      </trkpt>
      <trkpt lat="45.83651" lon="4.7342">
        <ele>287.09961</ele>
        <time>2023-07-19T15:24:27.000Z</time>
      </trkpt>
      <trkpt lat="45.83653" lon="4.73425">
        <ele>287.7106</ele>
        <time>2023-07-19T15:24:28.000Z</time>
      </trkpt>
      <trkpt lat="45.83654" lon="4.7343">
        <ele>288.35339</ele>
        <time>2023-07-19T15:24:29.000Z</time>
      </trkpt>
      <trkpt lat="45.83655" lon="4.73435">
        <ele>288.95697</ele>
        <time>2023-07-19T15:24:30.000Z</time>
      </trkpt>
      <trkpt lat="45.83656" lon="4.7344">
        <ele>288.98807</ele>
        <time>2023-07-19T15:24:31.000Z</time>
      </trkpt>
      <trkpt lat="45.83657" lon="4.73445">
        <ele>289.24445</ele>
        <time>2023-07-19T15:24:32.000Z</time>
      </trkpt>
      <trkpt lat="45.83659" lon="4.73449">
        <ele>289.51642</ele>
        <time>2023-07-19T15:24:33.000Z</time>
      </trkpt>
      <trkpt lat="45.8366" lon="4.73454">
        <ele>289.86899</ele>
        <time>2023-07-19T15:24:34.000Z</time>
      </trkpt>
      <trkpt lat="45.83661" lon="4.73459">
        <ele>290.2601</ele>
        <time>2023-07-19T15:24:35.000Z</time>
      </trkpt>
      <trkpt lat="45.83662" lon="4.73464">
        <ele>290.70001</ele>
        <time>2023-07-19T15:24:36.000Z</time>
      </trkpt>
      <trkpt lat="45.83664" lon="4.73469">
        <ele>291.14026</ele>
        <time>2023-07-19T15:24:37.000Z</time>
      </trkpt>
      <trkpt lat="45.83665" lon="4.73473">
        <ele>291.50714</ele>
        <time>2023-07-19T15:24:38.000Z</time>
      </trkpt>
      <trkpt lat="45.83667" lon="4.73477">
        <ele>291.87589</ele>
        <time>2023-07-19T15:24:39.000Z</time>
      </trkpt>
      <trkpt lat="45.83669" lon="4.73482">
        <ele>292.05884</ele>
        <time>2023-07-19T15:24:40.000Z</time>
      </trkpt>
      <trkpt lat="45.83672" lon="4.73486">
        <ele>292.20129</ele>
        <time>2023-07-19T15:24:41.000Z</time>
      </trkpt>
      <trkpt lat="45.83674" lon="4.7349">
        <ele>292.2919</ele>
        <time>2023-07-19T15:24:42.000Z</time>
      </trkpt>
      <trkpt lat="45.83676" lon="4.73494">
        <ele>292.35193</ele>
        <time>2023-07-19T15:24:43.000Z</time>
      </trkpt>
      <trkpt lat="45.83678" lon="4.73498">
        <ele>292.3703</ele>
        <time>2023-07-19T15:24:44.000Z</time>
      </trkpt>
      <trkpt lat="45.83681" lon="4.73502">
        <ele>292.3562</ele>
        <time>2023-07-19T15:24:45.000Z</time>
      </trkpt>
      <trkpt lat="45.83683" lon="4.73506">
        <ele>292.52991</ele>
        <time>2023-07-19T15:24:46.000Z</time>
      </trkpt>
      <trkpt lat="45.83685" lon="4.7351">
        <ele>292.46945</ele>
        <time>2023-07-19T15:24:47.000Z</time>
      </trkpt>
      <trkpt lat="45.83687" lon="4.73515">
        <ele>292.41714</ele>
        <time>2023-07-19T15:24:48.000Z</time>
      </trkpt>
      <trkpt lat="45.83689" lon="4.73518">
        <ele>292.35834</ele>
        <time>2023-07-19T15:24:49.000Z</time>
      </trkpt>
      <trkpt lat="45.8369" lon="4.73522">
        <ele>292.32294</ele>
        <time>2023-07-19T15:24:50.000Z</time>
      </trkpt>
      <trkpt lat="45.83692" lon="4.73526">
        <ele>292.25543</ele>
        <time>2023-07-19T15:24:51.000Z</time>
      </trkpt>
      <trkpt lat="45.83694" lon="4.7353">
        <ele>292.14352</ele>
        <time>2023-07-19T15:24:52.000Z</time>
      </trkpt>
      <trkpt lat="45.83695" lon="4.73535">
        <ele>291.99902</ele>
        <time>2023-07-19T15:24:53.000Z</time>
      </trkpt>
      <trkpt lat="45.83696" lon="4.73539">
        <ele>291.78693</ele>
        <time>2023-07-19T15:24:54.000Z</time>
      </trkpt>
      <trkpt lat="45.83697" lon="4.73543">
        <ele>291.55624</ele>
        <time>2023-07-19T15:24:55.000Z</time>
      </trkpt>
      <trkpt lat="45.83699" lon="4.73547">
        <ele>291.25928</ele>
        <time>2023-07-19T15:24:56.000Z</time>
      </trkpt>
      <trkpt lat="45.837" lon="4.73552">
        <ele>290.9588</ele>
        <time>2023-07-19T15:24:57.000Z</time>
      </trkpt>
      <trkpt lat="45.83701" lon="4.73556">
        <ele>290.6535</ele>
        <time>2023-07-19T15:24:58.000Z</time>
      </trkpt>
      <trkpt lat="45.83702" lon="4.7356">
        <ele>290.34625</ele>
        <time>2023-07-19T15:24:59.000Z</time>
      </trkpt>
      <trkpt lat="45.83703" lon="4.73565">
        <ele>290.21942</ele>
        <time>2023-07-19T15:25:00.000Z</time>
      </trkpt>
      <trkpt lat="45.83705" lon="4.73569">
        <ele>290.07721</ele>
        <time>2023-07-19T15:25:01.000Z</time>
      </trkpt>
      <trkpt lat="45.83706" lon="4.73573">
        <ele>290.15228</ele>
        <time>2023-07-19T15:25:02.000Z</time>
      </trkpt>
      <trkpt lat="45.83706" lon="4.73577">
        <ele>290.23999</ele>
        <time>2023-07-19T15:25:03.000Z</time>
      </trkpt>
      <trkpt lat="45.83706" lon="4.73581">
        <ele>290.32315</ele>
        <time>2023-07-19T15:25:04.000Z</time>
      </trkpt>
      <trkpt lat="45.83706" lon="4.73584">
        <ele>290.39462</ele>
        <time>2023-07-19T15:25:05.000Z</time>
      </trkpt>
      <trkpt lat="45.83705" lon="4.73588">
        <ele>290.46115</ele>
        <time>2023-07-19T15:25:07.000Z</time>
      </trkpt>
      <trkpt lat="45.83703" lon="4.73591">
        <ele>290.69888</ele>
        <time>2023-07-19T15:25:09.000Z</time>
      </trkpt>
      <trkpt lat="45.83701" lon="4.73591">
        <ele>291.03116</ele>
        <time>2023-07-19T15:25:19.000Z</time>
      </trkpt>
      <trkpt lat="45.83698" lon="4.73594">
        <ele>291.33575</ele>
        <time>2023-07-19T15:25:36.000Z</time>
      </trkpt>
      <trkpt lat="45.83697" lon="4.73595">
        <ele>291.63992</ele>
        <time>2023-07-19T15:25:37.000Z</time>
      </trkpt>
      <trkpt lat="45.83695" lon="4.73597">
        <ele>291.94519</ele>
        <time>2023-07-19T15:25:38.000Z</time>
      </trkpt>
      <trkpt lat="45.83692" lon="4.73598">
        <ele>292.26529</ele>
        <time>2023-07-19T15:25:39.000Z</time>
      </trkpt>
      <trkpt lat="45.8369" lon="4.736">
        <ele>292.58386</ele>
        <time>2023-07-19T15:25:40.000Z</time>
      </trkpt>
      <trkpt lat="45.83687" lon="4.73601">
        <ele>292.87677</ele>
        <time>2023-07-19T15:25:41.000Z</time>
      </trkpt>
      <trkpt lat="45.83684" lon="4.73602">
        <ele>293.13812</ele>
        <time>2023-07-19T15:25:42.000Z</time>
      </trkpt>
      <trkpt lat="45.83681" lon="4.73603">
        <ele>293.41693</ele>
        <time>2023-07-19T15:25:43.000Z</time>
      </trkpt>
      <trkpt lat="45.83678" lon="4.73604">
        <ele>293.69757</ele>
        <time>2023-07-19T15:25:44.000Z</time>
      </trkpt>
      <trkpt lat="45.83676" lon="4.73604">
        <ele>293.96567</ele>
        <time>2023-07-19T15:25:45.000Z</time>
      </trkpt>
      <trkpt lat="45.83673" lon="4.73605">
        <ele>294.31961</ele>
        <time>2023-07-19T15:25:46.000Z</time>
      </trkpt>
      <trkpt lat="45.83669" lon="4.73606">
        <ele>294.64627</ele>
        <time>2023-07-19T15:25:47.000Z</time>
      </trkpt>
      <trkpt lat="45.83666" lon="4.73607">
        <ele>295.04538</ele>
        <time>2023-07-19T15:25:48.000Z</time>
      </trkpt>
      <trkpt lat="45.83662" lon="4.73607">
        <ele>295.25018</ele>
        <time>2023-07-19T15:25:49.000Z</time>
      </trkpt>
      <trkpt lat="45.83659" lon="4.73608">
        <ele>295.46259</ele>
        <time>2023-07-19T15:25:50.000Z</time>
      </trkpt>
      <trkpt lat="45.83656" lon="4.73609">
        <ele>295.72736</ele>
        <time>2023-07-19T15:25:51.000Z</time>
      </trkpt>
      <trkpt lat="45.83653" lon="4.7361">
        <ele>296.00543</ele>
        <time>2023-07-19T15:25:52.000Z</time>
      </trkpt>
      <trkpt lat="45.8365" lon="4.73611">
        <ele>296.19199</ele>
        <time>2023-07-19T15:25:53.000Z</time>
      </trkpt>
      <trkpt lat="45.83647" lon="4.73612">
        <ele>296.36337</ele>
        <time>2023-07-19T15:25:54.000Z</time>
      </trkpt>
      <trkpt lat="45.83643" lon="4.73614">
        <ele>296.46616</ele>
        <time>2023-07-19T15:25:55.000Z</time>
      </trkpt>
      <trkpt lat="45.8364" lon="4.73615">
        <ele>296.54401</ele>
        <time>2023-07-19T15:25:56.000Z</time>
      </trkpt>
      <trkpt lat="45.83637" lon="4.73616">
        <ele>296.61444</ele>
        <time>2023-07-19T15:25:57.000Z</time>
      </trkpt>
      <trkpt lat="45.83633" lon="4.73617">
        <ele>296.67966</ele>
        <time>2023-07-19T15:25:58.000Z</time>
      </trkpt>
      <trkpt lat="45.8363" lon="4.73618">
        <ele>296.73209</ele>
        <time>2023-07-19T15:25:59.000Z</time>
      </trkpt>
      <trkpt lat="45.83627" lon="4.73619">
        <ele>296.8186</ele>
        <time>2023-07-19T15:26:00.000Z</time>
      </trkpt>
      <trkpt lat="45.83624" lon="4.7362">
        <ele>296.9339</ele>
        <time>2023-07-19T15:26:01.000Z</time>
      </trkpt>
      <trkpt lat="45.8362" lon="4.73621">
        <ele>297.03915</ele>
        <time>2023-07-19T15:26:02.000Z</time>
      </trkpt>
      <trkpt lat="45.83617" lon="4.73623">
        <ele>297.16681</ele>
        <time>2023-07-19T15:26:03.000Z</time>
      </trkpt>
      <trkpt lat="45.83613" lon="4.73625">
        <ele>297.2825</ele>
        <time>2023-07-19T15:26:04.000Z</time>
      </trkpt>
      <trkpt lat="45.8361" lon="4.73627">
        <ele>297.40335</ele>
        <time>2023-07-19T15:26:05.000Z</time>
      </trkpt>
      <trkpt lat="45.83607" lon="4.7363">
        <ele>297.45074</ele>
        <time>2023-07-19T15:26:06.000Z</time>
      </trkpt>
      <trkpt lat="45.83604" lon="4.73632">
        <ele>297.52734</ele>
        <time>2023-07-19T15:26:07.000Z</time>
      </trkpt>
      <trkpt lat="45.83601" lon="4.73635">
        <ele>297.52582</ele>
        <time>2023-07-19T15:26:08.000Z</time>
      </trkpt>
      <trkpt lat="45.83598" lon="4.73637">
        <ele>297.44693</ele>
        <time>2023-07-19T15:26:09.000Z</time>
      </trkpt>
      <trkpt lat="45.83594" lon="4.73639">
        <ele>297.26175</ele>
        <time>2023-07-19T15:26:10.000Z</time>
      </trkpt>
      <trkpt lat="45.83591" lon="4.73641">
        <ele>297.04309</ele>
        <time>2023-07-19T15:26:11.000Z</time>
      </trkpt>
      <trkpt lat="45.83587" lon="4.73642">
        <ele>296.85883</ele>
        <time>2023-07-19T15:26:12.000Z</time>
      </trkpt>
      <trkpt lat="45.83584" lon="4.73644">
        <ele>296.78964</ele>
        <time>2023-07-19T15:26:13.000Z</time>
      </trkpt>
      <trkpt lat="45.83581" lon="4.73646">
        <ele>296.73767</ele>
        <time>2023-07-19T15:26:14.000Z</time>
      </trkpt>
      <trkpt lat="45.83577" lon="4.73648">
        <ele>296.67416</ele>
        <time>2023-07-19T15:26:15.000Z</time>
      </trkpt>
      <trkpt lat="45.83574" lon="4.7365">
        <ele>296.65439</ele>
        <time>2023-07-19T15:26:16.000Z</time>
      </trkpt>
      <trkpt lat="45.83571" lon="4.73653">
        <ele>296.62152</ele>
        <time>2023-07-19T15:26:17.000Z</time>
      </trkpt>
      <trkpt lat="45.83568" lon="4.73657">
        <ele>296.60565</ele>
        <time>2023-07-19T15:26:18.000Z</time>
      </trkpt>
      <trkpt lat="45.83565" lon="4.7366">
        <ele>296.61566</ele>
        <time>2023-07-19T15:26:19.000Z</time>
      </trkpt>
      <trkpt lat="45.83562" lon="4.73663">
        <ele>296.62616</ele>
        <time>2023-07-19T15:26:20.000Z</time>
      </trkpt>
      <trkpt lat="45.83559" lon="4.73667">
        <ele>296.62042</ele>
        <time>2023-07-19T15:26:21.000Z</time>
      </trkpt>
      <trkpt lat="45.83556" lon="4.73672">
        <ele>296.66321</ele>
        <time>2023-07-19T15:26:22.000Z</time>
      </trkpt>
      <trkpt lat="45.83554" lon="4.73677">
        <ele>296.68231</ele>
        <time>2023-07-19T15:26:23.000Z</time>
      </trkpt>
      <trkpt lat="45.83551" lon="4.73681">
        <ele>296.6889</ele>
        <time>2023-07-19T15:26:24.000Z</time>
      </trkpt>
      <trkpt lat="45.83548" lon="4.73685">
        <ele>296.74374</ele>
        <time>2023-07-19T15:26:25.000Z</time>
      </trkpt>
      <trkpt lat="45.83545" lon="4.73688">
        <ele>296.82974</ele>
        <time>2023-07-19T15:26:26.000Z</time>
      </trkpt>
      <trkpt lat="45.83542" lon="4.73693">
        <ele>296.99039</ele>
        <time>2023-07-19T15:26:27.000Z</time>
      </trkpt>
      <trkpt lat="45.83538" lon="4.73696">
        <ele>297.13791</ele>
        <time>2023-07-19T15:26:28.000Z</time>
      </trkpt>
      <trkpt lat="45.83535" lon="4.737">
        <ele>297.33047</ele>
        <time>2023-07-19T15:26:29.000Z</time>
      </trkpt>
      <trkpt lat="45.8353" lon="4.73703">
        <ele>297.67474</ele>
        <time>2023-07-19T15:26:30.000Z</time>
      </trkpt>
      <trkpt lat="45.83525" lon="4.73706">
        <ele>297.90558</ele>
        <time>2023-07-19T15:26:31.000Z</time>
      </trkpt>
      <trkpt lat="45.83521" lon="4.73708">
        <ele>298.11566</ele>
        <time>2023-07-19T15:26:32.000Z</time>
      </trkpt>
      <trkpt lat="45.83517" lon="4.73711">
        <ele>298.27475</ele>
        <time>2023-07-19T15:26:33.000Z</time>
      </trkpt>
      <trkpt lat="45.83513" lon="4.73714">
        <ele>298.42398</ele>
        <time>2023-07-19T15:26:34.000Z</time>
      </trkpt>
      <trkpt lat="45.83508" lon="4.73717">
        <ele>298.57343</ele>
        <time>2023-07-19T15:26:35.000Z</time>
      </trkpt>
      <trkpt lat="45.83504" lon="4.73719">
        <ele>298.77448</ele>
        <time>2023-07-19T15:26:36.000Z</time>
      </trkpt>
      <trkpt lat="45.835" lon="4.73721">
        <ele>299.0018</ele>
        <time>2023-07-19T15:26:37.000Z</time>
      </trkpt>
      <trkpt lat="45.83495" lon="4.73722">
        <ele>299.07236</ele>
        <time>2023-07-19T15:26:38.000Z</time>
      </trkpt>
      <trkpt lat="45.83491" lon="4.73723">
        <ele>299.14655</ele>
        <time>2023-07-19T15:26:39.000Z</time>
      </trkpt>
      <trkpt lat="45.83487" lon="4.73724">
        <ele>299.17139</ele>
        <time>2023-07-19T15:26:40.000Z</time>
      </trkpt>
      <trkpt lat="45.83483" lon="4.73725">
        <ele>299.20169</ele>
        <time>2023-07-19T15:26:41.000Z</time>
      </trkpt>
      <trkpt lat="45.83479" lon="4.73725">
        <ele>299.23358</ele>
        <time>2023-07-19T15:26:42.000Z</time>
      </trkpt>
      <trkpt lat="45.83474" lon="4.73725">
        <ele>299.2569</ele>
        <time>2023-07-19T15:26:43.000Z</time>
      </trkpt>
      <trkpt lat="45.8347" lon="4.73725">
        <ele>299.31949</ele>
        <time>2023-07-19T15:26:44.000Z</time>
      </trkpt>
      <trkpt lat="45.83465" lon="4.73725">
        <ele>299.33569</ele>
        <time>2023-07-19T15:26:45.000Z</time>
      </trkpt>
      <trkpt lat="45.83461" lon="4.73725">
        <ele>299.38687</ele>
        <time>2023-07-19T15:26:46.000Z</time>
      </trkpt>
      <trkpt lat="45.83456" lon="4.73726">
        <ele>299.30597</ele>
        <time>2023-07-19T15:26:47.000Z</time>
      </trkpt>
      <trkpt lat="45.83453" lon="4.73726">
        <ele>299.26254</ele>
        <time>2023-07-19T15:26:48.000Z</time>
      </trkpt>
      <trkpt lat="45.83449" lon="4.73726">
        <ele>299.24594</ele>
        <time>2023-07-19T15:26:49.000Z</time>
      </trkpt>
      <trkpt lat="45.83444" lon="4.73725">
        <ele>299.07156</ele>
        <time>2023-07-19T15:26:50.000Z</time>
      </trkpt>
      <trkpt lat="45.8344" lon="4.73726">
        <ele>299.01804</ele>
        <time>2023-07-19T15:26:51.000Z</time>
      </trkpt>
      <trkpt lat="45.83436" lon="4.73726">
        <ele>298.96652</ele>
        <time>2023-07-19T15:26:52.000Z</time>
      </trkpt>
      <trkpt lat="45.83433" lon="4.73726">
        <ele>298.9169</ele>
        <time>2023-07-19T15:26:53.000Z</time>
      </trkpt>
      <trkpt lat="45.83429" lon="4.73727">
        <ele>298.86884</ele>
        <time>2023-07-19T15:26:54.000Z</time>
      </trkpt>
      <trkpt lat="45.83425" lon="4.73727">
        <ele>298.82782</ele>
        <time>2023-07-19T15:26:55.000Z</time>
      </trkpt>
      <trkpt lat="45.83422" lon="4.73727">
        <ele>298.74536</ele>
        <time>2023-07-19T15:26:56.000Z</time>
      </trkpt>
      <trkpt lat="45.83418" lon="4.73727">
        <ele>298.68484</ele>
        <time>2023-07-19T15:26:57.000Z</time>
      </trkpt>
      <trkpt lat="45.83414" lon="4.73726">
        <ele>298.75089</ele>
        <time>2023-07-19T15:26:58.000Z</time>
      </trkpt>
      <trkpt lat="45.8341" lon="4.73727">
        <ele>298.7756</ele>
        <time>2023-07-19T15:26:59.000Z</time>
      </trkpt>
      <trkpt lat="45.83406" lon="4.73727">
        <ele>298.82059</ele>
        <time>2023-07-19T15:27:00.000Z</time>
      </trkpt>
      <trkpt lat="45.83402" lon="4.73728">
        <ele>298.85446</ele>
        <time>2023-07-19T15:27:01.000Z</time>
      </trkpt>
      <trkpt lat="45.83398" lon="4.73729">
        <ele>298.86249</ele>
        <time>2023-07-19T15:27:02.000Z</time>
      </trkpt>
      <trkpt lat="45.83395" lon="4.7373">
        <ele>298.88177</ele>
        <time>2023-07-19T15:27:03.000Z</time>
      </trkpt>
      <trkpt lat="45.83391" lon="4.73731">
        <ele>298.8559</ele>
        <time>2023-07-19T15:27:04.000Z</time>
      </trkpt>
      <trkpt lat="45.83387" lon="4.73731">
        <ele>298.88058</ele>
        <time>2023-07-19T15:27:05.000Z</time>
      </trkpt>
      <trkpt lat="45.83383" lon="4.73732">
        <ele>298.81256</ele>
        <time>2023-07-19T15:27:06.000Z</time>
      </trkpt>
      <trkpt lat="45.83379" lon="4.73732">
        <ele>298.88022</ele>
        <time>2023-07-19T15:27:07.000Z</time>
      </trkpt>
      <trkpt lat="45.83375" lon="4.73732">
        <ele>298.96918</ele>
        <time>2023-07-19T15:27:08.000Z</time>
      </trkpt>
      <trkpt lat="45.83371" lon="4.73732">
        <ele>299.02802</ele>
        <time>2023-07-19T15:27:09.000Z</time>
      </trkpt>
      <trkpt lat="45.83367" lon="4.73732">
        <ele>299.18274</ele>
        <time>2023-07-19T15:27:10.000Z</time>
      </trkpt>
      <trkpt lat="45.83364" lon="4.73732">
        <ele>299.18991</ele>
        <time>2023-07-19T15:27:11.000Z</time>
      </trkpt>
      <trkpt lat="45.8336" lon="4.73733">
        <ele>299.19064</ele>
        <time>2023-07-19T15:27:12.000Z</time>
      </trkpt>
      <trkpt lat="45.83356" lon="4.73733">
        <ele>299.20157</ele>
        <time>2023-07-19T15:27:13.000Z</time>
      </trkpt>
      <trkpt lat="45.83353" lon="4.73733">
        <ele>299.23056</ele>
        <time>2023-07-19T15:27:14.000Z</time>
      </trkpt>
      <trkpt lat="45.83349" lon="4.73733">
        <ele>299.26639</ele>
        <time>2023-07-19T15:27:15.000Z</time>
      </trkpt>
      <trkpt lat="45.83345" lon="4.73734">
        <ele>299.31866</ele>
        <time>2023-07-19T15:27:16.000Z</time>
      </trkpt>
      <trkpt lat="45.83341" lon="4.73734">
        <ele>299.33337</ele>
        <time>2023-07-19T15:27:17.000Z</time>
      </trkpt>
      <trkpt lat="45.83338" lon="4.73734">
        <ele>299.36914</ele>
        <time>2023-07-19T15:27:18.000Z</time>
      </trkpt>
      <trkpt lat="45.83334" lon="4.73735">
        <ele>299.46802</ele>
        <time>2023-07-19T15:27:19.000Z</time>
      </trkpt>
      <trkpt lat="45.83331" lon="4.73736">
        <ele>299.54727</ele>
        <time>2023-07-19T15:27:20.000Z</time>
      </trkpt>
      <trkpt lat="45.83327" lon="4.73737">
        <ele>299.62509</ele>
        <time>2023-07-19T15:27:21.000Z</time>
      </trkpt>
      <trkpt lat="45.83323" lon="4.73737">
        <ele>299.737</ele>
        <time>2023-07-19T15:27:22.000Z</time>
      </trkpt>
      <trkpt lat="45.8332" lon="4.73738">
        <ele>299.88034</ele>
        <time>2023-07-19T15:27:23.000Z</time>
      </trkpt>
      <trkpt lat="45.83316" lon="4.73739">
        <ele>300.06107</ele>
        <time>2023-07-19T15:27:24.000Z</time>
      </trkpt>
      <trkpt lat="45.83312" lon="4.73739">
        <ele>300.18869</ele>
        <time>2023-07-19T15:27:25.000Z</time>
      </trkpt>
      <trkpt lat="45.83309" lon="4.7374">
        <ele>300.36176</ele>
        <time>2023-07-19T15:27:26.000Z</time>
      </trkpt>
      <trkpt lat="45.83305" lon="4.7374">
        <ele>300.47479</ele>
        <time>2023-07-19T15:27:27.000Z</time>
      </trkpt>
      <trkpt lat="45.83301" lon="4.7374">
        <ele>300.56503</ele>
        <time>2023-07-19T15:27:28.000Z</time>
      </trkpt>
      <trkpt lat="45.83297" lon="4.7374">
        <ele>300.55225</ele>
        <time>2023-07-19T15:27:29.000Z</time>
      </trkpt>
      <trkpt lat="45.83294" lon="4.7374">
        <ele>300.59964</ele>
        <time>2023-07-19T15:27:30.000Z</time>
      </trkpt>
      <trkpt lat="45.8329" lon="4.7374">
        <ele>300.77414</ele>
        <time>2023-07-19T15:27:31.000Z</time>
      </trkpt>
      <trkpt lat="45.83287" lon="4.7374">
        <ele>300.93405</ele>
        <time>2023-07-19T15:27:32.000Z</time>
      </trkpt>
      <trkpt lat="45.83284" lon="4.7374">
        <ele>301.09738</ele>
        <time>2023-07-19T15:27:33.000Z</time>
      </trkpt>
      <trkpt lat="45.8328" lon="4.73739">
        <ele>301.26849</ele>
        <time>2023-07-19T15:27:34.000Z</time>
      </trkpt>
      <trkpt lat="45.83277" lon="4.73739">
        <ele>301.44159</ele>
        <time>2023-07-19T15:27:35.000Z</time>
      </trkpt>
      <trkpt lat="45.83274" lon="4.73739">
        <ele>301.59583</ele>
        <time>2023-07-19T15:27:36.000Z</time>
      </trkpt>
      <trkpt lat="45.83271" lon="4.7374">
        <ele>301.74326</ele>
        <time>2023-07-19T15:27:37.000Z</time>
      </trkpt>
      <trkpt lat="45.83267" lon="4.7374">
        <ele>301.91183</ele>
        <time>2023-07-19T15:27:38.000Z</time>
      </trkpt>
      <trkpt lat="45.83264" lon="4.73739">
        <ele>302.05664</ele>
        <time>2023-07-19T15:27:39.000Z</time>
      </trkpt>
      <trkpt lat="45.8326" lon="4.73739">
        <ele>302.21176</ele>
        <time>2023-07-19T15:27:40.000Z</time>
      </trkpt>
      <trkpt lat="45.83257" lon="4.7374">
        <ele>302.36429</ele>
        <time>2023-07-19T15:27:41.000Z</time>
      </trkpt>
      <trkpt lat="45.83253" lon="4.7374">
        <ele>302.53958</ele>
        <time>2023-07-19T15:27:42.000Z</time>
      </trkpt>
      <trkpt lat="45.8325" lon="4.7374">
        <ele>302.67194</ele>
        <time>2023-07-19T15:27:43.000Z</time>
      </trkpt>
      <trkpt lat="45.83247" lon="4.7374">
        <ele>302.80881</ele>
        <time>2023-07-19T15:27:44.000Z</time>
      </trkpt>
      <trkpt lat="45.83243" lon="4.7374">
        <ele>302.97528</ele>
        <time>2023-07-19T15:27:45.000Z</time>
      </trkpt>
      <trkpt lat="45.8324" lon="4.73739">
        <ele>303.04767</ele>
        <time>2023-07-19T15:27:46.000Z</time>
      </trkpt>
      <trkpt lat="45.83237" lon="4.73739">
        <ele>303.11478</ele>
        <time>2023-07-19T15:27:47.000Z</time>
      </trkpt>
      <trkpt lat="45.83233" lon="4.73739">
        <ele>303.22342</ele>
        <time>2023-07-19T15:27:48.000Z</time>
      </trkpt>
      <trkpt lat="45.8323" lon="4.73739">
        <ele>303.41922</ele>
        <time>2023-07-19T15:27:49.000Z</time>
      </trkpt>
      <trkpt lat="45.83227" lon="4.7374">
        <ele>303.54587</ele>
        <time>2023-07-19T15:27:50.000Z</time>
      </trkpt>
      <trkpt lat="45.83223" lon="4.7374">
        <ele>303.67313</ele>
        <time>2023-07-19T15:27:51.000Z</time>
      </trkpt>
      <trkpt lat="45.8322" lon="4.7374">
        <ele>303.81146</ele>
        <time>2023-07-19T15:27:52.000Z</time>
      </trkpt>
      <trkpt lat="45.83216" lon="4.73741">
        <ele>303.95026</ele>
        <time>2023-07-19T15:27:53.000Z</time>
      </trkpt>
      <trkpt lat="45.83213" lon="4.73741">
        <ele>304.1076</ele>
        <time>2023-07-19T15:27:54.000Z</time>
      </trkpt>
      <trkpt lat="45.83209" lon="4.73741">
        <ele>304.24985</ele>
        <time>2023-07-19T15:27:55.000Z</time>
      </trkpt>
      <trkpt lat="45.83206" lon="4.73742">
        <ele>304.38739</ele>
        <time>2023-07-19T15:27:56.000Z</time>
      </trkpt>
      <trkpt lat="45.83202" lon="4.73742">
        <ele>304.53033</ele>
        <time>2023-07-19T15:27:57.000Z</time>
      </trkpt>
      <trkpt lat="45.83199" lon="4.73742">
        <ele>304.62766</ele>
        <time>2023-07-19T15:27:58.000Z</time>
      </trkpt>
      <trkpt lat="45.83195" lon="4.73742">
        <ele>304.70798</ele>
        <time>2023-07-19T15:27:59.000Z</time>
      </trkpt>
      <trkpt lat="45.83192" lon="4.73743">
        <ele>304.79919</ele>
        <time>2023-07-19T15:28:00.000Z</time>
      </trkpt>
      <trkpt lat="45.83188" lon="4.73743">
        <ele>304.89874</ele>
        <time>2023-07-19T15:28:01.000Z</time>
      </trkpt>
      <trkpt lat="45.83185" lon="4.73742">
        <ele>304.95892</ele>
        <time>2023-07-19T15:28:02.000Z</time>
      </trkpt>
      <trkpt lat="45.83181" lon="4.73742">
        <ele>305.02158</ele>
        <time>2023-07-19T15:28:03.000Z</time>
      </trkpt>
      <trkpt lat="45.83178" lon="4.73742">
        <ele>305.06879</ele>
        <time>2023-07-19T15:28:04.000Z</time>
      </trkpt>
      <trkpt lat="45.83174" lon="4.73741">
        <ele>305.08853</ele>
        <time>2023-07-19T15:28:05.000Z</time>
      </trkpt>
      <trkpt lat="45.83171" lon="4.73741">
        <ele>305.17139</ele>
        <time>2023-07-19T15:28:06.000Z</time>
      </trkpt>
      <trkpt lat="45.83168" lon="4.7374">
        <ele>305.23029</ele>
        <time>2023-07-19T15:28:07.000Z</time>
      </trkpt>
      <trkpt lat="45.83164" lon="4.7374">
        <ele>305.25296</ele>
        <time>2023-07-19T15:28:08.000Z</time>
      </trkpt>
      <trkpt lat="45.83161" lon="4.7374">
        <ele>305.29462</ele>
        <time>2023-07-19T15:28:09.000Z</time>
      </trkpt>
      <trkpt lat="45.83157" lon="4.7374">
        <ele>305.36218</ele>
        <time>2023-07-19T15:28:10.000Z</time>
      </trkpt>
      <trkpt lat="45.83154" lon="4.73739">
        <ele>305.44614</ele>
        <time>2023-07-19T15:28:11.000Z</time>
      </trkpt>
      <trkpt lat="45.8315" lon="4.73739">
        <ele>305.5296</ele>
        <time>2023-07-19T15:28:12.000Z</time>
      </trkpt>
      <trkpt lat="45.83147" lon="4.73738">
        <ele>305.63507</ele>
        <time>2023-07-19T15:28:13.000Z</time>
      </trkpt>
      <trkpt lat="45.83144" lon="4.73738">
        <ele>305.66345</ele>
        <time>2023-07-19T15:28:14.000Z</time>
      </trkpt>
      <trkpt lat="45.83141" lon="4.73739">
        <ele>305.68875</ele>
        <time>2023-07-19T15:28:15.000Z</time>
      </trkpt>
      <trkpt lat="45.83137" lon="4.73739">
        <ele>305.71661</ele>
        <time>2023-07-19T15:28:16.000Z</time>
      </trkpt>
      <trkpt lat="45.83134" lon="4.73739">
        <ele>305.72827</ele>
        <time>2023-07-19T15:28:17.000Z</time>
      </trkpt>
      <trkpt lat="45.83131" lon="4.7374">
        <ele>305.76825</ele>
        <time>2023-07-19T15:28:18.000Z</time>
      </trkpt>
      <trkpt lat="45.83127" lon="4.7374">
        <ele>305.81772</ele>
        <time>2023-07-19T15:28:19.000Z</time>
      </trkpt>
      <trkpt lat="45.83124" lon="4.73739">
        <ele>305.85638</ele>
        <time>2023-07-19T15:28:20.000Z</time>
      </trkpt>
      <trkpt lat="45.8312" lon="4.73739">
        <ele>305.90591</ele>
        <time>2023-07-19T15:28:21.000Z</time>
      </trkpt>
      <trkpt lat="45.83117" lon="4.73739">
        <ele>305.95221</ele>
        <time>2023-07-19T15:28:22.000Z</time>
      </trkpt>
      <trkpt lat="45.83113" lon="4.73738">
        <ele>306.0047</ele>
        <time>2023-07-19T15:28:23.000Z</time>
      </trkpt>
      <trkpt lat="45.8311" lon="4.73738">
        <ele>306.11639</ele>
        <time>2023-07-19T15:28:24.000Z</time>
      </trkpt>
      <trkpt lat="45.83106" lon="4.73738">
        <ele>306.23096</ele>
        <time>2023-07-19T15:28:25.000Z</time>
      </trkpt>
      <trkpt lat="45.83102" lon="4.73737">
        <ele>306.34058</ele>
        <time>2023-07-19T15:28:26.000Z</time>
      </trkpt>
      <trkpt lat="45.83098" lon="4.73737">
        <ele>306.45013</ele>
        <time>2023-07-19T15:28:27.000Z</time>
      </trkpt>
      <trkpt lat="45.83095" lon="4.73736">
        <ele>306.57291</ele>
        <time>2023-07-19T15:28:28.000Z</time>
      </trkpt>
      <trkpt lat="45.83091" lon="4.73737">
        <ele>306.67349</ele>
        <time>2023-07-19T15:28:29.000Z</time>
      </trkpt>
      <trkpt lat="45.83086" lon="4.73736">
        <ele>306.75751</ele>
        <time>2023-07-19T15:28:30.000Z</time>
      </trkpt>
      <trkpt lat="45.83082" lon="4.73736">
        <ele>306.836</ele>
        <time>2023-07-19T15:28:31.000Z</time>
      </trkpt>
      <trkpt lat="45.83078" lon="4.73736">
        <ele>306.91293</ele>
        <time>2023-07-19T15:28:32.000Z</time>
      </trkpt>
      <trkpt lat="45.83074" lon="4.73737">
        <ele>307.00259</ele>
        <time>2023-07-19T15:28:33.000Z</time>
      </trkpt>
      <trkpt lat="45.83069" lon="4.73737">
        <ele>307.15656</ele>
        <time>2023-07-19T15:28:34.000Z</time>
      </trkpt>
      <trkpt lat="45.83064" lon="4.73737">
        <ele>307.29721</ele>
        <time>2023-07-19T15:28:35.000Z</time>
      </trkpt>
      <trkpt lat="45.83059" lon="4.73737">
        <ele>307.45413</ele>
        <time>2023-07-19T15:28:36.000Z</time>
      </trkpt>
      <trkpt lat="45.83054" lon="4.73737">
        <ele>307.62326</ele>
        <time>2023-07-19T15:28:37.000Z</time>
      </trkpt>
      <trkpt lat="45.83048" lon="4.73737">
        <ele>307.80447</ele>
        <time>2023-07-19T15:28:38.000Z</time>
      </trkpt>
      <trkpt lat="45.83044" lon="4.73736">
        <ele>308</ele>
        <time>2023-07-19T15:28:39.000Z</time>
      </trkpt>
      <trkpt lat="45.83039" lon="4.73736">
        <ele>308.20929</ele>
        <time>2023-07-19T15:28:40.000Z</time>
      </trkpt>
      <trkpt lat="45.83034" lon="4.73735">
        <ele>308.41473</ele>
        <time>2023-07-19T15:28:41.000Z</time>
      </trkpt>
      <trkpt lat="45.83029" lon="4.73735">
        <ele>308.64606</ele>
        <time>2023-07-19T15:28:42.000Z</time>
      </trkpt>
      <trkpt lat="45.83025" lon="4.73734">
        <ele>308.88861</ele>
        <time>2023-07-19T15:28:43.000Z</time>
      </trkpt>
      <trkpt lat="45.83019" lon="4.73734">
        <ele>309.09845</ele>
        <time>2023-07-19T15:28:44.000Z</time>
      </trkpt>
      <trkpt lat="45.83015" lon="4.73734">
        <ele>309.36493</ele>
        <time>2023-07-19T15:28:45.000Z</time>
      </trkpt>
      <trkpt lat="45.8301" lon="4.73733">
        <ele>309.62878</ele>
        <time>2023-07-19T15:28:46.000Z</time>
      </trkpt>
      <trkpt lat="45.83006" lon="4.73733">
        <ele>309.91205</ele>
        <time>2023-07-19T15:28:47.000Z</time>
      </trkpt>
      <trkpt lat="45.83001" lon="4.73732">
        <ele>310.17853</ele>
        <time>2023-07-19T15:28:48.000Z</time>
      </trkpt>
      <trkpt lat="45.82996" lon="4.73733">
        <ele>310.46747</ele>
        <time>2023-07-19T15:28:49.000Z</time>
      </trkpt>
      <trkpt lat="45.82991" lon="4.73733">
        <ele>310.7836</ele>
        <time>2023-07-19T15:28:50.000Z</time>
      </trkpt>
      <trkpt lat="45.82987" lon="4.73732">
        <ele>311.11273</ele>
        <time>2023-07-19T15:28:51.000Z</time>
      </trkpt>
      <trkpt lat="45.82982" lon="4.73731">
        <ele>311.44296</ele>
        <time>2023-07-19T15:28:52.000Z</time>
      </trkpt>
      <trkpt lat="45.82978" lon="4.73731">
        <ele>311.76468</ele>
        <time>2023-07-19T15:28:53.000Z</time>
      </trkpt>
      <trkpt lat="45.82973" lon="4.73732">
        <ele>312.06915</ele>
        <time>2023-07-19T15:28:54.000Z</time>
      </trkpt>
      <trkpt lat="45.82968" lon="4.73732">
        <ele>312.41675</ele>
        <time>2023-07-19T15:28:55.000Z</time>
      </trkpt>
      <trkpt lat="45.82965" lon="4.73733">
        <ele>312.74869</ele>
        <time>2023-07-19T15:28:56.000Z</time>
      </trkpt>
      <trkpt lat="45.8296" lon="4.73732">
        <ele>313.08249</ele>
        <time>2023-07-19T15:28:57.000Z</time>
      </trkpt>
      <trkpt lat="45.82955" lon="4.73733">
        <ele>313.4267</ele>
        <time>2023-07-19T15:28:58.000Z</time>
      </trkpt>
      <trkpt lat="45.8295" lon="4.73733">
        <ele>313.75336</ele>
        <time>2023-07-19T15:28:59.000Z</time>
      </trkpt>
      <trkpt lat="45.82945" lon="4.73732">
        <ele>314.05548</ele>
        <time>2023-07-19T15:29:00.000Z</time>
      </trkpt>
      <trkpt lat="45.8294" lon="4.73732">
        <ele>314.36182</ele>
        <time>2023-07-19T15:29:01.000Z</time>
      </trkpt>
      <trkpt lat="45.82935" lon="4.73731">
        <ele>314.63007</ele>
        <time>2023-07-19T15:29:02.000Z</time>
      </trkpt>
      <trkpt lat="45.8293" lon="4.73729">
        <ele>314.88559</ele>
        <time>2023-07-19T15:29:03.000Z</time>
      </trkpt>
      <trkpt lat="45.82924" lon="4.73729">
        <ele>315.14175</ele>
        <time>2023-07-19T15:29:04.000Z</time>
      </trkpt>
      <trkpt lat="45.82919" lon="4.73728">
        <ele>315.31433</ele>
        <time>2023-07-19T15:29:05.000Z</time>
      </trkpt>
      <trkpt lat="45.82913" lon="4.73727">
        <ele>315.46954</ele>
        <time>2023-07-19T15:29:06.000Z</time>
      </trkpt>
      <trkpt lat="45.82908" lon="4.73728">
        <ele>315.62018</ele>
        <time>2023-07-19T15:29:07.000Z</time>
      </trkpt>
      <trkpt lat="45.82902" lon="4.73728">
        <ele>315.90753</ele>
        <time>2023-07-19T15:29:08.000Z</time>
      </trkpt>
      <trkpt lat="45.82897" lon="4.73728">
        <ele>316.17316</ele>
        <time>2023-07-19T15:29:09.000Z</time>
      </trkpt>
      <trkpt lat="45.82892" lon="4.73727">
        <ele>316.44562</ele>
        <time>2023-07-19T15:29:10.000Z</time>
      </trkpt>
      <trkpt lat="45.82886" lon="4.73727">
        <ele>316.68423</ele>
        <time>2023-07-19T15:29:11.000Z</time>
      </trkpt>
      <trkpt lat="45.82881" lon="4.73727">
        <ele>316.92438</ele>
        <time>2023-07-19T15:29:12.000Z</time>
      </trkpt>
      <trkpt lat="45.82876" lon="4.73728">
        <ele>317.06531</ele>
        <time>2023-07-19T15:29:13.000Z</time>
      </trkpt>
      <trkpt lat="45.82871" lon="4.73728">
        <ele>317.17752</ele>
        <time>2023-07-19T15:29:14.000Z</time>
      </trkpt>
      <trkpt lat="45.82866" lon="4.73727">
        <ele>317.3963</ele>
        <time>2023-07-19T15:29:15.000Z</time>
      </trkpt>
      <trkpt lat="45.82861" lon="4.73726">
        <ele>317.58182</ele>
        <time>2023-07-19T15:29:16.000Z</time>
      </trkpt>
      <trkpt lat="45.82856" lon="4.73726">
        <ele>317.77704</ele>
        <time>2023-07-19T15:29:17.000Z</time>
      </trkpt>
      <trkpt lat="45.8285" lon="4.73726">
        <ele>317.97772</ele>
        <time>2023-07-19T15:29:18.000Z</time>
      </trkpt>
      <trkpt lat="45.82845" lon="4.73725">
        <ele>318.19507</ele>
        <time>2023-07-19T15:29:19.000Z</time>
      </trkpt>
      <trkpt lat="45.8284" lon="4.73725">
        <ele>318.42224</ele>
        <time>2023-07-19T15:29:20.000Z</time>
      </trkpt>
      <trkpt lat="45.82835" lon="4.73725">
        <ele>318.63525</ele>
        <time>2023-07-19T15:29:21.000Z</time>
      </trkpt>
      <trkpt lat="45.82829" lon="4.73724">
        <ele>318.87067</ele>
        <time>2023-07-19T15:29:22.000Z</time>
      </trkpt>
      <trkpt lat="45.82824" lon="4.73723">
        <ele>319.12021</ele>
        <time>2023-07-19T15:29:23.000Z</time>
      </trkpt>
      <trkpt lat="45.82819" lon="4.73723">
        <ele>319.37814</ele>
        <time>2023-07-19T15:29:24.000Z</time>
      </trkpt>
      <trkpt lat="45.82813" lon="4.73723">
        <ele>319.69012</ele>
        <time>2023-07-19T15:29:25.000Z</time>
      </trkpt>
      <trkpt lat="45.82808" lon="4.73723">
        <ele>320.03622</ele>
        <time>2023-07-19T15:29:26.000Z</time>
      </trkpt>
      <trkpt lat="45.82802" lon="4.73722">
        <ele>320.39651</ele>
        <time>2023-07-19T15:29:27.000Z</time>
      </trkpt>
      <trkpt lat="45.82797" lon="4.73723">
        <ele>320.62738</ele>
        <time>2023-07-19T15:29:28.000Z</time>
      </trkpt>
      <trkpt lat="45.82792" lon="4.73723">
        <ele>320.88629</ele>
        <time>2023-07-19T15:29:29.000Z</time>
      </trkpt>
      <trkpt lat="45.82787" lon="4.73723">
        <ele>321.00351</ele>
        <time>2023-07-19T15:29:30.000Z</time>
      </trkpt>
      <trkpt lat="45.82781" lon="4.73723">
        <ele>321.15201</ele>
        <time>2023-07-19T15:29:31.000Z</time>
      </trkpt>
      <trkpt lat="45.82776" lon="4.73723">
        <ele>321.23917</ele>
        <time>2023-07-19T15:29:32.000Z</time>
      </trkpt>
      <trkpt lat="45.82771" lon="4.73722">
        <ele>321.60645</ele>
        <time>2023-07-19T15:29:33.000Z</time>
      </trkpt>
      <trkpt lat="45.82766" lon="4.73722">
        <ele>322.00684</ele>
        <time>2023-07-19T15:29:34.000Z</time>
      </trkpt>
      <trkpt lat="45.82761" lon="4.7372">
        <ele>322.25616</ele>
        <time>2023-07-19T15:29:35.000Z</time>
      </trkpt>
      <trkpt lat="45.82756" lon="4.73719">
        <ele>322.5473</ele>
        <time>2023-07-19T15:29:36.000Z</time>
      </trkpt>
      <trkpt lat="45.82751" lon="4.73718">
        <ele>322.84418</ele>
        <time>2023-07-19T15:29:37.000Z</time>
      </trkpt>
      <trkpt lat="45.82745" lon="4.73718">
        <ele>323.08469</ele>
        <time>2023-07-19T15:29:38.000Z</time>
      </trkpt>
      <trkpt lat="45.8274" lon="4.73718">
        <ele>323.30862</ele>
        <time>2023-07-19T15:29:39.000Z</time>
      </trkpt>
      <trkpt lat="45.82734" lon="4.73718">
        <ele>323.57892</ele>
        <time>2023-07-19T15:29:40.000Z</time>
      </trkpt>
      <trkpt lat="45.82729" lon="4.73718">
        <ele>323.87592</ele>
        <time>2023-07-19T15:29:41.000Z</time>
      </trkpt>
      <trkpt lat="45.82724" lon="4.73718">
        <ele>324.15985</ele>
        <time>2023-07-19T15:29:42.000Z</time>
      </trkpt>
      <trkpt lat="45.82719" lon="4.73718">
        <ele>324.44879</ele>
        <time>2023-07-19T15:29:43.000Z</time>
      </trkpt>
      <trkpt lat="45.82715" lon="4.73719">
        <ele>324.57248</ele>
        <time>2023-07-19T15:29:44.000Z</time>
      </trkpt>
      <trkpt lat="45.8271" lon="4.7372">
        <ele>324.66339</ele>
        <time>2023-07-19T15:29:45.000Z</time>
      </trkpt>
      <trkpt lat="45.82705" lon="4.7372">
        <ele>324.96951</ele>
        <time>2023-07-19T15:29:46.000Z</time>
      </trkpt>
      <trkpt lat="45.827" lon="4.73719">
        <ele>325.21201</ele>
        <time>2023-07-19T15:29:47.000Z</time>
      </trkpt>
      <trkpt lat="45.82695" lon="4.73719">
        <ele>325.45343</ele>
        <time>2023-07-19T15:29:48.000Z</time>
      </trkpt>
      <trkpt lat="45.8269" lon="4.7372">
        <ele>325.68948</ele>
        <time>2023-07-19T15:29:49.000Z</time>
      </trkpt>
      <trkpt lat="45.82685" lon="4.7372">
        <ele>326.05865</ele>
        <time>2023-07-19T15:29:50.000Z</time>
      </trkpt>
      <trkpt lat="45.8268" lon="4.73719">
        <ele>326.39178</ele>
        <time>2023-07-19T15:29:51.000Z</time>
      </trkpt>
      <trkpt lat="45.82676" lon="4.73719">
        <ele>326.79654</ele>
        <time>2023-07-19T15:29:52.000Z</time>
      </trkpt>
      <trkpt lat="45.82671" lon="4.73718">
        <ele>326.99994</ele>
        <time>2023-07-19T15:29:53.000Z</time>
      </trkpt>
      <trkpt lat="45.82666" lon="4.73718">
        <ele>327.23114</ele>
        <time>2023-07-19T15:29:54.000Z</time>
      </trkpt>
      <trkpt lat="45.82661" lon="4.73718">
        <ele>327.46658</ele>
        <time>2023-07-19T15:29:55.000Z</time>
      </trkpt>
      <trkpt lat="45.82657" lon="4.73718">
        <ele>327.67987</ele>
        <time>2023-07-19T15:29:56.000Z</time>
      </trkpt>
      <trkpt lat="45.82652" lon="4.73719">
        <ele>327.84317</ele>
        <time>2023-07-19T15:29:57.000Z</time>
      </trkpt>
      <trkpt lat="45.82648" lon="4.73719">
        <ele>327.88321</ele>
        <time>2023-07-19T15:29:58.000Z</time>
      </trkpt>
      <trkpt lat="45.82644" lon="4.73719">
        <ele>327.89224</ele>
        <time>2023-07-19T15:29:59.000Z</time>
      </trkpt>
      <trkpt lat="45.8264" lon="4.73719">
        <ele>327.85483</ele>
        <time>2023-07-19T15:30:00.000Z</time>
      </trkpt>
      <trkpt lat="45.82635" lon="4.73719">
        <ele>328.04742</ele>
        <time>2023-07-19T15:30:01.000Z</time>
      </trkpt>
      <trkpt lat="45.8263" lon="4.73719">
        <ele>328.18774</ele>
        <time>2023-07-19T15:30:02.000Z</time>
      </trkpt>
      <trkpt lat="45.82626" lon="4.73719">
        <ele>328.29239</ele>
        <time>2023-07-19T15:30:03.000Z</time>
      </trkpt>
      <trkpt lat="45.82622" lon="4.73719">
        <ele>328.53384</ele>
        <time>2023-07-19T15:30:04.000Z</time>
      </trkpt>
      <trkpt lat="45.82617" lon="4.73719">
        <ele>328.74939</ele>
        <time>2023-07-19T15:30:05.000Z</time>
      </trkpt>
      <trkpt lat="45.82612" lon="4.73718">
        <ele>328.74457</ele>
        <time>2023-07-19T15:30:06.000Z</time>
      </trkpt>
      <trkpt lat="45.82607" lon="4.73717">
        <ele>328.75751</ele>
        <time>2023-07-19T15:30:07.000Z</time>
      </trkpt>
      <trkpt lat="45.82602" lon="4.73719">
        <ele>328.7334</ele>
        <time>2023-07-19T15:30:08.000Z</time>
      </trkpt>
      <trkpt lat="45.82596" lon="4.73721">
        <ele>328.68497</ele>
        <time>2023-07-19T15:30:09.000Z</time>
      </trkpt>
      <trkpt lat="45.8259" lon="4.73725">
        <ele>328.61588</ele>
        <time>2023-07-19T15:30:10.000Z</time>
      </trkpt>
      <trkpt lat="45.82584" lon="4.73729">
        <ele>328.48138</ele>
        <time>2023-07-19T15:30:11.000Z</time>
      </trkpt>
      <trkpt lat="45.8258" lon="4.73736">
        <ele>328.24731</ele>
        <time>2023-07-19T15:30:12.000Z</time>
      </trkpt>
      <trkpt lat="45.82578" lon="4.73745">
        <ele>327.97195</ele>
        <time>2023-07-19T15:30:13.000Z</time>
      </trkpt>
      <trkpt lat="45.82575" lon="4.73754">
        <ele>327.87921</ele>
        <time>2023-07-19T15:30:14.000Z</time>
      </trkpt>
      <trkpt lat="45.82573" lon="4.73763">
        <ele>327.76755</ele>
        <time>2023-07-19T15:30:15.000Z</time>
      </trkpt>
      <trkpt lat="45.8257" lon="4.73771">
        <ele>327.66196</ele>
        <time>2023-07-19T15:30:16.000Z</time>
      </trkpt>
      <trkpt lat="45.82567" lon="4.73779">
        <ele>327.55429</ele>
        <time>2023-07-19T15:30:17.000Z</time>
      </trkpt>
      <trkpt lat="45.82564" lon="4.73788">
        <ele>327.49167</ele>
        <time>2023-07-19T15:30:18.000Z</time>
      </trkpt>
      <trkpt lat="45.82563" lon="4.73795">
        <ele>327.43475</ele>
        <time>2023-07-19T15:30:19.000Z</time>
      </trkpt>
      <trkpt lat="45.82561" lon="4.73803">
        <ele>327.3616</ele>
        <time>2023-07-19T15:30:20.000Z</time>
      </trkpt>
      <trkpt lat="45.82558" lon="4.73808">
        <ele>327.17511</ele>
        <time>2023-07-19T15:30:21.000Z</time>
      </trkpt>
      <trkpt lat="45.82555" lon="4.73814">
        <ele>327.13464</ele>
        <time>2023-07-19T15:30:22.000Z</time>
      </trkpt>
      <trkpt lat="45.82553" lon="4.73821">
        <ele>327.17596</ele>
        <time>2023-07-19T15:30:23.000Z</time>
      </trkpt>
      <trkpt lat="45.8255" lon="4.73827">
        <ele>327.20959</ele>
        <time>2023-07-19T15:30:24.000Z</time>
      </trkpt>
      <trkpt lat="45.82548" lon="4.73834">
        <ele>327.29465</ele>
        <time>2023-07-19T15:30:25.000Z</time>
      </trkpt>
      <trkpt lat="45.82547" lon="4.73841">
        <ele>327.37259</ele>
        <time>2023-07-19T15:30:26.000Z</time>
      </trkpt>
      <trkpt lat="45.82544" lon="4.73848">
        <ele>327.48383</ele>
        <time>2023-07-19T15:30:27.000Z</time>
      </trkpt>
      <trkpt lat="45.82541" lon="4.73853">
        <ele>327.6279</ele>
        <time>2023-07-19T15:30:28.000Z</time>
      </trkpt>
      <trkpt lat="45.82539" lon="4.7386">
        <ele>327.78369</ele>
        <time>2023-07-19T15:30:29.000Z</time>
      </trkpt>
      <trkpt lat="45.82538" lon="4.73866">
        <ele>327.93317</ele>
        <time>2023-07-19T15:30:30.000Z</time>
      </trkpt>
      <trkpt lat="45.82536" lon="4.73871">
        <ele>328.09918</ele>
        <time>2023-07-19T15:30:31.000Z</time>
      </trkpt>
      <trkpt lat="45.82533" lon="4.73878">
        <ele>328.33392</ele>
        <time>2023-07-19T15:30:32.000Z</time>
      </trkpt>
      <trkpt lat="45.82531" lon="4.73883">
        <ele>328.60687</ele>
        <time>2023-07-19T15:30:33.000Z</time>
      </trkpt>
      <trkpt lat="45.82528" lon="4.73888">
        <ele>328.64783</ele>
        <time>2023-07-19T15:30:34.000Z</time>
      </trkpt>
      <trkpt lat="45.82527" lon="4.73893">
        <ele>328.72641</ele>
        <time>2023-07-19T15:30:35.000Z</time>
      </trkpt>
      <trkpt lat="45.82526" lon="4.73897">
        <ele>328.79837</ele>
        <time>2023-07-19T15:30:36.000Z</time>
      </trkpt>
      <trkpt lat="45.82523" lon="4.73901">
        <ele>328.79242</ele>
        <time>2023-07-19T15:30:37.000Z</time>
      </trkpt>
      <trkpt lat="45.82521" lon="4.73906">
        <ele>328.9169</ele>
        <time>2023-07-19T15:30:38.000Z</time>
      </trkpt>
      <trkpt lat="45.8252" lon="4.73912">
        <ele>329.06198</ele>
        <time>2023-07-19T15:30:39.000Z</time>
      </trkpt>
      <trkpt lat="45.82518" lon="4.73916">
        <ele>329.21902</ele>
        <time>2023-07-19T15:30:40.000Z</time>
      </trkpt>
      <trkpt lat="45.82515" lon="4.7392">
        <ele>329.23407</ele>
        <time>2023-07-19T15:30:41.000Z</time>
      </trkpt>
      <trkpt lat="45.82513" lon="4.73924">
        <ele>329.14786</ele>
        <time>2023-07-19T15:30:42.000Z</time>
      </trkpt>
      <trkpt lat="45.82509" lon="4.73927">
        <ele>328.98462</ele>
        <time>2023-07-19T15:30:43.000Z</time>
      </trkpt>
      <trkpt lat="45.82506" lon="4.73927">
        <ele>328.82794</ele>
        <time>2023-07-19T15:30:44.000Z</time>
      </trkpt>
      <trkpt lat="45.82502" lon="4.73924">
        <ele>328.64209</ele>
        <time>2023-07-19T15:30:45.000Z</time>
      </trkpt>
      <trkpt lat="45.825" lon="4.73917">
        <ele>328.44025</ele>
        <time>2023-07-19T15:30:46.000Z</time>
      </trkpt>
      <trkpt lat="45.82501" lon="4.73909">
        <ele>328.23392</ele>
        <time>2023-07-19T15:30:47.000Z</time>
      </trkpt>
      <trkpt lat="45.82503" lon="4.73903">
        <ele>328.01315</ele>
        <time>2023-07-19T15:30:48.000Z</time>
      </trkpt>
      <trkpt lat="45.82506" lon="4.73897">
        <ele>327.79398</ele>
        <time>2023-07-19T15:30:49.000Z</time>
      </trkpt>
      <trkpt lat="45.8251" lon="4.73892">
        <ele>327.51843</ele>
        <time>2023-07-19T15:30:50.000Z</time>
      </trkpt>
      <trkpt lat="45.82513" lon="4.73887">
        <ele>327.55939</ele>
        <time>2023-07-19T15:30:51.000Z</time>
      </trkpt>
      <trkpt lat="45.82515" lon="4.73883">
        <ele>327.57529</ele>
        <time>2023-07-19T15:30:52.000Z</time>
      </trkpt>
      <trkpt lat="45.82518" lon="4.73878">
        <ele>327.58087</ele>
        <time>2023-07-19T15:30:53.000Z</time>
      </trkpt>
      <trkpt lat="45.8252" lon="4.73873">
        <ele>327.58231</ele>
        <time>2023-07-19T15:30:54.000Z</time>
      </trkpt>
      <trkpt lat="45.82523" lon="4.73868">
        <ele>327.60458</ele>
        <time>2023-07-19T15:30:55.000Z</time>
      </trkpt>
      <trkpt lat="45.82525" lon="4.73862">
        <ele>327.64096</ele>
        <time>2023-07-19T15:30:56.000Z</time>
      </trkpt>
      <trkpt lat="45.82527" lon="4.73856">
        <ele>327.79575</ele>
        <time>2023-07-19T15:30:57.000Z</time>
      </trkpt>
      <trkpt lat="45.82529" lon="4.73849">
        <ele>327.92453</ele>
        <time>2023-07-19T15:30:58.000Z</time>
      </trkpt>
      <trkpt lat="45.82532" lon="4.73843">
        <ele>328.04926</ele>
        <time>2023-07-19T15:30:59.000Z</time>
      </trkpt>
      <trkpt lat="45.82533" lon="4.73836">
        <ele>328.16916</ele>
        <time>2023-07-19T15:31:00.000Z</time>
      </trkpt>
      <trkpt lat="45.82532" lon="4.73829">
        <ele>328.29376</ele>
        <time>2023-07-19T15:31:01.000Z</time>
      </trkpt>
      <trkpt lat="45.82532" lon="4.73821">
        <ele>328.31689</ele>
        <time>2023-07-19T15:31:02.000Z</time>
      </trkpt>
      <trkpt lat="45.82531" lon="4.73815">
        <ele>328.37469</ele>
        <time>2023-07-19T15:31:03.000Z</time>
      </trkpt>
      <trkpt lat="45.8253" lon="4.73808">
        <ele>328.3988</ele>
        <time>2023-07-19T15:31:04.000Z</time>
      </trkpt>
      <trkpt lat="45.82527" lon="4.73801">
        <ele>328.41415</ele>
        <time>2023-07-19T15:31:05.000Z</time>
      </trkpt>
      <trkpt lat="45.82524" lon="4.73794">
        <ele>328.46613</ele>
        <time>2023-07-19T15:31:06.000Z</time>
      </trkpt>
      <trkpt lat="45.82521" lon="4.73788">
        <ele>328.42984</ele>
        <time>2023-07-19T15:31:07.000Z</time>
      </trkpt>
      <trkpt lat="45.82518" lon="4.73781">
        <ele>328.40582</ele>
        <time>2023-07-19T15:31:08.000Z</time>
      </trkpt>
      <trkpt lat="45.82515" lon="4.73774">
        <ele>328.38623</ele>
        <time>2023-07-19T15:31:09.000Z</time>
      </trkpt>
      <trkpt lat="45.82512" lon="4.73768">
        <ele>328.43216</ele>
        <time>2023-07-19T15:31:10.000Z</time>
      </trkpt>
      <trkpt lat="45.82509" lon="4.73761">
        <ele>328.47797</ele>
        <time>2023-07-19T15:31:11.000Z</time>
      </trkpt>
      <trkpt lat="45.82507" lon="4.73756">
        <ele>328.51709</ele>
        <time>2023-07-19T15:31:12.000Z</time>
      </trkpt>
      <trkpt lat="45.82503" lon="4.73751">
        <ele>328.5813</ele>
        <time>2023-07-19T15:31:13.000Z</time>
      </trkpt>
      <trkpt lat="45.82501" lon="4.73744">
        <ele>328.68143</ele>
        <time>2023-07-19T15:31:14.000Z</time>
      </trkpt>
      <trkpt lat="45.82498" lon="4.73738">
        <ele>328.76901</ele>
        <time>2023-07-19T15:31:15.000Z</time>
      </trkpt>
      <trkpt lat="45.82495" lon="4.73732">
        <ele>328.86023</ele>
        <time>2023-07-19T15:31:16.000Z</time>
      </trkpt>
      <trkpt lat="45.82491" lon="4.73726">
        <ele>328.94644</ele>
        <time>2023-07-19T15:31:17.000Z</time>
      </trkpt>
      <trkpt lat="45.82488" lon="4.7372">
        <ele>328.91718</ele>
        <time>2023-07-19T15:31:18.000Z</time>
      </trkpt>
      <trkpt lat="45.82484" lon="4.73714">
        <ele>328.8941</ele>
        <time>2023-07-19T15:31:19.000Z</time>
      </trkpt>
      <trkpt lat="45.82482" lon="4.73709">
        <ele>328.8985</ele>
        <time>2023-07-19T15:31:20.000Z</time>
      </trkpt>
      <trkpt lat="45.82479" lon="4.73703">
        <ele>328.80518</ele>
        <time>2023-07-19T15:31:21.000Z</time>
      </trkpt>
      <trkpt lat="45.82475" lon="4.73697">
        <ele>328.8187</ele>
        <time>2023-07-19T15:31:22.000Z</time>
      </trkpt>
      <trkpt lat="45.82472" lon="4.73691">
        <ele>329.0896</ele>
        <time>2023-07-19T15:31:23.000Z</time>
      </trkpt>
      <trkpt lat="45.82469" lon="4.73685">
        <ele>329.34073</ele>
        <time>2023-07-19T15:31:24.000Z</time>
      </trkpt>
      <trkpt lat="45.82465" lon="4.73679">
        <ele>329.6264</ele>
        <time>2023-07-19T15:31:25.000Z</time>
      </trkpt>
      <trkpt lat="45.82462" lon="4.73674">
        <ele>329.87082</ele>
        <time>2023-07-19T15:31:26.000Z</time>
      </trkpt>
      <trkpt lat="45.82459" lon="4.73668">
        <ele>330.19257</ele>
        <time>2023-07-19T15:31:27.000Z</time>
      </trkpt>
      <trkpt lat="45.82456" lon="4.73663">
        <ele>330.48395</ele>
        <time>2023-07-19T15:31:28.000Z</time>
      </trkpt>
      <trkpt lat="45.82452" lon="4.73656">
        <ele>330.79208</ele>
        <time>2023-07-19T15:31:29.000Z</time>
      </trkpt>
      <trkpt lat="45.82449" lon="4.73651">
        <ele>331.12149</ele>
        <time>2023-07-19T15:31:30.000Z</time>
      </trkpt>
      <trkpt lat="45.82446" lon="4.73644">
        <ele>331.22342</ele>
        <time>2023-07-19T15:31:31.000Z</time>
      </trkpt>
      <trkpt lat="45.82444" lon="4.73638">
        <ele>331.35751</ele>
        <time>2023-07-19T15:31:32.000Z</time>
      </trkpt>
      <trkpt lat="45.82441" lon="4.73632">
        <ele>331.49744</ele>
        <time>2023-07-19T15:31:33.000Z</time>
      </trkpt>
      <trkpt lat="45.82439" lon="4.73625">
        <ele>331.60547</ele>
        <time>2023-07-19T15:31:34.000Z</time>
      </trkpt>
      <trkpt lat="45.82435" lon="4.7362">
        <ele>331.71774</ele>
        <time>2023-07-19T15:31:35.000Z</time>
      </trkpt>
      <trkpt lat="45.82434" lon="4.73613">
        <ele>331.66791</ele>
        <time>2023-07-19T15:31:36.000Z</time>
      </trkpt>
      <trkpt lat="45.82431" lon="4.73609">
        <ele>331.53183</ele>
        <time>2023-07-19T15:31:37.000Z</time>
      </trkpt>
      <trkpt lat="45.82428" lon="4.73602">
        <ele>331.81781</ele>
        <time>2023-07-19T15:31:38.000Z</time>
      </trkpt>
      <trkpt lat="45.82425" lon="4.73596">
        <ele>332.08981</ele>
        <time>2023-07-19T15:31:39.000Z</time>
      </trkpt>
      <trkpt lat="45.82422" lon="4.7359">
        <ele>332.34033</ele>
        <time>2023-07-19T15:31:40.000Z</time>
      </trkpt>
      <trkpt lat="45.82419" lon="4.73585">
        <ele>332.68921</ele>
        <time>2023-07-19T15:31:41.000Z</time>
      </trkpt>
      <trkpt lat="45.82416" lon="4.7358">
        <ele>333.02603</ele>
        <time>2023-07-19T15:31:42.000Z</time>
      </trkpt>
      <trkpt lat="45.82413" lon="4.73574">
        <ele>333.05731</ele>
        <time>2023-07-19T15:31:43.000Z</time>
      </trkpt>
      <trkpt lat="45.82412" lon="4.73569">
        <ele>333.11832</ele>
        <time>2023-07-19T15:31:44.000Z</time>
      </trkpt>
      <trkpt lat="45.82409" lon="4.73565">
        <ele>333.00793</ele>
        <time>2023-07-19T15:31:45.000Z</time>
      </trkpt>
      <trkpt lat="45.82406" lon="4.73558">
        <ele>332.9267</ele>
        <time>2023-07-19T15:31:46.000Z</time>
      </trkpt>
      <trkpt lat="45.82404" lon="4.73552">
        <ele>332.82977</ele>
        <time>2023-07-19T15:31:47.000Z</time>
      </trkpt>
      <trkpt lat="45.824" lon="4.73545">
        <ele>332.77203</ele>
        <time>2023-07-19T15:31:48.000Z</time>
      </trkpt>
      <trkpt lat="45.82397" lon="4.73539">
        <ele>332.71039</ele>
        <time>2023-07-19T15:31:49.000Z</time>
      </trkpt>
      <trkpt lat="45.82394" lon="4.73533">
        <ele>332.5256</ele>
        <time>2023-07-19T15:31:50.000Z</time>
      </trkpt>
      <trkpt lat="45.82392" lon="4.73525">
        <ele>332.31213</ele>
        <time>2023-07-19T15:31:51.000Z</time>
      </trkpt>
      <trkpt lat="45.8239" lon="4.73517">
        <ele>332.08188</ele>
        <time>2023-07-19T15:31:52.000Z</time>
      </trkpt>
      <trkpt lat="45.82386" lon="4.7351">
        <ele>332.14499</ele>
        <time>2023-07-19T15:31:53.000Z</time>
      </trkpt>
      <trkpt lat="45.82383" lon="4.73504">
        <ele>332.19312</ele>
        <time>2023-07-19T15:31:54.000Z</time>
      </trkpt>
      <trkpt lat="45.8238" lon="4.73497">
        <ele>332.24002</ele>
        <time>2023-07-19T15:31:55.000Z</time>
      </trkpt>
      <trkpt lat="45.82377" lon="4.7349">
        <ele>332.47839</ele>
        <time>2023-07-19T15:31:56.000Z</time>
      </trkpt>
      <trkpt lat="45.82375" lon="4.73483">
        <ele>332.78101</ele>
        <time>2023-07-19T15:31:57.000Z</time>
      </trkpt>
      <trkpt lat="45.82371" lon="4.73477">
        <ele>332.77966</ele>
        <time>2023-07-19T15:31:58.000Z</time>
      </trkpt>
      <trkpt lat="45.82369" lon="4.73469">
        <ele>332.7796</ele>
        <time>2023-07-19T15:31:59.000Z</time>
      </trkpt>
      <trkpt lat="45.82365" lon="4.73463">
        <ele>332.78174</ele>
        <time>2023-07-19T15:32:00.000Z</time>
      </trkpt>
      <trkpt lat="45.82362" lon="4.73457">
        <ele>332.76706</ele>
        <time>2023-07-19T15:32:01.000Z</time>
      </trkpt>
      <trkpt lat="45.82358" lon="4.73451">
        <ele>332.61288</ele>
        <time>2023-07-19T15:32:02.000Z</time>
      </trkpt>
      <trkpt lat="45.82355" lon="4.73444">
        <ele>332.37656</ele>
        <time>2023-07-19T15:32:03.000Z</time>
      </trkpt>
      <trkpt lat="45.82351" lon="4.73438">
        <ele>332.1698</ele>
        <time>2023-07-19T15:32:04.000Z</time>
      </trkpt>
      <trkpt lat="45.82348" lon="4.73432">
        <ele>332.42352</ele>
        <time>2023-07-19T15:32:05.000Z</time>
      </trkpt>
      <trkpt lat="45.82345" lon="4.73427">
        <ele>332.62701</ele>
        <time>2023-07-19T15:32:06.000Z</time>
      </trkpt>
      <trkpt lat="45.82342" lon="4.73422">
        <ele>332.89276</ele>
        <time>2023-07-19T15:32:07.000Z</time>
      </trkpt>
      <trkpt lat="45.82339" lon="4.73416">
        <ele>333.14801</ele>
        <time>2023-07-19T15:32:08.000Z</time>
      </trkpt>
      <trkpt lat="45.82335" lon="4.7341">
        <ele>333.40515</ele>
        <time>2023-07-19T15:32:09.000Z</time>
      </trkpt>
      <trkpt lat="45.82331" lon="4.73404">
        <ele>333.76526</ele>
        <time>2023-07-19T15:32:10.000Z</time>
      </trkpt>
      <trkpt lat="45.82328" lon="4.73398">
        <ele>334.10516</ele>
        <time>2023-07-19T15:32:11.000Z</time>
      </trkpt>
      <trkpt lat="45.82324" lon="4.73391">
        <ele>334.47504</ele>
        <time>2023-07-19T15:32:12.000Z</time>
      </trkpt>
      <trkpt lat="45.82321" lon="4.73385">
        <ele>334.53156</ele>
        <time>2023-07-19T15:32:13.000Z</time>
      </trkpt>
      <trkpt lat="45.82318" lon="4.73379">
        <ele>334.63934</ele>
        <time>2023-07-19T15:32:14.000Z</time>
      </trkpt>
      <trkpt lat="45.82315" lon="4.73373">
        <ele>334.75113</ele>
        <time>2023-07-19T15:32:15.000Z</time>
      </trkpt>
      <trkpt lat="45.82313" lon="4.73368">
        <ele>334.66928</ele>
        <time>2023-07-19T15:32:16.000Z</time>
      </trkpt>
      <trkpt lat="45.8231" lon="4.73362">
        <ele>334.48172</ele>
        <time>2023-07-19T15:32:17.000Z</time>
      </trkpt>
      <trkpt lat="45.82309" lon="4.73356">
        <ele>334.62918</ele>
        <time>2023-07-19T15:32:18.000Z</time>
      </trkpt>
      <trkpt lat="45.82307" lon="4.73349">
        <ele>334.69672</ele>
        <time>2023-07-19T15:32:19.000Z</time>
      </trkpt>
      <trkpt lat="45.82307" lon="4.73344">
        <ele>334.7468</ele>
        <time>2023-07-19T15:32:20.000Z</time>
      </trkpt>
      <trkpt lat="45.82305" lon="4.73337">
        <ele>334.82733</ele>
        <time>2023-07-19T15:32:21.000Z</time>
      </trkpt>
      <trkpt lat="45.82304" lon="4.73332">
        <ele>335.03235</ele>
        <time>2023-07-19T15:32:22.000Z</time>
      </trkpt>
      <trkpt lat="45.82303" lon="4.73326">
        <ele>335.35092</ele>
        <time>2023-07-19T15:32:23.000Z</time>
      </trkpt>
      <trkpt lat="45.82302" lon="4.73321">
        <ele>335.65503</ele>
        <time>2023-07-19T15:32:24.000Z</time>
      </trkpt>
      <trkpt lat="45.82301" lon="4.73317">
        <ele>335.64618</ele>
        <time>2023-07-19T15:32:25.000Z</time>
      </trkpt>
      <trkpt lat="45.82299" lon="4.73311">
        <ele>335.66376</ele>
        <time>2023-07-19T15:32:26.000Z</time>
      </trkpt>
      <trkpt lat="45.82297" lon="4.73306">
        <ele>335.66989</ele>
        <time>2023-07-19T15:32:27.000Z</time>
      </trkpt>
      <trkpt lat="45.82295" lon="4.73299">
        <ele>335.6601</ele>
        <time>2023-07-19T15:32:28.000Z</time>
      </trkpt>
      <trkpt lat="45.82294" lon="4.73295">
        <ele>335.61847</ele>
        <time>2023-07-19T15:32:29.000Z</time>
      </trkpt>
      <trkpt lat="45.82293" lon="4.7329">
        <ele>335.54614</ele>
        <time>2023-07-19T15:32:30.000Z</time>
      </trkpt>
      <trkpt lat="45.82291" lon="4.73285">
        <ele>335.47769</ele>
        <time>2023-07-19T15:32:31.000Z</time>
      </trkpt>
      <trkpt lat="45.82289" lon="4.73281">
        <ele>335.41974</ele>
        <time>2023-07-19T15:32:32.000Z</time>
      </trkpt>
      <trkpt lat="45.82285" lon="4.7328">
        <ele>335.37677</ele>
        <time>2023-07-19T15:32:33.000Z</time>
      </trkpt>
      <trkpt lat="45.82281" lon="4.7328">
        <ele>335.31158</ele>
        <time>2023-07-19T15:32:34.000Z</time>
      </trkpt>
      <trkpt lat="45.82277" lon="4.73283">
        <ele>335.1889</ele>
        <time>2023-07-19T15:32:35.000Z</time>
      </trkpt>
      <trkpt lat="45.82272" lon="4.73285">
        <ele>335.22711</ele>
        <time>2023-07-19T15:32:36.000Z</time>
      </trkpt>
      <trkpt lat="45.82268" lon="4.73288">
        <ele>335.36798</ele>
        <time>2023-07-19T15:32:37.000Z</time>
      </trkpt>
      <trkpt lat="45.82263" lon="4.7329">
        <ele>335.15176</ele>
        <time>2023-07-19T15:32:38.000Z</time>
      </trkpt>
      <trkpt lat="45.82258" lon="4.73292">
        <ele>335.03406</ele>
        <time>2023-07-19T15:32:39.000Z</time>
      </trkpt>
      <trkpt lat="45.82253" lon="4.73294">
        <ele>334.948</ele>
        <time>2023-07-19T15:32:40.000Z</time>
      </trkpt>
      <trkpt lat="45.82247" lon="4.73296">
        <ele>334.82538</ele>
        <time>2023-07-19T15:32:41.000Z</time>
      </trkpt>
      <trkpt lat="45.82242" lon="4.73299">
        <ele>334.72211</ele>
        <time>2023-07-19T15:32:42.000Z</time>
      </trkpt>
      <trkpt lat="45.82237" lon="4.73301">
        <ele>334.6048</ele>
        <time>2023-07-19T15:32:43.000Z</time>
      </trkpt>
      <trkpt lat="45.82231" lon="4.73303">
        <ele>334.50256</ele>
        <time>2023-07-19T15:32:44.000Z</time>
      </trkpt>
      <trkpt lat="45.82225" lon="4.73305">
        <ele>334.37863</ele>
        <time>2023-07-19T15:32:45.000Z</time>
      </trkpt>
      <trkpt lat="45.82219" lon="4.73308">
        <ele>334.12259</ele>
        <time>2023-07-19T15:32:46.000Z</time>
      </trkpt>
      <trkpt lat="45.82212" lon="4.73311">
        <ele>333.74695</ele>
        <time>2023-07-19T15:32:47.000Z</time>
      </trkpt>
      <trkpt lat="45.82206" lon="4.73314">
        <ele>333.37421</ele>
        <time>2023-07-19T15:32:48.000Z</time>
      </trkpt>
      <trkpt lat="45.82199" lon="4.73317">
        <ele>333.00195</ele>
        <time>2023-07-19T15:32:49.000Z</time>
      </trkpt>
      <trkpt lat="45.82193" lon="4.7332">
        <ele>332.93362</ele>
        <time>2023-07-19T15:32:50.000Z</time>
      </trkpt>
      <trkpt lat="45.82186" lon="4.73323">
        <ele>332.836</ele>
        <time>2023-07-19T15:32:51.000Z</time>
      </trkpt>
      <trkpt lat="45.8218" lon="4.73323">
        <ele>332.7265</ele>
        <time>2023-07-19T15:32:52.000Z</time>
      </trkpt>
      <trkpt lat="45.82175" lon="4.73321">
        <ele>332.60907</ele>
        <time>2023-07-19T15:32:53.000Z</time>
      </trkpt>
      <trkpt lat="45.82171" lon="4.73317">
        <ele>332.48975</ele>
        <time>2023-07-19T15:32:54.000Z</time>
      </trkpt>
      <trkpt lat="45.82169" lon="4.73311">
        <ele>332.39835</ele>
        <time>2023-07-19T15:32:55.000Z</time>
      </trkpt>
      <trkpt lat="45.82167" lon="4.73306">
        <ele>332.27765</ele>
        <time>2023-07-19T15:32:56.000Z</time>
      </trkpt>
      <trkpt lat="45.82165" lon="4.733">
        <ele>332.18552</ele>
        <time>2023-07-19T15:32:57.000Z</time>
      </trkpt>
      <trkpt lat="45.82162" lon="4.73295">
        <ele>332.09149</ele>
        <time>2023-07-19T15:32:58.000Z</time>
      </trkpt>
      <trkpt lat="45.82159" lon="4.73292">
        <ele>331.97015</ele>
        <time>2023-07-19T15:32:59.000Z</time>
      </trkpt>
      <trkpt lat="45.82155" lon="4.7329">
        <ele>332.12799</ele>
        <time>2023-07-19T15:33:00.000Z</time>
      </trkpt>
      <trkpt lat="45.8215" lon="4.73289">
        <ele>331.69293</ele>
        <time>2023-07-19T15:33:01.000Z</time>
      </trkpt>
      <trkpt lat="45.82145" lon="4.73289">
        <ele>331.55731</ele>
        <time>2023-07-19T15:33:02.000Z</time>
      </trkpt>
      <trkpt lat="45.8214" lon="4.73291">
        <ele>331.38959</ele>
        <time>2023-07-19T15:33:03.000Z</time>
      </trkpt>
      <trkpt lat="45.82135" lon="4.73294">
        <ele>331.49896</ele>
        <time>2023-07-19T15:33:04.000Z</time>
      </trkpt>
      <trkpt lat="45.8213" lon="4.73295">
        <ele>331.58716</ele>
        <time>2023-07-19T15:33:05.000Z</time>
      </trkpt>
      <trkpt lat="45.82124" lon="4.73297">
        <ele>331.789</ele>
        <time>2023-07-19T15:33:06.000Z</time>
      </trkpt>
      <trkpt lat="45.82118" lon="4.73298">
        <ele>332.08847</ele>
        <time>2023-07-19T15:33:07.000Z</time>
      </trkpt>
      <trkpt lat="45.82112" lon="4.73299">
        <ele>332.36588</ele>
        <time>2023-07-19T15:33:08.000Z</time>
      </trkpt>
      <trkpt lat="45.82106" lon="4.73302">
        <ele>332.65298</ele>
        <time>2023-07-19T15:33:09.000Z</time>
      </trkpt>
      <trkpt lat="45.82099" lon="4.73305">
        <ele>332.67444</ele>
        <time>2023-07-19T15:33:10.000Z</time>
      </trkpt>
      <trkpt lat="45.82093" lon="4.73308">
        <ele>332.72528</ele>
        <time>2023-07-19T15:33:11.000Z</time>
      </trkpt>
      <trkpt lat="45.82086" lon="4.7331">
        <ele>332.74945</ele>
        <time>2023-07-19T15:33:12.000Z</time>
      </trkpt>
      <trkpt lat="45.82079" lon="4.73315">
        <ele>332.77231</ele>
        <time>2023-07-19T15:33:13.000Z</time>
      </trkpt>
      <trkpt lat="45.82073" lon="4.73319">
        <ele>332.76361</ele>
        <time>2023-07-19T15:33:14.000Z</time>
      </trkpt>
      <trkpt lat="45.82065" lon="4.73323">
        <ele>332.74725</ele>
        <time>2023-07-19T15:33:15.000Z</time>
      </trkpt>
      <trkpt lat="45.82059" lon="4.73328">
        <ele>332.75555</ele>
        <time>2023-07-19T15:33:16.000Z</time>
      </trkpt>
      <trkpt lat="45.82052" lon="4.73331">
        <ele>332.72903</ele>
        <time>2023-07-19T15:33:17.000Z</time>
      </trkpt>
      <trkpt lat="45.82046" lon="4.73334">
        <ele>332.71304</ele>
        <time>2023-07-19T15:33:18.000Z</time>
      </trkpt>
      <trkpt lat="45.82039" lon="4.73339">
        <ele>332.67047</ele>
        <time>2023-07-19T15:33:19.000Z</time>
      </trkpt>
      <trkpt lat="45.82032" lon="4.73344">
        <ele>332.36639</ele>
        <time>2023-07-19T15:33:20.000Z</time>
      </trkpt>
      <trkpt lat="45.82026" lon="4.73349">
        <ele>332.68439</ele>
        <time>2023-07-19T15:33:21.000Z</time>
      </trkpt>
      <trkpt lat="45.82022" lon="4.73356">
        <ele>332.69547</ele>
        <time>2023-07-19T15:33:22.000Z</time>
      </trkpt>
      <trkpt lat="45.82017" lon="4.73361">
        <ele>332.71906</ele>
        <time>2023-07-19T15:33:23.000Z</time>
      </trkpt>
      <trkpt lat="45.8201" lon="4.73366">
        <ele>332.45978</ele>
        <time>2023-07-19T15:33:24.000Z</time>
      </trkpt>
      <trkpt lat="45.82004" lon="4.7337">
        <ele>332.25894</ele>
        <time>2023-07-19T15:33:25.000Z</time>
      </trkpt>
      <trkpt lat="45.81998" lon="4.73375">
        <ele>332.08063</ele>
        <time>2023-07-19T15:33:26.000Z</time>
      </trkpt>
      <trkpt lat="45.81992" lon="4.73379">
        <ele>331.89932</ele>
        <time>2023-07-19T15:33:27.000Z</time>
      </trkpt>
      <trkpt lat="45.81985" lon="4.73383">
        <ele>331.75247</ele>
        <time>2023-07-19T15:33:28.000Z</time>
      </trkpt>
      <trkpt lat="45.81979" lon="4.73387">
        <ele>331.58823</ele>
        <time>2023-07-19T15:33:29.000Z</time>
      </trkpt>
      <trkpt lat="45.81973" lon="4.73392">
        <ele>331.39383</ele>
        <time>2023-07-19T15:33:30.000Z</time>
      </trkpt>
      <trkpt lat="45.81967" lon="4.73396">
        <ele>331.17245</ele>
        <time>2023-07-19T15:33:31.000Z</time>
      </trkpt>
      <trkpt lat="45.81961" lon="4.734">
        <ele>330.96432</ele>
        <time>2023-07-19T15:33:32.000Z</time>
      </trkpt>
      <trkpt lat="45.81956" lon="4.73404">
        <ele>330.73212</ele>
        <time>2023-07-19T15:33:33.000Z</time>
      </trkpt>
      <trkpt lat="45.8195" lon="4.73407">
        <ele>330.54416</ele>
        <time>2023-07-19T15:33:34.000Z</time>
      </trkpt>
      <trkpt lat="45.81945" lon="4.7341">
        <ele>330.38666</ele>
        <time>2023-07-19T15:33:35.000Z</time>
      </trkpt>
      <trkpt lat="45.81941" lon="4.73416">
        <ele>330.2037</ele>
        <time>2023-07-19T15:33:36.000Z</time>
      </trkpt>
      <trkpt lat="45.81938" lon="4.73423">
        <ele>330.03937</ele>
        <time>2023-07-19T15:33:37.000Z</time>
      </trkpt>
      <trkpt lat="45.81936" lon="4.7343">
        <ele>329.86639</ele>
        <time>2023-07-19T15:33:38.000Z</time>
      </trkpt>
      <trkpt lat="45.81936" lon="4.73438">
        <ele>329.69699</ele>
        <time>2023-07-19T15:33:39.000Z</time>
      </trkpt>
      <trkpt lat="45.81935" lon="4.73446">
        <ele>329.51605</ele>
        <time>2023-07-19T15:33:40.000Z</time>
      </trkpt>
      <trkpt lat="45.81935" lon="4.73453">
        <ele>329.28564</ele>
        <time>2023-07-19T15:33:41.000Z</time>
      </trkpt>
      <trkpt lat="45.81935" lon="4.7346">
        <ele>329.08987</ele>
        <time>2023-07-19T15:33:42.000Z</time>
      </trkpt>
      <trkpt lat="45.81932" lon="4.7347">
        <ele>328.90115</ele>
        <time>2023-07-19T15:33:43.000Z</time>
      </trkpt>
      <trkpt lat="45.81931" lon="4.73479">
        <ele>328.64359</ele>
        <time>2023-07-19T15:33:44.000Z</time>
      </trkpt>
      <trkpt lat="45.81929" lon="4.73488">
        <ele>328.35739</ele>
        <time>2023-07-19T15:33:45.000Z</time>
      </trkpt>
      <trkpt lat="45.81927" lon="4.73496">
        <ele>328.08099</ele>
        <time>2023-07-19T15:33:46.000Z</time>
      </trkpt>
      <trkpt lat="45.81927" lon="4.73504">
        <ele>327.80539</ele>
        <time>2023-07-19T15:33:47.000Z</time>
      </trkpt>
      <trkpt lat="45.81926" lon="4.73514">
        <ele>327.52032</ele>
        <time>2023-07-19T15:33:48.000Z</time>
      </trkpt>
      <trkpt lat="45.81924" lon="4.73523">
        <ele>327.25781</ele>
        <time>2023-07-19T15:33:49.000Z</time>
      </trkpt>
      <trkpt lat="45.81923" lon="4.73532">
        <ele>327.02151</ele>
        <time>2023-07-19T15:33:50.000Z</time>
      </trkpt>
      <trkpt lat="45.81923" lon="4.73541">
        <ele>326.80112</ele>
        <time>2023-07-19T15:33:51.000Z</time>
      </trkpt>
      <trkpt lat="45.81923" lon="4.73549">
        <ele>326.58499</ele>
        <time>2023-07-19T15:33:52.000Z</time>
      </trkpt>
      <trkpt lat="45.81921" lon="4.73558">
        <ele>326.38025</ele>
        <time>2023-07-19T15:33:53.000Z</time>
      </trkpt>
      <trkpt lat="45.81919" lon="4.7357">
        <ele>325.98422</ele>
        <time>2023-07-19T15:33:54.000Z</time>
      </trkpt>
      <trkpt lat="45.81917" lon="4.73581">
        <ele>325.46091</ele>
        <time>2023-07-19T15:33:55.000Z</time>
      </trkpt>
      <trkpt lat="45.81914" lon="4.73595">
        <ele>324.91632</ele>
        <time>2023-07-19T15:33:56.000Z</time>
      </trkpt>
      <trkpt lat="45.81913" lon="4.73608">
        <ele>324.35086</ele>
        <time>2023-07-19T15:33:57.000Z</time>
      </trkpt>
      <trkpt lat="45.81911" lon="4.73622">
        <ele>323.8046</ele>
        <time>2023-07-19T15:33:58.000Z</time>
      </trkpt>
      <trkpt lat="45.8191" lon="4.73636">
        <ele>323.27896</ele>
        <time>2023-07-19T15:33:59.000Z</time>
      </trkpt>
      <trkpt lat="45.81908" lon="4.73647">
        <ele>322.66473</ele>
        <time>2023-07-19T15:34:00.000Z</time>
      </trkpt>
      <trkpt lat="45.81907" lon="4.7366">
        <ele>322.12433</ele>
        <time>2023-07-19T15:34:01.000Z</time>
      </trkpt>
      <trkpt lat="45.81904" lon="4.73666">
        <ele>321.52997</ele>
        <time>2023-07-19T15:34:02.000Z</time>
      </trkpt>
      <trkpt lat="45.81899" lon="4.73673">
        <ele>320.98975</ele>
        <time>2023-07-19T15:34:03.000Z</time>
      </trkpt>
      <trkpt lat="45.81895" lon="4.73679">
        <ele>320.51825</ele>
        <time>2023-07-19T15:34:04.000Z</time>
      </trkpt>
      <trkpt lat="45.8189" lon="4.73683">
        <ele>320.03156</ele>
        <time>2023-07-19T15:34:05.000Z</time>
      </trkpt>
      <trkpt lat="45.81886" lon="4.73685">
        <ele>319.57025</ele>
        <time>2023-07-19T15:34:06.000Z</time>
      </trkpt>
      <trkpt lat="45.81882" lon="4.73693">
        <ele>319.10541</ele>
        <time>2023-07-19T15:34:07.000Z</time>
      </trkpt>
      <trkpt lat="45.81878" lon="4.73697">
        <ele>318.68457</ele>
        <time>2023-07-19T15:34:08.000Z</time>
      </trkpt>
      <trkpt lat="45.81874" lon="4.73701">
        <ele>318.2594</ele>
        <time>2023-07-19T15:34:09.000Z</time>
      </trkpt>
      <trkpt lat="45.81872" lon="4.73704">
        <ele>317.80426</ele>
        <time>2023-07-19T15:34:10.000Z</time>
      </trkpt>
      <trkpt lat="45.8187" lon="4.73706">
        <ele>317.40643</ele>
        <time>2023-07-19T15:34:11.000Z</time>
      </trkpt>
      <trkpt lat="45.81871" lon="4.73704">
        <ele>317.09827</ele>
        <time>2023-07-19T15:34:19.000Z</time>
      </trkpt>
      <trkpt lat="45.81872" lon="4.73702">
        <ele>316.98514</ele>
        <time>2023-07-19T15:35:07.000Z</time>
      </trkpt>
      <trkpt lat="45.81875" lon="4.73698">
        <ele>317.01849</ele>
        <time>2023-07-19T15:35:09.000Z</time>
      </trkpt>
      <trkpt lat="45.81877" lon="4.73696">
        <ele>317.20355</ele>
        <time>2023-07-19T15:35:10.000Z</time>
      </trkpt>
      <trkpt lat="45.81879" lon="4.73695">
        <ele>317.40027</ele>
        <time>2023-07-19T15:35:11.000Z</time>
      </trkpt>
      <trkpt lat="45.81881" lon="4.73694">
        <ele>317.46619</ele>
        <time>2023-07-19T15:35:12.000Z</time>
      </trkpt>
      <trkpt lat="45.81883" lon="4.73693">
        <ele>317.54413</ele>
        <time>2023-07-19T15:35:13.000Z</time>
      </trkpt>
      <trkpt lat="45.81885" lon="4.73691">
        <ele>317.67596</ele>
        <time>2023-07-19T15:35:14.000Z</time>
      </trkpt>
      <trkpt lat="45.81887" lon="4.73689">
        <ele>317.89218</ele>
        <time>2023-07-19T15:35:15.000Z</time>
      </trkpt>
      <trkpt lat="45.8189" lon="4.73687">
        <ele>318.03452</ele>
        <time>2023-07-19T15:35:16.000Z</time>
      </trkpt>
      <trkpt lat="45.81892" lon="4.73685">
        <ele>318.17511</ele>
        <time>2023-07-19T15:35:17.000Z</time>
      </trkpt>
      <trkpt lat="45.81895" lon="4.73683">
        <ele>318.29895</ele>
        <time>2023-07-19T15:35:18.000Z</time>
      </trkpt>
      <trkpt lat="45.81897" lon="4.7368">
        <ele>318.37143</ele>
        <time>2023-07-19T15:35:19.000Z</time>
      </trkpt>
      <trkpt lat="45.819" lon="4.73677">
        <ele>318.42438</ele>
        <time>2023-07-19T15:35:20.000Z</time>
      </trkpt>
      <trkpt lat="45.81902" lon="4.73676">
        <ele>318.46686</ele>
        <time>2023-07-19T15:35:21.000Z</time>
      </trkpt>
      <trkpt lat="45.81904" lon="4.73675">
        <ele>318.53247</ele>
        <time>2023-07-19T15:35:23.000Z</time>
      </trkpt>
      <trkpt lat="45.81906" lon="4.73675">
        <ele>318.66861</ele>
        <time>2023-07-19T15:35:29.000Z</time>
      </trkpt>
      <trkpt lat="45.81907" lon="4.73673">
        <ele>318.68338</ele>
        <time>2023-07-19T15:35:37.000Z</time>
      </trkpt>
      <trkpt lat="45.81906" lon="4.7367">
        <ele>318.68475</ele>
        <time>2023-07-19T15:36:31.000Z</time>
      </trkpt>
      <trkpt lat="45.81904" lon="4.7367">
        <ele>318.78299</ele>
        <time>2023-07-19T15:36:39.000Z</time>
      </trkpt>
      <trkpt lat="45.81903" lon="4.73672">
        <ele>318.86191</ele>
        <time>2023-07-19T15:36:40.000Z</time>
      </trkpt>
      <trkpt lat="45.81901" lon="4.73675">
        <ele>318.8027</ele>
        <time>2023-07-19T15:36:41.000Z</time>
      </trkpt>
      <trkpt lat="45.81899" lon="4.73678">
        <ele>318.8472</ele>
        <time>2023-07-19T15:36:42.000Z</time>
      </trkpt>
      <trkpt lat="45.81897" lon="4.73681">
        <ele>318.82758</ele>
        <time>2023-07-19T15:36:43.000Z</time>
      </trkpt>
      <trkpt lat="45.81895" lon="4.73683">
        <ele>318.8602</ele>
        <time>2023-07-19T15:36:44.000Z</time>
      </trkpt>
      <trkpt lat="45.81891" lon="4.73686">
        <ele>319.05585</ele>
        <time>2023-07-19T15:36:45.000Z</time>
      </trkpt>
      <trkpt lat="45.81887" lon="4.73689">
        <ele>319.30487</ele>
        <time>2023-07-19T15:36:46.000Z</time>
      </trkpt>
      <trkpt lat="45.81885" lon="4.73691">
        <ele>319.3765</ele>
        <time>2023-07-19T15:36:47.000Z</time>
      </trkpt>
      <trkpt lat="45.81882" lon="4.73693">
        <ele>319.44281</ele>
        <time>2023-07-19T15:36:48.000Z</time>
      </trkpt>
      <trkpt lat="45.81878" lon="4.73697">
        <ele>319.53973</ele>
        <time>2023-07-19T15:36:49.000Z</time>
      </trkpt>
      <trkpt lat="45.81875" lon="4.737">
        <ele>319.64087</ele>
        <time>2023-07-19T15:36:50.000Z</time>
      </trkpt>
      <trkpt lat="45.81872" lon="4.73705">
        <ele>319.73557</ele>
        <time>2023-07-19T15:36:51.000Z</time>
      </trkpt>
      <trkpt lat="45.8187" lon="4.73709">
        <ele>319.91653</ele>
        <time>2023-07-19T15:36:52.000Z</time>
      </trkpt>
      <trkpt lat="45.81869" lon="4.73714">
        <ele>320.16019</ele>
        <time>2023-07-19T15:36:53.000Z</time>
      </trkpt>
      <trkpt lat="45.81869" lon="4.73719">
        <ele>320.43512</ele>
        <time>2023-07-19T15:36:54.000Z</time>
      </trkpt>
      <trkpt lat="45.81869" lon="4.73724">
        <ele>320.67474</ele>
        <time>2023-07-19T15:36:55.000Z</time>
      </trkpt>
      <trkpt lat="45.81869" lon="4.73729">
        <ele>320.82108</ele>
        <time>2023-07-19T15:36:56.000Z</time>
      </trkpt>
      <trkpt lat="45.81871" lon="4.73735">
        <ele>321.08777</ele>
        <time>2023-07-19T15:36:57.000Z</time>
      </trkpt>
      <trkpt lat="45.81872" lon="4.73741">
        <ele>321.39386</ele>
        <time>2023-07-19T15:36:58.000Z</time>
      </trkpt>
      <trkpt lat="45.81873" lon="4.73747">
        <ele>321.58148</ele>
        <time>2023-07-19T15:36:59.000Z</time>
      </trkpt>
      <trkpt lat="45.81874" lon="4.73753">
        <ele>321.68747</ele>
        <time>2023-07-19T15:37:00.000Z</time>
      </trkpt>
      <trkpt lat="45.81877" lon="4.73762">
        <ele>321.75394</ele>
        <time>2023-07-19T15:37:01.000Z</time>
      </trkpt>
      <trkpt lat="45.81878" lon="4.73766">
        <ele>321.78174</ele>
        <time>2023-07-19T15:37:02.000Z</time>
      </trkpt>
      <trkpt lat="45.8188" lon="4.73772">
        <ele>321.79218</ele>
        <time>2023-07-19T15:37:03.000Z</time>
      </trkpt>
      <trkpt lat="45.81882" lon="4.73779">
        <ele>321.76633</ele>
        <time>2023-07-19T15:37:04.000Z</time>
      </trkpt>
      <trkpt lat="45.81884" lon="4.73784">
        <ele>321.73483</ele>
        <time>2023-07-19T15:37:05.000Z</time>
      </trkpt>
      <trkpt lat="45.81884" lon="4.73789">
        <ele>321.61978</ele>
        <time>2023-07-19T15:37:06.000Z</time>
      </trkpt>
      <trkpt lat="45.81885" lon="4.73795">
        <ele>321.67581</ele>
        <time>2023-07-19T15:37:07.000Z</time>
      </trkpt>
      <trkpt lat="45.81885" lon="4.73798">
        <ele>321.76141</ele>
        <time>2023-07-19T15:37:08.000Z</time>
      </trkpt>
      <trkpt lat="45.81885" lon="4.73801">
        <ele>321.8588</ele>
        <time>2023-07-19T15:37:09.000Z</time>
      </trkpt>
      <trkpt lat="45.81882" lon="4.73803">
        <ele>321.99002</ele>
        <time>2023-07-19T15:37:10.000Z</time>
      </trkpt>
      <trkpt lat="45.81879" lon="4.73807">
        <ele>322.1474</ele>
        <time>2023-07-19T15:37:11.000Z</time>
      </trkpt>
      <trkpt lat="45.81877" lon="4.73808">
        <ele>322.27393</ele>
        <time>2023-07-19T15:37:12.000Z</time>
      </trkpt>
      <trkpt lat="45.81874" lon="4.73809">
        <ele>322.40836</ele>
        <time>2023-07-19T15:37:13.000Z</time>
      </trkpt>
      <trkpt lat="45.81871" lon="4.7381">
        <ele>322.51233</ele>
        <time>2023-07-19T15:37:14.000Z</time>
      </trkpt>
      <trkpt lat="45.81868" lon="4.73811">
        <ele>322.62729</ele>
        <time>2023-07-19T15:37:15.000Z</time>
      </trkpt>
      <trkpt lat="45.81865" lon="4.73812">
        <ele>322.75385</ele>
        <time>2023-07-19T15:37:16.000Z</time>
      </trkpt>
      <trkpt lat="45.81862" lon="4.73813">
        <ele>322.87308</ele>
        <time>2023-07-19T15:37:17.000Z</time>
      </trkpt>
      <trkpt lat="45.81858" lon="4.73814">
        <ele>323.00894</ele>
        <time>2023-07-19T15:37:18.000Z</time>
      </trkpt>
      <trkpt lat="45.81853" lon="4.73816">
        <ele>323.15979</ele>
        <time>2023-07-19T15:37:19.000Z</time>
      </trkpt>
      <trkpt lat="45.81849" lon="4.73818">
        <ele>323.28226</ele>
        <time>2023-07-19T15:37:20.000Z</time>
      </trkpt>
      <trkpt lat="45.81845" lon="4.73819">
        <ele>323.40521</ele>
        <time>2023-07-19T15:37:21.000Z</time>
      </trkpt>
      <trkpt lat="45.81841" lon="4.73821">
        <ele>323.4993</ele>
        <time>2023-07-19T15:37:22.000Z</time>
      </trkpt>
      <trkpt lat="45.81837" lon="4.73822">
        <ele>323.57224</ele>
        <time>2023-07-19T15:37:23.000Z</time>
      </trkpt>
      <trkpt lat="45.81833" lon="4.73823">
        <ele>323.63989</ele>
        <time>2023-07-19T15:37:24.000Z</time>
      </trkpt>
      <trkpt lat="45.81829" lon="4.73824">
        <ele>323.68939</ele>
        <time>2023-07-19T15:37:25.000Z</time>
      </trkpt>
      <trkpt lat="45.81826" lon="4.73825">
        <ele>323.73389</ele>
        <time>2023-07-19T15:37:26.000Z</time>
      </trkpt>
      <trkpt lat="45.81822" lon="4.73826">
        <ele>323.79321</ele>
        <time>2023-07-19T15:37:27.000Z</time>
      </trkpt>
      <trkpt lat="45.8182" lon="4.73828">
        <ele>323.83478</ele>
        <time>2023-07-19T15:37:28.000Z</time>
      </trkpt>
      <trkpt lat="45.81816" lon="4.73829">
        <ele>323.84283</ele>
        <time>2023-07-19T15:37:29.000Z</time>
      </trkpt>
      <trkpt lat="45.8181" lon="4.7383">
        <ele>323.84357</ele>
        <time>2023-07-19T15:37:30.000Z</time>
      </trkpt>
      <trkpt lat="45.81805" lon="4.73833">
        <ele>323.77371</ele>
        <time>2023-07-19T15:37:31.000Z</time>
      </trkpt>
      <trkpt lat="45.81799" lon="4.73835">
        <ele>323.68073</ele>
        <time>2023-07-19T15:37:32.000Z</time>
      </trkpt>
      <trkpt lat="45.81794" lon="4.73836">
        <ele>323.59164</ele>
        <time>2023-07-19T15:37:33.000Z</time>
      </trkpt>
      <trkpt lat="45.8179" lon="4.73838">
        <ele>323.48285</ele>
        <time>2023-07-19T15:37:34.000Z</time>
      </trkpt>
      <trkpt lat="45.81787" lon="4.73841">
        <ele>323.30325</ele>
        <time>2023-07-19T15:37:35.000Z</time>
      </trkpt>
      <trkpt lat="45.81782" lon="4.73842">
        <ele>323.09378</ele>
        <time>2023-07-19T15:37:36.000Z</time>
      </trkpt>
      <trkpt lat="45.81778" lon="4.73843">
        <ele>322.83826</ele>
        <time>2023-07-19T15:37:37.000Z</time>
      </trkpt>
      <trkpt lat="45.81774" lon="4.73844">
        <ele>322.62589</ele>
        <time>2023-07-19T15:37:38.000Z</time>
      </trkpt>
      <trkpt lat="45.81771" lon="4.7384">
        <ele>322.38663</ele>
        <time>2023-07-19T15:37:39.000Z</time>
      </trkpt>
      <trkpt lat="45.8177" lon="4.73834">
        <ele>322.31689</ele>
        <time>2023-07-19T15:37:40.000Z</time>
      </trkpt>
      <trkpt lat="45.81765" lon="4.73828">
        <ele>321.87442</ele>
        <time>2023-07-19T15:37:41.000Z</time>
      </trkpt>
      <trkpt lat="45.81758" lon="4.73821">
        <ele>321.4212</ele>
        <time>2023-07-19T15:37:42.000Z</time>
      </trkpt>
      <trkpt lat="45.81753" lon="4.7381">
        <ele>320.99033</ele>
        <time>2023-07-19T15:37:43.000Z</time>
      </trkpt>
      <trkpt lat="45.81749" lon="4.73799">
        <ele>320.50436</ele>
        <time>2023-07-19T15:37:44.000Z</time>
      </trkpt>
      <trkpt lat="45.81745" lon="4.73788">
        <ele>319.96939</ele>
        <time>2023-07-19T15:37:45.000Z</time>
      </trkpt>
      <trkpt lat="45.81741" lon="4.73773">
        <ele>319.42532</ele>
        <time>2023-07-19T15:37:46.000Z</time>
      </trkpt>
      <trkpt lat="45.81739" lon="4.73759">
        <ele>318.82254</ele>
        <time>2023-07-19T15:37:47.000Z</time>
      </trkpt>
      <trkpt lat="45.81736" lon="4.73744">
        <ele>318.13416</ele>
        <time>2023-07-19T15:37:48.000Z</time>
      </trkpt>
      <trkpt lat="45.81733" lon="4.73731">
        <ele>317.43268</ele>
        <time>2023-07-19T15:37:49.000Z</time>
      </trkpt>
      <trkpt lat="45.81734" lon="4.73716">
        <ele>316.69482</ele>
        <time>2023-07-19T15:37:50.000Z</time>
      </trkpt>
      <trkpt lat="45.81729" lon="4.73705">
        <ele>316.0033</ele>
        <time>2023-07-19T15:37:51.000Z</time>
      </trkpt>
      <trkpt lat="45.81725" lon="4.73692">
        <ele>315.30011</ele>
        <time>2023-07-19T15:37:52.000Z</time>
      </trkpt>
      <trkpt lat="45.8172" lon="4.73679">
        <ele>314.58572</ele>
        <time>2023-07-19T15:37:53.000Z</time>
      </trkpt>
      <trkpt lat="45.81714" lon="4.73669">
        <ele>313.87347</ele>
        <time>2023-07-19T15:37:54.000Z</time>
      </trkpt>
      <trkpt lat="45.81708" lon="4.7366">
        <ele>313.23843</ele>
        <time>2023-07-19T15:37:55.000Z</time>
      </trkpt>
      <trkpt lat="45.81703" lon="4.73651">
        <ele>312.60971</ele>
        <time>2023-07-19T15:37:56.000Z</time>
      </trkpt>
      <trkpt lat="45.81697" lon="4.73644">
        <ele>312.04788</ele>
        <time>2023-07-19T15:37:57.000Z</time>
      </trkpt>
      <trkpt lat="45.81693" lon="4.73638">
        <ele>311.40738</ele>
        <time>2023-07-19T15:37:58.000Z</time>
      </trkpt>
      <trkpt lat="45.81688" lon="4.73635">
        <ele>310.76776</ele>
        <time>2023-07-19T15:37:59.000Z</time>
      </trkpt>
      <trkpt lat="45.81684" lon="4.73631">
        <ele>310.00977</ele>
        <time>2023-07-19T15:38:00.000Z</time>
      </trkpt>
      <trkpt lat="45.8168" lon="4.73627">
        <ele>309.65866</ele>
        <time>2023-07-19T15:38:01.000Z</time>
      </trkpt>
      <trkpt lat="45.81676" lon="4.73623">
        <ele>309.30417</ele>
        <time>2023-07-19T15:38:02.000Z</time>
      </trkpt>
      <trkpt lat="45.81672" lon="4.73619">
        <ele>309.00125</ele>
        <time>2023-07-19T15:38:03.000Z</time>
      </trkpt>
      <trkpt lat="45.81669" lon="4.73616">
        <ele>308.7915</ele>
        <time>2023-07-19T15:38:04.000Z</time>
      </trkpt>
      <trkpt lat="45.81667" lon="4.73613">
        <ele>308.71173</ele>
        <time>2023-07-19T15:38:05.000Z</time>
      </trkpt>
      <trkpt lat="45.81665" lon="4.7361">
        <ele>308.65228</ele>
        <time>2023-07-19T15:38:06.000Z</time>
      </trkpt>
      <trkpt lat="45.81662" lon="4.73606">
        <ele>308.65753</ele>
        <time>2023-07-19T15:38:07.000Z</time>
      </trkpt>
      <trkpt lat="45.81659" lon="4.73602">
        <ele>308.79449</ele>
        <time>2023-07-19T15:38:08.000Z</time>
      </trkpt>
      <trkpt lat="45.81656" lon="4.73599">
        <ele>309.01398</ele>
        <time>2023-07-19T15:38:09.000Z</time>
      </trkpt>
      <trkpt lat="45.81651" lon="4.73594">
        <ele>309.23288</ele>
        <time>2023-07-19T15:38:10.000Z</time>
      </trkpt>
      <trkpt lat="45.8165" lon="4.7359">
        <ele>309.46088</ele>
        <time>2023-07-19T15:38:11.000Z</time>
      </trkpt>
      <trkpt lat="45.81647" lon="4.73588">
        <ele>309.74344</ele>
        <time>2023-07-19T15:38:12.000Z</time>
      </trkpt>
      <trkpt lat="45.81644" lon="4.73584">
        <ele>310.01654</ele>
        <time>2023-07-19T15:38:13.000Z</time>
      </trkpt>
      <trkpt lat="45.8164" lon="4.7358">
        <ele>310.31711</ele>
        <time>2023-07-19T15:38:14.000Z</time>
      </trkpt>
      <trkpt lat="45.81637" lon="4.7358">
        <ele>310.64194</ele>
        <time>2023-07-19T15:38:15.000Z</time>
      </trkpt>
      <trkpt lat="45.81634" lon="4.73577">
        <ele>310.97858</ele>
        <time>2023-07-19T15:38:16.000Z</time>
      </trkpt>
      <trkpt lat="45.8163" lon="4.73573">
        <ele>311.33368</ele>
        <time>2023-07-19T15:38:17.000Z</time>
      </trkpt>
      <trkpt lat="45.81627" lon="4.7357">
        <ele>311.74536</ele>
        <time>2023-07-19T15:38:18.000Z</time>
      </trkpt>
      <trkpt lat="45.81624" lon="4.73566">
        <ele>312.18515</ele>
        <time>2023-07-19T15:38:19.000Z</time>
      </trkpt>
      <trkpt lat="45.81622" lon="4.73562">
        <ele>312.61588</ele>
        <time>2023-07-19T15:38:20.000Z</time>
      </trkpt>
      <trkpt lat="45.81619" lon="4.73558">
        <ele>313.01376</ele>
        <time>2023-07-19T15:38:21.000Z</time>
      </trkpt>
      <trkpt lat="45.81616" lon="4.73554">
        <ele>313.44672</ele>
        <time>2023-07-19T15:38:22.000Z</time>
      </trkpt>
      <trkpt lat="45.81613" lon="4.73551">
        <ele>313.90701</ele>
        <time>2023-07-19T15:38:23.000Z</time>
      </trkpt>
      <trkpt lat="45.81609" lon="4.73548">
        <ele>314.36017</ele>
        <time>2023-07-19T15:38:24.000Z</time>
      </trkpt>
      <trkpt lat="45.81606" lon="4.73544">
        <ele>314.73105</ele>
        <time>2023-07-19T15:38:25.000Z</time>
      </trkpt>
      <trkpt lat="45.81603" lon="4.73541">
        <ele>315.09784</ele>
        <time>2023-07-19T15:38:26.000Z</time>
      </trkpt>
      <trkpt lat="45.816" lon="4.73537">
        <ele>315.39066</ele>
        <time>2023-07-19T15:38:27.000Z</time>
      </trkpt>
      <trkpt lat="45.81598" lon="4.73534">
        <ele>315.61795</ele>
        <time>2023-07-19T15:38:28.000Z</time>
      </trkpt>
      <trkpt lat="45.81595" lon="4.7353">
        <ele>315.8118</ele>
        <time>2023-07-19T15:38:29.000Z</time>
      </trkpt>
      <trkpt lat="45.81592" lon="4.73527">
        <ele>316.04889</ele>
        <time>2023-07-19T15:38:30.000Z</time>
      </trkpt>
      <trkpt lat="45.81589" lon="4.73523">
        <ele>316.28107</ele>
        <time>2023-07-19T15:38:31.000Z</time>
      </trkpt>
      <trkpt lat="45.81586" lon="4.73519">
        <ele>316.51877</ele>
        <time>2023-07-19T15:38:32.000Z</time>
      </trkpt>
      <trkpt lat="45.81584" lon="4.73515">
        <ele>316.77658</ele>
        <time>2023-07-19T15:38:33.000Z</time>
      </trkpt>
      <trkpt lat="45.81581" lon="4.73511">
        <ele>317.02148</ele>
        <time>2023-07-19T15:38:34.000Z</time>
      </trkpt>
      <trkpt lat="45.81578" lon="4.73507">
        <ele>317.24936</ele>
        <time>2023-07-19T15:38:35.000Z</time>
      </trkpt>
      <trkpt lat="45.81576" lon="4.73504">
        <ele>317.47968</ele>
        <time>2023-07-19T15:38:36.000Z</time>
      </trkpt>
      <trkpt lat="45.81573" lon="4.73501">
        <ele>317.68555</ele>
        <time>2023-07-19T15:38:37.000Z</time>
      </trkpt>
      <trkpt lat="45.81571" lon="4.73499">
        <ele>317.86398</ele>
        <time>2023-07-19T15:38:38.000Z</time>
      </trkpt>
      <trkpt lat="45.81569" lon="4.73496">
        <ele>318.02011</ele>
        <time>2023-07-19T15:38:39.000Z</time>
      </trkpt>
      <trkpt lat="45.81568" lon="4.73493">
        <ele>318.20856</ele>
        <time>2023-07-19T15:38:40.000Z</time>
      </trkpt>
      <trkpt lat="45.81567" lon="4.7349">
        <ele>318.39691</ele>
        <time>2023-07-19T15:38:41.000Z</time>
      </trkpt>
      <trkpt lat="45.81566" lon="4.73487">
        <ele>318.56552</ele>
        <time>2023-07-19T15:38:42.000Z</time>
      </trkpt>
      <trkpt lat="45.81566" lon="4.73484">
        <ele>318.68524</ele>
        <time>2023-07-19T15:38:43.000Z</time>
      </trkpt>
      <trkpt lat="45.81563" lon="4.73485">
        <ele>318.78851</ele>
        <time>2023-07-19T15:38:45.000Z</time>
      </trkpt>
      <trkpt lat="45.81562" lon="4.73489">
        <ele>318.91916</ele>
        <time>2023-07-19T15:38:46.000Z</time>
      </trkpt>
      <trkpt lat="45.81563" lon="4.73494">
        <ele>319.0733</ele>
        <time>2023-07-19T15:38:47.000Z</time>
      </trkpt>
      <trkpt lat="45.81564" lon="4.73498">
        <ele>319.28003</ele>
        <time>2023-07-19T15:38:48.000Z</time>
      </trkpt>
      <trkpt lat="45.81564" lon="4.73502">
        <ele>319.43701</ele>
        <time>2023-07-19T15:38:49.000Z</time>
      </trkpt>
      <trkpt lat="45.81564" lon="4.73504">
        <ele>319.57477</ele>
        <time>2023-07-19T15:38:50.000Z</time>
      </trkpt>
      <trkpt lat="45.81563" lon="4.7351">
        <ele>319.67368</ele>
        <time>2023-07-19T15:38:52.000Z</time>
      </trkpt>
      <trkpt lat="45.81562" lon="4.73516">
        <ele>319.7569</ele>
        <time>2023-07-19T15:38:53.000Z</time>
      </trkpt>
      <trkpt lat="45.81561" lon="4.73521">
        <ele>319.81653</ele>
        <time>2023-07-19T15:38:54.000Z</time>
      </trkpt>
      <trkpt lat="45.81559" lon="4.73526">
        <ele>319.83795</ele>
        <time>2023-07-19T15:38:55.000Z</time>
      </trkpt>
      <trkpt lat="45.81558" lon="4.73532">
        <ele>319.84293</ele>
        <time>2023-07-19T15:38:56.000Z</time>
      </trkpt>
      <trkpt lat="45.81556" lon="4.73537">
        <ele>319.83432</ele>
        <time>2023-07-19T15:38:57.000Z</time>
      </trkpt>
      <trkpt lat="45.81555" lon="4.73542">
        <ele>319.80646</ele>
        <time>2023-07-19T15:38:58.000Z</time>
      </trkpt>
      <trkpt lat="45.81554" lon="4.73547">
        <ele>319.77783</ele>
        <time>2023-07-19T15:38:59.000Z</time>
      </trkpt>
      <trkpt lat="45.81552" lon="4.73553">
        <ele>319.72308</ele>
        <time>2023-07-19T15:39:00.000Z</time>
      </trkpt>
      <trkpt lat="45.81551" lon="4.73558">
        <ele>319.64465</ele>
        <time>2023-07-19T15:39:01.000Z</time>
      </trkpt>
      <trkpt lat="45.8155" lon="4.73563">
        <ele>319.49835</ele>
        <time>2023-07-19T15:39:02.000Z</time>
      </trkpt>
      <trkpt lat="45.81547" lon="4.73572">
        <ele>319.33817</ele>
        <time>2023-07-19T15:39:03.000Z</time>
      </trkpt>
      <trkpt lat="45.81547" lon="4.73577">
        <ele>319.15778</ele>
        <time>2023-07-19T15:39:04.000Z</time>
      </trkpt>
      <trkpt lat="45.81547" lon="4.73584">
        <ele>318.98471</ele>
        <time>2023-07-19T15:39:05.000Z</time>
      </trkpt>
      <trkpt lat="45.81544" lon="4.73591">
        <ele>318.78284</ele>
        <time>2023-07-19T15:39:06.000Z</time>
      </trkpt>
      <trkpt lat="45.81542" lon="4.73598">
        <ele>318.60431</ele>
        <time>2023-07-19T15:39:07.000Z</time>
      </trkpt>
      <trkpt lat="45.8154" lon="4.73604">
        <ele>318.43854</ele>
        <time>2023-07-19T15:39:08.000Z</time>
      </trkpt>
      <trkpt lat="45.81537" lon="4.7361">
        <ele>318.20575</ele>
        <time>2023-07-19T15:39:09.000Z</time>
      </trkpt>
      <trkpt lat="45.81535" lon="4.73618">
        <ele>318.02707</ele>
        <time>2023-07-19T15:39:10.000Z</time>
      </trkpt>
      <trkpt lat="45.81532" lon="4.73626">
        <ele>317.84991</ele>
        <time>2023-07-19T15:39:11.000Z</time>
      </trkpt>
      <trkpt lat="45.81529" lon="4.73633">
        <ele>317.66852</ele>
        <time>2023-07-19T15:39:12.000Z</time>
      </trkpt>
      <trkpt lat="45.81527" lon="4.7364">
        <ele>317.47012</ele>
        <time>2023-07-19T15:39:13.000Z</time>
      </trkpt>
      <trkpt lat="45.81525" lon="4.73647">
        <ele>317.19098</ele>
        <time>2023-07-19T15:39:14.000Z</time>
      </trkpt>
      <trkpt lat="45.8152" lon="4.73655">
        <ele>316.85522</ele>
        <time>2023-07-19T15:39:15.000Z</time>
      </trkpt>
      <trkpt lat="45.81518" lon="4.73663">
        <ele>316.51559</ele>
        <time>2023-07-19T15:39:16.000Z</time>
      </trkpt>
      <trkpt lat="45.81515" lon="4.73673">
        <ele>316.22821</ele>
        <time>2023-07-19T15:39:17.000Z</time>
      </trkpt>
      <trkpt lat="45.81514" lon="4.73682">
        <ele>315.83954</ele>
        <time>2023-07-19T15:39:18.000Z</time>
      </trkpt>
      <trkpt lat="45.8151" lon="4.73692">
        <ele>315.38681</ele>
        <time>2023-07-19T15:39:19.000Z</time>
      </trkpt>
      <trkpt lat="45.81508" lon="4.73703">
        <ele>314.92838</ele>
        <time>2023-07-19T15:39:20.000Z</time>
      </trkpt>
      <trkpt lat="45.81507" lon="4.73712">
        <ele>314.48355</ele>
        <time>2023-07-19T15:39:21.000Z</time>
      </trkpt>
      <trkpt lat="45.81503" lon="4.73724">
        <ele>314.06903</ele>
        <time>2023-07-19T15:39:22.000Z</time>
      </trkpt>
      <trkpt lat="45.81499" lon="4.73734">
        <ele>313.64566</ele>
        <time>2023-07-19T15:39:23.000Z</time>
      </trkpt>
      <trkpt lat="45.81495" lon="4.73746">
        <ele>313.20926</ele>
        <time>2023-07-19T15:39:24.000Z</time>
      </trkpt>
      <trkpt lat="45.8149" lon="4.73757">
        <ele>312.94757</ele>
        <time>2023-07-19T15:39:25.000Z</time>
      </trkpt>
      <trkpt lat="45.81487" lon="4.73765">
        <ele>312.74774</ele>
        <time>2023-07-19T15:39:26.000Z</time>
      </trkpt>
      <trkpt lat="45.81483" lon="4.73773">
        <ele>312.53036</ele>
        <time>2023-07-19T15:39:27.000Z</time>
      </trkpt>
      <trkpt lat="45.81484" lon="4.73781">
        <ele>312.31738</ele>
        <time>2023-07-19T15:39:28.000Z</time>
      </trkpt>
      <trkpt lat="45.81482" lon="4.73789">
        <ele>312.16824</ele>
        <time>2023-07-19T15:39:29.000Z</time>
      </trkpt>
      <trkpt lat="45.81482" lon="4.73796">
        <ele>312.05368</ele>
        <time>2023-07-19T15:39:30.000Z</time>
      </trkpt>
      <trkpt lat="45.81482" lon="4.73802">
        <ele>311.81644</ele>
        <time>2023-07-19T15:39:31.000Z</time>
      </trkpt>
      <trkpt lat="45.81484" lon="4.73809">
        <ele>311.62405</ele>
        <time>2023-07-19T15:39:32.000Z</time>
      </trkpt>
      <trkpt lat="45.81484" lon="4.73815">
        <ele>311.45856</ele>
        <time>2023-07-19T15:39:33.000Z</time>
      </trkpt>
      <trkpt lat="45.81486" lon="4.73821">
        <ele>311.33893</ele>
        <time>2023-07-19T15:39:34.000Z</time>
      </trkpt>
      <trkpt lat="45.81487" lon="4.73828">
        <ele>311.29346</ele>
        <time>2023-07-19T15:39:35.000Z</time>
      </trkpt>
      <trkpt lat="45.81489" lon="4.73836">
        <ele>311.1922</ele>
        <time>2023-07-19T15:39:36.000Z</time>
      </trkpt>
      <trkpt lat="45.81491" lon="4.73843">
        <ele>311.10944</ele>
        <time>2023-07-19T15:39:37.000Z</time>
      </trkpt>
      <trkpt lat="45.8149" lon="4.73848">
        <ele>311.17593</ele>
        <time>2023-07-19T15:39:38.000Z</time>
      </trkpt>
      <trkpt lat="45.81489" lon="4.73856">
        <ele>311.21771</ele>
        <time>2023-07-19T15:39:39.000Z</time>
      </trkpt>
      <trkpt lat="45.8149" lon="4.73862">
        <ele>311.30853</ele>
        <time>2023-07-19T15:39:40.000Z</time>
      </trkpt>
      <trkpt lat="45.8149" lon="4.73868">
        <ele>311.43466</ele>
        <time>2023-07-19T15:39:41.000Z</time>
      </trkpt>
      <trkpt lat="45.8149" lon="4.73877">
        <ele>311.57083</ele>
        <time>2023-07-19T15:39:42.000Z</time>
      </trkpt>
      <trkpt lat="45.81491" lon="4.73883">
        <ele>311.69922</ele>
        <time>2023-07-19T15:39:43.000Z</time>
      </trkpt>
      <trkpt lat="45.81489" lon="4.73887">
        <ele>311.84445</ele>
        <time>2023-07-19T15:39:44.000Z</time>
      </trkpt>
      <trkpt lat="45.81487" lon="4.73893">
        <ele>311.82953</ele>
        <time>2023-07-19T15:39:45.000Z</time>
      </trkpt>
      <trkpt lat="45.81488" lon="4.739">
        <ele>311.77155</ele>
        <time>2023-07-19T15:39:46.000Z</time>
      </trkpt>
      <trkpt lat="45.81488" lon="4.73907">
        <ele>311.6897</ele>
        <time>2023-07-19T15:39:47.000Z</time>
      </trkpt>
      <trkpt lat="45.81488" lon="4.73913">
        <ele>311.69421</ele>
        <time>2023-07-19T15:39:48.000Z</time>
      </trkpt>
      <trkpt lat="45.81486" lon="4.73922">
        <ele>311.45206</ele>
        <time>2023-07-19T15:39:49.000Z</time>
      </trkpt>
      <trkpt lat="45.81486" lon="4.7393">
        <ele>311.19971</ele>
        <time>2023-07-19T15:39:50.000Z</time>
      </trkpt>
      <trkpt lat="45.81484" lon="4.73941">
        <ele>311.0582</ele>
        <time>2023-07-19T15:39:51.000Z</time>
      </trkpt>
      <trkpt lat="45.81482" lon="4.73949">
        <ele>310.90326</ele>
        <time>2023-07-19T15:39:52.000Z</time>
      </trkpt>
      <trkpt lat="45.81479" lon="4.73957">
        <ele>310.74759</ele>
        <time>2023-07-19T15:39:53.000Z</time>
      </trkpt>
      <trkpt lat="45.81481" lon="4.73965">
        <ele>310.59476</ele>
        <time>2023-07-19T15:39:54.000Z</time>
      </trkpt>
      <trkpt lat="45.81478" lon="4.73971">
        <ele>310.47717</ele>
        <time>2023-07-19T15:39:55.000Z</time>
      </trkpt>
      <trkpt lat="45.81476" lon="4.73979">
        <ele>310.40042</ele>
        <time>2023-07-19T15:39:56.000Z</time>
      </trkpt>
      <trkpt lat="45.81472" lon="4.73984">
        <ele>310.24789</ele>
        <time>2023-07-19T15:39:57.000Z</time>
      </trkpt>
      <trkpt lat="45.81469" lon="4.73989">
        <ele>310.02011</ele>
        <time>2023-07-19T15:39:58.000Z</time>
      </trkpt>
      <trkpt lat="45.81463" lon="4.73994">
        <ele>309.88016</ele>
        <time>2023-07-19T15:39:59.000Z</time>
      </trkpt>
      <trkpt lat="45.81461" lon="4.73997">
        <ele>309.70313</ele>
        <time>2023-07-19T15:40:00.000Z</time>
      </trkpt>
      <trkpt lat="45.81455" lon="4.74002">
        <ele>309.43903</ele>
        <time>2023-07-19T15:40:01.000Z</time>
      </trkpt>
      <trkpt lat="45.81453" lon="4.74008">
        <ele>309.40454</ele>
        <time>2023-07-19T15:40:02.000Z</time>
      </trkpt>
      <trkpt lat="45.8145" lon="4.74012">
        <ele>309.28751</ele>
        <time>2023-07-19T15:40:03.000Z</time>
      </trkpt>
      <trkpt lat="45.81449" lon="4.74015">
        <ele>309.17029</ele>
        <time>2023-07-19T15:40:04.000Z</time>
      </trkpt>
      <trkpt lat="45.81445" lon="4.74017">
        <ele>309.01025</ele>
        <time>2023-07-19T15:40:05.000Z</time>
      </trkpt>
      <trkpt lat="45.81442" lon="4.74019">
        <ele>308.90842</ele>
        <time>2023-07-19T15:40:06.000Z</time>
      </trkpt>
      <trkpt lat="45.81439" lon="4.74019">
        <ele>308.80661</ele>
        <time>2023-07-19T15:40:07.000Z</time>
      </trkpt>
      <trkpt lat="45.81436" lon="4.74013">
        <ele>308.64474</ele>
        <time>2023-07-19T15:40:09.000Z</time>
      </trkpt>
      <trkpt lat="45.81434" lon="4.7401">
        <ele>308.70975</ele>
        <time>2023-07-19T15:40:10.000Z</time>
      </trkpt>
      <trkpt lat="45.81431" lon="4.74006">
        <ele>308.65839</ele>
        <time>2023-07-19T15:40:11.000Z</time>
      </trkpt>
      <trkpt lat="45.81429" lon="4.74001">
        <ele>308.59802</ele>
        <time>2023-07-19T15:40:12.000Z</time>
      </trkpt>
      <trkpt lat="45.81426" lon="4.73995">
        <ele>308.53558</ele>
        <time>2023-07-19T15:40:13.000Z</time>
      </trkpt>
      <trkpt lat="45.81424" lon="4.7399">
        <ele>308.46237</ele>
        <time>2023-07-19T15:40:14.000Z</time>
      </trkpt>
      <trkpt lat="45.81422" lon="4.73985">
        <ele>308.48575</ele>
        <time>2023-07-19T15:40:15.000Z</time>
      </trkpt>
      <trkpt lat="45.8142" lon="4.73979">
        <ele>308.53818</ele>
        <time>2023-07-19T15:40:16.000Z</time>
      </trkpt>
      <trkpt lat="45.81419" lon="4.73974">
        <ele>308.67346</ele>
        <time>2023-07-19T15:40:17.000Z</time>
      </trkpt>
      <trkpt lat="45.81418" lon="4.73967">
        <ele>308.83102</ele>
        <time>2023-07-19T15:40:18.000Z</time>
      </trkpt>
      <trkpt lat="45.81415" lon="4.73962">
        <ele>309.03345</ele>
        <time>2023-07-19T15:40:19.000Z</time>
      </trkpt>
      <trkpt lat="45.81412" lon="4.73956">
        <ele>309.25067</ele>
        <time>2023-07-19T15:40:20.000Z</time>
      </trkpt>
      <trkpt lat="45.81409" lon="4.7395">
        <ele>309.50116</ele>
        <time>2023-07-19T15:40:21.000Z</time>
      </trkpt>
      <trkpt lat="45.81404" lon="4.73947">
        <ele>310.01074</ele>
        <time>2023-07-19T15:40:22.000Z</time>
      </trkpt>
      <trkpt lat="45.81401" lon="4.73942">
        <ele>310.23459</ele>
        <time>2023-07-19T15:40:23.000Z</time>
      </trkpt>
      <trkpt lat="45.81396" lon="4.73938">
        <ele>310.56342</ele>
        <time>2023-07-19T15:40:24.000Z</time>
      </trkpt>
      <trkpt lat="45.81393" lon="4.73932">
        <ele>310.92719</ele>
        <time>2023-07-19T15:40:25.000Z</time>
      </trkpt>
      <trkpt lat="45.8139" lon="4.73927">
        <ele>311.35001</ele>
        <time>2023-07-19T15:40:26.000Z</time>
      </trkpt>
      <trkpt lat="45.81386" lon="4.7392">
        <ele>311.76456</ele>
        <time>2023-07-19T15:40:27.000Z</time>
      </trkpt>
      <trkpt lat="45.81383" lon="4.73915">
        <ele>312.29333</ele>
        <time>2023-07-19T15:40:28.000Z</time>
      </trkpt>
      <trkpt lat="45.81379" lon="4.73909">
        <ele>312.81342</ele>
        <time>2023-07-19T15:40:29.000Z</time>
      </trkpt>
      <trkpt lat="45.81376" lon="4.73903">
        <ele>313.33884</ele>
        <time>2023-07-19T15:40:30.000Z</time>
      </trkpt>
      <trkpt lat="45.81373" lon="4.73897">
        <ele>313.98895</ele>
        <time>2023-07-19T15:40:31.000Z</time>
      </trkpt>
      <trkpt lat="45.8137" lon="4.73892">
        <ele>314.7543</ele>
        <time>2023-07-19T15:40:32.000Z</time>
      </trkpt>
      <trkpt lat="45.81366" lon="4.73885">
        <ele>315.40497</ele>
        <time>2023-07-19T15:40:33.000Z</time>
      </trkpt>
      <trkpt lat="45.81364" lon="4.73878">
        <ele>316.10291</ele>
        <time>2023-07-19T15:40:34.000Z</time>
      </trkpt>
      <trkpt lat="45.8136" lon="4.73875">
        <ele>316.76398</ele>
        <time>2023-07-19T15:40:35.000Z</time>
      </trkpt>
      <trkpt lat="45.81355" lon="4.73868">
        <ele>317.35931</ele>
        <time>2023-07-19T15:40:36.000Z</time>
      </trkpt>
      <trkpt lat="45.81352" lon="4.73861">
        <ele>317.87717</ele>
        <time>2023-07-19T15:40:37.000Z</time>
      </trkpt>
      <trkpt lat="45.81349" lon="4.73857">
        <ele>318.37979</ele>
        <time>2023-07-19T15:40:38.000Z</time>
      </trkpt>
      <trkpt lat="45.81347" lon="4.73853">
        <ele>318.86572</ele>
        <time>2023-07-19T15:40:39.000Z</time>
      </trkpt>
      <trkpt lat="45.81343" lon="4.73846">
        <ele>319.36517</ele>
        <time>2023-07-19T15:40:40.000Z</time>
      </trkpt>
      <trkpt lat="45.81338" lon="4.73839">
        <ele>319.84842</ele>
        <time>2023-07-19T15:40:41.000Z</time>
      </trkpt>
      <trkpt lat="45.81333" lon="4.73834">
        <ele>320.18893</ele>
        <time>2023-07-19T15:40:42.000Z</time>
      </trkpt>
      <trkpt lat="45.81329" lon="4.73829">
        <ele>320.60428</ele>
        <time>2023-07-19T15:40:43.000Z</time>
      </trkpt>
      <trkpt lat="45.81325" lon="4.73824">
        <ele>321.05072</ele>
        <time>2023-07-19T15:40:44.000Z</time>
      </trkpt>
      <trkpt lat="45.81321" lon="4.73818">
        <ele>321.53766</ele>
        <time>2023-07-19T15:40:45.000Z</time>
      </trkpt>
      <trkpt lat="45.81317" lon="4.73813">
        <ele>322.00952</ele>
        <time>2023-07-19T15:40:46.000Z</time>
      </trkpt>
      <trkpt lat="45.81313" lon="4.73805">
        <ele>322.44257</ele>
        <time>2023-07-19T15:40:47.000Z</time>
      </trkpt>
      <trkpt lat="45.8131" lon="4.73803">
        <ele>322.63788</ele>
        <time>2023-07-19T15:40:48.000Z</time>
      </trkpt>
      <trkpt lat="45.81307" lon="4.73799">
        <ele>322.79547</ele>
        <time>2023-07-19T15:40:49.000Z</time>
      </trkpt>
      <trkpt lat="45.81303" lon="4.73793">
        <ele>322.94666</ele>
        <time>2023-07-19T15:40:50.000Z</time>
      </trkpt>
      <trkpt lat="45.81299" lon="4.73788">
        <ele>323.0477</ele>
        <time>2023-07-19T15:40:51.000Z</time>
      </trkpt>
      <trkpt lat="45.81294" lon="4.73782">
        <ele>323.08319</ele>
        <time>2023-07-19T15:40:52.000Z</time>
      </trkpt>
      <trkpt lat="45.81291" lon="4.73777">
        <ele>323.23257</ele>
        <time>2023-07-19T15:40:53.000Z</time>
      </trkpt>
      <trkpt lat="45.81287" lon="4.73773">
        <ele>323.34311</ele>
        <time>2023-07-19T15:40:54.000Z</time>
      </trkpt>
      <trkpt lat="45.81282" lon="4.73769">
        <ele>323.41934</ele>
        <time>2023-07-19T15:40:55.000Z</time>
      </trkpt>
      <trkpt lat="45.81277" lon="4.73763">
        <ele>323.49689</ele>
        <time>2023-07-19T15:40:56.000Z</time>
      </trkpt>
      <trkpt lat="45.81273" lon="4.73758">
        <ele>323.61346</ele>
        <time>2023-07-19T15:40:57.000Z</time>
      </trkpt>
      <trkpt lat="45.8127" lon="4.73753">
        <ele>323.71198</ele>
        <time>2023-07-19T15:40:58.000Z</time>
      </trkpt>
      <trkpt lat="45.81266" lon="4.73748">
        <ele>323.81143</ele>
        <time>2023-07-19T15:40:59.000Z</time>
      </trkpt>
      <trkpt lat="45.81263" lon="4.73744">
        <ele>323.92801</ele>
        <time>2023-07-19T15:41:00.000Z</time>
      </trkpt>
      <trkpt lat="45.81258" lon="4.73739">
        <ele>324.04764</ele>
        <time>2023-07-19T15:41:01.000Z</time>
      </trkpt>
      <trkpt lat="45.81254" lon="4.73734">
        <ele>324.17285</ele>
        <time>2023-07-19T15:41:02.000Z</time>
      </trkpt>
      <trkpt lat="45.81251" lon="4.7373">
        <ele>324.15146</ele>
        <time>2023-07-19T15:41:03.000Z</time>
      </trkpt>
      <trkpt lat="45.81246" lon="4.73725">
        <ele>324.11469</ele>
        <time>2023-07-19T15:41:04.000Z</time>
      </trkpt>
      <trkpt lat="45.81242" lon="4.7372">
        <ele>324.01498</ele>
        <time>2023-07-19T15:41:05.000Z</time>
      </trkpt>
      <trkpt lat="45.81238" lon="4.73716">
        <ele>323.91263</ele>
        <time>2023-07-19T15:41:06.000Z</time>
      </trkpt>
      <trkpt lat="45.81234" lon="4.73714">
        <ele>323.83868</ele>
        <time>2023-07-19T15:41:07.000Z</time>
      </trkpt>
      <trkpt lat="45.81229" lon="4.73711">
        <ele>323.9173</ele>
        <time>2023-07-19T15:41:08.000Z</time>
      </trkpt>
      <trkpt lat="45.81224" lon="4.73709">
        <ele>323.98135</ele>
        <time>2023-07-19T15:41:09.000Z</time>
      </trkpt>
      <trkpt lat="45.81219" lon="4.73708">
        <ele>324.05005</ele>
        <time>2023-07-19T15:41:10.000Z</time>
      </trkpt>
      <trkpt lat="45.81214" lon="4.73708">
        <ele>324.14395</ele>
        <time>2023-07-19T15:41:11.000Z</time>
      </trkpt>
      <trkpt lat="45.8121" lon="4.73707">
        <ele>324.23505</ele>
        <time>2023-07-19T15:41:12.000Z</time>
      </trkpt>
      <trkpt lat="45.81206" lon="4.73707">
        <ele>324.3605</ele>
        <time>2023-07-19T15:41:13.000Z</time>
      </trkpt>
      <trkpt lat="45.81201" lon="4.73705">
        <ele>324.51453</ele>
        <time>2023-07-19T15:41:14.000Z</time>
      </trkpt>
      <trkpt lat="45.81196" lon="4.73703">
        <ele>324.67355</ele>
        <time>2023-07-19T15:41:15.000Z</time>
      </trkpt>
      <trkpt lat="45.81191" lon="4.73702">
        <ele>324.85797</ele>
        <time>2023-07-19T15:41:16.000Z</time>
      </trkpt>
      <trkpt lat="45.81185" lon="4.73701">
        <ele>325.0202</ele>
        <time>2023-07-19T15:41:17.000Z</time>
      </trkpt>
      <trkpt lat="45.8118" lon="4.73699">
        <ele>325.15546</ele>
        <time>2023-07-19T15:41:18.000Z</time>
      </trkpt>
      <trkpt lat="45.81174" lon="4.73698">
        <ele>325.30704</ele>
        <time>2023-07-19T15:41:19.000Z</time>
      </trkpt>
      <trkpt lat="45.81169" lon="4.73697">
        <ele>325.43933</ele>
        <time>2023-07-19T15:41:20.000Z</time>
      </trkpt>
      <trkpt lat="45.81163" lon="4.73696">
        <ele>325.57227</ele>
        <time>2023-07-19T15:41:21.000Z</time>
      </trkpt>
      <trkpt lat="45.81158" lon="4.73694">
        <ele>325.64886</ele>
        <time>2023-07-19T15:41:22.000Z</time>
      </trkpt>
      <trkpt lat="45.81153" lon="4.73693">
        <ele>325.85266</ele>
        <time>2023-07-19T15:41:23.000Z</time>
      </trkpt>
      <trkpt lat="45.81148" lon="4.73693">
        <ele>326.05634</ele>
        <time>2023-07-19T15:41:24.000Z</time>
      </trkpt>
      <trkpt lat="45.81144" lon="4.73692">
        <ele>326.24356</ele>
        <time>2023-07-19T15:41:25.000Z</time>
      </trkpt>
      <trkpt lat="45.81141" lon="4.73691">
        <ele>326.40875</ele>
        <time>2023-07-19T15:41:26.000Z</time>
      </trkpt>
      <trkpt lat="45.81137" lon="4.73689">
        <ele>326.56366</ele>
        <time>2023-07-19T15:41:27.000Z</time>
      </trkpt>
      <trkpt lat="45.81132" lon="4.73688">
        <ele>326.69089</ele>
        <time>2023-07-19T15:41:28.000Z</time>
      </trkpt>
      <trkpt lat="45.81127" lon="4.73686">
        <ele>326.8078</ele>
        <time>2023-07-19T15:41:29.000Z</time>
      </trkpt>
      <trkpt lat="45.81123" lon="4.73684">
        <ele>326.92099</ele>
        <time>2023-07-19T15:41:30.000Z</time>
      </trkpt>
      <trkpt lat="45.81118" lon="4.73682">
        <ele>327.0271</ele>
        <time>2023-07-19T15:41:31.000Z</time>
      </trkpt>
      <trkpt lat="45.81114" lon="4.7368">
        <ele>327.10858</ele>
        <time>2023-07-19T15:41:32.000Z</time>
      </trkpt>
      <trkpt lat="45.81108" lon="4.73679">
        <ele>327.08258</ele>
        <time>2023-07-19T15:41:33.000Z</time>
      </trkpt>
      <trkpt lat="45.81103" lon="4.73678">
        <ele>327.03403</ele>
        <time>2023-07-19T15:41:34.000Z</time>
      </trkpt>
      <trkpt lat="45.81098" lon="4.73677">
        <ele>326.97998</ele>
        <time>2023-07-19T15:41:35.000Z</time>
      </trkpt>
      <trkpt lat="45.81092" lon="4.73676">
        <ele>326.89395</ele>
        <time>2023-07-19T15:41:36.000Z</time>
      </trkpt>
      <trkpt lat="45.81087" lon="4.73675">
        <ele>326.81577</ele>
        <time>2023-07-19T15:41:37.000Z</time>
      </trkpt>
      <trkpt lat="45.81082" lon="4.73675">
        <ele>326.77609</ele>
        <time>2023-07-19T15:41:38.000Z</time>
      </trkpt>
      <trkpt lat="45.81077" lon="4.73674">
        <ele>326.70605</ele>
        <time>2023-07-19T15:41:39.000Z</time>
      </trkpt>
      <trkpt lat="45.81071" lon="4.73673">
        <ele>326.64365</ele>
        <time>2023-07-19T15:41:40.000Z</time>
      </trkpt>
      <trkpt lat="45.81066" lon="4.73672">
        <ele>326.58005</ele>
        <time>2023-07-19T15:41:41.000Z</time>
      </trkpt>
      <trkpt lat="45.81061" lon="4.73673">
        <ele>326.53769</ele>
        <time>2023-07-19T15:41:42.000Z</time>
      </trkpt>
      <trkpt lat="45.81057" lon="4.7367">
        <ele>326.49966</ele>
        <time>2023-07-19T15:41:43.000Z</time>
      </trkpt>
      <trkpt lat="45.81053" lon="4.73667">
        <ele>326.35724</ele>
        <time>2023-07-19T15:41:44.000Z</time>
      </trkpt>
      <trkpt lat="45.81049" lon="4.73666">
        <ele>326.21674</ele>
        <time>2023-07-19T15:41:45.000Z</time>
      </trkpt>
      <trkpt lat="45.81046" lon="4.73665">
        <ele>326.07343</ele>
        <time>2023-07-19T15:41:46.000Z</time>
      </trkpt>
      <trkpt lat="45.81042" lon="4.73664">
        <ele>325.93451</ele>
        <time>2023-07-19T15:41:47.000Z</time>
      </trkpt>
      <trkpt lat="45.81039" lon="4.73667">
        <ele>325.83255</ele>
        <time>2023-07-19T15:41:48.000Z</time>
      </trkpt>
      <trkpt lat="45.81036" lon="4.73668">
        <ele>325.73944</ele>
        <time>2023-07-19T15:41:49.000Z</time>
      </trkpt>
      <trkpt lat="45.81035" lon="4.73672">
        <ele>325.69623</ele>
        <time>2023-07-19T15:41:50.000Z</time>
      </trkpt>
      <trkpt lat="45.81033" lon="4.73675">
        <ele>325.58002</ele>
        <time>2023-07-19T15:41:51.000Z</time>
      </trkpt>
      <trkpt lat="45.81031" lon="4.73679">
        <ele>325.49579</ele>
        <time>2023-07-19T15:41:52.000Z</time>
      </trkpt>
      <trkpt lat="45.81029" lon="4.73683">
        <ele>325.50671</ele>
        <time>2023-07-19T15:41:53.000Z</time>
      </trkpt>
      <trkpt lat="45.81027" lon="4.73687">
        <ele>325.5004</ele>
        <time>2023-07-19T15:41:54.000Z</time>
      </trkpt>
      <trkpt lat="45.81024" lon="4.73691">
        <ele>325.52454</ele>
        <time>2023-07-19T15:41:55.000Z</time>
      </trkpt>
      <trkpt lat="45.81022" lon="4.73695">
        <ele>325.51971</ele>
        <time>2023-07-19T15:41:56.000Z</time>
      </trkpt>
      <trkpt lat="45.8102" lon="4.73699">
        <ele>325.49857</ele>
        <time>2023-07-19T15:41:57.000Z</time>
      </trkpt>
      <trkpt lat="45.81018" lon="4.73702">
        <ele>325.52344</ele>
        <time>2023-07-19T15:41:58.000Z</time>
      </trkpt>
      <trkpt lat="45.81016" lon="4.73706">
        <ele>325.48285</ele>
        <time>2023-07-19T15:41:59.000Z</time>
      </trkpt>
      <trkpt lat="45.81013" lon="4.73709">
        <ele>325.42999</ele>
        <time>2023-07-19T15:42:00.000Z</time>
      </trkpt>
      <trkpt lat="45.81011" lon="4.73712">
        <ele>325.35114</ele>
        <time>2023-07-19T15:42:01.000Z</time>
      </trkpt>
      <trkpt lat="45.81009" lon="4.73715">
        <ele>325.21875</ele>
        <time>2023-07-19T15:42:02.000Z</time>
      </trkpt>
      <trkpt lat="45.81006" lon="4.73718">
        <ele>325.09198</ele>
        <time>2023-07-19T15:42:03.000Z</time>
      </trkpt>
      <trkpt lat="45.81004" lon="4.7372">
        <ele>325.05045</ele>
        <time>2023-07-19T15:42:04.000Z</time>
      </trkpt>
      <trkpt lat="45.81001" lon="4.73722">
        <ele>325.0271</ele>
        <time>2023-07-19T15:42:05.000Z</time>
      </trkpt>
      <trkpt lat="45.80999" lon="4.73723">
        <ele>325.01663</ele>
        <time>2023-07-19T15:42:06.000Z</time>
      </trkpt>
      <trkpt lat="45.80996" lon="4.73725">
        <ele>325.02582</ele>
        <time>2023-07-19T15:42:08.000Z</time>
      </trkpt>
      <trkpt lat="45.80993" lon="4.73726">
        <ele>325.0495</ele>
        <time>2023-07-19T15:42:10.000Z</time>
      </trkpt>
      <trkpt lat="45.80992" lon="4.73728">
        <ele>325.0206</ele>
        <time>2023-07-19T15:42:59.000Z</time>
      </trkpt>
      <trkpt lat="45.8099" lon="4.73732">
        <ele>324.90021</ele>
        <time>2023-07-19T15:43:01.000Z</time>
      </trkpt>
      <trkpt lat="45.80988" lon="4.73732">
        <ele>324.87082</ele>
        <time>2023-07-19T15:43:02.000Z</time>
      </trkpt>
      <trkpt lat="45.80986" lon="4.73729">
        <ele>324.83838</ele>
        <time>2023-07-19T15:43:03.000Z</time>
      </trkpt>
      <trkpt lat="45.80985" lon="4.73726">
        <ele>324.83258</ele>
        <time>2023-07-19T15:43:04.000Z</time>
      </trkpt>
      <trkpt lat="45.80984" lon="4.73721">
        <ele>324.84271</ele>
        <time>2023-07-19T15:43:05.000Z</time>
      </trkpt>
      <trkpt lat="45.80984" lon="4.73716">
        <ele>324.76678</ele>
        <time>2023-07-19T15:43:06.000Z</time>
      </trkpt>
      <trkpt lat="45.80984" lon="4.73711">
        <ele>324.71924</ele>
        <time>2023-07-19T15:43:07.000Z</time>
      </trkpt>
      <trkpt lat="45.80983" lon="4.73707">
        <ele>324.71054</ele>
        <time>2023-07-19T15:43:08.000Z</time>
      </trkpt>
      <trkpt lat="45.80983" lon="4.73702">
        <ele>324.68835</ele>
        <time>2023-07-19T15:43:09.000Z</time>
      </trkpt>
      <trkpt lat="45.80983" lon="4.73698">
        <ele>324.7536</ele>
        <time>2023-07-19T15:43:10.000Z</time>
      </trkpt>
      <trkpt lat="45.80982" lon="4.73693">
        <ele>324.82306</ele>
        <time>2023-07-19T15:43:11.000Z</time>
      </trkpt>
      <trkpt lat="45.80982" lon="4.73688">
        <ele>324.93698</ele>
        <time>2023-07-19T15:43:12.000Z</time>
      </trkpt>
      <trkpt lat="45.80982" lon="4.73683">
        <ele>325.07959</ele>
        <time>2023-07-19T15:43:13.000Z</time>
      </trkpt>
      <trkpt lat="45.80981" lon="4.73679">
        <ele>325.22971</ele>
        <time>2023-07-19T15:43:14.000Z</time>
      </trkpt>
      <trkpt lat="45.80981" lon="4.73674">
        <ele>325.40002</ele>
        <time>2023-07-19T15:43:15.000Z</time>
      </trkpt>
      <trkpt lat="45.80981" lon="4.7367">
        <ele>325.56219</ele>
        <time>2023-07-19T15:43:16.000Z</time>
      </trkpt>
      <trkpt lat="45.80981" lon="4.73665">
        <ele>325.72037</ele>
        <time>2023-07-19T15:43:17.000Z</time>
      </trkpt>
      <trkpt lat="45.80981" lon="4.7366">
        <ele>325.86383</ele>
        <time>2023-07-19T15:43:18.000Z</time>
      </trkpt>
      <trkpt lat="45.80981" lon="4.73655">
        <ele>325.97681</ele>
        <time>2023-07-19T15:43:19.000Z</time>
      </trkpt>
      <trkpt lat="45.8098" lon="4.73649">
        <ele>326.18356</ele>
        <time>2023-07-19T15:43:20.000Z</time>
      </trkpt>
      <trkpt lat="45.8098" lon="4.73643">
        <ele>326.38593</ele>
        <time>2023-07-19T15:43:21.000Z</time>
      </trkpt>
      <trkpt lat="45.80979" lon="4.73637">
        <ele>326.57758</ele>
        <time>2023-07-19T15:43:22.000Z</time>
      </trkpt>
      <trkpt lat="45.80979" lon="4.73632">
        <ele>326.7739</ele>
        <time>2023-07-19T15:43:23.000Z</time>
      </trkpt>
      <trkpt lat="45.80978" lon="4.73626">
        <ele>326.93155</ele>
        <time>2023-07-19T15:43:24.000Z</time>
      </trkpt>
      <trkpt lat="45.80978" lon="4.73621">
        <ele>327.07266</ele>
        <time>2023-07-19T15:43:25.000Z</time>
      </trkpt>
      <trkpt lat="45.80978" lon="4.73616">
        <ele>327.29239</ele>
        <time>2023-07-19T15:43:26.000Z</time>
      </trkpt>
      <trkpt lat="45.80977" lon="4.73611">
        <ele>327.5202</ele>
        <time>2023-07-19T15:43:27.000Z</time>
      </trkpt>
      <trkpt lat="45.80977" lon="4.73606">
        <ele>327.70432</ele>
        <time>2023-07-19T15:43:28.000Z</time>
      </trkpt>
      <trkpt lat="45.80977" lon="4.73601">
        <ele>327.85739</ele>
        <time>2023-07-19T15:43:29.000Z</time>
      </trkpt>
      <trkpt lat="45.80977" lon="4.73595">
        <ele>328.0127</ele>
        <time>2023-07-19T15:43:30.000Z</time>
      </trkpt>
      <trkpt lat="45.80977" lon="4.73589">
        <ele>328.17819</ele>
        <time>2023-07-19T15:43:31.000Z</time>
      </trkpt>
      <trkpt lat="45.80976" lon="4.73584">
        <ele>328.31854</ele>
        <time>2023-07-19T15:43:32.000Z</time>
      </trkpt>
      <trkpt lat="45.80976" lon="4.73578">
        <ele>328.48428</ele>
        <time>2023-07-19T15:43:33.000Z</time>
      </trkpt>
      <trkpt lat="45.80975" lon="4.73572">
        <ele>328.6488</ele>
        <time>2023-07-19T15:43:34.000Z</time>
      </trkpt>
      <trkpt lat="45.80974" lon="4.73567">
        <ele>328.79138</ele>
        <time>2023-07-19T15:43:35.000Z</time>
      </trkpt>
      <trkpt lat="45.80974" lon="4.73561">
        <ele>328.95523</ele>
        <time>2023-07-19T15:43:36.000Z</time>
      </trkpt>
      <trkpt lat="45.80973" lon="4.73555">
        <ele>329.14389</ele>
        <time>2023-07-19T15:43:37.000Z</time>
      </trkpt>
      <trkpt lat="45.80972" lon="4.73549">
        <ele>329.31671</ele>
        <time>2023-07-19T15:43:38.000Z</time>
      </trkpt>
      <trkpt lat="45.80972" lon="4.73543">
        <ele>329.47397</ele>
        <time>2023-07-19T15:43:39.000Z</time>
      </trkpt>
      <trkpt lat="45.80971" lon="4.73538">
        <ele>329.61078</ele>
        <time>2023-07-19T15:43:40.000Z</time>
      </trkpt>
      <trkpt lat="45.80971" lon="4.73532">
        <ele>329.81213</ele>
        <time>2023-07-19T15:43:41.000Z</time>
      </trkpt>
      <trkpt lat="45.8097" lon="4.73526">
        <ele>330.00189</ele>
        <time>2023-07-19T15:43:42.000Z</time>
      </trkpt>
      <trkpt lat="45.8097" lon="4.73521">
        <ele>330.15796</ele>
        <time>2023-07-19T15:43:43.000Z</time>
      </trkpt>
      <trkpt lat="45.8097" lon="4.73516">
        <ele>330.32065</ele>
        <time>2023-07-19T15:43:44.000Z</time>
      </trkpt>
      <trkpt lat="45.80969" lon="4.73511">
        <ele>330.49121</ele>
        <time>2023-07-19T15:43:45.000Z</time>
      </trkpt>
      <trkpt lat="45.80969" lon="4.73506">
        <ele>330.65121</ele>
        <time>2023-07-19T15:43:46.000Z</time>
      </trkpt>
      <trkpt lat="45.80969" lon="4.73501">
        <ele>330.80304</ele>
        <time>2023-07-19T15:43:47.000Z</time>
      </trkpt>
      <trkpt lat="45.80968" lon="4.73497">
        <ele>330.98627</ele>
        <time>2023-07-19T15:43:48.000Z</time>
      </trkpt>
      <trkpt lat="45.80968" lon="4.73492">
        <ele>331.14935</ele>
        <time>2023-07-19T15:43:49.000Z</time>
      </trkpt>
      <trkpt lat="45.80967" lon="4.73487">
        <ele>331.30048</ele>
        <time>2023-07-19T15:43:50.000Z</time>
      </trkpt>
      <trkpt lat="45.80967" lon="4.73482">
        <ele>331.42966</ele>
        <time>2023-07-19T15:43:51.000Z</time>
      </trkpt>
      <trkpt lat="45.80967" lon="4.73477">
        <ele>331.53494</ele>
        <time>2023-07-19T15:43:52.000Z</time>
      </trkpt>
      <trkpt lat="45.80966" lon="4.73471">
        <ele>331.59457</ele>
        <time>2023-07-19T15:43:53.000Z</time>
      </trkpt>
      <trkpt lat="45.80966" lon="4.73466">
        <ele>331.6156</ele>
        <time>2023-07-19T15:43:54.000Z</time>
      </trkpt>
      <trkpt lat="45.80965" lon="4.73461">
        <ele>331.64862</ele>
        <time>2023-07-19T15:43:55.000Z</time>
      </trkpt>
      <trkpt lat="45.80965" lon="4.73456">
        <ele>331.66925</ele>
        <time>2023-07-19T15:43:56.000Z</time>
      </trkpt>
      <trkpt lat="45.80964" lon="4.73451">
        <ele>331.67719</ele>
        <time>2023-07-19T15:43:57.000Z</time>
      </trkpt>
      <trkpt lat="45.80964" lon="4.73445">
        <ele>331.67746</ele>
        <time>2023-07-19T15:43:58.000Z</time>
      </trkpt>
      <trkpt lat="45.80963" lon="4.7344">
        <ele>331.6701</ele>
        <time>2023-07-19T15:43:59.000Z</time>
      </trkpt>
      <trkpt lat="45.80962" lon="4.73434">
        <ele>331.51419</ele>
        <time>2023-07-19T15:44:00.000Z</time>
      </trkpt>
      <trkpt lat="45.80962" lon="4.73429">
        <ele>331.3486</ele>
        <time>2023-07-19T15:44:01.000Z</time>
      </trkpt>
      <trkpt lat="45.80961" lon="4.73423">
        <ele>331.1803</ele>
        <time>2023-07-19T15:44:02.000Z</time>
      </trkpt>
      <trkpt lat="45.8096" lon="4.73417">
        <ele>331.02692</ele>
        <time>2023-07-19T15:44:03.000Z</time>
      </trkpt>
      <trkpt lat="45.80959" lon="4.73411">
        <ele>330.8812</ele>
        <time>2023-07-19T15:44:04.000Z</time>
      </trkpt>
      <trkpt lat="45.80959" lon="4.73404">
        <ele>330.74484</ele>
        <time>2023-07-19T15:44:05.000Z</time>
      </trkpt>
      <trkpt lat="45.80958" lon="4.73398">
        <ele>330.59198</ele>
        <time>2023-07-19T15:44:06.000Z</time>
      </trkpt>
      <trkpt lat="45.80957" lon="4.73391">
        <ele>330.55258</ele>
        <time>2023-07-19T15:44:07.000Z</time>
      </trkpt>
      <trkpt lat="45.80956" lon="4.73384">
        <ele>330.48099</ele>
        <time>2023-07-19T15:44:08.000Z</time>
      </trkpt>
      <trkpt lat="45.80956" lon="4.73377">
        <ele>330.43811</ele>
        <time>2023-07-19T15:44:09.000Z</time>
      </trkpt>
      <trkpt lat="45.80955" lon="4.7337">
        <ele>330.4007</ele>
        <time>2023-07-19T15:44:10.000Z</time>
      </trkpt>
      <trkpt lat="45.80954" lon="4.73364">
        <ele>330.3334</ele>
        <time>2023-07-19T15:44:11.000Z</time>
      </trkpt>
      <trkpt lat="45.80953" lon="4.73358">
        <ele>330.26523</ele>
        <time>2023-07-19T15:44:12.000Z</time>
      </trkpt>
      <trkpt lat="45.8095" lon="4.73352">
        <ele>330.22348</ele>
        <time>2023-07-19T15:44:13.000Z</time>
      </trkpt>
      <trkpt lat="45.80947" lon="4.73347">
        <ele>330.18268</ele>
        <time>2023-07-19T15:44:14.000Z</time>
      </trkpt>
      <trkpt lat="45.80943" lon="4.73341">
        <ele>330.14526</ele>
        <time>2023-07-19T15:44:15.000Z</time>
      </trkpt>
      <trkpt lat="45.8094" lon="4.73336">
        <ele>330.11115</ele>
        <time>2023-07-19T15:44:16.000Z</time>
      </trkpt>
      <trkpt lat="45.80935" lon="4.73332">
        <ele>330.07178</ele>
        <time>2023-07-19T15:44:17.000Z</time>
      </trkpt>
      <trkpt lat="45.80931" lon="4.73328">
        <ele>330.02646</ele>
        <time>2023-07-19T15:44:18.000Z</time>
      </trkpt>
      <trkpt lat="45.80927" lon="4.73324">
        <ele>329.98358</ele>
        <time>2023-07-19T15:44:19.000Z</time>
      </trkpt>
      <trkpt lat="45.80922" lon="4.7332">
        <ele>330.06464</ele>
        <time>2023-07-19T15:44:20.000Z</time>
      </trkpt>
      <trkpt lat="45.80918" lon="4.73316">
        <ele>330.10498</ele>
        <time>2023-07-19T15:44:21.000Z</time>
      </trkpt>
      <trkpt lat="45.80916" lon="4.7331">
        <ele>330.11298</ele>
        <time>2023-07-19T15:44:22.000Z</time>
      </trkpt>
      <trkpt lat="45.80915" lon="4.73304">
        <ele>330.11899</ele>
        <time>2023-07-19T15:44:23.000Z</time>
      </trkpt>
      <trkpt lat="45.80915" lon="4.73297">
        <ele>330.11334</ele>
        <time>2023-07-19T15:44:24.000Z</time>
      </trkpt>
      <trkpt lat="45.80913" lon="4.73291">
        <ele>330.08688</ele>
        <time>2023-07-19T15:44:25.000Z</time>
      </trkpt>
      <trkpt lat="45.80913" lon="4.73285">
        <ele>330.04907</ele>
        <time>2023-07-19T15:44:26.000Z</time>
      </trkpt>
      <trkpt lat="45.80913" lon="4.73279">
        <ele>329.89813</ele>
        <time>2023-07-19T15:44:27.000Z</time>
      </trkpt>
      <trkpt lat="45.80918" lon="4.73276">
        <ele>329.77069</ele>
        <time>2023-07-19T15:44:28.000Z</time>
      </trkpt>
      <trkpt lat="45.80922" lon="4.73272">
        <ele>329.65741</ele>
        <time>2023-07-19T15:44:29.000Z</time>
      </trkpt>
      <trkpt lat="45.80925" lon="4.73267">
        <ele>329.53406</ele>
        <time>2023-07-19T15:44:30.000Z</time>
      </trkpt>
      <trkpt lat="45.80929" lon="4.73262">
        <ele>329.41708</ele>
        <time>2023-07-19T15:44:31.000Z</time>
      </trkpt>
      <trkpt lat="45.80933" lon="4.73256">
        <ele>329.31705</ele>
        <time>2023-07-19T15:44:32.000Z</time>
      </trkpt>
      <trkpt lat="45.80936" lon="4.73251">
        <ele>329.20526</ele>
        <time>2023-07-19T15:44:33.000Z</time>
      </trkpt>
      <trkpt lat="45.8094" lon="4.73245">
        <ele>329.11423</ele>
        <time>2023-07-19T15:44:34.000Z</time>
      </trkpt>
      <trkpt lat="45.80944" lon="4.7324">
        <ele>328.99228</ele>
        <time>2023-07-19T15:44:35.000Z</time>
      </trkpt>
      <trkpt lat="45.80948" lon="4.73235">
        <ele>328.85944</ele>
        <time>2023-07-19T15:44:36.000Z</time>
      </trkpt>
      <trkpt lat="45.80952" lon="4.7323">
        <ele>328.72647</ele>
        <time>2023-07-19T15:44:37.000Z</time>
      </trkpt>
      <trkpt lat="45.80955" lon="4.73224">
        <ele>328.59348</ele>
        <time>2023-07-19T15:44:38.000Z</time>
      </trkpt>
      <trkpt lat="45.80959" lon="4.7322">
        <ele>328.4277</ele>
        <time>2023-07-19T15:44:39.000Z</time>
      </trkpt>
      <trkpt lat="45.80962" lon="4.73214">
        <ele>328.27872</ele>
        <time>2023-07-19T15:44:40.000Z</time>
      </trkpt>
      <trkpt lat="45.80966" lon="4.73209">
        <ele>328.11505</ele>
        <time>2023-07-19T15:44:41.000Z</time>
      </trkpt>
      <trkpt lat="45.8097" lon="4.73205">
        <ele>327.9588</ele>
        <time>2023-07-19T15:44:42.000Z</time>
      </trkpt>
      <trkpt lat="45.80973" lon="4.73199">
        <ele>327.7738</ele>
        <time>2023-07-19T15:44:43.000Z</time>
      </trkpt>
      <trkpt lat="45.80977" lon="4.73194">
        <ele>327.56232</ele>
        <time>2023-07-19T15:44:44.000Z</time>
      </trkpt>
      <trkpt lat="45.8098" lon="4.73189">
        <ele>327.31741</ele>
        <time>2023-07-19T15:44:45.000Z</time>
      </trkpt>
      <trkpt lat="45.80983" lon="4.73184">
        <ele>327.06143</ele>
        <time>2023-07-19T15:44:46.000Z</time>
      </trkpt>
      <trkpt lat="45.80986" lon="4.73179">
        <ele>326.81473</ele>
        <time>2023-07-19T15:44:47.000Z</time>
      </trkpt>
      <trkpt lat="45.80988" lon="4.73176">
        <ele>326.55804</ele>
        <time>2023-07-19T15:44:48.000Z</time>
      </trkpt>
      <trkpt lat="45.80991" lon="4.73173">
        <ele>326.29877</ele>
        <time>2023-07-19T15:44:49.000Z</time>
      </trkpt>
      <trkpt lat="45.80992" lon="4.73171">
        <ele>326.03027</ele>
        <time>2023-07-19T15:44:50.000Z</time>
      </trkpt>
      <trkpt lat="45.80994" lon="4.73168">
        <ele>325.7453</ele>
        <time>2023-07-19T15:44:51.000Z</time>
      </trkpt>
      <trkpt lat="45.80996" lon="4.73163">
        <ele>325.46637</ele>
        <time>2023-07-19T15:44:52.000Z</time>
      </trkpt>
      <trkpt lat="45.80996" lon="4.73158">
        <ele>325.18912</ele>
        <time>2023-07-19T15:44:53.000Z</time>
      </trkpt>
      <trkpt lat="45.80994" lon="4.73154">
        <ele>324.92743</ele>
        <time>2023-07-19T15:44:54.000Z</time>
      </trkpt>
      <trkpt lat="45.80991" lon="4.73151">
        <ele>324.6835</ele>
        <time>2023-07-19T15:44:55.000Z</time>
      </trkpt>
      <trkpt lat="45.8099" lon="4.73148">
        <ele>324.45563</ele>
        <time>2023-07-19T15:44:56.000Z</time>
      </trkpt>
      <trkpt lat="45.80987" lon="4.73146">
        <ele>324.23032</ele>
        <time>2023-07-19T15:44:57.000Z</time>
      </trkpt>
      <trkpt lat="45.80985" lon="4.73143">
        <ele>324.00531</ele>
        <time>2023-07-19T15:44:58.000Z</time>
      </trkpt>
      <trkpt lat="45.80982" lon="4.7314">
        <ele>323.8139</ele>
        <time>2023-07-19T15:44:59.000Z</time>
      </trkpt>
      <trkpt lat="45.8098" lon="4.73138">
        <ele>323.61392</ele>
        <time>2023-07-19T15:45:00.000Z</time>
      </trkpt>
      <trkpt lat="45.80976" lon="4.73136">
        <ele>323.45618</ele>
        <time>2023-07-19T15:45:01.000Z</time>
      </trkpt>
      <trkpt lat="45.80973" lon="4.73134">
        <ele>323.3327</ele>
        <time>2023-07-19T15:45:02.000Z</time>
      </trkpt>
      <trkpt lat="45.8097" lon="4.73133">
        <ele>323.23297</ele>
        <time>2023-07-19T15:45:03.000Z</time>
      </trkpt>
      <trkpt lat="45.80967" lon="4.73131">
        <ele>323.16693</ele>
        <time>2023-07-19T15:45:04.000Z</time>
      </trkpt>
      <trkpt lat="45.80964" lon="4.73128">
        <ele>323.13382</ele>
        <time>2023-07-19T15:45:05.000Z</time>
      </trkpt>
      <trkpt lat="45.80961" lon="4.73126">
        <ele>323.1319</ele>
        <time>2023-07-19T15:45:06.000Z</time>
      </trkpt>
      <trkpt lat="45.80957" lon="4.73124">
        <ele>323.12576</ele>
        <time>2023-07-19T15:45:07.000Z</time>
      </trkpt>
      <trkpt lat="45.80954" lon="4.73123">
        <ele>323.09763</ele>
        <time>2023-07-19T15:45:08.000Z</time>
      </trkpt>
      <trkpt lat="45.80951" lon="4.73121">
        <ele>323.04367</ele>
        <time>2023-07-19T15:45:09.000Z</time>
      </trkpt>
      <trkpt lat="45.80948" lon="4.7312">
        <ele>322.97989</ele>
        <time>2023-07-19T15:45:10.000Z</time>
      </trkpt>
      <trkpt lat="45.80944" lon="4.73118">
        <ele>322.95078</ele>
        <time>2023-07-19T15:45:11.000Z</time>
      </trkpt>
      <trkpt lat="45.80941" lon="4.73115">
        <ele>322.9137</ele>
        <time>2023-07-19T15:45:12.000Z</time>
      </trkpt>
      <trkpt lat="45.80938" lon="4.73113">
        <ele>322.90359</ele>
        <time>2023-07-19T15:45:13.000Z</time>
      </trkpt>
      <trkpt lat="45.80935" lon="4.7311">
        <ele>322.89093</ele>
        <time>2023-07-19T15:45:14.000Z</time>
      </trkpt>
      <trkpt lat="45.80932" lon="4.73107">
        <ele>322.88559</ele>
        <time>2023-07-19T15:45:15.000Z</time>
      </trkpt>
      <trkpt lat="45.80929" lon="4.73105">
        <ele>322.87616</ele>
        <time>2023-07-19T15:45:16.000Z</time>
      </trkpt>
      <trkpt lat="45.80926" lon="4.73102">
        <ele>322.87692</ele>
        <time>2023-07-19T15:45:17.000Z</time>
      </trkpt>
      <trkpt lat="45.80923" lon="4.73099">
        <ele>322.88647</ele>
        <time>2023-07-19T15:45:18.000Z</time>
      </trkpt>
      <trkpt lat="45.8092" lon="4.73096">
        <ele>322.9025</ele>
        <time>2023-07-19T15:45:19.000Z</time>
      </trkpt>
      <trkpt lat="45.80916" lon="4.73093">
        <ele>322.80597</ele>
        <time>2023-07-19T15:45:20.000Z</time>
      </trkpt>
      <trkpt lat="45.80913" lon="4.73091">
        <ele>322.71649</ele>
        <time>2023-07-19T15:45:21.000Z</time>
      </trkpt>
      <trkpt lat="45.8091" lon="4.73088">
        <ele>322.60181</ele>
        <time>2023-07-19T15:45:22.000Z</time>
      </trkpt>
      <trkpt lat="45.80907" lon="4.73086">
        <ele>322.49365</ele>
        <time>2023-07-19T15:45:23.000Z</time>
      </trkpt>
      <trkpt lat="45.80903" lon="4.73083">
        <ele>322.38205</ele>
        <time>2023-07-19T15:45:24.000Z</time>
      </trkpt>
      <trkpt lat="45.809" lon="4.73082">
        <ele>322.26801</ele>
        <time>2023-07-19T15:45:25.000Z</time>
      </trkpt>
      <trkpt lat="45.80897" lon="4.7308">
        <ele>322.16043</ele>
        <time>2023-07-19T15:45:26.000Z</time>
      </trkpt>
      <trkpt lat="45.80894" lon="4.73078">
        <ele>322.05511</ele>
        <time>2023-07-19T15:45:27.000Z</time>
      </trkpt>
      <trkpt lat="45.80891" lon="4.73075">
        <ele>321.99854</ele>
        <time>2023-07-19T15:45:28.000Z</time>
      </trkpt>
      <trkpt lat="45.80888" lon="4.73072">
        <ele>321.96072</ele>
        <time>2023-07-19T15:45:29.000Z</time>
      </trkpt>
      <trkpt lat="45.80885" lon="4.7307">
        <ele>321.97626</ele>
        <time>2023-07-19T15:45:30.000Z</time>
      </trkpt>
      <trkpt lat="45.80882" lon="4.73068">
        <ele>321.75607</ele>
        <time>2023-07-19T15:45:31.000Z</time>
      </trkpt>
      <trkpt lat="45.80879" lon="4.73065">
        <ele>321.5495</ele>
        <time>2023-07-19T15:45:32.000Z</time>
      </trkpt>
      <trkpt lat="45.80878" lon="4.73062">
        <ele>321.4599</ele>
        <time>2023-07-19T15:45:33.000Z</time>
      </trkpt>
      <trkpt lat="45.80876" lon="4.73059">
        <ele>321.3602</ele>
        <time>2023-07-19T15:45:34.000Z</time>
      </trkpt>
      <trkpt lat="45.80879" lon="4.73056">
        <ele>321.23282</ele>
        <time>2023-07-19T15:45:37.000Z</time>
      </trkpt>
      <trkpt lat="45.80881" lon="4.73056">
        <ele>321.11029</ele>
        <time>2023-07-19T15:45:38.000Z</time>
      </trkpt>
      <trkpt lat="45.80883" lon="4.73056">
        <ele>320.95343</ele>
        <time>2023-07-19T15:45:39.000Z</time>
      </trkpt>
      <trkpt lat="45.80885" lon="4.73058">
        <ele>320.80917</ele>
        <time>2023-07-19T15:45:40.000Z</time>
      </trkpt>
      <trkpt lat="45.80887" lon="4.7306">
        <ele>320.65399</ele>
        <time>2023-07-19T15:45:41.000Z</time>
      </trkpt>
      <trkpt lat="45.80888" lon="4.73062">
        <ele>320.62134</ele>
        <time>2023-07-19T15:45:42.000Z</time>
      </trkpt>
      <trkpt lat="45.8089" lon="4.73064">
        <ele>320.58524</ele>
        <time>2023-07-19T15:45:43.000Z</time>
      </trkpt>
      <trkpt lat="45.80892" lon="4.73065">
        <ele>320.57816</ele>
        <time>2023-07-19T15:45:44.000Z</time>
      </trkpt>
      <trkpt lat="45.80894" lon="4.73066">
        <ele>320.6311</ele>
        <time>2023-07-19T15:45:45.000Z</time>
      </trkpt>
      <trkpt lat="45.80897" lon="4.73068">
        <ele>320.49103</ele>
        <time>2023-07-19T15:45:46.000Z</time>
      </trkpt>
      <trkpt lat="45.80899" lon="4.7307">
        <ele>320.35925</ele>
        <time>2023-07-19T15:45:47.000Z</time>
      </trkpt>
      <trkpt lat="45.80902" lon="4.73073">
        <ele>320.36426</ele>
        <time>2023-07-19T15:45:48.000Z</time>
      </trkpt>
      <trkpt lat="45.80904" lon="4.73075">
        <ele>320.38226</ele>
        <time>2023-07-19T15:45:49.000Z</time>
      </trkpt>
      <trkpt lat="45.80906" lon="4.73077">
        <ele>320.39554</ele>
        <time>2023-07-19T15:45:50.000Z</time>
      </trkpt>
      <trkpt lat="45.80907" lon="4.7308">
        <ele>320.39743</ele>
        <time>2023-07-19T15:45:51.000Z</time>
      </trkpt>
      <trkpt lat="45.8091" lon="4.73084">
        <ele>320.40652</ele>
        <time>2023-07-19T15:45:52.000Z</time>
      </trkpt>
      <trkpt lat="45.80911" lon="4.73087">
        <ele>320.63525</ele>
        <time>2023-07-19T15:45:53.000Z</time>
      </trkpt>
      <trkpt lat="45.80914" lon="4.73089">
        <ele>320.85712</ele>
        <time>2023-07-19T15:45:54.000Z</time>
      </trkpt>
      <trkpt lat="45.80916" lon="4.73092">
        <ele>320.95572</ele>
        <time>2023-07-19T15:45:55.000Z</time>
      </trkpt>
      <trkpt lat="45.80918" lon="4.73096">
        <ele>321.05344</ele>
        <time>2023-07-19T15:45:56.000Z</time>
      </trkpt>
      <trkpt lat="45.80921" lon="4.73099">
        <ele>321.15594</ele>
        <time>2023-07-19T15:45:57.000Z</time>
      </trkpt>
      <trkpt lat="45.80923" lon="4.73101">
        <ele>321.24243</ele>
        <time>2023-07-19T15:45:58.000Z</time>
      </trkpt>
      <trkpt lat="45.80925" lon="4.73104">
        <ele>321.37222</ele>
        <time>2023-07-19T15:45:59.000Z</time>
      </trkpt>
      <trkpt lat="45.80929" lon="4.73106">
        <ele>321.50531</ele>
        <time>2023-07-19T15:46:00.000Z</time>
      </trkpt>
      <trkpt lat="45.80932" lon="4.73108">
        <ele>321.67316</ele>
        <time>2023-07-19T15:46:01.000Z</time>
      </trkpt>
      <trkpt lat="45.80934" lon="4.73109">
        <ele>321.87994</ele>
        <time>2023-07-19T15:46:02.000Z</time>
      </trkpt>
      <trkpt lat="45.80937" lon="4.73111">
        <ele>322.09131</ele>
        <time>2023-07-19T15:46:03.000Z</time>
      </trkpt>
      <trkpt lat="45.8094" lon="4.73112">
        <ele>322.20398</ele>
        <time>2023-07-19T15:46:04.000Z</time>
      </trkpt>
      <trkpt lat="45.80943" lon="4.73114">
        <ele>322.25723</ele>
        <time>2023-07-19T15:46:05.000Z</time>
      </trkpt>
      <trkpt lat="45.80946" lon="4.73117">
        <ele>322.51407</ele>
        <time>2023-07-19T15:46:06.000Z</time>
      </trkpt>
      <trkpt lat="45.80948" lon="4.73119">
        <ele>322.75873</ele>
        <time>2023-07-19T15:46:07.000Z</time>
      </trkpt>
      <trkpt lat="45.80951" lon="4.7312">
        <ele>322.86688</ele>
        <time>2023-07-19T15:46:08.000Z</time>
      </trkpt>
      <trkpt lat="45.80954" lon="4.73122">
        <ele>322.95752</ele>
        <time>2023-07-19T15:46:09.000Z</time>
      </trkpt>
      <trkpt lat="45.80957" lon="4.73124">
        <ele>323.01968</ele>
        <time>2023-07-19T15:46:10.000Z</time>
      </trkpt>
      <trkpt lat="45.8096" lon="4.73125">
        <ele>323.13199</ele>
        <time>2023-07-19T15:46:11.000Z</time>
      </trkpt>
      <trkpt lat="45.80962" lon="4.73127">
        <ele>323.19788</ele>
        <time>2023-07-19T15:46:12.000Z</time>
      </trkpt>
      <trkpt lat="45.80966" lon="4.73129">
        <ele>323.21335</ele>
        <time>2023-07-19T15:46:13.000Z</time>
      </trkpt>
      <trkpt lat="45.80969" lon="4.73131">
        <ele>323.21527</ele>
        <time>2023-07-19T15:46:14.000Z</time>
      </trkpt>
      <trkpt lat="45.80972" lon="4.73134">
        <ele>323.2168</ele>
        <time>2023-07-19T15:46:15.000Z</time>
      </trkpt>
      <trkpt lat="45.80975" lon="4.73136">
        <ele>323.21991</ele>
        <time>2023-07-19T15:46:16.000Z</time>
      </trkpt>
      <trkpt lat="45.80978" lon="4.73138">
        <ele>323.27396</ele>
        <time>2023-07-19T15:46:17.000Z</time>
      </trkpt>
      <trkpt lat="45.80981" lon="4.7314">
        <ele>323.33136</ele>
        <time>2023-07-19T15:46:18.000Z</time>
      </trkpt>
      <trkpt lat="45.80984" lon="4.73142">
        <ele>323.35504</ele>
        <time>2023-07-19T15:46:19.000Z</time>
      </trkpt>
      <trkpt lat="45.80986" lon="4.73144">
        <ele>323.39093</ele>
        <time>2023-07-19T15:46:20.000Z</time>
      </trkpt>
      <trkpt lat="45.80989" lon="4.73145">
        <ele>323.39816</ele>
        <time>2023-07-19T15:46:21.000Z</time>
      </trkpt>
      <trkpt lat="45.80991" lon="4.73147">
        <ele>323.37366</ele>
        <time>2023-07-19T15:46:22.000Z</time>
      </trkpt>
      <trkpt lat="45.80993" lon="4.7315">
        <ele>323.34512</ele>
        <time>2023-07-19T15:46:23.000Z</time>
      </trkpt>
      <trkpt lat="45.80995" lon="4.73153">
        <ele>323.37363</ele>
        <time>2023-07-19T15:46:24.000Z</time>
      </trkpt>
      <trkpt lat="45.80997" lon="4.73155">
        <ele>323.3783</ele>
        <time>2023-07-19T15:46:25.000Z</time>
      </trkpt>
      <trkpt lat="45.80998" lon="4.73159">
        <ele>323.32489</ele>
        <time>2023-07-19T15:46:26.000Z</time>
      </trkpt>
      <trkpt lat="45.80998" lon="4.73164">
        <ele>323.28741</ele>
        <time>2023-07-19T15:46:27.000Z</time>
      </trkpt>
      <trkpt lat="45.80996" lon="4.73168">
        <ele>323.22311</ele>
        <time>2023-07-19T15:46:28.000Z</time>
      </trkpt>
      <trkpt lat="45.80994" lon="4.73171">
        <ele>323.16083</ele>
        <time>2023-07-19T15:46:29.000Z</time>
      </trkpt>
      <trkpt lat="45.80992" lon="4.73173">
        <ele>323.12253</ele>
        <time>2023-07-19T15:46:30.000Z</time>
      </trkpt>
      <trkpt lat="45.8099" lon="4.73176">
        <ele>323.05264</ele>
        <time>2023-07-19T15:46:31.000Z</time>
      </trkpt>
      <trkpt lat="45.80987" lon="4.73178">
        <ele>322.99997</ele>
        <time>2023-07-19T15:46:32.000Z</time>
      </trkpt>
      <trkpt lat="45.80985" lon="4.7318">
        <ele>323.01379</ele>
        <time>2023-07-19T15:46:33.000Z</time>
      </trkpt>
      <trkpt lat="45.80983" lon="4.73184">
        <ele>323.02908</ele>
        <time>2023-07-19T15:48:12.000Z</time>
      </trkpt>
      <trkpt lat="45.80982" lon="4.73186">
        <ele>323.03241</ele>
        <time>2023-07-19T15:48:13.000Z</time>
      </trkpt>
      <trkpt lat="45.80981" lon="4.73189">
        <ele>323.01804</ele>
        <time>2023-07-19T15:48:14.000Z</time>
      </trkpt>
      <trkpt lat="45.8098" lon="4.73192">
        <ele>322.99884</ele>
        <time>2023-07-19T15:48:15.000Z</time>
      </trkpt>
      <trkpt lat="45.80978" lon="4.73194">
        <ele>322.97821</ele>
        <time>2023-07-19T15:48:16.000Z</time>
      </trkpt>
      <trkpt lat="45.80977" lon="4.73196">
        <ele>322.99384</ele>
        <time>2023-07-19T15:48:17.000Z</time>
      </trkpt>
      <trkpt lat="45.80975" lon="4.73198">
        <ele>322.99408</ele>
        <time>2023-07-19T15:48:18.000Z</time>
      </trkpt>
      <trkpt lat="45.80973" lon="4.732">
        <ele>323.0032</ele>
        <time>2023-07-19T15:48:19.000Z</time>
      </trkpt>
      <trkpt lat="45.80971" lon="4.73202">
        <ele>323.02328</ele>
        <time>2023-07-19T15:48:20.000Z</time>
      </trkpt>
      <trkpt lat="45.80969" lon="4.73204">
        <ele>323.05035</ele>
        <time>2023-07-19T15:48:21.000Z</time>
      </trkpt>
      <trkpt lat="45.80968" lon="4.73207">
        <ele>323.12051</ele>
        <time>2023-07-19T15:48:22.000Z</time>
      </trkpt>
      <trkpt lat="45.80967" lon="4.73211">
        <ele>323.21353</ele>
        <time>2023-07-19T15:48:23.000Z</time>
      </trkpt>
      <trkpt lat="45.80965" lon="4.73214">
        <ele>323.36197</ele>
        <time>2023-07-19T15:48:24.000Z</time>
      </trkpt>
      <trkpt lat="45.80962" lon="4.73218">
        <ele>323.51453</ele>
        <time>2023-07-19T15:48:25.000Z</time>
      </trkpt>
      <trkpt lat="45.80959" lon="4.73222">
        <ele>323.70929</ele>
        <time>2023-07-19T15:48:26.000Z</time>
      </trkpt>
      <trkpt lat="45.80956" lon="4.73226">
        <ele>323.92349</ele>
        <time>2023-07-19T15:48:27.000Z</time>
      </trkpt>
      <trkpt lat="45.80953" lon="4.7323">
        <ele>324.1153</ele>
        <time>2023-07-19T15:48:28.000Z</time>
      </trkpt>
      <trkpt lat="45.80951" lon="4.73233">
        <ele>324.3764</ele>
        <time>2023-07-19T15:48:29.000Z</time>
      </trkpt>
      <trkpt lat="45.80948" lon="4.73237">
        <ele>324.62177</ele>
        <time>2023-07-19T15:48:30.000Z</time>
      </trkpt>
      <trkpt lat="45.80946" lon="4.7324">
        <ele>324.85669</ele>
        <time>2023-07-19T15:48:31.000Z</time>
      </trkpt>
      <trkpt lat="45.80943" lon="4.73244">
        <ele>325.09995</ele>
        <time>2023-07-19T15:48:32.000Z</time>
      </trkpt>
      <trkpt lat="45.80941" lon="4.73248">
        <ele>325.35306</ele>
        <time>2023-07-19T15:48:33.000Z</time>
      </trkpt>
      <trkpt lat="45.80939" lon="4.73252">
        <ele>325.63971</ele>
        <time>2023-07-19T15:48:34.000Z</time>
      </trkpt>
      <trkpt lat="45.80936" lon="4.73256">
        <ele>325.88123</ele>
        <time>2023-07-19T15:48:35.000Z</time>
      </trkpt>
      <trkpt lat="45.80934" lon="4.73259">
        <ele>326.1181</ele>
        <time>2023-07-19T15:48:36.000Z</time>
      </trkpt>
      <trkpt lat="45.80931" lon="4.73263">
        <ele>326.33258</ele>
        <time>2023-07-19T15:48:37.000Z</time>
      </trkpt>
      <trkpt lat="45.80929" lon="4.73267">
        <ele>326.51862</ele>
        <time>2023-07-19T15:48:38.000Z</time>
      </trkpt>
      <trkpt lat="45.80926" lon="4.73271">
        <ele>326.66437</ele>
        <time>2023-07-19T15:48:39.000Z</time>
      </trkpt>
      <trkpt lat="45.80923" lon="4.73274">
        <ele>326.8183</ele>
        <time>2023-07-19T15:48:40.000Z</time>
      </trkpt>
      <trkpt lat="45.8092" lon="4.73277">
        <ele>326.98233</ele>
        <time>2023-07-19T15:48:41.000Z</time>
      </trkpt>
      <trkpt lat="45.80918" lon="4.7328">
        <ele>327.14801</ele>
        <time>2023-07-19T15:48:42.000Z</time>
      </trkpt>
      <trkpt lat="45.80916" lon="4.73284">
        <ele>327.31299</ele>
        <time>2023-07-19T15:48:43.000Z</time>
      </trkpt>
      <trkpt lat="45.80914" lon="4.73287">
        <ele>327.45306</ele>
        <time>2023-07-19T15:48:44.000Z</time>
      </trkpt>
      <trkpt lat="45.80912" lon="4.73291">
        <ele>327.58328</ele>
        <time>2023-07-19T15:48:45.000Z</time>
      </trkpt>
      <trkpt lat="45.8091" lon="4.73294">
        <ele>327.70428</ele>
        <time>2023-07-19T15:48:46.000Z</time>
      </trkpt>
      <trkpt lat="45.80908" lon="4.73296">
        <ele>327.80502</ele>
        <time>2023-07-19T15:48:47.000Z</time>
      </trkpt>
      <trkpt lat="45.80907" lon="4.73298">
        <ele>327.90094</ele>
        <time>2023-07-19T15:48:48.000Z</time>
      </trkpt>
      <trkpt lat="45.80905" lon="4.733">
        <ele>327.91293</ele>
        <time>2023-07-19T15:48:49.000Z</time>
      </trkpt>
      <trkpt lat="45.80904" lon="4.73302">
        <ele>327.9527</ele>
        <time>2023-07-19T15:48:50.000Z</time>
      </trkpt>
      <trkpt lat="45.80902" lon="4.73304">
        <ele>327.97827</ele>
        <time>2023-07-19T15:48:51.000Z</time>
      </trkpt>
      <trkpt lat="45.80899" lon="4.73305">
        <ele>328.02032</ele>
        <time>2023-07-19T15:48:52.000Z</time>
      </trkpt>
      <trkpt lat="45.80896" lon="4.73303">
        <ele>328.02847</ele>
        <time>2023-07-19T15:48:53.000Z</time>
      </trkpt>
      <trkpt lat="45.80893" lon="4.73299">
        <ele>328.03122</ele>
        <time>2023-07-19T15:48:54.000Z</time>
      </trkpt>
      <trkpt lat="45.80891" lon="4.73295">
        <ele>328.0676</ele>
        <time>2023-07-19T15:48:55.000Z</time>
      </trkpt>
      <trkpt lat="45.80888" lon="4.7329">
        <ele>328.11383</ele>
        <time>2023-07-19T15:48:56.000Z</time>
      </trkpt>
      <trkpt lat="45.80885" lon="4.73285">
        <ele>328.1601</ele>
        <time>2023-07-19T15:48:57.000Z</time>
      </trkpt>
      <trkpt lat="45.80881" lon="4.73281">
        <ele>328.23236</ele>
        <time>2023-07-19T15:48:58.000Z</time>
      </trkpt>
      <trkpt lat="45.80877" lon="4.73276">
        <ele>328.32843</ele>
        <time>2023-07-19T15:48:59.000Z</time>
      </trkpt>
      <trkpt lat="45.80872" lon="4.73272">
        <ele>328.39844</ele>
        <time>2023-07-19T15:49:00.000Z</time>
      </trkpt>
      <trkpt lat="45.80867" lon="4.73268">
        <ele>328.43253</ele>
        <time>2023-07-19T15:49:01.000Z</time>
      </trkpt>
      <trkpt lat="45.80862" lon="4.73264">
        <ele>328.44785</ele>
        <time>2023-07-19T15:49:02.000Z</time>
      </trkpt>
      <trkpt lat="45.80857" lon="4.73259">
        <ele>328.44684</ele>
        <time>2023-07-19T15:49:03.000Z</time>
      </trkpt>
      <trkpt lat="45.80852" lon="4.73254">
        <ele>328.47217</ele>
        <time>2023-07-19T15:49:04.000Z</time>
      </trkpt>
      <trkpt lat="45.80847" lon="4.73249">
        <ele>328.46234</ele>
        <time>2023-07-19T15:49:05.000Z</time>
      </trkpt>
      <trkpt lat="45.80841" lon="4.73244">
        <ele>328.43555</ele>
        <time>2023-07-19T15:49:06.000Z</time>
      </trkpt>
      <trkpt lat="45.80835" lon="4.7324">
        <ele>328.39478</ele>
        <time>2023-07-19T15:49:07.000Z</time>
      </trkpt>
      <trkpt lat="45.80829" lon="4.73235">
        <ele>328.32492</ele>
        <time>2023-07-19T15:49:08.000Z</time>
      </trkpt>
      <trkpt lat="45.80824" lon="4.73228">
        <ele>328.21686</ele>
        <time>2023-07-19T15:49:09.000Z</time>
      </trkpt>
      <trkpt lat="45.80818" lon="4.73222">
        <ele>328.06326</ele>
        <time>2023-07-19T15:49:10.000Z</time>
      </trkpt>
      <trkpt lat="45.80812" lon="4.73216">
        <ele>327.85275</ele>
        <time>2023-07-19T15:49:11.000Z</time>
      </trkpt>
      <trkpt lat="45.80806" lon="4.73209">
        <ele>327.61469</ele>
        <time>2023-07-19T15:49:12.000Z</time>
      </trkpt>
      <trkpt lat="45.808" lon="4.73202">
        <ele>327.36346</ele>
        <time>2023-07-19T15:49:13.000Z</time>
      </trkpt>
      <trkpt lat="45.80794" lon="4.73194">
        <ele>327.08813</ele>
        <time>2023-07-19T15:49:14.000Z</time>
      </trkpt>
      <trkpt lat="45.80787" lon="4.73188">
        <ele>326.79285</ele>
        <time>2023-07-19T15:49:15.000Z</time>
      </trkpt>
      <trkpt lat="45.80781" lon="4.73181">
        <ele>326.51135</ele>
        <time>2023-07-19T15:49:16.000Z</time>
      </trkpt>
      <trkpt lat="45.80775" lon="4.73175">
        <ele>326.22238</ele>
        <time>2023-07-19T15:49:17.000Z</time>
      </trkpt>
      <trkpt lat="45.80769" lon="4.73168">
        <ele>325.91135</ele>
        <time>2023-07-19T15:49:18.000Z</time>
      </trkpt>
      <trkpt lat="45.80763" lon="4.73162">
        <ele>325.60785</ele>
        <time>2023-07-19T15:49:19.000Z</time>
      </trkpt>
      <trkpt lat="45.80756" lon="4.73156">
        <ele>325.27701</ele>
        <time>2023-07-19T15:49:20.000Z</time>
      </trkpt>
      <trkpt lat="45.8075" lon="4.7315">
        <ele>324.95175</ele>
        <time>2023-07-19T15:49:21.000Z</time>
      </trkpt>
      <trkpt lat="45.80744" lon="4.73145">
        <ele>324.63721</ele>
        <time>2023-07-19T15:49:22.000Z</time>
      </trkpt>
      <trkpt lat="45.80737" lon="4.73138">
        <ele>324.32022</ele>
        <time>2023-07-19T15:49:23.000Z</time>
      </trkpt>
      <trkpt lat="45.80731" lon="4.73132">
        <ele>323.97781</ele>
        <time>2023-07-19T15:49:24.000Z</time>
      </trkpt>
      <trkpt lat="45.80725" lon="4.73125">
        <ele>323.66962</ele>
        <time>2023-07-19T15:49:25.000Z</time>
      </trkpt>
      <trkpt lat="45.80718" lon="4.73119">
        <ele>323.36407</ele>
        <time>2023-07-19T15:49:26.000Z</time>
      </trkpt>
      <trkpt lat="45.80712" lon="4.73113">
        <ele>323.05685</ele>
        <time>2023-07-19T15:49:27.000Z</time>
      </trkpt>
      <trkpt lat="45.80706" lon="4.73106">
        <ele>322.77734</ele>
        <time>2023-07-19T15:49:28.000Z</time>
      </trkpt>
      <trkpt lat="45.80701" lon="4.73101">
        <ele>322.5145</ele>
        <time>2023-07-19T15:49:29.000Z</time>
      </trkpt>
      <trkpt lat="45.80695" lon="4.73095">
        <ele>322.26389</ele>
        <time>2023-07-19T15:49:30.000Z</time>
      </trkpt>
      <trkpt lat="45.80689" lon="4.73088">
        <ele>322.05469</ele>
        <time>2023-07-19T15:49:31.000Z</time>
      </trkpt>
      <trkpt lat="45.80683" lon="4.73081">
        <ele>321.83975</ele>
        <time>2023-07-19T15:49:32.000Z</time>
      </trkpt>
      <trkpt lat="45.80677" lon="4.73075">
        <ele>321.65463</ele>
        <time>2023-07-19T15:49:33.000Z</time>
      </trkpt>
      <trkpt lat="45.80672" lon="4.73068">
        <ele>321.48151</ele>
        <time>2023-07-19T15:49:34.000Z</time>
      </trkpt>
      <trkpt lat="45.80667" lon="4.7306">
        <ele>321.30389</ele>
        <time>2023-07-19T15:49:35.000Z</time>
      </trkpt>
      <trkpt lat="45.80662" lon="4.7305">
        <ele>321.09885</ele>
        <time>2023-07-19T15:49:36.000Z</time>
      </trkpt>
      <trkpt lat="45.80657" lon="4.73041">
        <ele>320.92743</ele>
        <time>2023-07-19T15:49:37.000Z</time>
      </trkpt>
      <trkpt lat="45.80652" lon="4.73033">
        <ele>320.73248</ele>
        <time>2023-07-19T15:49:38.000Z</time>
      </trkpt>
      <trkpt lat="45.80647" lon="4.73024">
        <ele>320.52728</ele>
        <time>2023-07-19T15:49:39.000Z</time>
      </trkpt>
      <trkpt lat="45.80644" lon="4.73016">
        <ele>320.32867</ele>
        <time>2023-07-19T15:49:40.000Z</time>
      </trkpt>
      <trkpt lat="45.8064" lon="4.73007">
        <ele>320.10501</ele>
        <time>2023-07-19T15:49:41.000Z</time>
      </trkpt>
      <trkpt lat="45.80635" lon="4.72998">
        <ele>319.85675</ele>
        <time>2023-07-19T15:49:42.000Z</time>
      </trkpt>
      <trkpt lat="45.80629" lon="4.7299">
        <ele>319.61478</ele>
        <time>2023-07-19T15:49:43.000Z</time>
      </trkpt>
      <trkpt lat="45.80623" lon="4.72983">
        <ele>319.36218</ele>
        <time>2023-07-19T15:49:44.000Z</time>
      </trkpt>
      <trkpt lat="45.80618" lon="4.72977">
        <ele>319.08173</ele>
        <time>2023-07-19T15:49:45.000Z</time>
      </trkpt>
      <trkpt lat="45.80612" lon="4.72971">
        <ele>318.76877</ele>
        <time>2023-07-19T15:49:46.000Z</time>
      </trkpt>
      <trkpt lat="45.80608" lon="4.72965">
        <ele>318.46426</ele>
        <time>2023-07-19T15:49:47.000Z</time>
      </trkpt>
      <trkpt lat="45.80603" lon="4.7296">
        <ele>318.15619</ele>
        <time>2023-07-19T15:49:48.000Z</time>
      </trkpt>
      <trkpt lat="45.80599" lon="4.72956">
        <ele>317.87589</ele>
        <time>2023-07-19T15:49:49.000Z</time>
      </trkpt>
      <trkpt lat="45.80594" lon="4.72954">
        <ele>317.58749</ele>
        <time>2023-07-19T15:49:50.000Z</time>
      </trkpt>
      <trkpt lat="45.8059" lon="4.72954">
        <ele>317.34247</ele>
        <time>2023-07-19T15:49:51.000Z</time>
      </trkpt>
      <trkpt lat="45.80586" lon="4.72956">
        <ele>317.1098</ele>
        <time>2023-07-19T15:49:52.000Z</time>
      </trkpt>
      <trkpt lat="45.80582" lon="4.72958">
        <ele>316.87277</ele>
        <time>2023-07-19T15:49:53.000Z</time>
      </trkpt>
      <trkpt lat="45.80579" lon="4.72962">
        <ele>316.6463</ele>
        <time>2023-07-19T15:49:54.000Z</time>
      </trkpt>
      <trkpt lat="45.80576" lon="4.72966">
        <ele>316.44101</ele>
        <time>2023-07-19T15:49:55.000Z</time>
      </trkpt>
      <trkpt lat="45.80573" lon="4.72971">
        <ele>316.25922</ele>
        <time>2023-07-19T15:49:56.000Z</time>
      </trkpt>
      <trkpt lat="45.80571" lon="4.72978">
        <ele>316.03546</ele>
        <time>2023-07-19T15:49:57.000Z</time>
      </trkpt>
      <trkpt lat="45.80567" lon="4.72983">
        <ele>315.83469</ele>
        <time>2023-07-19T15:49:58.000Z</time>
      </trkpt>
      <trkpt lat="45.80565" lon="4.72989">
        <ele>315.646</ele>
        <time>2023-07-19T15:49:59.000Z</time>
      </trkpt>
      <trkpt lat="45.80562" lon="4.72994">
        <ele>315.47894</ele>
        <time>2023-07-19T15:50:00.000Z</time>
      </trkpt>
      <trkpt lat="45.80559" lon="4.72999">
        <ele>315.35236</ele>
        <time>2023-07-19T15:50:01.000Z</time>
      </trkpt>
      <trkpt lat="45.80556" lon="4.73003">
        <ele>315.24619</ele>
        <time>2023-07-19T15:50:02.000Z</time>
      </trkpt>
      <trkpt lat="45.80553" lon="4.73008">
        <ele>315.15854</ele>
        <time>2023-07-19T15:50:03.000Z</time>
      </trkpt>
      <trkpt lat="45.8055" lon="4.73013">
        <ele>315.08298</ele>
        <time>2023-07-19T15:50:04.000Z</time>
      </trkpt>
      <trkpt lat="45.80548" lon="4.73017">
        <ele>315.05911</ele>
        <time>2023-07-19T15:50:05.000Z</time>
      </trkpt>
      <trkpt lat="45.80545" lon="4.73022">
        <ele>315.06183</ele>
        <time>2023-07-19T15:50:06.000Z</time>
      </trkpt>
      <trkpt lat="45.80544" lon="4.73027">
        <ele>315.06958</ele>
        <time>2023-07-19T15:50:07.000Z</time>
      </trkpt>
      <trkpt lat="45.80541" lon="4.73031">
        <ele>315.1218</ele>
        <time>2023-07-19T15:50:08.000Z</time>
      </trkpt>
      <trkpt lat="45.80539" lon="4.73035">
        <ele>315.17154</ele>
        <time>2023-07-19T15:50:09.000Z</time>
      </trkpt>
      <trkpt lat="45.80536" lon="4.7304">
        <ele>315.26715</ele>
        <time>2023-07-19T15:50:10.000Z</time>
      </trkpt>
      <trkpt lat="45.80534" lon="4.73045">
        <ele>315.34506</ele>
        <time>2023-07-19T15:50:11.000Z</time>
      </trkpt>
      <trkpt lat="45.80532" lon="4.7305">
        <ele>315.44168</ele>
        <time>2023-07-19T15:50:12.000Z</time>
      </trkpt>
      <trkpt lat="45.80529" lon="4.73054">
        <ele>315.61237</ele>
        <time>2023-07-19T15:50:13.000Z</time>
      </trkpt>
      <trkpt lat="45.80527" lon="4.73058">
        <ele>315.7764</ele>
        <time>2023-07-19T15:50:14.000Z</time>
      </trkpt>
      <trkpt lat="45.80525" lon="4.73063">
        <ele>315.90918</ele>
        <time>2023-07-19T15:50:15.000Z</time>
      </trkpt>
      <trkpt lat="45.80522" lon="4.73067">
        <ele>316.03842</ele>
        <time>2023-07-19T15:50:16.000Z</time>
      </trkpt>
      <trkpt lat="45.8052" lon="4.73072">
        <ele>316.17856</ele>
        <time>2023-07-19T15:50:17.000Z</time>
      </trkpt>
      <trkpt lat="45.80518" lon="4.73076">
        <ele>316.3356</ele>
        <time>2023-07-19T15:50:18.000Z</time>
      </trkpt>
      <trkpt lat="45.80515" lon="4.7308">
        <ele>316.51703</ele>
        <time>2023-07-19T15:50:19.000Z</time>
      </trkpt>
      <trkpt lat="45.80513" lon="4.73085">
        <ele>316.68201</ele>
        <time>2023-07-19T15:50:20.000Z</time>
      </trkpt>
      <trkpt lat="45.80511" lon="4.73089">
        <ele>316.80951</ele>
        <time>2023-07-19T15:50:21.000Z</time>
      </trkpt>
      <trkpt lat="45.80508" lon="4.73094">
        <ele>316.93857</ele>
        <time>2023-07-19T15:50:22.000Z</time>
      </trkpt>
      <trkpt lat="45.80506" lon="4.73098">
        <ele>317.0462</ele>
        <time>2023-07-19T15:50:23.000Z</time>
      </trkpt>
      <trkpt lat="45.80504" lon="4.73102">
        <ele>317.16333</ele>
        <time>2023-07-19T15:50:24.000Z</time>
      </trkpt>
      <trkpt lat="45.80503" lon="4.73109">
        <ele>317.27264</ele>
        <time>2023-07-19T15:50:25.000Z</time>
      </trkpt>
      <trkpt lat="45.805" lon="4.73115">
        <ele>317.45367</ele>
        <time>2023-07-19T15:50:26.000Z</time>
      </trkpt>
      <trkpt lat="45.80496" lon="4.73119">
        <ele>317.61139</ele>
        <time>2023-07-19T15:50:27.000Z</time>
      </trkpt>
      <trkpt lat="45.80491" lon="4.73126">
        <ele>317.71716</ele>
        <time>2023-07-19T15:50:28.000Z</time>
      </trkpt>
      <trkpt lat="45.80486" lon="4.73129">
        <ele>317.84592</ele>
        <time>2023-07-19T15:50:29.000Z</time>
      </trkpt>
      <trkpt lat="45.80479" lon="4.73132">
        <ele>317.91232</ele>
        <time>2023-07-19T15:50:30.000Z</time>
      </trkpt>
      <trkpt lat="45.80472" lon="4.73138">
        <ele>317.97565</ele>
        <time>2023-07-19T15:50:31.000Z</time>
      </trkpt>
      <trkpt lat="45.80466" lon="4.7314">
        <ele>318.12067</ele>
        <time>2023-07-19T15:50:32.000Z</time>
      </trkpt>
      <trkpt lat="45.80461" lon="4.73146">
        <ele>317.98529</ele>
        <time>2023-07-19T15:50:33.000Z</time>
      </trkpt>
      <trkpt lat="45.80453" lon="4.73149">
        <ele>317.77008</ele>
        <time>2023-07-19T15:50:34.000Z</time>
      </trkpt>
      <trkpt lat="45.80447" lon="4.73152">
        <ele>317.60458</ele>
        <time>2023-07-19T15:50:35.000Z</time>
      </trkpt>
      <trkpt lat="45.80441" lon="4.73154">
        <ele>317.41986</ele>
        <time>2023-07-19T15:50:36.000Z</time>
      </trkpt>
      <trkpt lat="45.80435" lon="4.7316">
        <ele>317.26315</ele>
        <time>2023-07-19T15:50:37.000Z</time>
      </trkpt>
      <trkpt lat="45.80429" lon="4.73163">
        <ele>317.08777</ele>
        <time>2023-07-19T15:50:38.000Z</time>
      </trkpt>
      <trkpt lat="45.80422" lon="4.73166">
        <ele>316.92194</ele>
        <time>2023-07-19T15:50:39.000Z</time>
      </trkpt>
      <trkpt lat="45.80414" lon="4.73172">
        <ele>316.72638</ele>
        <time>2023-07-19T15:50:40.000Z</time>
      </trkpt>
      <trkpt lat="45.80408" lon="4.73177">
        <ele>316.65607</ele>
        <time>2023-07-19T15:50:41.000Z</time>
      </trkpt>
      <trkpt lat="45.80401" lon="4.73182">
        <ele>316.37634</ele>
        <time>2023-07-19T15:50:42.000Z</time>
      </trkpt>
      <trkpt lat="45.80393" lon="4.73188">
        <ele>316.14743</ele>
        <time>2023-07-19T15:50:43.000Z</time>
      </trkpt>
      <trkpt lat="45.80387" lon="4.73192">
        <ele>315.92664</ele>
        <time>2023-07-19T15:50:44.000Z</time>
      </trkpt>
      <trkpt lat="45.80377" lon="4.73197">
        <ele>315.70007</ele>
        <time>2023-07-19T15:50:45.000Z</time>
      </trkpt>
      <trkpt lat="45.80371" lon="4.73203">
        <ele>315.29956</ele>
        <time>2023-07-19T15:50:46.000Z</time>
      </trkpt>
      <trkpt lat="45.80366" lon="4.73207">
        <ele>314.9346</ele>
        <time>2023-07-19T15:50:47.000Z</time>
      </trkpt>
      <trkpt lat="45.8036" lon="4.73208">
        <ele>314.612</ele>
        <time>2023-07-19T15:50:48.000Z</time>
      </trkpt>
      <trkpt lat="45.80355" lon="4.73211">
        <ele>314.46625</ele>
        <time>2023-07-19T15:50:49.000Z</time>
      </trkpt>
      <trkpt lat="45.80352" lon="4.73217">
        <ele>314.26895</ele>
        <time>2023-07-19T15:50:50.000Z</time>
      </trkpt>
      <trkpt lat="45.80349" lon="4.73223">
        <ele>314.10071</ele>
        <time>2023-07-19T15:50:51.000Z</time>
      </trkpt>
      <trkpt lat="45.80348" lon="4.7323">
        <ele>313.48358</ele>
        <time>2023-07-19T15:50:52.000Z</time>
      </trkpt>
      <trkpt lat="45.80346" lon="4.73235">
        <ele>313.2428</ele>
        <time>2023-07-19T15:50:53.000Z</time>
      </trkpt>
      <trkpt lat="45.80342" lon="4.73241">
        <ele>313.00708</ele>
        <time>2023-07-19T15:50:54.000Z</time>
      </trkpt>
      <trkpt lat="45.80339" lon="4.73246">
        <ele>312.77264</ele>
        <time>2023-07-19T15:50:55.000Z</time>
      </trkpt>
      <trkpt lat="45.80335" lon="4.73251">
        <ele>312.55746</ele>
        <time>2023-07-19T15:50:56.000Z</time>
      </trkpt>
      <trkpt lat="45.80331" lon="4.73254">
        <ele>312.2074</ele>
        <time>2023-07-19T15:50:57.000Z</time>
      </trkpt>
      <trkpt lat="45.80326" lon="4.73255">
        <ele>311.79437</ele>
        <time>2023-07-19T15:50:58.000Z</time>
      </trkpt>
      <trkpt lat="45.80322" lon="4.73256">
        <ele>311.40994</ele>
        <time>2023-07-19T15:50:59.000Z</time>
      </trkpt>
      <trkpt lat="45.80317" lon="4.73252">
        <ele>310.93872</ele>
        <time>2023-07-19T15:51:00.000Z</time>
      </trkpt>
      <trkpt lat="45.80312" lon="4.7325">
        <ele>310.58636</ele>
        <time>2023-07-19T15:51:01.000Z</time>
      </trkpt>
      <trkpt lat="45.80308" lon="4.73249">
        <ele>310.46689</ele>
        <time>2023-07-19T15:51:02.000Z</time>
      </trkpt>
      <trkpt lat="45.80303" lon="4.73247">
        <ele>310.33878</ele>
        <time>2023-07-19T15:51:03.000Z</time>
      </trkpt>
      <trkpt lat="45.80298" lon="4.73245">
        <ele>310.21518</ele>
        <time>2023-07-19T15:51:04.000Z</time>
      </trkpt>
      <trkpt lat="45.80293" lon="4.73245">
        <ele>310.09158</ele>
        <time>2023-07-19T15:51:05.000Z</time>
      </trkpt>
      <trkpt lat="45.80289" lon="4.73246">
        <ele>310.08188</ele>
        <time>2023-07-19T15:51:06.000Z</time>
      </trkpt>
      <trkpt lat="45.80284" lon="4.73248">
        <ele>310.08316</ele>
        <time>2023-07-19T15:51:07.000Z</time>
      </trkpt>
      <trkpt lat="45.8028" lon="4.73249">
        <ele>310.08426</ele>
        <time>2023-07-19T15:51:08.000Z</time>
      </trkpt>
      <trkpt lat="45.80276" lon="4.73249">
        <ele>309.86423</ele>
        <time>2023-07-19T15:51:09.000Z</time>
      </trkpt>
      <trkpt lat="45.80271" lon="4.7325">
        <ele>309.7327</ele>
        <time>2023-07-19T15:51:10.000Z</time>
      </trkpt>
      <trkpt lat="45.80267" lon="4.7325">
        <ele>309.59418</ele>
        <time>2023-07-19T15:51:11.000Z</time>
      </trkpt>
      <trkpt lat="45.80262" lon="4.7325">
        <ele>309.84317</ele>
        <time>2023-07-19T15:51:12.000Z</time>
      </trkpt>
      <trkpt lat="45.80258" lon="4.73251">
        <ele>309.91867</ele>
        <time>2023-07-19T15:51:13.000Z</time>
      </trkpt>
      <trkpt lat="45.80254" lon="4.73253">
        <ele>310.03049</ele>
        <time>2023-07-19T15:51:14.000Z</time>
      </trkpt>
      <trkpt lat="45.8025" lon="4.73254">
        <ele>310.1171</ele>
        <time>2023-07-19T15:51:15.000Z</time>
      </trkpt>
      <trkpt lat="45.80245" lon="4.73254">
        <ele>310.18329</ele>
        <time>2023-07-19T15:51:16.000Z</time>
      </trkpt>
      <trkpt lat="45.80241" lon="4.73256">
        <ele>310.34351</ele>
        <time>2023-07-19T15:51:17.000Z</time>
      </trkpt>
      <trkpt lat="45.80236" lon="4.73256">
        <ele>310.58536</ele>
        <time>2023-07-19T15:51:18.000Z</time>
      </trkpt>
      <trkpt lat="45.80232" lon="4.73256">
        <ele>310.5481</ele>
        <time>2023-07-19T15:51:19.000Z</time>
      </trkpt>
      <trkpt lat="45.80228" lon="4.73256">
        <ele>310.74481</ele>
        <time>2023-07-19T15:51:20.000Z</time>
      </trkpt>
      <trkpt lat="45.80223" lon="4.73256">
        <ele>310.73294</ele>
        <time>2023-07-19T15:51:21.000Z</time>
      </trkpt>
      <trkpt lat="45.80218" lon="4.73256">
        <ele>310.70502</ele>
        <time>2023-07-19T15:51:22.000Z</time>
      </trkpt>
      <trkpt lat="45.80214" lon="4.73256">
        <ele>310.61957</ele>
        <time>2023-07-19T15:51:23.000Z</time>
      </trkpt>
      <trkpt lat="45.80209" lon="4.73256">
        <ele>310.52167</ele>
        <time>2023-07-19T15:51:24.000Z</time>
      </trkpt>
      <trkpt lat="45.80205" lon="4.73255">
        <ele>310.37885</ele>
        <time>2023-07-19T15:51:25.000Z</time>
      </trkpt>
      <trkpt lat="45.80201" lon="4.73254">
        <ele>310.2366</ele>
        <time>2023-07-19T15:51:26.000Z</time>
      </trkpt>
      <trkpt lat="45.80197" lon="4.73255">
        <ele>310.05426</ele>
        <time>2023-07-19T15:51:27.000Z</time>
      </trkpt>
      <trkpt lat="45.80192" lon="4.73256">
        <ele>309.8631</ele>
        <time>2023-07-19T15:51:28.000Z</time>
      </trkpt>
      <trkpt lat="45.80188" lon="4.73257">
        <ele>309.79956</ele>
        <time>2023-07-19T15:51:29.000Z</time>
      </trkpt>
      <trkpt lat="45.80182" lon="4.73257">
        <ele>309.81516</ele>
        <time>2023-07-19T15:51:30.000Z</time>
      </trkpt>
      <trkpt lat="45.80176" lon="4.73257">
        <ele>309.81342</ele>
        <time>2023-07-19T15:51:31.000Z</time>
      </trkpt>
      <trkpt lat="45.80172" lon="4.73257">
        <ele>309.50677</ele>
        <time>2023-07-19T15:51:32.000Z</time>
      </trkpt>
      <trkpt lat="45.80166" lon="4.73257">
        <ele>309.28479</ele>
        <time>2023-07-19T15:51:33.000Z</time>
      </trkpt>
      <trkpt lat="45.8016" lon="4.73258">
        <ele>309.08752</ele>
        <time>2023-07-19T15:51:34.000Z</time>
      </trkpt>
      <trkpt lat="45.80155" lon="4.73257">
        <ele>308.88492</ele>
        <time>2023-07-19T15:51:35.000Z</time>
      </trkpt>
      <trkpt lat="45.80149" lon="4.73257">
        <ele>308.68549</ele>
        <time>2023-07-19T15:51:36.000Z</time>
      </trkpt>
      <trkpt lat="45.80144" lon="4.73257">
        <ele>308.5004</ele>
        <time>2023-07-19T15:51:37.000Z</time>
      </trkpt>
      <trkpt lat="45.80137" lon="4.73257">
        <ele>308.32233</ele>
        <time>2023-07-19T15:51:38.000Z</time>
      </trkpt>
      <trkpt lat="45.80131" lon="4.73255">
        <ele>308.35352</ele>
        <time>2023-07-19T15:51:39.000Z</time>
      </trkpt>
      <trkpt lat="45.80125" lon="4.73256">
        <ele>308.27307</ele>
        <time>2023-07-19T15:51:40.000Z</time>
      </trkpt>
      <trkpt lat="45.8012" lon="4.73256">
        <ele>308.20258</ele>
        <time>2023-07-19T15:51:41.000Z</time>
      </trkpt>
      <trkpt lat="45.80115" lon="4.73257">
        <ele>308.18521</ele>
        <time>2023-07-19T15:51:42.000Z</time>
      </trkpt>
      <trkpt lat="45.80109" lon="4.73259">
        <ele>308.2179</ele>
        <time>2023-07-19T15:51:43.000Z</time>
      </trkpt>
      <trkpt lat="45.80104" lon="4.7326">
        <ele>308.20663</ele>
        <time>2023-07-19T15:51:44.000Z</time>
      </trkpt>
      <trkpt lat="45.80099" lon="4.73262">
        <ele>308.17841</ele>
        <time>2023-07-19T15:51:45.000Z</time>
      </trkpt>
      <trkpt lat="45.80094" lon="4.73264">
        <ele>308.13846</ele>
        <time>2023-07-19T15:51:46.000Z</time>
      </trkpt>
      <trkpt lat="45.80089" lon="4.73266">
        <ele>308.13773</ele>
        <time>2023-07-19T15:51:47.000Z</time>
      </trkpt>
      <trkpt lat="45.80084" lon="4.73268">
        <ele>308.12323</ele>
        <time>2023-07-19T15:51:48.000Z</time>
      </trkpt>
      <trkpt lat="45.80079" lon="4.7327">
        <ele>307.979</ele>
        <time>2023-07-19T15:51:49.000Z</time>
      </trkpt>
      <trkpt lat="45.80073" lon="4.73272">
        <ele>307.75244</ele>
        <time>2023-07-19T15:51:50.000Z</time>
      </trkpt>
      <trkpt lat="45.80068" lon="4.73273">
        <ele>307.60046</ele>
        <time>2023-07-19T15:51:51.000Z</time>
      </trkpt>
      <trkpt lat="45.80063" lon="4.73275">
        <ele>307.68921</ele>
        <time>2023-07-19T15:51:52.000Z</time>
      </trkpt>
      <trkpt lat="45.80057" lon="4.73276">
        <ele>307.68948</ele>
        <time>2023-07-19T15:51:53.000Z</time>
      </trkpt>
      <trkpt lat="45.80052" lon="4.73277">
        <ele>307.82434</ele>
        <time>2023-07-19T15:51:54.000Z</time>
      </trkpt>
      <trkpt lat="45.80047" lon="4.73279">
        <ele>307.93411</ele>
        <time>2023-07-19T15:51:55.000Z</time>
      </trkpt>
      <trkpt lat="45.80042" lon="4.73281">
        <ele>308.05087</ele>
        <time>2023-07-19T15:51:56.000Z</time>
      </trkpt>
      <trkpt lat="45.80037" lon="4.73283">
        <ele>308.18573</ele>
        <time>2023-07-19T15:51:57.000Z</time>
      </trkpt>
      <trkpt lat="45.80032" lon="4.73284">
        <ele>308.31757</ele>
        <time>2023-07-19T15:51:58.000Z</time>
      </trkpt>
      <trkpt lat="45.80027" lon="4.73285">
        <ele>308.46286</ele>
        <time>2023-07-19T15:51:59.000Z</time>
      </trkpt>
      <trkpt lat="45.80022" lon="4.73286">
        <ele>308.61194</ele>
        <time>2023-07-19T15:52:00.000Z</time>
      </trkpt>
      <trkpt lat="45.80018" lon="4.73287">
        <ele>308.74265</ele>
        <time>2023-07-19T15:52:01.000Z</time>
      </trkpt>
      <trkpt lat="45.80012" lon="4.73288">
        <ele>308.82605</ele>
        <time>2023-07-19T15:52:02.000Z</time>
      </trkpt>
      <trkpt lat="45.80007" lon="4.73289">
        <ele>308.87933</ele>
        <time>2023-07-19T15:52:03.000Z</time>
      </trkpt>
      <trkpt lat="45.80002" lon="4.73289">
        <ele>308.97351</ele>
        <time>2023-07-19T15:52:04.000Z</time>
      </trkpt>
      <trkpt lat="45.79997" lon="4.7329">
        <ele>309.10352</ele>
        <time>2023-07-19T15:52:05.000Z</time>
      </trkpt>
      <trkpt lat="45.79991" lon="4.73289">
        <ele>309.21289</ele>
        <time>2023-07-19T15:52:06.000Z</time>
      </trkpt>
      <trkpt lat="45.79986" lon="4.7329">
        <ele>309.28882</ele>
        <time>2023-07-19T15:52:07.000Z</time>
      </trkpt>
      <trkpt lat="45.79981" lon="4.73292">
        <ele>309.38617</ele>
        <time>2023-07-19T15:52:08.000Z</time>
      </trkpt>
      <trkpt lat="45.79976" lon="4.73294">
        <ele>309.50995</ele>
        <time>2023-07-19T15:52:09.000Z</time>
      </trkpt>
      <trkpt lat="45.7997" lon="4.73296">
        <ele>309.73819</ele>
        <time>2023-07-19T15:52:10.000Z</time>
      </trkpt>
      <trkpt lat="45.79965" lon="4.73302">
        <ele>309.89117</ele>
        <time>2023-07-19T15:52:11.000Z</time>
      </trkpt>
      <trkpt lat="45.79961" lon="4.73308">
        <ele>309.76993</ele>
        <time>2023-07-19T15:52:12.000Z</time>
      </trkpt>
      <trkpt lat="45.79959" lon="4.73315">
        <ele>309.70926</ele>
        <time>2023-07-19T15:52:13.000Z</time>
      </trkpt>
      <trkpt lat="45.79958" lon="4.73322">
        <ele>309.53784</ele>
        <time>2023-07-19T15:52:14.000Z</time>
      </trkpt>
      <trkpt lat="45.79958" lon="4.7333">
        <ele>309.41058</ele>
        <time>2023-07-19T15:52:15.000Z</time>
      </trkpt>
      <trkpt lat="45.79959" lon="4.73338">
        <ele>309.28979</ele>
        <time>2023-07-19T15:52:16.000Z</time>
      </trkpt>
      <trkpt lat="45.7996" lon="4.73346">
        <ele>309.14151</ele>
        <time>2023-07-19T15:52:17.000Z</time>
      </trkpt>
      <trkpt lat="45.79961" lon="4.73352">
        <ele>308.98758</ele>
        <time>2023-07-19T15:52:18.000Z</time>
      </trkpt>
      <trkpt lat="45.79963" lon="4.73359">
        <ele>308.828</ele>
        <time>2023-07-19T15:52:19.000Z</time>
      </trkpt>
      <trkpt lat="45.79964" lon="4.73366">
        <ele>308.67886</ele>
        <time>2023-07-19T15:52:20.000Z</time>
      </trkpt>
      <trkpt lat="45.79965" lon="4.73373">
        <ele>308.54529</ele>
        <time>2023-07-19T15:52:21.000Z</time>
      </trkpt>
      <trkpt lat="45.79964" lon="4.7338">
        <ele>308.42477</ele>
        <time>2023-07-19T15:52:22.000Z</time>
      </trkpt>
      <trkpt lat="45.79962" lon="4.73386">
        <ele>308.30759</ele>
        <time>2023-07-19T15:52:23.000Z</time>
      </trkpt>
      <trkpt lat="45.79958" lon="4.73393">
        <ele>308.1972</ele>
        <time>2023-07-19T15:52:24.000Z</time>
      </trkpt>
      <trkpt lat="45.79953" lon="4.73397">
        <ele>308.077</ele>
        <time>2023-07-19T15:52:25.000Z</time>
      </trkpt>
      <trkpt lat="45.79948" lon="4.73401">
        <ele>307.96753</ele>
        <time>2023-07-19T15:52:26.000Z</time>
      </trkpt>
      <trkpt lat="45.79943" lon="4.73405">
        <ele>307.86121</ele>
        <time>2023-07-19T15:52:27.000Z</time>
      </trkpt>
      <trkpt lat="45.79938" lon="4.73408">
        <ele>307.73654</ele>
        <time>2023-07-19T15:52:28.000Z</time>
      </trkpt>
      <trkpt lat="45.79932" lon="4.73412">
        <ele>307.74039</ele>
        <time>2023-07-19T15:52:29.000Z</time>
      </trkpt>
      <trkpt lat="45.79927" lon="4.73416">
        <ele>307.61453</ele>
        <time>2023-07-19T15:52:30.000Z</time>
      </trkpt>
      <trkpt lat="45.7992" lon="4.73419">
        <ele>307.4855</ele>
        <time>2023-07-19T15:52:31.000Z</time>
      </trkpt>
      <trkpt lat="45.79915" lon="4.73426">
        <ele>307.57822</ele>
        <time>2023-07-19T15:52:32.000Z</time>
      </trkpt>
      <trkpt lat="45.79908" lon="4.7343">
        <ele>307.61945</ele>
        <time>2023-07-19T15:52:33.000Z</time>
      </trkpt>
      <trkpt lat="45.79902" lon="4.73433">
        <ele>307.64545</ele>
        <time>2023-07-19T15:52:34.000Z</time>
      </trkpt>
      <trkpt lat="45.79896" lon="4.73436">
        <ele>307.655</ele>
        <time>2023-07-19T15:52:35.000Z</time>
      </trkpt>
      <trkpt lat="45.79889" lon="4.73435">
        <ele>307.65402</ele>
        <time>2023-07-19T15:52:36.000Z</time>
      </trkpt>
      <trkpt lat="45.79883" lon="4.73432">
        <ele>307.75385</ele>
        <time>2023-07-19T15:52:37.000Z</time>
      </trkpt>
      <trkpt lat="45.79876" lon="4.7343">
        <ele>307.84119</ele>
        <time>2023-07-19T15:52:38.000Z</time>
      </trkpt>
      <trkpt lat="45.79871" lon="4.73428">
        <ele>307.94199</ele>
        <time>2023-07-19T15:52:39.000Z</time>
      </trkpt>
      <trkpt lat="45.79863" lon="4.73426">
        <ele>308.05185</ele>
        <time>2023-07-19T15:52:40.000Z</time>
      </trkpt>
      <trkpt lat="45.79858" lon="4.73424">
        <ele>308.18161</ele>
        <time>2023-07-19T15:52:41.000Z</time>
      </trkpt>
      <trkpt lat="45.79851" lon="4.73423">
        <ele>308.04907</ele>
        <time>2023-07-19T15:52:42.000Z</time>
      </trkpt>
      <trkpt lat="45.79846" lon="4.73421">
        <ele>307.96344</ele>
        <time>2023-07-19T15:52:43.000Z</time>
      </trkpt>
      <trkpt lat="45.79839" lon="4.73416">
        <ele>307.86447</ele>
        <time>2023-07-19T15:52:44.000Z</time>
      </trkpt>
      <trkpt lat="45.79832" lon="4.73415">
        <ele>307.81638</ele>
        <time>2023-07-19T15:52:45.000Z</time>
      </trkpt>
      <trkpt lat="45.79826" lon="4.73414">
        <ele>307.82022</ele>
        <time>2023-07-19T15:52:46.000Z</time>
      </trkpt>
      <trkpt lat="45.79821" lon="4.73413">
        <ele>307.82281</ele>
        <time>2023-07-19T15:52:47.000Z</time>
      </trkpt>
      <trkpt lat="45.79815" lon="4.73412">
        <ele>307.7912</ele>
        <time>2023-07-19T15:52:48.000Z</time>
      </trkpt>
      <trkpt lat="45.79809" lon="4.73411">
        <ele>307.72086</ele>
        <time>2023-07-19T15:52:49.000Z</time>
      </trkpt>
      <trkpt lat="45.79801" lon="4.73409">
        <ele>307.66672</ele>
        <time>2023-07-19T15:52:50.000Z</time>
      </trkpt>
      <trkpt lat="45.79795" lon="4.73407">
        <ele>307.60358</ele>
        <time>2023-07-19T15:52:51.000Z</time>
      </trkpt>
      <trkpt lat="45.79789" lon="4.73406">
        <ele>307.59067</ele>
        <time>2023-07-19T15:52:52.000Z</time>
      </trkpt>
      <trkpt lat="45.79782" lon="4.73402">
        <ele>307.59668</ele>
        <time>2023-07-19T15:52:53.000Z</time>
      </trkpt>
      <trkpt lat="45.79777" lon="4.73401">
        <ele>307.62482</ele>
        <time>2023-07-19T15:52:54.000Z</time>
      </trkpt>
      <trkpt lat="45.79771" lon="4.73398">
        <ele>307.7085</ele>
        <time>2023-07-19T15:52:55.000Z</time>
      </trkpt>
      <trkpt lat="45.79765" lon="4.73395">
        <ele>307.88177</ele>
        <time>2023-07-19T15:52:56.000Z</time>
      </trkpt>
      <trkpt lat="45.7976" lon="4.73394">
        <ele>308.03119</ele>
        <time>2023-07-19T15:52:57.000Z</time>
      </trkpt>
      <trkpt lat="45.79754" lon="4.73394">
        <ele>308.17651</ele>
        <time>2023-07-19T15:52:58.000Z</time>
      </trkpt>
      <trkpt lat="45.79749" lon="4.73398">
        <ele>308.30496</ele>
        <time>2023-07-19T15:52:59.000Z</time>
      </trkpt>
      <trkpt lat="45.79743" lon="4.73401">
        <ele>308.38101</ele>
        <time>2023-07-19T15:53:00.000Z</time>
      </trkpt>
      <trkpt lat="45.79736" lon="4.73403">
        <ele>308.5043</ele>
        <time>2023-07-19T15:53:01.000Z</time>
      </trkpt>
      <trkpt lat="45.79731" lon="4.73406">
        <ele>308.45184</ele>
        <time>2023-07-19T15:53:02.000Z</time>
      </trkpt>
      <trkpt lat="45.79725" lon="4.73408">
        <ele>308.40097</ele>
        <time>2023-07-19T15:53:03.000Z</time>
      </trkpt>
      <trkpt lat="45.79719" lon="4.73409">
        <ele>308.28287</ele>
        <time>2023-07-19T15:53:04.000Z</time>
      </trkpt>
      <trkpt lat="45.79712" lon="4.7341">
        <ele>308.10153</ele>
        <time>2023-07-19T15:53:05.000Z</time>
      </trkpt>
      <trkpt lat="45.79706" lon="4.73413">
        <ele>307.89569</ele>
        <time>2023-07-19T15:53:06.000Z</time>
      </trkpt>
      <trkpt lat="45.797" lon="4.73415">
        <ele>307.66586</ele>
        <time>2023-07-19T15:53:07.000Z</time>
      </trkpt>
      <trkpt lat="45.79693" lon="4.73416">
        <ele>307.49237</ele>
        <time>2023-07-19T15:53:08.000Z</time>
      </trkpt>
      <trkpt lat="45.79686" lon="4.73418">
        <ele>307.2002</ele>
        <time>2023-07-19T15:53:09.000Z</time>
      </trkpt>
      <trkpt lat="45.7968" lon="4.73421">
        <ele>306.93146</ele>
        <time>2023-07-19T15:53:10.000Z</time>
      </trkpt>
      <trkpt lat="45.79673" lon="4.73423">
        <ele>306.64206</ele>
        <time>2023-07-19T15:53:11.000Z</time>
      </trkpt>
      <trkpt lat="45.79666" lon="4.73425">
        <ele>306.39188</ele>
        <time>2023-07-19T15:53:12.000Z</time>
      </trkpt>
      <trkpt lat="45.79658" lon="4.73428">
        <ele>306.12531</ele>
        <time>2023-07-19T15:53:13.000Z</time>
      </trkpt>
      <trkpt lat="45.79651" lon="4.73429">
        <ele>305.82578</ele>
        <time>2023-07-19T15:53:14.000Z</time>
      </trkpt>
      <trkpt lat="45.79643" lon="4.7343">
        <ele>305.45956</ele>
        <time>2023-07-19T15:53:15.000Z</time>
      </trkpt>
      <trkpt lat="45.79636" lon="4.73432">
        <ele>305.01306</ele>
        <time>2023-07-19T15:53:16.000Z</time>
      </trkpt>
      <trkpt lat="45.79629" lon="4.73434">
        <ele>304.48846</ele>
        <time>2023-07-19T15:53:17.000Z</time>
      </trkpt>
      <trkpt lat="45.79621" lon="4.73435">
        <ele>303.96796</ele>
        <time>2023-07-19T15:53:18.000Z</time>
      </trkpt>
      <trkpt lat="45.79614" lon="4.73437">
        <ele>303.45245</ele>
        <time>2023-07-19T15:53:19.000Z</time>
      </trkpt>
      <trkpt lat="45.79605" lon="4.73439">
        <ele>302.95499</ele>
        <time>2023-07-19T15:53:20.000Z</time>
      </trkpt>
      <trkpt lat="45.79598" lon="4.73439">
        <ele>302.33789</ele>
        <time>2023-07-19T15:53:21.000Z</time>
      </trkpt>
      <trkpt lat="45.7959" lon="4.73441">
        <ele>302.07849</ele>
        <time>2023-07-19T15:53:22.000Z</time>
      </trkpt>
      <trkpt lat="45.79581" lon="4.73442">
        <ele>301.73965</ele>
        <time>2023-07-19T15:53:23.000Z</time>
      </trkpt>
      <trkpt lat="45.79573" lon="4.73444">
        <ele>301.44849</ele>
        <time>2023-07-19T15:53:24.000Z</time>
      </trkpt>
      <trkpt lat="45.79564" lon="4.73446">
        <ele>301.1734</ele>
        <time>2023-07-19T15:53:25.000Z</time>
      </trkpt>
      <trkpt lat="45.79555" lon="4.73447">
        <ele>300.85406</ele>
        <time>2023-07-19T15:53:26.000Z</time>
      </trkpt>
      <trkpt lat="45.79546" lon="4.7345">
        <ele>300.56125</ele>
        <time>2023-07-19T15:53:27.000Z</time>
      </trkpt>
      <trkpt lat="45.79537" lon="4.73454">
        <ele>300.24249</ele>
        <time>2023-07-19T15:53:28.000Z</time>
      </trkpt>
      <trkpt lat="45.79528" lon="4.73457">
        <ele>299.92575</ele>
        <time>2023-07-19T15:53:29.000Z</time>
      </trkpt>
      <trkpt lat="45.7952" lon="4.7346">
        <ele>299.57831</ele>
        <time>2023-07-19T15:53:30.000Z</time>
      </trkpt>
      <trkpt lat="45.79511" lon="4.73465">
        <ele>299.2713</ele>
        <time>2023-07-19T15:53:31.000Z</time>
      </trkpt>
      <trkpt lat="45.79502" lon="4.7347">
        <ele>298.92078</ele>
        <time>2023-07-19T15:53:32.000Z</time>
      </trkpt>
      <trkpt lat="45.79494" lon="4.73476">
        <ele>298.55084</ele>
        <time>2023-07-19T15:53:33.000Z</time>
      </trkpt>
      <trkpt lat="45.79485" lon="4.73481">
        <ele>298.17929</ele>
        <time>2023-07-19T15:53:34.000Z</time>
      </trkpt>
      <trkpt lat="45.79478" lon="4.73487">
        <ele>297.8161</ele>
        <time>2023-07-19T15:53:35.000Z</time>
      </trkpt>
      <trkpt lat="45.7947" lon="4.73494">
        <ele>297.44043</ele>
        <time>2023-07-19T15:53:36.000Z</time>
      </trkpt>
      <trkpt lat="45.79461" lon="4.73501">
        <ele>297.03677</ele>
        <time>2023-07-19T15:53:37.000Z</time>
      </trkpt>
      <trkpt lat="45.79453" lon="4.73507">
        <ele>296.61816</ele>
        <time>2023-07-19T15:53:38.000Z</time>
      </trkpt>
      <trkpt lat="45.79444" lon="4.73511">
        <ele>296.19284</ele>
        <time>2023-07-19T15:53:39.000Z</time>
      </trkpt>
      <trkpt lat="45.79435" lon="4.73515">
        <ele>295.76349</ele>
        <time>2023-07-19T15:53:40.000Z</time>
      </trkpt>
      <trkpt lat="45.79426" lon="4.73517">
        <ele>295.39935</ele>
        <time>2023-07-19T15:53:41.000Z</time>
      </trkpt>
      <trkpt lat="45.79418" lon="4.73517">
        <ele>295.17865</ele>
        <time>2023-07-19T15:53:42.000Z</time>
      </trkpt>
      <trkpt lat="45.79408" lon="4.73517">
        <ele>294.92938</ele>
        <time>2023-07-19T15:53:43.000Z</time>
      </trkpt>
      <trkpt lat="45.79398" lon="4.73515">
        <ele>294.84183</ele>
        <time>2023-07-19T15:53:44.000Z</time>
      </trkpt>
      <trkpt lat="45.7939" lon="4.73512">
        <ele>294.79935</ele>
        <time>2023-07-19T15:53:45.000Z</time>
      </trkpt>
      <trkpt lat="45.79382" lon="4.73508">
        <ele>294.78317</ele>
        <time>2023-07-19T15:53:46.000Z</time>
      </trkpt>
      <trkpt lat="45.79373" lon="4.73504">
        <ele>294.72464</ele>
        <time>2023-07-19T15:53:47.000Z</time>
      </trkpt>
      <trkpt lat="45.79364" lon="4.73498">
        <ele>294.70755</ele>
        <time>2023-07-19T15:53:48.000Z</time>
      </trkpt>
      <trkpt lat="45.79356" lon="4.73494">
        <ele>294.74384</ele>
        <time>2023-07-19T15:53:49.000Z</time>
      </trkpt>
      <trkpt lat="45.79349" lon="4.73489">
        <ele>294.78015</ele>
        <time>2023-07-19T15:53:50.000Z</time>
      </trkpt>
      <trkpt lat="45.79342" lon="4.73483">
        <ele>294.66174</ele>
        <time>2023-07-19T15:53:51.000Z</time>
      </trkpt>
      <trkpt lat="45.79334" lon="4.73478">
        <ele>294.54434</ele>
        <time>2023-07-19T15:53:52.000Z</time>
      </trkpt>
      <trkpt lat="45.79327" lon="4.73474">
        <ele>294.47067</ele>
        <time>2023-07-19T15:53:53.000Z</time>
      </trkpt>
      <trkpt lat="45.79318" lon="4.7347">
        <ele>294.33374</ele>
        <time>2023-07-19T15:53:54.000Z</time>
      </trkpt>
      <trkpt lat="45.7931" lon="4.73465">
        <ele>294.11847</ele>
        <time>2023-07-19T15:53:55.000Z</time>
      </trkpt>
      <trkpt lat="45.79302" lon="4.7346">
        <ele>293.98074</ele>
        <time>2023-07-19T15:53:56.000Z</time>
      </trkpt>
      <trkpt lat="45.79294" lon="4.73459">
        <ele>293.80936</ele>
        <time>2023-07-19T15:53:57.000Z</time>
      </trkpt>
      <trkpt lat="45.79286" lon="4.73457">
        <ele>293.68585</ele>
        <time>2023-07-19T15:53:58.000Z</time>
      </trkpt>
      <trkpt lat="45.79276" lon="4.73455">
        <ele>293.63721</ele>
        <time>2023-07-19T15:53:59.000Z</time>
      </trkpt>
      <trkpt lat="45.79268" lon="4.73455">
        <ele>293.60577</ele>
        <time>2023-07-19T15:54:00.000Z</time>
      </trkpt>
      <trkpt lat="45.7926" lon="4.73451">
        <ele>293.39603</ele>
        <time>2023-07-19T15:54:01.000Z</time>
      </trkpt>
      <trkpt lat="45.79251" lon="4.73447">
        <ele>293.116</ele>
        <time>2023-07-19T15:54:02.000Z</time>
      </trkpt>
      <trkpt lat="45.79243" lon="4.73444">
        <ele>292.87674</ele>
        <time>2023-07-19T15:54:03.000Z</time>
      </trkpt>
      <trkpt lat="45.79235" lon="4.73439">
        <ele>292.42758</ele>
        <time>2023-07-19T15:54:04.000Z</time>
      </trkpt>
      <trkpt lat="45.79226" lon="4.73433">
        <ele>292.01413</ele>
        <time>2023-07-19T15:54:05.000Z</time>
      </trkpt>
      <trkpt lat="45.79218" lon="4.73428">
        <ele>291.60175</ele>
        <time>2023-07-19T15:54:06.000Z</time>
      </trkpt>
      <trkpt lat="45.79209" lon="4.73422">
        <ele>290.51053</ele>
        <time>2023-07-19T15:54:07.000Z</time>
      </trkpt>
      <trkpt lat="45.792" lon="4.73417">
        <ele>289.41217</ele>
        <time>2023-07-19T15:54:08.000Z</time>
      </trkpt>
      <trkpt lat="45.79192" lon="4.73412">
        <ele>288.26163</ele>
        <time>2023-07-19T15:54:09.000Z</time>
      </trkpt>
      <trkpt lat="45.79183" lon="4.73409">
        <ele>287.08621</ele>
        <time>2023-07-19T15:54:10.000Z</time>
      </trkpt>
      <trkpt lat="45.79176" lon="4.73406">
        <ele>286.02545</ele>
        <time>2023-07-19T15:54:11.000Z</time>
      </trkpt>
      <trkpt lat="45.79168" lon="4.73403">
        <ele>285.02304</ele>
        <time>2023-07-19T15:54:12.000Z</time>
      </trkpt>
      <trkpt lat="45.79162" lon="4.73401">
        <ele>283.93658</ele>
        <time>2023-07-19T15:54:13.000Z</time>
      </trkpt>
      <trkpt lat="45.79155" lon="4.73399">
        <ele>282.93661</ele>
        <time>2023-07-19T15:54:14.000Z</time>
      </trkpt>
      <trkpt lat="45.79149" lon="4.73398">
        <ele>281.9971</ele>
        <time>2023-07-19T15:54:15.000Z</time>
      </trkpt>
      <trkpt lat="45.79143" lon="4.734">
        <ele>281.00067</ele>
        <time>2023-07-19T15:54:16.000Z</time>
      </trkpt>
      <trkpt lat="45.79136" lon="4.73402">
        <ele>280.09662</ele>
        <time>2023-07-19T15:54:17.000Z</time>
      </trkpt>
      <trkpt lat="45.7913" lon="4.73404">
        <ele>279.09418</ele>
        <time>2023-07-19T15:54:18.000Z</time>
      </trkpt>
      <trkpt lat="45.79123" lon="4.73406">
        <ele>278.04669</ele>
        <time>2023-07-19T15:54:19.000Z</time>
      </trkpt>
      <trkpt lat="45.79116" lon="4.73406">
        <ele>277.01373</ele>
        <time>2023-07-19T15:54:20.000Z</time>
      </trkpt>
      <trkpt lat="45.79109" lon="4.73405">
        <ele>276.1839</ele>
        <time>2023-07-19T15:54:21.000Z</time>
      </trkpt>
      <trkpt lat="45.79102" lon="4.73404">
        <ele>275.32025</ele>
        <time>2023-07-19T15:54:22.000Z</time>
      </trkpt>
      <trkpt lat="45.79095" lon="4.73402">
        <ele>274.43442</ele>
        <time>2023-07-19T15:54:23.000Z</time>
      </trkpt>
      <trkpt lat="45.79089" lon="4.73401">
        <ele>273.63657</ele>
        <time>2023-07-19T15:54:24.000Z</time>
      </trkpt>
      <trkpt lat="45.79082" lon="4.73397">
        <ele>272.75757</ele>
        <time>2023-07-19T15:54:25.000Z</time>
      </trkpt>
      <trkpt lat="45.79074" lon="4.73394">
        <ele>271.81454</ele>
        <time>2023-07-19T15:54:26.000Z</time>
      </trkpt>
      <trkpt lat="45.79067" lon="4.73392">
        <ele>271.5928</ele>
        <time>2023-07-19T15:54:27.000Z</time>
      </trkpt>
      <trkpt lat="45.79058" lon="4.73391">
        <ele>271.38922</ele>
        <time>2023-07-19T15:54:28.000Z</time>
      </trkpt>
      <trkpt lat="45.7905" lon="4.73389">
        <ele>271.13882</ele>
        <time>2023-07-19T15:54:29.000Z</time>
      </trkpt>
      <trkpt lat="45.79043" lon="4.73387">
        <ele>270.89325</ele>
        <time>2023-07-19T15:54:30.000Z</time>
      </trkpt>
      <trkpt lat="45.79035" lon="4.73384">
        <ele>270.66846</ele>
        <time>2023-07-19T15:54:31.000Z</time>
      </trkpt>
      <trkpt lat="45.79027" lon="4.73383">
        <ele>270.44684</ele>
        <time>2023-07-19T15:54:32.000Z</time>
      </trkpt>
      <trkpt lat="45.7902" lon="4.7338">
        <ele>270.31732</ele>
        <time>2023-07-19T15:54:33.000Z</time>
      </trkpt>
      <trkpt lat="45.79015" lon="4.73379">
        <ele>270.17209</ele>
        <time>2023-07-19T15:54:34.000Z</time>
      </trkpt>
      <trkpt lat="45.79008" lon="4.7338">
        <ele>270.11969</ele>
        <time>2023-07-19T15:54:35.000Z</time>
      </trkpt>
      <trkpt lat="45.79002" lon="4.7338">
        <ele>270.05923</ele>
        <time>2023-07-19T15:54:36.000Z</time>
      </trkpt>
      <trkpt lat="45.78998" lon="4.73379">
        <ele>269.88763</ele>
        <time>2023-07-19T15:54:37.000Z</time>
      </trkpt>
      <trkpt lat="45.78994" lon="4.73376">
        <ele>269.72504</ele>
        <time>2023-07-19T15:54:38.000Z</time>
      </trkpt>
      <trkpt lat="45.7899" lon="4.73372">
        <ele>269.50195</ele>
        <time>2023-07-19T15:54:39.000Z</time>
      </trkpt>
      <trkpt lat="45.78986" lon="4.73368">
        <ele>269.25784</ele>
        <time>2023-07-19T15:54:40.000Z</time>
      </trkpt>
      <trkpt lat="45.78982" lon="4.73367">
        <ele>268.91263</ele>
        <time>2023-07-19T15:54:41.000Z</time>
      </trkpt>
      <trkpt lat="45.78977" lon="4.73366">
        <ele>268.59912</ele>
        <time>2023-07-19T15:54:42.000Z</time>
      </trkpt>
      <trkpt lat="45.78973" lon="4.73364">
        <ele>268.36069</ele>
        <time>2023-07-19T15:54:43.000Z</time>
      </trkpt>
      <trkpt lat="45.78968" lon="4.73363">
        <ele>268.07562</ele>
        <time>2023-07-19T15:54:44.000Z</time>
      </trkpt>
      <trkpt lat="45.78963" lon="4.73361">
        <ele>267.75882</ele>
        <time>2023-07-19T15:54:45.000Z</time>
      </trkpt>
      <trkpt lat="45.78958" lon="4.73359">
        <ele>267.51813</ele>
        <time>2023-07-19T15:54:46.000Z</time>
      </trkpt>
      <trkpt lat="45.78956" lon="4.73356">
        <ele>267.30609</ele>
        <time>2023-07-19T15:54:47.000Z</time>
      </trkpt>
      <trkpt lat="45.78952" lon="4.73353">
        <ele>267.07001</ele>
        <time>2023-07-19T15:54:48.000Z</time>
      </trkpt>
      <trkpt lat="45.78948" lon="4.73351">
        <ele>267.12445</ele>
        <time>2023-07-19T15:54:49.000Z</time>
      </trkpt>
      <trkpt lat="45.78944" lon="4.7335">
        <ele>267.30246</ele>
        <time>2023-07-19T15:54:50.000Z</time>
      </trkpt>
      <trkpt lat="45.7894" lon="4.73349">
        <ele>267.55014</ele>
        <time>2023-07-19T15:54:51.000Z</time>
      </trkpt>
      <trkpt lat="45.78936" lon="4.73347">
        <ele>267.37576</ele>
        <time>2023-07-19T15:54:52.000Z</time>
      </trkpt>
      <trkpt lat="45.78932" lon="4.73346">
        <ele>267.27893</ele>
        <time>2023-07-19T15:54:53.000Z</time>
      </trkpt>
      <trkpt lat="45.78928" lon="4.73343">
        <ele>267.1557</ele>
        <time>2023-07-19T15:54:54.000Z</time>
      </trkpt>
      <trkpt lat="45.78924" lon="4.73342">
        <ele>266.97519</ele>
        <time>2023-07-19T15:54:55.000Z</time>
      </trkpt>
      <trkpt lat="45.7892" lon="4.7334">
        <ele>266.80389</ele>
        <time>2023-07-19T15:54:56.000Z</time>
      </trkpt>
      <trkpt lat="45.78915" lon="4.73339">
        <ele>266.71173</ele>
        <time>2023-07-19T15:54:57.000Z</time>
      </trkpt>
      <trkpt lat="45.78911" lon="4.73337">
        <ele>266.65182</ele>
        <time>2023-07-19T15:54:58.000Z</time>
      </trkpt>
      <trkpt lat="45.78906" lon="4.73337">
        <ele>266.6124</ele>
        <time>2023-07-19T15:54:59.000Z</time>
      </trkpt>
      <trkpt lat="45.78901" lon="4.73338">
        <ele>266.59808</ele>
        <time>2023-07-19T15:55:00.000Z</time>
      </trkpt>
      <trkpt lat="45.78897" lon="4.73335">
        <ele>266.6524</ele>
        <time>2023-07-19T15:55:01.000Z</time>
      </trkpt>
      <trkpt lat="45.78892" lon="4.73333">
        <ele>266.65857</ele>
        <time>2023-07-19T15:55:02.000Z</time>
      </trkpt>
      <trkpt lat="45.78889" lon="4.7333">
        <ele>266.61469</ele>
        <time>2023-07-19T15:55:03.000Z</time>
      </trkpt>
      <trkpt lat="45.78883" lon="4.73326">
        <ele>266.64026</ele>
        <time>2023-07-19T15:55:04.000Z</time>
      </trkpt>
      <trkpt lat="45.78878" lon="4.73323">
        <ele>266.75226</ele>
        <time>2023-07-19T15:55:05.000Z</time>
      </trkpt>
      <trkpt lat="45.78874" lon="4.73319">
        <ele>266.84006</ele>
        <time>2023-07-19T15:55:06.000Z</time>
      </trkpt>
      <trkpt lat="45.78868" lon="4.73316">
        <ele>266.86362</ele>
        <time>2023-07-19T15:55:07.000Z</time>
      </trkpt>
      <trkpt lat="45.78864" lon="4.73312">
        <ele>266.92456</ele>
        <time>2023-07-19T15:55:08.000Z</time>
      </trkpt>
      <trkpt lat="45.7886" lon="4.73306">
        <ele>266.97089</ele>
        <time>2023-07-19T15:55:09.000Z</time>
      </trkpt>
      <trkpt lat="45.78856" lon="4.73303">
        <ele>266.91315</ele>
        <time>2023-07-19T15:55:10.000Z</time>
      </trkpt>
      <trkpt lat="45.78847" lon="4.73298">
        <ele>266.87897</ele>
        <time>2023-07-19T15:55:11.000Z</time>
      </trkpt>
      <trkpt lat="45.78841" lon="4.73295">
        <ele>267.31317</ele>
        <time>2023-07-19T15:55:12.000Z</time>
      </trkpt>
      <trkpt lat="45.78833" lon="4.73291">
        <ele>267.73453</ele>
        <time>2023-07-19T15:55:13.000Z</time>
      </trkpt>
      <trkpt lat="45.78829" lon="4.73288">
        <ele>268.13095</ele>
        <time>2023-07-19T15:55:14.000Z</time>
      </trkpt>
      <trkpt lat="45.78822" lon="4.73284">
        <ele>268.16895</ele>
        <time>2023-07-19T15:55:15.000Z</time>
      </trkpt>
      <trkpt lat="45.78815" lon="4.73282">
        <ele>268.26364</ele>
        <time>2023-07-19T15:55:16.000Z</time>
      </trkpt>
      <trkpt lat="45.78809" lon="4.7328">
        <ele>268.63989</ele>
        <time>2023-07-19T15:55:17.000Z</time>
      </trkpt>
      <trkpt lat="45.78802" lon="4.73276">
        <ele>268.46887</ele>
        <time>2023-07-19T15:55:18.000Z</time>
      </trkpt>
      <trkpt lat="45.78796" lon="4.73275">
        <ele>268.22757</ele>
        <time>2023-07-19T15:55:19.000Z</time>
      </trkpt>
      <trkpt lat="45.78787" lon="4.73273">
        <ele>267.91632</ele>
        <time>2023-07-19T15:55:20.000Z</time>
      </trkpt>
      <trkpt lat="45.78782" lon="4.73269">
        <ele>267.19693</ele>
        <time>2023-07-19T15:55:21.000Z</time>
      </trkpt>
      <trkpt lat="45.78774" lon="4.73264">
        <ele>266.30988</ele>
        <time>2023-07-19T15:55:22.000Z</time>
      </trkpt>
      <trkpt lat="45.78766" lon="4.73263">
        <ele>265.41992</ele>
        <time>2023-07-19T15:55:23.000Z</time>
      </trkpt>
      <trkpt lat="45.78758" lon="4.73262">
        <ele>264.49713</ele>
        <time>2023-07-19T15:55:24.000Z</time>
      </trkpt>
      <trkpt lat="45.78751" lon="4.73264">
        <ele>263.42194</ele>
        <time>2023-07-19T15:55:25.000Z</time>
      </trkpt>
      <trkpt lat="45.78743" lon="4.73263">
        <ele>262.28998</ele>
        <time>2023-07-19T15:55:26.000Z</time>
      </trkpt>
      <trkpt lat="45.78735" lon="4.73264">
        <ele>261.1608</ele>
        <time>2023-07-19T15:55:27.000Z</time>
      </trkpt>
      <trkpt lat="45.78728" lon="4.73266">
        <ele>259.96466</ele>
        <time>2023-07-19T15:55:28.000Z</time>
      </trkpt>
      <trkpt lat="45.78722" lon="4.73269">
        <ele>258.55487</ele>
        <time>2023-07-19T15:55:29.000Z</time>
      </trkpt>
      <trkpt lat="45.78716" lon="4.73272">
        <ele>257.18015</ele>
        <time>2023-07-19T15:55:30.000Z</time>
      </trkpt>
      <trkpt lat="45.78711" lon="4.73272">
        <ele>255.75066</ele>
        <time>2023-07-19T15:55:31.000Z</time>
      </trkpt>
      <trkpt lat="45.78708" lon="4.73273">
        <ele>254.23482</ele>
        <time>2023-07-19T15:55:32.000Z</time>
      </trkpt>
      <trkpt lat="45.78705" lon="4.73273">
        <ele>252.64449</ele>
        <time>2023-07-19T15:55:33.000Z</time>
      </trkpt>
      <trkpt lat="45.78704" lon="4.73271">
        <ele>251.04968</ele>
        <time>2023-07-19T15:55:47.000Z</time>
      </trkpt>
      <trkpt lat="45.78701" lon="4.73271">
        <ele>249.78618</ele>
        <time>2023-07-19T15:56:30.000Z</time>
      </trkpt>
      <trkpt lat="45.787" lon="4.7327">
        <ele>248.45865</ele>
        <time>2023-07-19T15:56:31.000Z</time>
      </trkpt>
      <trkpt lat="45.78697" lon="4.7327">
        <ele>246.88028</ele>
        <time>2023-07-19T15:56:32.000Z</time>
      </trkpt>
      <trkpt lat="45.78695" lon="4.73273">
        <ele>245.87894</ele>
        <time>2023-07-19T15:56:33.000Z</time>
      </trkpt>
      <trkpt lat="45.78692" lon="4.73275">
        <ele>244.99203</ele>
        <time>2023-07-19T15:56:34.000Z</time>
      </trkpt>
      <trkpt lat="45.7869" lon="4.73278">
        <ele>244.13628</ele>
        <time>2023-07-19T15:56:35.000Z</time>
      </trkpt>
      <trkpt lat="45.78687" lon="4.73281">
        <ele>243.66585</ele>
        <time>2023-07-19T15:56:36.000Z</time>
      </trkpt>
      <trkpt lat="45.78684" lon="4.73284">
        <ele>243.38692</ele>
        <time>2023-07-19T15:56:37.000Z</time>
      </trkpt>
      <trkpt lat="45.78682" lon="4.73286">
        <ele>243.13882</ele>
        <time>2023-07-19T15:56:38.000Z</time>
      </trkpt>
      <trkpt lat="45.7868" lon="4.73289">
        <ele>242.86348</ele>
        <time>2023-07-19T15:56:39.000Z</time>
      </trkpt>
      <trkpt lat="45.78677" lon="4.73293">
        <ele>242.66202</ele>
        <time>2023-07-19T15:56:40.000Z</time>
      </trkpt>
      <trkpt lat="45.78675" lon="4.73297">
        <ele>242.5289</ele>
        <time>2023-07-19T15:56:41.000Z</time>
      </trkpt>
      <trkpt lat="45.78672" lon="4.73302">
        <ele>242.41438</ele>
        <time>2023-07-19T15:56:42.000Z</time>
      </trkpt>
      <trkpt lat="45.78669" lon="4.73306">
        <ele>242.29695</ele>
        <time>2023-07-19T15:56:43.000Z</time>
      </trkpt>
      <trkpt lat="45.78665" lon="4.73311">
        <ele>242.21074</ele>
        <time>2023-07-19T15:56:44.000Z</time>
      </trkpt>
      <trkpt lat="45.78662" lon="4.73315">
        <ele>242.04033</ele>
        <time>2023-07-19T15:56:45.000Z</time>
      </trkpt>
      <trkpt lat="45.78658" lon="4.7332">
        <ele>241.84636</ele>
        <time>2023-07-19T15:56:46.000Z</time>
      </trkpt>
      <trkpt lat="45.78653" lon="4.73325">
        <ele>241.64371</ele>
        <time>2023-07-19T15:56:47.000Z</time>
      </trkpt>
      <trkpt lat="45.78649" lon="4.7333">
        <ele>241.4202</ele>
        <time>2023-07-19T15:56:48.000Z</time>
      </trkpt>
      <trkpt lat="45.78645" lon="4.73335">
        <ele>241.25284</ele>
        <time>2023-07-19T15:56:49.000Z</time>
      </trkpt>
      <trkpt lat="45.78641" lon="4.73342">
        <ele>241.08943</ele>
        <time>2023-07-19T15:56:50.000Z</time>
      </trkpt>
      <trkpt lat="45.78636" lon="4.73349">
        <ele>240.92508</ele>
        <time>2023-07-19T15:56:51.000Z</time>
      </trkpt>
      <trkpt lat="45.78631" lon="4.73355">
        <ele>240.69812</ele>
        <time>2023-07-19T15:56:52.000Z</time>
      </trkpt>
      <trkpt lat="45.78625" lon="4.73361">
        <ele>240.45992</ele>
        <time>2023-07-19T15:56:53.000Z</time>
      </trkpt>
      <trkpt lat="45.7862" lon="4.73368">
        <ele>240.17789</ele>
        <time>2023-07-19T15:56:54.000Z</time>
      </trkpt>
      <trkpt lat="45.78616" lon="4.73378">
        <ele>239.90628</ele>
        <time>2023-07-19T15:56:55.000Z</time>
      </trkpt>
      <trkpt lat="45.7861" lon="4.73386">
        <ele>239.6315</ele>
        <time>2023-07-19T15:56:56.000Z</time>
      </trkpt>
      <trkpt lat="45.78604" lon="4.73394">
        <ele>239.39629</ele>
        <time>2023-07-19T15:56:57.000Z</time>
      </trkpt>
      <trkpt lat="45.78598" lon="4.73403">
        <ele>239.13675</ele>
        <time>2023-07-19T15:56:58.000Z</time>
      </trkpt>
      <trkpt lat="45.78591" lon="4.73412">
        <ele>238.92525</ele>
        <time>2023-07-19T15:56:59.000Z</time>
      </trkpt>
      <trkpt lat="45.78586" lon="4.73421">
        <ele>238.74174</ele>
        <time>2023-07-19T15:57:00.000Z</time>
      </trkpt>
      <trkpt lat="45.78582" lon="4.73431">
        <ele>238.52718</ele>
        <time>2023-07-19T15:57:01.000Z</time>
      </trkpt>
      <trkpt lat="45.78576" lon="4.73439">
        <ele>238.34</ele>
        <time>2023-07-19T15:57:02.000Z</time>
      </trkpt>
      <trkpt lat="45.7857" lon="4.73444">
        <ele>238.11679</ele>
        <time>2023-07-19T15:57:03.000Z</time>
      </trkpt>
      <trkpt lat="45.78563" lon="4.73446">
        <ele>237.84033</ele>
        <time>2023-07-19T15:57:04.000Z</time>
      </trkpt>
      <trkpt lat="45.78556" lon="4.73445">
        <ele>237.60092</ele>
        <time>2023-07-19T15:57:05.000Z</time>
      </trkpt>
      <trkpt lat="45.7855" lon="4.73443">
        <ele>237.35364</ele>
        <time>2023-07-19T15:57:06.000Z</time>
      </trkpt>
      <trkpt lat="45.78544" lon="4.73438">
        <ele>237.10513</ele>
        <time>2023-07-19T15:57:07.000Z</time>
      </trkpt>
      <trkpt lat="45.78539" lon="4.73432">
        <ele>236.86043</ele>
        <time>2023-07-19T15:57:08.000Z</time>
      </trkpt>
      <trkpt lat="45.78534" lon="4.73427">
        <ele>236.6759</ele>
        <time>2023-07-19T15:57:09.000Z</time>
      </trkpt>
      <trkpt lat="45.78529" lon="4.7342">
        <ele>236.53018</ele>
        <time>2023-07-19T15:57:10.000Z</time>
      </trkpt>
      <trkpt lat="45.78525" lon="4.73413">
        <ele>236.35681</ele>
        <time>2023-07-19T15:57:11.000Z</time>
      </trkpt>
      <trkpt lat="45.7852" lon="4.73408">
        <ele>236.23369</ele>
        <time>2023-07-19T15:57:12.000Z</time>
      </trkpt>
      <trkpt lat="45.78517" lon="4.73403">
        <ele>236.13797</ele>
        <time>2023-07-19T15:57:13.000Z</time>
      </trkpt>
      <trkpt lat="45.78513" lon="4.73399">
        <ele>236.04712</ele>
        <time>2023-07-19T15:57:14.000Z</time>
      </trkpt>
      <trkpt lat="45.78511" lon="4.73394">
        <ele>235.93538</ele>
        <time>2023-07-19T15:57:15.000Z</time>
      </trkpt>
      <trkpt lat="45.78508" lon="4.73391">
        <ele>235.83057</ele>
        <time>2023-07-19T15:57:16.000Z</time>
      </trkpt>
      <trkpt lat="45.78507" lon="4.73389">
        <ele>235.67258</ele>
        <time>2023-07-19T15:57:17.000Z</time>
      </trkpt>
      <trkpt lat="45.78506" lon="4.73386">
        <ele>235.54045</ele>
        <time>2023-07-19T15:57:18.000Z</time>
      </trkpt>
      <trkpt lat="45.78504" lon="4.7339">
        <ele>235.44453</ele>
        <time>2023-07-19T15:57:29.000Z</time>
      </trkpt>
      <trkpt lat="45.78503" lon="4.73392">
        <ele>235.34282</ele>
        <time>2023-07-19T15:57:30.000Z</time>
      </trkpt>
      <trkpt lat="45.78499" lon="4.73393">
        <ele>235.2551</ele>
        <time>2023-07-19T15:57:31.000Z</time>
      </trkpt>
      <trkpt lat="45.78495" lon="4.73394">
        <ele>235.18076</ele>
        <time>2023-07-19T15:57:32.000Z</time>
      </trkpt>
      <trkpt lat="45.7849" lon="4.73398">
        <ele>235.14958</ele>
        <time>2023-07-19T15:57:33.000Z</time>
      </trkpt>
      <trkpt lat="45.78486" lon="4.73402">
        <ele>235.15073</ele>
        <time>2023-07-19T15:57:34.000Z</time>
      </trkpt>
      <trkpt lat="45.7848" lon="4.73406">
        <ele>235.18259</ele>
        <time>2023-07-19T15:57:35.000Z</time>
      </trkpt>
      <trkpt lat="45.78476" lon="4.7341">
        <ele>235.203</ele>
        <time>2023-07-19T15:57:36.000Z</time>
      </trkpt>
      <trkpt lat="45.78471" lon="4.73415">
        <ele>235.22905</ele>
        <time>2023-07-19T15:57:37.000Z</time>
      </trkpt>
      <trkpt lat="45.78465" lon="4.7342">
        <ele>235.20564</ele>
        <time>2023-07-19T15:57:38.000Z</time>
      </trkpt>
      <trkpt lat="45.7846" lon="4.73425">
        <ele>235.17093</ele>
        <time>2023-07-19T15:57:39.000Z</time>
      </trkpt>
      <trkpt lat="45.78455" lon="4.73432">
        <ele>235.09514</ele>
        <time>2023-07-19T15:57:40.000Z</time>
      </trkpt>
      <trkpt lat="45.7845" lon="4.73435">
        <ele>235.02734</ele>
        <time>2023-07-19T15:57:41.000Z</time>
      </trkpt>
      <trkpt lat="45.78444" lon="4.73438">
        <ele>234.94431</ele>
        <time>2023-07-19T15:57:42.000Z</time>
      </trkpt>
      <trkpt lat="45.78438" lon="4.73442">
        <ele>234.84567</ele>
        <time>2023-07-19T15:57:43.000Z</time>
      </trkpt>
      <trkpt lat="45.78433" lon="4.73448">
        <ele>234.76492</ele>
        <time>2023-07-19T15:57:44.000Z</time>
      </trkpt>
      <trkpt lat="45.78427" lon="4.73453">
        <ele>234.68729</ele>
        <time>2023-07-19T15:57:45.000Z</time>
      </trkpt>
      <trkpt lat="45.78421" lon="4.73457">
        <ele>234.64595</ele>
        <time>2023-07-19T15:57:46.000Z</time>
      </trkpt>
      <trkpt lat="45.78416" lon="4.7346">
        <ele>234.62114</ele>
        <time>2023-07-19T15:57:47.000Z</time>
      </trkpt>
      <trkpt lat="45.7841" lon="4.73465">
        <ele>234.59404</ele>
        <time>2023-07-19T15:57:48.000Z</time>
      </trkpt>
      <trkpt lat="45.78404" lon="4.7347">
        <ele>234.50484</ele>
        <time>2023-07-19T15:57:49.000Z</time>
      </trkpt>
      <trkpt lat="45.78398" lon="4.73475">
        <ele>234.44742</ele>
        <time>2023-07-19T15:57:50.000Z</time>
      </trkpt>
      <trkpt lat="45.78392" lon="4.73478">
        <ele>234.4102</ele>
        <time>2023-07-19T15:57:51.000Z</time>
      </trkpt>
      <trkpt lat="45.78385" lon="4.73482">
        <ele>234.37979</ele>
        <time>2023-07-19T15:57:52.000Z</time>
      </trkpt>
      <trkpt lat="45.78379" lon="4.73487">
        <ele>234.3287</ele>
        <time>2023-07-19T15:57:53.000Z</time>
      </trkpt>
      <trkpt lat="45.78373" lon="4.73489">
        <ele>234.26346</ele>
        <time>2023-07-19T15:57:54.000Z</time>
      </trkpt>
      <trkpt lat="45.78367" lon="4.73494">
        <ele>234.18283</ele>
        <time>2023-07-19T15:57:55.000Z</time>
      </trkpt>
      <trkpt lat="45.78362" lon="4.73499">
        <ele>234.11531</ele>
        <time>2023-07-19T15:57:56.000Z</time>
      </trkpt>
      <trkpt lat="45.78356" lon="4.73502">
        <ele>234.06819</ele>
        <time>2023-07-19T15:57:57.000Z</time>
      </trkpt>
      <trkpt lat="45.78349" lon="4.73505">
        <ele>234.08777</ele>
        <time>2023-07-19T15:57:58.000Z</time>
      </trkpt>
      <trkpt lat="45.78343" lon="4.73509">
        <ele>234.08228</ele>
        <time>2023-07-19T15:57:59.000Z</time>
      </trkpt>
      <trkpt lat="45.78337" lon="4.73512">
        <ele>234.0826</ele>
        <time>2023-07-19T15:58:00.000Z</time>
      </trkpt>
      <trkpt lat="45.78331" lon="4.73515">
        <ele>234.10568</ele>
        <time>2023-07-19T15:58:01.000Z</time>
      </trkpt>
      <trkpt lat="45.78324" lon="4.73517">
        <ele>234.09895</ele>
        <time>2023-07-19T15:58:02.000Z</time>
      </trkpt>
      <trkpt lat="45.78318" lon="4.73519">
        <ele>234.05911</ele>
        <time>2023-07-19T15:58:03.000Z</time>
      </trkpt>
      <trkpt lat="45.78313" lon="4.73522">
        <ele>234.00374</ele>
        <time>2023-07-19T15:58:04.000Z</time>
      </trkpt>
      <trkpt lat="45.78308" lon="4.73526">
        <ele>233.99216</ele>
        <time>2023-07-19T15:58:05.000Z</time>
      </trkpt>
      <trkpt lat="45.78305" lon="4.73531">
        <ele>233.95901</ele>
        <time>2023-07-19T15:58:06.000Z</time>
      </trkpt>
      <trkpt lat="45.78301" lon="4.73533">
        <ele>233.90884</ele>
        <time>2023-07-19T15:58:07.000Z</time>
      </trkpt>
      <trkpt lat="45.78296" lon="4.73535">
        <ele>233.92831</ele>
        <time>2023-07-19T15:58:08.000Z</time>
      </trkpt>
      <trkpt lat="45.78291" lon="4.73536">
        <ele>233.95586</ele>
        <time>2023-07-19T15:58:09.000Z</time>
      </trkpt>
      <trkpt lat="45.78286" lon="4.73538">
        <ele>233.96077</ele>
        <time>2023-07-19T15:58:10.000Z</time>
      </trkpt>
      <trkpt lat="45.78283" lon="4.73544">
        <ele>233.99203</ele>
        <time>2023-07-19T15:58:11.000Z</time>
      </trkpt>
      <trkpt lat="45.78279" lon="4.73546">
        <ele>233.90169</ele>
        <time>2023-07-19T15:58:12.000Z</time>
      </trkpt>
      <trkpt lat="45.78274" lon="4.73549">
        <ele>233.82959</ele>
        <time>2023-07-19T15:58:13.000Z</time>
      </trkpt>
      <trkpt lat="45.78268" lon="4.73551">
        <ele>233.7662</ele>
        <time>2023-07-19T15:58:14.000Z</time>
      </trkpt>
      <trkpt lat="45.78263" lon="4.73553">
        <ele>233.73843</ele>
        <time>2023-07-19T15:58:15.000Z</time>
      </trkpt>
      <trkpt lat="45.78258" lon="4.73558">
        <ele>233.75327</ele>
        <time>2023-07-19T15:58:16.000Z</time>
      </trkpt>
      <trkpt lat="45.78254" lon="4.73563">
        <ele>233.74234</ele>
        <time>2023-07-19T15:58:17.000Z</time>
      </trkpt>
      <trkpt lat="45.7825" lon="4.73567">
        <ele>233.68819</ele>
        <time>2023-07-19T15:58:18.000Z</time>
      </trkpt>
      <trkpt lat="45.78245" lon="4.73573">
        <ele>233.63596</ele>
        <time>2023-07-19T15:58:19.000Z</time>
      </trkpt>
      <trkpt lat="45.78241" lon="4.73576">
        <ele>233.65398</ele>
        <time>2023-07-19T15:58:20.000Z</time>
      </trkpt>
      <trkpt lat="45.78237" lon="4.73582">
        <ele>233.63374</ele>
        <time>2023-07-19T15:58:21.000Z</time>
      </trkpt>
      <trkpt lat="45.78234" lon="4.73588">
        <ele>233.56807</ele>
        <time>2023-07-19T15:58:22.000Z</time>
      </trkpt>
      <trkpt lat="45.78231" lon="4.73594">
        <ele>233.53438</ele>
        <time>2023-07-19T15:58:23.000Z</time>
      </trkpt>
      <trkpt lat="45.78229" lon="4.73601">
        <ele>233.5159</ele>
        <time>2023-07-19T15:58:24.000Z</time>
      </trkpt>
      <trkpt lat="45.78229" lon="4.73609">
        <ele>233.48499</ele>
        <time>2023-07-19T15:58:25.000Z</time>
      </trkpt>
      <trkpt lat="45.78228" lon="4.73617">
        <ele>233.4509</ele>
        <time>2023-07-19T15:58:26.000Z</time>
      </trkpt>
      <trkpt lat="45.78229" lon="4.73625">
        <ele>233.42363</ele>
        <time>2023-07-19T15:58:27.000Z</time>
      </trkpt>
      <trkpt lat="45.78231" lon="4.73633">
        <ele>233.31905</ele>
        <time>2023-07-19T15:58:28.000Z</time>
      </trkpt>
      <trkpt lat="45.78234" lon="4.73638">
        <ele>233.1843</ele>
        <time>2023-07-19T15:58:29.000Z</time>
      </trkpt>
      <trkpt lat="45.78237" lon="4.73644">
        <ele>233.04414</ele>
        <time>2023-07-19T15:58:30.000Z</time>
      </trkpt>
      <trkpt lat="45.78239" lon="4.73649">
        <ele>232.90633</ele>
        <time>2023-07-19T15:58:31.000Z</time>
      </trkpt>
      <trkpt lat="45.7824" lon="4.73653">
        <ele>232.85666</ele>
        <time>2023-07-19T15:58:32.000Z</time>
      </trkpt>
      <trkpt lat="45.78242" lon="4.73657">
        <ele>232.81613</ele>
        <time>2023-07-19T15:58:33.000Z</time>
      </trkpt>
      <trkpt lat="45.78242" lon="4.73661">
        <ele>232.77286</ele>
        <time>2023-07-19T15:58:34.000Z</time>
      </trkpt>
      <trkpt lat="45.78244" lon="4.73664">
        <ele>232.77988</ele>
        <time>2023-07-19T15:58:35.000Z</time>
      </trkpt>
      <trkpt lat="45.78247" lon="4.73665">
        <ele>232.7607</ele>
        <time>2023-07-19T15:58:36.000Z</time>
      </trkpt>
      <trkpt lat="45.78249" lon="4.7366">
        <ele>232.68997</ele>
        <time>2023-07-19T15:58:37.000Z</time>
      </trkpt>
      <trkpt lat="45.7825" lon="4.73656">
        <ele>232.6613</ele>
        <time>2023-07-19T15:58:38.000Z</time>
      </trkpt>
      <trkpt lat="45.78254" lon="4.73652">
        <ele>232.60757</ele>
        <time>2023-07-19T15:58:39.000Z</time>
      </trkpt>
      <trkpt lat="45.78256" lon="4.73648">
        <ele>232.46671</ele>
        <time>2023-07-19T15:58:40.000Z</time>
      </trkpt>
      <trkpt lat="45.7826" lon="4.73644">
        <ele>232.35005</ele>
        <time>2023-07-19T15:58:41.000Z</time>
      </trkpt>
      <trkpt lat="45.78264" lon="4.73639">
        <ele>232.35249</ele>
        <time>2023-07-19T15:58:42.000Z</time>
      </trkpt>
      <trkpt lat="45.78267" lon="4.73633">
        <ele>232.38371</ele>
        <time>2023-07-19T15:58:43.000Z</time>
      </trkpt>
      <trkpt lat="45.78272" lon="4.73628">
        <ele>232.41805</ele>
        <time>2023-07-19T15:58:44.000Z</time>
      </trkpt>
      <trkpt lat="45.78275" lon="4.73623">
        <ele>232.46004</ele>
        <time>2023-07-19T15:58:45.000Z</time>
      </trkpt>
      <trkpt lat="45.7828" lon="4.73622">
        <ele>232.50574</ele>
        <time>2023-07-19T15:58:46.000Z</time>
      </trkpt>
      <trkpt lat="45.78283" lon="4.73623">
        <ele>232.57059</ele>
        <time>2023-07-19T15:58:47.000Z</time>
      </trkpt>
      <trkpt lat="45.78285" lon="4.73626">
        <ele>232.65071</ele>
        <time>2023-07-19T15:58:48.000Z</time>
      </trkpt>
      <trkpt lat="45.78287" lon="4.73625">
        <ele>232.8425</ele>
        <time>2023-07-19T15:59:03.000Z</time>
      </trkpt>
      <trkpt lat="45.78289" lon="4.73623">
        <ele>233.07205</ele>
        <time>2023-07-19T15:59:04.000Z</time>
      </trkpt>
      <trkpt lat="45.78292" lon="4.73621">
        <ele>233.35454</ele>
        <time>2023-07-19T15:59:06.000Z</time>
      </trkpt>
      <trkpt lat="45.78295" lon="4.73618">
        <ele>233.63615</ele>
        <time>2023-07-19T15:59:07.000Z</time>
      </trkpt>
      <trkpt lat="45.78296" lon="4.73616">
        <ele>233.94702</ele>
        <time>2023-07-19T15:59:08.000Z</time>
      </trkpt>
      <trkpt lat="45.78299" lon="4.73615">
        <ele>234.2238</ele>
        <time>2023-07-19T15:59:10.000Z</time>
      </trkpt>
      <trkpt lat="45.78301" lon="4.73615">
        <ele>234.45117</ele>
        <time>2023-07-19T15:59:11.000Z</time>
      </trkpt>
      <trkpt lat="45.78303" lon="4.73615">
        <ele>234.62207</ele>
        <time>2023-07-19T15:59:12.000Z</time>
      </trkpt>
      <trkpt lat="45.78308" lon="4.73616">
        <ele>234.83842</ele>
        <time>2023-07-19T15:59:14.000Z</time>
      </trkpt>
      <trkpt lat="45.7831" lon="4.73618">
        <ele>235.09021</ele>
        <time>2023-07-19T15:59:15.000Z</time>
      </trkpt>
      <trkpt lat="45.78313" lon="4.73619">
        <ele>235.39999</ele>
        <time>2023-07-19T15:59:16.000Z</time>
      </trkpt>
      <trkpt lat="45.78316" lon="4.7362">
        <ele>235.73889</ele>
        <time>2023-07-19T15:59:17.000Z</time>
      </trkpt>
      <trkpt lat="45.78319" lon="4.73622">
        <ele>236.08272</ele>
        <time>2023-07-19T15:59:18.000Z</time>
      </trkpt>
      <trkpt lat="45.78321" lon="4.73622">
        <ele>236.37907</ele>
        <time>2023-07-19T15:59:19.000Z</time>
      </trkpt>
      <trkpt lat="45.78325" lon="4.73623">
        <ele>236.63635</ele>
        <time>2023-07-19T15:59:20.000Z</time>
      </trkpt>
      <trkpt lat="45.78329" lon="4.73624">
        <ele>236.92944</ele>
        <time>2023-07-19T15:59:21.000Z</time>
      </trkpt>
      <trkpt lat="45.78334" lon="4.73625">
        <ele>237.23557</ele>
        <time>2023-07-19T15:59:22.000Z</time>
      </trkpt>
      <trkpt lat="45.78338" lon="4.73627">
        <ele>237.57932</ele>
        <time>2023-07-19T15:59:23.000Z</time>
      </trkpt>
      <trkpt lat="45.78341" lon="4.73628">
        <ele>237.95743</ele>
        <time>2023-07-19T15:59:24.000Z</time>
      </trkpt>
      <trkpt lat="45.78345" lon="4.73629">
        <ele>238.34163</ele>
        <time>2023-07-19T15:59:25.000Z</time>
      </trkpt>
      <trkpt lat="45.78348" lon="4.7363">
        <ele>238.6617</ele>
        <time>2023-07-19T15:59:26.000Z</time>
      </trkpt>
      <trkpt lat="45.78351" lon="4.73631">
        <ele>238.94438</ele>
        <time>2023-07-19T15:59:27.000Z</time>
      </trkpt>
      <trkpt lat="45.78355" lon="4.73633">
        <ele>239.18661</ele>
        <time>2023-07-19T15:59:28.000Z</time>
      </trkpt>
      <trkpt lat="45.78358" lon="4.73635">
        <ele>239.44962</ele>
        <time>2023-07-19T15:59:29.000Z</time>
      </trkpt>
      <trkpt lat="45.7836" lon="4.73636">
        <ele>239.66788</ele>
        <time>2023-07-19T15:59:30.000Z</time>
      </trkpt>
      <trkpt lat="45.78363" lon="4.73638">
        <ele>239.9261</ele>
        <time>2023-07-19T15:59:31.000Z</time>
      </trkpt>
      <trkpt lat="45.78365" lon="4.7364">
        <ele>240.17305</ele>
        <time>2023-07-19T15:59:32.000Z</time>
      </trkpt>
      <trkpt lat="45.78368" lon="4.73644">
        <ele>240.42802</ele>
        <time>2023-07-19T15:59:33.000Z</time>
      </trkpt>
      <trkpt lat="45.7837" lon="4.73648">
        <ele>240.73422</ele>
        <time>2023-07-19T15:59:34.000Z</time>
      </trkpt>
      <trkpt lat="45.78373" lon="4.73653">
        <ele>240.99313</ele>
        <time>2023-07-19T15:59:35.000Z</time>
      </trkpt>
      <trkpt lat="45.78376" lon="4.73657">
        <ele>241.23669</ele>
        <time>2023-07-19T15:59:36.000Z</time>
      </trkpt>
      <trkpt lat="45.78378" lon="4.73661">
        <ele>241.51196</ele>
        <time>2023-07-19T15:59:37.000Z</time>
      </trkpt>
      <trkpt lat="45.7838" lon="4.73666">
        <ele>241.76285</ele>
        <time>2023-07-19T15:59:38.000Z</time>
      </trkpt>
      <trkpt lat="45.78382" lon="4.7367">
        <ele>242.06804</ele>
        <time>2023-07-19T15:59:39.000Z</time>
      </trkpt>
      <trkpt lat="45.78383" lon="4.73675">
        <ele>242.40637</ele>
        <time>2023-07-19T15:59:40.000Z</time>
      </trkpt>
      <trkpt lat="45.78385" lon="4.73679">
        <ele>242.70139</ele>
        <time>2023-07-19T15:59:41.000Z</time>
      </trkpt>
      <trkpt lat="45.78387" lon="4.73683">
        <ele>242.96225</ele>
        <time>2023-07-19T15:59:42.000Z</time>
      </trkpt>
      <trkpt lat="45.7839" lon="4.73686">
        <ele>243.29004</ele>
        <time>2023-07-19T15:59:43.000Z</time>
      </trkpt>
      <trkpt lat="45.78392" lon="4.7369">
        <ele>243.57439</ele>
        <time>2023-07-19T15:59:44.000Z</time>
      </trkpt>
      <trkpt lat="45.78394" lon="4.73694">
        <ele>243.84904</ele>
        <time>2023-07-19T15:59:45.000Z</time>
      </trkpt>
      <trkpt lat="45.78396" lon="4.73698">
        <ele>244.09573</ele>
        <time>2023-07-19T15:59:46.000Z</time>
      </trkpt>
      <trkpt lat="45.78398" lon="4.73701">
        <ele>244.39983</ele>
        <time>2023-07-19T15:59:47.000Z</time>
      </trkpt>
      <trkpt lat="45.784" lon="4.73705">
        <ele>244.66727</ele>
        <time>2023-07-19T15:59:48.000Z</time>
      </trkpt>
      <trkpt lat="45.78403" lon="4.73708">
        <ele>244.90388</ele>
        <time>2023-07-19T15:59:49.000Z</time>
      </trkpt>
      <trkpt lat="45.78404" lon="4.73711">
        <ele>245.18069</ele>
        <time>2023-07-19T15:59:50.000Z</time>
      </trkpt>
      <trkpt lat="45.78406" lon="4.73714">
        <ele>245.46765</ele>
        <time>2023-07-19T15:59:51.000Z</time>
      </trkpt>
      <trkpt lat="45.78407" lon="4.73717">
        <ele>245.78438</ele>
        <time>2023-07-19T15:59:52.000Z</time>
      </trkpt>
      <trkpt lat="45.78409" lon="4.73719">
        <ele>246.15398</ele>
        <time>2023-07-19T15:59:53.000Z</time>
      </trkpt>
      <trkpt lat="45.7841" lon="4.73722">
        <ele>246.48837</ele>
        <time>2023-07-19T15:59:54.000Z</time>
      </trkpt>
      <trkpt lat="45.78411" lon="4.73724">
        <ele>246.79211</ele>
        <time>2023-07-19T15:59:55.000Z</time>
      </trkpt>
      <trkpt lat="45.78413" lon="4.73727">
        <ele>247.04655</ele>
        <time>2023-07-19T15:59:56.000Z</time>
      </trkpt>
      <trkpt lat="45.78415" lon="4.73729">
        <ele>247.27026</ele>
        <time>2023-07-19T15:59:57.000Z</time>
      </trkpt>
      <trkpt lat="45.78418" lon="4.73729">
        <ele>247.5134</ele>
        <time>2023-07-19T15:59:58.000Z</time>
      </trkpt>
      <trkpt lat="45.78421" lon="4.73729">
        <ele>247.73792</ele>
        <time>2023-07-19T15:59:59.000Z</time>
      </trkpt>
      <trkpt lat="45.78425" lon="4.73728">
        <ele>247.95993</ele>
        <time>2023-07-19T16:00:00.000Z</time>
      </trkpt>
      <trkpt lat="45.78428" lon="4.73726">
        <ele>248.20288</ele>
        <time>2023-07-19T16:00:01.000Z</time>
      </trkpt>
      <trkpt lat="45.78431" lon="4.73725">
        <ele>248.45285</ele>
        <time>2023-07-19T16:00:02.000Z</time>
      </trkpt>
      <trkpt lat="45.78434" lon="4.73724">
        <ele>248.59758</ele>
        <time>2023-07-19T16:00:03.000Z</time>
      </trkpt>
      <trkpt lat="45.78437" lon="4.73723">
        <ele>248.76364</ele>
        <time>2023-07-19T16:00:04.000Z</time>
      </trkpt>
      <trkpt lat="45.7844" lon="4.73721">
        <ele>248.91328</ele>
        <time>2023-07-19T16:00:05.000Z</time>
      </trkpt>
      <trkpt lat="45.78443" lon="4.73719">
        <ele>249.07202</ele>
        <time>2023-07-19T16:00:06.000Z</time>
      </trkpt>
      <trkpt lat="45.78446" lon="4.73717">
        <ele>249.18999</ele>
        <time>2023-07-19T16:00:07.000Z</time>
      </trkpt>
      <trkpt lat="45.78449" lon="4.73715">
        <ele>249.3022</ele>
        <time>2023-07-19T16:00:08.000Z</time>
      </trkpt>
      <trkpt lat="45.78452" lon="4.73712">
        <ele>249.41736</ele>
        <time>2023-07-19T16:00:09.000Z</time>
      </trkpt>
      <trkpt lat="45.78455" lon="4.73711">
        <ele>249.48001</ele>
        <time>2023-07-19T16:00:10.000Z</time>
      </trkpt>
      <trkpt lat="45.78458" lon="4.73709">
        <ele>249.52759</ele>
        <time>2023-07-19T16:00:11.000Z</time>
      </trkpt>
      <trkpt lat="45.78461" lon="4.73707">
        <ele>249.51201</ele>
        <time>2023-07-19T16:00:12.000Z</time>
      </trkpt>
      <trkpt lat="45.78463" lon="4.73705">
        <ele>249.47241</ele>
        <time>2023-07-19T16:00:13.000Z</time>
      </trkpt>
      <trkpt lat="45.78465" lon="4.73703">
        <ele>249.4323</ele>
        <time>2023-07-19T16:00:14.000Z</time>
      </trkpt>
      <trkpt lat="45.78467" lon="4.73702">
        <ele>249.42651</ele>
        <time>2023-07-19T16:00:15.000Z</time>
      </trkpt>
      <trkpt lat="45.78469" lon="4.73701">
        <ele>249.41199</ele>
        <time>2023-07-19T16:00:17.000Z</time>
      </trkpt>
      <trkpt lat="45.7847" lon="4.73698">
        <ele>249.43437</ele>
        <time>2023-07-19T16:00:36.000Z</time>
      </trkpt>
      <trkpt lat="45.7847" lon="4.73694">
        <ele>249.44873</ele>
        <time>2023-07-19T16:00:37.000Z</time>
      </trkpt>
      <trkpt lat="45.7847" lon="4.73691">
        <ele>249.43494</ele>
        <time>2023-07-19T16:00:38.000Z</time>
      </trkpt>
      <trkpt lat="45.78469" lon="4.73689">
        <ele>249.39217</ele>
        <time>2023-07-19T16:00:39.000Z</time>
      </trkpt>
      <trkpt lat="45.78468" lon="4.73686">
        <ele>249.32248</ele>
        <time>2023-07-19T16:00:40.000Z</time>
      </trkpt>
      <trkpt lat="45.78467" lon="4.73684">
        <ele>249.25615</ele>
        <time>2023-07-19T16:00:41.000Z</time>
      </trkpt>
      <trkpt lat="45.78466" lon="4.73681">
        <ele>249.1364</ele>
        <time>2023-07-19T16:00:43.000Z</time>
      </trkpt>
      <trkpt lat="45.78464" lon="4.73678">
        <ele>248.98286</ele>
        <time>2023-07-19T16:00:45.000Z</time>
      </trkpt>
      <trkpt lat="45.78462" lon="4.73673">
        <ele>248.80069</ele>
        <time>2023-07-19T16:00:47.000Z</time>
      </trkpt>
      <trkpt lat="45.78462" lon="4.7367">
        <ele>248.63142</ele>
        <time>2023-07-19T16:00:48.000Z</time>
      </trkpt>
      <trkpt lat="45.78461" lon="4.73667">
        <ele>248.44376</ele>
        <time>2023-07-19T16:00:49.000Z</time>
      </trkpt>
      <trkpt lat="45.78459" lon="4.73664">
        <ele>248.22183</ele>
        <time>2023-07-19T16:00:50.000Z</time>
      </trkpt>
      <trkpt lat="45.78458" lon="4.7366">
        <ele>247.97429</ele>
        <time>2023-07-19T16:00:51.000Z</time>
      </trkpt>
      <trkpt lat="45.78456" lon="4.73657">
        <ele>247.8031</ele>
        <time>2023-07-19T16:00:52.000Z</time>
      </trkpt>
      <trkpt lat="45.78455" lon="4.73653">
        <ele>247.58578</ele>
        <time>2023-07-19T16:00:53.000Z</time>
      </trkpt>
      <trkpt lat="45.78453" lon="4.73648">
        <ele>247.38611</ele>
        <time>2023-07-19T16:00:54.000Z</time>
      </trkpt>
      <trkpt lat="45.7845" lon="4.73644">
        <ele>247.16394</ele>
        <time>2023-07-19T16:00:55.000Z</time>
      </trkpt>
      <trkpt lat="45.78448" lon="4.73639">
        <ele>246.90495</ele>
        <time>2023-07-19T16:00:56.000Z</time>
      </trkpt>
      <trkpt lat="45.78446" lon="4.73635">
        <ele>246.61406</ele>
        <time>2023-07-19T16:00:57.000Z</time>
      </trkpt>
      <trkpt lat="45.78444" lon="4.73632">
        <ele>246.33524</ele>
        <time>2023-07-19T16:00:58.000Z</time>
      </trkpt>
      <trkpt lat="45.78442" lon="4.73629">
        <ele>245.99564</ele>
        <time>2023-07-19T16:00:59.000Z</time>
      </trkpt>
      <trkpt lat="45.78439" lon="4.73627">
        <ele>245.64119</ele>
        <time>2023-07-19T16:01:00.000Z</time>
      </trkpt>
      <trkpt lat="45.78436" lon="4.73625">
        <ele>245.25122</ele>
        <time>2023-07-19T16:01:01.000Z</time>
      </trkpt>
      <trkpt lat="45.78433" lon="4.73622">
        <ele>244.86816</ele>
        <time>2023-07-19T16:01:02.000Z</time>
      </trkpt>
      <trkpt lat="45.78432" lon="4.73618">
        <ele>244.45108</ele>
        <time>2023-07-19T16:01:03.000Z</time>
      </trkpt>
      <trkpt lat="45.7843" lon="4.73615">
        <ele>243.98987</ele>
        <time>2023-07-19T16:01:04.000Z</time>
      </trkpt>
      <trkpt lat="45.78429" lon="4.7361">
        <ele>243.53952</ele>
        <time>2023-07-19T16:01:05.000Z</time>
      </trkpt>
      <trkpt lat="45.78428" lon="4.73606">
        <ele>243.07051</ele>
        <time>2023-07-19T16:01:06.000Z</time>
      </trkpt>
      <trkpt lat="45.78426" lon="4.73602">
        <ele>242.6375</ele>
        <time>2023-07-19T16:01:07.000Z</time>
      </trkpt>
      <trkpt lat="45.78425" lon="4.73599">
        <ele>242.13736</ele>
        <time>2023-07-19T16:01:08.000Z</time>
      </trkpt>
      <trkpt lat="45.78425" lon="4.73595">
        <ele>241.6615</ele>
        <time>2023-07-19T16:01:09.000Z</time>
      </trkpt>
      <trkpt lat="45.78427" lon="4.73591">
        <ele>241.24492</ele>
        <time>2023-07-19T16:01:10.000Z</time>
      </trkpt>
      <trkpt lat="45.7843" lon="4.73589">
        <ele>240.85519</ele>
        <time>2023-07-19T16:01:11.000Z</time>
      </trkpt>
      <trkpt lat="45.78435" lon="4.73588">
        <ele>240.42876</ele>
        <time>2023-07-19T16:01:12.000Z</time>
      </trkpt>
      <trkpt lat="45.78439" lon="4.73589">
        <ele>240.01804</ele>
        <time>2023-07-19T16:01:13.000Z</time>
      </trkpt>
      <trkpt lat="45.78447" lon="4.73591">
        <ele>239.60471</ele>
        <time>2023-07-19T16:01:14.000Z</time>
      </trkpt>
      <trkpt lat="45.78451" lon="4.73589">
        <ele>239.20659</ele>
        <time>2023-07-19T16:01:15.000Z</time>
      </trkpt>
      <trkpt lat="45.78455" lon="4.73588">
        <ele>238.89046</ele>
        <time>2023-07-19T16:01:16.000Z</time>
      </trkpt>
      <trkpt lat="45.7846" lon="4.73584">
        <ele>238.58081</ele>
        <time>2023-07-19T16:01:17.000Z</time>
      </trkpt>
      <trkpt lat="45.78464" lon="4.73583">
        <ele>238.24478</ele>
        <time>2023-07-19T16:01:18.000Z</time>
      </trkpt>
      <trkpt lat="45.78469" lon="4.73579">
        <ele>237.91585</ele>
        <time>2023-07-19T16:01:19.000Z</time>
      </trkpt>
      <trkpt lat="45.78474" lon="4.73577">
        <ele>237.6353</ele>
        <time>2023-07-19T16:01:20.000Z</time>
      </trkpt>
      <trkpt lat="45.78479" lon="4.73573">
        <ele>237.3929</ele>
        <time>2023-07-19T16:01:21.000Z</time>
      </trkpt>
      <trkpt lat="45.78483" lon="4.7357">
        <ele>237.15108</ele>
        <time>2023-07-19T16:01:22.000Z</time>
      </trkpt>
      <trkpt lat="45.78489" lon="4.73569">
        <ele>236.94312</ele>
        <time>2023-07-19T16:01:23.000Z</time>
      </trkpt>
      <trkpt lat="45.78494" lon="4.73568">
        <ele>236.75847</ele>
        <time>2023-07-19T16:01:24.000Z</time>
      </trkpt>
      <trkpt lat="45.78497" lon="4.73567">
        <ele>236.5699</ele>
        <time>2023-07-19T16:01:25.000Z</time>
      </trkpt>
      <trkpt lat="45.78501" lon="4.73564">
        <ele>236.39621</ele>
        <time>2023-07-19T16:01:26.000Z</time>
      </trkpt>
      <trkpt lat="45.78504" lon="4.7356">
        <ele>236.22469</ele>
        <time>2023-07-19T16:01:27.000Z</time>
      </trkpt>
      <trkpt lat="45.78506" lon="4.73554">
        <ele>236.09404</ele>
        <time>2023-07-19T16:01:28.000Z</time>
      </trkpt>
      <trkpt lat="45.78509" lon="4.73549">
        <ele>235.96237</ele>
        <time>2023-07-19T16:01:29.000Z</time>
      </trkpt>
      <trkpt lat="45.78511" lon="4.73543">
        <ele>235.79379</ele>
        <time>2023-07-19T16:01:30.000Z</time>
      </trkpt>
      <trkpt lat="45.78513" lon="4.73537">
        <ele>235.65385</ele>
        <time>2023-07-19T16:01:31.000Z</time>
      </trkpt>
      <trkpt lat="45.78516" lon="4.73531">
        <ele>235.5022</ele>
        <time>2023-07-19T16:01:32.000Z</time>
      </trkpt>
      <trkpt lat="45.78518" lon="4.73526">
        <ele>235.39035</ele>
        <time>2023-07-19T16:01:33.000Z</time>
      </trkpt>
      <trkpt lat="45.78518" lon="4.7352">
        <ele>235.24809</ele>
        <time>2023-07-19T16:01:34.000Z</time>
      </trkpt>
      <trkpt lat="45.78524" lon="4.73523">
        <ele>235.08957</ele>
        <time>2023-07-19T16:01:35.000Z</time>
      </trkpt>
      <trkpt lat="45.78527" lon="4.73525">
        <ele>234.92709</ele>
        <time>2023-07-19T16:01:36.000Z</time>
      </trkpt>
      <trkpt lat="45.7853" lon="4.73527">
        <ele>234.78137</ele>
        <time>2023-07-19T16:01:37.000Z</time>
      </trkpt>
      <trkpt lat="45.78533" lon="4.73529">
        <ele>234.69014</ele>
        <time>2023-07-19T16:01:38.000Z</time>
      </trkpt>
      <trkpt lat="45.78537" lon="4.73532">
        <ele>234.62912</ele>
        <time>2023-07-19T16:01:39.000Z</time>
      </trkpt>
      <trkpt lat="45.78541" lon="4.73536">
        <ele>234.56548</ele>
        <time>2023-07-19T16:01:40.000Z</time>
      </trkpt>
      <trkpt lat="45.78544" lon="4.73538">
        <ele>234.53079</ele>
        <time>2023-07-19T16:01:41.000Z</time>
      </trkpt>
      <trkpt lat="45.78547" lon="4.7354">
        <ele>234.51511</ele>
        <time>2023-07-19T16:01:42.000Z</time>
      </trkpt>
      <trkpt lat="45.78551" lon="4.73541">
        <ele>234.4882</ele>
        <time>2023-07-19T16:01:43.000Z</time>
      </trkpt>
      <trkpt lat="45.78558" lon="4.73543">
        <ele>234.4073</ele>
        <time>2023-07-19T16:01:44.000Z</time>
      </trkpt>
      <trkpt lat="45.78561" lon="4.73544">
        <ele>234.35275</ele>
        <time>2023-07-19T16:01:45.000Z</time>
      </trkpt>
      <trkpt lat="45.78565" lon="4.73545">
        <ele>234.32532</ele>
        <time>2023-07-19T16:01:46.000Z</time>
      </trkpt>
      <trkpt lat="45.78568" lon="4.73545">
        <ele>234.28238</ele>
        <time>2023-07-19T16:01:47.000Z</time>
      </trkpt>
      <trkpt lat="45.78572" lon="4.73547">
        <ele>234.25594</ele>
        <time>2023-07-19T16:01:48.000Z</time>
      </trkpt>
      <trkpt lat="45.78576" lon="4.73549">
        <ele>234.21761</ele>
        <time>2023-07-19T16:01:49.000Z</time>
      </trkpt>
      <trkpt lat="45.7858" lon="4.7355">
        <ele>234.23587</ele>
        <time>2023-07-19T16:01:50.000Z</time>
      </trkpt>
      <trkpt lat="45.78583" lon="4.73551">
        <ele>234.2511</ele>
        <time>2023-07-19T16:01:51.000Z</time>
      </trkpt>
      <trkpt lat="45.78586" lon="4.73553">
        <ele>234.18799</ele>
        <time>2023-07-19T16:01:52.000Z</time>
      </trkpt>
      <trkpt lat="45.78591" lon="4.73552">
        <ele>234.12663</ele>
        <time>2023-07-19T16:01:53.000Z</time>
      </trkpt>
      <trkpt lat="45.78595" lon="4.73551">
        <ele>234.13469</ele>
        <time>2023-07-19T16:01:54.000Z</time>
      </trkpt>
      <trkpt lat="45.78599" lon="4.7355">
        <ele>234.17778</ele>
        <time>2023-07-19T16:01:55.000Z</time>
      </trkpt>
      <trkpt lat="45.78603" lon="4.7355">
        <ele>234.19754</ele>
        <time>2023-07-19T16:01:56.000Z</time>
      </trkpt>
      <trkpt lat="45.78607" lon="4.7355">
        <ele>234.22128</ele>
        <time>2023-07-19T16:01:57.000Z</time>
      </trkpt>
      <trkpt lat="45.78611" lon="4.7355">
        <ele>234.21919</ele>
        <time>2023-07-19T16:01:58.000Z</time>
      </trkpt>
      <trkpt lat="45.78616" lon="4.7355">
        <ele>234.19185</ele>
        <time>2023-07-19T16:01:59.000Z</time>
      </trkpt>
      <trkpt lat="45.7862" lon="4.7355">
        <ele>234.19881</ele>
        <time>2023-07-19T16:02:00.000Z</time>
      </trkpt>
      <trkpt lat="45.78624" lon="4.73549">
        <ele>234.1991</ele>
        <time>2023-07-19T16:02:01.000Z</time>
      </trkpt>
      <trkpt lat="45.78628" lon="4.7355">
        <ele>234.19165</ele>
        <time>2023-07-19T16:02:02.000Z</time>
      </trkpt>
      <trkpt lat="45.78633" lon="4.7355">
        <ele>234.22102</ele>
        <time>2023-07-19T16:02:03.000Z</time>
      </trkpt>
      <trkpt lat="45.78637" lon="4.73551">
        <ele>234.34624</ele>
        <time>2023-07-19T16:02:04.000Z</time>
      </trkpt>
      <trkpt lat="45.78642" lon="4.7355">
        <ele>234.44556</ele>
        <time>2023-07-19T16:02:05.000Z</time>
      </trkpt>
      <trkpt lat="45.78646" lon="4.7355">
        <ele>234.58699</ele>
        <time>2023-07-19T16:02:06.000Z</time>
      </trkpt>
      <trkpt lat="45.78648" lon="4.73551">
        <ele>234.67606</ele>
        <time>2023-07-19T16:02:07.000Z</time>
      </trkpt>
      <trkpt lat="45.78653" lon="4.73549">
        <ele>234.78426</ele>
        <time>2023-07-19T16:02:08.000Z</time>
      </trkpt>
      <trkpt lat="45.78657" lon="4.7355">
        <ele>234.92607</ele>
        <time>2023-07-19T16:02:09.000Z</time>
      </trkpt>
      <trkpt lat="45.78663" lon="4.73553">
        <ele>235.0571</ele>
        <time>2023-07-19T16:02:10.000Z</time>
      </trkpt>
      <trkpt lat="45.78666" lon="4.73555">
        <ele>235.14507</ele>
        <time>2023-07-19T16:02:11.000Z</time>
      </trkpt>
      <trkpt lat="45.7867" lon="4.73556">
        <ele>235.33684</ele>
        <time>2023-07-19T16:02:12.000Z</time>
      </trkpt>
      <trkpt lat="45.78676" lon="4.73555">
        <ele>235.49722</ele>
        <time>2023-07-19T16:02:13.000Z</time>
      </trkpt>
      <trkpt lat="45.78682" lon="4.73553">
        <ele>235.64558</ele>
        <time>2023-07-19T16:02:14.000Z</time>
      </trkpt>
      <trkpt lat="45.78686" lon="4.73553">
        <ele>235.80302</ele>
        <time>2023-07-19T16:02:15.000Z</time>
      </trkpt>
      <trkpt lat="45.7869" lon="4.73551">
        <ele>235.97287</ele>
        <time>2023-07-19T16:02:16.000Z</time>
      </trkpt>
      <trkpt lat="45.78695" lon="4.73549">
        <ele>236.14084</ele>
        <time>2023-07-19T16:02:17.000Z</time>
      </trkpt>
      <trkpt lat="45.78698" lon="4.7355">
        <ele>236.34273</ele>
        <time>2023-07-19T16:02:18.000Z</time>
      </trkpt>
      <trkpt lat="45.78702" lon="4.7355">
        <ele>236.58487</ele>
        <time>2023-07-19T16:02:19.000Z</time>
      </trkpt>
      <trkpt lat="45.78707" lon="4.73552">
        <ele>236.77502</ele>
        <time>2023-07-19T16:02:20.000Z</time>
      </trkpt>
      <trkpt lat="45.78712" lon="4.73552">
        <ele>236.94531</ele>
        <time>2023-07-19T16:02:21.000Z</time>
      </trkpt>
      <trkpt lat="45.78717" lon="4.7355">
        <ele>237.11797</ele>
        <time>2023-07-19T16:02:22.000Z</time>
      </trkpt>
      <trkpt lat="45.78721" lon="4.73551">
        <ele>237.29031</ele>
        <time>2023-07-19T16:02:23.000Z</time>
      </trkpt>
      <trkpt lat="45.78724" lon="4.73552">
        <ele>237.42134</ele>
        <time>2023-07-19T16:02:24.000Z</time>
      </trkpt>
      <trkpt lat="45.78729" lon="4.7355">
        <ele>237.57581</ele>
        <time>2023-07-19T16:02:25.000Z</time>
      </trkpt>
      <trkpt lat="45.78732" lon="4.73551">
        <ele>237.68303</ele>
        <time>2023-07-19T16:02:26.000Z</time>
      </trkpt>
      <trkpt lat="45.78736" lon="4.73548">
        <ele>237.86075</ele>
        <time>2023-07-19T16:02:27.000Z</time>
      </trkpt>
      <trkpt lat="45.7874" lon="4.73549">
        <ele>238.03708</ele>
        <time>2023-07-19T16:02:28.000Z</time>
      </trkpt>
      <trkpt lat="45.78744" lon="4.73548">
        <ele>238.20224</ele>
        <time>2023-07-19T16:02:29.000Z</time>
      </trkpt>
      <trkpt lat="45.78748" lon="4.73547">
        <ele>238.33098</ele>
        <time>2023-07-19T16:02:30.000Z</time>
      </trkpt>
      <trkpt lat="45.78753" lon="4.73546">
        <ele>238.50851</ele>
        <time>2023-07-19T16:02:31.000Z</time>
      </trkpt>
      <trkpt lat="45.78757" lon="4.73545">
        <ele>238.70337</ele>
        <time>2023-07-19T16:02:32.000Z</time>
      </trkpt>
      <trkpt lat="45.7876" lon="4.73543">
        <ele>238.89876</ele>
        <time>2023-07-19T16:02:33.000Z</time>
      </trkpt>
      <trkpt lat="45.78764" lon="4.73541">
        <ele>239.05374</ele>
        <time>2023-07-19T16:02:34.000Z</time>
      </trkpt>
      <trkpt lat="45.78767" lon="4.7354">
        <ele>239.1669</ele>
        <time>2023-07-19T16:02:35.000Z</time>
      </trkpt>
      <trkpt lat="45.7877" lon="4.73538">
        <ele>239.21378</ele>
        <time>2023-07-19T16:02:36.000Z</time>
      </trkpt>
      <trkpt lat="45.78773" lon="4.73537">
        <ele>239.27722</ele>
        <time>2023-07-19T16:02:37.000Z</time>
      </trkpt>
      <trkpt lat="45.78776" lon="4.73534">
        <ele>239.30322</ele>
        <time>2023-07-19T16:02:38.000Z</time>
      </trkpt>
      <trkpt lat="45.78779" lon="4.73532">
        <ele>239.29019</ele>
        <time>2023-07-19T16:02:39.000Z</time>
      </trkpt>
      <trkpt lat="45.7878" lon="4.73528">
        <ele>239.27148</ele>
        <time>2023-07-19T16:02:40.000Z</time>
      </trkpt>
      <trkpt lat="45.7878" lon="4.73524">
        <ele>240.55026</ele>
        <time>2023-07-19T16:02:41.000Z</time>
      </trkpt>
      <trkpt lat="45.78778" lon="4.73521">
        <ele>241.81035</ele>
        <time>2023-07-19T16:02:42.000Z</time>
      </trkpt>
      <trkpt lat="45.78775" lon="4.73519">
        <ele>243.12427</ele>
        <time>2023-07-19T16:02:43.000Z</time>
      </trkpt>
      <trkpt lat="45.78772" lon="4.7352">
        <ele>244.43509</ele>
        <time>2023-07-19T16:02:44.000Z</time>
      </trkpt>
      <trkpt lat="45.78768" lon="4.73522">
        <ele>245.90227</ele>
        <time>2023-07-19T16:02:45.000Z</time>
      </trkpt>
      <trkpt lat="45.78764" lon="4.73524">
        <ele>247.3577</ele>
        <time>2023-07-19T16:02:46.000Z</time>
      </trkpt>
      <trkpt lat="45.78761" lon="4.73527">
        <ele>248.26729</ele>
        <time>2023-07-19T16:02:47.000Z</time>
      </trkpt>
      <trkpt lat="45.78757" lon="4.73528">
        <ele>249.18777</ele>
        <time>2023-07-19T16:02:48.000Z</time>
      </trkpt>
      <trkpt lat="45.78753" lon="4.73529">
        <ele>250.16328</ele>
        <time>2023-07-19T16:02:49.000Z</time>
      </trkpt>
      <trkpt lat="45.7875" lon="4.73529">
        <ele>251.06326</ele>
        <time>2023-07-19T16:02:50.000Z</time>
      </trkpt>
      <trkpt lat="45.78746" lon="4.73529">
        <ele>251.97916</ele>
        <time>2023-07-19T16:02:51.000Z</time>
      </trkpt>
      <trkpt lat="45.78742" lon="4.73529">
        <ele>252.87981</ele>
        <time>2023-07-19T16:02:52.000Z</time>
      </trkpt>
      <trkpt lat="45.78738" lon="4.73529">
        <ele>253.80301</ele>
        <time>2023-07-19T16:02:53.000Z</time>
      </trkpt>
      <trkpt lat="45.78733" lon="4.73528">
        <ele>254.76372</ele>
        <time>2023-07-19T16:02:54.000Z</time>
      </trkpt>
      <trkpt lat="45.78728" lon="4.73526">
        <ele>255.70613</ele>
        <time>2023-07-19T16:02:55.000Z</time>
      </trkpt>
      <trkpt lat="45.78723" lon="4.73523">
        <ele>257.1734</ele>
        <time>2023-07-19T16:02:56.000Z</time>
      </trkpt>
      <trkpt lat="45.78719" lon="4.7352">
        <ele>257.23129</ele>
        <time>2023-07-19T16:02:57.000Z</time>
      </trkpt>
      <trkpt lat="45.78715" lon="4.73518">
        <ele>257.33261</ele>
        <time>2023-07-19T16:02:58.000Z</time>
      </trkpt>
      <trkpt lat="45.7871" lon="4.73517">
        <ele>257.41132</ele>
        <time>2023-07-19T16:02:59.000Z</time>
      </trkpt>
      <trkpt lat="45.78706" lon="4.73514">
        <ele>257.47928</ele>
        <time>2023-07-19T16:03:00.000Z</time>
      </trkpt>
      <trkpt lat="45.78703" lon="4.73512">
        <ele>256.2442</ele>
        <time>2023-07-19T16:03:01.000Z</time>
      </trkpt>
      <trkpt lat="45.78699" lon="4.73511">
        <ele>255.10977</ele>
        <time>2023-07-19T16:03:02.000Z</time>
      </trkpt>
      <trkpt lat="45.78696" lon="4.7351">
        <ele>253.92361</ele>
        <time>2023-07-19T16:03:03.000Z</time>
      </trkpt>
      <trkpt lat="45.78691" lon="4.73507">
        <ele>252.76218</ele>
        <time>2023-07-19T16:03:04.000Z</time>
      </trkpt>
      <trkpt lat="45.78687" lon="4.73505">
        <ele>251.47226</ele>
        <time>2023-07-19T16:03:05.000Z</time>
      </trkpt>
      <trkpt lat="45.78684" lon="4.73503">
        <ele>250.1759</ele>
        <time>2023-07-19T16:03:06.000Z</time>
      </trkpt>
      <trkpt lat="45.78679" lon="4.73501">
        <ele>249.44437</ele>
        <time>2023-07-19T16:03:07.000Z</time>
      </trkpt>
      <trkpt lat="45.78675" lon="4.73499">
        <ele>248.71622</ele>
        <time>2023-07-19T16:03:08.000Z</time>
      </trkpt>
      <trkpt lat="45.78671" lon="4.73499">
        <ele>247.94502</ele>
        <time>2023-07-19T16:03:09.000Z</time>
      </trkpt>
      <trkpt lat="45.78668" lon="4.73497">
        <ele>247.26912</ele>
        <time>2023-07-19T16:03:10.000Z</time>
      </trkpt>
      <trkpt lat="45.78665" lon="4.73495">
        <ele>246.56534</ele>
        <time>2023-07-19T16:03:11.000Z</time>
      </trkpt>
      <trkpt lat="45.78662" lon="4.73493">
        <ele>245.86429</ele>
        <time>2023-07-19T16:03:12.000Z</time>
      </trkpt>
      <trkpt lat="45.78659" lon="4.73491">
        <ele>245.15231</ele>
        <time>2023-07-19T16:03:13.000Z</time>
      </trkpt>
      <trkpt lat="45.78656" lon="4.73488">
        <ele>244.35527</ele>
        <time>2023-07-19T16:03:14.000Z</time>
      </trkpt>
      <trkpt lat="45.78653" lon="4.73487">
        <ele>243.62961</ele>
        <time>2023-07-19T16:03:15.000Z</time>
      </trkpt>
      <trkpt lat="45.7865" lon="4.73487">
        <ele>242.44522</ele>
        <time>2023-07-19T16:03:16.000Z</time>
      </trkpt>
      <trkpt lat="45.78647" lon="4.73484">
        <ele>242.67989</ele>
        <time>2023-07-19T16:03:17.000Z</time>
      </trkpt>
      <trkpt lat="45.78645" lon="4.73483">
        <ele>242.91281</ele>
        <time>2023-07-19T16:03:18.000Z</time>
      </trkpt>
      <trkpt lat="45.78642" lon="4.73481">
        <ele>243.21455</ele>
        <time>2023-07-19T16:03:19.000Z</time>
      </trkpt>
      <trkpt lat="45.7864" lon="4.73479">
        <ele>243.55159</ele>
        <time>2023-07-19T16:03:20.000Z</time>
      </trkpt>
      <trkpt lat="45.78638" lon="4.73476">
        <ele>243.89983</ele>
        <time>2023-07-19T16:03:21.000Z</time>
      </trkpt>
      <trkpt lat="45.78636" lon="4.73472">
        <ele>244.19864</ele>
        <time>2023-07-19T16:03:22.000Z</time>
      </trkpt>
      <trkpt lat="45.78634" lon="4.73468">
        <ele>244.52097</ele>
        <time>2023-07-19T16:03:23.000Z</time>
      </trkpt>
      <trkpt lat="45.78634" lon="4.73464">
        <ele>244.88374</ele>
        <time>2023-07-19T16:03:24.000Z</time>
      </trkpt>
      <trkpt lat="45.78634" lon="4.73459">
        <ele>245.27347</ele>
        <time>2023-07-19T16:03:25.000Z</time>
      </trkpt>
      <trkpt lat="45.78636" lon="4.73455">
        <ele>245.75095</ele>
        <time>2023-07-19T16:03:26.000Z</time>
      </trkpt>
      <trkpt lat="45.78639" lon="4.73451">
        <ele>246.20755</ele>
        <time>2023-07-19T16:03:27.000Z</time>
      </trkpt>
      <trkpt lat="45.78643" lon="4.73448">
        <ele>246.66016</ele>
        <time>2023-07-19T16:03:28.000Z</time>
      </trkpt>
      <trkpt lat="45.78646" lon="4.73445">
        <ele>247.10355</ele>
        <time>2023-07-19T16:03:29.000Z</time>
      </trkpt>
      <trkpt lat="45.7865" lon="4.73442">
        <ele>247.58493</ele>
        <time>2023-07-19T16:03:30.000Z</time>
      </trkpt>
      <trkpt lat="45.78653" lon="4.7344">
        <ele>248.15616</ele>
        <time>2023-07-19T16:03:31.000Z</time>
      </trkpt>
      <trkpt lat="45.78656" lon="4.73438">
        <ele>248.71008</ele>
        <time>2023-07-19T16:03:32.000Z</time>
      </trkpt>
      <trkpt lat="45.7866" lon="4.73436">
        <ele>249.32056</ele>
        <time>2023-07-19T16:03:33.000Z</time>
      </trkpt>
      <trkpt lat="45.78663" lon="4.73434">
        <ele>250.01164</ele>
        <time>2023-07-19T16:03:34.000Z</time>
      </trkpt>
      <trkpt lat="45.78666" lon="4.73432">
        <ele>250.74496</ele>
        <time>2023-07-19T16:03:35.000Z</time>
      </trkpt>
      <trkpt lat="45.78669" lon="4.7343">
        <ele>251.47478</ele>
        <time>2023-07-19T16:03:36.000Z</time>
      </trkpt>
      <trkpt lat="45.78672" lon="4.73428">
        <ele>252.18884</ele>
        <time>2023-07-19T16:03:37.000Z</time>
      </trkpt>
      <trkpt lat="45.78676" lon="4.73426">
        <ele>252.8759</ele>
        <time>2023-07-19T16:03:38.000Z</time>
      </trkpt>
      <trkpt lat="45.78679" lon="4.73424">
        <ele>253.53714</ele>
        <time>2023-07-19T16:03:39.000Z</time>
      </trkpt>
      <trkpt lat="45.78683" lon="4.73422">
        <ele>254.20906</ele>
        <time>2023-07-19T16:03:40.000Z</time>
      </trkpt>
      <trkpt lat="45.78686" lon="4.73419">
        <ele>254.90286</ele>
        <time>2023-07-19T16:03:41.000Z</time>
      </trkpt>
      <trkpt lat="45.78689" lon="4.73416">
        <ele>255.58301</ele>
        <time>2023-07-19T16:03:42.000Z</time>
      </trkpt>
      <trkpt lat="45.78693" lon="4.73414">
        <ele>256.22162</ele>
        <time>2023-07-19T16:03:43.000Z</time>
      </trkpt>
      <trkpt lat="45.78697" lon="4.73412">
        <ele>256.8063</ele>
        <time>2023-07-19T16:03:44.000Z</time>
      </trkpt>
      <trkpt lat="45.787" lon="4.73409">
        <ele>257.37814</ele>
        <time>2023-07-19T16:03:45.000Z</time>
      </trkpt>
      <trkpt lat="45.78704" lon="4.73407">
        <ele>257.87457</ele>
        <time>2023-07-19T16:03:46.000Z</time>
      </trkpt>
      <trkpt lat="45.78708" lon="4.73404">
        <ele>258.37445</ele>
        <time>2023-07-19T16:03:47.000Z</time>
      </trkpt>
      <trkpt lat="45.78712" lon="4.73401">
        <ele>258.8421</ele>
        <time>2023-07-19T16:03:48.000Z</time>
      </trkpt>
      <trkpt lat="45.78716" lon="4.73398">
        <ele>259.2829</ele>
        <time>2023-07-19T16:03:49.000Z</time>
      </trkpt>
      <trkpt lat="45.78719" lon="4.73396">
        <ele>259.60394</ele>
        <time>2023-07-19T16:03:50.000Z</time>
      </trkpt>
      <trkpt lat="45.78723" lon="4.73393">
        <ele>259.81354</ele>
        <time>2023-07-19T16:03:51.000Z</time>
      </trkpt>
      <trkpt lat="45.78727" lon="4.7339">
        <ele>260.00443</ele>
        <time>2023-07-19T16:03:52.000Z</time>
      </trkpt>
      <trkpt lat="45.78731" lon="4.73388">
        <ele>260.14093</ele>
        <time>2023-07-19T16:03:53.000Z</time>
      </trkpt>
      <trkpt lat="45.78735" lon="4.73385">
        <ele>260.26056</ele>
        <time>2023-07-19T16:03:54.000Z</time>
      </trkpt>
      <trkpt lat="45.78739" lon="4.73383">
        <ele>260.1944</ele>
        <time>2023-07-19T16:03:55.000Z</time>
      </trkpt>
      <trkpt lat="45.78743" lon="4.7338">
        <ele>260.11029</ele>
        <time>2023-07-19T16:03:56.000Z</time>
      </trkpt>
      <trkpt lat="45.78747" lon="4.73378">
        <ele>260.00687</ele>
        <time>2023-07-19T16:03:57.000Z</time>
      </trkpt>
      <trkpt lat="45.78751" lon="4.73375">
        <ele>259.8952</ele>
        <time>2023-07-19T16:03:58.000Z</time>
      </trkpt>
      <trkpt lat="45.78754" lon="4.73372">
        <ele>259.75735</ele>
        <time>2023-07-19T16:03:59.000Z</time>
      </trkpt>
      <trkpt lat="45.78758" lon="4.73369">
        <ele>259.55148</ele>
        <time>2023-07-19T16:04:00.000Z</time>
      </trkpt>
      <trkpt lat="45.78762" lon="4.73366">
        <ele>259.53839</ele>
        <time>2023-07-19T16:04:01.000Z</time>
      </trkpt>
      <trkpt lat="45.78766" lon="4.73363">
        <ele>259.42508</ele>
        <time>2023-07-19T16:04:02.000Z</time>
      </trkpt>
      <trkpt lat="45.7877" lon="4.7336">
        <ele>259.2955</ele>
        <time>2023-07-19T16:04:03.000Z</time>
      </trkpt>
      <trkpt lat="45.78773" lon="4.73357">
        <ele>259.1777</ele>
        <time>2023-07-19T16:04:04.000Z</time>
      </trkpt>
      <trkpt lat="45.78776" lon="4.73356">
        <ele>258.996</ele>
        <time>2023-07-19T16:04:05.000Z</time>
      </trkpt>
      <trkpt lat="45.78781" lon="4.73356">
        <ele>258.7988</ele>
        <time>2023-07-19T16:04:06.000Z</time>
      </trkpt>
      <trkpt lat="45.78785" lon="4.73352">
        <ele>258.54501</ele>
        <time>2023-07-19T16:04:07.000Z</time>
      </trkpt>
      <trkpt lat="45.78789" lon="4.73348">
        <ele>258.41275</ele>
        <time>2023-07-19T16:04:08.000Z</time>
      </trkpt>
      <trkpt lat="45.78794" lon="4.73345">
        <ele>258.17584</ele>
        <time>2023-07-19T16:04:09.000Z</time>
      </trkpt>
      <trkpt lat="45.78799" lon="4.73341">
        <ele>257.99518</ele>
        <time>2023-07-19T16:04:10.000Z</time>
      </trkpt>
      <trkpt lat="45.78804" lon="4.73336">
        <ele>257.74216</ele>
        <time>2023-07-19T16:04:11.000Z</time>
      </trkpt>
      <trkpt lat="45.78811" lon="4.73332">
        <ele>257.49786</ele>
        <time>2023-07-19T16:04:12.000Z</time>
      </trkpt>
      <trkpt lat="45.78818" lon="4.73327">
        <ele>257.22449</ele>
        <time>2023-07-19T16:04:13.000Z</time>
      </trkpt>
      <trkpt lat="45.78826" lon="4.73324">
        <ele>257.11017</ele>
        <time>2023-07-19T16:04:14.000Z</time>
      </trkpt>
      <trkpt lat="45.78834" lon="4.73324">
        <ele>257.05154</ele>
        <time>2023-07-19T16:04:15.000Z</time>
      </trkpt>
      <trkpt lat="45.78841" lon="4.73325">
        <ele>257.02121</ele>
        <time>2023-07-19T16:04:16.000Z</time>
      </trkpt>
      <trkpt lat="45.7885" lon="4.73327">
        <ele>257.01886</ele>
        <time>2023-07-19T16:04:17.000Z</time>
      </trkpt>
      <trkpt lat="45.78857" lon="4.73329">
        <ele>256.80435</ele>
        <time>2023-07-19T16:04:18.000Z</time>
      </trkpt>
      <trkpt lat="45.78865" lon="4.73333">
        <ele>257.43927</ele>
        <time>2023-07-19T16:04:19.000Z</time>
      </trkpt>
      <trkpt lat="45.78874" lon="4.73335">
        <ele>258.20093</ele>
        <time>2023-07-19T16:04:20.000Z</time>
      </trkpt>
      <trkpt lat="45.78882" lon="4.73337">
        <ele>258.6796</ele>
        <time>2023-07-19T16:04:21.000Z</time>
      </trkpt>
      <trkpt lat="45.7889" lon="4.73339">
        <ele>259.17828</ele>
        <time>2023-07-19T16:04:22.000Z</time>
      </trkpt>
      <trkpt lat="45.78898" lon="4.73341">
        <ele>259.68832</ele>
        <time>2023-07-19T16:04:23.000Z</time>
      </trkpt>
      <trkpt lat="45.78906" lon="4.73342">
        <ele>260.15442</ele>
        <time>2023-07-19T16:04:24.000Z</time>
      </trkpt>
      <trkpt lat="45.78914" lon="4.73343">
        <ele>260.64825</ele>
        <time>2023-07-19T16:04:25.000Z</time>
      </trkpt>
      <trkpt lat="45.7892" lon="4.73344">
        <ele>261.1279</ele>
        <time>2023-07-19T16:04:26.000Z</time>
      </trkpt>
      <trkpt lat="45.78926" lon="4.73346">
        <ele>261.61417</ele>
        <time>2023-07-19T16:04:27.000Z</time>
      </trkpt>
      <trkpt lat="45.78932" lon="4.73349">
        <ele>261.99521</ele>
        <time>2023-07-19T16:04:28.000Z</time>
      </trkpt>
      <trkpt lat="45.78938" lon="4.7335">
        <ele>262.51031</ele>
        <time>2023-07-19T16:04:29.000Z</time>
      </trkpt>
      <trkpt lat="45.78943" lon="4.73351">
        <ele>263.04242</ele>
        <time>2023-07-19T16:04:30.000Z</time>
      </trkpt>
      <trkpt lat="45.78947" lon="4.73353">
        <ele>263.65143</ele>
        <time>2023-07-19T16:04:31.000Z</time>
      </trkpt>
      <trkpt lat="45.78952" lon="4.73355">
        <ele>264.2265</ele>
        <time>2023-07-19T16:04:32.000Z</time>
      </trkpt>
      <trkpt lat="45.78957" lon="4.73357">
        <ele>264.81644</ele>
        <time>2023-07-19T16:04:33.000Z</time>
      </trkpt>
      <trkpt lat="45.78961" lon="4.73358">
        <ele>265.23505</ele>
        <time>2023-07-19T16:04:34.000Z</time>
      </trkpt>
      <trkpt lat="45.78964" lon="4.73358">
        <ele>265.70032</ele>
        <time>2023-07-19T16:04:35.000Z</time>
      </trkpt>
      <trkpt lat="45.78968" lon="4.7336">
        <ele>266.13141</ele>
        <time>2023-07-19T16:04:36.000Z</time>
      </trkpt>
      <trkpt lat="45.78971" lon="4.73362">
        <ele>266.53476</ele>
        <time>2023-07-19T16:04:37.000Z</time>
      </trkpt>
      <trkpt lat="45.78974" lon="4.73363">
        <ele>267.146</ele>
        <time>2023-07-19T16:04:38.000Z</time>
      </trkpt>
      <trkpt lat="45.78977" lon="4.73365">
        <ele>267.14047</ele>
        <time>2023-07-19T16:04:40.000Z</time>
      </trkpt>
      <trkpt lat="45.78979" lon="4.73364">
        <ele>266.82013</ele>
        <time>2023-07-19T16:04:42.000Z</time>
      </trkpt>
      <trkpt lat="45.78979" lon="4.73362">
        <ele>266.55841</ele>
        <time>2023-07-19T16:04:44.000Z</time>
      </trkpt>
      <trkpt lat="45.78976" lon="4.73359">
        <ele>266.36389</ele>
        <time>2023-07-19T16:04:46.000Z</time>
      </trkpt>
      <trkpt lat="45.78973" lon="4.73359">
        <ele>266.21185</ele>
        <time>2023-07-19T16:04:47.000Z</time>
      </trkpt>
      <trkpt lat="45.78971" lon="4.73359">
        <ele>266.02451</ele>
        <time>2023-07-19T16:04:48.000Z</time>
      </trkpt>
      <trkpt lat="45.78968" lon="4.73358">
        <ele>265.88489</ele>
        <time>2023-07-19T16:04:49.000Z</time>
      </trkpt>
      <trkpt lat="45.78965" lon="4.73358">
        <ele>265.78116</ele>
        <time>2023-07-19T16:04:50.000Z</time>
      </trkpt>
      <trkpt lat="45.78962" lon="4.73357">
        <ele>265.72653</ele>
        <time>2023-07-19T16:04:51.000Z</time>
      </trkpt>
      <trkpt lat="45.78959" lon="4.73357">
        <ele>265.7081</ele>
        <time>2023-07-19T16:04:52.000Z</time>
      </trkpt>
      <trkpt lat="45.78956" lon="4.73356">
        <ele>265.66974</ele>
        <time>2023-07-19T16:04:53.000Z</time>
      </trkpt>
      <trkpt lat="45.78953" lon="4.73354">
        <ele>265.62781</ele>
        <time>2023-07-19T16:04:54.000Z</time>
      </trkpt>
      <trkpt lat="45.78949" lon="4.73352">
        <ele>265.75153</ele>
        <time>2023-07-19T16:04:55.000Z</time>
      </trkpt>
      <trkpt lat="45.78946" lon="4.7335">
        <ele>265.99493</ele>
        <time>2023-07-19T16:04:56.000Z</time>
      </trkpt>
      <trkpt lat="45.78943" lon="4.73348">
        <ele>266.23944</ele>
        <time>2023-07-19T16:04:57.000Z</time>
      </trkpt>
      <trkpt lat="45.78939" lon="4.73346">
        <ele>266.22806</ele>
        <time>2023-07-19T16:04:58.000Z</time>
      </trkpt>
      <trkpt lat="45.78936" lon="4.73345">
        <ele>266.22049</ele>
        <time>2023-07-19T16:04:59.000Z</time>
      </trkpt>
      <trkpt lat="45.78932" lon="4.73343">
        <ele>266.17792</ele>
        <time>2023-07-19T16:05:00.000Z</time>
      </trkpt>
      <trkpt lat="45.78929" lon="4.73343">
        <ele>266.12534</ele>
        <time>2023-07-19T16:05:01.000Z</time>
      </trkpt>
      <trkpt lat="45.78927" lon="4.73343">
        <ele>266.10968</ele>
        <time>2023-07-19T16:05:02.000Z</time>
      </trkpt>
      <trkpt lat="45.78925" lon="4.73341">
        <ele>265.85254</ele>
        <time>2023-07-19T16:05:04.000Z</time>
      </trkpt>
      <trkpt lat="45.78926" lon="4.73336">
        <ele>266.09979</ele>
        <time>2023-07-19T16:05:06.000Z</time>
      </trkpt>
      <trkpt lat="45.78928" lon="4.73335">
        <ele>266.07278</ele>
        <time>2023-07-19T16:05:08.000Z</time>
      </trkpt>
      <trkpt lat="45.7893" lon="4.73334">
        <ele>266.13239</ele>
        <time>2023-07-19T16:05:12.000Z</time>
      </trkpt>
      <trkpt lat="45.78929" lon="4.73336">
        <ele>266.03741</ele>
        <time>2023-07-19T16:05:20.000Z</time>
      </trkpt>
      <trkpt lat="45.78928" lon="4.73342">
        <ele>266.00674</ele>
        <time>2023-07-19T16:05:22.000Z</time>
      </trkpt>
      <trkpt lat="45.78929" lon="4.73345">
        <ele>265.93942</ele>
        <time>2023-07-19T16:05:23.000Z</time>
      </trkpt>
      <trkpt lat="45.7893" lon="4.73348">
        <ele>265.85947</ele>
        <time>2023-07-19T16:05:24.000Z</time>
      </trkpt>
      <trkpt lat="45.78933" lon="4.7335">
        <ele>265.74039</ele>
        <time>2023-07-19T16:05:25.000Z</time>
      </trkpt>
      <trkpt lat="45.78937" lon="4.73351">
        <ele>265.74619</ele>
        <time>2023-07-19T16:05:26.000Z</time>
      </trkpt>
      <trkpt lat="45.7894" lon="4.73352">
        <ele>265.80829</ele>
        <time>2023-07-19T16:05:27.000Z</time>
      </trkpt>
      <trkpt lat="45.78944" lon="4.73352">
        <ele>265.56073</ele>
        <time>2023-07-19T16:05:28.000Z</time>
      </trkpt>
      <trkpt lat="45.78947" lon="4.73353">
        <ele>265.26834</ele>
        <time>2023-07-19T16:05:29.000Z</time>
      </trkpt>
      <trkpt lat="45.78951" lon="4.73353">
        <ele>264.86447</ele>
        <time>2023-07-19T16:05:30.000Z</time>
      </trkpt>
      <trkpt lat="45.78954" lon="4.73354">
        <ele>264.53067</ele>
        <time>2023-07-19T16:05:31.000Z</time>
      </trkpt>
      <trkpt lat="45.78958" lon="4.73354">
        <ele>264.50934</ele>
        <time>2023-07-19T16:05:32.000Z</time>
      </trkpt>
      <trkpt lat="45.78962" lon="4.73356">
        <ele>264.50952</ele>
        <time>2023-07-19T16:05:33.000Z</time>
      </trkpt>
      <trkpt lat="45.78966" lon="4.73357">
        <ele>264.5412</ele>
        <time>2023-07-19T16:05:34.000Z</time>
      </trkpt>
      <trkpt lat="45.7897" lon="4.73358">
        <ele>264.61331</ele>
        <time>2023-07-19T16:05:35.000Z</time>
      </trkpt>
      <trkpt lat="45.78974" lon="4.73359">
        <ele>264.57977</ele>
        <time>2023-07-19T16:05:36.000Z</time>
      </trkpt>
      <trkpt lat="45.78978" lon="4.73361">
        <ele>264.59799</ele>
        <time>2023-07-19T16:05:37.000Z</time>
      </trkpt>
      <trkpt lat="45.78982" lon="4.73362">
        <ele>264.29712</ele>
        <time>2023-07-19T16:05:38.000Z</time>
      </trkpt>
      <trkpt lat="45.78986" lon="4.73365">
        <ele>264.3038</ele>
        <time>2023-07-19T16:05:39.000Z</time>
      </trkpt>
      <trkpt lat="45.7899" lon="4.73368">
        <ele>264.2674</ele>
        <time>2023-07-19T16:05:40.000Z</time>
      </trkpt>
      <trkpt lat="45.78993" lon="4.73371">
        <ele>264.33966</ele>
        <time>2023-07-19T16:05:41.000Z</time>
      </trkpt>
      <trkpt lat="45.78997" lon="4.73373">
        <ele>264.42419</ele>
        <time>2023-07-19T16:05:42.000Z</time>
      </trkpt>
      <trkpt lat="45.79" lon="4.73373">
        <ele>264.53418</ele>
        <time>2023-07-19T16:05:43.000Z</time>
      </trkpt>
      <trkpt lat="45.79003" lon="4.73373">
        <ele>264.63922</ele>
        <time>2023-07-19T16:05:44.000Z</time>
      </trkpt>
      <trkpt lat="45.79007" lon="4.73374">
        <ele>264.75842</ele>
        <time>2023-07-19T16:05:45.000Z</time>
      </trkpt>
      <trkpt lat="45.7901" lon="4.73375">
        <ele>264.78421</ele>
        <time>2023-07-19T16:05:46.000Z</time>
      </trkpt>
      <trkpt lat="45.79013" lon="4.73377">
        <ele>264.81888</ele>
        <time>2023-07-19T16:05:47.000Z</time>
      </trkpt>
      <trkpt lat="45.79017" lon="4.73378">
        <ele>265.17459</ele>
        <time>2023-07-19T16:05:48.000Z</time>
      </trkpt>
      <trkpt lat="45.79021" lon="4.73379">
        <ele>265.37869</ele>
        <time>2023-07-19T16:05:49.000Z</time>
      </trkpt>
      <trkpt lat="45.79025" lon="4.7338">
        <ele>265.55597</ele>
        <time>2023-07-19T16:05:50.000Z</time>
      </trkpt>
      <trkpt lat="45.79028" lon="4.7338">
        <ele>265.68658</ele>
        <time>2023-07-19T16:05:51.000Z</time>
      </trkpt>
      <trkpt lat="45.79031" lon="4.73381">
        <ele>265.83466</ele>
        <time>2023-07-19T16:05:52.000Z</time>
      </trkpt>
      <trkpt lat="45.79035" lon="4.73381">
        <ele>265.9704</ele>
        <time>2023-07-19T16:05:53.000Z</time>
      </trkpt>
      <trkpt lat="45.79039" lon="4.73383">
        <ele>266.07846</ele>
        <time>2023-07-19T16:05:54.000Z</time>
      </trkpt>
      <trkpt lat="45.79043" lon="4.73384">
        <ele>266.21341</ele>
        <time>2023-07-19T16:05:55.000Z</time>
      </trkpt>
      <trkpt lat="45.79047" lon="4.73385">
        <ele>266.42267</ele>
        <time>2023-07-19T16:05:56.000Z</time>
      </trkpt>
      <trkpt lat="45.79052" lon="4.73386">
        <ele>266.60028</ele>
        <time>2023-07-19T16:05:57.000Z</time>
      </trkpt>
      <trkpt lat="45.79056" lon="4.73388">
        <ele>266.97391</ele>
        <time>2023-07-19T16:05:58.000Z</time>
      </trkpt>
      <trkpt lat="45.7906" lon="4.73389">
        <ele>267.38681</ele>
        <time>2023-07-19T16:05:59.000Z</time>
      </trkpt>
      <trkpt lat="45.79065" lon="4.7339">
        <ele>267.47873</ele>
        <time>2023-07-19T16:06:00.000Z</time>
      </trkpt>
      <trkpt lat="45.79069" lon="4.73392">
        <ele>267.64169</ele>
        <time>2023-07-19T16:06:01.000Z</time>
      </trkpt>
      <trkpt lat="45.79073" lon="4.73393">
        <ele>267.82837</ele>
        <time>2023-07-19T16:06:02.000Z</time>
      </trkpt>
      <trkpt lat="45.79077" lon="4.73394">
        <ele>268.01035</ele>
        <time>2023-07-19T16:06:03.000Z</time>
      </trkpt>
      <trkpt lat="45.7908" lon="4.73396">
        <ele>268.1716</ele>
        <time>2023-07-19T16:06:04.000Z</time>
      </trkpt>
      <trkpt lat="45.79084" lon="4.73397">
        <ele>268.31845</ele>
        <time>2023-07-19T16:06:05.000Z</time>
      </trkpt>
      <trkpt lat="45.79087" lon="4.73398">
        <ele>268.36517</ele>
        <time>2023-07-19T16:06:06.000Z</time>
      </trkpt>
      <trkpt lat="45.7909" lon="4.73399">
        <ele>268.38406</ele>
        <time>2023-07-19T16:06:07.000Z</time>
      </trkpt>
      <trkpt lat="45.79094" lon="4.73399">
        <ele>268.40414</ele>
        <time>2023-07-19T16:06:08.000Z</time>
      </trkpt>
      <trkpt lat="45.79097" lon="4.734">
        <ele>268.54309</ele>
        <time>2023-07-19T16:06:09.000Z</time>
      </trkpt>
      <trkpt lat="45.791" lon="4.734">
        <ele>268.69659</ele>
        <time>2023-07-19T16:06:10.000Z</time>
      </trkpt>
      <trkpt lat="45.79104" lon="4.73402">
        <ele>268.8497</ele>
        <time>2023-07-19T16:06:11.000Z</time>
      </trkpt>
      <trkpt lat="45.79108" lon="4.73403">
        <ele>268.9187</ele>
        <time>2023-07-19T16:06:12.000Z</time>
      </trkpt>
      <trkpt lat="45.79111" lon="4.73404">
        <ele>269.00604</ele>
        <time>2023-07-19T16:06:13.000Z</time>
      </trkpt>
      <trkpt lat="45.79114" lon="4.73405">
        <ele>269.11493</ele>
        <time>2023-07-19T16:06:14.000Z</time>
      </trkpt>
      <trkpt lat="45.79116" lon="4.73405">
        <ele>269.2319</ele>
        <time>2023-07-19T16:06:15.000Z</time>
      </trkpt>
      <trkpt lat="45.79119" lon="4.73406">
        <ele>269.35504</ele>
        <time>2023-07-19T16:06:16.000Z</time>
      </trkpt>
      <trkpt lat="45.79122" lon="4.73406">
        <ele>269.63239</ele>
        <time>2023-07-19T16:06:17.000Z</time>
      </trkpt>
      <trkpt lat="45.79125" lon="4.73406">
        <ele>269.79556</ele>
        <time>2023-07-19T16:06:18.000Z</time>
      </trkpt>
      <trkpt lat="45.79127" lon="4.73407">
        <ele>269.91663</ele>
        <time>2023-07-19T16:06:19.000Z</time>
      </trkpt>
      <trkpt lat="45.7913" lon="4.73406">
        <ele>270.31857</ele>
        <time>2023-07-19T16:06:20.000Z</time>
      </trkpt>
      <trkpt lat="45.79132" lon="4.73406">
        <ele>270.68735</ele>
        <time>2023-07-19T16:06:21.000Z</time>
      </trkpt>
      <trkpt lat="45.79135" lon="4.73405">
        <ele>271.01797</ele>
        <time>2023-07-19T16:06:22.000Z</time>
      </trkpt>
      <trkpt lat="45.79137" lon="4.73404">
        <ele>271.12473</ele>
        <time>2023-07-19T16:06:23.000Z</time>
      </trkpt>
      <trkpt lat="45.7914" lon="4.73403">
        <ele>271.37323</ele>
        <time>2023-07-19T16:06:24.000Z</time>
      </trkpt>
      <trkpt lat="45.79142" lon="4.73402">
        <ele>271.67975</ele>
        <time>2023-07-19T16:06:25.000Z</time>
      </trkpt>
      <trkpt lat="45.79144" lon="4.73401">
        <ele>272.02124</ele>
        <time>2023-07-19T16:06:26.000Z</time>
      </trkpt>
      <trkpt lat="45.79145" lon="4.734">
        <ele>272.32465</ele>
        <time>2023-07-19T16:06:27.000Z</time>
      </trkpt>
      <trkpt lat="45.79146" lon="4.73396">
        <ele>272.72455</ele>
        <time>2023-07-19T16:06:29.000Z</time>
      </trkpt>
      <trkpt lat="45.79148" lon="4.73393">
        <ele>273.07495</ele>
        <time>2023-07-19T16:06:31.000Z</time>
      </trkpt>
      <trkpt lat="45.79151" lon="4.73394">
        <ele>273.45508</ele>
        <time>2023-07-19T16:06:33.000Z</time>
      </trkpt>
      <trkpt lat="45.79153" lon="4.73395">
        <ele>273.83148</ele>
        <time>2023-07-19T16:06:34.000Z</time>
      </trkpt>
      <trkpt lat="45.79156" lon="4.73397">
        <ele>274.25037</ele>
        <time>2023-07-19T16:06:35.000Z</time>
      </trkpt>
      <trkpt lat="45.79158" lon="4.73398">
        <ele>274.61017</ele>
        <time>2023-07-19T16:06:36.000Z</time>
      </trkpt>
      <trkpt lat="45.7916" lon="4.734">
        <ele>275.02902</ele>
        <time>2023-07-19T16:06:37.000Z</time>
      </trkpt>
      <trkpt lat="45.79163" lon="4.73403">
        <ele>275.26898</ele>
        <time>2023-07-19T16:06:39.000Z</time>
      </trkpt>
      <trkpt lat="45.79165" lon="4.73405">
        <ele>275.51328</ele>
        <time>2023-07-19T16:06:40.000Z</time>
      </trkpt>
      <trkpt lat="45.79166" lon="4.73403">
        <ele>275.56537</ele>
        <time>2023-07-19T16:06:41.000Z</time>
      </trkpt>
      <trkpt lat="45.79167" lon="4.73401">
        <ele>275.57513</ele>
        <time>2023-07-19T16:06:42.000Z</time>
      </trkpt>
      <trkpt lat="45.79168" lon="4.73398">
        <ele>275.56207</ele>
        <time>2023-07-19T16:06:43.000Z</time>
      </trkpt>
      <trkpt lat="45.79169" lon="4.73394">
        <ele>275.49582</ele>
        <time>2023-07-19T16:06:45.000Z</time>
      </trkpt>
      <trkpt lat="45.79167" lon="4.73393">
        <ele>275.28973</ele>
        <time>2023-07-19T16:06:55.000Z</time>
      </trkpt>
      <trkpt lat="45.79169" lon="4.73392">
        <ele>275.20673</ele>
        <time>2023-07-19T16:07:16.000Z</time>
      </trkpt>
      <trkpt lat="45.79172" lon="4.73389">
        <ele>275.32971</ele>
        <time>2023-07-19T16:07:18.000Z</time>
      </trkpt>
      <trkpt lat="45.79176" lon="4.73387">
        <ele>275.3432</ele>
        <time>2023-07-19T16:07:20.000Z</time>
      </trkpt>
      <trkpt lat="45.79179" lon="4.73385">
        <ele>275.3205</ele>
        <time>2023-07-19T16:07:21.000Z</time>
      </trkpt>
      <trkpt lat="45.79182" lon="4.73382">
        <ele>275.31085</ele>
        <time>2023-07-19T16:07:22.000Z</time>
      </trkpt>
      <trkpt lat="45.79185" lon="4.7338">
        <ele>275.28302</ele>
        <time>2023-07-19T16:07:23.000Z</time>
      </trkpt>
      <trkpt lat="45.79189" lon="4.73377">
        <ele>275.13947</ele>
        <time>2023-07-19T16:07:24.000Z</time>
      </trkpt>
      <trkpt lat="45.79193" lon="4.73375">
        <ele>274.99274</ele>
        <time>2023-07-19T16:07:25.000Z</time>
      </trkpt>
      <trkpt lat="45.79197" lon="4.73372">
        <ele>274.87326</ele>
        <time>2023-07-19T16:07:26.000Z</time>
      </trkpt>
      <trkpt lat="45.79201" lon="4.73369">
        <ele>274.73761</ele>
        <time>2023-07-19T16:07:27.000Z</time>
      </trkpt>
      <trkpt lat="45.79205" lon="4.73366">
        <ele>274.63004</ele>
        <time>2023-07-19T16:07:28.000Z</time>
      </trkpt>
      <trkpt lat="45.79209" lon="4.73364">
        <ele>274.59793</ele>
        <time>2023-07-19T16:07:29.000Z</time>
      </trkpt>
      <trkpt lat="45.79212" lon="4.73363">
        <ele>274.642</ele>
        <time>2023-07-19T16:07:30.000Z</time>
      </trkpt>
      <trkpt lat="45.79215" lon="4.73362">
        <ele>274.87408</ele>
        <time>2023-07-19T16:07:31.000Z</time>
      </trkpt>
      <trkpt lat="45.79219" lon="4.73362">
        <ele>275.06573</ele>
        <time>2023-07-19T16:07:32.000Z</time>
      </trkpt>
      <trkpt lat="45.79222" lon="4.73362">
        <ele>275.05878</ele>
        <time>2023-07-19T16:07:33.000Z</time>
      </trkpt>
      <trkpt lat="45.79225" lon="4.73361">
        <ele>275.10117</ele>
        <time>2023-07-19T16:07:34.000Z</time>
      </trkpt>
      <trkpt lat="45.79228" lon="4.7336">
        <ele>275.19238</ele>
        <time>2023-07-19T16:07:35.000Z</time>
      </trkpt>
      <trkpt lat="45.79231" lon="4.73359">
        <ele>275.28262</ele>
        <time>2023-07-19T16:07:36.000Z</time>
      </trkpt>
      <trkpt lat="45.79235" lon="4.73359">
        <ele>275.44806</ele>
        <time>2023-07-19T16:07:37.000Z</time>
      </trkpt>
      <trkpt lat="45.79239" lon="4.73359">
        <ele>275.48523</ele>
        <time>2023-07-19T16:07:38.000Z</time>
      </trkpt>
      <trkpt lat="45.79243" lon="4.73359">
        <ele>275.49142</ele>
        <time>2023-07-19T16:07:39.000Z</time>
      </trkpt>
      <trkpt lat="45.79247" lon="4.73359">
        <ele>275.52228</ele>
        <time>2023-07-19T16:07:40.000Z</time>
      </trkpt>
      <trkpt lat="45.7925" lon="4.7336">
        <ele>275.54218</ele>
        <time>2023-07-19T16:07:41.000Z</time>
      </trkpt>
      <trkpt lat="45.79253" lon="4.73359">
        <ele>275.61896</ele>
        <time>2023-07-19T16:07:42.000Z</time>
      </trkpt>
      <trkpt lat="45.79255" lon="4.73359">
        <ele>275.71423</ele>
        <time>2023-07-19T16:07:43.000Z</time>
      </trkpt>
      <trkpt lat="45.79258" lon="4.73358">
        <ele>275.76025</ele>
        <time>2023-07-19T16:07:44.000Z</time>
      </trkpt>
      <trkpt lat="45.79261" lon="4.73358">
        <ele>275.82098</ele>
        <time>2023-07-19T16:07:45.000Z</time>
      </trkpt>
      <trkpt lat="45.79265" lon="4.73358">
        <ele>275.87851</ele>
        <time>2023-07-19T16:07:46.000Z</time>
      </trkpt>
      <trkpt lat="45.79268" lon="4.73358">
        <ele>275.9328</ele>
        <time>2023-07-19T16:07:47.000Z</time>
      </trkpt>
      <trkpt lat="45.79271" lon="4.73357">
        <ele>275.96027</ele>
        <time>2023-07-19T16:07:48.000Z</time>
      </trkpt>
      <trkpt lat="45.79274" lon="4.73357">
        <ele>275.98856</ele>
        <time>2023-07-19T16:07:49.000Z</time>
      </trkpt>
      <trkpt lat="45.79277" lon="4.73356">
        <ele>276.84671</ele>
        <time>2023-07-19T16:07:50.000Z</time>
      </trkpt>
      <trkpt lat="45.7928" lon="4.73356">
        <ele>277.78241</ele>
        <time>2023-07-19T16:07:51.000Z</time>
      </trkpt>
      <trkpt lat="45.79283" lon="4.73356">
        <ele>278.8895</ele>
        <time>2023-07-19T16:07:52.000Z</time>
      </trkpt>
      <trkpt lat="45.79286" lon="4.73356">
        <ele>280.07666</ele>
        <time>2023-07-19T16:07:53.000Z</time>
      </trkpt>
      <trkpt lat="45.79289" lon="4.73356">
        <ele>281.15552</ele>
        <time>2023-07-19T16:07:54.000Z</time>
      </trkpt>
      <trkpt lat="45.79292" lon="4.73356">
        <ele>282.20114</ele>
        <time>2023-07-19T16:07:55.000Z</time>
      </trkpt>
      <trkpt lat="45.79297" lon="4.73354">
        <ele>283.30487</ele>
        <time>2023-07-19T16:07:56.000Z</time>
      </trkpt>
      <trkpt lat="45.79301" lon="4.73353">
        <ele>284.50504</ele>
        <time>2023-07-19T16:07:57.000Z</time>
      </trkpt>
      <trkpt lat="45.79305" lon="4.73352">
        <ele>285.65106</ele>
        <time>2023-07-19T16:07:58.000Z</time>
      </trkpt>
      <trkpt lat="45.79309" lon="4.73351">
        <ele>286.76978</ele>
        <time>2023-07-19T16:07:59.000Z</time>
      </trkpt>
      <trkpt lat="45.79312" lon="4.73351">
        <ele>288.16254</ele>
        <time>2023-07-19T16:08:00.000Z</time>
      </trkpt>
      <trkpt lat="45.79315" lon="4.73351">
        <ele>289.83353</ele>
        <time>2023-07-19T16:08:01.000Z</time>
      </trkpt>
      <trkpt lat="45.79319" lon="4.73351">
        <ele>291.43228</ele>
        <time>2023-07-19T16:08:02.000Z</time>
      </trkpt>
      <trkpt lat="45.79323" lon="4.73351">
        <ele>292.41138</ele>
        <time>2023-07-19T16:08:03.000Z</time>
      </trkpt>
      <trkpt lat="45.79327" lon="4.73352">
        <ele>293.55225</ele>
        <time>2023-07-19T16:08:04.000Z</time>
      </trkpt>
      <trkpt lat="45.79332" lon="4.73353">
        <ele>294.62558</ele>
        <time>2023-07-19T16:08:05.000Z</time>
      </trkpt>
      <trkpt lat="45.79337" lon="4.73353">
        <ele>295.93845</ele>
        <time>2023-07-19T16:08:06.000Z</time>
      </trkpt>
      <trkpt lat="45.79341" lon="4.73353">
        <ele>297.31845</ele>
        <time>2023-07-19T16:08:07.000Z</time>
      </trkpt>
      <trkpt lat="45.79344" lon="4.73353">
        <ele>298.50815</ele>
        <time>2023-07-19T16:08:08.000Z</time>
      </trkpt>
      <trkpt lat="45.79347" lon="4.73353">
        <ele>299.6864</ele>
        <time>2023-07-19T16:08:09.000Z</time>
      </trkpt>
      <trkpt lat="45.79351" lon="4.73352">
        <ele>299.89914</ele>
        <time>2023-07-19T16:08:10.000Z</time>
      </trkpt>
      <trkpt lat="45.79355" lon="4.7335">
        <ele>299.9136</ele>
        <time>2023-07-19T16:08:11.000Z</time>
      </trkpt>
      <trkpt lat="45.79358" lon="4.73349">
        <ele>299.9516</ele>
        <time>2023-07-19T16:08:12.000Z</time>
      </trkpt>
      <trkpt lat="45.79361" lon="4.73348">
        <ele>299.49872</ele>
        <time>2023-07-19T16:08:13.000Z</time>
      </trkpt>
      <trkpt lat="45.79364" lon="4.73348">
        <ele>299.271</ele>
        <time>2023-07-19T16:08:14.000Z</time>
      </trkpt>
      <trkpt lat="45.79368" lon="4.73347">
        <ele>299.06454</ele>
        <time>2023-07-19T16:08:15.000Z</time>
      </trkpt>
      <trkpt lat="45.79371" lon="4.73347">
        <ele>298.87411</ele>
        <time>2023-07-19T16:08:16.000Z</time>
      </trkpt>
      <trkpt lat="45.79375" lon="4.73347">
        <ele>298.53421</ele>
        <time>2023-07-19T16:08:17.000Z</time>
      </trkpt>
      <trkpt lat="45.79378" lon="4.73347">
        <ele>298.2449</ele>
        <time>2023-07-19T16:08:18.000Z</time>
      </trkpt>
      <trkpt lat="45.79381" lon="4.73346">
        <ele>298.05676</ele>
        <time>2023-07-19T16:08:19.000Z</time>
      </trkpt>
      <trkpt lat="45.79385" lon="4.73346">
        <ele>297.59662</ele>
        <time>2023-07-19T16:08:20.000Z</time>
      </trkpt>
      <trkpt lat="45.79392" lon="4.73345">
        <ele>296.07547</ele>
        <time>2023-07-19T16:08:21.000Z</time>
      </trkpt>
      <trkpt lat="45.79397" lon="4.73345">
        <ele>294.5549</ele>
        <time>2023-07-19T16:08:22.000Z</time>
      </trkpt>
      <trkpt lat="45.79401" lon="4.73344">
        <ele>293.72165</ele>
        <time>2023-07-19T16:08:23.000Z</time>
      </trkpt>
      <trkpt lat="45.79409" lon="4.73342">
        <ele>292.75211</ele>
        <time>2023-07-19T16:08:24.000Z</time>
      </trkpt>
      <trkpt lat="45.79415" lon="4.73342">
        <ele>291.81464</ele>
        <time>2023-07-19T16:08:25.000Z</time>
      </trkpt>
      <trkpt lat="45.79419" lon="4.73343">
        <ele>290.5838</ele>
        <time>2023-07-19T16:08:26.000Z</time>
      </trkpt>
      <trkpt lat="45.79425" lon="4.73344">
        <ele>289.4129</ele>
        <time>2023-07-19T16:08:27.000Z</time>
      </trkpt>
      <trkpt lat="45.7943" lon="4.73343">
        <ele>288.48639</ele>
        <time>2023-07-19T16:08:28.000Z</time>
      </trkpt>
      <trkpt lat="45.79434" lon="4.73342">
        <ele>287.53851</ele>
        <time>2023-07-19T16:08:29.000Z</time>
      </trkpt>
      <trkpt lat="45.79438" lon="4.73342">
        <ele>286.3233</ele>
        <time>2023-07-19T16:08:30.000Z</time>
      </trkpt>
      <trkpt lat="45.7944" lon="4.73344">
        <ele>285.32819</ele>
        <time>2023-07-19T16:08:32.000Z</time>
      </trkpt>
      <trkpt lat="45.79442" lon="4.73342">
        <ele>284.26163</ele>
        <time>2023-07-19T16:08:37.000Z</time>
      </trkpt>
      <trkpt lat="45.79444" lon="4.73342">
        <ele>283.66748</ele>
        <time>2023-07-19T16:08:43.000Z</time>
      </trkpt>
      <trkpt lat="45.79447" lon="4.73343">
        <ele>284.16592</ele>
        <time>2023-07-19T16:08:48.000Z</time>
      </trkpt>
      <trkpt lat="45.79449" lon="4.73344">
        <ele>284.74286</ele>
        <time>2023-07-19T16:08:49.000Z</time>
      </trkpt>
      <trkpt lat="45.79454" lon="4.73345">
        <ele>285.48444</ele>
        <time>2023-07-19T16:08:51.000Z</time>
      </trkpt>
      <trkpt lat="45.79456" lon="4.73347">
        <ele>286.34357</ele>
        <time>2023-07-19T16:08:52.000Z</time>
      </trkpt>
      <trkpt lat="45.79458" lon="4.73347">
        <ele>286.6723</ele>
        <time>2023-07-19T16:08:54.000Z</time>
      </trkpt>
      <trkpt lat="45.79461" lon="4.73345">
        <ele>286.98346</ele>
        <time>2023-07-19T16:08:56.000Z</time>
      </trkpt>
      <trkpt lat="45.79464" lon="4.73344">
        <ele>287.67535</ele>
        <time>2023-07-19T16:08:58.000Z</time>
      </trkpt>
      <trkpt lat="45.79467" lon="4.73344">
        <ele>288.65134</ele>
        <time>2023-07-19T16:09:00.000Z</time>
      </trkpt>
      <trkpt lat="45.79469" lon="4.73344">
        <ele>290.01108</ele>
        <time>2023-07-19T16:09:02.000Z</time>
      </trkpt>
      <trkpt lat="45.7947" lon="4.73344">
        <ele>291.17596</ele>
        <time>2023-07-19T16:09:05.000Z</time>
      </trkpt>
      <trkpt lat="45.79472" lon="4.73344">
        <ele>292.33429</ele>
        <time>2023-07-19T16:09:11.000Z</time>
      </trkpt>
      <trkpt lat="45.79474" lon="4.73345">
        <ele>292.9422</ele>
        <time>2023-07-19T16:09:23.000Z</time>
      </trkpt>
      <trkpt lat="45.79476" lon="4.73342">
        <ele>293.76572</ele>
        <time>2023-07-19T16:09:29.000Z</time>
      </trkpt>
      <trkpt lat="45.79478" lon="4.73343">
        <ele>294.71811</ele>
        <time>2023-07-19T16:09:32.000Z</time>
      </trkpt>
      <trkpt lat="45.7948" lon="4.73343">
        <ele>295.51068</ele>
        <time>2023-07-19T16:09:36.000Z</time>
      </trkpt>
      <trkpt lat="45.79483" lon="4.73344">
        <ele>296.31479</ele>
        <time>2023-07-19T16:09:38.000Z</time>
      </trkpt>
      <trkpt lat="45.79485" lon="4.73344">
        <ele>297.39459</ele>
        <time>2023-07-19T16:09:39.000Z</time>
      </trkpt>
      <trkpt lat="45.79486" lon="4.73344">
        <ele>298.45245</ele>
        <time>2023-07-19T16:09:40.000Z</time>
      </trkpt>
      <trkpt lat="45.79489" lon="4.73343">
        <ele>299.39899</ele>
        <time>2023-07-19T16:09:41.000Z</time>
      </trkpt>
      <trkpt lat="45.79491" lon="4.73342">
        <ele>300.69864</ele>
        <time>2023-07-19T16:09:42.000Z</time>
      </trkpt>
      <trkpt lat="45.79493" lon="4.73343">
        <ele>300.14972</ele>
        <time>2023-07-19T16:09:43.000Z</time>
      </trkpt>
      <trkpt lat="45.79495" lon="4.73343">
        <ele>299.60376</ele>
        <time>2023-07-19T16:09:44.000Z</time>
      </trkpt>
      <trkpt lat="45.79498" lon="4.73344">
        <ele>298.89587</ele>
        <time>2023-07-19T16:09:45.000Z</time>
      </trkpt>
      <trkpt lat="45.795" lon="4.73345">
        <ele>298.18219</ele>
        <time>2023-07-19T16:09:46.000Z</time>
      </trkpt>
      <trkpt lat="45.79503" lon="4.73346">
        <ele>298.09827</ele>
        <time>2023-07-19T16:09:47.000Z</time>
      </trkpt>
      <trkpt lat="45.79505" lon="4.73348">
        <ele>297.92416</ele>
        <time>2023-07-19T16:09:48.000Z</time>
      </trkpt>
      <trkpt lat="45.79507" lon="4.73349">
        <ele>297.67688</ele>
        <time>2023-07-19T16:09:49.000Z</time>
      </trkpt>
      <trkpt lat="45.79509" lon="4.7335">
        <ele>297.81711</ele>
        <time>2023-07-19T16:09:50.000Z</time>
      </trkpt>
      <trkpt lat="45.79511" lon="4.73351">
        <ele>297.60706</ele>
        <time>2023-07-19T16:09:51.000Z</time>
      </trkpt>
      <trkpt lat="45.79514" lon="4.73353">
        <ele>297.50452</ele>
        <time>2023-07-19T16:09:52.000Z</time>
      </trkpt>
      <trkpt lat="45.79516" lon="4.73354">
        <ele>297.55353</ele>
        <time>2023-07-19T16:09:53.000Z</time>
      </trkpt>
      <trkpt lat="45.79517" lon="4.73356">
        <ele>298.09885</ele>
        <time>2023-07-19T16:09:54.000Z</time>
      </trkpt>
      <trkpt lat="45.79518" lon="4.73359">
        <ele>297.93405</ele>
        <time>2023-07-19T16:09:55.000Z</time>
      </trkpt>
      <trkpt lat="45.79519" lon="4.73362">
        <ele>297.61661</ele>
        <time>2023-07-19T16:09:56.000Z</time>
      </trkpt>
      <trkpt lat="45.7952" lon="4.73365">
        <ele>297.36676</ele>
        <time>2023-07-19T16:09:57.000Z</time>
      </trkpt>
      <trkpt lat="45.7952" lon="4.73368">
        <ele>297.09787</ele>
        <time>2023-07-19T16:09:58.000Z</time>
      </trkpt>
      <trkpt lat="45.79521" lon="4.7337">
        <ele>296.83667</ele>
        <time>2023-07-19T16:09:59.000Z</time>
      </trkpt>
      <trkpt lat="45.79522" lon="4.73373">
        <ele>296.43945</ele>
        <time>2023-07-19T16:10:00.000Z</time>
      </trkpt>
      <trkpt lat="45.79525" lon="4.73374">
        <ele>296.0036</ele>
        <time>2023-07-19T16:10:01.000Z</time>
      </trkpt>
      <trkpt lat="45.79527" lon="4.73375">
        <ele>295.44629</ele>
        <time>2023-07-19T16:10:02.000Z</time>
      </trkpt>
      <trkpt lat="45.7953" lon="4.73375">
        <ele>295.46484</ele>
        <time>2023-07-19T16:10:03.000Z</time>
      </trkpt>
      <trkpt lat="45.79532" lon="4.73376">
        <ele>295.4856</ele>
        <time>2023-07-19T16:10:04.000Z</time>
      </trkpt>
      <trkpt lat="45.79535" lon="4.73378">
        <ele>295.34869</ele>
        <time>2023-07-19T16:10:06.000Z</time>
      </trkpt>
      <trkpt lat="45.79538" lon="4.73379">
        <ele>295.39783</ele>
        <time>2023-07-19T16:10:08.000Z</time>
      </trkpt>
      <trkpt lat="45.7954" lon="4.7338">
        <ele>295.43094</ele>
        <time>2023-07-19T16:10:09.000Z</time>
      </trkpt>
      <trkpt lat="45.79543" lon="4.73381">
        <ele>295.60977</ele>
        <time>2023-07-19T16:10:11.000Z</time>
      </trkpt>
      <trkpt lat="45.79545" lon="4.73382">
        <ele>295.62756</ele>
        <time>2023-07-19T16:10:12.000Z</time>
      </trkpt>
      <trkpt lat="45.79547" lon="4.73386">
        <ele>295.43845</ele>
        <time>2023-07-19T16:10:14.000Z</time>
      </trkpt>
      <trkpt lat="45.79549" lon="4.73388">
        <ele>295.22983</ele>
        <time>2023-07-19T16:10:15.000Z</time>
      </trkpt>
      <trkpt lat="45.79551" lon="4.73389">
        <ele>295.03171</ele>
        <time>2023-07-19T16:10:16.000Z</time>
      </trkpt>
      <trkpt lat="45.79552" lon="4.7339">
        <ele>294.80182</ele>
        <time>2023-07-19T16:10:17.000Z</time>
      </trkpt>
      <trkpt lat="45.79554" lon="4.73392">
        <ele>294.67657</ele>
        <time>2023-07-19T16:10:18.000Z</time>
      </trkpt>
      <trkpt lat="45.79556" lon="4.73394">
        <ele>295.02859</ele>
        <time>2023-07-19T16:10:19.000Z</time>
      </trkpt>
      <trkpt lat="45.79558" lon="4.73394">
        <ele>295.35919</ele>
        <time>2023-07-19T16:10:21.000Z</time>
      </trkpt>
      <trkpt lat="45.79559" lon="4.73392">
        <ele>295.69629</ele>
        <time>2023-07-19T16:10:23.000Z</time>
      </trkpt>
      <trkpt lat="45.79562" lon="4.73391">
        <ele>295.90268</ele>
        <time>2023-07-19T16:10:26.000Z</time>
      </trkpt>
      <trkpt lat="45.79563" lon="4.73391">
        <ele>296.11295</ele>
        <time>2023-07-19T16:10:27.000Z</time>
      </trkpt>
      <trkpt lat="45.79566" lon="4.73392">
        <ele>296.33783</ele>
        <time>2023-07-19T16:10:28.000Z</time>
      </trkpt>
      <trkpt lat="45.79567" lon="4.73393">
        <ele>296.66656</ele>
        <time>2023-07-19T16:10:29.000Z</time>
      </trkpt>
      <trkpt lat="45.79569" lon="4.73397">
        <ele>296.98837</ele>
        <time>2023-07-19T16:10:31.000Z</time>
      </trkpt>
      <trkpt lat="45.79569" lon="4.73399">
        <ele>297.33768</ele>
        <time>2023-07-19T16:10:32.000Z</time>
      </trkpt>
      <trkpt lat="45.79569" lon="4.73403">
        <ele>297.48465</ele>
        <time>2023-07-19T16:10:33.000Z</time>
      </trkpt>
      <trkpt lat="45.79571" lon="4.73406">
        <ele>297.64984</ele>
        <time>2023-07-19T16:10:34.000Z</time>
      </trkpt>
      <trkpt lat="45.79573" lon="4.73408">
        <ele>297.61221</ele>
        <time>2023-07-19T16:10:35.000Z</time>
      </trkpt>
      <trkpt lat="45.79575" lon="4.7341">
        <ele>297.67316</ele>
        <time>2023-07-19T16:10:36.000Z</time>
      </trkpt>
      <trkpt lat="45.79577" lon="4.7341">
        <ele>297.63284</ele>
        <time>2023-07-19T16:10:37.000Z</time>
      </trkpt>
      <trkpt lat="45.7958" lon="4.73411">
        <ele>297.54398</ele>
        <time>2023-07-19T16:10:38.000Z</time>
      </trkpt>
      <trkpt lat="45.79582" lon="4.73411">
        <ele>297.85437</ele>
        <time>2023-07-19T16:10:39.000Z</time>
      </trkpt>
      <trkpt lat="45.79584" lon="4.73412">
        <ele>297.681</ele>
        <time>2023-07-19T16:10:40.000Z</time>
      </trkpt>
      <trkpt lat="45.79586" lon="4.73412">
        <ele>297.6088</ele>
        <time>2023-07-19T16:10:41.000Z</time>
      </trkpt>
      <trkpt lat="45.79588" lon="4.73412">
        <ele>297.36493</ele>
        <time>2023-07-19T16:10:42.000Z</time>
      </trkpt>
      <trkpt lat="45.7959" lon="4.73411">
        <ele>297.13245</ele>
        <time>2023-07-19T16:10:43.000Z</time>
      </trkpt>
      <trkpt lat="45.79593" lon="4.73412">
        <ele>296.93756</ele>
        <time>2023-07-19T16:10:44.000Z</time>
      </trkpt>
      <trkpt lat="45.79595" lon="4.73414">
        <ele>296.6933</ele>
        <time>2023-07-19T16:10:45.000Z</time>
      </trkpt>
      <trkpt lat="45.79597" lon="4.73417">
        <ele>296.43674</ele>
        <time>2023-07-19T16:10:46.000Z</time>
      </trkpt>
      <trkpt lat="45.79598" lon="4.7342">
        <ele>296.33054</ele>
        <time>2023-07-19T16:10:47.000Z</time>
      </trkpt>
      <trkpt lat="45.796" lon="4.73424">
        <ele>296.23221</ele>
        <time>2023-07-19T16:10:48.000Z</time>
      </trkpt>
      <trkpt lat="45.79601" lon="4.73426">
        <ele>296.09189</ele>
        <time>2023-07-19T16:10:49.000Z</time>
      </trkpt>
      <trkpt lat="45.79602" lon="4.73431">
        <ele>295.92151</ele>
        <time>2023-07-19T16:10:51.000Z</time>
      </trkpt>
      <trkpt lat="45.79602" lon="4.73434">
        <ele>295.6861</ele>
        <time>2023-07-19T16:10:52.000Z</time>
      </trkpt>
      <trkpt lat="45.79603" lon="4.73437">
        <ele>295.46194</ele>
        <time>2023-07-19T16:10:53.000Z</time>
      </trkpt>
      <trkpt lat="45.79605" lon="4.73439">
        <ele>295.31488</ele>
        <time>2023-07-19T16:10:54.000Z</time>
      </trkpt>
      <trkpt lat="45.79607" lon="4.73439">
        <ele>295.2901</ele>
        <time>2023-07-19T16:10:55.000Z</time>
      </trkpt>
      <trkpt lat="45.7961" lon="4.73438">
        <ele>295.27887</ele>
        <time>2023-07-19T16:10:56.000Z</time>
      </trkpt>
      <trkpt lat="45.79613" lon="4.73438">
        <ele>295.15332</ele>
        <time>2023-07-19T16:10:57.000Z</time>
      </trkpt>
      <trkpt lat="45.79615" lon="4.73437">
        <ele>295.03326</ele>
        <time>2023-07-19T16:10:58.000Z</time>
      </trkpt>
      <trkpt lat="45.79618" lon="4.73437">
        <ele>294.80365</ele>
        <time>2023-07-19T16:10:59.000Z</time>
      </trkpt>
      <trkpt lat="45.79621" lon="4.73437">
        <ele>294.52991</ele>
        <time>2023-07-19T16:11:00.000Z</time>
      </trkpt>
      <trkpt lat="45.79623" lon="4.73437">
        <ele>294.70856</ele>
        <time>2023-07-19T16:11:01.000Z</time>
      </trkpt>
      <trkpt lat="45.79625" lon="4.73437">
        <ele>294.79999</ele>
        <time>2023-07-19T16:11:02.000Z</time>
      </trkpt>
      <trkpt lat="45.79628" lon="4.73437">
        <ele>294.98257</ele>
        <time>2023-07-19T16:11:03.000Z</time>
      </trkpt>
      <trkpt lat="45.7963" lon="4.73437">
        <ele>295.06207</ele>
        <time>2023-07-19T16:11:04.000Z</time>
      </trkpt>
      <trkpt lat="45.79633" lon="4.73436">
        <ele>295.15891</ele>
        <time>2023-07-19T16:11:05.000Z</time>
      </trkpt>
      <trkpt lat="45.79636" lon="4.73435">
        <ele>295.24091</ele>
        <time>2023-07-19T16:11:06.000Z</time>
      </trkpt>
      <trkpt lat="45.79638" lon="4.73434">
        <ele>295.37558</ele>
        <time>2023-07-19T16:11:07.000Z</time>
      </trkpt>
      <trkpt lat="45.79641" lon="4.73433">
        <ele>295.5202</ele>
        <time>2023-07-19T16:11:08.000Z</time>
      </trkpt>
      <trkpt lat="45.79644" lon="4.73433">
        <ele>295.6662</ele>
        <time>2023-07-19T16:11:09.000Z</time>
      </trkpt>
      <trkpt lat="45.79646" lon="4.73432">
        <ele>295.78622</ele>
        <time>2023-07-19T16:11:10.000Z</time>
      </trkpt>
      <trkpt lat="45.79649" lon="4.73431">
        <ele>295.931</ele>
        <time>2023-07-19T16:11:11.000Z</time>
      </trkpt>
      <trkpt lat="45.79652" lon="4.73431">
        <ele>296.07623</ele>
        <time>2023-07-19T16:11:12.000Z</time>
      </trkpt>
      <trkpt lat="45.79654" lon="4.7343">
        <ele>296.21008</ele>
        <time>2023-07-19T16:11:13.000Z</time>
      </trkpt>
      <trkpt lat="45.79657" lon="4.73429">
        <ele>296.3826</ele>
        <time>2023-07-19T16:11:14.000Z</time>
      </trkpt>
      <trkpt lat="45.79659" lon="4.73429">
        <ele>296.52283</ele>
        <time>2023-07-19T16:11:15.000Z</time>
      </trkpt>
      <trkpt lat="45.79662" lon="4.73428">
        <ele>296.62488</ele>
        <time>2023-07-19T16:11:16.000Z</time>
      </trkpt>
      <trkpt lat="45.79665" lon="4.73427">
        <ele>296.72858</ele>
        <time>2023-07-19T16:11:17.000Z</time>
      </trkpt>
      <trkpt lat="45.79668" lon="4.73425">
        <ele>296.85724</ele>
        <time>2023-07-19T16:11:18.000Z</time>
      </trkpt>
      <trkpt lat="45.79671" lon="4.73424">
        <ele>296.97308</ele>
        <time>2023-07-19T16:11:19.000Z</time>
      </trkpt>
      <trkpt lat="45.79674" lon="4.73423">
        <ele>297.09711</ele>
        <time>2023-07-19T16:11:20.000Z</time>
      </trkpt>
      <trkpt lat="45.79677" lon="4.73422">
        <ele>297.19873</ele>
        <time>2023-07-19T16:11:21.000Z</time>
      </trkpt>
      <trkpt lat="45.7968" lon="4.73422">
        <ele>297.31</ele>
        <time>2023-07-19T16:11:22.000Z</time>
      </trkpt>
      <trkpt lat="45.79682" lon="4.73421">
        <ele>297.42682</ele>
        <time>2023-07-19T16:11:23.000Z</time>
      </trkpt>
      <trkpt lat="45.79684" lon="4.73421">
        <ele>297.56619</ele>
        <time>2023-07-19T16:11:24.000Z</time>
      </trkpt>
      <trkpt lat="45.79687" lon="4.73421">
        <ele>297.70929</ele>
        <time>2023-07-19T16:11:25.000Z</time>
      </trkpt>
      <trkpt lat="45.7969" lon="4.7342">
        <ele>297.88431</ele>
        <time>2023-07-19T16:11:26.000Z</time>
      </trkpt>
      <trkpt lat="45.79693" lon="4.7342">
        <ele>298.04584</ele>
        <time>2023-07-19T16:11:27.000Z</time>
      </trkpt>
      <trkpt lat="45.79697" lon="4.73419">
        <ele>298.2341</ele>
        <time>2023-07-19T16:11:28.000Z</time>
      </trkpt>
      <trkpt lat="45.79699" lon="4.73417">
        <ele>298.38342</ele>
        <time>2023-07-19T16:11:29.000Z</time>
      </trkpt>
      <trkpt lat="45.79702" lon="4.73416">
        <ele>298.586</ele>
        <time>2023-07-19T16:11:30.000Z</time>
      </trkpt>
      <trkpt lat="45.79706" lon="4.73415">
        <ele>298.79892</ele>
        <time>2023-07-19T16:11:31.000Z</time>
      </trkpt>
      <trkpt lat="45.79709" lon="4.73414">
        <ele>298.95236</ele>
        <time>2023-07-19T16:11:32.000Z</time>
      </trkpt>
      <trkpt lat="45.79712" lon="4.73413">
        <ele>299.16031</ele>
        <time>2023-07-19T16:11:33.000Z</time>
      </trkpt>
      <trkpt lat="45.79715" lon="4.73412">
        <ele>299.35004</ele>
        <time>2023-07-19T16:11:34.000Z</time>
      </trkpt>
      <trkpt lat="45.79718" lon="4.73411">
        <ele>299.56131</ele>
        <time>2023-07-19T16:11:35.000Z</time>
      </trkpt>
      <trkpt lat="45.7972" lon="4.73409">
        <ele>299.97565</ele>
        <time>2023-07-19T16:11:36.000Z</time>
      </trkpt>
      <trkpt lat="45.79722" lon="4.73407">
        <ele>300.40738</ele>
        <time>2023-07-19T16:11:37.000Z</time>
      </trkpt>
      <trkpt lat="45.79724" lon="4.73407">
        <ele>300.81287</ele>
        <time>2023-07-19T16:11:38.000Z</time>
      </trkpt>
      <trkpt lat="45.79726" lon="4.73406">
        <ele>301.24191</ele>
        <time>2023-07-19T16:11:39.000Z</time>
      </trkpt>
      <trkpt lat="45.79728" lon="4.73406">
        <ele>301.75107</ele>
        <time>2023-07-19T16:11:40.000Z</time>
      </trkpt>
      <trkpt lat="45.79731" lon="4.73405">
        <ele>302.30508</ele>
        <time>2023-07-19T16:11:41.000Z</time>
      </trkpt>
      <trkpt lat="45.79735" lon="4.73404">
        <ele>302.9267</ele>
        <time>2023-07-19T16:11:42.000Z</time>
      </trkpt>
      <trkpt lat="45.79737" lon="4.73403">
        <ele>303.51358</ele>
        <time>2023-07-19T16:11:43.000Z</time>
      </trkpt>
      <trkpt lat="45.7974" lon="4.73402">
        <ele>304.08807</ele>
        <time>2023-07-19T16:11:44.000Z</time>
      </trkpt>
      <trkpt lat="45.79742" lon="4.73401">
        <ele>304.60986</ele>
        <time>2023-07-19T16:11:45.000Z</time>
      </trkpt>
      <trkpt lat="45.79744" lon="4.73399">
        <ele>305.1066</ele>
        <time>2023-07-19T16:11:46.000Z</time>
      </trkpt>
      <trkpt lat="45.79746" lon="4.73397">
        <ele>305.54144</ele>
        <time>2023-07-19T16:11:47.000Z</time>
      </trkpt>
      <trkpt lat="45.79749" lon="4.73395">
        <ele>305.91565</ele>
        <time>2023-07-19T16:11:48.000Z</time>
      </trkpt>
      <trkpt lat="45.79752" lon="4.73393">
        <ele>306.23575</ele>
        <time>2023-07-19T16:11:49.000Z</time>
      </trkpt>
      <trkpt lat="45.79755" lon="4.73392">
        <ele>306.56952</ele>
        <time>2023-07-19T16:11:50.000Z</time>
      </trkpt>
      <trkpt lat="45.79757" lon="4.73392">
        <ele>306.96027</ele>
        <time>2023-07-19T16:11:51.000Z</time>
      </trkpt>
      <trkpt lat="45.79759" lon="4.73392">
        <ele>307.37848</ele>
        <time>2023-07-19T16:11:52.000Z</time>
      </trkpt>
      <trkpt lat="45.79761" lon="4.73392">
        <ele>307.74222</ele>
        <time>2023-07-19T16:11:53.000Z</time>
      </trkpt>
      <trkpt lat="45.79763" lon="4.73393">
        <ele>308.10834</ele>
        <time>2023-07-19T16:11:54.000Z</time>
      </trkpt>
      <trkpt lat="45.79765" lon="4.73393">
        <ele>308.44156</ele>
        <time>2023-07-19T16:11:55.000Z</time>
      </trkpt>
      <trkpt lat="45.79767" lon="4.73393">
        <ele>308.57574</ele>
        <time>2023-07-19T16:11:56.000Z</time>
      </trkpt>
      <trkpt lat="45.7977" lon="4.73394">
        <ele>308.63718</ele>
        <time>2023-07-19T16:11:57.000Z</time>
      </trkpt>
      <trkpt lat="45.79772" lon="4.73394">
        <ele>308.71762</ele>
        <time>2023-07-19T16:11:58.000Z</time>
      </trkpt>
      <trkpt lat="45.79775" lon="4.73395">
        <ele>308.70956</ele>
        <time>2023-07-19T16:11:59.000Z</time>
      </trkpt>
      <trkpt lat="45.79778" lon="4.73395">
        <ele>308.77155</ele>
        <time>2023-07-19T16:12:00.000Z</time>
      </trkpt>
      <trkpt lat="45.79781" lon="4.73396">
        <ele>308.84583</ele>
        <time>2023-07-19T16:12:01.000Z</time>
      </trkpt>
      <trkpt lat="45.79783" lon="4.73397">
        <ele>308.83081</ele>
        <time>2023-07-19T16:12:02.000Z</time>
      </trkpt>
      <trkpt lat="45.79786" lon="4.73399">
        <ele>308.47589</ele>
        <time>2023-07-19T16:12:03.000Z</time>
      </trkpt>
      <trkpt lat="45.79789" lon="4.73401">
        <ele>308.28085</ele>
        <time>2023-07-19T16:12:04.000Z</time>
      </trkpt>
      <trkpt lat="45.79791" lon="4.73403">
        <ele>307.58478</ele>
        <time>2023-07-19T16:12:05.000Z</time>
      </trkpt>
      <trkpt lat="45.79794" lon="4.73405">
        <ele>306.70123</ele>
        <time>2023-07-19T16:12:06.000Z</time>
      </trkpt>
      <trkpt lat="45.79797" lon="4.73407">
        <ele>305.86639</ele>
        <time>2023-07-19T16:12:07.000Z</time>
      </trkpt>
      <trkpt lat="45.798" lon="4.73407">
        <ele>305.07248</ele>
        <time>2023-07-19T16:12:08.000Z</time>
      </trkpt>
      <trkpt lat="45.79803" lon="4.73407">
        <ele>304.37726</ele>
        <time>2023-07-19T16:12:09.000Z</time>
      </trkpt>
      <trkpt lat="45.79807" lon="4.73408">
        <ele>303.66425</ele>
        <time>2023-07-19T16:12:10.000Z</time>
      </trkpt>
      <trkpt lat="45.79811" lon="4.73408">
        <ele>302.86292</ele>
        <time>2023-07-19T16:12:11.000Z</time>
      </trkpt>
      <trkpt lat="45.79816" lon="4.73409">
        <ele>302.08163</ele>
        <time>2023-07-19T16:12:12.000Z</time>
      </trkpt>
      <trkpt lat="45.7982" lon="4.7341">
        <ele>301.31158</ele>
        <time>2023-07-19T16:12:13.000Z</time>
      </trkpt>
      <trkpt lat="45.79824" lon="4.73411">
        <ele>300.54321</ele>
        <time>2023-07-19T16:12:14.000Z</time>
      </trkpt>
      <trkpt lat="45.79828" lon="4.73413">
        <ele>299.81927</ele>
        <time>2023-07-19T16:12:15.000Z</time>
      </trkpt>
      <trkpt lat="45.79832" lon="4.73415">
        <ele>299.13507</ele>
        <time>2023-07-19T16:12:16.000Z</time>
      </trkpt>
      <trkpt lat="45.79836" lon="4.73416">
        <ele>298.42105</ele>
        <time>2023-07-19T16:12:17.000Z</time>
      </trkpt>
      <trkpt lat="45.7984" lon="4.73418">
        <ele>297.68024</ele>
        <time>2023-07-19T16:12:18.000Z</time>
      </trkpt>
      <trkpt lat="45.79845" lon="4.73419">
        <ele>296.98227</ele>
        <time>2023-07-19T16:12:19.000Z</time>
      </trkpt>
      <trkpt lat="45.79849" lon="4.73421">
        <ele>296.14258</ele>
        <time>2023-07-19T16:12:20.000Z</time>
      </trkpt>
      <trkpt lat="45.79853" lon="4.73423">
        <ele>295.24091</ele>
        <time>2023-07-19T16:12:21.000Z</time>
      </trkpt>
      <trkpt lat="45.7986" lon="4.73428">
        <ele>294.31787</ele>
        <time>2023-07-19T16:12:22.000Z</time>
      </trkpt>
      <trkpt lat="45.79863" lon="4.7343">
        <ele>293.74893</ele>
        <time>2023-07-19T16:12:23.000Z</time>
      </trkpt>
      <trkpt lat="45.79868" lon="4.73431">
        <ele>293.05878</ele>
        <time>2023-07-19T16:12:24.000Z</time>
      </trkpt>
      <trkpt lat="45.79873" lon="4.73432">
        <ele>292.92242</ele>
        <time>2023-07-19T16:12:25.000Z</time>
      </trkpt>
      <trkpt lat="45.79877" lon="4.73432">
        <ele>292.97928</ele>
        <time>2023-07-19T16:12:26.000Z</time>
      </trkpt>
      <trkpt lat="45.79881" lon="4.73433">
        <ele>293.05219</ele>
        <time>2023-07-19T16:12:27.000Z</time>
      </trkpt>
      <trkpt lat="45.79884" lon="4.73436">
        <ele>293.14371</ele>
        <time>2023-07-19T16:12:28.000Z</time>
      </trkpt>
      <trkpt lat="45.79887" lon="4.73436">
        <ele>293.2294</ele>
        <time>2023-07-19T16:12:29.000Z</time>
      </trkpt>
      <trkpt lat="45.79892" lon="4.73436">
        <ele>293.30484</ele>
        <time>2023-07-19T16:12:30.000Z</time>
      </trkpt>
      <trkpt lat="45.79895" lon="4.73433">
        <ele>293.38306</ele>
        <time>2023-07-19T16:12:31.000Z</time>
      </trkpt>
      <trkpt lat="45.79898" lon="4.7343">
        <ele>293.49771</ele>
        <time>2023-07-19T16:12:32.000Z</time>
      </trkpt>
      <trkpt lat="45.79901" lon="4.73428">
        <ele>293.63239</ele>
        <time>2023-07-19T16:12:33.000Z</time>
      </trkpt>
      <trkpt lat="45.79903" lon="4.73426">
        <ele>293.73822</ele>
        <time>2023-07-19T16:12:34.000Z</time>
      </trkpt>
      <trkpt lat="45.79906" lon="4.73424">
        <ele>293.84576</ele>
        <time>2023-07-19T16:12:35.000Z</time>
      </trkpt>
      <trkpt lat="45.79909" lon="4.73422">
        <ele>293.92444</ele>
        <time>2023-07-19T16:12:36.000Z</time>
      </trkpt>
      <trkpt lat="45.79913" lon="4.73421">
        <ele>294.04596</ele>
        <time>2023-07-19T16:12:37.000Z</time>
      </trkpt>
      <trkpt lat="45.79916" lon="4.73419">
        <ele>294.16864</ele>
        <time>2023-07-19T16:12:38.000Z</time>
      </trkpt>
      <trkpt lat="45.79919" lon="4.73418">
        <ele>294.30865</ele>
        <time>2023-07-19T16:12:39.000Z</time>
      </trkpt>
      <trkpt lat="45.79923" lon="4.73417">
        <ele>294.37741</ele>
        <time>2023-07-19T16:12:40.000Z</time>
      </trkpt>
      <trkpt lat="45.79926" lon="4.73415">
        <ele>294.46786</ele>
        <time>2023-07-19T16:12:41.000Z</time>
      </trkpt>
      <trkpt lat="45.7993" lon="4.73414">
        <ele>294.58966</ele>
        <time>2023-07-19T16:12:42.000Z</time>
      </trkpt>
      <trkpt lat="45.79934" lon="4.73413">
        <ele>294.7197</ele>
        <time>2023-07-19T16:12:43.000Z</time>
      </trkpt>
      <trkpt lat="45.79938" lon="4.73412">
        <ele>294.84222</ele>
        <time>2023-07-19T16:12:44.000Z</time>
      </trkpt>
      <trkpt lat="45.79944" lon="4.73408">
        <ele>294.90894</ele>
        <time>2023-07-19T16:12:45.000Z</time>
      </trkpt>
      <trkpt lat="45.79947" lon="4.73404">
        <ele>294.98776</ele>
        <time>2023-07-19T16:12:46.000Z</time>
      </trkpt>
      <trkpt lat="45.79951" lon="4.73401">
        <ele>295.0863</ele>
        <time>2023-07-19T16:12:47.000Z</time>
      </trkpt>
      <trkpt lat="45.79955" lon="4.73401">
        <ele>295.08936</ele>
        <time>2023-07-19T16:12:48.000Z</time>
      </trkpt>
      <trkpt lat="45.79958" lon="4.73399">
        <ele>295.06342</ele>
        <time>2023-07-19T16:12:49.000Z</time>
      </trkpt>
      <trkpt lat="45.79961" lon="4.73396">
        <ele>295.06769</ele>
        <time>2023-07-19T16:12:50.000Z</time>
      </trkpt>
      <trkpt lat="45.79962" lon="4.73391">
        <ele>295.08258</ele>
        <time>2023-07-19T16:12:51.000Z</time>
      </trkpt>
      <trkpt lat="45.79964" lon="4.73385">
        <ele>295.09561</ele>
        <time>2023-07-19T16:12:52.000Z</time>
      </trkpt>
      <trkpt lat="45.79965" lon="4.73378">
        <ele>295.11032</ele>
        <time>2023-07-19T16:12:53.000Z</time>
      </trkpt>
      <trkpt lat="45.79965" lon="4.73372">
        <ele>295.16193</ele>
        <time>2023-07-19T16:12:54.000Z</time>
      </trkpt>
      <trkpt lat="45.79964" lon="4.73365">
        <ele>295.81854</ele>
        <time>2023-07-19T16:12:55.000Z</time>
      </trkpt>
      <trkpt lat="45.79963" lon="4.73359">
        <ele>296.31009</ele>
        <time>2023-07-19T16:12:56.000Z</time>
      </trkpt>
      <trkpt lat="45.79962" lon="4.73354">
        <ele>296.8118</ele>
        <time>2023-07-19T16:12:57.000Z</time>
      </trkpt>
      <trkpt lat="45.7996" lon="4.73348">
        <ele>297.33698</ele>
        <time>2023-07-19T16:12:58.000Z</time>
      </trkpt>
      <trkpt lat="45.79958" lon="4.73341">
        <ele>297.87277</ele>
        <time>2023-07-19T16:12:59.000Z</time>
      </trkpt>
      <trkpt lat="45.79957" lon="4.73336">
        <ele>298.44553</ele>
        <time>2023-07-19T16:13:00.000Z</time>
      </trkpt>
      <trkpt lat="45.79957" lon="4.7333">
        <ele>299.02753</ele>
        <time>2023-07-19T16:13:01.000Z</time>
      </trkpt>
      <trkpt lat="45.79957" lon="4.73324">
        <ele>299.59918</ele>
        <time>2023-07-19T16:13:02.000Z</time>
      </trkpt>
      <trkpt lat="45.79959" lon="4.73317">
        <ele>300.18564</ele>
        <time>2023-07-19T16:13:03.000Z</time>
      </trkpt>
      <trkpt lat="45.7996" lon="4.73311">
        <ele>300.87836</ele>
        <time>2023-07-19T16:13:04.000Z</time>
      </trkpt>
      <trkpt lat="45.79964" lon="4.73306">
        <ele>301.68231</ele>
        <time>2023-07-19T16:13:05.000Z</time>
      </trkpt>
      <trkpt lat="45.79967" lon="4.73303">
        <ele>302.48114</ele>
        <time>2023-07-19T16:13:06.000Z</time>
      </trkpt>
      <trkpt lat="45.79972" lon="4.73299">
        <ele>303.2868</ele>
        <time>2023-07-19T16:13:07.000Z</time>
      </trkpt>
      <trkpt lat="45.79976" lon="4.73296">
        <ele>303.88849</ele>
        <time>2023-07-19T16:13:08.000Z</time>
      </trkpt>
      <trkpt lat="45.7998" lon="4.73295">
        <ele>304.58289</ele>
        <time>2023-07-19T16:13:09.000Z</time>
      </trkpt>
      <trkpt lat="45.79985" lon="4.73293">
        <ele>305.25946</ele>
        <time>2023-07-19T16:13:10.000Z</time>
      </trkpt>
      <trkpt lat="45.79989" lon="4.73292">
        <ele>305.90317</ele>
        <time>2023-07-19T16:13:11.000Z</time>
      </trkpt>
      <trkpt lat="45.79994" lon="4.73292">
        <ele>306.53644</ele>
        <time>2023-07-19T16:13:12.000Z</time>
      </trkpt>
      <trkpt lat="45.79998" lon="4.73292">
        <ele>307.24078</ele>
        <time>2023-07-19T16:13:13.000Z</time>
      </trkpt>
      <trkpt lat="45.80002" lon="4.7329">
        <ele>307.93994</ele>
        <time>2023-07-19T16:13:14.000Z</time>
      </trkpt>
      <trkpt lat="45.80007" lon="4.73289">
        <ele>308.01825</ele>
        <time>2023-07-19T16:13:15.000Z</time>
      </trkpt>
      <trkpt lat="45.80011" lon="4.73289">
        <ele>308.21976</ele>
        <time>2023-07-19T16:13:16.000Z</time>
      </trkpt>
      <trkpt lat="45.80015" lon="4.73288">
        <ele>308.42639</ele>
        <time>2023-07-19T16:13:17.000Z</time>
      </trkpt>
      <trkpt lat="45.8002" lon="4.73288">
        <ele>308.62555</ele>
        <time>2023-07-19T16:13:18.000Z</time>
      </trkpt>
      <trkpt lat="45.80024" lon="4.73286">
        <ele>308.90759</ele>
        <time>2023-07-19T16:13:19.000Z</time>
      </trkpt>
      <trkpt lat="45.80028" lon="4.73285">
        <ele>308.94339</ele>
        <time>2023-07-19T16:13:20.000Z</time>
      </trkpt>
      <trkpt lat="45.80032" lon="4.73284">
        <ele>309.02252</ele>
        <time>2023-07-19T16:13:21.000Z</time>
      </trkpt>
      <trkpt lat="45.80036" lon="4.73283">
        <ele>309.09039</ele>
        <time>2023-07-19T16:13:22.000Z</time>
      </trkpt>
      <trkpt lat="45.8004" lon="4.73282">
        <ele>309.16257</ele>
        <time>2023-07-19T16:13:23.000Z</time>
      </trkpt>
      <trkpt lat="45.80045" lon="4.73281">
        <ele>309.12366</ele>
        <time>2023-07-19T16:13:24.000Z</time>
      </trkpt>
      <trkpt lat="45.80049" lon="4.73279">
        <ele>309.01871</ele>
        <time>2023-07-19T16:13:25.000Z</time>
      </trkpt>
      <trkpt lat="45.80054" lon="4.73276">
        <ele>308.91174</ele>
        <time>2023-07-19T16:13:26.000Z</time>
      </trkpt>
      <trkpt lat="45.80059" lon="4.73275">
        <ele>308.77252</ele>
        <time>2023-07-19T16:13:27.000Z</time>
      </trkpt>
      <trkpt lat="45.80063" lon="4.73274">
        <ele>308.91879</ele>
        <time>2023-07-19T16:13:28.000Z</time>
      </trkpt>
      <trkpt lat="45.80068" lon="4.73271">
        <ele>309.00934</ele>
        <time>2023-07-19T16:13:29.000Z</time>
      </trkpt>
      <trkpt lat="45.80073" lon="4.73273">
        <ele>309.06116</ele>
        <time>2023-07-19T16:13:30.000Z</time>
      </trkpt>
      <trkpt lat="45.80079" lon="4.73274">
        <ele>309.08691</ele>
        <time>2023-07-19T16:13:31.000Z</time>
      </trkpt>
      <trkpt lat="45.80083" lon="4.73274">
        <ele>309.12421</ele>
        <time>2023-07-19T16:13:32.000Z</time>
      </trkpt>
      <trkpt lat="45.80088" lon="4.73272">
        <ele>309.04657</ele>
        <time>2023-07-19T16:13:33.000Z</time>
      </trkpt>
      <trkpt lat="45.80093" lon="4.73269">
        <ele>308.93024</ele>
        <time>2023-07-19T16:13:34.000Z</time>
      </trkpt>
      <trkpt lat="45.80098" lon="4.73266">
        <ele>308.76862</ele>
        <time>2023-07-19T16:13:35.000Z</time>
      </trkpt>
      <trkpt lat="45.80102" lon="4.73264">
        <ele>308.66339</ele>
        <time>2023-07-19T16:13:36.000Z</time>
      </trkpt>
      <trkpt lat="45.80106" lon="4.73263">
        <ele>308.53799</ele>
        <time>2023-07-19T16:13:37.000Z</time>
      </trkpt>
      <trkpt lat="45.80111" lon="4.73261">
        <ele>308.41473</ele>
        <time>2023-07-19T16:13:38.000Z</time>
      </trkpt>
      <trkpt lat="45.80117" lon="4.73259">
        <ele>308.20679</ele>
        <time>2023-07-19T16:13:39.000Z</time>
      </trkpt>
      <trkpt lat="45.80122" lon="4.73258">
        <ele>308.26605</ele>
        <time>2023-07-19T16:13:40.000Z</time>
      </trkpt>
      <trkpt lat="45.80127" lon="4.73258">
        <ele>308.27658</ele>
        <time>2023-07-19T16:13:41.000Z</time>
      </trkpt>
      <trkpt lat="45.80132" lon="4.73258">
        <ele>308.31516</ele>
        <time>2023-07-19T16:13:42.000Z</time>
      </trkpt>
      <trkpt lat="45.80136" lon="4.73258">
        <ele>308.34348</ele>
        <time>2023-07-19T16:13:43.000Z</time>
      </trkpt>
      <trkpt lat="45.80141" lon="4.73257">
        <ele>308.38248</ele>
        <time>2023-07-19T16:13:44.000Z</time>
      </trkpt>
      <trkpt lat="45.80146" lon="4.73257">
        <ele>308.40314</ele>
        <time>2023-07-19T16:13:45.000Z</time>
      </trkpt>
      <trkpt lat="45.8015" lon="4.73257">
        <ele>308.42886</ele>
        <time>2023-07-19T16:13:46.000Z</time>
      </trkpt>
      <trkpt lat="45.80155" lon="4.73257">
        <ele>308.56952</ele>
        <time>2023-07-19T16:13:47.000Z</time>
      </trkpt>
      <trkpt lat="45.80159" lon="4.73258">
        <ele>308.76755</ele>
        <time>2023-07-19T16:13:48.000Z</time>
      </trkpt>
      <trkpt lat="45.80163" lon="4.73257">
        <ele>308.96118</ele>
        <time>2023-07-19T16:13:49.000Z</time>
      </trkpt>
      <trkpt lat="45.80168" lon="4.73257">
        <ele>308.93881</ele>
        <time>2023-07-19T16:13:50.000Z</time>
      </trkpt>
      <trkpt lat="45.80172" lon="4.73258">
        <ele>308.96844</ele>
        <time>2023-07-19T16:13:51.000Z</time>
      </trkpt>
      <trkpt lat="45.80175" lon="4.73258">
        <ele>308.98718</ele>
        <time>2023-07-19T16:13:52.000Z</time>
      </trkpt>
      <trkpt lat="45.80179" lon="4.73257">
        <ele>309.01981</ele>
        <time>2023-07-19T16:13:53.000Z</time>
      </trkpt>
      <trkpt lat="45.80184" lon="4.73256">
        <ele>309.07013</ele>
        <time>2023-07-19T16:13:54.000Z</time>
      </trkpt>
      <trkpt lat="45.80188" lon="4.73256">
        <ele>309.19019</ele>
        <time>2023-07-19T16:13:55.000Z</time>
      </trkpt>
      <trkpt lat="45.80191" lon="4.73255">
        <ele>309.31436</ele>
        <time>2023-07-19T16:13:56.000Z</time>
      </trkpt>
      <trkpt lat="45.80195" lon="4.73255">
        <ele>309.50531</ele>
        <time>2023-07-19T16:13:57.000Z</time>
      </trkpt>
      <trkpt lat="45.80199" lon="4.73255">
        <ele>309.77716</ele>
        <time>2023-07-19T16:13:58.000Z</time>
      </trkpt>
      <trkpt lat="45.80202" lon="4.73255">
        <ele>309.77652</ele>
        <time>2023-07-19T16:13:59.000Z</time>
      </trkpt>
      <trkpt lat="45.80206" lon="4.73255">
        <ele>309.81271</ele>
        <time>2023-07-19T16:14:00.000Z</time>
      </trkpt>
      <trkpt lat="45.8021" lon="4.73254">
        <ele>309.8576</ele>
        <time>2023-07-19T16:14:01.000Z</time>
      </trkpt>
      <trkpt lat="45.80214" lon="4.73254">
        <ele>309.90973</ele>
        <time>2023-07-19T16:14:02.000Z</time>
      </trkpt>
      <trkpt lat="45.80218" lon="4.73254">
        <ele>309.94019</ele>
        <time>2023-07-19T16:14:03.000Z</time>
      </trkpt>
      <trkpt lat="45.80223" lon="4.73254">
        <ele>309.97955</ele>
        <time>2023-07-19T16:14:04.000Z</time>
      </trkpt>
      <trkpt lat="45.80227" lon="4.73254">
        <ele>310.00958</ele>
        <time>2023-07-19T16:14:05.000Z</time>
      </trkpt>
      <trkpt lat="45.80231" lon="4.73254">
        <ele>309.73196</ele>
        <time>2023-07-19T16:14:06.000Z</time>
      </trkpt>
      <trkpt lat="45.80235" lon="4.73254">
        <ele>309.34546</ele>
        <time>2023-07-19T16:14:07.000Z</time>
      </trkpt>
      <trkpt lat="45.8024" lon="4.73254">
        <ele>308.87564</ele>
        <time>2023-07-19T16:14:08.000Z</time>
      </trkpt>
      <trkpt lat="45.80245" lon="4.73256">
        <ele>308.33295</ele>
        <time>2023-07-19T16:14:09.000Z</time>
      </trkpt>
      <trkpt lat="45.8025" lon="4.73256">
        <ele>308.03055</ele>
        <time>2023-07-19T16:14:10.000Z</time>
      </trkpt>
      <trkpt lat="45.80254" lon="4.73256">
        <ele>307.69531</ele>
        <time>2023-07-19T16:14:11.000Z</time>
      </trkpt>
      <trkpt lat="45.80259" lon="4.73257">
        <ele>307.32224</ele>
        <time>2023-07-19T16:14:12.000Z</time>
      </trkpt>
      <trkpt lat="45.80265" lon="4.73257">
        <ele>306.77606</ele>
        <time>2023-07-19T16:14:13.000Z</time>
      </trkpt>
      <trkpt lat="45.80269" lon="4.73255">
        <ele>306.24338</ele>
        <time>2023-07-19T16:14:14.000Z</time>
      </trkpt>
      <trkpt lat="45.80273" lon="4.73253">
        <ele>305.70135</ele>
        <time>2023-07-19T16:14:15.000Z</time>
      </trkpt>
      <trkpt lat="45.80277" lon="4.73252">
        <ele>305.13031</ele>
        <time>2023-07-19T16:14:16.000Z</time>
      </trkpt>
      <trkpt lat="45.80281" lon="4.73251">
        <ele>304.50018</ele>
        <time>2023-07-19T16:14:17.000Z</time>
      </trkpt>
      <trkpt lat="45.80286" lon="4.73249">
        <ele>303.80264</ele>
        <time>2023-07-19T16:14:18.000Z</time>
      </trkpt>
      <trkpt lat="45.8029" lon="4.73248">
        <ele>303.39117</ele>
        <time>2023-07-19T16:14:19.000Z</time>
      </trkpt>
      <trkpt lat="45.80295" lon="4.73247">
        <ele>302.92633</ele>
        <time>2023-07-19T16:14:20.000Z</time>
      </trkpt>
      <trkpt lat="45.803" lon="4.73247">
        <ele>302.42795</ele>
        <time>2023-07-19T16:14:21.000Z</time>
      </trkpt>
      <trkpt lat="45.80305" lon="4.73249">
        <ele>301.91376</ele>
        <time>2023-07-19T16:14:22.000Z</time>
      </trkpt>
      <trkpt lat="45.80309" lon="4.73252">
        <ele>301.435</ele>
        <time>2023-07-19T16:14:23.000Z</time>
      </trkpt>
      <trkpt lat="45.80313" lon="4.73253">
        <ele>300.94626</ele>
        <time>2023-07-19T16:14:24.000Z</time>
      </trkpt>
      <trkpt lat="45.80318" lon="4.73255">
        <ele>300.46878</ele>
        <time>2023-07-19T16:14:25.000Z</time>
      </trkpt>
      <trkpt lat="45.80323" lon="4.73256">
        <ele>300.27454</ele>
        <time>2023-07-19T16:14:26.000Z</time>
      </trkpt>
      <trkpt lat="45.80328" lon="4.73255">
        <ele>300.04459</ele>
        <time>2023-07-19T16:14:27.000Z</time>
      </trkpt>
      <trkpt lat="45.80333" lon="4.73252">
        <ele>299.80783</ele>
        <time>2023-07-19T16:14:28.000Z</time>
      </trkpt>
      <trkpt lat="45.80338" lon="4.73246">
        <ele>299.6398</ele>
        <time>2023-07-19T16:14:29.000Z</time>
      </trkpt>
      <trkpt lat="45.80341" lon="4.73241">
        <ele>299.48877</ele>
        <time>2023-07-19T16:14:30.000Z</time>
      </trkpt>
      <trkpt lat="45.80344" lon="4.73236">
        <ele>299.36389</ele>
        <time>2023-07-19T16:14:31.000Z</time>
      </trkpt>
      <trkpt lat="45.80347" lon="4.7323">
        <ele>299.28375</ele>
        <time>2023-07-19T16:14:32.000Z</time>
      </trkpt>
      <trkpt lat="45.80349" lon="4.73225">
        <ele>299.34888</ele>
        <time>2023-07-19T16:14:33.000Z</time>
      </trkpt>
      <trkpt lat="45.8035" lon="4.73218">
        <ele>299.43481</ele>
        <time>2023-07-19T16:14:34.000Z</time>
      </trkpt>
      <trkpt lat="45.8035" lon="4.7321">
        <ele>299.51752</ele>
        <time>2023-07-19T16:14:35.000Z</time>
      </trkpt>
      <trkpt lat="45.80349" lon="4.73204">
        <ele>299.62253</ele>
        <time>2023-07-19T16:14:36.000Z</time>
      </trkpt>
      <trkpt lat="45.80347" lon="4.73198">
        <ele>299.69553</ele>
        <time>2023-07-19T16:14:37.000Z</time>
      </trkpt>
      <trkpt lat="45.80345" lon="4.73191">
        <ele>299.75543</ele>
        <time>2023-07-19T16:14:38.000Z</time>
      </trkpt>
      <trkpt lat="45.80342" lon="4.73185">
        <ele>299.82211</ele>
        <time>2023-07-19T16:14:39.000Z</time>
      </trkpt>
      <trkpt lat="45.80344" lon="4.73178">
        <ele>299.90222</ele>
        <time>2023-07-19T16:14:40.000Z</time>
      </trkpt>
      <trkpt lat="45.80345" lon="4.73171">
        <ele>300.04657</ele>
        <time>2023-07-19T16:14:41.000Z</time>
      </trkpt>
      <trkpt lat="45.80347" lon="4.73166">
        <ele>300.1911</ele>
        <time>2023-07-19T16:14:42.000Z</time>
      </trkpt>
      <trkpt lat="45.80348" lon="4.73157">
        <ele>300.28882</ele>
        <time>2023-07-19T16:14:43.000Z</time>
      </trkpt>
      <trkpt lat="45.80349" lon="4.73153">
        <ele>300.36539</ele>
        <time>2023-07-19T16:14:44.000Z</time>
      </trkpt>
      <trkpt lat="45.80348" lon="4.73146">
        <ele>300.47034</ele>
        <time>2023-07-19T16:14:45.000Z</time>
      </trkpt>
      <trkpt lat="45.80348" lon="4.73141">
        <ele>300.54572</ele>
        <time>2023-07-19T16:14:46.000Z</time>
      </trkpt>
      <trkpt lat="45.80348" lon="4.73136">
        <ele>300.6608</ele>
        <time>2023-07-19T16:14:47.000Z</time>
      </trkpt>
      <trkpt lat="45.80347" lon="4.7313">
        <ele>300.80817</ele>
        <time>2023-07-19T16:14:48.000Z</time>
      </trkpt>
      <trkpt lat="45.80345" lon="4.73125">
        <ele>300.96216</ele>
        <time>2023-07-19T16:14:49.000Z</time>
      </trkpt>
      <trkpt lat="45.80342" lon="4.7312">
        <ele>300.96942</ele>
        <time>2023-07-19T16:14:50.000Z</time>
      </trkpt>
      <trkpt lat="45.8034" lon="4.73115">
        <ele>301.05499</ele>
        <time>2023-07-19T16:14:51.000Z</time>
      </trkpt>
      <trkpt lat="45.80338" lon="4.7311">
        <ele>301.12845</ele>
        <time>2023-07-19T16:14:52.000Z</time>
      </trkpt>
      <trkpt lat="45.80336" lon="4.73106">
        <ele>301.20966</ele>
        <time>2023-07-19T16:14:53.000Z</time>
      </trkpt>
      <trkpt lat="45.80333" lon="4.73101">
        <ele>301.25751</ele>
        <time>2023-07-19T16:14:54.000Z</time>
      </trkpt>
      <trkpt lat="45.80331" lon="4.73096">
        <ele>301.30334</ele>
        <time>2023-07-19T16:14:55.000Z</time>
      </trkpt>
      <trkpt lat="45.80328" lon="4.73091">
        <ele>301.28552</ele>
        <time>2023-07-19T16:14:56.000Z</time>
      </trkpt>
      <trkpt lat="45.80326" lon="4.73087">
        <ele>301.29965</ele>
        <time>2023-07-19T16:14:57.000Z</time>
      </trkpt>
      <trkpt lat="45.80324" lon="4.73082">
        <ele>301.27411</ele>
        <time>2023-07-19T16:14:58.000Z</time>
      </trkpt>
      <trkpt lat="45.80322" lon="4.73078">
        <ele>301.84753</ele>
        <time>2023-07-19T16:14:59.000Z</time>
      </trkpt>
      <trkpt lat="45.8032" lon="4.73073">
        <ele>302.38763</ele>
        <time>2023-07-19T16:15:00.000Z</time>
      </trkpt>
      <trkpt lat="45.80319" lon="4.73068">
        <ele>302.87115</ele>
        <time>2023-07-19T16:15:01.000Z</time>
      </trkpt>
      <trkpt lat="45.80316" lon="4.73064">
        <ele>303.44879</ele>
        <time>2023-07-19T16:15:02.000Z</time>
      </trkpt>
      <trkpt lat="45.80314" lon="4.73059">
        <ele>303.82932</ele>
        <time>2023-07-19T16:15:03.000Z</time>
      </trkpt>
      <trkpt lat="45.80312" lon="4.73055">
        <ele>304.27771</ele>
        <time>2023-07-19T16:15:04.000Z</time>
      </trkpt>
      <trkpt lat="45.80309" lon="4.7305">
        <ele>304.70721</ele>
        <time>2023-07-19T16:15:05.000Z</time>
      </trkpt>
      <trkpt lat="45.80307" lon="4.73045">
        <ele>305.1792</ele>
        <time>2023-07-19T16:15:06.000Z</time>
      </trkpt>
      <trkpt lat="45.80305" lon="4.7304">
        <ele>305.61966</ele>
        <time>2023-07-19T16:15:07.000Z</time>
      </trkpt>
      <trkpt lat="45.80302" lon="4.73036">
        <ele>306.01053</ele>
        <time>2023-07-19T16:15:08.000Z</time>
      </trkpt>
      <trkpt lat="45.803" lon="4.73031">
        <ele>306.38171</ele>
        <time>2023-07-19T16:15:09.000Z</time>
      </trkpt>
      <trkpt lat="45.80298" lon="4.73026">
        <ele>306.99701</ele>
        <time>2023-07-19T16:15:10.000Z</time>
      </trkpt>
      <trkpt lat="45.80296" lon="4.73022">
        <ele>307.51886</ele>
        <time>2023-07-19T16:15:11.000Z</time>
      </trkpt>
      <trkpt lat="45.80294" lon="4.73018">
        <ele>308.09601</ele>
        <time>2023-07-19T16:15:12.000Z</time>
      </trkpt>
      <trkpt lat="45.80292" lon="4.73013">
        <ele>308.70221</ele>
        <time>2023-07-19T16:15:13.000Z</time>
      </trkpt>
      <trkpt lat="45.80291" lon="4.7301">
        <ele>309.3233</ele>
        <time>2023-07-19T16:15:14.000Z</time>
      </trkpt>
      <trkpt lat="45.80291" lon="4.73006">
        <ele>309.74689</ele>
        <time>2023-07-19T16:15:16.000Z</time>
      </trkpt>
      <trkpt lat="45.8029" lon="4.73004">
        <ele>310.18378</ele>
        <time>2023-07-19T16:15:59.000Z</time>
      </trkpt>
      <trkpt lat="45.80292" lon="4.72999">
        <ele>310.63199</ele>
        <time>2023-07-19T16:16:01.000Z</time>
      </trkpt>
      <trkpt lat="45.80294" lon="4.72997">
        <ele>311.05826</ele>
        <time>2023-07-19T16:16:02.000Z</time>
      </trkpt>
      <trkpt lat="45.80297" lon="4.72995">
        <ele>310.89136</ele>
        <time>2023-07-19T16:16:03.000Z</time>
      </trkpt>
      <trkpt lat="45.803" lon="4.72994">
        <ele>310.76859</ele>
        <time>2023-07-19T16:16:04.000Z</time>
      </trkpt>
      <trkpt lat="45.80304" lon="4.72992">
        <ele>310.6579</ele>
        <time>2023-07-19T16:16:05.000Z</time>
      </trkpt>
      <trkpt lat="45.80307" lon="4.7299">
        <ele>310.44537</ele>
        <time>2023-07-19T16:16:06.000Z</time>
      </trkpt>
      <trkpt lat="45.80311" lon="4.72988">
        <ele>310.45212</ele>
        <time>2023-07-19T16:16:07.000Z</time>
      </trkpt>
      <trkpt lat="45.80314" lon="4.72986">
        <ele>310.39627</ele>
        <time>2023-07-19T16:16:08.000Z</time>
      </trkpt>
      <trkpt lat="45.80318" lon="4.72984">
        <ele>310.35309</ele>
        <time>2023-07-19T16:16:09.000Z</time>
      </trkpt>
      <trkpt lat="45.80322" lon="4.72982">
        <ele>310.30807</ele>
        <time>2023-07-19T16:16:10.000Z</time>
      </trkpt>
      <trkpt lat="45.80326" lon="4.7298">
        <ele>310.28278</ele>
        <time>2023-07-19T16:16:11.000Z</time>
      </trkpt>
      <trkpt lat="45.80329" lon="4.72978">
        <ele>310.2587</ele>
        <time>2023-07-19T16:16:12.000Z</time>
      </trkpt>
      <trkpt lat="45.80333" lon="4.72976">
        <ele>310.25049</ele>
        <time>2023-07-19T16:16:13.000Z</time>
      </trkpt>
      <trkpt lat="45.80337" lon="4.72974">
        <ele>310.11322</ele>
        <time>2023-07-19T16:16:14.000Z</time>
      </trkpt>
      <trkpt lat="45.80341" lon="4.72972">
        <ele>309.96884</ele>
        <time>2023-07-19T16:16:15.000Z</time>
      </trkpt>
      <trkpt lat="45.80344" lon="4.72969">
        <ele>309.7804</ele>
        <time>2023-07-19T16:16:16.000Z</time>
      </trkpt>
      <trkpt lat="45.80348" lon="4.72967">
        <ele>309.62207</ele>
        <time>2023-07-19T16:16:17.000Z</time>
      </trkpt>
      <trkpt lat="45.80351" lon="4.72965">
        <ele>309.40363</ele>
        <time>2023-07-19T16:16:18.000Z</time>
      </trkpt>
      <trkpt lat="45.80355" lon="4.72963">
        <ele>309.38904</ele>
        <time>2023-07-19T16:16:19.000Z</time>
      </trkpt>
      <trkpt lat="45.80358" lon="4.72962">
        <ele>309.47931</ele>
        <time>2023-07-19T16:16:20.000Z</time>
      </trkpt>
      <trkpt lat="45.80361" lon="4.7296">
        <ele>309.56674</ele>
        <time>2023-07-19T16:16:21.000Z</time>
      </trkpt>
      <trkpt lat="45.80365" lon="4.72958">
        <ele>309.70493</ele>
        <time>2023-07-19T16:16:22.000Z</time>
      </trkpt>
      <trkpt lat="45.80368" lon="4.72956">
        <ele>309.81674</ele>
        <time>2023-07-19T16:16:23.000Z</time>
      </trkpt>
      <trkpt lat="45.80371" lon="4.72953">
        <ele>309.90561</ele>
        <time>2023-07-19T16:16:24.000Z</time>
      </trkpt>
      <trkpt lat="45.80375" lon="4.72951">
        <ele>309.95694</ele>
        <time>2023-07-19T16:16:25.000Z</time>
      </trkpt>
      <trkpt lat="45.80379" lon="4.72949">
        <ele>310.00418</ele>
        <time>2023-07-19T16:16:26.000Z</time>
      </trkpt>
      <trkpt lat="45.80382" lon="4.72948">
        <ele>310.04947</ele>
        <time>2023-07-19T16:16:27.000Z</time>
      </trkpt>
      <trkpt lat="45.80386" lon="4.72945">
        <ele>310.09369</ele>
        <time>2023-07-19T16:16:28.000Z</time>
      </trkpt>
      <trkpt lat="45.80389" lon="4.72943">
        <ele>310.12509</ele>
        <time>2023-07-19T16:16:29.000Z</time>
      </trkpt>
      <trkpt lat="45.80392" lon="4.72942">
        <ele>310.11948</ele>
        <time>2023-07-19T16:16:30.000Z</time>
      </trkpt>
      <trkpt lat="45.80395" lon="4.7294">
        <ele>310.11154</ele>
        <time>2023-07-19T16:16:31.000Z</time>
      </trkpt>
      <trkpt lat="45.80399" lon="4.72938">
        <ele>310.1091</ele>
        <time>2023-07-19T16:16:32.000Z</time>
      </trkpt>
      <trkpt lat="45.80402" lon="4.72936">
        <ele>310.07178</ele>
        <time>2023-07-19T16:16:33.000Z</time>
      </trkpt>
      <trkpt lat="45.80404" lon="4.72935">
        <ele>310.04184</ele>
        <time>2023-07-19T16:16:34.000Z</time>
      </trkpt>
      <trkpt lat="45.80405" lon="4.72934">
        <ele>310.13486</ele>
        <time>2023-07-19T16:16:35.000Z</time>
      </trkpt>
      <trkpt lat="45.80407" lon="4.72932">
        <ele>310.26654</ele>
        <time>2023-07-19T16:16:36.000Z</time>
      </trkpt>
      <trkpt lat="45.80409" lon="4.72931">
        <ele>310.45438</ele>
        <time>2023-07-19T16:16:37.000Z</time>
      </trkpt>
      <trkpt lat="45.80411" lon="4.72928">
        <ele>310.44672</ele>
        <time>2023-07-19T16:16:38.000Z</time>
      </trkpt>
      <trkpt lat="45.80411" lon="4.72925">
        <ele>310.46722</ele>
        <time>2023-07-19T16:16:40.000Z</time>
      </trkpt>
      <trkpt lat="45.8041" lon="4.72922">
        <ele>310.4422</ele>
        <time>2023-07-19T16:16:44.000Z</time>
      </trkpt>
      <trkpt lat="45.80408" lon="4.7292">
        <ele>310.50717</ele>
        <time>2023-07-19T16:17:05.000Z</time>
      </trkpt>
      <trkpt lat="45.80406" lon="4.72915">
        <ele>310.60822</ele>
        <time>2023-07-19T16:17:07.000Z</time>
      </trkpt>
      <trkpt lat="45.80406" lon="4.72911">
        <ele>310.80777</ele>
        <time>2023-07-19T16:17:08.000Z</time>
      </trkpt>
      <trkpt lat="45.80405" lon="4.72908">
        <ele>311.061</ele>
        <time>2023-07-19T16:17:09.000Z</time>
      </trkpt>
      <trkpt lat="45.80404" lon="4.72904">
        <ele>311.3558</ele>
        <time>2023-07-19T16:17:10.000Z</time>
      </trkpt>
      <trkpt lat="45.80402" lon="4.729">
        <ele>311.40735</ele>
        <time>2023-07-19T16:17:11.000Z</time>
      </trkpt>
      <trkpt lat="45.804" lon="4.72896">
        <ele>311.4942</ele>
        <time>2023-07-19T16:17:12.000Z</time>
      </trkpt>
      <trkpt lat="45.80399" lon="4.72891">
        <ele>311.60852</ele>
        <time>2023-07-19T16:17:13.000Z</time>
      </trkpt>
      <trkpt lat="45.80398" lon="4.72887">
        <ele>311.71552</ele>
        <time>2023-07-19T16:17:14.000Z</time>
      </trkpt>
      <trkpt lat="45.80396" lon="4.72882">
        <ele>311.86319</ele>
        <time>2023-07-19T16:17:15.000Z</time>
      </trkpt>
      <trkpt lat="45.80395" lon="4.72878">
        <ele>311.99625</ele>
        <time>2023-07-19T16:17:16.000Z</time>
      </trkpt>
      <trkpt lat="45.80393" lon="4.72873">
        <ele>312.15768</ele>
        <time>2023-07-19T16:17:17.000Z</time>
      </trkpt>
      <trkpt lat="45.80391" lon="4.72868">
        <ele>312.39938</ele>
        <time>2023-07-19T16:17:18.000Z</time>
      </trkpt>
      <trkpt lat="45.8039" lon="4.72863">
        <ele>312.63077</ele>
        <time>2023-07-19T16:17:19.000Z</time>
      </trkpt>
      <trkpt lat="45.80389" lon="4.72858">
        <ele>312.74557</ele>
        <time>2023-07-19T16:17:20.000Z</time>
      </trkpt>
      <trkpt lat="45.80387" lon="4.72853">
        <ele>312.80511</ele>
        <time>2023-07-19T16:17:21.000Z</time>
      </trkpt>
      <trkpt lat="45.80385" lon="4.72847">
        <ele>312.57385</ele>
        <time>2023-07-19T16:17:22.000Z</time>
      </trkpt>
      <trkpt lat="45.80382" lon="4.72842">
        <ele>312.6012</ele>
        <time>2023-07-19T16:17:23.000Z</time>
      </trkpt>
      <trkpt lat="45.8038" lon="4.72836">
        <ele>312.53372</ele>
        <time>2023-07-19T16:17:24.000Z</time>
      </trkpt>
      <trkpt lat="45.80377" lon="4.72829">
        <ele>312.43457</ele>
        <time>2023-07-19T16:17:25.000Z</time>
      </trkpt>
      <trkpt lat="45.80374" lon="4.72822">
        <ele>312.22815</ele>
        <time>2023-07-19T16:17:26.000Z</time>
      </trkpt>
      <trkpt lat="45.80372" lon="4.72815">
        <ele>311.99039</ele>
        <time>2023-07-19T16:17:27.000Z</time>
      </trkpt>
      <trkpt lat="45.8037" lon="4.72808">
        <ele>311.61911</ele>
        <time>2023-07-19T16:17:28.000Z</time>
      </trkpt>
      <trkpt lat="45.80368" lon="4.728">
        <ele>311.15613</ele>
        <time>2023-07-19T16:17:29.000Z</time>
      </trkpt>
      <trkpt lat="45.80366" lon="4.72792">
        <ele>310.66742</ele>
        <time>2023-07-19T16:17:30.000Z</time>
      </trkpt>
      <trkpt lat="45.80365" lon="4.72787">
        <ele>310.40997</ele>
        <time>2023-07-19T16:17:31.000Z</time>
      </trkpt>
      <trkpt lat="45.80365" lon="4.72781">
        <ele>310.10394</ele>
        <time>2023-07-19T16:17:32.000Z</time>
      </trkpt>
      <trkpt lat="45.80365" lon="4.72776">
        <ele>309.7793</ele>
        <time>2023-07-19T16:17:33.000Z</time>
      </trkpt>
      <trkpt lat="45.80365" lon="4.72772">
        <ele>309.46649</ele>
        <time>2023-07-19T16:17:34.000Z</time>
      </trkpt>
      <trkpt lat="45.80365" lon="4.72769">
        <ele>309.09586</ele>
        <time>2023-07-19T16:17:35.000Z</time>
      </trkpt>
      <trkpt lat="45.80366" lon="4.72766">
        <ele>308.77142</ele>
        <time>2023-07-19T16:17:36.000Z</time>
      </trkpt>
      <trkpt lat="45.80367" lon="4.72759">
        <ele>308.46194</ele>
        <time>2023-07-19T16:17:38.000Z</time>
      </trkpt>
      <trkpt lat="45.80369" lon="4.72754">
        <ele>308.09619</ele>
        <time>2023-07-19T16:17:39.000Z</time>
      </trkpt>
      <trkpt lat="45.80369" lon="4.72746">
        <ele>307.77014</ele>
        <time>2023-07-19T16:17:40.000Z</time>
      </trkpt>
      <trkpt lat="45.8037" lon="4.72738">
        <ele>307.56412</ele>
        <time>2023-07-19T16:17:41.000Z</time>
      </trkpt>
      <trkpt lat="45.8037" lon="4.72729">
        <ele>307.33899</ele>
        <time>2023-07-19T16:17:42.000Z</time>
      </trkpt>
      <trkpt lat="45.80373" lon="4.7272">
        <ele>307.27844</ele>
        <time>2023-07-19T16:17:43.000Z</time>
      </trkpt>
      <trkpt lat="45.80375" lon="4.72712">
        <ele>307.16489</ele>
        <time>2023-07-19T16:17:44.000Z</time>
      </trkpt>
      <trkpt lat="45.80377" lon="4.72705">
        <ele>307.0545</ele>
        <time>2023-07-19T16:17:45.000Z</time>
      </trkpt>
      <trkpt lat="45.80378" lon="4.72698">
        <ele>306.94788</ele>
        <time>2023-07-19T16:17:46.000Z</time>
      </trkpt>
      <trkpt lat="45.80377" lon="4.72695">
        <ele>306.77966</ele>
        <time>2023-07-19T16:17:47.000Z</time>
      </trkpt>
      <trkpt lat="45.80377" lon="4.72691">
        <ele>306.61981</ele>
        <time>2023-07-19T16:17:48.000Z</time>
      </trkpt>
      <trkpt lat="45.80377" lon="4.72686">
        <ele>306.51706</ele>
        <time>2023-07-19T16:17:49.000Z</time>
      </trkpt>
      <trkpt lat="45.80376" lon="4.7268">
        <ele>305.74506</ele>
        <time>2023-07-19T16:17:50.000Z</time>
      </trkpt>
      <trkpt lat="45.80376" lon="4.72675">
        <ele>305.01016</ele>
        <time>2023-07-19T16:17:51.000Z</time>
      </trkpt>
      <trkpt lat="45.80375" lon="4.7267">
        <ele>304.31583</ele>
        <time>2023-07-19T16:17:52.000Z</time>
      </trkpt>
      <trkpt lat="45.80374" lon="4.72667">
        <ele>303.56305</ele>
        <time>2023-07-19T16:17:53.000Z</time>
      </trkpt>
      <trkpt lat="45.80371" lon="4.72664">
        <ele>302.79706</ele>
        <time>2023-07-19T16:17:54.000Z</time>
      </trkpt>
      <trkpt lat="45.8037" lon="4.72662">
        <ele>302.0217</ele>
        <time>2023-07-19T16:17:55.000Z</time>
      </trkpt>
      <trkpt lat="45.80369" lon="4.72659">
        <ele>301.28519</ele>
        <time>2023-07-19T16:17:56.000Z</time>
      </trkpt>
      <trkpt lat="45.80367" lon="4.72656">
        <ele>300.46786</ele>
        <time>2023-07-19T16:17:58.000Z</time>
      </trkpt>
      <trkpt lat="45.80365" lon="4.72654">
        <ele>299.59073</ele>
        <time>2023-07-19T16:17:59.000Z</time>
      </trkpt>
      <trkpt lat="45.80362" lon="4.72651">
        <ele>298.7309</ele>
        <time>2023-07-19T16:18:00.000Z</time>
      </trkpt>
      <trkpt lat="45.80359" lon="4.72648">
        <ele>297.84091</ele>
        <time>2023-07-19T16:18:01.000Z</time>
      </trkpt>
      <trkpt lat="45.80357" lon="4.72645">
        <ele>296.80035</ele>
        <time>2023-07-19T16:18:02.000Z</time>
      </trkpt>
      <trkpt lat="45.80354" lon="4.72642">
        <ele>295.73297</ele>
        <time>2023-07-19T16:18:03.000Z</time>
      </trkpt>
      <trkpt lat="45.80352" lon="4.7264">
        <ele>294.66568</ele>
        <time>2023-07-19T16:18:04.000Z</time>
      </trkpt>
      <trkpt lat="45.80351" lon="4.72638">
        <ele>293.60825</ele>
        <time>2023-07-19T16:18:11.000Z</time>
      </trkpt>
      <trkpt lat="45.80351" lon="4.72635">
        <ele>292.42499</ele>
        <time>2023-07-19T16:19:04.000Z</time>
      </trkpt>
      <trkpt lat="45.80348" lon="4.72631">
        <ele>291.23285</ele>
        <time>2023-07-19T16:19:06.000Z</time>
      </trkpt>
      <trkpt lat="45.80345" lon="4.72628">
        <ele>290.09674</ele>
        <time>2023-07-19T16:19:07.000Z</time>
      </trkpt>
      <trkpt lat="45.80343" lon="4.72626">
        <ele>288.95456</ele>
        <time>2023-07-19T16:19:08.000Z</time>
      </trkpt>
      <trkpt lat="45.8034" lon="4.72625">
        <ele>287.76852</ele>
        <time>2023-07-19T16:19:09.000Z</time>
      </trkpt>
      <trkpt lat="45.80338" lon="4.72622">
        <ele>287.31818</ele>
        <time>2023-07-19T16:19:10.000Z</time>
      </trkpt>
      <trkpt lat="45.80332" lon="4.72617">
        <ele>286.79669</ele>
        <time>2023-07-19T16:19:11.000Z</time>
      </trkpt>
      <trkpt lat="45.80328" lon="4.72614">
        <ele>286.23425</ele>
        <time>2023-07-19T16:19:12.000Z</time>
      </trkpt>
      <trkpt lat="45.80323" lon="4.7261">
        <ele>285.74445</ele>
        <time>2023-07-19T16:19:13.000Z</time>
      </trkpt>
      <trkpt lat="45.80317" lon="4.72605">
        <ele>285.25601</ele>
        <time>2023-07-19T16:19:14.000Z</time>
      </trkpt>
      <trkpt lat="45.80311" lon="4.72601">
        <ele>284.73541</ele>
        <time>2023-07-19T16:19:15.000Z</time>
      </trkpt>
      <trkpt lat="45.80306" lon="4.72597">
        <ele>284.24261</ele>
        <time>2023-07-19T16:19:16.000Z</time>
      </trkpt>
      <trkpt lat="45.80302" lon="4.72593">
        <ele>283.79547</ele>
        <time>2023-07-19T16:19:17.000Z</time>
      </trkpt>
      <trkpt lat="45.80297" lon="4.72589">
        <ele>283.37479</ele>
        <time>2023-07-19T16:19:18.000Z</time>
      </trkpt>
      <trkpt lat="45.80294" lon="4.72587">
        <ele>282.92096</ele>
        <time>2023-07-19T16:19:19.000Z</time>
      </trkpt>
      <trkpt lat="45.8029" lon="4.72585">
        <ele>282.51541</ele>
        <time>2023-07-19T16:19:20.000Z</time>
      </trkpt>
      <trkpt lat="45.80287" lon="4.72583">
        <ele>282.14838</ele>
        <time>2023-07-19T16:19:21.000Z</time>
      </trkpt>
      <trkpt lat="45.80285" lon="4.7258">
        <ele>281.86572</ele>
        <time>2023-07-19T16:19:22.000Z</time>
      </trkpt>
      <trkpt lat="45.80283" lon="4.72578">
        <ele>281.56158</ele>
        <time>2023-07-19T16:19:23.000Z</time>
      </trkpt>
      <trkpt lat="45.80282" lon="4.72576">
        <ele>281.29446</ele>
        <time>2023-07-19T16:19:24.000Z</time>
      </trkpt>
      <trkpt lat="45.80279" lon="4.72575">
        <ele>281.20447</ele>
        <time>2023-07-19T16:19:25.000Z</time>
      </trkpt>
      <trkpt lat="45.80276" lon="4.72572">
        <ele>281.04596</ele>
        <time>2023-07-19T16:19:26.000Z</time>
      </trkpt>
      <trkpt lat="45.80273" lon="4.7257">
        <ele>280.89069</ele>
        <time>2023-07-19T16:19:27.000Z</time>
      </trkpt>
      <trkpt lat="45.80271" lon="4.72567">
        <ele>280.763</ele>
        <time>2023-07-19T16:19:28.000Z</time>
      </trkpt>
      <trkpt lat="45.80268" lon="4.72566">
        <ele>280.64893</ele>
        <time>2023-07-19T16:19:29.000Z</time>
      </trkpt>
      <trkpt lat="45.80266" lon="4.72564">
        <ele>280.52173</ele>
        <time>2023-07-19T16:19:30.000Z</time>
      </trkpt>
      <trkpt lat="45.80264" lon="4.7256">
        <ele>280.46198</ele>
        <time>2023-07-19T16:19:31.000Z</time>
      </trkpt>
      <trkpt lat="45.80262" lon="4.72558">
        <ele>280.42715</ele>
        <time>2023-07-19T16:19:32.000Z</time>
      </trkpt>
      <trkpt lat="45.8026" lon="4.72556">
        <ele>280.42236</ele>
        <time>2023-07-19T16:19:33.000Z</time>
      </trkpt>
      <trkpt lat="45.80258" lon="4.72554">
        <ele>280.44891</ele>
        <time>2023-07-19T16:19:34.000Z</time>
      </trkpt>
      <trkpt lat="45.80256" lon="4.72552">
        <ele>280.51453</ele>
        <time>2023-07-19T16:19:35.000Z</time>
      </trkpt>
      <trkpt lat="45.80254" lon="4.7255">
        <ele>280.60992</ele>
        <time>2023-07-19T16:19:36.000Z</time>
      </trkpt>
      <trkpt lat="45.80251" lon="4.72548">
        <ele>280.69781</ele>
        <time>2023-07-19T16:19:37.000Z</time>
      </trkpt>
      <trkpt lat="45.80248" lon="4.72545">
        <ele>280.76974</ele>
        <time>2023-07-19T16:19:38.000Z</time>
      </trkpt>
      <trkpt lat="45.80246" lon="4.72543">
        <ele>280.82846</ele>
        <time>2023-07-19T16:19:39.000Z</time>
      </trkpt>
      <trkpt lat="45.80244" lon="4.72541">
        <ele>280.87149</ele>
        <time>2023-07-19T16:19:40.000Z</time>
      </trkpt>
      <trkpt lat="45.80242" lon="4.72539">
        <ele>280.90521</ele>
        <time>2023-07-19T16:19:41.000Z</time>
      </trkpt>
      <trkpt lat="45.8024" lon="4.72538">
        <ele>280.93073</ele>
        <time>2023-07-19T16:19:42.000Z</time>
      </trkpt>
      <trkpt lat="45.80237" lon="4.72537">
        <ele>281.01089</ele>
        <time>2023-07-19T16:19:43.000Z</time>
      </trkpt>
      <trkpt lat="45.80234" lon="4.72536">
        <ele>281.06702</ele>
        <time>2023-07-19T16:19:44.000Z</time>
      </trkpt>
      <trkpt lat="45.80231" lon="4.72535">
        <ele>281.59033</ele>
        <time>2023-07-19T16:19:45.000Z</time>
      </trkpt>
      <trkpt lat="45.80228" lon="4.72534">
        <ele>282.17944</ele>
        <time>2023-07-19T16:19:46.000Z</time>
      </trkpt>
      <trkpt lat="45.80225" lon="4.72533">
        <ele>282.78552</ele>
        <time>2023-07-19T16:19:47.000Z</time>
      </trkpt>
      <trkpt lat="45.80223" lon="4.72533">
        <ele>283.44806</ele>
        <time>2023-07-19T16:19:48.000Z</time>
      </trkpt>
      <trkpt lat="45.8022" lon="4.72532">
        <ele>283.89774</ele>
        <time>2023-07-19T16:19:49.000Z</time>
      </trkpt>
      <trkpt lat="45.80217" lon="4.72531">
        <ele>284.41623</ele>
        <time>2023-07-19T16:19:50.000Z</time>
      </trkpt>
      <trkpt lat="45.80215" lon="4.7253">
        <ele>284.9332</ele>
        <time>2023-07-19T16:19:51.000Z</time>
      </trkpt>
      <trkpt lat="45.80212" lon="4.72528">
        <ele>285.44653</ele>
        <time>2023-07-19T16:19:52.000Z</time>
      </trkpt>
      <trkpt lat="45.8021" lon="4.72525">
        <ele>285.81763</ele>
        <time>2023-07-19T16:19:53.000Z</time>
      </trkpt>
      <trkpt lat="45.80208" lon="4.7252">
        <ele>286.12985</ele>
        <time>2023-07-19T16:19:54.000Z</time>
      </trkpt>
      <trkpt lat="45.80207" lon="4.72515">
        <ele>286.42136</ele>
        <time>2023-07-19T16:19:55.000Z</time>
      </trkpt>
      <trkpt lat="45.80206" lon="4.7251">
        <ele>286.71558</ele>
        <time>2023-07-19T16:19:56.000Z</time>
      </trkpt>
      <trkpt lat="45.80206" lon="4.72505">
        <ele>287.01782</ele>
        <time>2023-07-19T16:19:57.000Z</time>
      </trkpt>
      <trkpt lat="45.80205" lon="4.72501">
        <ele>287.37311</ele>
        <time>2023-07-19T16:19:58.000Z</time>
      </trkpt>
      <trkpt lat="45.80205" lon="4.72496">
        <ele>287.78793</ele>
        <time>2023-07-19T16:19:59.000Z</time>
      </trkpt>
      <trkpt lat="45.80205" lon="4.72491">
        <ele>288.31827</ele>
        <time>2023-07-19T16:20:00.000Z</time>
      </trkpt>
      <trkpt lat="45.80204" lon="4.72485">
        <ele>288.82193</ele>
        <time>2023-07-19T16:20:01.000Z</time>
      </trkpt>
      <trkpt lat="45.80203" lon="4.7248">
        <ele>289.3494</ele>
        <time>2023-07-19T16:20:02.000Z</time>
      </trkpt>
      <trkpt lat="45.80201" lon="4.72475">
        <ele>289.64258</ele>
        <time>2023-07-19T16:20:03.000Z</time>
      </trkpt>
      <trkpt lat="45.802" lon="4.7247">
        <ele>290.01654</ele>
        <time>2023-07-19T16:20:04.000Z</time>
      </trkpt>
      <trkpt lat="45.80199" lon="4.72466">
        <ele>289.88821</ele>
        <time>2023-07-19T16:20:05.000Z</time>
      </trkpt>
      <trkpt lat="45.80198" lon="4.72462">
        <ele>289.789</ele>
        <time>2023-07-19T16:20:06.000Z</time>
      </trkpt>
      <trkpt lat="45.80199" lon="4.72458">
        <ele>289.7002</ele>
        <time>2023-07-19T16:20:07.000Z</time>
      </trkpt>
      <trkpt lat="45.802" lon="4.72454">
        <ele>289.5274</ele>
        <time>2023-07-19T16:20:08.000Z</time>
      </trkpt>
      <trkpt lat="45.80201" lon="4.72452">
        <ele>289.60889</ele>
        <time>2023-07-19T16:20:09.000Z</time>
      </trkpt>
      <trkpt lat="45.80203" lon="4.7245">
        <ele>289.58008</ele>
        <time>2023-07-19T16:20:10.000Z</time>
      </trkpt>
      <trkpt lat="45.80205" lon="4.72449">
        <ele>289.52213</ele>
        <time>2023-07-19T16:20:11.000Z</time>
      </trkpt>
      <trkpt lat="45.80208" lon="4.72448">
        <ele>289.23917</ele>
        <time>2023-07-19T16:20:12.000Z</time>
      </trkpt>
      <trkpt lat="45.80211" lon="4.72448">
        <ele>289.05975</ele>
        <time>2023-07-19T16:20:13.000Z</time>
      </trkpt>
      <trkpt lat="45.80214" lon="4.72447">
        <ele>288.91409</ele>
        <time>2023-07-19T16:20:14.000Z</time>
      </trkpt>
      <trkpt lat="45.80217" lon="4.72446">
        <ele>288.78317</ele>
        <time>2023-07-19T16:20:15.000Z</time>
      </trkpt>
      <trkpt lat="45.8022" lon="4.72444">
        <ele>288.60223</ele>
        <time>2023-07-19T16:20:16.000Z</time>
      </trkpt>
      <trkpt lat="45.80224" lon="4.72442">
        <ele>288.41876</ele>
        <time>2023-07-19T16:20:17.000Z</time>
      </trkpt>
      <trkpt lat="45.80227" lon="4.7244">
        <ele>288.20526</ele>
        <time>2023-07-19T16:20:18.000Z</time>
      </trkpt>
      <trkpt lat="45.80229" lon="4.72438">
        <ele>287.95328</ele>
        <time>2023-07-19T16:20:19.000Z</time>
      </trkpt>
      <trkpt lat="45.80231" lon="4.72436">
        <ele>287.55688</ele>
        <time>2023-07-19T16:20:20.000Z</time>
      </trkpt>
      <trkpt lat="45.80234" lon="4.72434">
        <ele>287.22394</ele>
        <time>2023-07-19T16:20:21.000Z</time>
      </trkpt>
      <trkpt lat="45.80238" lon="4.72432">
        <ele>286.8259</ele>
        <time>2023-07-19T16:20:22.000Z</time>
      </trkpt>
      <trkpt lat="45.80241" lon="4.7243">
        <ele>286.65891</ele>
        <time>2023-07-19T16:20:23.000Z</time>
      </trkpt>
      <trkpt lat="45.80244" lon="4.72429">
        <ele>286.44431</ele>
        <time>2023-07-19T16:20:24.000Z</time>
      </trkpt>
      <trkpt lat="45.80248" lon="4.72427">
        <ele>286.23245</ele>
        <time>2023-07-19T16:20:25.000Z</time>
      </trkpt>
      <trkpt lat="45.80252" lon="4.72425">
        <ele>286.04376</ele>
        <time>2023-07-19T16:20:26.000Z</time>
      </trkpt>
      <trkpt lat="45.80256" lon="4.72423">
        <ele>285.84628</ele>
        <time>2023-07-19T16:20:27.000Z</time>
      </trkpt>
      <trkpt lat="45.8026" lon="4.72421">
        <ele>285.65244</ele>
        <time>2023-07-19T16:20:28.000Z</time>
      </trkpt>
      <trkpt lat="45.80264" lon="4.7242">
        <ele>285.42944</ele>
        <time>2023-07-19T16:20:29.000Z</time>
      </trkpt>
      <trkpt lat="45.80268" lon="4.72417">
        <ele>285.24393</ele>
        <time>2023-07-19T16:20:30.000Z</time>
      </trkpt>
      <trkpt lat="45.80275" lon="4.72414">
        <ele>285.1427</ele>
        <time>2023-07-19T16:20:31.000Z</time>
      </trkpt>
      <trkpt lat="45.80279" lon="4.72412">
        <ele>286.40247</ele>
        <time>2023-07-19T16:20:32.000Z</time>
      </trkpt>
      <trkpt lat="45.80282" lon="4.7241">
        <ele>287.63654</ele>
        <time>2023-07-19T16:20:33.000Z</time>
      </trkpt>
      <trkpt lat="45.80287" lon="4.7241">
        <ele>288.79767</ele>
        <time>2023-07-19T16:20:34.000Z</time>
      </trkpt>
      <trkpt lat="45.80292" lon="4.72408">
        <ele>289.99841</ele>
        <time>2023-07-19T16:20:35.000Z</time>
      </trkpt>
      <trkpt lat="45.80297" lon="4.72407">
        <ele>291.21802</ele>
        <time>2023-07-19T16:20:36.000Z</time>
      </trkpt>
      <trkpt lat="45.80302" lon="4.72405">
        <ele>292.39426</ele>
        <time>2023-07-19T16:20:37.000Z</time>
      </trkpt>
      <trkpt lat="45.80306" lon="4.72402">
        <ele>293.49384</ele>
        <time>2023-07-19T16:20:38.000Z</time>
      </trkpt>
      <trkpt lat="45.80309" lon="4.724">
        <ele>294.56168</ele>
        <time>2023-07-19T16:20:39.000Z</time>
      </trkpt>
      <trkpt lat="45.80313" lon="4.72397">
        <ele>295.63535</ele>
        <time>2023-07-19T16:20:40.000Z</time>
      </trkpt>
      <trkpt lat="45.80316" lon="4.72393">
        <ele>296.72153</ele>
        <time>2023-07-19T16:20:41.000Z</time>
      </trkpt>
      <trkpt lat="45.8032" lon="4.7239">
        <ele>297.83066</ele>
        <time>2023-07-19T16:20:42.000Z</time>
      </trkpt>
      <trkpt lat="45.80323" lon="4.72386">
        <ele>298.89203</ele>
        <time>2023-07-19T16:20:43.000Z</time>
      </trkpt>
      <trkpt lat="45.80325" lon="4.72383">
        <ele>299.91922</ele>
        <time>2023-07-19T16:20:44.000Z</time>
      </trkpt>
      <trkpt lat="45.80328" lon="4.72379">
        <ele>300.92703</ele>
        <time>2023-07-19T16:20:45.000Z</time>
      </trkpt>
      <trkpt lat="45.80331" lon="4.72376">
        <ele>301.9118</ele>
        <time>2023-07-19T16:20:46.000Z</time>
      </trkpt>
      <trkpt lat="45.80334" lon="4.72374">
        <ele>302.82169</ele>
        <time>2023-07-19T16:20:47.000Z</time>
      </trkpt>
      <trkpt lat="45.80338" lon="4.72373">
        <ele>303.77667</ele>
        <time>2023-07-19T16:20:48.000Z</time>
      </trkpt>
      <trkpt lat="45.80342" lon="4.72372">
        <ele>304.43488</ele>
        <time>2023-07-19T16:20:49.000Z</time>
      </trkpt>
      <trkpt lat="45.80346" lon="4.72371">
        <ele>305.06393</ele>
        <time>2023-07-19T16:20:50.000Z</time>
      </trkpt>
      <trkpt lat="45.80348" lon="4.7237">
        <ele>305.66684</ele>
        <time>2023-07-19T16:20:51.000Z</time>
      </trkpt>
      <trkpt lat="45.8035" lon="4.7237">
        <ele>305.17157</ele>
        <time>2023-07-19T16:20:53.000Z</time>
      </trkpt>
      <trkpt lat="45.80354" lon="4.72369">
        <ele>304.81128</ele>
        <time>2023-07-19T16:20:55.000Z</time>
      </trkpt>
      <trkpt lat="45.80356" lon="4.72369">
        <ele>304.33707</ele>
        <time>2023-07-19T16:20:56.000Z</time>
      </trkpt>
      <trkpt lat="45.80358" lon="4.72368">
        <ele>303.82281</ele>
        <time>2023-07-19T16:20:57.000Z</time>
      </trkpt>
      <trkpt lat="45.80361" lon="4.72366">
        <ele>303.26697</ele>
        <time>2023-07-19T16:20:58.000Z</time>
      </trkpt>
      <trkpt lat="45.80364" lon="4.72364">
        <ele>302.75607</ele>
        <time>2023-07-19T16:20:59.000Z</time>
      </trkpt>
      <trkpt lat="45.80368" lon="4.72362">
        <ele>302.29996</ele>
        <time>2023-07-19T16:21:00.000Z</time>
      </trkpt>
      <trkpt lat="45.80371" lon="4.7236">
        <ele>301.8519</ele>
        <time>2023-07-19T16:21:01.000Z</time>
      </trkpt>
      <trkpt lat="45.80374" lon="4.72359">
        <ele>301.43887</ele>
        <time>2023-07-19T16:21:02.000Z</time>
      </trkpt>
      <trkpt lat="45.80378" lon="4.72358">
        <ele>300.99619</ele>
        <time>2023-07-19T16:21:03.000Z</time>
      </trkpt>
      <trkpt lat="45.80382" lon="4.72356">
        <ele>300.57568</ele>
        <time>2023-07-19T16:21:04.000Z</time>
      </trkpt>
      <trkpt lat="45.80386" lon="4.72354">
        <ele>300.7421</ele>
        <time>2023-07-19T16:21:05.000Z</time>
      </trkpt>
      <trkpt lat="45.80389" lon="4.72353">
        <ele>300.85516</ele>
        <time>2023-07-19T16:21:06.000Z</time>
      </trkpt>
      <trkpt lat="45.80393" lon="4.72351">
        <ele>301.00418</ele>
        <time>2023-07-19T16:21:07.000Z</time>
      </trkpt>
      <trkpt lat="45.80397" lon="4.72349">
        <ele>301.12106</ele>
        <time>2023-07-19T16:21:08.000Z</time>
      </trkpt>
      <trkpt lat="45.80402" lon="4.72347">
        <ele>301.23398</ele>
        <time>2023-07-19T16:21:09.000Z</time>
      </trkpt>
      <trkpt lat="45.80406" lon="4.72344">
        <ele>301.31418</ele>
        <time>2023-07-19T16:21:10.000Z</time>
      </trkpt>
      <trkpt lat="45.80409" lon="4.72342">
        <ele>301.68573</ele>
        <time>2023-07-19T16:21:11.000Z</time>
      </trkpt>
      <trkpt lat="45.80413" lon="4.72341">
        <ele>302.12793</ele>
        <time>2023-07-19T16:21:12.000Z</time>
      </trkpt>
      <trkpt lat="45.80417" lon="4.72339">
        <ele>302.52103</ele>
        <time>2023-07-19T16:21:13.000Z</time>
      </trkpt>
      <trkpt lat="45.80421" lon="4.72337">
        <ele>302.88776</ele>
        <time>2023-07-19T16:21:14.000Z</time>
      </trkpt>
      <trkpt lat="45.80425" lon="4.72336">
        <ele>303.15555</ele>
        <time>2023-07-19T16:21:15.000Z</time>
      </trkpt>
      <trkpt lat="45.80427" lon="4.72335">
        <ele>303.62689</ele>
        <time>2023-07-19T16:21:16.000Z</time>
      </trkpt>
      <trkpt lat="45.8043" lon="4.72334">
        <ele>304.09558</ele>
        <time>2023-07-19T16:21:17.000Z</time>
      </trkpt>
      <trkpt lat="45.80435" lon="4.72333">
        <ele>304.54523</ele>
        <time>2023-07-19T16:21:18.000Z</time>
      </trkpt>
      <trkpt lat="45.80439" lon="4.72332">
        <ele>304.95001</ele>
        <time>2023-07-19T16:21:19.000Z</time>
      </trkpt>
      <trkpt lat="45.80442" lon="4.7233">
        <ele>305.384</ele>
        <time>2023-07-19T16:21:20.000Z</time>
      </trkpt>
      <trkpt lat="45.80446" lon="4.72329">
        <ele>305.72858</ele>
        <time>2023-07-19T16:21:21.000Z</time>
      </trkpt>
      <trkpt lat="45.8045" lon="4.72327">
        <ele>305.99457</ele>
        <time>2023-07-19T16:21:22.000Z</time>
      </trkpt>
      <trkpt lat="45.80453" lon="4.72325">
        <ele>306.25546</ele>
        <time>2023-07-19T16:21:23.000Z</time>
      </trkpt>
      <trkpt lat="45.80456" lon="4.72324">
        <ele>306.51709</ele>
        <time>2023-07-19T16:21:24.000Z</time>
      </trkpt>
      <trkpt lat="45.8046" lon="4.72323">
        <ele>306.32123</ele>
        <time>2023-07-19T16:21:25.000Z</time>
      </trkpt>
      <trkpt lat="45.80464" lon="4.72321">
        <ele>306.16537</ele>
        <time>2023-07-19T16:21:26.000Z</time>
      </trkpt>
      <trkpt lat="45.80467" lon="4.7232">
        <ele>306.24564</ele>
        <time>2023-07-19T16:21:27.000Z</time>
      </trkpt>
      <trkpt lat="45.80471" lon="4.72319">
        <ele>306.33881</ele>
        <time>2023-07-19T16:21:28.000Z</time>
      </trkpt>
      <trkpt lat="45.80474" lon="4.72318">
        <ele>306.48599</ele>
        <time>2023-07-19T16:21:29.000Z</time>
      </trkpt>
      <trkpt lat="45.80478" lon="4.72316">
        <ele>306.59735</ele>
        <time>2023-07-19T16:21:30.000Z</time>
      </trkpt>
      <trkpt lat="45.80481" lon="4.72313">
        <ele>306.73578</ele>
        <time>2023-07-19T16:21:31.000Z</time>
      </trkpt>
      <trkpt lat="45.80483" lon="4.72311">
        <ele>306.858</ele>
        <time>2023-07-19T16:21:32.000Z</time>
      </trkpt>
      <trkpt lat="45.80486" lon="4.72309">
        <ele>306.86536</ele>
        <time>2023-07-19T16:21:33.000Z</time>
      </trkpt>
      <trkpt lat="45.80488" lon="4.72308">
        <ele>306.86963</ele>
        <time>2023-07-19T16:21:34.000Z</time>
      </trkpt>
      <trkpt lat="45.80491" lon="4.72306">
        <ele>306.73041</ele>
        <time>2023-07-19T16:21:35.000Z</time>
      </trkpt>
      <trkpt lat="45.80494" lon="4.72304">
        <ele>306.6058</ele>
        <time>2023-07-19T16:21:36.000Z</time>
      </trkpt>
      <trkpt lat="45.80498" lon="4.72302">
        <ele>306.47934</ele>
        <time>2023-07-19T16:21:37.000Z</time>
      </trkpt>
      <trkpt lat="45.80502" lon="4.723">
        <ele>306.37726</ele>
        <time>2023-07-19T16:21:38.000Z</time>
      </trkpt>
      <trkpt lat="45.80505" lon="4.72299">
        <ele>306.30475</ele>
        <time>2023-07-19T16:21:39.000Z</time>
      </trkpt>
      <trkpt lat="45.80509" lon="4.72297">
        <ele>306.23819</ele>
        <time>2023-07-19T16:21:40.000Z</time>
      </trkpt>
      <trkpt lat="45.80512" lon="4.72295">
        <ele>306.28473</ele>
        <time>2023-07-19T16:21:41.000Z</time>
      </trkpt>
      <trkpt lat="45.80516" lon="4.72293">
        <ele>306.37128</ele>
        <time>2023-07-19T16:21:42.000Z</time>
      </trkpt>
      <trkpt lat="45.8052" lon="4.72292">
        <ele>306.4292</ele>
        <time>2023-07-19T16:21:43.000Z</time>
      </trkpt>
      <trkpt lat="45.80524" lon="4.7229">
        <ele>306.48544</ele>
        <time>2023-07-19T16:21:44.000Z</time>
      </trkpt>
      <trkpt lat="45.80529" lon="4.72289">
        <ele>306.40186</ele>
        <time>2023-07-19T16:21:45.000Z</time>
      </trkpt>
      <trkpt lat="45.80533" lon="4.72287">
        <ele>306.30176</ele>
        <time>2023-07-19T16:21:46.000Z</time>
      </trkpt>
      <trkpt lat="45.80539" lon="4.72284">
        <ele>306.04547</ele>
        <time>2023-07-19T16:21:47.000Z</time>
      </trkpt>
      <trkpt lat="45.80543" lon="4.72283">
        <ele>305.81866</ele>
        <time>2023-07-19T16:21:48.000Z</time>
      </trkpt>
      <trkpt lat="45.80547" lon="4.72281">
        <ele>305.67618</ele>
        <time>2023-07-19T16:21:49.000Z</time>
      </trkpt>
      <trkpt lat="45.80551" lon="4.72278">
        <ele>305.60626</ele>
        <time>2023-07-19T16:21:50.000Z</time>
      </trkpt>
      <trkpt lat="45.80555" lon="4.72276">
        <ele>305.55228</ele>
        <time>2023-07-19T16:21:51.000Z</time>
      </trkpt>
      <trkpt lat="45.8056" lon="4.72274">
        <ele>305.54034</ele>
        <time>2023-07-19T16:21:52.000Z</time>
      </trkpt>
      <trkpt lat="45.80564" lon="4.72272">
        <ele>305.68039</ele>
        <time>2023-07-19T16:21:53.000Z</time>
      </trkpt>
      <trkpt lat="45.80568" lon="4.7227">
        <ele>305.41177</ele>
        <time>2023-07-19T16:21:54.000Z</time>
      </trkpt>
      <trkpt lat="45.80571" lon="4.72269">
        <ele>305.37411</ele>
        <time>2023-07-19T16:21:55.000Z</time>
      </trkpt>
      <trkpt lat="45.80575" lon="4.72266">
        <ele>305.36102</ele>
        <time>2023-07-19T16:21:56.000Z</time>
      </trkpt>
      <trkpt lat="45.80578" lon="4.72263">
        <ele>305.38385</ele>
        <time>2023-07-19T16:21:57.000Z</time>
      </trkpt>
      <trkpt lat="45.80582" lon="4.72261">
        <ele>305.36133</ele>
        <time>2023-07-19T16:21:58.000Z</time>
      </trkpt>
      <trkpt lat="45.80585" lon="4.7226">
        <ele>305.427</ele>
        <time>2023-07-19T16:21:59.000Z</time>
      </trkpt>
      <trkpt lat="45.80589" lon="4.72258">
        <ele>305.43848</ele>
        <time>2023-07-19T16:22:00.000Z</time>
      </trkpt>
      <trkpt lat="45.80593" lon="4.72255">
        <ele>305.47849</ele>
        <time>2023-07-19T16:22:01.000Z</time>
      </trkpt>
      <trkpt lat="45.80596" lon="4.72253">
        <ele>305.48248</ele>
        <time>2023-07-19T16:22:02.000Z</time>
      </trkpt>
      <trkpt lat="45.806" lon="4.72251">
        <ele>305.49664</ele>
        <time>2023-07-19T16:22:03.000Z</time>
      </trkpt>
      <trkpt lat="45.80604" lon="4.7225">
        <ele>305.4371</ele>
        <time>2023-07-19T16:22:04.000Z</time>
      </trkpt>
      <trkpt lat="45.80607" lon="4.72249">
        <ele>305.35837</ele>
        <time>2023-07-19T16:22:05.000Z</time>
      </trkpt>
      <trkpt lat="45.8061" lon="4.72248">
        <ele>305.31137</ele>
        <time>2023-07-19T16:22:06.000Z</time>
      </trkpt>
      <trkpt lat="45.80614" lon="4.72246">
        <ele>305.20465</ele>
        <time>2023-07-19T16:22:07.000Z</time>
      </trkpt>
      <trkpt lat="45.80617" lon="4.72245">
        <ele>305.09247</ele>
        <time>2023-07-19T16:22:08.000Z</time>
      </trkpt>
      <trkpt lat="45.80621" lon="4.72243">
        <ele>304.95007</ele>
        <time>2023-07-19T16:22:09.000Z</time>
      </trkpt>
      <trkpt lat="45.80624" lon="4.72241">
        <ele>304.77069</ele>
        <time>2023-07-19T16:22:10.000Z</time>
      </trkpt>
      <trkpt lat="45.80627" lon="4.72239">
        <ele>304.59015</ele>
        <time>2023-07-19T16:22:11.000Z</time>
      </trkpt>
      <trkpt lat="45.80631" lon="4.72236">
        <ele>304.34863</ele>
        <time>2023-07-19T16:22:12.000Z</time>
      </trkpt>
      <trkpt lat="45.80635" lon="4.72234">
        <ele>304.01663</ele>
        <time>2023-07-19T16:22:13.000Z</time>
      </trkpt>
      <trkpt lat="45.80639" lon="4.72232">
        <ele>304.04587</ele>
        <time>2023-07-19T16:22:14.000Z</time>
      </trkpt>
      <trkpt lat="45.80643" lon="4.7223">
        <ele>304.00726</ele>
        <time>2023-07-19T16:22:15.000Z</time>
      </trkpt>
      <trkpt lat="45.80647" lon="4.72227">
        <ele>303.92197</ele>
        <time>2023-07-19T16:22:16.000Z</time>
      </trkpt>
      <trkpt lat="45.8065" lon="4.72225">
        <ele>303.85327</ele>
        <time>2023-07-19T16:22:17.000Z</time>
      </trkpt>
      <trkpt lat="45.80654" lon="4.72225">
        <ele>303.85281</ele>
        <time>2023-07-19T16:22:18.000Z</time>
      </trkpt>
      <trkpt lat="45.80657" lon="4.72224">
        <ele>303.8125</ele>
        <time>2023-07-19T16:22:19.000Z</time>
      </trkpt>
      <trkpt lat="45.8066" lon="4.72223">
        <ele>303.86682</ele>
        <time>2023-07-19T16:22:20.000Z</time>
      </trkpt>
      <trkpt lat="45.80662" lon="4.72221">
        <ele>303.92563</ele>
        <time>2023-07-19T16:22:21.000Z</time>
      </trkpt>
      <trkpt lat="45.80664" lon="4.7222">
        <ele>304.02145</ele>
        <time>2023-07-19T16:22:22.000Z</time>
      </trkpt>
      <trkpt lat="45.80666" lon="4.72219">
        <ele>304.06415</ele>
        <time>2023-07-19T16:22:23.000Z</time>
      </trkpt>
      <trkpt lat="45.80668" lon="4.72218">
        <ele>304.15604</ele>
        <time>2023-07-19T16:22:24.000Z</time>
      </trkpt>
      <trkpt lat="45.80672" lon="4.72218">
        <ele>304.30569</ele>
        <time>2023-07-19T16:22:25.000Z</time>
      </trkpt>
      <trkpt lat="45.80675" lon="4.72217">
        <ele>304.50754</ele>
        <time>2023-07-19T16:22:26.000Z</time>
      </trkpt>
      <trkpt lat="45.80679" lon="4.72216">
        <ele>304.6123</ele>
        <time>2023-07-19T16:22:27.000Z</time>
      </trkpt>
      <trkpt lat="45.80682" lon="4.72217">
        <ele>304.78824</ele>
        <time>2023-07-19T16:22:28.000Z</time>
      </trkpt>
      <trkpt lat="45.80685" lon="4.72219">
        <ele>304.86032</ele>
        <time>2023-07-19T16:22:29.000Z</time>
      </trkpt>
      <trkpt lat="45.80688" lon="4.72222">
        <ele>305.07455</ele>
        <time>2023-07-19T16:22:30.000Z</time>
      </trkpt>
      <trkpt lat="45.80691" lon="4.72226">
        <ele>305.2543</ele>
        <time>2023-07-19T16:22:31.000Z</time>
      </trkpt>
      <trkpt lat="45.80693" lon="4.72232">
        <ele>305.39081</ele>
        <time>2023-07-19T16:22:32.000Z</time>
      </trkpt>
      <trkpt lat="45.80695" lon="4.72238">
        <ele>305.58365</ele>
        <time>2023-07-19T16:22:33.000Z</time>
      </trkpt>
      <trkpt lat="45.80695" lon="4.72247">
        <ele>305.85941</ele>
        <time>2023-07-19T16:22:34.000Z</time>
      </trkpt>
      <trkpt lat="45.80695" lon="4.72254">
        <ele>306.19891</ele>
        <time>2023-07-19T16:22:35.000Z</time>
      </trkpt>
      <trkpt lat="45.80695" lon="4.72261">
        <ele>306.52991</ele>
        <time>2023-07-19T16:22:36.000Z</time>
      </trkpt>
      <trkpt lat="45.80694" lon="4.72269">
        <ele>306.90689</ele>
        <time>2023-07-19T16:22:37.000Z</time>
      </trkpt>
      <trkpt lat="45.80694" lon="4.72276">
        <ele>307.33035</ele>
        <time>2023-07-19T16:22:38.000Z</time>
      </trkpt>
      <trkpt lat="45.80695" lon="4.72285">
        <ele>307.72873</ele>
        <time>2023-07-19T16:22:39.000Z</time>
      </trkpt>
      <trkpt lat="45.80696" lon="4.72294">
        <ele>307.98624</ele>
        <time>2023-07-19T16:22:40.000Z</time>
      </trkpt>
      <trkpt lat="45.80697" lon="4.72302">
        <ele>307.87784</ele>
        <time>2023-07-19T16:22:41.000Z</time>
      </trkpt>
      <trkpt lat="45.80695" lon="4.7231">
        <ele>307.7984</ele>
        <time>2023-07-19T16:22:42.000Z</time>
      </trkpt>
      <trkpt lat="45.80693" lon="4.72316">
        <ele>307.77185</ele>
        <time>2023-07-19T16:22:43.000Z</time>
      </trkpt>
      <trkpt lat="45.80691" lon="4.72323">
        <ele>307.68109</ele>
        <time>2023-07-19T16:22:44.000Z</time>
      </trkpt>
      <trkpt lat="45.80688" lon="4.72328">
        <ele>307.53812</ele>
        <time>2023-07-19T16:22:45.000Z</time>
      </trkpt>
      <trkpt lat="45.80687" lon="4.72334">
        <ele>307.35098</ele>
        <time>2023-07-19T16:22:46.000Z</time>
      </trkpt>
      <trkpt lat="45.80686" lon="4.72337">
        <ele>307.2486</ele>
        <time>2023-07-19T16:22:47.000Z</time>
      </trkpt>
      <trkpt lat="45.80688" lon="4.72342">
        <ele>307.00693</ele>
        <time>2023-07-19T16:22:49.000Z</time>
      </trkpt>
      <trkpt lat="45.80689" lon="4.72347">
        <ele>306.80536</ele>
        <time>2023-07-19T16:22:51.000Z</time>
      </trkpt>
      <trkpt lat="45.80688" lon="4.72353">
        <ele>306.49197</ele>
        <time>2023-07-19T16:22:52.000Z</time>
      </trkpt>
      <trkpt lat="45.80687" lon="4.72357">
        <ele>306.1673</ele>
        <time>2023-07-19T16:22:53.000Z</time>
      </trkpt>
      <trkpt lat="45.80686" lon="4.72363">
        <ele>305.82101</ele>
        <time>2023-07-19T16:22:54.000Z</time>
      </trkpt>
      <trkpt lat="45.80685" lon="4.72368">
        <ele>305.46381</ele>
        <time>2023-07-19T16:22:55.000Z</time>
      </trkpt>
      <trkpt lat="45.80685" lon="4.72374">
        <ele>305.04791</ele>
        <time>2023-07-19T16:22:56.000Z</time>
      </trkpt>
      <trkpt lat="45.80685" lon="4.7238">
        <ele>304.53436</ele>
        <time>2023-07-19T16:22:57.000Z</time>
      </trkpt>
      <trkpt lat="45.80684" lon="4.72387">
        <ele>304.18176</ele>
        <time>2023-07-19T16:22:58.000Z</time>
      </trkpt>
      <trkpt lat="45.80683" lon="4.72393">
        <ele>303.72546</ele>
        <time>2023-07-19T16:22:59.000Z</time>
      </trkpt>
      <trkpt lat="45.80683" lon="4.72399">
        <ele>303.22925</ele>
        <time>2023-07-19T16:23:00.000Z</time>
      </trkpt>
      <trkpt lat="45.80682" lon="4.72406">
        <ele>302.72696</ele>
        <time>2023-07-19T16:23:01.000Z</time>
      </trkpt>
      <trkpt lat="45.80682" lon="4.72412">
        <ele>302.32483</ele>
        <time>2023-07-19T16:23:02.000Z</time>
      </trkpt>
      <trkpt lat="45.80682" lon="4.72418">
        <ele>302.29974</ele>
        <time>2023-07-19T16:23:03.000Z</time>
      </trkpt>
      <trkpt lat="45.80681" lon="4.72423">
        <ele>302.27289</ele>
        <time>2023-07-19T16:23:04.000Z</time>
      </trkpt>
      <trkpt lat="45.80681" lon="4.72429">
        <ele>302.27304</ele>
        <time>2023-07-19T16:23:05.000Z</time>
      </trkpt>
      <trkpt lat="45.80683" lon="4.72436">
        <ele>302.33517</ele>
        <time>2023-07-19T16:23:06.000Z</time>
      </trkpt>
      <trkpt lat="45.80685" lon="4.72442">
        <ele>302.48669</ele>
        <time>2023-07-19T16:23:07.000Z</time>
      </trkpt>
      <trkpt lat="45.80687" lon="4.72447">
        <ele>302.65924</ele>
        <time>2023-07-19T16:23:08.000Z</time>
      </trkpt>
      <trkpt lat="45.8069" lon="4.72452">
        <ele>302.88229</ele>
        <time>2023-07-19T16:23:09.000Z</time>
      </trkpt>
      <trkpt lat="45.80694" lon="4.72458">
        <ele>303.19037</ele>
        <time>2023-07-19T16:23:10.000Z</time>
      </trkpt>
      <trkpt lat="45.80697" lon="4.72461">
        <ele>303.5928</ele>
        <time>2023-07-19T16:23:11.000Z</time>
      </trkpt>
      <trkpt lat="45.807" lon="4.72464">
        <ele>304.00363</ele>
        <time>2023-07-19T16:23:12.000Z</time>
      </trkpt>
      <trkpt lat="45.80706" lon="4.72465">
        <ele>304.48264</ele>
        <time>2023-07-19T16:23:13.000Z</time>
      </trkpt>
      <trkpt lat="45.80711" lon="4.72467">
        <ele>304.97873</ele>
        <time>2023-07-19T16:23:14.000Z</time>
      </trkpt>
      <trkpt lat="45.80715" lon="4.72469">
        <ele>305.48419</ele>
        <time>2023-07-19T16:23:15.000Z</time>
      </trkpt>
      <trkpt lat="45.8072" lon="4.72471">
        <ele>306.09698</ele>
        <time>2023-07-19T16:23:16.000Z</time>
      </trkpt>
      <trkpt lat="45.80724" lon="4.72474">
        <ele>306.78125</ele>
        <time>2023-07-19T16:23:17.000Z</time>
      </trkpt>
      <trkpt lat="45.80727" lon="4.72475">
        <ele>306.97394</ele>
        <time>2023-07-19T16:23:18.000Z</time>
      </trkpt>
      <trkpt lat="45.8073" lon="4.72477">
        <ele>307.29684</ele>
        <time>2023-07-19T16:23:19.000Z</time>
      </trkpt>
      <trkpt lat="45.80735" lon="4.72481">
        <ele>307.62643</ele>
        <time>2023-07-19T16:23:20.000Z</time>
      </trkpt>
      <trkpt lat="45.80739" lon="4.72482">
        <ele>307.93991</ele>
        <time>2023-07-19T16:23:21.000Z</time>
      </trkpt>
      <trkpt lat="45.80742" lon="4.72485">
        <ele>308.20038</ele>
        <time>2023-07-19T16:23:22.000Z</time>
      </trkpt>
      <trkpt lat="45.80746" lon="4.72486">
        <ele>308.54013</ele>
        <time>2023-07-19T16:23:23.000Z</time>
      </trkpt>
      <trkpt lat="45.8075" lon="4.72487">
        <ele>308.94833</ele>
        <time>2023-07-19T16:23:24.000Z</time>
      </trkpt>
      <trkpt lat="45.80754" lon="4.72489">
        <ele>308.93561</ele>
        <time>2023-07-19T16:23:25.000Z</time>
      </trkpt>
      <trkpt lat="45.80759" lon="4.72491">
        <ele>309.02292</ele>
        <time>2023-07-19T16:23:26.000Z</time>
      </trkpt>
      <trkpt lat="45.80764" lon="4.72494">
        <ele>309.11682</ele>
        <time>2023-07-19T16:23:27.000Z</time>
      </trkpt>
      <trkpt lat="45.80766" lon="4.72495">
        <ele>309.23676</ele>
        <time>2023-07-19T16:23:28.000Z</time>
      </trkpt>
      <trkpt lat="45.80769" lon="4.72498">
        <ele>309.32599</ele>
        <time>2023-07-19T16:23:29.000Z</time>
      </trkpt>
      <trkpt lat="45.80774" lon="4.725">
        <ele>309.526</ele>
        <time>2023-07-19T16:23:30.000Z</time>
      </trkpt>
      <trkpt lat="45.80778" lon="4.72504">
        <ele>309.65509</ele>
        <time>2023-07-19T16:23:31.000Z</time>
      </trkpt>
      <trkpt lat="45.80783" lon="4.72506">
        <ele>309.75897</ele>
        <time>2023-07-19T16:23:32.000Z</time>
      </trkpt>
      <trkpt lat="45.80788" lon="4.72508">
        <ele>309.77298</ele>
        <time>2023-07-19T16:23:33.000Z</time>
      </trkpt>
      <trkpt lat="45.80792" lon="4.72509">
        <ele>309.78607</ele>
        <time>2023-07-19T16:23:34.000Z</time>
      </trkpt>
      <trkpt lat="45.80796" lon="4.72512">
        <ele>309.82397</ele>
        <time>2023-07-19T16:23:35.000Z</time>
      </trkpt>
      <trkpt lat="45.80801" lon="4.72514">
        <ele>309.76471</ele>
        <time>2023-07-19T16:23:36.000Z</time>
      </trkpt>
      <trkpt lat="45.80805" lon="4.72517">
        <ele>309.65851</ele>
        <time>2023-07-19T16:23:37.000Z</time>
      </trkpt>
      <trkpt lat="45.80809" lon="4.72518">
        <ele>309.86435</ele>
        <time>2023-07-19T16:23:38.000Z</time>
      </trkpt>
      <trkpt lat="45.80813" lon="4.72521">
        <ele>310.01227</ele>
        <time>2023-07-19T16:23:39.000Z</time>
      </trkpt>
      <trkpt lat="45.80817" lon="4.72523">
        <ele>310.11838</ele>
        <time>2023-07-19T16:23:40.000Z</time>
      </trkpt>
      <trkpt lat="45.80821" lon="4.72526">
        <ele>310.29901</ele>
        <time>2023-07-19T16:23:41.000Z</time>
      </trkpt>
      <trkpt lat="45.80826" lon="4.72528">
        <ele>310.46301</ele>
        <time>2023-07-19T16:23:42.000Z</time>
      </trkpt>
      <trkpt lat="45.80831" lon="4.7253">
        <ele>310.47842</ele>
        <time>2023-07-19T16:23:43.000Z</time>
      </trkpt>
      <trkpt lat="45.80835" lon="4.72532">
        <ele>310.36115</ele>
        <time>2023-07-19T16:23:44.000Z</time>
      </trkpt>
      <trkpt lat="45.80839" lon="4.72534">
        <ele>310.58749</ele>
        <time>2023-07-19T16:23:45.000Z</time>
      </trkpt>
      <trkpt lat="45.80844" lon="4.72537">
        <ele>310.65131</ele>
        <time>2023-07-19T16:23:46.000Z</time>
      </trkpt>
      <trkpt lat="45.80848" lon="4.72538">
        <ele>310.65393</ele>
        <time>2023-07-19T16:23:47.000Z</time>
      </trkpt>
      <trkpt lat="45.80852" lon="4.7254">
        <ele>310.64935</ele>
        <time>2023-07-19T16:23:48.000Z</time>
      </trkpt>
      <trkpt lat="45.80855" lon="4.72542">
        <ele>310.70001</ele>
        <time>2023-07-19T16:23:49.000Z</time>
      </trkpt>
      <trkpt lat="45.80858" lon="4.72543">
        <ele>310.76187</ele>
        <time>2023-07-19T16:23:50.000Z</time>
      </trkpt>
      <trkpt lat="45.80862" lon="4.72547">
        <ele>310.80801</ele>
        <time>2023-07-19T16:23:51.000Z</time>
      </trkpt>
      <trkpt lat="45.80866" lon="4.72548">
        <ele>310.87894</ele>
        <time>2023-07-19T16:23:52.000Z</time>
      </trkpt>
      <trkpt lat="45.8087" lon="4.7255">
        <ele>311.00995</ele>
        <time>2023-07-19T16:23:53.000Z</time>
      </trkpt>
      <trkpt lat="45.80876" lon="4.72552">
        <ele>310.97052</ele>
        <time>2023-07-19T16:23:54.000Z</time>
      </trkpt>
      <trkpt lat="45.80881" lon="4.72556">
        <ele>311</ele>
        <time>2023-07-19T16:23:55.000Z</time>
      </trkpt>
      <trkpt lat="45.80884" lon="4.72557">
        <ele>311.01874</ele>
        <time>2023-07-19T16:23:56.000Z</time>
      </trkpt>
      <trkpt lat="45.80888" lon="4.72559">
        <ele>311.07245</ele>
        <time>2023-07-19T16:23:57.000Z</time>
      </trkpt>
      <trkpt lat="45.80891" lon="4.72562">
        <ele>311.18643</ele>
        <time>2023-07-19T16:23:58.000Z</time>
      </trkpt>
      <trkpt lat="45.80894" lon="4.72565">
        <ele>311.24521</ele>
        <time>2023-07-19T16:23:59.000Z</time>
      </trkpt>
      <trkpt lat="45.809" lon="4.72567">
        <ele>311.28577</ele>
        <time>2023-07-19T16:24:00.000Z</time>
      </trkpt>
      <trkpt lat="45.80904" lon="4.72569">
        <ele>311.2977</ele>
        <time>2023-07-19T16:24:01.000Z</time>
      </trkpt>
      <trkpt lat="45.80907" lon="4.72571">
        <ele>311.39368</ele>
        <time>2023-07-19T16:24:02.000Z</time>
      </trkpt>
      <trkpt lat="45.8091" lon="4.72572">
        <ele>311.56531</ele>
        <time>2023-07-19T16:24:03.000Z</time>
      </trkpt>
      <trkpt lat="45.80915" lon="4.72573">
        <ele>311.83389</ele>
        <time>2023-07-19T16:24:04.000Z</time>
      </trkpt>
      <trkpt lat="45.8092" lon="4.72576">
        <ele>312.09851</ele>
        <time>2023-07-19T16:24:05.000Z</time>
      </trkpt>
      <trkpt lat="45.80925" lon="4.72577">
        <ele>312.4472</ele>
        <time>2023-07-19T16:24:06.000Z</time>
      </trkpt>
      <trkpt lat="45.80928" lon="4.7258">
        <ele>312.79211</ele>
        <time>2023-07-19T16:24:07.000Z</time>
      </trkpt>
      <trkpt lat="45.80933" lon="4.72581">
        <ele>313.21927</ele>
        <time>2023-07-19T16:24:08.000Z</time>
      </trkpt>
      <trkpt lat="45.80936" lon="4.72582">
        <ele>313.58575</ele>
        <time>2023-07-19T16:24:09.000Z</time>
      </trkpt>
      <trkpt lat="45.80939" lon="4.72582">
        <ele>313.92181</ele>
        <time>2023-07-19T16:24:10.000Z</time>
      </trkpt>
      <trkpt lat="45.80943" lon="4.72584">
        <ele>314.28644</ele>
        <time>2023-07-19T16:24:11.000Z</time>
      </trkpt>
      <trkpt lat="45.80947" lon="4.72587">
        <ele>314.71802</ele>
        <time>2023-07-19T16:24:12.000Z</time>
      </trkpt>
      <trkpt lat="45.80951" lon="4.72589">
        <ele>314.87909</ele>
        <time>2023-07-19T16:24:13.000Z</time>
      </trkpt>
      <trkpt lat="45.80955" lon="4.72591">
        <ele>315.26694</ele>
        <time>2023-07-19T16:24:14.000Z</time>
      </trkpt>
      <trkpt lat="45.80959" lon="4.72593">
        <ele>315.60062</ele>
        <time>2023-07-19T16:24:15.000Z</time>
      </trkpt>
      <trkpt lat="45.80967" lon="4.72594">
        <ele>316.03143</ele>
        <time>2023-07-19T16:24:16.000Z</time>
      </trkpt>
      <trkpt lat="45.80973" lon="4.72599">
        <ele>316.33646</ele>
        <time>2023-07-19T16:24:17.000Z</time>
      </trkpt>
      <trkpt lat="45.80978" lon="4.726">
        <ele>316.5639</ele>
        <time>2023-07-19T16:24:18.000Z</time>
      </trkpt>
      <trkpt lat="45.80983" lon="4.72603">
        <ele>316.74554</ele>
        <time>2023-07-19T16:24:19.000Z</time>
      </trkpt>
      <trkpt lat="45.80988" lon="4.72605">
        <ele>316.98959</ele>
        <time>2023-07-19T16:24:20.000Z</time>
      </trkpt>
      <trkpt lat="45.80993" lon="4.72606">
        <ele>317.20297</ele>
        <time>2023-07-19T16:24:21.000Z</time>
      </trkpt>
      <trkpt lat="45.80998" lon="4.72607">
        <ele>317.47025</ele>
        <time>2023-07-19T16:24:22.000Z</time>
      </trkpt>
      <trkpt lat="45.81004" lon="4.7261">
        <ele>317.7121</ele>
        <time>2023-07-19T16:24:23.000Z</time>
      </trkpt>
      <trkpt lat="45.8101" lon="4.72618">
        <ele>317.91403</ele>
        <time>2023-07-19T16:24:24.000Z</time>
      </trkpt>
      <trkpt lat="45.81013" lon="4.72622">
        <ele>318.13727</ele>
        <time>2023-07-19T16:24:25.000Z</time>
      </trkpt>
      <trkpt lat="45.81017" lon="4.72623">
        <ele>318.34167</ele>
        <time>2023-07-19T16:24:26.000Z</time>
      </trkpt>
      <trkpt lat="45.81022" lon="4.72625">
        <ele>318.56256</ele>
        <time>2023-07-19T16:24:27.000Z</time>
      </trkpt>
      <trkpt lat="45.81028" lon="4.72631">
        <ele>318.63159</ele>
        <time>2023-07-19T16:24:28.000Z</time>
      </trkpt>
      <trkpt lat="45.81033" lon="4.72634">
        <ele>318.66928</ele>
        <time>2023-07-19T16:24:29.000Z</time>
      </trkpt>
      <trkpt lat="45.81038" lon="4.72637">
        <ele>318.73361</ele>
        <time>2023-07-19T16:24:30.000Z</time>
      </trkpt>
      <trkpt lat="45.81043" lon="4.72643">
        <ele>318.77618</ele>
        <time>2023-07-19T16:24:31.000Z</time>
      </trkpt>
      <trkpt lat="45.81047" lon="4.72646">
        <ele>318.76898</ele>
        <time>2023-07-19T16:24:32.000Z</time>
      </trkpt>
      <trkpt lat="45.8105" lon="4.72649">
        <ele>318.69296</ele>
        <time>2023-07-19T16:24:33.000Z</time>
      </trkpt>
      <trkpt lat="45.81056" lon="4.72655">
        <ele>318.66379</ele>
        <time>2023-07-19T16:24:34.000Z</time>
      </trkpt>
      <trkpt lat="45.81061" lon="4.72657">
        <ele>318.69019</ele>
        <time>2023-07-19T16:24:35.000Z</time>
      </trkpt>
      <trkpt lat="45.81067" lon="4.72661">
        <ele>318.63742</ele>
        <time>2023-07-19T16:24:36.000Z</time>
      </trkpt>
      <trkpt lat="45.8107" lon="4.72664">
        <ele>318.69235</ele>
        <time>2023-07-19T16:24:37.000Z</time>
      </trkpt>
      <trkpt lat="45.81077" lon="4.72668">
        <ele>318.81128</ele>
        <time>2023-07-19T16:24:38.000Z</time>
      </trkpt>
      <trkpt lat="45.81082" lon="4.72672">
        <ele>318.94586</ele>
        <time>2023-07-19T16:24:39.000Z</time>
      </trkpt>
      <trkpt lat="45.81086" lon="4.72677">
        <ele>319.03461</ele>
        <time>2023-07-19T16:24:40.000Z</time>
      </trkpt>
      <trkpt lat="45.81091" lon="4.72682">
        <ele>319.14209</ele>
        <time>2023-07-19T16:24:41.000Z</time>
      </trkpt>
      <trkpt lat="45.81096" lon="4.72687">
        <ele>319.17502</ele>
        <time>2023-07-19T16:24:42.000Z</time>
      </trkpt>
      <trkpt lat="45.81106" lon="4.72698">
        <ele>319.1391</ele>
        <time>2023-07-19T16:24:43.000Z</time>
      </trkpt>
      <trkpt lat="45.81108" lon="4.72702">
        <ele>319.0209</ele>
        <time>2023-07-19T16:24:44.000Z</time>
      </trkpt>
      <trkpt lat="45.81114" lon="4.72707">
        <ele>318.93732</ele>
        <time>2023-07-19T16:24:45.000Z</time>
      </trkpt>
      <trkpt lat="45.81119" lon="4.72711">
        <ele>318.91031</ele>
        <time>2023-07-19T16:24:46.000Z</time>
      </trkpt>
      <trkpt lat="45.81124" lon="4.72715">
        <ele>318.90976</ele>
        <time>2023-07-19T16:24:47.000Z</time>
      </trkpt>
      <trkpt lat="45.81129" lon="4.72717">
        <ele>318.96014</ele>
        <time>2023-07-19T16:24:48.000Z</time>
      </trkpt>
      <trkpt lat="45.81134" lon="4.72721">
        <ele>319.00925</ele>
        <time>2023-07-19T16:24:49.000Z</time>
      </trkpt>
      <trkpt lat="45.81138" lon="4.72724">
        <ele>319.00562</ele>
        <time>2023-07-19T16:24:50.000Z</time>
      </trkpt>
      <trkpt lat="45.81145" lon="4.7273">
        <ele>318.96609</ele>
        <time>2023-07-19T16:24:51.000Z</time>
      </trkpt>
      <trkpt lat="45.81151" lon="4.72734">
        <ele>318.84818</ele>
        <time>2023-07-19T16:24:52.000Z</time>
      </trkpt>
      <trkpt lat="45.81151" lon="4.72738">
        <ele>318.95633</ele>
        <time>2023-07-19T16:24:53.000Z</time>
      </trkpt>
      <trkpt lat="45.81153" lon="4.72741">
        <ele>319.00546</ele>
        <time>2023-07-19T16:24:54.000Z</time>
      </trkpt>
      <trkpt lat="45.81156" lon="4.72743">
        <ele>318.99255</ele>
        <time>2023-07-19T16:24:55.000Z</time>
      </trkpt>
      <trkpt lat="45.8116" lon="4.72745">
        <ele>318.99527</ele>
        <time>2023-07-19T16:24:56.000Z</time>
      </trkpt>
      <trkpt lat="45.81164" lon="4.72748">
        <ele>318.9881</ele>
        <time>2023-07-19T16:24:57.000Z</time>
      </trkpt>
      <trkpt lat="45.81168" lon="4.72751">
        <ele>318.95294</ele>
        <time>2023-07-19T16:24:58.000Z</time>
      </trkpt>
      <trkpt lat="45.81171" lon="4.72755">
        <ele>318.99011</ele>
        <time>2023-07-19T16:24:59.000Z</time>
      </trkpt>
      <trkpt lat="45.81176" lon="4.72757">
        <ele>319.0462</ele>
        <time>2023-07-19T16:25:01.000Z</time>
      </trkpt>
      <trkpt lat="45.81179" lon="4.72759">
        <ele>319.06238</ele>
        <time>2023-07-19T16:25:02.000Z</time>
      </trkpt>
      <trkpt lat="45.8118" lon="4.72763">
        <ele>319.1264</ele>
        <time>2023-07-19T16:25:03.000Z</time>
      </trkpt>
      <trkpt lat="45.81181" lon="4.72766">
        <ele>319.29413</ele>
        <time>2023-07-19T16:25:04.000Z</time>
      </trkpt>
      <trkpt lat="45.81182" lon="4.72768">
        <ele>319.50635</ele>
        <time>2023-07-19T16:25:05.000Z</time>
      </trkpt>
      <trkpt lat="45.81184" lon="4.72771">
        <ele>319.47754</ele>
        <time>2023-07-19T16:25:06.000Z</time>
      </trkpt>
      <trkpt lat="45.81186" lon="4.72773">
        <ele>319.42258</ele>
        <time>2023-07-19T16:25:07.000Z</time>
      </trkpt>
      <trkpt lat="45.81189" lon="4.72775">
        <ele>319.35699</ele>
        <time>2023-07-19T16:25:08.000Z</time>
      </trkpt>
      <trkpt lat="45.81192" lon="4.72778">
        <ele>319.27316</ele>
        <time>2023-07-19T16:25:09.000Z</time>
      </trkpt>
      <trkpt lat="45.81197" lon="4.72781">
        <ele>319.16257</ele>
        <time>2023-07-19T16:25:10.000Z</time>
      </trkpt>
      <trkpt lat="45.81201" lon="4.72785">
        <ele>318.94293</ele>
        <time>2023-07-19T16:25:11.000Z</time>
      </trkpt>
      <trkpt lat="45.81205" lon="4.72789">
        <ele>318.75287</ele>
        <time>2023-07-19T16:25:12.000Z</time>
      </trkpt>
      <trkpt lat="45.81208" lon="4.72794">
        <ele>318.52625</ele>
        <time>2023-07-19T16:25:13.000Z</time>
      </trkpt>
      <trkpt lat="45.8121" lon="4.72799">
        <ele>318.34024</ele>
        <time>2023-07-19T16:25:14.000Z</time>
      </trkpt>
      <trkpt lat="45.81212" lon="4.72805">
        <ele>318.0914</ele>
        <time>2023-07-19T16:25:15.000Z</time>
      </trkpt>
      <trkpt lat="45.81212" lon="4.72811">
        <ele>317.76917</ele>
        <time>2023-07-19T16:25:16.000Z</time>
      </trkpt>
      <trkpt lat="45.81212" lon="4.72816">
        <ele>317.4751</ele>
        <time>2023-07-19T16:25:17.000Z</time>
      </trkpt>
      <trkpt lat="45.8121" lon="4.72821">
        <ele>317.19742</ele>
        <time>2023-07-19T16:25:18.000Z</time>
      </trkpt>
      <trkpt lat="45.81208" lon="4.72826">
        <ele>316.92697</ele>
        <time>2023-07-19T16:25:19.000Z</time>
      </trkpt>
      <trkpt lat="45.81206" lon="4.72831">
        <ele>316.61169</ele>
        <time>2023-07-19T16:25:20.000Z</time>
      </trkpt>
      <trkpt lat="45.81203" lon="4.72836">
        <ele>316.29498</ele>
        <time>2023-07-19T16:25:21.000Z</time>
      </trkpt>
      <trkpt lat="45.81199" lon="4.72842">
        <ele>316.07867</ele>
        <time>2023-07-19T16:25:22.000Z</time>
      </trkpt>
      <trkpt lat="45.81196" lon="4.72847">
        <ele>315.87491</ele>
        <time>2023-07-19T16:25:23.000Z</time>
      </trkpt>
      <trkpt lat="45.81194" lon="4.72852">
        <ele>315.60434</ele>
        <time>2023-07-19T16:25:24.000Z</time>
      </trkpt>
      <trkpt lat="45.81192" lon="4.72857">
        <ele>315.22156</ele>
        <time>2023-07-19T16:25:25.000Z</time>
      </trkpt>
      <trkpt lat="45.81189" lon="4.72862">
        <ele>315.11667</ele>
        <time>2023-07-19T16:25:26.000Z</time>
      </trkpt>
      <trkpt lat="45.81186" lon="4.72868">
        <ele>314.92706</ele>
        <time>2023-07-19T16:25:27.000Z</time>
      </trkpt>
      <trkpt lat="45.81182" lon="4.72873">
        <ele>314.72922</ele>
        <time>2023-07-19T16:25:28.000Z</time>
      </trkpt>
      <trkpt lat="45.81179" lon="4.72879">
        <ele>314.49115</ele>
        <time>2023-07-19T16:25:29.000Z</time>
      </trkpt>
      <trkpt lat="45.81175" lon="4.72883">
        <ele>314.33224</ele>
        <time>2023-07-19T16:25:30.000Z</time>
      </trkpt>
      <trkpt lat="45.81172" lon="4.72888">
        <ele>314.19312</ele>
        <time>2023-07-19T16:25:31.000Z</time>
      </trkpt>
      <trkpt lat="45.81169" lon="4.72894">
        <ele>314.07346</ele>
        <time>2023-07-19T16:25:32.000Z</time>
      </trkpt>
      <trkpt lat="45.81166" lon="4.72899">
        <ele>314.04102</ele>
        <time>2023-07-19T16:25:33.000Z</time>
      </trkpt>
      <trkpt lat="45.81162" lon="4.72905">
        <ele>314.03143</ele>
        <time>2023-07-19T16:25:34.000Z</time>
      </trkpt>
      <trkpt lat="45.81158" lon="4.7291">
        <ele>314.05487</ele>
        <time>2023-07-19T16:25:35.000Z</time>
      </trkpt>
      <trkpt lat="45.81155" lon="4.72916">
        <ele>314.14594</ele>
        <time>2023-07-19T16:25:36.000Z</time>
      </trkpt>
      <trkpt lat="45.81152" lon="4.72922">
        <ele>314.23901</ele>
        <time>2023-07-19T16:25:37.000Z</time>
      </trkpt>
      <trkpt lat="45.81148" lon="4.72927">
        <ele>314.29083</ele>
        <time>2023-07-19T16:25:38.000Z</time>
      </trkpt>
      <trkpt lat="45.81145" lon="4.72932">
        <ele>314.37521</ele>
        <time>2023-07-19T16:25:39.000Z</time>
      </trkpt>
      <trkpt lat="45.81142" lon="4.72938">
        <ele>314.46667</ele>
        <time>2023-07-19T16:25:40.000Z</time>
      </trkpt>
      <trkpt lat="45.81139" lon="4.72943">
        <ele>314.58865</ele>
        <time>2023-07-19T16:25:41.000Z</time>
      </trkpt>
      <trkpt lat="45.81135" lon="4.72948">
        <ele>314.68484</ele>
        <time>2023-07-19T16:25:42.000Z</time>
      </trkpt>
      <trkpt lat="45.81131" lon="4.72953">
        <ele>314.72369</ele>
        <time>2023-07-19T16:25:43.000Z</time>
      </trkpt>
      <trkpt lat="45.81127" lon="4.72959">
        <ele>314.78043</ele>
        <time>2023-07-19T16:25:44.000Z</time>
      </trkpt>
      <trkpt lat="45.81123" lon="4.72965">
        <ele>315.02032</ele>
        <time>2023-07-19T16:25:45.000Z</time>
      </trkpt>
      <trkpt lat="45.8112" lon="4.7297">
        <ele>315.22821</ele>
        <time>2023-07-19T16:25:46.000Z</time>
      </trkpt>
      <trkpt lat="45.81117" lon="4.72975">
        <ele>315.18597</ele>
        <time>2023-07-19T16:25:47.000Z</time>
      </trkpt>
      <trkpt lat="45.81113" lon="4.72981">
        <ele>315.16577</ele>
        <time>2023-07-19T16:25:48.000Z</time>
      </trkpt>
      <trkpt lat="45.81109" lon="4.72987">
        <ele>315.20551</ele>
        <time>2023-07-19T16:25:49.000Z</time>
      </trkpt>
      <trkpt lat="45.81106" lon="4.72994">
        <ele>315.21613</ele>
        <time>2023-07-19T16:25:50.000Z</time>
      </trkpt>
      <trkpt lat="45.81102" lon="4.72999">
        <ele>315.37433</ele>
        <time>2023-07-19T16:25:51.000Z</time>
      </trkpt>
      <trkpt lat="45.81098" lon="4.73005">
        <ele>315.5358</ele>
        <time>2023-07-19T16:25:52.000Z</time>
      </trkpt>
      <trkpt lat="45.81094" lon="4.7301">
        <ele>315.69296</ele>
        <time>2023-07-19T16:25:53.000Z</time>
      </trkpt>
      <trkpt lat="45.8109" lon="4.73016">
        <ele>315.86044</ele>
        <time>2023-07-19T16:25:54.000Z</time>
      </trkpt>
      <trkpt lat="45.81086" lon="4.73021">
        <ele>316.08307</ele>
        <time>2023-07-19T16:25:55.000Z</time>
      </trkpt>
      <trkpt lat="45.81081" lon="4.73027">
        <ele>316.30865</ele>
        <time>2023-07-19T16:25:56.000Z</time>
      </trkpt>
      <trkpt lat="45.81078" lon="4.73033">
        <ele>316.28891</ele>
        <time>2023-07-19T16:25:57.000Z</time>
      </trkpt>
      <trkpt lat="45.81074" lon="4.73039">
        <ele>316.27484</ele>
        <time>2023-07-19T16:25:58.000Z</time>
      </trkpt>
      <trkpt lat="45.8107" lon="4.73045">
        <ele>316.23785</ele>
        <time>2023-07-19T16:25:59.000Z</time>
      </trkpt>
      <trkpt lat="45.81067" lon="4.73052">
        <ele>316.21436</ele>
        <time>2023-07-19T16:26:00.000Z</time>
      </trkpt>
      <trkpt lat="45.81062" lon="4.73058">
        <ele>316.33221</ele>
        <time>2023-07-19T16:26:01.000Z</time>
      </trkpt>
      <trkpt lat="45.81058" lon="4.73064">
        <ele>316.39548</ele>
        <time>2023-07-19T16:26:02.000Z</time>
      </trkpt>
      <trkpt lat="45.81053" lon="4.7307">
        <ele>316.41525</ele>
        <time>2023-07-19T16:26:03.000Z</time>
      </trkpt>
      <trkpt lat="45.81049" lon="4.73077">
        <ele>316.43942</ele>
        <time>2023-07-19T16:26:04.000Z</time>
      </trkpt>
      <trkpt lat="45.81045" lon="4.73083">
        <ele>316.43994</ele>
        <time>2023-07-19T16:26:05.000Z</time>
      </trkpt>
      <trkpt lat="45.81042" lon="4.73089">
        <ele>316.42798</ele>
        <time>2023-07-19T16:26:06.000Z</time>
      </trkpt>
      <trkpt lat="45.81038" lon="4.73095">
        <ele>316.74738</ele>
        <time>2023-07-19T16:26:07.000Z</time>
      </trkpt>
      <trkpt lat="45.81034" lon="4.73102">
        <ele>317.09821</ele>
        <time>2023-07-19T16:26:08.000Z</time>
      </trkpt>
      <trkpt lat="45.8103" lon="4.73109">
        <ele>317.44827</ele>
        <time>2023-07-19T16:26:09.000Z</time>
      </trkpt>
      <trkpt lat="45.81025" lon="4.73115">
        <ele>317.79187</ele>
        <time>2023-07-19T16:26:10.000Z</time>
      </trkpt>
      <trkpt lat="45.81021" lon="4.73121">
        <ele>317.96436</ele>
        <time>2023-07-19T16:26:11.000Z</time>
      </trkpt>
      <trkpt lat="45.81016" lon="4.73128">
        <ele>318.15274</ele>
        <time>2023-07-19T16:26:12.000Z</time>
      </trkpt>
      <trkpt lat="45.81013" lon="4.73134">
        <ele>318.24777</ele>
        <time>2023-07-19T16:26:13.000Z</time>
      </trkpt>
      <trkpt lat="45.81009" lon="4.73141">
        <ele>318.36481</ele>
        <time>2023-07-19T16:26:14.000Z</time>
      </trkpt>
      <trkpt lat="45.81004" lon="4.73147">
        <ele>318.44815</ele>
        <time>2023-07-19T16:26:15.000Z</time>
      </trkpt>
      <trkpt lat="45.81" lon="4.73153">
        <ele>318.5434</ele>
        <time>2023-07-19T16:26:16.000Z</time>
      </trkpt>
      <trkpt lat="45.80996" lon="4.7316">
        <ele>318.86694</ele>
        <time>2023-07-19T16:26:17.000Z</time>
      </trkpt>
      <trkpt lat="45.80992" lon="4.73166">
        <ele>319.2002</ele>
        <time>2023-07-19T16:26:18.000Z</time>
      </trkpt>
      <trkpt lat="45.80988" lon="4.73172">
        <ele>319.5412</ele>
        <time>2023-07-19T16:26:19.000Z</time>
      </trkpt>
      <trkpt lat="45.80984" lon="4.73179">
        <ele>319.89362</ele>
        <time>2023-07-19T16:26:20.000Z</time>
      </trkpt>
      <trkpt lat="45.8098" lon="4.73185">
        <ele>320.11212</ele>
        <time>2023-07-19T16:26:21.000Z</time>
      </trkpt>
      <trkpt lat="45.80976" lon="4.73191">
        <ele>320.33929</ele>
        <time>2023-07-19T16:26:22.000Z</time>
      </trkpt>
      <trkpt lat="45.80972" lon="4.73197">
        <ele>320.61121</ele>
        <time>2023-07-19T16:26:23.000Z</time>
      </trkpt>
      <trkpt lat="45.80968" lon="4.73203">
        <ele>320.87787</ele>
        <time>2023-07-19T16:26:24.000Z</time>
      </trkpt>
      <trkpt lat="45.80964" lon="4.73209">
        <ele>321.13147</ele>
        <time>2023-07-19T16:26:25.000Z</time>
      </trkpt>
      <trkpt lat="45.8096" lon="4.73215">
        <ele>321.38947</ele>
        <time>2023-07-19T16:26:26.000Z</time>
      </trkpt>
      <trkpt lat="45.80957" lon="4.7322">
        <ele>321.62363</ele>
        <time>2023-07-19T16:26:27.000Z</time>
      </trkpt>
      <trkpt lat="45.80954" lon="4.73225">
        <ele>321.82391</ele>
        <time>2023-07-19T16:26:28.000Z</time>
      </trkpt>
      <trkpt lat="45.80951" lon="4.73231">
        <ele>321.98108</ele>
        <time>2023-07-19T16:26:29.000Z</time>
      </trkpt>
      <trkpt lat="45.80948" lon="4.73236">
        <ele>322.19498</ele>
        <time>2023-07-19T16:26:30.000Z</time>
      </trkpt>
      <trkpt lat="45.80945" lon="4.7324">
        <ele>322.42975</ele>
        <time>2023-07-19T16:26:31.000Z</time>
      </trkpt>
      <trkpt lat="45.80943" lon="4.73243">
        <ele>322.65332</ele>
        <time>2023-07-19T16:26:32.000Z</time>
      </trkpt>
      <trkpt lat="45.80941" lon="4.73246">
        <ele>322.9516</ele>
        <time>2023-07-19T16:26:33.000Z</time>
      </trkpt>
      <trkpt lat="45.80938" lon="4.73249">
        <ele>323.21198</ele>
        <time>2023-07-19T16:26:34.000Z</time>
      </trkpt>
      <trkpt lat="45.80936" lon="4.73253">
        <ele>323.47336</ele>
        <time>2023-07-19T16:26:35.000Z</time>
      </trkpt>
      <trkpt lat="45.80934" lon="4.73256">
        <ele>323.75882</ele>
        <time>2023-07-19T16:26:36.000Z</time>
      </trkpt>
      <trkpt lat="45.80932" lon="4.7326">
        <ele>324.04776</ele>
        <time>2023-07-19T16:26:37.000Z</time>
      </trkpt>
      <trkpt lat="45.8093" lon="4.73264">
        <ele>324.34082</ele>
        <time>2023-07-19T16:26:38.000Z</time>
      </trkpt>
      <trkpt lat="45.80928" lon="4.73267">
        <ele>324.61554</ele>
        <time>2023-07-19T16:26:39.000Z</time>
      </trkpt>
      <trkpt lat="45.80925" lon="4.7327">
        <ele>324.84387</ele>
        <time>2023-07-19T16:26:40.000Z</time>
      </trkpt>
      <trkpt lat="45.80923" lon="4.73274">
        <ele>325.03143</ele>
        <time>2023-07-19T16:26:41.000Z</time>
      </trkpt>
      <trkpt lat="45.80921" lon="4.73277">
        <ele>325.18652</ele>
        <time>2023-07-19T16:26:42.000Z</time>
      </trkpt>
      <trkpt lat="45.80919" lon="4.7328">
        <ele>325.30695</ele>
        <time>2023-07-19T16:26:43.000Z</time>
      </trkpt>
      <trkpt lat="45.80917" lon="4.73282">
        <ele>325.42245</ele>
        <time>2023-07-19T16:26:44.000Z</time>
      </trkpt>
      <trkpt lat="45.80915" lon="4.73285">
        <ele>325.51288</ele>
        <time>2023-07-19T16:26:45.000Z</time>
      </trkpt>
      <trkpt lat="45.80915" lon="4.73289">
        <ele>325.64871</ele>
        <time>2023-07-19T16:26:46.000Z</time>
      </trkpt>
      <trkpt lat="45.80917" lon="4.73292">
        <ele>325.76251</ele>
        <time>2023-07-19T16:26:47.000Z</time>
      </trkpt>
      <trkpt lat="45.80918" lon="4.73296">
        <ele>325.75739</ele>
        <time>2023-07-19T16:26:48.000Z</time>
      </trkpt>
      <trkpt lat="45.80919" lon="4.733">
        <ele>325.78226</ele>
        <time>2023-07-19T16:26:49.000Z</time>
      </trkpt>
      <trkpt lat="45.80918" lon="4.73303">
        <ele>325.74469</ele>
        <time>2023-07-19T16:26:50.000Z</time>
      </trkpt>
      <trkpt lat="45.80917" lon="4.73307">
        <ele>325.70712</ele>
        <time>2023-07-19T16:26:52.000Z</time>
      </trkpt>
      <trkpt lat="45.80918" lon="4.73312">
        <ele>325.67242</ele>
        <time>2023-07-19T16:26:54.000Z</time>
      </trkpt>
      <trkpt lat="45.80918" lon="4.73315">
        <ele>325.59781</ele>
        <time>2023-07-19T16:26:55.000Z</time>
      </trkpt>
      <trkpt lat="45.8092" lon="4.73318">
        <ele>325.54202</ele>
        <time>2023-07-19T16:26:56.000Z</time>
      </trkpt>
      <trkpt lat="45.80921" lon="4.73322">
        <ele>325.49597</ele>
        <time>2023-07-19T16:26:57.000Z</time>
      </trkpt>
      <trkpt lat="45.80924" lon="4.73325">
        <ele>325.42166</ele>
        <time>2023-07-19T16:26:58.000Z</time>
      </trkpt>
      <trkpt lat="45.80927" lon="4.73326">
        <ele>325.32529</ele>
        <time>2023-07-19T16:26:59.000Z</time>
      </trkpt>
      <trkpt lat="45.80931" lon="4.73328">
        <ele>325.23505</ele>
        <time>2023-07-19T16:27:00.000Z</time>
      </trkpt>
      <trkpt lat="45.80934" lon="4.73329">
        <ele>325.1644</ele>
        <time>2023-07-19T16:27:01.000Z</time>
      </trkpt>
      <trkpt lat="45.80938" lon="4.73332">
        <ele>325.11731</ele>
        <time>2023-07-19T16:27:02.000Z</time>
      </trkpt>
      <trkpt lat="45.80941" lon="4.73335">
        <ele>325.0733</ele>
        <time>2023-07-19T16:27:03.000Z</time>
      </trkpt>
      <trkpt lat="45.80944" lon="4.73339">
        <ele>325.05054</ele>
        <time>2023-07-19T16:27:04.000Z</time>
      </trkpt>
      <trkpt lat="45.80947" lon="4.73344">
        <ele>325.06152</ele>
        <time>2023-07-19T16:27:05.000Z</time>
      </trkpt>
      <trkpt lat="45.8095" lon="4.73349">
        <ele>325.10181</ele>
        <time>2023-07-19T16:27:06.000Z</time>
      </trkpt>
      <trkpt lat="45.80952" lon="4.73354">
        <ele>325.16815</ele>
        <time>2023-07-19T16:27:07.000Z</time>
      </trkpt>
      <trkpt lat="45.80953" lon="4.7336">
        <ele>325.17435</ele>
        <time>2023-07-19T16:27:08.000Z</time>
      </trkpt>
      <trkpt lat="45.80955" lon="4.73365">
        <ele>325.28751</ele>
        <time>2023-07-19T16:27:09.000Z</time>
      </trkpt>
      <trkpt lat="45.80956" lon="4.7337">
        <ele>325.5426</ele>
        <time>2023-07-19T16:27:10.000Z</time>
      </trkpt>
      <trkpt lat="45.80957" lon="4.73374">
        <ele>325.78305</ele>
        <time>2023-07-19T16:27:11.000Z</time>
      </trkpt>
      <trkpt lat="45.80958" lon="4.7338">
        <ele>326.0376</ele>
        <time>2023-07-19T16:27:12.000Z</time>
      </trkpt>
      <trkpt lat="45.80959" lon="4.73384">
        <ele>326.28586</ele>
        <time>2023-07-19T16:27:13.000Z</time>
      </trkpt>
      <trkpt lat="45.8096" lon="4.73389">
        <ele>326.50165</ele>
        <time>2023-07-19T16:27:14.000Z</time>
      </trkpt>
      <trkpt lat="45.8096" lon="4.73395">
        <ele>326.76523</ele>
        <time>2023-07-19T16:27:15.000Z</time>
      </trkpt>
      <trkpt lat="45.80961" lon="4.734">
        <ele>327.03275</ele>
        <time>2023-07-19T16:27:16.000Z</time>
      </trkpt>
      <trkpt lat="45.80961" lon="4.73406">
        <ele>327.30038</ele>
        <time>2023-07-19T16:27:17.000Z</time>
      </trkpt>
      <trkpt lat="45.80962" lon="4.73411">
        <ele>327.56497</ele>
        <time>2023-07-19T16:27:18.000Z</time>
      </trkpt>
      <trkpt lat="45.80963" lon="4.73417">
        <ele>327.82953</ele>
        <time>2023-07-19T16:27:19.000Z</time>
      </trkpt>
      <trkpt lat="45.80963" lon="4.73422">
        <ele>328.05939</ele>
        <time>2023-07-19T16:27:20.000Z</time>
      </trkpt>
      <trkpt lat="45.80964" lon="4.73428">
        <ele>328.2872</ele>
        <time>2023-07-19T16:27:21.000Z</time>
      </trkpt>
      <trkpt lat="45.80964" lon="4.73434">
        <ele>328.50922</ele>
        <time>2023-07-19T16:27:22.000Z</time>
      </trkpt>
      <trkpt lat="45.80965" lon="4.73439">
        <ele>328.7348</ele>
        <time>2023-07-19T16:27:23.000Z</time>
      </trkpt>
      <trkpt lat="45.80966" lon="4.73445">
        <ele>328.9628</ele>
        <time>2023-07-19T16:27:24.000Z</time>
      </trkpt>
      <trkpt lat="45.80966" lon="4.73451">
        <ele>329.16638</ele>
        <time>2023-07-19T16:27:25.000Z</time>
      </trkpt>
      <trkpt lat="45.80967" lon="4.73457">
        <ele>329.34128</ele>
        <time>2023-07-19T16:27:26.000Z</time>
      </trkpt>
      <trkpt lat="45.80967" lon="4.73462">
        <ele>329.51303</ele>
        <time>2023-07-19T16:27:27.000Z</time>
      </trkpt>
      <trkpt lat="45.80968" lon="4.73468">
        <ele>329.69421</ele>
        <time>2023-07-19T16:27:28.000Z</time>
      </trkpt>
      <trkpt lat="45.80968" lon="4.73473">
        <ele>329.82288</ele>
        <time>2023-07-19T16:27:29.000Z</time>
      </trkpt>
      <trkpt lat="45.80968" lon="4.73479">
        <ele>329.92038</ele>
        <time>2023-07-19T16:27:30.000Z</time>
      </trkpt>
      <trkpt lat="45.80969" lon="4.73483">
        <ele>330.04962</ele>
        <time>2023-07-19T16:27:31.000Z</time>
      </trkpt>
      <trkpt lat="45.80969" lon="4.73489">
        <ele>330.17258</ele>
        <time>2023-07-19T16:27:32.000Z</time>
      </trkpt>
      <trkpt lat="45.8097" lon="4.73494">
        <ele>330.3147</ele>
        <time>2023-07-19T16:27:33.000Z</time>
      </trkpt>
      <trkpt lat="45.8097" lon="4.73499">
        <ele>330.46988</ele>
        <time>2023-07-19T16:27:34.000Z</time>
      </trkpt>
      <trkpt lat="45.8097" lon="4.73505">
        <ele>330.58673</ele>
        <time>2023-07-19T16:27:35.000Z</time>
      </trkpt>
      <trkpt lat="45.8097" lon="4.73511">
        <ele>330.67487</ele>
        <time>2023-07-19T16:27:36.000Z</time>
      </trkpt>
      <trkpt lat="45.80971" lon="4.73516">
        <ele>330.7207</ele>
        <time>2023-07-19T16:27:37.000Z</time>
      </trkpt>
      <trkpt lat="45.80971" lon="4.73522">
        <ele>330.7417</ele>
        <time>2023-07-19T16:27:38.000Z</time>
      </trkpt>
      <trkpt lat="45.80972" lon="4.73529">
        <ele>330.758</ele>
        <time>2023-07-19T16:27:39.000Z</time>
      </trkpt>
      <trkpt lat="45.80972" lon="4.73535">
        <ele>330.82501</ele>
        <time>2023-07-19T16:27:40.000Z</time>
      </trkpt>
      <trkpt lat="45.80973" lon="4.73543">
        <ele>330.84991</ele>
        <time>2023-07-19T16:27:41.000Z</time>
      </trkpt>
      <trkpt lat="45.80974" lon="4.7355">
        <ele>330.85226</ele>
        <time>2023-07-19T16:27:42.000Z</time>
      </trkpt>
      <trkpt lat="45.80975" lon="4.73557">
        <ele>330.85007</ele>
        <time>2023-07-19T16:27:43.000Z</time>
      </trkpt>
      <trkpt lat="45.80976" lon="4.73564">
        <ele>330.84137</ele>
        <time>2023-07-19T16:27:44.000Z</time>
      </trkpt>
      <trkpt lat="45.80976" lon="4.73571">
        <ele>330.86261</ele>
        <time>2023-07-19T16:27:45.000Z</time>
      </trkpt>
      <trkpt lat="45.80977" lon="4.73578">
        <ele>330.86459</ele>
        <time>2023-07-19T16:27:46.000Z</time>
      </trkpt>
      <trkpt lat="45.80978" lon="4.73585">
        <ele>330.84186</ele>
        <time>2023-07-19T16:27:47.000Z</time>
      </trkpt>
      <trkpt lat="45.80979" lon="4.73593">
        <ele>330.82242</ele>
        <time>2023-07-19T16:27:48.000Z</time>
      </trkpt>
      <trkpt lat="45.80979" lon="4.736">
        <ele>330.74307</ele>
        <time>2023-07-19T16:27:49.000Z</time>
      </trkpt>
      <trkpt lat="45.80979" lon="4.73609">
        <ele>330.65875</ele>
        <time>2023-07-19T16:27:50.000Z</time>
      </trkpt>
      <trkpt lat="45.80979" lon="4.73617">
        <ele>330.52582</ele>
        <time>2023-07-19T16:27:51.000Z</time>
      </trkpt>
      <trkpt lat="45.80979" lon="4.73627">
        <ele>330.37601</ele>
        <time>2023-07-19T16:27:52.000Z</time>
      </trkpt>
      <trkpt lat="45.8098" lon="4.73637">
        <ele>330.20117</ele>
        <time>2023-07-19T16:27:53.000Z</time>
      </trkpt>
      <trkpt lat="45.80982" lon="4.73648">
        <ele>330.05865</ele>
        <time>2023-07-19T16:27:54.000Z</time>
      </trkpt>
      <trkpt lat="45.80984" lon="4.73659">
        <ele>329.90222</ele>
        <time>2023-07-19T16:27:55.000Z</time>
      </trkpt>
      <trkpt lat="45.80985" lon="4.73671">
        <ele>329.73334</ele>
        <time>2023-07-19T16:27:56.000Z</time>
      </trkpt>
      <trkpt lat="45.80987" lon="4.73684">
        <ele>329.52679</ele>
        <time>2023-07-19T16:27:57.000Z</time>
      </trkpt>
      <trkpt lat="45.80988" lon="4.73696">
        <ele>329.3158</ele>
        <time>2023-07-19T16:27:58.000Z</time>
      </trkpt>
      <trkpt lat="45.80989" lon="4.73708">
        <ele>329.11115</ele>
        <time>2023-07-19T16:27:59.000Z</time>
      </trkpt>
      <trkpt lat="45.80989" lon="4.73716">
        <ele>328.84094</ele>
        <time>2023-07-19T16:28:00.000Z</time>
      </trkpt>
      <trkpt lat="45.80991" lon="4.73724">
        <ele>328.54669</ele>
        <time>2023-07-19T16:28:01.000Z</time>
      </trkpt>
      <trkpt lat="45.80994" lon="4.73728">
        <ele>328.27142</ele>
        <time>2023-07-19T16:28:02.000Z</time>
      </trkpt>
      <trkpt lat="45.80998" lon="4.73729">
        <ele>327.96973</ele>
        <time>2023-07-19T16:28:03.000Z</time>
      </trkpt>
      <trkpt lat="45.81002" lon="4.73727">
        <ele>327.69315</ele>
        <time>2023-07-19T16:28:04.000Z</time>
      </trkpt>
      <trkpt lat="45.81005" lon="4.73723">
        <ele>327.35742</ele>
        <time>2023-07-19T16:28:05.000Z</time>
      </trkpt>
      <trkpt lat="45.81007" lon="4.73719">
        <ele>327.04257</ele>
        <time>2023-07-19T16:28:06.000Z</time>
      </trkpt>
      <trkpt lat="45.8101" lon="4.73714">
        <ele>326.72662</ele>
        <time>2023-07-19T16:28:07.000Z</time>
      </trkpt>
      <trkpt lat="45.81013" lon="4.7371">
        <ele>326.39734</ele>
        <time>2023-07-19T16:28:08.000Z</time>
      </trkpt>
      <trkpt lat="45.81017" lon="4.73705">
        <ele>326.09979</ele>
        <time>2023-07-19T16:28:09.000Z</time>
      </trkpt>
      <trkpt lat="45.81019" lon="4.737">
        <ele>325.79153</ele>
        <time>2023-07-19T16:28:10.000Z</time>
      </trkpt>
      <trkpt lat="45.81022" lon="4.73696">
        <ele>325.4743</ele>
        <time>2023-07-19T16:28:11.000Z</time>
      </trkpt>
      <trkpt lat="45.81025" lon="4.7369">
        <ele>325.1792</ele>
        <time>2023-07-19T16:28:12.000Z</time>
      </trkpt>
      <trkpt lat="45.81028" lon="4.73685">
        <ele>324.89285</ele>
        <time>2023-07-19T16:28:13.000Z</time>
      </trkpt>
      <trkpt lat="45.81031" lon="4.7368">
        <ele>324.58377</ele>
        <time>2023-07-19T16:28:14.000Z</time>
      </trkpt>
      <trkpt lat="45.81035" lon="4.73674">
        <ele>324.29913</ele>
        <time>2023-07-19T16:28:15.000Z</time>
      </trkpt>
      <trkpt lat="45.81036" lon="4.73669">
        <ele>324.14154</ele>
        <time>2023-07-19T16:28:16.000Z</time>
      </trkpt>
      <trkpt lat="45.81039" lon="4.73666">
        <ele>324.11316</ele>
        <time>2023-07-19T16:28:17.000Z</time>
      </trkpt>
      <trkpt lat="45.81043" lon="4.73663">
        <ele>324.04449</ele>
        <time>2023-07-19T16:28:18.000Z</time>
      </trkpt>
      <trkpt lat="45.81047" lon="4.73664">
        <ele>323.96564</ele>
        <time>2023-07-19T16:28:19.000Z</time>
      </trkpt>
      <trkpt lat="45.8105" lon="4.73665">
        <ele>323.93121</ele>
        <time>2023-07-19T16:28:20.000Z</time>
      </trkpt>
      <trkpt lat="45.81054" lon="4.73667">
        <ele>323.8924</ele>
        <time>2023-07-19T16:28:21.000Z</time>
      </trkpt>
      <trkpt lat="45.81059" lon="4.7367">
        <ele>323.88312</ele>
        <time>2023-07-19T16:28:22.000Z</time>
      </trkpt>
      <trkpt lat="45.81063" lon="4.73671">
        <ele>323.96814</ele>
        <time>2023-07-19T16:28:23.000Z</time>
      </trkpt>
      <trkpt lat="45.81068" lon="4.73672">
        <ele>323.95526</ele>
        <time>2023-07-19T16:28:24.000Z</time>
      </trkpt>
      <trkpt lat="45.81073" lon="4.73674">
        <ele>324.03824</ele>
        <time>2023-07-19T16:28:25.000Z</time>
      </trkpt>
      <trkpt lat="45.81078" lon="4.73675">
        <ele>324.13284</ele>
        <time>2023-07-19T16:28:26.000Z</time>
      </trkpt>
      <trkpt lat="45.81082" lon="4.73677">
        <ele>324.24689</ele>
        <time>2023-07-19T16:28:27.000Z</time>
      </trkpt>
      <trkpt lat="45.81087" lon="4.73678">
        <ele>324.37833</ele>
        <time>2023-07-19T16:28:28.000Z</time>
      </trkpt>
      <trkpt lat="45.81091" lon="4.73679">
        <ele>324.50519</ele>
        <time>2023-07-19T16:28:29.000Z</time>
      </trkpt>
      <trkpt lat="45.81096" lon="4.73679">
        <ele>324.67804</ele>
        <time>2023-07-19T16:28:30.000Z</time>
      </trkpt>
      <trkpt lat="45.81101" lon="4.73679">
        <ele>324.89127</ele>
        <time>2023-07-19T16:28:31.000Z</time>
      </trkpt>
      <trkpt lat="45.81105" lon="4.73679">
        <ele>325.09137</ele>
        <time>2023-07-19T16:28:32.000Z</time>
      </trkpt>
      <trkpt lat="45.8111" lon="4.7368">
        <ele>325.29654</ele>
        <time>2023-07-19T16:28:33.000Z</time>
      </trkpt>
      <trkpt lat="45.81115" lon="4.73681">
        <ele>325.51474</ele>
        <time>2023-07-19T16:28:34.000Z</time>
      </trkpt>
      <trkpt lat="45.81119" lon="4.73681">
        <ele>325.7327</ele>
        <time>2023-07-19T16:28:35.000Z</time>
      </trkpt>
      <trkpt lat="45.81124" lon="4.73683">
        <ele>325.88443</ele>
        <time>2023-07-19T16:28:36.000Z</time>
      </trkpt>
      <trkpt lat="45.81128" lon="4.73685">
        <ele>325.97501</ele>
        <time>2023-07-19T16:28:37.000Z</time>
      </trkpt>
      <trkpt lat="45.81132" lon="4.73687">
        <ele>326.11554</ele>
        <time>2023-07-19T16:28:38.000Z</time>
      </trkpt>
      <trkpt lat="45.81137" lon="4.73688">
        <ele>326.272</ele>
        <time>2023-07-19T16:28:39.000Z</time>
      </trkpt>
      <trkpt lat="45.81141" lon="4.7369">
        <ele>326.4317</ele>
        <time>2023-07-19T16:28:40.000Z</time>
      </trkpt>
      <trkpt lat="45.81146" lon="4.73691">
        <ele>326.63956</ele>
        <time>2023-07-19T16:28:41.000Z</time>
      </trkpt>
      <trkpt lat="45.8115" lon="4.73693">
        <ele>326.83044</ele>
        <time>2023-07-19T16:28:42.000Z</time>
      </trkpt>
      <trkpt lat="45.81154" lon="4.73694">
        <ele>326.95111</ele>
        <time>2023-07-19T16:28:43.000Z</time>
      </trkpt>
      <trkpt lat="45.81158" lon="4.73695">
        <ele>327.18491</ele>
        <time>2023-07-19T16:28:44.000Z</time>
      </trkpt>
      <trkpt lat="45.81162" lon="4.73695">
        <ele>327.383</ele>
        <time>2023-07-19T16:28:45.000Z</time>
      </trkpt>
      <trkpt lat="45.81166" lon="4.73696">
        <ele>327.57852</ele>
        <time>2023-07-19T16:28:46.000Z</time>
      </trkpt>
      <trkpt lat="45.81169" lon="4.73697">
        <ele>327.78229</ele>
        <time>2023-07-19T16:28:47.000Z</time>
      </trkpt>
      <trkpt lat="45.81173" lon="4.73698">
        <ele>327.98309</ele>
        <time>2023-07-19T16:28:48.000Z</time>
      </trkpt>
      <trkpt lat="45.81177" lon="4.73698">
        <ele>328.1586</ele>
        <time>2023-07-19T16:28:49.000Z</time>
      </trkpt>
      <trkpt lat="45.81181" lon="4.73699">
        <ele>328.30609</ele>
        <time>2023-07-19T16:28:50.000Z</time>
      </trkpt>
      <trkpt lat="45.81184" lon="4.737">
        <ele>328.44342</ele>
        <time>2023-07-19T16:28:51.000Z</time>
      </trkpt>
      <trkpt lat="45.81188" lon="4.737">
        <ele>328.58612</ele>
        <time>2023-07-19T16:28:52.000Z</time>
      </trkpt>
      <trkpt lat="45.81192" lon="4.73701">
        <ele>328.71329</ele>
        <time>2023-07-19T16:28:53.000Z</time>
      </trkpt>
      <trkpt lat="45.81196" lon="4.73702">
        <ele>328.80698</ele>
        <time>2023-07-19T16:28:54.000Z</time>
      </trkpt>
      <trkpt lat="45.812" lon="4.73703">
        <ele>328.87851</ele>
        <time>2023-07-19T16:28:55.000Z</time>
      </trkpt>
      <trkpt lat="45.81204" lon="4.73704">
        <ele>328.92953</ele>
        <time>2023-07-19T16:28:56.000Z</time>
      </trkpt>
      <trkpt lat="45.81208" lon="4.73706">
        <ele>328.95825</ele>
        <time>2023-07-19T16:28:57.000Z</time>
      </trkpt>
      <trkpt lat="45.81212" lon="4.73707">
        <ele>328.99277</ele>
        <time>2023-07-19T16:28:58.000Z</time>
      </trkpt>
      <trkpt lat="45.81217" lon="4.73707">
        <ele>329.01035</ele>
        <time>2023-07-19T16:28:59.000Z</time>
      </trkpt>
      <trkpt lat="45.81221" lon="4.73707">
        <ele>329.02151</ele>
        <time>2023-07-19T16:29:00.000Z</time>
      </trkpt>
      <trkpt lat="45.81225" lon="4.73707">
        <ele>329.02972</ele>
        <time>2023-07-19T16:29:01.000Z</time>
      </trkpt>
      <trkpt lat="45.81229" lon="4.73709">
        <ele>329.03717</ele>
        <time>2023-07-19T16:29:02.000Z</time>
      </trkpt>
      <trkpt lat="45.81233" lon="4.73712">
        <ele>329.03897</ele>
        <time>2023-07-19T16:29:03.000Z</time>
      </trkpt>
      <trkpt lat="45.81237" lon="4.73715">
        <ele>328.98947</ele>
        <time>2023-07-19T16:29:04.000Z</time>
      </trkpt>
      <trkpt lat="45.81241" lon="4.7372">
        <ele>328.90585</ele>
        <time>2023-07-19T16:29:05.000Z</time>
      </trkpt>
      <trkpt lat="45.81244" lon="4.73724">
        <ele>328.80627</ele>
        <time>2023-07-19T16:29:06.000Z</time>
      </trkpt>
      <trkpt lat="45.81249" lon="4.73728">
        <ele>328.69989</ele>
        <time>2023-07-19T16:29:07.000Z</time>
      </trkpt>
      <trkpt lat="45.81253" lon="4.73732">
        <ele>328.59247</ele>
        <time>2023-07-19T16:29:08.000Z</time>
      </trkpt>
      <trkpt lat="45.81257" lon="4.73737">
        <ele>328.50092</ele>
        <time>2023-07-19T16:29:09.000Z</time>
      </trkpt>
      <trkpt lat="45.81261" lon="4.73741">
        <ele>328.42462</ele>
        <time>2023-07-19T16:29:10.000Z</time>
      </trkpt>
      <trkpt lat="45.81264" lon="4.73745">
        <ele>328.341</ele>
        <time>2023-07-19T16:29:11.000Z</time>
      </trkpt>
      <trkpt lat="45.81268" lon="4.73751">
        <ele>328.25092</ele>
        <time>2023-07-19T16:29:12.000Z</time>
      </trkpt>
      <trkpt lat="45.81271" lon="4.73755">
        <ele>328.13937</ele>
        <time>2023-07-19T16:29:13.000Z</time>
      </trkpt>
      <trkpt lat="45.81275" lon="4.7376">
        <ele>328.05109</ele>
        <time>2023-07-19T16:29:14.000Z</time>
      </trkpt>
      <trkpt lat="45.81279" lon="4.73765">
        <ele>328.01581</ele>
        <time>2023-07-19T16:29:15.000Z</time>
      </trkpt>
      <trkpt lat="45.81283" lon="4.73769">
        <ele>327.96344</ele>
        <time>2023-07-19T16:29:16.000Z</time>
      </trkpt>
      <trkpt lat="45.81286" lon="4.73773">
        <ele>327.91766</ele>
        <time>2023-07-19T16:29:17.000Z</time>
      </trkpt>
      <trkpt lat="45.81289" lon="4.73779">
        <ele>327.87018</ele>
        <time>2023-07-19T16:29:18.000Z</time>
      </trkpt>
      <trkpt lat="45.81293" lon="4.73783">
        <ele>327.77328</ele>
        <time>2023-07-19T16:29:19.000Z</time>
      </trkpt>
      <trkpt lat="45.81297" lon="4.73787">
        <ele>327.66049</ele>
        <time>2023-07-19T16:29:20.000Z</time>
      </trkpt>
      <trkpt lat="45.81301" lon="4.73793">
        <ele>327.54895</ele>
        <time>2023-07-19T16:29:21.000Z</time>
      </trkpt>
      <trkpt lat="45.81305" lon="4.73799">
        <ele>327.42691</ele>
        <time>2023-07-19T16:29:22.000Z</time>
      </trkpt>
      <trkpt lat="45.8131" lon="4.73804">
        <ele>327.34125</ele>
        <time>2023-07-19T16:29:23.000Z</time>
      </trkpt>
      <trkpt lat="45.81314" lon="4.73809">
        <ele>327.25757</ele>
        <time>2023-07-19T16:29:24.000Z</time>
      </trkpt>
      <trkpt lat="45.81318" lon="4.73813">
        <ele>327.1889</ele>
        <time>2023-07-19T16:29:25.000Z</time>
      </trkpt>
      <trkpt lat="45.81322" lon="4.73818">
        <ele>327.12488</ele>
        <time>2023-07-19T16:29:26.000Z</time>
      </trkpt>
      <trkpt lat="45.81322" lon="4.73822">
        <ele>327.02945</ele>
        <time>2023-07-19T16:29:27.000Z</time>
      </trkpt>
      <trkpt lat="45.81324" lon="4.73822">
        <ele>326.95755</ele>
        <time>2023-07-19T16:29:30.000Z</time>
      </trkpt>
      <trkpt lat="45.81326" lon="4.73824">
        <ele>326.87167</ele>
        <time>2023-07-19T16:29:46.000Z</time>
      </trkpt>
      <trkpt lat="45.81327" lon="4.73826">
        <ele>326.67023</ele>
        <time>2023-07-19T16:30:19.000Z</time>
      </trkpt>
      <trkpt lat="45.81329" lon="4.73827">
        <ele>326.47052</ele>
        <time>2023-07-19T16:30:20.000Z</time>
      </trkpt>
      <trkpt lat="45.81332" lon="4.73831">
        <ele>326.25562</ele>
        <time>2023-07-19T16:30:22.000Z</time>
      </trkpt>
      <trkpt lat="45.81333" lon="4.73833">
        <ele>326.05875</ele>
        <time>2023-07-19T16:30:23.000Z</time>
      </trkpt>
      <trkpt lat="45.81335" lon="4.73838">
        <ele>325.8454</ele>
        <time>2023-07-19T16:30:25.000Z</time>
      </trkpt>
      <trkpt lat="45.81341" lon="4.73842">
        <ele>325.57074</ele>
        <time>2023-07-19T16:30:26.000Z</time>
      </trkpt>
      <trkpt lat="45.81346" lon="4.73846">
        <ele>325.32999</ele>
        <time>2023-07-19T16:30:27.000Z</time>
      </trkpt>
      <trkpt lat="45.81348" lon="4.73851">
        <ele>325.08578</ele>
        <time>2023-07-19T16:30:28.000Z</time>
      </trkpt>
      <trkpt lat="45.81351" lon="4.73857">
        <ele>324.83017</ele>
        <time>2023-07-19T16:30:29.000Z</time>
      </trkpt>
      <trkpt lat="45.81354" lon="4.73862">
        <ele>324.6409</ele>
        <time>2023-07-19T16:30:30.000Z</time>
      </trkpt>
      <trkpt lat="45.81358" lon="4.73869">
        <ele>324.43488</ele>
        <time>2023-07-19T16:30:31.000Z</time>
      </trkpt>
      <trkpt lat="45.81363" lon="4.73877">
        <ele>324.22366</ele>
        <time>2023-07-19T16:30:32.000Z</time>
      </trkpt>
      <trkpt lat="45.81367" lon="4.73885">
        <ele>324.0354</ele>
        <time>2023-07-19T16:30:33.000Z</time>
      </trkpt>
      <trkpt lat="45.81372" lon="4.73892">
        <ele>323.86533</ele>
        <time>2023-07-19T16:30:34.000Z</time>
      </trkpt>
      <trkpt lat="45.81376" lon="4.73901">
        <ele>323.75473</ele>
        <time>2023-07-19T16:30:35.000Z</time>
      </trkpt>
      <trkpt lat="45.81381" lon="4.73909">
        <ele>323.66971</ele>
        <time>2023-07-19T16:30:36.000Z</time>
      </trkpt>
      <trkpt lat="45.81386" lon="4.73917">
        <ele>323.38156</ele>
        <time>2023-07-19T16:30:37.000Z</time>
      </trkpt>
      <trkpt lat="45.81391" lon="4.73924">
        <ele>323.16678</ele>
        <time>2023-07-19T16:30:38.000Z</time>
      </trkpt>
      <trkpt lat="45.81396" lon="4.73931">
        <ele>322.91925</ele>
        <time>2023-07-19T16:30:39.000Z</time>
      </trkpt>
      <trkpt lat="45.814" lon="4.73939">
        <ele>322.73764</ele>
        <time>2023-07-19T16:30:40.000Z</time>
      </trkpt>
      <trkpt lat="45.81404" lon="4.73944">
        <ele>322.69669</ele>
        <time>2023-07-19T16:30:41.000Z</time>
      </trkpt>
      <trkpt lat="45.8141" lon="4.73952">
        <ele>322.60422</ele>
        <time>2023-07-19T16:30:42.000Z</time>
      </trkpt>
      <trkpt lat="45.81413" lon="4.7396">
        <ele>322.48334</ele>
        <time>2023-07-19T16:30:43.000Z</time>
      </trkpt>
      <trkpt lat="45.81418" lon="4.73972">
        <ele>322.33646</ele>
        <time>2023-07-19T16:30:44.000Z</time>
      </trkpt>
      <trkpt lat="45.81423" lon="4.73982">
        <ele>322.17218</ele>
        <time>2023-07-19T16:30:45.000Z</time>
      </trkpt>
      <trkpt lat="45.81429" lon="4.73992">
        <ele>322.02457</ele>
        <time>2023-07-19T16:30:46.000Z</time>
      </trkpt>
      <trkpt lat="45.81432" lon="4.74">
        <ele>321.76505</ele>
        <time>2023-07-19T16:30:47.000Z</time>
      </trkpt>
      <trkpt lat="45.81436" lon="4.74007">
        <ele>321.67184</ele>
        <time>2023-07-19T16:30:48.000Z</time>
      </trkpt>
      <trkpt lat="45.81439" lon="4.74012">
        <ele>321.31906</ele>
        <time>2023-07-19T16:30:49.000Z</time>
      </trkpt>
      <trkpt lat="45.81439" lon="4.74015">
        <ele>320.58298</ele>
        <time>2023-07-19T16:30:51.000Z</time>
      </trkpt>
      <trkpt lat="45.81441" lon="4.74017">
        <ele>319.90469</ele>
        <time>2023-07-19T16:30:55.000Z</time>
      </trkpt>
      <trkpt lat="45.81443" lon="4.74018">
        <ele>319.11844</ele>
        <time>2023-07-19T16:31:39.000Z</time>
      </trkpt>
      <trkpt lat="45.81446" lon="4.74017">
        <ele>318.3396</ele>
        <time>2023-07-19T16:31:40.000Z</time>
      </trkpt>
      <trkpt lat="45.81447" lon="4.74014">
        <ele>317.58575</ele>
        <time>2023-07-19T16:31:43.000Z</time>
      </trkpt>
      <trkpt lat="45.81449" lon="4.74011">
        <ele>316.83453</ele>
        <time>2023-07-19T16:31:45.000Z</time>
      </trkpt>
      <trkpt lat="45.81451" lon="4.74009">
        <ele>316.03485</ele>
        <time>2023-07-19T16:31:46.000Z</time>
      </trkpt>
      <trkpt lat="45.81452" lon="4.74008">
        <ele>315.52274</ele>
        <time>2023-07-19T16:31:47.000Z</time>
      </trkpt>
      <trkpt lat="45.81455" lon="4.74006">
        <ele>314.96454</ele>
        <time>2023-07-19T16:31:49.000Z</time>
      </trkpt>
      <trkpt lat="45.81458" lon="4.74002">
        <ele>314.51321</ele>
        <time>2023-07-19T16:31:51.000Z</time>
      </trkpt>
      <trkpt lat="45.8146" lon="4.73999">
        <ele>314.04666</ele>
        <time>2023-07-19T16:31:52.000Z</time>
      </trkpt>
      <trkpt lat="45.81462" lon="4.73996">
        <ele>313.54291</ele>
        <time>2023-07-19T16:31:53.000Z</time>
      </trkpt>
      <trkpt lat="45.81465" lon="4.73992">
        <ele>312.96082</ele>
        <time>2023-07-19T16:31:54.000Z</time>
      </trkpt>
      <trkpt lat="45.81468" lon="4.73988">
        <ele>312.43768</ele>
        <time>2023-07-19T16:31:55.000Z</time>
      </trkpt>
      <trkpt lat="45.8147" lon="4.73985">
        <ele>311.93289</ele>
        <time>2023-07-19T16:31:56.000Z</time>
      </trkpt>
      <trkpt lat="45.81473" lon="4.73981">
        <ele>311.41129</ele>
        <time>2023-07-19T16:31:57.000Z</time>
      </trkpt>
      <trkpt lat="45.81474" lon="4.73977">
        <ele>310.89447</ele>
        <time>2023-07-19T16:31:58.000Z</time>
      </trkpt>
      <trkpt lat="45.81475" lon="4.73972">
        <ele>311.06134</ele>
        <time>2023-07-19T16:31:59.000Z</time>
      </trkpt>
      <trkpt lat="45.81476" lon="4.73967">
        <ele>310.79404</ele>
        <time>2023-07-19T16:32:00.000Z</time>
      </trkpt>
      <trkpt lat="45.81477" lon="4.73962">
        <ele>310.87524</ele>
        <time>2023-07-19T16:32:01.000Z</time>
      </trkpt>
      <trkpt lat="45.81478" lon="4.73957">
        <ele>311.32404</ele>
        <time>2023-07-19T16:32:02.000Z</time>
      </trkpt>
      <trkpt lat="45.8148" lon="4.73952">
        <ele>311.81952</ele>
        <time>2023-07-19T16:32:03.000Z</time>
      </trkpt>
      <trkpt lat="45.81482" lon="4.73946">
        <ele>312.45483</ele>
        <time>2023-07-19T16:32:04.000Z</time>
      </trkpt>
      <trkpt lat="45.81484" lon="4.73941">
        <ele>312.99933</ele>
        <time>2023-07-19T16:32:05.000Z</time>
      </trkpt>
      <trkpt lat="45.81485" lon="4.73936">
        <ele>313.45987</ele>
        <time>2023-07-19T16:32:06.000Z</time>
      </trkpt>
      <trkpt lat="45.81486" lon="4.7393">
        <ele>313.84256</ele>
        <time>2023-07-19T16:32:07.000Z</time>
      </trkpt>
      <trkpt lat="45.81487" lon="4.73925">
        <ele>314.20923</ele>
        <time>2023-07-19T16:32:08.000Z</time>
      </trkpt>
      <trkpt lat="45.81488" lon="4.73919">
        <ele>314.51437</ele>
        <time>2023-07-19T16:32:09.000Z</time>
      </trkpt>
      <trkpt lat="45.81488" lon="4.73913">
        <ele>314.81006</ele>
        <time>2023-07-19T16:32:10.000Z</time>
      </trkpt>
      <trkpt lat="45.81489" lon="4.73907">
        <ele>314.97775</ele>
        <time>2023-07-19T16:32:11.000Z</time>
      </trkpt>
      <trkpt lat="45.81489" lon="4.73901">
        <ele>315.12402</ele>
        <time>2023-07-19T16:32:12.000Z</time>
      </trkpt>
      <trkpt lat="45.8149" lon="4.73896">
        <ele>315.29053</ele>
        <time>2023-07-19T16:32:13.000Z</time>
      </trkpt>
      <trkpt lat="45.8149" lon="4.7389">
        <ele>315.61517</ele>
        <time>2023-07-19T16:32:14.000Z</time>
      </trkpt>
      <trkpt lat="45.8149" lon="4.73885">
        <ele>315.923</ele>
        <time>2023-07-19T16:32:15.000Z</time>
      </trkpt>
      <trkpt lat="45.8149" lon="4.73881">
        <ele>316.2529</ele>
        <time>2023-07-19T16:32:16.000Z</time>
      </trkpt>
      <trkpt lat="45.8149" lon="4.73875">
        <ele>316.60962</ele>
        <time>2023-07-19T16:32:17.000Z</time>
      </trkpt>
      <trkpt lat="45.8149" lon="4.7387">
        <ele>316.97308</ele>
        <time>2023-07-19T16:32:18.000Z</time>
      </trkpt>
      <trkpt lat="45.8149" lon="4.73866">
        <ele>316.73697</ele>
        <time>2023-07-19T16:32:19.000Z</time>
      </trkpt>
      <trkpt lat="45.81489" lon="4.73861">
        <ele>316.90863</ele>
        <time>2023-07-19T16:32:20.000Z</time>
      </trkpt>
      <trkpt lat="45.81489" lon="4.73858">
        <ele>317.00082</ele>
        <time>2023-07-19T16:32:21.000Z</time>
      </trkpt>
      <trkpt lat="45.81488" lon="4.73852">
        <ele>317.12167</ele>
        <time>2023-07-19T16:32:22.000Z</time>
      </trkpt>
      <trkpt lat="45.81488" lon="4.73846">
        <ele>317.13803</ele>
        <time>2023-07-19T16:32:23.000Z</time>
      </trkpt>
      <trkpt lat="45.81488" lon="4.73837">
        <ele>317.11771</ele>
        <time>2023-07-19T16:32:24.000Z</time>
      </trkpt>
      <trkpt lat="45.81487" lon="4.7383">
        <ele>317.15439</ele>
        <time>2023-07-19T16:32:25.000Z</time>
      </trkpt>
      <trkpt lat="45.81486" lon="4.73824">
        <ele>317.15454</ele>
        <time>2023-07-19T16:32:26.000Z</time>
      </trkpt>
      <trkpt lat="45.81485" lon="4.73816">
        <ele>317.18478</ele>
        <time>2023-07-19T16:32:27.000Z</time>
      </trkpt>
      <trkpt lat="45.81483" lon="4.7381">
        <ele>317.24152</ele>
        <time>2023-07-19T16:32:28.000Z</time>
      </trkpt>
      <trkpt lat="45.81484" lon="4.73805">
        <ele>317.32758</ele>
        <time>2023-07-19T16:32:29.000Z</time>
      </trkpt>
      <trkpt lat="45.81483" lon="4.73799">
        <ele>317.52765</ele>
        <time>2023-07-19T16:32:30.000Z</time>
      </trkpt>
      <trkpt lat="45.81481" lon="4.73793">
        <ele>317.75662</ele>
        <time>2023-07-19T16:32:31.000Z</time>
      </trkpt>
      <trkpt lat="45.81481" lon="4.73788">
        <ele>317.75793</ele>
        <time>2023-07-19T16:32:32.000Z</time>
      </trkpt>
      <trkpt lat="45.81481" lon="4.73783">
        <ele>317.79498</ele>
        <time>2023-07-19T16:32:33.000Z</time>
      </trkpt>
      <trkpt lat="45.81482" lon="4.73776">
        <ele>317.78448</ele>
        <time>2023-07-19T16:32:34.000Z</time>
      </trkpt>
      <trkpt lat="45.81482" lon="4.73772">
        <ele>317.7735</ele>
        <time>2023-07-19T16:32:35.000Z</time>
      </trkpt>
      <trkpt lat="45.81484" lon="4.73767">
        <ele>317.71658</ele>
        <time>2023-07-19T16:32:36.000Z</time>
      </trkpt>
      <trkpt lat="45.81486" lon="4.73763">
        <ele>317.43042</ele>
        <time>2023-07-19T16:32:37.000Z</time>
      </trkpt>
      <trkpt lat="45.81489" lon="4.73758">
        <ele>317.15469</ele>
        <time>2023-07-19T16:32:38.000Z</time>
      </trkpt>
      <trkpt lat="45.81492" lon="4.73754">
        <ele>316.8493</ele>
        <time>2023-07-19T16:32:39.000Z</time>
      </trkpt>
      <trkpt lat="45.81494" lon="4.7375">
        <ele>316.37811</ele>
        <time>2023-07-19T16:32:40.000Z</time>
      </trkpt>
      <trkpt lat="45.81496" lon="4.73747">
        <ele>315.91711</ele>
        <time>2023-07-19T16:32:41.000Z</time>
      </trkpt>
      <trkpt lat="45.81498" lon="4.73742">
        <ele>315.44632</ele>
        <time>2023-07-19T16:32:42.000Z</time>
      </trkpt>
      <trkpt lat="45.815" lon="4.73738">
        <ele>315.02661</ele>
        <time>2023-07-19T16:32:43.000Z</time>
      </trkpt>
      <trkpt lat="45.81501" lon="4.73734">
        <ele>314.60126</ele>
        <time>2023-07-19T16:32:44.000Z</time>
      </trkpt>
      <trkpt lat="45.81503" lon="4.7373">
        <ele>314.20081</ele>
        <time>2023-07-19T16:32:45.000Z</time>
      </trkpt>
      <trkpt lat="45.81504" lon="4.73725">
        <ele>313.92181</ele>
        <time>2023-07-19T16:32:46.000Z</time>
      </trkpt>
      <trkpt lat="45.81505" lon="4.73719">
        <ele>313.61499</ele>
        <time>2023-07-19T16:32:47.000Z</time>
      </trkpt>
      <trkpt lat="45.81507" lon="4.73714">
        <ele>313.32153</ele>
        <time>2023-07-19T16:32:48.000Z</time>
      </trkpt>
      <trkpt lat="45.81508" lon="4.73709">
        <ele>313.00342</ele>
        <time>2023-07-19T16:32:49.000Z</time>
      </trkpt>
      <trkpt lat="45.8151" lon="4.73705">
        <ele>312.60443</ele>
        <time>2023-07-19T16:32:50.000Z</time>
      </trkpt>
      <trkpt lat="45.81512" lon="4.737">
        <ele>312.27115</ele>
        <time>2023-07-19T16:32:51.000Z</time>
      </trkpt>
      <trkpt lat="45.81514" lon="4.73694">
        <ele>312.19342</ele>
        <time>2023-07-19T16:32:52.000Z</time>
      </trkpt>
      <trkpt lat="45.81515" lon="4.7369">
        <ele>311.99698</ele>
        <time>2023-07-19T16:32:53.000Z</time>
      </trkpt>
      <trkpt lat="45.81516" lon="4.73685">
        <ele>311.8252</ele>
        <time>2023-07-19T16:32:54.000Z</time>
      </trkpt>
      <trkpt lat="45.81517" lon="4.73679">
        <ele>311.68561</ele>
        <time>2023-07-19T16:32:55.000Z</time>
      </trkpt>
      <trkpt lat="45.81519" lon="4.73674">
        <ele>311.61285</ele>
        <time>2023-07-19T16:32:56.000Z</time>
      </trkpt>
      <trkpt lat="45.8152" lon="4.7367">
        <ele>311.80841</ele>
        <time>2023-07-19T16:32:57.000Z</time>
      </trkpt>
      <trkpt lat="45.81521" lon="4.73665">
        <ele>311.99176</ele>
        <time>2023-07-19T16:32:58.000Z</time>
      </trkpt>
      <trkpt lat="45.81523" lon="4.73661">
        <ele>312.21887</ele>
        <time>2023-07-19T16:32:59.000Z</time>
      </trkpt>
      <trkpt lat="45.81524" lon="4.73656">
        <ele>312.4931</ele>
        <time>2023-07-19T16:33:00.000Z</time>
      </trkpt>
      <trkpt lat="45.81526" lon="4.7365">
        <ele>312.76596</ele>
        <time>2023-07-19T16:33:01.000Z</time>
      </trkpt>
      <trkpt lat="45.81527" lon="4.73645">
        <ele>312.97726</ele>
        <time>2023-07-19T16:33:02.000Z</time>
      </trkpt>
      <trkpt lat="45.81529" lon="4.7364">
        <ele>313.18924</ele>
        <time>2023-07-19T16:33:03.000Z</time>
      </trkpt>
      <trkpt lat="45.8153" lon="4.73636">
        <ele>313.4313</ele>
        <time>2023-07-19T16:33:04.000Z</time>
      </trkpt>
      <trkpt lat="45.81531" lon="4.7363">
        <ele>313.63492</ele>
        <time>2023-07-19T16:33:05.000Z</time>
      </trkpt>
      <trkpt lat="45.81533" lon="4.73625">
        <ele>313.76447</ele>
        <time>2023-07-19T16:33:06.000Z</time>
      </trkpt>
      <trkpt lat="45.81535" lon="4.73619">
        <ele>313.9491</ele>
        <time>2023-07-19T16:33:07.000Z</time>
      </trkpt>
      <trkpt lat="45.81537" lon="4.73614">
        <ele>314.12262</ele>
        <time>2023-07-19T16:33:08.000Z</time>
      </trkpt>
      <trkpt lat="45.81539" lon="4.73609">
        <ele>314.28979</ele>
        <time>2023-07-19T16:33:09.000Z</time>
      </trkpt>
      <trkpt lat="45.81541" lon="4.73603">
        <ele>314.44116</ele>
        <time>2023-07-19T16:33:10.000Z</time>
      </trkpt>
      <trkpt lat="45.81542" lon="4.73598">
        <ele>314.78082</ele>
        <time>2023-07-19T16:33:11.000Z</time>
      </trkpt>
      <trkpt lat="45.81544" lon="4.73592">
        <ele>315.0961</ele>
        <time>2023-07-19T16:33:12.000Z</time>
      </trkpt>
      <trkpt lat="45.81545" lon="4.73587">
        <ele>315.47775</ele>
        <time>2023-07-19T16:33:13.000Z</time>
      </trkpt>
      <trkpt lat="45.81547" lon="4.73582">
        <ele>315.88309</ele>
        <time>2023-07-19T16:33:14.000Z</time>
      </trkpt>
      <trkpt lat="45.81548" lon="4.73576">
        <ele>316.28799</ele>
        <time>2023-07-19T16:33:15.000Z</time>
      </trkpt>
      <trkpt lat="45.81549" lon="4.7357">
        <ele>316.68182</ele>
        <time>2023-07-19T16:33:16.000Z</time>
      </trkpt>
      <trkpt lat="45.8155" lon="4.73564">
        <ele>316.78894</ele>
        <time>2023-07-19T16:33:17.000Z</time>
      </trkpt>
      <trkpt lat="45.81551" lon="4.73558">
        <ele>316.8472</ele>
        <time>2023-07-19T16:33:18.000Z</time>
      </trkpt>
      <trkpt lat="45.81553" lon="4.73553">
        <ele>316.89539</ele>
        <time>2023-07-19T16:33:19.000Z</time>
      </trkpt>
      <trkpt lat="45.81555" lon="4.73548">
        <ele>316.95709</ele>
        <time>2023-07-19T16:33:20.000Z</time>
      </trkpt>
      <trkpt lat="45.81556" lon="4.73542">
        <ele>317.01968</ele>
        <time>2023-07-19T16:33:21.000Z</time>
      </trkpt>
      <trkpt lat="45.81558" lon="4.73536">
        <ele>317.1203</ele>
        <time>2023-07-19T16:33:22.000Z</time>
      </trkpt>
      <trkpt lat="45.81559" lon="4.73531">
        <ele>317.19803</ele>
        <time>2023-07-19T16:33:23.000Z</time>
      </trkpt>
      <trkpt lat="45.8156" lon="4.73526">
        <ele>317.28519</ele>
        <time>2023-07-19T16:33:24.000Z</time>
      </trkpt>
      <trkpt lat="45.8156" lon="4.73522">
        <ele>317.43546</ele>
        <time>2023-07-19T16:33:25.000Z</time>
      </trkpt>
      <trkpt lat="45.81561" lon="4.73519">
        <ele>317.59116</ele>
        <time>2023-07-19T16:33:26.000Z</time>
      </trkpt>
      <trkpt lat="45.81562" lon="4.73516">
        <ele>317.76154</ele>
        <time>2023-07-19T16:33:27.000Z</time>
      </trkpt>
      <trkpt lat="45.81563" lon="4.73513">
        <ele>317.9765</ele>
        <time>2023-07-19T16:33:28.000Z</time>
      </trkpt>
      <trkpt lat="45.81564" lon="4.7351">
        <ele>318.19952</ele>
        <time>2023-07-19T16:33:29.000Z</time>
      </trkpt>
      <trkpt lat="45.81565" lon="4.73507">
        <ele>318.42078</ele>
        <time>2023-07-19T16:33:30.000Z</time>
      </trkpt>
      <trkpt lat="45.81567" lon="4.73505">
        <ele>318.42026</ele>
        <time>2023-07-19T16:33:31.000Z</time>
      </trkpt>
      <trkpt lat="45.8157" lon="4.73504">
        <ele>318.39728</ele>
        <time>2023-07-19T16:33:32.000Z</time>
      </trkpt>
      <trkpt lat="45.81573" lon="4.73505">
        <ele>318.36075</ele>
        <time>2023-07-19T16:33:33.000Z</time>
      </trkpt>
      <trkpt lat="45.81576" lon="4.73507">
        <ele>318.29193</ele>
        <time>2023-07-19T16:33:34.000Z</time>
      </trkpt>
      <trkpt lat="45.81579" lon="4.7351">
        <ele>318.19086</ele>
        <time>2023-07-19T16:33:35.000Z</time>
      </trkpt>
      <trkpt lat="45.81582" lon="4.73514">
        <ele>318.05652</ele>
        <time>2023-07-19T16:33:36.000Z</time>
      </trkpt>
      <trkpt lat="45.81586" lon="4.73518">
        <ele>318.1619</ele>
        <time>2023-07-19T16:33:37.000Z</time>
      </trkpt>
      <trkpt lat="45.81589" lon="4.73523">
        <ele>318.3064</ele>
        <time>2023-07-19T16:33:38.000Z</time>
      </trkpt>
      <trkpt lat="45.81593" lon="4.73526">
        <ele>318.43695</ele>
        <time>2023-07-19T16:33:39.000Z</time>
      </trkpt>
      <trkpt lat="45.81597" lon="4.7353">
        <ele>318.52237</ele>
        <time>2023-07-19T16:33:40.000Z</time>
      </trkpt>
      <trkpt lat="45.81601" lon="4.73536">
        <ele>318.5571</ele>
        <time>2023-07-19T16:33:41.000Z</time>
      </trkpt>
      <trkpt lat="45.81606" lon="4.73542">
        <ele>318.54135</ele>
        <time>2023-07-19T16:33:42.000Z</time>
      </trkpt>
      <trkpt lat="45.81611" lon="4.73549">
        <ele>318.53641</ele>
        <time>2023-07-19T16:33:43.000Z</time>
      </trkpt>
      <trkpt lat="45.81615" lon="4.73555">
        <ele>318.5379</ele>
        <time>2023-07-19T16:33:44.000Z</time>
      </trkpt>
      <trkpt lat="45.81621" lon="4.73561">
        <ele>318.52032</ele>
        <time>2023-07-19T16:33:45.000Z</time>
      </trkpt>
      <trkpt lat="45.81627" lon="4.73567">
        <ele>318.47263</ele>
        <time>2023-07-19T16:33:46.000Z</time>
      </trkpt>
      <trkpt lat="45.81633" lon="4.73573">
        <ele>318.37799</ele>
        <time>2023-07-19T16:33:47.000Z</time>
      </trkpt>
      <trkpt lat="45.81639" lon="4.73578">
        <ele>318.17023</ele>
        <time>2023-07-19T16:33:48.000Z</time>
      </trkpt>
      <trkpt lat="45.81647" lon="4.73584">
        <ele>317.93854</ele>
        <time>2023-07-19T16:33:49.000Z</time>
      </trkpt>
      <trkpt lat="45.81654" lon="4.73592">
        <ele>317.74469</ele>
        <time>2023-07-19T16:33:50.000Z</time>
      </trkpt>
      <trkpt lat="45.81661" lon="4.736">
        <ele>317.53345</ele>
        <time>2023-07-19T16:33:51.000Z</time>
      </trkpt>
      <trkpt lat="45.81667" lon="4.73608">
        <ele>317.27213</ele>
        <time>2023-07-19T16:33:52.000Z</time>
      </trkpt>
      <trkpt lat="45.81674" lon="4.73616">
        <ele>317.02719</ele>
        <time>2023-07-19T16:33:53.000Z</time>
      </trkpt>
      <trkpt lat="45.81682" lon="4.73625">
        <ele>316.75125</ele>
        <time>2023-07-19T16:33:54.000Z</time>
      </trkpt>
      <trkpt lat="45.81689" lon="4.73634">
        <ele>316.44836</ele>
        <time>2023-07-19T16:33:55.000Z</time>
      </trkpt>
      <trkpt lat="45.81696" lon="4.73644">
        <ele>316.0889</ele>
        <time>2023-07-19T16:33:56.000Z</time>
      </trkpt>
      <trkpt lat="45.81703" lon="4.73653">
        <ele>315.71777</ele>
        <time>2023-07-19T16:33:57.000Z</time>
      </trkpt>
      <trkpt lat="45.8171" lon="4.73665">
        <ele>315.38126</ele>
        <time>2023-07-19T16:33:58.000Z</time>
      </trkpt>
      <trkpt lat="45.81717" lon="4.73676">
        <ele>315.06854</ele>
        <time>2023-07-19T16:33:59.000Z</time>
      </trkpt>
      <trkpt lat="45.81721" lon="4.73688">
        <ele>314.71738</ele>
        <time>2023-07-19T16:34:00.000Z</time>
      </trkpt>
      <trkpt lat="45.81726" lon="4.737">
        <ele>314.37051</ele>
        <time>2023-07-19T16:34:01.000Z</time>
      </trkpt>
      <trkpt lat="45.8173" lon="4.73713">
        <ele>314.05405</ele>
        <time>2023-07-19T16:34:02.000Z</time>
      </trkpt>
      <trkpt lat="45.8173" lon="4.73722">
        <ele>313.72418</ele>
        <time>2023-07-19T16:34:03.000Z</time>
      </trkpt>
      <trkpt lat="45.81731" lon="4.73733">
        <ele>313.34088</ele>
        <time>2023-07-19T16:34:04.000Z</time>
      </trkpt>
      <trkpt lat="45.81734" lon="4.73741">
        <ele>312.98859</ele>
        <time>2023-07-19T16:34:05.000Z</time>
      </trkpt>
      <trkpt lat="45.81737" lon="4.73746">
        <ele>312.67999</ele>
        <time>2023-07-19T16:34:06.000Z</time>
      </trkpt>
      <trkpt lat="45.81737" lon="4.7375">
        <ele>312.3721</ele>
        <time>2023-07-19T16:34:07.000Z</time>
      </trkpt>
      <trkpt lat="45.81737" lon="4.73755">
        <ele>312.17456</ele>
        <time>2023-07-19T16:34:08.000Z</time>
      </trkpt>
      <trkpt lat="45.81736" lon="4.73761">
        <ele>311.99207</ele>
        <time>2023-07-19T16:34:10.000Z</time>
      </trkpt>
      <trkpt lat="45.81737" lon="4.73764">
        <ele>311.87381</ele>
        <time>2023-07-19T16:34:12.000Z</time>
      </trkpt>
      <trkpt lat="45.81738" lon="4.73767">
        <ele>311.79788</ele>
        <time>2023-07-19T16:34:13.000Z</time>
      </trkpt>
      <trkpt lat="45.81739" lon="4.73769">
        <ele>311.76364</ele>
        <time>2023-07-19T16:34:14.000Z</time>
      </trkpt>
      <trkpt lat="45.8174" lon="4.73772">
        <ele>311.54062</ele>
        <time>2023-07-19T16:34:15.000Z</time>
      </trkpt>
      <trkpt lat="45.81741" lon="4.73775">
        <ele>311.35284</ele>
        <time>2023-07-19T16:34:16.000Z</time>
      </trkpt>
      <trkpt lat="45.81742" lon="4.73777">
        <ele>311.25165</ele>
        <time>2023-07-19T16:34:18.000Z</time>
      </trkpt>
      <trkpt lat="45.81742" lon="4.7378">
        <ele>311.23761</ele>
        <time>2023-07-19T16:34:21.000Z</time>
      </trkpt>
      <trkpt lat="45.81742" lon="4.73775">
        <ele>311.26007</ele>
        <time>2023-07-19T16:34:24.000Z</time>
      </trkpt>
      <trkpt lat="45.81741" lon="4.73771">
        <ele>311.24524</ele>
        <time>2023-07-19T16:34:25.000Z</time>
      </trkpt>
      <trkpt lat="45.8174" lon="4.73767">
        <ele>311.18781</ele>
        <time>2023-07-19T16:34:26.000Z</time>
      </trkpt>
      <trkpt lat="45.81739" lon="4.73763">
        <ele>311.19907</ele>
        <time>2023-07-19T16:34:27.000Z</time>
      </trkpt>
      <trkpt lat="45.81738" lon="4.73758">
        <ele>311.25589</ele>
        <time>2023-07-19T16:34:28.000Z</time>
      </trkpt>
      <trkpt lat="45.81737" lon="4.73752">
        <ele>311.32202</ele>
        <time>2023-07-19T16:34:29.000Z</time>
      </trkpt>
      <trkpt lat="45.81735" lon="4.73746">
        <ele>311.43524</ele>
        <time>2023-07-19T16:34:30.000Z</time>
      </trkpt>
      <trkpt lat="45.81733" lon="4.7374">
        <ele>311.40631</ele>
        <time>2023-07-19T16:34:31.000Z</time>
      </trkpt>
      <trkpt lat="45.81732" lon="4.73735">
        <ele>311.41187</ele>
        <time>2023-07-19T16:34:32.000Z</time>
      </trkpt>
      <trkpt lat="45.81731" lon="4.73731">
        <ele>311.43021</ele>
        <time>2023-07-19T16:34:33.000Z</time>
      </trkpt>
      <trkpt lat="45.81732" lon="4.73727">
        <ele>311.44354</ele>
        <time>2023-07-19T16:34:34.000Z</time>
      </trkpt>
      <trkpt lat="45.81733" lon="4.73724">
        <ele>311.43835</ele>
        <time>2023-07-19T16:34:35.000Z</time>
      </trkpt>
      <trkpt lat="45.81736" lon="4.73723">
        <ele>311.3783</ele>
        <time>2023-07-19T16:34:37.000Z</time>
      </trkpt>
      <trkpt lat="45.81738" lon="4.73722">
        <ele>311.16302</ele>
        <time>2023-07-19T16:34:39.000Z</time>
      </trkpt>
      <trkpt lat="45.8174" lon="4.73718">
        <ele>310.87573</ele>
        <time>2023-07-19T16:34:41.000Z</time>
      </trkpt>
      <trkpt lat="45.81742" lon="4.73716">
        <ele>310.61594</ele>
        <time>2023-07-19T16:34:42.000Z</time>
      </trkpt>
      <trkpt lat="45.81743" lon="4.73713">
        <ele>310.52103</ele>
        <time>2023-07-19T16:34:43.000Z</time>
      </trkpt>
      <trkpt lat="45.81745" lon="4.73711">
        <ele>310.45364</ele>
        <time>2023-07-19T16:34:44.000Z</time>
      </trkpt>
      <trkpt lat="45.81747" lon="4.73709">
        <ele>310.34909</ele>
        <time>2023-07-19T16:34:45.000Z</time>
      </trkpt>
      <trkpt lat="45.8175" lon="4.73708">
        <ele>310.23334</ele>
        <time>2023-07-19T16:34:46.000Z</time>
      </trkpt>
      <trkpt lat="45.81751" lon="4.73707">
        <ele>310.04892</ele>
        <time>2023-07-19T16:34:47.000Z</time>
      </trkpt>
      <trkpt lat="45.81753" lon="4.73706">
        <ele>309.8999</ele>
        <time>2023-07-19T16:34:48.000Z</time>
      </trkpt>
      <trkpt lat="45.81755" lon="4.73705">
        <ele>309.77118</ele>
        <time>2023-07-19T16:34:49.000Z</time>
      </trkpt>
      <trkpt lat="45.81757" lon="4.73703">
        <ele>309.63959</ele>
        <time>2023-07-19T16:34:50.000Z</time>
      </trkpt>
      <trkpt lat="45.81759" lon="4.73702">
        <ele>309.5766</ele>
        <time>2023-07-19T16:34:51.000Z</time>
      </trkpt>
      <trkpt lat="45.81763" lon="4.73701">
        <ele>309.58344</ele>
        <time>2023-07-19T16:34:53.000Z</time>
      </trkpt>
      <trkpt lat="45.81765" lon="4.73701">
        <ele>309.59796</ele>
        <time>2023-07-19T16:34:54.000Z</time>
      </trkpt>
      <trkpt lat="45.81767" lon="4.737">
        <ele>309.78705</ele>
        <time>2023-07-19T16:34:55.000Z</time>
      </trkpt>
      <trkpt lat="45.81769" lon="4.73699">
        <ele>309.69101</ele>
        <time>2023-07-19T16:34:56.000Z</time>
      </trkpt>
      <trkpt lat="45.81771" lon="4.73698">
        <ele>309.63449</ele>
        <time>2023-07-19T16:34:57.000Z</time>
      </trkpt>
      <trkpt lat="45.81773" lon="4.73698">
        <ele>309.61267</ele>
        <time>2023-07-19T16:34:58.000Z</time>
      </trkpt>
      <trkpt lat="45.81776" lon="4.73697">
        <ele>309.58289</ele>
        <time>2023-07-19T16:34:59.000Z</time>
      </trkpt>
      <trkpt lat="45.81778" lon="4.73696">
        <ele>309.60248</ele>
        <time>2023-07-19T16:35:00.000Z</time>
      </trkpt>
      <trkpt lat="45.81781" lon="4.73695">
        <ele>309.65259</ele>
        <time>2023-07-19T16:35:01.000Z</time>
      </trkpt>
      <trkpt lat="45.81784" lon="4.73694">
        <ele>309.74753</ele>
        <time>2023-07-19T16:35:02.000Z</time>
      </trkpt>
      <trkpt lat="45.81787" lon="4.73693">
        <ele>309.79901</ele>
        <time>2023-07-19T16:35:03.000Z</time>
      </trkpt>
      <trkpt lat="45.81789" lon="4.73692">
        <ele>309.85992</ele>
        <time>2023-07-19T16:35:04.000Z</time>
      </trkpt>
      <trkpt lat="45.81791" lon="4.73691">
        <ele>309.90756</ele>
        <time>2023-07-19T16:35:05.000Z</time>
      </trkpt>
      <trkpt lat="45.81794" lon="4.73691">
        <ele>309.94662</ele>
        <time>2023-07-19T16:35:06.000Z</time>
      </trkpt>
      <trkpt lat="45.81796" lon="4.7369">
        <ele>309.99533</ele>
        <time>2023-07-19T16:35:07.000Z</time>
      </trkpt>
      <trkpt lat="45.81798" lon="4.73689">
        <ele>310.06534</ele>
        <time>2023-07-19T16:35:08.000Z</time>
      </trkpt>
      <trkpt lat="45.81801" lon="4.73688">
        <ele>310.08221</ele>
        <time>2023-07-19T16:35:09.000Z</time>
      </trkpt>
      <trkpt lat="45.81804" lon="4.73688">
        <ele>310.13443</ele>
        <time>2023-07-19T16:35:10.000Z</time>
      </trkpt>
      <trkpt lat="45.81807" lon="4.73686">
        <ele>310.12805</ele>
        <time>2023-07-19T16:35:11.000Z</time>
      </trkpt>
      <trkpt lat="45.81809" lon="4.73685">
        <ele>310.03448</ele>
        <time>2023-07-19T16:35:12.000Z</time>
      </trkpt>
      <trkpt lat="45.81812" lon="4.73685">
        <ele>309.92783</ele>
        <time>2023-07-19T16:35:13.000Z</time>
      </trkpt>
      <trkpt lat="45.81814" lon="4.73683">
        <ele>309.74396</ele>
        <time>2023-07-19T16:35:14.000Z</time>
      </trkpt>
      <trkpt lat="45.81817" lon="4.73682">
        <ele>309.54706</ele>
        <time>2023-07-19T16:35:15.000Z</time>
      </trkpt>
      <trkpt lat="45.8182" lon="4.73681">
        <ele>309.54086</ele>
        <time>2023-07-19T16:35:16.000Z</time>
      </trkpt>
      <trkpt lat="45.81822" lon="4.7368">
        <ele>309.46674</ele>
        <time>2023-07-19T16:35:17.000Z</time>
      </trkpt>
      <trkpt lat="45.81825" lon="4.73678">
        <ele>309.4325</ele>
        <time>2023-07-19T16:35:18.000Z</time>
      </trkpt>
      <trkpt lat="45.81828" lon="4.73677">
        <ele>309.39572</ele>
        <time>2023-07-19T16:35:19.000Z</time>
      </trkpt>
      <trkpt lat="45.81831" lon="4.73675">
        <ele>309.36639</ele>
        <time>2023-07-19T16:35:20.000Z</time>
      </trkpt>
      <trkpt lat="45.81833" lon="4.73674">
        <ele>309.37384</ele>
        <time>2023-07-19T16:35:21.000Z</time>
      </trkpt>
      <trkpt lat="45.81836" lon="4.73673">
        <ele>309.37042</ele>
        <time>2023-07-19T16:35:22.000Z</time>
      </trkpt>
      <trkpt lat="45.81838" lon="4.73673">
        <ele>309.41483</ele>
        <time>2023-07-19T16:35:23.000Z</time>
      </trkpt>
      <trkpt lat="45.8184" lon="4.73673">
        <ele>309.43732</ele>
        <time>2023-07-19T16:35:24.000Z</time>
      </trkpt>
      <trkpt lat="45.81843" lon="4.73673">
        <ele>309.44647</ele>
        <time>2023-07-19T16:35:25.000Z</time>
      </trkpt>
      <trkpt lat="45.81846" lon="4.73673">
        <ele>309.43182</ele>
        <time>2023-07-19T16:35:26.000Z</time>
      </trkpt>
      <trkpt lat="45.81848" lon="4.73673">
        <ele>309.39441</ele>
        <time>2023-07-19T16:35:27.000Z</time>
      </trkpt>
      <trkpt lat="45.8185" lon="4.73672">
        <ele>309.42838</ele>
        <time>2023-07-19T16:35:28.000Z</time>
      </trkpt>
      <trkpt lat="45.81854" lon="4.73672">
        <ele>309.49738</ele>
        <time>2023-07-19T16:35:30.000Z</time>
      </trkpt>
      <trkpt lat="45.81856" lon="4.73672">
        <ele>309.5643</ele>
        <time>2023-07-19T16:35:31.000Z</time>
      </trkpt>
      <trkpt lat="45.81858" lon="4.73672">
        <ele>309.68222</ele>
        <time>2023-07-19T16:35:32.000Z</time>
      </trkpt>
      <trkpt lat="45.8186" lon="4.73673">
        <ele>309.81595</ele>
        <time>2023-07-19T16:35:33.000Z</time>
      </trkpt>
      <trkpt lat="45.81862" lon="4.73673">
        <ele>309.8808</ele>
        <time>2023-07-19T16:35:34.000Z</time>
      </trkpt>
      <trkpt lat="45.81864" lon="4.73674">
        <ele>309.98056</ele>
        <time>2023-07-19T16:35:37.000Z</time>
      </trkpt>
      <trkpt lat="45.81866" lon="4.73673">
        <ele>310.1825</ele>
        <time>2023-07-19T16:35:44.000Z</time>
      </trkpt>
      <trkpt lat="45.81868" lon="4.73673">
        <ele>310.39368</ele>
        <time>2023-07-19T16:35:48.000Z</time>
      </trkpt>
      <trkpt lat="45.8187" lon="4.73673">
        <ele>310.67474</ele>
        <time>2023-07-19T16:35:52.000Z</time>
      </trkpt>
      <trkpt lat="45.81872" lon="4.73672">
        <ele>310.87924</ele>
        <time>2023-07-19T16:35:54.000Z</time>
      </trkpt>
      <trkpt lat="45.81874" lon="4.73671">
        <ele>311.06705</ele>
        <time>2023-07-19T16:35:57.000Z</time>
      </trkpt>
      <trkpt lat="45.81877" lon="4.7367">
        <ele>311.24063</ele>
        <time>2023-07-19T16:36:03.000Z</time>
      </trkpt>
      <trkpt lat="45.81879" lon="4.7367">
        <ele>311.42294</ele>
        <time>2023-07-19T16:36:04.000Z</time>
      </trkpt>
      <trkpt lat="45.81882" lon="4.7367">
        <ele>311.5921</ele>
        <time>2023-07-19T16:36:05.000Z</time>
      </trkpt>
      <trkpt lat="45.81883" lon="4.7367">
        <ele>311.95581</ele>
        <time>2023-07-19T16:36:06.000Z</time>
      </trkpt>
      <trkpt lat="45.81886" lon="4.7367">
        <ele>312.34637</ele>
        <time>2023-07-19T16:36:07.000Z</time>
      </trkpt>
      <trkpt lat="45.81888" lon="4.73669">
        <ele>312.78995</ele>
        <time>2023-07-19T16:36:08.000Z</time>
      </trkpt>
      <trkpt lat="45.81891" lon="4.7367">
        <ele>313.35162</ele>
        <time>2023-07-19T16:36:10.000Z</time>
      </trkpt>
      <trkpt lat="45.81894" lon="4.73671">
        <ele>313.84848</ele>
        <time>2023-07-19T16:36:12.000Z</time>
      </trkpt>
      <trkpt lat="45.81896" lon="4.7367">
        <ele>314.33823</ele>
        <time>2023-07-19T16:36:13.000Z</time>
      </trkpt>
      <trkpt lat="45.81898" lon="4.73668">
        <ele>314.83484</ele>
        <time>2023-07-19T16:36:14.000Z</time>
      </trkpt>
      <trkpt lat="45.819" lon="4.73666">
        <ele>315.31012</ele>
        <time>2023-07-19T16:36:15.000Z</time>
      </trkpt>
      <trkpt lat="45.81901" lon="4.73663">
        <ele>315.77847</ele>
        <time>2023-07-19T16:36:16.000Z</time>
      </trkpt>
      <trkpt lat="45.81902" lon="4.7366">
        <ele>316.19586</ele>
        <time>2023-07-19T16:36:17.000Z</time>
      </trkpt>
      <trkpt lat="45.81903" lon="4.73656">
        <ele>316.64862</ele>
        <time>2023-07-19T16:36:18.000Z</time>
      </trkpt>
      <trkpt lat="45.81904" lon="4.73652">
        <ele>317.07953</ele>
        <time>2023-07-19T16:36:19.000Z</time>
      </trkpt>
      <trkpt lat="45.81905" lon="4.73649">
        <ele>317.40454</ele>
        <time>2023-07-19T16:36:20.000Z</time>
      </trkpt>
      <trkpt lat="45.81906" lon="4.73645">
        <ele>317.76447</ele>
        <time>2023-07-19T16:36:21.000Z</time>
      </trkpt>
      <trkpt lat="45.81907" lon="4.73641">
        <ele>318.10956</ele>
        <time>2023-07-19T16:36:22.000Z</time>
      </trkpt>
      <trkpt lat="45.81909" lon="4.73636">
        <ele>318.46869</ele>
        <time>2023-07-19T16:36:23.000Z</time>
      </trkpt>
      <trkpt lat="45.8191" lon="4.73631">
        <ele>318.63007</ele>
        <time>2023-07-19T16:36:24.000Z</time>
      </trkpt>
      <trkpt lat="45.81911" lon="4.73625">
        <ele>318.81754</ele>
        <time>2023-07-19T16:36:25.000Z</time>
      </trkpt>
      <trkpt lat="45.81911" lon="4.7362">
        <ele>319.00531</ele>
        <time>2023-07-19T16:36:26.000Z</time>
      </trkpt>
      <trkpt lat="45.81912" lon="4.73615">
        <ele>319.19229</ele>
        <time>2023-07-19T16:36:27.000Z</time>
      </trkpt>
      <trkpt lat="45.81913" lon="4.7361">
        <ele>319.15311</ele>
        <time>2023-07-19T16:36:28.000Z</time>
      </trkpt>
      <trkpt lat="45.81913" lon="4.73606">
        <ele>319.11264</ele>
        <time>2023-07-19T16:36:29.000Z</time>
      </trkpt>
      <trkpt lat="45.81914" lon="4.73601">
        <ele>318.98312</ele>
        <time>2023-07-19T16:36:30.000Z</time>
      </trkpt>
      <trkpt lat="45.81914" lon="4.73598">
        <ele>318.79218</ele>
        <time>2023-07-19T16:36:31.000Z</time>
      </trkpt>
      <trkpt lat="45.81915" lon="4.73595">
        <ele>318.62796</ele>
        <time>2023-07-19T16:36:32.000Z</time>
      </trkpt>
      <trkpt lat="45.81915" lon="4.73591">
        <ele>318.46454</ele>
        <time>2023-07-19T16:36:33.000Z</time>
      </trkpt>
      <trkpt lat="45.81916" lon="4.73587">
        <ele>318.36652</ele>
        <time>2023-07-19T16:36:34.000Z</time>
      </trkpt>
      <trkpt lat="45.81917" lon="4.73584">
        <ele>318.35565</ele>
        <time>2023-07-19T16:36:35.000Z</time>
      </trkpt>
      <trkpt lat="45.81917" lon="4.73579">
        <ele>318.38257</ele>
        <time>2023-07-19T16:36:37.000Z</time>
      </trkpt>
      <trkpt lat="45.81917" lon="4.73575">
        <ele>318.44122</ele>
        <time>2023-07-19T16:36:38.000Z</time>
      </trkpt>
      <trkpt lat="45.81917" lon="4.7357">
        <ele>318.52667</ele>
        <time>2023-07-19T16:36:39.000Z</time>
      </trkpt>
      <trkpt lat="45.81918" lon="4.73567">
        <ele>318.58759</ele>
        <time>2023-07-19T16:36:40.000Z</time>
      </trkpt>
      <trkpt lat="45.81919" lon="4.73563">
        <ele>318.70642</ele>
        <time>2023-07-19T16:36:41.000Z</time>
      </trkpt>
      <trkpt lat="45.8192" lon="4.7356">
        <ele>318.7215</ele>
        <time>2023-07-19T16:36:42.000Z</time>
      </trkpt>
      <trkpt lat="45.81921" lon="4.73556">
        <ele>318.66083</ele>
        <time>2023-07-19T16:36:43.000Z</time>
      </trkpt>
      <trkpt lat="45.81921" lon="4.7355">
        <ele>318.64233</ele>
        <time>2023-07-19T16:36:44.000Z</time>
      </trkpt>
      <trkpt lat="45.81921" lon="4.73545">
        <ele>318.83563</ele>
        <time>2023-07-19T16:36:45.000Z</time>
      </trkpt>
      <trkpt lat="45.81921" lon="4.7354">
        <ele>319.02478</ele>
        <time>2023-07-19T16:36:46.000Z</time>
      </trkpt>
      <trkpt lat="45.8192" lon="4.73536">
        <ele>319.21927</ele>
        <time>2023-07-19T16:36:47.000Z</time>
      </trkpt>
      <trkpt lat="45.8192" lon="4.73532">
        <ele>319.4173</ele>
        <time>2023-07-19T16:36:48.000Z</time>
      </trkpt>
      <trkpt lat="45.81921" lon="4.73527">
        <ele>319.70593</ele>
        <time>2023-07-19T16:36:49.000Z</time>
      </trkpt>
      <trkpt lat="45.81922" lon="4.73523">
        <ele>319.96698</ele>
        <time>2023-07-19T16:36:50.000Z</time>
      </trkpt>
      <trkpt lat="45.81923" lon="4.73519">
        <ele>320.26471</ele>
        <time>2023-07-19T16:36:51.000Z</time>
      </trkpt>
      <trkpt lat="45.81924" lon="4.73515">
        <ele>320.40482</ele>
        <time>2023-07-19T16:36:52.000Z</time>
      </trkpt>
      <trkpt lat="45.81924" lon="4.73511">
        <ele>320.6134</ele>
        <time>2023-07-19T16:36:53.000Z</time>
      </trkpt>
      <trkpt lat="45.81925" lon="4.73507">
        <ele>320.82254</ele>
        <time>2023-07-19T16:36:54.000Z</time>
      </trkpt>
      <trkpt lat="45.81926" lon="4.73503">
        <ele>320.97455</ele>
        <time>2023-07-19T16:36:55.000Z</time>
      </trkpt>
      <trkpt lat="45.81927" lon="4.73499">
        <ele>321.07538</ele>
        <time>2023-07-19T16:36:56.000Z</time>
      </trkpt>
      <trkpt lat="45.81928" lon="4.73495">
        <ele>321.16742</ele>
        <time>2023-07-19T16:36:57.000Z</time>
      </trkpt>
      <trkpt lat="45.81929" lon="4.73491">
        <ele>321.29083</ele>
        <time>2023-07-19T16:36:58.000Z</time>
      </trkpt>
      <trkpt lat="45.8193" lon="4.73487">
        <ele>321.38239</ele>
        <time>2023-07-19T16:36:59.000Z</time>
      </trkpt>
      <trkpt lat="45.8193" lon="4.73483">
        <ele>321.50543</ele>
        <time>2023-07-19T16:37:00.000Z</time>
      </trkpt>
      <trkpt lat="45.81931" lon="4.73479">
        <ele>321.58661</ele>
        <time>2023-07-19T16:37:01.000Z</time>
      </trkpt>
      <trkpt lat="45.81931" lon="4.73474">
        <ele>321.73444</ele>
        <time>2023-07-19T16:37:02.000Z</time>
      </trkpt>
      <trkpt lat="45.81932" lon="4.7347">
        <ele>321.91104</ele>
        <time>2023-07-19T16:37:03.000Z</time>
      </trkpt>
      <trkpt lat="45.81933" lon="4.73466">
        <ele>322.07138</ele>
        <time>2023-07-19T16:37:04.000Z</time>
      </trkpt>
      <trkpt lat="45.81933" lon="4.73462">
        <ele>322.27454</ele>
        <time>2023-07-19T16:37:05.000Z</time>
      </trkpt>
      <trkpt lat="45.81934" lon="4.73458">
        <ele>322.45087</ele>
        <time>2023-07-19T16:37:06.000Z</time>
      </trkpt>
      <trkpt lat="45.81934" lon="4.73454">
        <ele>322.61493</ele>
        <time>2023-07-19T16:37:07.000Z</time>
      </trkpt>
      <trkpt lat="45.81935" lon="4.73451">
        <ele>322.78925</ele>
        <time>2023-07-19T16:37:08.000Z</time>
      </trkpt>
      <trkpt lat="45.81935" lon="4.73448">
        <ele>322.90405</ele>
        <time>2023-07-19T16:37:09.000Z</time>
      </trkpt>
      <trkpt lat="45.81936" lon="4.73444">
        <ele>323.06039</ele>
        <time>2023-07-19T16:37:10.000Z</time>
      </trkpt>
      <trkpt lat="45.81936" lon="4.7344">
        <ele>323.22821</ele>
        <time>2023-07-19T16:37:11.000Z</time>
      </trkpt>
      <trkpt lat="45.81936" lon="4.73437">
        <ele>323.52676</ele>
        <time>2023-07-19T16:37:12.000Z</time>
      </trkpt>
      <trkpt lat="45.81936" lon="4.73433">
        <ele>323.73969</ele>
        <time>2023-07-19T16:37:13.000Z</time>
      </trkpt>
      <trkpt lat="45.81937" lon="4.73429">
        <ele>323.94995</ele>
        <time>2023-07-19T16:37:14.000Z</time>
      </trkpt>
      <trkpt lat="45.81937" lon="4.73426">
        <ele>324.14093</ele>
        <time>2023-07-19T16:37:15.000Z</time>
      </trkpt>
      <trkpt lat="45.81938" lon="4.73422">
        <ele>324.31015</ele>
        <time>2023-07-19T16:37:16.000Z</time>
      </trkpt>
      <trkpt lat="45.81939" lon="4.73419">
        <ele>324.44562</ele>
        <time>2023-07-19T16:37:17.000Z</time>
      </trkpt>
      <trkpt lat="45.81941" lon="4.73416">
        <ele>324.56927</ele>
        <time>2023-07-19T16:37:18.000Z</time>
      </trkpt>
      <trkpt lat="45.81943" lon="4.73414">
        <ele>324.69794</ele>
        <time>2023-07-19T16:37:19.000Z</time>
      </trkpt>
      <trkpt lat="45.81945" lon="4.73412">
        <ele>324.81024</ele>
        <time>2023-07-19T16:37:20.000Z</time>
      </trkpt>
      <trkpt lat="45.81947" lon="4.7341">
        <ele>324.93167</ele>
        <time>2023-07-19T16:37:21.000Z</time>
      </trkpt>
      <trkpt lat="45.8195" lon="4.73408">
        <ele>325.08984</ele>
        <time>2023-07-19T16:37:22.000Z</time>
      </trkpt>
      <trkpt lat="45.81952" lon="4.73407">
        <ele>325.24701</ele>
        <time>2023-07-19T16:37:23.000Z</time>
      </trkpt>
      <trkpt lat="45.81954" lon="4.73405">
        <ele>325.39102</ele>
        <time>2023-07-19T16:37:24.000Z</time>
      </trkpt>
      <trkpt lat="45.81956" lon="4.73404">
        <ele>325.45517</ele>
        <time>2023-07-19T16:37:25.000Z</time>
      </trkpt>
      <trkpt lat="45.81958" lon="4.73402">
        <ele>325.50693</ele>
        <time>2023-07-19T16:37:26.000Z</time>
      </trkpt>
      <trkpt lat="45.81961" lon="4.73401">
        <ele>325.53275</ele>
        <time>2023-07-19T16:37:27.000Z</time>
      </trkpt>
      <trkpt lat="45.81963" lon="4.73399">
        <ele>325.54022</ele>
        <time>2023-07-19T16:37:28.000Z</time>
      </trkpt>
      <trkpt lat="45.81966" lon="4.73398">
        <ele>325.53171</ele>
        <time>2023-07-19T16:37:29.000Z</time>
      </trkpt>
      <trkpt lat="45.81969" lon="4.73396">
        <ele>325.50043</ele>
        <time>2023-07-19T16:37:30.000Z</time>
      </trkpt>
      <trkpt lat="45.81972" lon="4.73394">
        <ele>325.4498</ele>
        <time>2023-07-19T16:37:31.000Z</time>
      </trkpt>
      <trkpt lat="45.81974" lon="4.73393">
        <ele>325.39374</ele>
        <time>2023-07-19T16:37:32.000Z</time>
      </trkpt>
      <trkpt lat="45.81977" lon="4.73391">
        <ele>325.41528</ele>
        <time>2023-07-19T16:37:33.000Z</time>
      </trkpt>
      <trkpt lat="45.81979" lon="4.73389">
        <ele>325.42352</ele>
        <time>2023-07-19T16:37:34.000Z</time>
      </trkpt>
      <trkpt lat="45.81982" lon="4.73387">
        <ele>325.42178</ele>
        <time>2023-07-19T16:37:35.000Z</time>
      </trkpt>
      <trkpt lat="45.81985" lon="4.73386">
        <ele>325.40051</ele>
        <time>2023-07-19T16:37:36.000Z</time>
      </trkpt>
      <trkpt lat="45.81987" lon="4.73384">
        <ele>325.40887</ele>
        <time>2023-07-19T16:37:37.000Z</time>
      </trkpt>
      <trkpt lat="45.8199" lon="4.73382">
        <ele>325.39566</ele>
        <time>2023-07-19T16:37:38.000Z</time>
      </trkpt>
      <trkpt lat="45.81993" lon="4.7338">
        <ele>325.35873</ele>
        <time>2023-07-19T16:37:39.000Z</time>
      </trkpt>
      <trkpt lat="45.81996" lon="4.73378">
        <ele>325.34659</ele>
        <time>2023-07-19T16:37:40.000Z</time>
      </trkpt>
      <trkpt lat="45.81999" lon="4.73376">
        <ele>325.31921</ele>
        <time>2023-07-19T16:37:41.000Z</time>
      </trkpt>
      <trkpt lat="45.82002" lon="4.73374">
        <ele>325.20917</ele>
        <time>2023-07-19T16:37:42.000Z</time>
      </trkpt>
      <trkpt lat="45.82005" lon="4.73372">
        <ele>325.13101</ele>
        <time>2023-07-19T16:37:43.000Z</time>
      </trkpt>
      <trkpt lat="45.82007" lon="4.7337">
        <ele>325.08859</ele>
        <time>2023-07-19T16:37:44.000Z</time>
      </trkpt>
      <trkpt lat="45.8201" lon="4.73367">
        <ele>325.09903</ele>
        <time>2023-07-19T16:37:45.000Z</time>
      </trkpt>
      <trkpt lat="45.82012" lon="4.73364">
        <ele>325.11627</ele>
        <time>2023-07-19T16:37:46.000Z</time>
      </trkpt>
      <trkpt lat="45.82015" lon="4.73362">
        <ele>325.1839</ele>
        <time>2023-07-19T16:37:47.000Z</time>
      </trkpt>
      <trkpt lat="45.82017" lon="4.73359">
        <ele>325.29947</ele>
        <time>2023-07-19T16:37:48.000Z</time>
      </trkpt>
      <trkpt lat="45.8202" lon="4.73356">
        <ele>325.44504</ele>
        <time>2023-07-19T16:37:49.000Z</time>
      </trkpt>
      <trkpt lat="45.82022" lon="4.73353">
        <ele>325.60529</ele>
        <time>2023-07-19T16:37:50.000Z</time>
      </trkpt>
      <trkpt lat="45.82024" lon="4.7335">
        <ele>325.76624</ele>
        <time>2023-07-19T16:37:51.000Z</time>
      </trkpt>
      <trkpt lat="45.82026" lon="4.73348">
        <ele>325.98865</ele>
        <time>2023-07-19T16:37:52.000Z</time>
      </trkpt>
      <trkpt lat="45.82029" lon="4.73345">
        <ele>326.22</ele>
        <time>2023-07-19T16:37:53.000Z</time>
      </trkpt>
      <trkpt lat="45.82031" lon="4.73343">
        <ele>326.48541</ele>
        <time>2023-07-19T16:37:54.000Z</time>
      </trkpt>
      <trkpt lat="45.82034" lon="4.73342">
        <ele>326.7774</ele>
        <time>2023-07-19T16:37:55.000Z</time>
      </trkpt>
      <trkpt lat="45.82037" lon="4.7334">
        <ele>327.06049</ele>
        <time>2023-07-19T16:37:56.000Z</time>
      </trkpt>
      <trkpt lat="45.8204" lon="4.73338">
        <ele>327.311</ele>
        <time>2023-07-19T16:37:57.000Z</time>
      </trkpt>
      <trkpt lat="45.82043" lon="4.73336">
        <ele>327.55838</ele>
        <time>2023-07-19T16:37:58.000Z</time>
      </trkpt>
      <trkpt lat="45.82046" lon="4.73334">
        <ele>327.85461</ele>
        <time>2023-07-19T16:37:59.000Z</time>
      </trkpt>
      <trkpt lat="45.8205" lon="4.73333">
        <ele>328.13623</ele>
        <time>2023-07-19T16:38:00.000Z</time>
      </trkpt>
      <trkpt lat="45.82053" lon="4.73331">
        <ele>328.38568</ele>
        <time>2023-07-19T16:38:01.000Z</time>
      </trkpt>
      <trkpt lat="45.82057" lon="4.73329">
        <ele>328.68112</ele>
        <time>2023-07-19T16:38:02.000Z</time>
      </trkpt>
      <trkpt lat="45.8206" lon="4.73327">
        <ele>328.93768</ele>
        <time>2023-07-19T16:38:03.000Z</time>
      </trkpt>
      <trkpt lat="45.82064" lon="4.73324">
        <ele>329.15326</ele>
        <time>2023-07-19T16:38:04.000Z</time>
      </trkpt>
      <trkpt lat="45.82068" lon="4.73322">
        <ele>329.35248</ele>
        <time>2023-07-19T16:38:05.000Z</time>
      </trkpt>
      <trkpt lat="45.82071" lon="4.73319">
        <ele>329.56012</ele>
        <time>2023-07-19T16:38:06.000Z</time>
      </trkpt>
      <trkpt lat="45.82075" lon="4.73317">
        <ele>329.7233</ele>
        <time>2023-07-19T16:38:07.000Z</time>
      </trkpt>
      <trkpt lat="45.82079" lon="4.73315">
        <ele>329.83478</ele>
        <time>2023-07-19T16:38:08.000Z</time>
      </trkpt>
      <trkpt lat="45.82082" lon="4.73313">
        <ele>329.92725</ele>
        <time>2023-07-19T16:38:09.000Z</time>
      </trkpt>
      <trkpt lat="45.82086" lon="4.73311">
        <ele>330.00037</ele>
        <time>2023-07-19T16:38:10.000Z</time>
      </trkpt>
      <trkpt lat="45.82089" lon="4.73309">
        <ele>330.10049</ele>
        <time>2023-07-19T16:38:11.000Z</time>
      </trkpt>
      <trkpt lat="45.82092" lon="4.73307">
        <ele>330.13834</ele>
        <time>2023-07-19T16:38:12.000Z</time>
      </trkpt>
      <trkpt lat="45.82095" lon="4.73306">
        <ele>330.13782</ele>
        <time>2023-07-19T16:38:13.000Z</time>
      </trkpt>
      <trkpt lat="45.82098" lon="4.73304">
        <ele>330.112</ele>
        <time>2023-07-19T16:38:14.000Z</time>
      </trkpt>
      <trkpt lat="45.82101" lon="4.73302">
        <ele>330.08328</ele>
        <time>2023-07-19T16:38:15.000Z</time>
      </trkpt>
      <trkpt lat="45.82105" lon="4.733">
        <ele>330.0835</ele>
        <time>2023-07-19T16:38:16.000Z</time>
      </trkpt>
      <trkpt lat="45.82108" lon="4.73299">
        <ele>330.11365</ele>
        <time>2023-07-19T16:38:17.000Z</time>
      </trkpt>
      <trkpt lat="45.82111" lon="4.73298">
        <ele>330.18219</ele>
        <time>2023-07-19T16:38:18.000Z</time>
      </trkpt>
      <trkpt lat="45.82115" lon="4.73298">
        <ele>330.23932</ele>
        <time>2023-07-19T16:38:19.000Z</time>
      </trkpt>
      <trkpt lat="45.82118" lon="4.73297">
        <ele>330.33328</ele>
        <time>2023-07-19T16:38:20.000Z</time>
      </trkpt>
      <trkpt lat="45.82122" lon="4.73297">
        <ele>330.431</ele>
        <time>2023-07-19T16:38:21.000Z</time>
      </trkpt>
      <trkpt lat="45.82126" lon="4.73297">
        <ele>330.54614</ele>
        <time>2023-07-19T16:38:22.000Z</time>
      </trkpt>
      <trkpt lat="45.82129" lon="4.73296">
        <ele>330.7215</ele>
        <time>2023-07-19T16:38:23.000Z</time>
      </trkpt>
      <trkpt lat="45.82133" lon="4.73295">
        <ele>330.94449</ele>
        <time>2023-07-19T16:38:24.000Z</time>
      </trkpt>
      <trkpt lat="45.82136" lon="4.73294">
        <ele>331.17746</ele>
        <time>2023-07-19T16:38:25.000Z</time>
      </trkpt>
      <trkpt lat="45.82139" lon="4.73292">
        <ele>331.40845</ele>
        <time>2023-07-19T16:38:26.000Z</time>
      </trkpt>
      <trkpt lat="45.82143" lon="4.73291">
        <ele>331.64801</ele>
        <time>2023-07-19T16:38:27.000Z</time>
      </trkpt>
      <trkpt lat="45.82146" lon="4.7329">
        <ele>331.9234</ele>
        <time>2023-07-19T16:38:28.000Z</time>
      </trkpt>
      <trkpt lat="45.8215" lon="4.7329">
        <ele>332.20001</ele>
        <time>2023-07-19T16:38:29.000Z</time>
      </trkpt>
      <trkpt lat="45.82153" lon="4.73289">
        <ele>332.49585</ele>
        <time>2023-07-19T16:38:30.000Z</time>
      </trkpt>
      <trkpt lat="45.82156" lon="4.73289">
        <ele>332.81424</ele>
        <time>2023-07-19T16:38:31.000Z</time>
      </trkpt>
      <trkpt lat="45.8216" lon="4.7329">
        <ele>333.12067</ele>
        <time>2023-07-19T16:38:32.000Z</time>
      </trkpt>
      <trkpt lat="45.82162" lon="4.73291">
        <ele>333.45538</ele>
        <time>2023-07-19T16:38:33.000Z</time>
      </trkpt>
      <trkpt lat="45.82165" lon="4.73294">
        <ele>333.77774</ele>
        <time>2023-07-19T16:38:34.000Z</time>
      </trkpt>
      <trkpt lat="45.82166" lon="4.73299">
        <ele>334.09702</ele>
        <time>2023-07-19T16:38:35.000Z</time>
      </trkpt>
      <trkpt lat="45.82168" lon="4.73304">
        <ele>334.38876</ele>
        <time>2023-07-19T16:38:36.000Z</time>
      </trkpt>
      <trkpt lat="45.82169" lon="4.73309">
        <ele>334.64539</ele>
        <time>2023-07-19T16:38:37.000Z</time>
      </trkpt>
      <trkpt lat="45.8217" lon="4.73313">
        <ele>334.83441</ele>
        <time>2023-07-19T16:38:38.000Z</time>
      </trkpt>
      <trkpt lat="45.82173" lon="4.73318">
        <ele>335.02478</ele>
        <time>2023-07-19T16:38:39.000Z</time>
      </trkpt>
      <trkpt lat="45.82175" lon="4.73321">
        <ele>335.17584</ele>
        <time>2023-07-19T16:38:40.000Z</time>
      </trkpt>
      <trkpt lat="45.82178" lon="4.73324">
        <ele>335.371</ele>
        <time>2023-07-19T16:38:41.000Z</time>
      </trkpt>
      <trkpt lat="45.82182" lon="4.73325">
        <ele>335.54611</ele>
        <time>2023-07-19T16:38:42.000Z</time>
      </trkpt>
      <trkpt lat="45.82185" lon="4.73325">
        <ele>335.68369</ele>
        <time>2023-07-19T16:38:43.000Z</time>
      </trkpt>
      <trkpt lat="45.82189" lon="4.73324">
        <ele>335.76233</ele>
        <time>2023-07-19T16:38:44.000Z</time>
      </trkpt>
      <trkpt lat="45.82193" lon="4.73323">
        <ele>335.82004</ele>
        <time>2023-07-19T16:38:45.000Z</time>
      </trkpt>
      <trkpt lat="45.82197" lon="4.73321">
        <ele>335.88385</ele>
        <time>2023-07-19T16:38:46.000Z</time>
      </trkpt>
      <trkpt lat="45.822" lon="4.73319">
        <ele>336.0018</ele>
        <time>2023-07-19T16:38:47.000Z</time>
      </trkpt>
      <trkpt lat="45.82204" lon="4.73316">
        <ele>336.11786</ele>
        <time>2023-07-19T16:38:48.000Z</time>
      </trkpt>
      <trkpt lat="45.82207" lon="4.73315">
        <ele>336.22467</ele>
        <time>2023-07-19T16:38:49.000Z</time>
      </trkpt>
      <trkpt lat="45.8221" lon="4.73313">
        <ele>336.31161</ele>
        <time>2023-07-19T16:38:50.000Z</time>
      </trkpt>
      <trkpt lat="45.82213" lon="4.73311">
        <ele>336.36603</ele>
        <time>2023-07-19T16:38:51.000Z</time>
      </trkpt>
      <trkpt lat="45.82216" lon="4.7331">
        <ele>336.43317</ele>
        <time>2023-07-19T16:38:52.000Z</time>
      </trkpt>
      <trkpt lat="45.82219" lon="4.73309">
        <ele>336.4986</ele>
        <time>2023-07-19T16:38:53.000Z</time>
      </trkpt>
      <trkpt lat="45.82223" lon="4.73307">
        <ele>336.57916</ele>
        <time>2023-07-19T16:38:54.000Z</time>
      </trkpt>
      <trkpt lat="45.82226" lon="4.73306">
        <ele>336.65643</ele>
        <time>2023-07-19T16:38:55.000Z</time>
      </trkpt>
      <trkpt lat="45.82229" lon="4.73305">
        <ele>336.74872</ele>
        <time>2023-07-19T16:38:56.000Z</time>
      </trkpt>
      <trkpt lat="45.82232" lon="4.73303">
        <ele>336.86331</ele>
        <time>2023-07-19T16:38:57.000Z</time>
      </trkpt>
      <trkpt lat="45.82235" lon="4.73302">
        <ele>337.03418</ele>
        <time>2023-07-19T16:38:58.000Z</time>
      </trkpt>
      <trkpt lat="45.82238" lon="4.733">
        <ele>337.19162</ele>
        <time>2023-07-19T16:38:59.000Z</time>
      </trkpt>
      <trkpt lat="45.82241" lon="4.73299">
        <ele>336.94281</ele>
        <time>2023-07-19T16:39:00.000Z</time>
      </trkpt>
      <trkpt lat="45.82244" lon="4.73297">
        <ele>336.69424</ele>
        <time>2023-07-19T16:39:01.000Z</time>
      </trkpt>
      <trkpt lat="45.82247" lon="4.73296">
        <ele>336.34259</ele>
        <time>2023-07-19T16:39:02.000Z</time>
      </trkpt>
      <trkpt lat="45.8225" lon="4.73295">
        <ele>335.97852</ele>
        <time>2023-07-19T16:39:03.000Z</time>
      </trkpt>
      <trkpt lat="45.82253" lon="4.73293">
        <ele>335.63046</ele>
        <time>2023-07-19T16:39:04.000Z</time>
      </trkpt>
      <trkpt lat="45.82256" lon="4.73292">
        <ele>335.28067</ele>
        <time>2023-07-19T16:39:05.000Z</time>
      </trkpt>
      <trkpt lat="45.82259" lon="4.73291">
        <ele>335.22174</ele>
        <time>2023-07-19T16:39:06.000Z</time>
      </trkpt>
      <trkpt lat="45.82262" lon="4.7329">
        <ele>335.04407</ele>
        <time>2023-07-19T16:39:07.000Z</time>
      </trkpt>
      <trkpt lat="45.82265" lon="4.73288">
        <ele>334.81909</ele>
        <time>2023-07-19T16:39:08.000Z</time>
      </trkpt>
      <trkpt lat="45.82268" lon="4.73287">
        <ele>334.60117</ele>
        <time>2023-07-19T16:39:09.000Z</time>
      </trkpt>
      <trkpt lat="45.82271" lon="4.73286">
        <ele>334.38385</ele>
        <time>2023-07-19T16:39:10.000Z</time>
      </trkpt>
      <trkpt lat="45.82274" lon="4.73284">
        <ele>334.15579</ele>
        <time>2023-07-19T16:39:11.000Z</time>
      </trkpt>
      <trkpt lat="45.82277" lon="4.73283">
        <ele>333.95233</ele>
        <time>2023-07-19T16:39:12.000Z</time>
      </trkpt>
      <trkpt lat="45.8228" lon="4.73282">
        <ele>333.76123</ele>
        <time>2023-07-19T16:39:13.000Z</time>
      </trkpt>
      <trkpt lat="45.82282" lon="4.7328">
        <ele>333.58563</ele>
        <time>2023-07-19T16:39:14.000Z</time>
      </trkpt>
      <trkpt lat="45.82284" lon="4.73278">
        <ele>333.40576</ele>
        <time>2023-07-19T16:39:15.000Z</time>
      </trkpt>
      <trkpt lat="45.82286" lon="4.73278">
        <ele>333.23679</ele>
        <time>2023-07-19T16:39:16.000Z</time>
      </trkpt>
      <trkpt lat="45.82288" lon="4.73278">
        <ele>333.07446</ele>
        <time>2023-07-19T16:39:17.000Z</time>
      </trkpt>
      <trkpt lat="45.82289" lon="4.73281">
        <ele>332.88953</ele>
        <time>2023-07-19T16:39:18.000Z</time>
      </trkpt>
      <trkpt lat="45.8229" lon="4.73284">
        <ele>332.71967</ele>
        <time>2023-07-19T16:39:19.000Z</time>
      </trkpt>
      <trkpt lat="45.82291" lon="4.73288">
        <ele>332.83124</ele>
        <time>2023-07-19T16:39:20.000Z</time>
      </trkpt>
      <trkpt lat="45.82292" lon="4.73292">
        <ele>332.94525</ele>
        <time>2023-07-19T16:39:21.000Z</time>
      </trkpt>
      <trkpt lat="45.82293" lon="4.73296">
        <ele>333.16519</ele>
        <time>2023-07-19T16:39:22.000Z</time>
      </trkpt>
      <trkpt lat="45.82294" lon="4.733">
        <ele>333.26334</ele>
        <time>2023-07-19T16:39:23.000Z</time>
      </trkpt>
      <trkpt lat="45.82295" lon="4.73304">
        <ele>333.3483</ele>
        <time>2023-07-19T16:39:24.000Z</time>
      </trkpt>
      <trkpt lat="45.82297" lon="4.73308">
        <ele>333.79251</ele>
        <time>2023-07-19T16:39:25.000Z</time>
      </trkpt>
      <trkpt lat="45.82298" lon="4.73311">
        <ele>333.89618</ele>
        <time>2023-07-19T16:39:26.000Z</time>
      </trkpt>
      <trkpt lat="45.823" lon="4.73315">
        <ele>334.07132</ele>
        <time>2023-07-19T16:39:27.000Z</time>
      </trkpt>
      <trkpt lat="45.82301" lon="4.73319">
        <ele>334.27313</ele>
        <time>2023-07-19T16:39:28.000Z</time>
      </trkpt>
      <trkpt lat="45.82301" lon="4.73324">
        <ele>334.46509</ele>
        <time>2023-07-19T16:39:29.000Z</time>
      </trkpt>
      <trkpt lat="45.82302" lon="4.73328">
        <ele>334.6684</ele>
        <time>2023-07-19T16:39:30.000Z</time>
      </trkpt>
      <trkpt lat="45.82303" lon="4.73332">
        <ele>334.90707</ele>
        <time>2023-07-19T16:39:31.000Z</time>
      </trkpt>
      <trkpt lat="45.82304" lon="4.73337">
        <ele>335.12408</ele>
        <time>2023-07-19T16:39:32.000Z</time>
      </trkpt>
      <trkpt lat="45.82305" lon="4.73341">
        <ele>335.31805</ele>
        <time>2023-07-19T16:39:33.000Z</time>
      </trkpt>
      <trkpt lat="45.82306" lon="4.73346">
        <ele>335.4953</ele>
        <time>2023-07-19T16:39:34.000Z</time>
      </trkpt>
      <trkpt lat="45.82308" lon="4.73351">
        <ele>335.66583</ele>
        <time>2023-07-19T16:39:35.000Z</time>
      </trkpt>
      <trkpt lat="45.82309" lon="4.73356">
        <ele>335.82892</ele>
        <time>2023-07-19T16:39:36.000Z</time>
      </trkpt>
      <trkpt lat="45.82311" lon="4.73362">
        <ele>335.99579</ele>
        <time>2023-07-19T16:39:37.000Z</time>
      </trkpt>
      <trkpt lat="45.82314" lon="4.73367">
        <ele>336.17685</ele>
        <time>2023-07-19T16:39:38.000Z</time>
      </trkpt>
      <trkpt lat="45.82316" lon="4.73372">
        <ele>336.30841</ele>
        <time>2023-07-19T16:39:39.000Z</time>
      </trkpt>
      <trkpt lat="45.82318" lon="4.73377">
        <ele>336.57233</ele>
        <time>2023-07-19T16:39:40.000Z</time>
      </trkpt>
      <trkpt lat="45.82321" lon="4.73383">
        <ele>336.82721</ele>
        <time>2023-07-19T16:39:41.000Z</time>
      </trkpt>
      <trkpt lat="45.82323" lon="4.73388">
        <ele>337.06219</ele>
        <time>2023-07-19T16:39:42.000Z</time>
      </trkpt>
      <trkpt lat="45.82326" lon="4.73393">
        <ele>337.40762</ele>
        <time>2023-07-19T16:39:43.000Z</time>
      </trkpt>
      <trkpt lat="45.82329" lon="4.73398">
        <ele>337.75021</ele>
        <time>2023-07-19T16:39:44.000Z</time>
      </trkpt>
      <trkpt lat="45.82332" lon="4.73403">
        <ele>337.74399</ele>
        <time>2023-07-19T16:39:45.000Z</time>
      </trkpt>
      <trkpt lat="45.82334" lon="4.73408">
        <ele>337.77808</ele>
        <time>2023-07-19T16:39:46.000Z</time>
      </trkpt>
      <trkpt lat="45.82337" lon="4.73413">
        <ele>337.78986</ele>
        <time>2023-07-19T16:39:47.000Z</time>
      </trkpt>
      <trkpt lat="45.8234" lon="4.73418">
        <ele>337.80215</ele>
        <time>2023-07-19T16:39:48.000Z</time>
      </trkpt>
      <trkpt lat="45.82343" lon="4.73423">
        <ele>337.80786</ele>
        <time>2023-07-19T16:39:49.000Z</time>
      </trkpt>
      <trkpt lat="45.82346" lon="4.73428">
        <ele>337.79959</ele>
        <time>2023-07-19T16:39:50.000Z</time>
      </trkpt>
      <trkpt lat="45.82348" lon="4.73433">
        <ele>337.60504</ele>
        <time>2023-07-19T16:39:51.000Z</time>
      </trkpt>
      <trkpt lat="45.82351" lon="4.73438">
        <ele>337.39276</ele>
        <time>2023-07-19T16:39:52.000Z</time>
      </trkpt>
      <trkpt lat="45.82354" lon="4.73444">
        <ele>337.17773</ele>
        <time>2023-07-19T16:39:53.000Z</time>
      </trkpt>
      <trkpt lat="45.82357" lon="4.73449">
        <ele>336.95837</ele>
        <time>2023-07-19T16:39:54.000Z</time>
      </trkpt>
      <trkpt lat="45.8236" lon="4.73454">
        <ele>336.72711</ele>
        <time>2023-07-19T16:39:55.000Z</time>
      </trkpt>
      <trkpt lat="45.82363" lon="4.73459">
        <ele>336.48322</ele>
        <time>2023-07-19T16:39:56.000Z</time>
      </trkpt>
      <trkpt lat="45.82366" lon="4.73464">
        <ele>336.21259</ele>
        <time>2023-07-19T16:39:57.000Z</time>
      </trkpt>
      <trkpt lat="45.82368" lon="4.7347">
        <ele>335.83795</ele>
        <time>2023-07-19T16:39:58.000Z</time>
      </trkpt>
      <trkpt lat="45.82371" lon="4.73477">
        <ele>335.48471</ele>
        <time>2023-07-19T16:39:59.000Z</time>
      </trkpt>
      <trkpt lat="45.82374" lon="4.73482">
        <ele>335.45233</ele>
        <time>2023-07-19T16:40:00.000Z</time>
      </trkpt>
      <trkpt lat="45.82376" lon="4.73489">
        <ele>335.36139</ele>
        <time>2023-07-19T16:40:01.000Z</time>
      </trkpt>
      <trkpt lat="45.82379" lon="4.73495">
        <ele>335.29065</ele>
        <time>2023-07-19T16:40:02.000Z</time>
      </trkpt>
      <trkpt lat="45.82381" lon="4.73501">
        <ele>335.21838</ele>
        <time>2023-07-19T16:40:03.000Z</time>
      </trkpt>
      <trkpt lat="45.82384" lon="4.73508">
        <ele>335.14847</ele>
        <time>2023-07-19T16:40:04.000Z</time>
      </trkpt>
      <trkpt lat="45.82387" lon="4.73515">
        <ele>335.08505</ele>
        <time>2023-07-19T16:40:05.000Z</time>
      </trkpt>
      <trkpt lat="45.8239" lon="4.73521">
        <ele>335.02814</ele>
        <time>2023-07-19T16:40:06.000Z</time>
      </trkpt>
      <trkpt lat="45.82393" lon="4.73528">
        <ele>334.97931</ele>
        <time>2023-07-19T16:40:07.000Z</time>
      </trkpt>
      <trkpt lat="45.82396" lon="4.73534">
        <ele>334.90494</ele>
        <time>2023-07-19T16:40:08.000Z</time>
      </trkpt>
      <trkpt lat="45.82399" lon="4.73541">
        <ele>334.81732</ele>
        <time>2023-07-19T16:40:09.000Z</time>
      </trkpt>
      <trkpt lat="45.82402" lon="4.73547">
        <ele>334.72125</ele>
        <time>2023-07-19T16:40:10.000Z</time>
      </trkpt>
      <trkpt lat="45.82405" lon="4.73552">
        <ele>334.77655</ele>
        <time>2023-07-19T16:40:11.000Z</time>
      </trkpt>
      <trkpt lat="45.82408" lon="4.73559">
        <ele>334.83441</ele>
        <time>2023-07-19T16:40:12.000Z</time>
      </trkpt>
      <trkpt lat="45.82412" lon="4.73566">
        <ele>334.90167</ele>
        <time>2023-07-19T16:40:13.000Z</time>
      </trkpt>
      <trkpt lat="45.82415" lon="4.73572">
        <ele>334.94342</ele>
        <time>2023-07-19T16:40:14.000Z</time>
      </trkpt>
      <trkpt lat="45.82418" lon="4.73579">
        <ele>334.99579</ele>
        <time>2023-07-19T16:40:15.000Z</time>
      </trkpt>
      <trkpt lat="45.82421" lon="4.73586">
        <ele>335.04721</ele>
        <time>2023-07-19T16:40:16.000Z</time>
      </trkpt>
      <trkpt lat="45.82423" lon="4.73592">
        <ele>335.09186</ele>
        <time>2023-07-19T16:40:17.000Z</time>
      </trkpt>
      <trkpt lat="45.82426" lon="4.736">
        <ele>335.22528</ele>
        <time>2023-07-19T16:40:18.000Z</time>
      </trkpt>
      <trkpt lat="45.8243" lon="4.73607">
        <ele>335.35553</ele>
        <time>2023-07-19T16:40:19.000Z</time>
      </trkpt>
      <trkpt lat="45.82433" lon="4.73615">
        <ele>335.17139</ele>
        <time>2023-07-19T16:40:20.000Z</time>
      </trkpt>
      <trkpt lat="45.82437" lon="4.73623">
        <ele>335.03418</ele>
        <time>2023-07-19T16:40:21.000Z</time>
      </trkpt>
      <trkpt lat="45.8244" lon="4.7363">
        <ele>334.86588</ele>
        <time>2023-07-19T16:40:22.000Z</time>
      </trkpt>
      <trkpt lat="45.82444" lon="4.73638">
        <ele>334.69888</ele>
        <time>2023-07-19T16:40:23.000Z</time>
      </trkpt>
      <trkpt lat="45.82447" lon="4.73646">
        <ele>334.54254</ele>
        <time>2023-07-19T16:40:24.000Z</time>
      </trkpt>
      <trkpt lat="45.8245" lon="4.73654">
        <ele>334.24295</ele>
        <time>2023-07-19T16:40:25.000Z</time>
      </trkpt>
      <trkpt lat="45.82454" lon="4.73661">
        <ele>333.94122</ele>
        <time>2023-07-19T16:40:26.000Z</time>
      </trkpt>
      <trkpt lat="45.82458" lon="4.73668">
        <ele>333.62375</ele>
        <time>2023-07-19T16:40:27.000Z</time>
      </trkpt>
      <trkpt lat="45.82462" lon="4.73676">
        <ele>333.22769</ele>
        <time>2023-07-19T16:40:28.000Z</time>
      </trkpt>
      <trkpt lat="45.82465" lon="4.73684">
        <ele>332.85687</ele>
        <time>2023-07-19T16:40:29.000Z</time>
      </trkpt>
      <trkpt lat="45.82469" lon="4.73691">
        <ele>332.79803</ele>
        <time>2023-07-19T16:40:30.000Z</time>
      </trkpt>
      <trkpt lat="45.82473" lon="4.73697">
        <ele>332.6713</ele>
        <time>2023-07-19T16:40:31.000Z</time>
      </trkpt>
      <trkpt lat="45.82477" lon="4.73704">
        <ele>332.5354</ele>
        <time>2023-07-19T16:40:32.000Z</time>
      </trkpt>
      <trkpt lat="45.8248" lon="4.73711">
        <ele>332.38394</ele>
        <time>2023-07-19T16:40:33.000Z</time>
      </trkpt>
      <trkpt lat="45.82484" lon="4.73718">
        <ele>332.25018</ele>
        <time>2023-07-19T16:40:34.000Z</time>
      </trkpt>
      <trkpt lat="45.82488" lon="4.73724">
        <ele>332.10455</ele>
        <time>2023-07-19T16:40:35.000Z</time>
      </trkpt>
      <trkpt lat="45.82492" lon="4.7373">
        <ele>331.95966</ele>
        <time>2023-07-19T16:40:36.000Z</time>
      </trkpt>
      <trkpt lat="45.82496" lon="4.73736">
        <ele>331.84555</ele>
        <time>2023-07-19T16:40:37.000Z</time>
      </trkpt>
      <trkpt lat="45.825" lon="4.73742">
        <ele>331.62262</ele>
        <time>2023-07-19T16:40:38.000Z</time>
      </trkpt>
      <trkpt lat="45.82504" lon="4.7375">
        <ele>331.31769</ele>
        <time>2023-07-19T16:40:39.000Z</time>
      </trkpt>
      <trkpt lat="45.82507" lon="4.73757">
        <ele>331.29071</ele>
        <time>2023-07-19T16:40:40.000Z</time>
      </trkpt>
      <trkpt lat="45.8251" lon="4.73764">
        <ele>331.2088</ele>
        <time>2023-07-19T16:40:41.000Z</time>
      </trkpt>
      <trkpt lat="45.82514" lon="4.7377">
        <ele>331.16071</ele>
        <time>2023-07-19T16:40:42.000Z</time>
      </trkpt>
      <trkpt lat="45.82517" lon="4.73778">
        <ele>331.11371</ele>
        <time>2023-07-19T16:40:43.000Z</time>
      </trkpt>
      <trkpt lat="45.8252" lon="4.73785">
        <ele>331.06146</ele>
        <time>2023-07-19T16:40:44.000Z</time>
      </trkpt>
      <trkpt lat="45.82523" lon="4.73793">
        <ele>331.13486</ele>
        <time>2023-07-19T16:40:45.000Z</time>
      </trkpt>
      <trkpt lat="45.82526" lon="4.73799">
        <ele>331.20166</ele>
        <time>2023-07-19T16:40:46.000Z</time>
      </trkpt>
      <trkpt lat="45.82528" lon="4.73806">
        <ele>331.27905</ele>
        <time>2023-07-19T16:40:47.000Z</time>
      </trkpt>
      <trkpt lat="45.82531" lon="4.73813">
        <ele>331.45874</ele>
        <time>2023-07-19T16:40:48.000Z</time>
      </trkpt>
      <trkpt lat="45.82532" lon="4.7382">
        <ele>331.62592</ele>
        <time>2023-07-19T16:40:49.000Z</time>
      </trkpt>
      <trkpt lat="45.82533" lon="4.73827">
        <ele>331.49283</ele>
        <time>2023-07-19T16:40:50.000Z</time>
      </trkpt>
      <trkpt lat="45.82535" lon="4.73832">
        <ele>331.44733</ele>
        <time>2023-07-19T16:40:51.000Z</time>
      </trkpt>
      <trkpt lat="45.82537" lon="4.73835">
        <ele>331.42676</ele>
        <time>2023-07-19T16:40:52.000Z</time>
      </trkpt>
      <trkpt lat="45.82539" lon="4.73837">
        <ele>331.42023</ele>
        <time>2023-07-19T16:40:53.000Z</time>
      </trkpt>
      <trkpt lat="45.82541" lon="4.73839">
        <ele>331.36591</ele>
        <time>2023-07-19T16:40:57.000Z</time>
      </trkpt>
      <trkpt lat="45.82544" lon="4.73844">
        <ele>331.26825</ele>
        <time>2023-07-19T16:40:59.000Z</time>
      </trkpt>
      <trkpt lat="45.82546" lon="4.73846">
        <ele>331.18048</ele>
        <time>2023-07-19T16:41:00.000Z</time>
      </trkpt>
      <trkpt lat="45.82549" lon="4.73846">
        <ele>331.17877</ele>
        <time>2023-07-19T16:41:01.000Z</time>
      </trkpt>
      <trkpt lat="45.82552" lon="4.73845">
        <ele>331.29871</ele>
        <time>2023-07-19T16:41:02.000Z</time>
      </trkpt>
      <trkpt lat="45.82552" lon="4.73837">
        <ele>331.47729</ele>
        <time>2023-07-19T16:41:03.000Z</time>
      </trkpt>
      <trkpt lat="45.82554" lon="4.73833">
        <ele>331.37152</ele>
        <time>2023-07-19T16:41:04.000Z</time>
      </trkpt>
      <trkpt lat="45.82556" lon="4.73828">
        <ele>331.31631</ele>
        <time>2023-07-19T16:41:05.000Z</time>
      </trkpt>
      <trkpt lat="45.82558" lon="4.73822">
        <ele>331.25443</ele>
        <time>2023-07-19T16:41:06.000Z</time>
      </trkpt>
      <trkpt lat="45.8256" lon="4.73816">
        <ele>331.19833</ele>
        <time>2023-07-19T16:41:07.000Z</time>
      </trkpt>
      <trkpt lat="45.82562" lon="4.7381">
        <ele>331.15344</ele>
        <time>2023-07-19T16:41:08.000Z</time>
      </trkpt>
      <trkpt lat="45.82564" lon="4.73805">
        <ele>331.11469</ele>
        <time>2023-07-19T16:41:09.000Z</time>
      </trkpt>
      <trkpt lat="45.82566" lon="4.73799">
        <ele>331.08096</ele>
        <time>2023-07-19T16:41:10.000Z</time>
      </trkpt>
      <trkpt lat="45.82568" lon="4.73793">
        <ele>331.06354</ele>
        <time>2023-07-19T16:41:11.000Z</time>
      </trkpt>
      <trkpt lat="45.8257" lon="4.73788">
        <ele>331.03867</ele>
        <time>2023-07-19T16:41:12.000Z</time>
      </trkpt>
      <trkpt lat="45.8257" lon="4.73783">
        <ele>331.03021</ele>
        <time>2023-07-19T16:41:13.000Z</time>
      </trkpt>
      <trkpt lat="45.82571" lon="4.73779">
        <ele>331.08316</ele>
        <time>2023-07-19T16:41:14.000Z</time>
      </trkpt>
      <trkpt lat="45.82571" lon="4.73773">
        <ele>331.11288</ele>
        <time>2023-07-19T16:41:15.000Z</time>
      </trkpt>
      <trkpt lat="45.82571" lon="4.73771">
        <ele>331.11157</ele>
        <time>2023-07-19T16:41:16.000Z</time>
      </trkpt>
      <trkpt lat="45.82574" lon="4.73769">
        <ele>331.07855</ele>
        <time>2023-07-19T16:41:17.000Z</time>
      </trkpt>
      <trkpt lat="45.82578" lon="4.73757">
        <ele>331.12122</ele>
        <time>2023-07-19T16:41:18.000Z</time>
      </trkpt>
      <trkpt lat="45.82581" lon="4.7375">
        <ele>331.23306</ele>
        <time>2023-07-19T16:41:19.000Z</time>
      </trkpt>
      <trkpt lat="45.82585" lon="4.73745">
        <ele>331.35855</ele>
        <time>2023-07-19T16:41:20.000Z</time>
      </trkpt>
      <trkpt lat="45.82588" lon="4.7374">
        <ele>331.37286</ele>
        <time>2023-07-19T16:41:21.000Z</time>
      </trkpt>
      <trkpt lat="45.82592" lon="4.73737">
        <ele>331.39383</ele>
        <time>2023-07-19T16:41:22.000Z</time>
      </trkpt>
      <trkpt lat="45.82596" lon="4.73734">
        <ele>331.44617</ele>
        <time>2023-07-19T16:41:23.000Z</time>
      </trkpt>
      <trkpt lat="45.826" lon="4.7373">
        <ele>331.49576</ele>
        <time>2023-07-19T16:41:24.000Z</time>
      </trkpt>
      <trkpt lat="45.82603" lon="4.73726">
        <ele>331.54303</ele>
        <time>2023-07-19T16:41:25.000Z</time>
      </trkpt>
      <trkpt lat="45.82607" lon="4.73723">
        <ele>331.60971</ele>
        <time>2023-07-19T16:41:26.000Z</time>
      </trkpt>
      <trkpt lat="45.82611" lon="4.73723">
        <ele>331.64639</ele>
        <time>2023-07-19T16:41:27.000Z</time>
      </trkpt>
      <trkpt lat="45.82614" lon="4.73723">
        <ele>331.61453</ele>
        <time>2023-07-19T16:41:28.000Z</time>
      </trkpt>
      <trkpt lat="45.82618" lon="4.73723">
        <ele>331.586</ele>
        <time>2023-07-19T16:41:29.000Z</time>
      </trkpt>
      <trkpt lat="45.82621" lon="4.73722">
        <ele>331.55328</ele>
        <time>2023-07-19T16:41:30.000Z</time>
      </trkpt>
      <trkpt lat="45.82624" lon="4.73721">
        <ele>331.39734</ele>
        <time>2023-07-19T16:41:31.000Z</time>
      </trkpt>
      <trkpt lat="45.82627" lon="4.73719">
        <ele>331.23468</ele>
        <time>2023-07-19T16:41:32.000Z</time>
      </trkpt>
      <trkpt lat="45.82631" lon="4.73718">
        <ele>330.99597</ele>
        <time>2023-07-19T16:41:33.000Z</time>
      </trkpt>
      <trkpt lat="45.82634" lon="4.73718">
        <ele>330.96783</ele>
        <time>2023-07-19T16:41:34.000Z</time>
      </trkpt>
      <trkpt lat="45.82637" lon="4.73718">
        <ele>330.89371</ele>
        <time>2023-07-19T16:41:35.000Z</time>
      </trkpt>
      <trkpt lat="45.82641" lon="4.73718">
        <ele>330.83292</ele>
        <time>2023-07-19T16:41:36.000Z</time>
      </trkpt>
      <trkpt lat="45.82645" lon="4.73719">
        <ele>330.82312</ele>
        <time>2023-07-19T16:41:37.000Z</time>
      </trkpt>
      <trkpt lat="45.82649" lon="4.73719">
        <ele>330.78021</ele>
        <time>2023-07-19T16:41:38.000Z</time>
      </trkpt>
      <trkpt lat="45.82653" lon="4.73719">
        <ele>330.72961</ele>
        <time>2023-07-19T16:41:39.000Z</time>
      </trkpt>
      <trkpt lat="45.82657" lon="4.73718">
        <ele>330.6673</ele>
        <time>2023-07-19T16:41:40.000Z</time>
      </trkpt>
      <trkpt lat="45.82661" lon="4.73717">
        <ele>330.58606</ele>
        <time>2023-07-19T16:41:41.000Z</time>
      </trkpt>
      <trkpt lat="45.82665" lon="4.73715">
        <ele>330.51401</ele>
        <time>2023-07-19T16:41:42.000Z</time>
      </trkpt>
      <trkpt lat="45.82668" lon="4.73712">
        <ele>330.4585</ele>
        <time>2023-07-19T16:41:43.000Z</time>
      </trkpt>
      <trkpt lat="45.82671" lon="4.7371">
        <ele>330.39737</ele>
        <time>2023-07-19T16:41:44.000Z</time>
      </trkpt>
      <trkpt lat="45.82675" lon="4.73707">
        <ele>330.35089</ele>
        <time>2023-07-19T16:41:45.000Z</time>
      </trkpt>
      <trkpt lat="45.82678" lon="4.73705">
        <ele>330.26675</ele>
        <time>2023-07-19T16:41:46.000Z</time>
      </trkpt>
      <trkpt lat="45.8268" lon="4.73702">
        <ele>330.20731</ele>
        <time>2023-07-19T16:41:47.000Z</time>
      </trkpt>
      <trkpt lat="45.82683" lon="4.73699">
        <ele>330.21078</ele>
        <time>2023-07-19T16:41:48.000Z</time>
      </trkpt>
      <trkpt lat="45.82686" lon="4.73697">
        <ele>330.19919</ele>
        <time>2023-07-19T16:41:49.000Z</time>
      </trkpt>
      <trkpt lat="45.82689" lon="4.73694">
        <ele>330.18625</ele>
        <time>2023-07-19T16:41:50.000Z</time>
      </trkpt>
      <trkpt lat="45.82692" lon="4.73692">
        <ele>330.1817</ele>
        <time>2023-07-19T16:41:51.000Z</time>
      </trkpt>
      <trkpt lat="45.82695" lon="4.73689">
        <ele>330.17184</ele>
        <time>2023-07-19T16:41:52.000Z</time>
      </trkpt>
      <trkpt lat="45.82698" lon="4.73687">
        <ele>330.18613</ele>
        <time>2023-07-19T16:41:53.000Z</time>
      </trkpt>
      <trkpt lat="45.82701" lon="4.73684">
        <ele>329.90417</ele>
        <time>2023-07-19T16:41:54.000Z</time>
      </trkpt>
      <trkpt lat="45.82703" lon="4.73682">
        <ele>329.67786</ele>
        <time>2023-07-19T16:41:55.000Z</time>
      </trkpt>
      <trkpt lat="45.82706" lon="4.7368">
        <ele>329.73639</ele>
        <time>2023-07-19T16:41:56.000Z</time>
      </trkpt>
      <trkpt lat="45.82709" lon="4.73677">
        <ele>329.74063</ele>
        <time>2023-07-19T16:41:57.000Z</time>
      </trkpt>
      <trkpt lat="45.82712" lon="4.73675">
        <ele>329.75571</ele>
        <time>2023-07-19T16:41:58.000Z</time>
      </trkpt>
      <trkpt lat="45.82714" lon="4.73672">
        <ele>329.7579</ele>
        <time>2023-07-19T16:41:59.000Z</time>
      </trkpt>
      <trkpt lat="45.82717" lon="4.73669">
        <ele>329.75726</ele>
        <time>2023-07-19T16:42:00.000Z</time>
      </trkpt>
      <trkpt lat="45.8272" lon="4.73666">
        <ele>329.77277</ele>
        <time>2023-07-19T16:42:01.000Z</time>
      </trkpt>
      <trkpt lat="45.82723" lon="4.73663">
        <ele>329.63348</ele>
        <time>2023-07-19T16:42:02.000Z</time>
      </trkpt>
      <trkpt lat="45.82727" lon="4.7366">
        <ele>329.38342</ele>
        <time>2023-07-19T16:42:03.000Z</time>
      </trkpt>
      <trkpt lat="45.8273" lon="4.73656">
        <ele>329.1478</ele>
        <time>2023-07-19T16:42:04.000Z</time>
      </trkpt>
      <trkpt lat="45.82734" lon="4.73652">
        <ele>329.17328</ele>
        <time>2023-07-19T16:42:05.000Z</time>
      </trkpt>
      <trkpt lat="45.82737" lon="4.73649">
        <ele>329.16721</ele>
        <time>2023-07-19T16:42:06.000Z</time>
      </trkpt>
      <trkpt lat="45.82741" lon="4.73646">
        <ele>329.14453</ele>
        <time>2023-07-19T16:42:07.000Z</time>
      </trkpt>
      <trkpt lat="45.82744" lon="4.73643">
        <ele>329.11761</ele>
        <time>2023-07-19T16:42:08.000Z</time>
      </trkpt>
      <trkpt lat="45.82747" lon="4.7364">
        <ele>329.1265</ele>
        <time>2023-07-19T16:42:09.000Z</time>
      </trkpt>
      <trkpt lat="45.8275" lon="4.73637">
        <ele>329.11517</ele>
        <time>2023-07-19T16:42:10.000Z</time>
      </trkpt>
      <trkpt lat="45.82753" lon="4.73634">
        <ele>329.22452</ele>
        <time>2023-07-19T16:42:11.000Z</time>
      </trkpt>
      <trkpt lat="45.82756" lon="4.73631">
        <ele>329.33618</ele>
        <time>2023-07-19T16:42:12.000Z</time>
      </trkpt>
      <trkpt lat="45.8276" lon="4.73627">
        <ele>329.47244</ele>
        <time>2023-07-19T16:42:13.000Z</time>
      </trkpt>
      <trkpt lat="45.82764" lon="4.73623">
        <ele>329.60104</ele>
        <time>2023-07-19T16:42:14.000Z</time>
      </trkpt>
      <trkpt lat="45.82768" lon="4.73619">
        <ele>329.7215</ele>
        <time>2023-07-19T16:42:15.000Z</time>
      </trkpt>
      <trkpt lat="45.82772" lon="4.73614">
        <ele>329.57391</ele>
        <time>2023-07-19T16:42:16.000Z</time>
      </trkpt>
      <trkpt lat="45.82776" lon="4.73608">
        <ele>329.40555</ele>
        <time>2023-07-19T16:42:17.000Z</time>
      </trkpt>
      <trkpt lat="45.82781" lon="4.73603">
        <ele>329.2258</ele>
        <time>2023-07-19T16:42:18.000Z</time>
      </trkpt>
      <trkpt lat="45.82785" lon="4.73597">
        <ele>329.08405</ele>
        <time>2023-07-19T16:42:19.000Z</time>
      </trkpt>
      <trkpt lat="45.8279" lon="4.73592">
        <ele>328.90308</ele>
        <time>2023-07-19T16:42:20.000Z</time>
      </trkpt>
      <trkpt lat="45.82794" lon="4.73585">
        <ele>328.70615</ele>
        <time>2023-07-19T16:42:21.000Z</time>
      </trkpt>
      <trkpt lat="45.828" lon="4.73579">
        <ele>328.52859</ele>
        <time>2023-07-19T16:42:22.000Z</time>
      </trkpt>
      <trkpt lat="45.82807" lon="4.73574">
        <ele>328.40656</ele>
        <time>2023-07-19T16:42:23.000Z</time>
      </trkpt>
      <trkpt lat="45.82814" lon="4.73568">
        <ele>328.27399</ele>
        <time>2023-07-19T16:42:24.000Z</time>
      </trkpt>
      <trkpt lat="45.82819" lon="4.73562">
        <ele>327.84882</ele>
        <time>2023-07-19T16:42:25.000Z</time>
      </trkpt>
      <trkpt lat="45.82823" lon="4.73555">
        <ele>327.49707</ele>
        <time>2023-07-19T16:42:26.000Z</time>
      </trkpt>
      <trkpt lat="45.82829" lon="4.73547">
        <ele>327.15466</ele>
        <time>2023-07-19T16:42:27.000Z</time>
      </trkpt>
      <trkpt lat="45.82834" lon="4.73538">
        <ele>326.85931</ele>
        <time>2023-07-19T16:42:28.000Z</time>
      </trkpt>
      <trkpt lat="45.82842" lon="4.73531">
        <ele>326.55441</ele>
        <time>2023-07-19T16:42:29.000Z</time>
      </trkpt>
      <trkpt lat="45.82849" lon="4.73525">
        <ele>326.14886</ele>
        <time>2023-07-19T16:42:30.000Z</time>
      </trkpt>
      <trkpt lat="45.82855" lon="4.73515">
        <ele>325.87793</ele>
        <time>2023-07-19T16:42:31.000Z</time>
      </trkpt>
      <trkpt lat="45.82862" lon="4.73507">
        <ele>325.48743</ele>
        <time>2023-07-19T16:42:32.000Z</time>
      </trkpt>
      <trkpt lat="45.8287" lon="4.73499">
        <ele>325.12164</ele>
        <time>2023-07-19T16:42:33.000Z</time>
      </trkpt>
      <trkpt lat="45.82877" lon="4.73491">
        <ele>324.77264</ele>
        <time>2023-07-19T16:42:34.000Z</time>
      </trkpt>
      <trkpt lat="45.82885" lon="4.73483">
        <ele>324.44241</ele>
        <time>2023-07-19T16:42:35.000Z</time>
      </trkpt>
      <trkpt lat="45.82892" lon="4.73476">
        <ele>324.11292</ele>
        <time>2023-07-19T16:42:36.000Z</time>
      </trkpt>
      <trkpt lat="45.82899" lon="4.7347">
        <ele>323.83908</ele>
        <time>2023-07-19T16:42:37.000Z</time>
      </trkpt>
      <trkpt lat="45.82907" lon="4.73462">
        <ele>323.52554</ele>
        <time>2023-07-19T16:42:38.000Z</time>
      </trkpt>
      <trkpt lat="45.82915" lon="4.73455">
        <ele>323.1243</ele>
        <time>2023-07-19T16:42:39.000Z</time>
      </trkpt>
      <trkpt lat="45.8292" lon="4.73451">
        <ele>322.78094</ele>
        <time>2023-07-19T16:42:40.000Z</time>
      </trkpt>
      <trkpt lat="45.82922" lon="4.73448">
        <ele>322.35986</ele>
        <time>2023-07-19T16:42:41.000Z</time>
      </trkpt>
      <trkpt lat="45.82924" lon="4.73446">
        <ele>321.93732</ele>
        <time>2023-07-19T16:42:43.000Z</time>
      </trkpt>
      <trkpt lat="45.82926" lon="4.73447">
        <ele>321.46213</ele>
        <time>2023-07-19T16:42:49.000Z</time>
      </trkpt>
      <trkpt lat="45.82924" lon="4.73447">
        <ele>320.89273</ele>
        <time>2023-07-19T16:43:19.000Z</time>
      </trkpt>
      <trkpt lat="45.82927" lon="4.73444">
        <ele>320.41086</ele>
        <time>2023-07-19T16:43:44.000Z</time>
      </trkpt>
      <trkpt lat="45.8293" lon="4.73442">
        <ele>319.89618</ele>
        <time>2023-07-19T16:43:46.000Z</time>
      </trkpt>
      <trkpt lat="45.82933" lon="4.7344">
        <ele>319.36383</ele>
        <time>2023-07-19T16:43:47.000Z</time>
      </trkpt>
      <trkpt lat="45.82936" lon="4.73437">
        <ele>318.75058</ele>
        <time>2023-07-19T16:43:48.000Z</time>
      </trkpt>
      <trkpt lat="45.82938" lon="4.73436">
        <ele>318.13101</ele>
        <time>2023-07-19T16:43:49.000Z</time>
      </trkpt>
      <trkpt lat="45.82941" lon="4.73434">
        <ele>317.56403</ele>
        <time>2023-07-19T16:43:50.000Z</time>
      </trkpt>
      <trkpt lat="45.82945" lon="4.73433">
        <ele>316.86752</ele>
        <time>2023-07-19T16:43:51.000Z</time>
      </trkpt>
      <trkpt lat="45.82948" lon="4.73431">
        <ele>316.41687</ele>
        <time>2023-07-19T16:43:52.000Z</time>
      </trkpt>
      <trkpt lat="45.82952" lon="4.73428">
        <ele>315.99551</ele>
        <time>2023-07-19T16:43:53.000Z</time>
      </trkpt>
      <trkpt lat="45.82957" lon="4.73424">
        <ele>315.5184</ele>
        <time>2023-07-19T16:43:54.000Z</time>
      </trkpt>
      <trkpt lat="45.82963" lon="4.73415">
        <ele>315.05365</ele>
        <time>2023-07-19T16:43:55.000Z</time>
      </trkpt>
      <trkpt lat="45.8297" lon="4.7341">
        <ele>314.57199</ele>
        <time>2023-07-19T16:43:56.000Z</time>
      </trkpt>
      <trkpt lat="45.82975" lon="4.73404">
        <ele>314.13837</ele>
        <time>2023-07-19T16:43:57.000Z</time>
      </trkpt>
      <trkpt lat="45.82982" lon="4.73399">
        <ele>313.67813</ele>
        <time>2023-07-19T16:43:58.000Z</time>
      </trkpt>
      <trkpt lat="45.82987" lon="4.73393">
        <ele>313.27115</ele>
        <time>2023-07-19T16:43:59.000Z</time>
      </trkpt>
      <trkpt lat="45.82993" lon="4.73388">
        <ele>312.84735</ele>
        <time>2023-07-19T16:44:00.000Z</time>
      </trkpt>
      <trkpt lat="45.82999" lon="4.73384">
        <ele>312.50653</ele>
        <time>2023-07-19T16:44:01.000Z</time>
      </trkpt>
      <trkpt lat="45.83005" lon="4.73379">
        <ele>312.26617</ele>
        <time>2023-07-19T16:44:02.000Z</time>
      </trkpt>
      <trkpt lat="45.83011" lon="4.73373">
        <ele>312.11224</ele>
        <time>2023-07-19T16:44:03.000Z</time>
      </trkpt>
      <trkpt lat="45.83017" lon="4.73367">
        <ele>312.03815</ele>
        <time>2023-07-19T16:44:04.000Z</time>
      </trkpt>
      <trkpt lat="45.83023" lon="4.73361">
        <ele>311.91678</ele>
        <time>2023-07-19T16:44:05.000Z</time>
      </trkpt>
      <trkpt lat="45.8303" lon="4.73354">
        <ele>311.7381</ele>
        <time>2023-07-19T16:44:06.000Z</time>
      </trkpt>
      <trkpt lat="45.83036" lon="4.73348">
        <ele>311.58899</ele>
        <time>2023-07-19T16:44:07.000Z</time>
      </trkpt>
      <trkpt lat="45.83044" lon="4.73341">
        <ele>311.4137</ele>
        <time>2023-07-19T16:44:08.000Z</time>
      </trkpt>
      <trkpt lat="45.8305" lon="4.73335">
        <ele>311.24805</ele>
        <time>2023-07-19T16:44:09.000Z</time>
      </trkpt>
      <trkpt lat="45.83056" lon="4.73329">
        <ele>311.15631</ele>
        <time>2023-07-19T16:44:10.000Z</time>
      </trkpt>
      <trkpt lat="45.83063" lon="4.73322">
        <ele>311.01733</ele>
        <time>2023-07-19T16:44:11.000Z</time>
      </trkpt>
      <trkpt lat="45.83071" lon="4.73316">
        <ele>310.73972</ele>
        <time>2023-07-19T16:44:12.000Z</time>
      </trkpt>
      <trkpt lat="45.83077" lon="4.7331">
        <ele>310.40335</ele>
        <time>2023-07-19T16:44:13.000Z</time>
      </trkpt>
      <trkpt lat="45.83084" lon="4.73303">
        <ele>310.10065</ele>
        <time>2023-07-19T16:44:14.000Z</time>
      </trkpt>
      <trkpt lat="45.8309" lon="4.73296">
        <ele>309.81427</ele>
        <time>2023-07-19T16:44:15.000Z</time>
      </trkpt>
      <trkpt lat="45.83097" lon="4.73285">
        <ele>309.49994</ele>
        <time>2023-07-19T16:44:16.000Z</time>
      </trkpt>
      <trkpt lat="45.83105" lon="4.73277">
        <ele>309.09195</ele>
        <time>2023-07-19T16:44:17.000Z</time>
      </trkpt>
      <trkpt lat="45.83112" lon="4.73269">
        <ele>308.74884</ele>
        <time>2023-07-19T16:44:18.000Z</time>
      </trkpt>
      <trkpt lat="45.83119" lon="4.7326">
        <ele>308.38916</ele>
        <time>2023-07-19T16:44:19.000Z</time>
      </trkpt>
      <trkpt lat="45.83125" lon="4.73253">
        <ele>308.02295</ele>
        <time>2023-07-19T16:44:20.000Z</time>
      </trkpt>
      <trkpt lat="45.83132" lon="4.73245">
        <ele>307.66095</ele>
        <time>2023-07-19T16:44:21.000Z</time>
      </trkpt>
      <trkpt lat="45.83139" lon="4.7324">
        <ele>307.31485</ele>
        <time>2023-07-19T16:44:22.000Z</time>
      </trkpt>
      <trkpt lat="45.83145" lon="4.73236">
        <ele>306.87039</ele>
        <time>2023-07-19T16:44:23.000Z</time>
      </trkpt>
      <trkpt lat="45.83149" lon="4.73231">
        <ele>306.47278</ele>
        <time>2023-07-19T16:44:24.000Z</time>
      </trkpt>
      <trkpt lat="45.83154" lon="4.73227">
        <ele>306.06555</ele>
        <time>2023-07-19T16:44:25.000Z</time>
      </trkpt>
      <trkpt lat="45.83159" lon="4.73223">
        <ele>305.72641</ele>
        <time>2023-07-19T16:44:26.000Z</time>
      </trkpt>
      <trkpt lat="45.83164" lon="4.73218">
        <ele>305.35846</ele>
        <time>2023-07-19T16:44:27.000Z</time>
      </trkpt>
      <trkpt lat="45.83169" lon="4.73215">
        <ele>305.0473</ele>
        <time>2023-07-19T16:44:28.000Z</time>
      </trkpt>
      <trkpt lat="45.83175" lon="4.73205">
        <ele>304.66489</ele>
        <time>2023-07-19T16:44:29.000Z</time>
      </trkpt>
      <trkpt lat="45.83181" lon="4.73201">
        <ele>304.30618</ele>
        <time>2023-07-19T16:44:30.000Z</time>
      </trkpt>
      <trkpt lat="45.83186" lon="4.73196">
        <ele>303.97223</ele>
        <time>2023-07-19T16:44:31.000Z</time>
      </trkpt>
      <trkpt lat="45.83191" lon="4.7319">
        <ele>303.6636</ele>
        <time>2023-07-19T16:44:32.000Z</time>
      </trkpt>
      <trkpt lat="45.83195" lon="4.73182">
        <ele>303.36545</ele>
        <time>2023-07-19T16:44:33.000Z</time>
      </trkpt>
      <trkpt lat="45.832" lon="4.73174">
        <ele>303.08484</ele>
        <time>2023-07-19T16:44:34.000Z</time>
      </trkpt>
      <trkpt lat="45.83202" lon="4.73166">
        <ele>302.7818</ele>
        <time>2023-07-19T16:44:35.000Z</time>
      </trkpt>
      <trkpt lat="45.83204" lon="4.73161">
        <ele>302.53229</ele>
        <time>2023-07-19T16:44:36.000Z</time>
      </trkpt>
      <trkpt lat="45.83207" lon="4.73152">
        <ele>302.32968</ele>
        <time>2023-07-19T16:44:37.000Z</time>
      </trkpt>
      <trkpt lat="45.83208" lon="4.73145">
        <ele>302.15912</ele>
        <time>2023-07-19T16:44:38.000Z</time>
      </trkpt>
      <trkpt lat="45.83209" lon="4.73137">
        <ele>302.03842</ele>
        <time>2023-07-19T16:44:39.000Z</time>
      </trkpt>
      <trkpt lat="45.83209" lon="4.73129">
        <ele>301.98495</ele>
        <time>2023-07-19T16:44:40.000Z</time>
      </trkpt>
      <trkpt lat="45.83211" lon="4.73128">
        <ele>301.99652</ele>
        <time>2023-07-19T16:44:41.000Z</time>
      </trkpt>
      <trkpt lat="45.83213" lon="4.73121">
        <ele>302.04306</ele>
        <time>2023-07-19T16:44:42.000Z</time>
      </trkpt>
      <trkpt lat="45.83212" lon="4.73114">
        <ele>302.19171</ele>
        <time>2023-07-19T16:44:43.000Z</time>
      </trkpt>
      <trkpt lat="45.83214" lon="4.73107">
        <ele>302.29712</ele>
        <time>2023-07-19T16:44:44.000Z</time>
      </trkpt>
      <trkpt lat="45.83216" lon="4.73102">
        <ele>302.4118</ele>
        <time>2023-07-19T16:44:45.000Z</time>
      </trkpt>
      <trkpt lat="45.83219" lon="4.73093">
        <ele>302.57217</ele>
        <time>2023-07-19T16:44:46.000Z</time>
      </trkpt>
      <trkpt lat="45.83223" lon="4.73089">
        <ele>302.63992</ele>
        <time>2023-07-19T16:44:47.000Z</time>
      </trkpt>
      <trkpt lat="45.83228" lon="4.73081">
        <ele>302.69205</ele>
        <time>2023-07-19T16:44:48.000Z</time>
      </trkpt>
      <trkpt lat="45.83232" lon="4.73073">
        <ele>302.75201</ele>
        <time>2023-07-19T16:44:49.000Z</time>
      </trkpt>
      <trkpt lat="45.83235" lon="4.73068">
        <ele>302.7439</ele>
        <time>2023-07-19T16:44:50.000Z</time>
      </trkpt>
      <trkpt lat="45.83237" lon="4.73061">
        <ele>302.68457</ele>
        <time>2023-07-19T16:44:51.000Z</time>
      </trkpt>
      <trkpt lat="45.8324" lon="4.73055">
        <ele>302.57526</ele>
        <time>2023-07-19T16:44:52.000Z</time>
      </trkpt>
      <trkpt lat="45.83242" lon="4.73048">
        <ele>302.47205</ele>
        <time>2023-07-19T16:44:53.000Z</time>
      </trkpt>
      <trkpt lat="45.83246" lon="4.73039">
        <ele>302.33896</ele>
        <time>2023-07-19T16:44:54.000Z</time>
      </trkpt>
      <trkpt lat="45.83248" lon="4.73033">
        <ele>302.32782</ele>
        <time>2023-07-19T16:44:55.000Z</time>
      </trkpt>
      <trkpt lat="45.8325" lon="4.73028">
        <ele>301.99625</ele>
        <time>2023-07-19T16:44:56.000Z</time>
      </trkpt>
      <trkpt lat="45.83252" lon="4.73023">
        <ele>301.54425</ele>
        <time>2023-07-19T16:44:57.000Z</time>
      </trkpt>
      <trkpt lat="45.83253" lon="4.73018">
        <ele>301.01233</ele>
        <time>2023-07-19T16:44:58.000Z</time>
      </trkpt>
      <trkpt lat="45.83254" lon="4.73013">
        <ele>300.67786</ele>
        <time>2023-07-19T16:44:59.000Z</time>
      </trkpt>
      <trkpt lat="45.83256" lon="4.73008">
        <ele>300.2829</ele>
        <time>2023-07-19T16:45:00.000Z</time>
      </trkpt>
      <trkpt lat="45.83258" lon="4.73003">
        <ele>299.83423</ele>
        <time>2023-07-19T16:45:01.000Z</time>
      </trkpt>
      <trkpt lat="45.8326" lon="4.72999">
        <ele>299.3421</ele>
        <time>2023-07-19T16:45:02.000Z</time>
      </trkpt>
      <trkpt lat="45.83262" lon="4.72993">
        <ele>298.85501</ele>
        <time>2023-07-19T16:45:03.000Z</time>
      </trkpt>
      <trkpt lat="45.83264" lon="4.72988">
        <ele>298.47845</ele>
        <time>2023-07-19T16:45:04.000Z</time>
      </trkpt>
      <trkpt lat="45.83266" lon="4.72985">
        <ele>298.10638</ele>
        <time>2023-07-19T16:45:05.000Z</time>
      </trkpt>
      <trkpt lat="45.83268" lon="4.72981">
        <ele>297.68719</ele>
        <time>2023-07-19T16:45:06.000Z</time>
      </trkpt>
      <trkpt lat="45.8327" lon="4.72977">
        <ele>297.31982</ele>
        <time>2023-07-19T16:45:07.000Z</time>
      </trkpt>
      <trkpt lat="45.83271" lon="4.72973">
        <ele>296.98032</ele>
        <time>2023-07-19T16:45:08.000Z</time>
      </trkpt>
      <trkpt lat="45.83273" lon="4.7297">
        <ele>296.69629</ele>
        <time>2023-07-19T16:45:09.000Z</time>
      </trkpt>
      <trkpt lat="45.83274" lon="4.72967">
        <ele>296.50189</ele>
        <time>2023-07-19T16:45:10.000Z</time>
      </trkpt>
      <trkpt lat="45.83275" lon="4.72963">
        <ele>296.11246</ele>
        <time>2023-07-19T16:45:11.000Z</time>
      </trkpt>
      <trkpt lat="45.83276" lon="4.72959">
        <ele>295.54623</ele>
        <time>2023-07-19T16:45:12.000Z</time>
      </trkpt>
      <trkpt lat="45.83278" lon="4.72955">
        <ele>294.99139</ele>
        <time>2023-07-19T16:45:13.000Z</time>
      </trkpt>
      <trkpt lat="45.83279" lon="4.72952">
        <ele>294.47125</ele>
        <time>2023-07-19T16:45:14.000Z</time>
      </trkpt>
      <trkpt lat="45.8328" lon="4.72947">
        <ele>293.80325</ele>
        <time>2023-07-19T16:45:15.000Z</time>
      </trkpt>
      <trkpt lat="45.83282" lon="4.7294">
        <ele>293.41669</ele>
        <time>2023-07-19T16:45:16.000Z</time>
      </trkpt>
      <trkpt lat="45.83284" lon="4.72933">
        <ele>293.15875</ele>
        <time>2023-07-19T16:45:17.000Z</time>
      </trkpt>
      <trkpt lat="45.83287" lon="4.72924">
        <ele>292.953</ele>
        <time>2023-07-19T16:45:18.000Z</time>
      </trkpt>
      <trkpt lat="45.8329" lon="4.72916">
        <ele>292.53046</ele>
        <time>2023-07-19T16:45:19.000Z</time>
      </trkpt>
      <trkpt lat="45.83293" lon="4.72909">
        <ele>292.12585</ele>
        <time>2023-07-19T16:45:20.000Z</time>
      </trkpt>
      <trkpt lat="45.83296" lon="4.72901">
        <ele>291.74933</ele>
        <time>2023-07-19T16:45:21.000Z</time>
      </trkpt>
      <trkpt lat="45.83299" lon="4.72894">
        <ele>291.35547</ele>
        <time>2023-07-19T16:45:22.000Z</time>
      </trkpt>
      <trkpt lat="45.83302" lon="4.72888">
        <ele>290.94482</ele>
        <time>2023-07-19T16:45:23.000Z</time>
      </trkpt>
      <trkpt lat="45.83305" lon="4.72885">
        <ele>290.92581</ele>
        <time>2023-07-19T16:45:24.000Z</time>
      </trkpt>
      <trkpt lat="45.83309" lon="4.72882">
        <ele>290.88168</ele>
        <time>2023-07-19T16:45:25.000Z</time>
      </trkpt>
      <trkpt lat="45.83313" lon="4.72881">
        <ele>290.93335</ele>
        <time>2023-07-19T16:45:26.000Z</time>
      </trkpt>
      <trkpt lat="45.83318" lon="4.72879">
        <ele>291.03751</ele>
        <time>2023-07-19T16:45:27.000Z</time>
      </trkpt>
      <trkpt lat="45.83321" lon="4.72879">
        <ele>290.83759</ele>
        <time>2023-07-19T16:45:28.000Z</time>
      </trkpt>
      <trkpt lat="45.83328" lon="4.7288">
        <ele>290.68262</ele>
        <time>2023-07-19T16:45:29.000Z</time>
      </trkpt>
      <trkpt lat="45.83336" lon="4.72879">
        <ele>290.41684</ele>
        <time>2023-07-19T16:45:30.000Z</time>
      </trkpt>
      <trkpt lat="45.83344" lon="4.72881">
        <ele>290.42175</ele>
        <time>2023-07-19T16:45:31.000Z</time>
      </trkpt>
      <trkpt lat="45.83351" lon="4.72881">
        <ele>290.78387</ele>
        <time>2023-07-19T16:45:32.000Z</time>
      </trkpt>
      <trkpt lat="45.83357" lon="4.72879">
        <ele>291.23935</ele>
        <time>2023-07-19T16:45:33.000Z</time>
      </trkpt>
      <trkpt lat="45.83364" lon="4.7288">
        <ele>291.74594</ele>
        <time>2023-07-19T16:45:34.000Z</time>
      </trkpt>
      <trkpt lat="45.8337" lon="4.72884">
        <ele>292.04535</ele>
        <time>2023-07-19T16:45:35.000Z</time>
      </trkpt>
      <trkpt lat="45.8338" lon="4.72884">
        <ele>292.40897</ele>
        <time>2023-07-19T16:45:36.000Z</time>
      </trkpt>
      <trkpt lat="45.83387" lon="4.72884">
        <ele>292.68829</ele>
        <time>2023-07-19T16:45:37.000Z</time>
      </trkpt>
      <trkpt lat="45.83393" lon="4.7288">
        <ele>292.92328</ele>
        <time>2023-07-19T16:45:38.000Z</time>
      </trkpt>
      <trkpt lat="45.834" lon="4.72878">
        <ele>293.11151</ele>
        <time>2023-07-19T16:45:39.000Z</time>
      </trkpt>
      <trkpt lat="45.83406" lon="4.72874">
        <ele>293.24316</ele>
        <time>2023-07-19T16:45:40.000Z</time>
      </trkpt>
      <trkpt lat="45.83412" lon="4.7287">
        <ele>293.33994</ele>
        <time>2023-07-19T16:45:41.000Z</time>
      </trkpt>
      <trkpt lat="45.83417" lon="4.72865">
        <ele>293.48917</ele>
        <time>2023-07-19T16:45:42.000Z</time>
      </trkpt>
      <trkpt lat="45.83419" lon="4.72859">
        <ele>293.74756</ele>
        <time>2023-07-19T16:45:43.000Z</time>
      </trkpt>
      <trkpt lat="45.83424" lon="4.72854">
        <ele>293.53351</ele>
        <time>2023-07-19T16:45:44.000Z</time>
      </trkpt>
      <trkpt lat="45.83427" lon="4.72845">
        <ele>293.41983</ele>
        <time>2023-07-19T16:45:45.000Z</time>
      </trkpt>
      <trkpt lat="45.83429" lon="4.72839">
        <ele>293.11575</ele>
        <time>2023-07-19T16:45:46.000Z</time>
      </trkpt>
      <trkpt lat="45.83429" lon="4.72832">
        <ele>292.82437</ele>
        <time>2023-07-19T16:45:47.000Z</time>
      </trkpt>
      <trkpt lat="45.83429" lon="4.72827">
        <ele>292.81882</ele>
        <time>2023-07-19T16:45:48.000Z</time>
      </trkpt>
      <trkpt lat="45.83431" lon="4.72822">
        <ele>292.73325</ele>
        <time>2023-07-19T16:45:49.000Z</time>
      </trkpt>
      <trkpt lat="45.83431" lon="4.72817">
        <ele>292.83014</ele>
        <time>2023-07-19T16:45:50.000Z</time>
      </trkpt>
      <trkpt lat="45.83431" lon="4.72811">
        <ele>292.452</ele>
        <time>2023-07-19T16:45:51.000Z</time>
      </trkpt>
      <trkpt lat="45.8343" lon="4.72809">
        <ele>292.06726</ele>
        <time>2023-07-19T16:45:52.000Z</time>
      </trkpt>
      <trkpt lat="45.83434" lon="4.72806">
        <ele>291.57651</ele>
        <time>2023-07-19T16:45:53.000Z</time>
      </trkpt>
      <trkpt lat="45.83433" lon="4.72803">
        <ele>291.08383</ele>
        <time>2023-07-19T16:45:54.000Z</time>
      </trkpt>
      <trkpt lat="45.83431" lon="4.72797">
        <ele>290.73859</ele>
        <time>2023-07-19T16:45:55.000Z</time>
      </trkpt>
      <trkpt lat="45.83433" lon="4.72796">
        <ele>290.35089</ele>
        <time>2023-07-19T16:45:56.000Z</time>
      </trkpt>
      <trkpt lat="45.83435" lon="4.72795">
        <ele>289.12234</ele>
        <time>2023-07-19T16:45:57.000Z</time>
      </trkpt>
      <trkpt lat="45.83438" lon="4.72794">
        <ele>287.91882</ele>
        <time>2023-07-19T16:45:58.000Z</time>
      </trkpt>
      <trkpt lat="45.83441" lon="4.72794">
        <ele>286.74683</ele>
        <time>2023-07-19T16:45:59.000Z</time>
      </trkpt>
      <trkpt lat="45.83444" lon="4.72792">
        <ele>285.63147</ele>
        <time>2023-07-19T16:46:00.000Z</time>
      </trkpt>
      <trkpt lat="45.83447" lon="4.72791">
        <ele>284.52359</ele>
        <time>2023-07-19T16:46:01.000Z</time>
      </trkpt>
      <trkpt lat="45.8345" lon="4.72789">
        <ele>284.26688</ele>
        <time>2023-07-19T16:46:02.000Z</time>
      </trkpt>
      <trkpt lat="45.83453" lon="4.72787">
        <ele>283.93372</ele>
        <time>2023-07-19T16:46:03.000Z</time>
      </trkpt>
      <trkpt lat="45.83455" lon="4.72787">
        <ele>283.61426</ele>
        <time>2023-07-19T16:46:04.000Z</time>
      </trkpt>
      <trkpt lat="45.83458" lon="4.72788">
        <ele>283.46442</ele>
        <time>2023-07-19T16:46:06.000Z</time>
      </trkpt>
      <trkpt lat="45.8346" lon="4.7279">
        <ele>283.38617</ele>
        <time>2023-07-19T16:46:07.000Z</time>
      </trkpt>
      <trkpt lat="45.83462" lon="4.7279">
        <ele>283.168</ele>
        <time>2023-07-19T16:46:08.000Z</time>
      </trkpt>
      <trkpt lat="45.83466" lon="4.72789">
        <ele>282.9408</ele>
        <time>2023-07-19T16:46:09.000Z</time>
      </trkpt>
      <trkpt lat="45.8347" lon="4.72785">
        <ele>282.75272</ele>
        <time>2023-07-19T16:46:10.000Z</time>
      </trkpt>
      <trkpt lat="45.83474" lon="4.72781">
        <ele>282.44125</ele>
        <time>2023-07-19T16:46:11.000Z</time>
      </trkpt>
      <trkpt lat="45.83479" lon="4.72777">
        <ele>282.63553</ele>
        <time>2023-07-19T16:46:12.000Z</time>
      </trkpt>
      <trkpt lat="45.83482" lon="4.72774">
        <ele>282.68787</ele>
        <time>2023-07-19T16:46:13.000Z</time>
      </trkpt>
      <trkpt lat="45.83486" lon="4.72771">
        <ele>282.76508</ele>
        <time>2023-07-19T16:46:14.000Z</time>
      </trkpt>
      <trkpt lat="45.83491" lon="4.72769">
        <ele>282.82504</ele>
        <time>2023-07-19T16:46:15.000Z</time>
      </trkpt>
      <trkpt lat="45.83496" lon="4.72766">
        <ele>283.06375</ele>
        <time>2023-07-19T16:46:16.000Z</time>
      </trkpt>
      <trkpt lat="45.835" lon="4.72764">
        <ele>283.33795</ele>
        <time>2023-07-19T16:46:17.000Z</time>
      </trkpt>
      <trkpt lat="45.83504" lon="4.72762">
        <ele>284.4653</ele>
        <time>2023-07-19T16:46:18.000Z</time>
      </trkpt>
      <trkpt lat="45.83508" lon="4.72761">
        <ele>285.59412</ele>
        <time>2023-07-19T16:46:19.000Z</time>
      </trkpt>
      <trkpt lat="45.83513" lon="4.7276">
        <ele>286.70886</ele>
        <time>2023-07-19T16:46:20.000Z</time>
      </trkpt>
      <trkpt lat="45.83518" lon="4.72759">
        <ele>287.81799</ele>
        <time>2023-07-19T16:46:21.000Z</time>
      </trkpt>
      <trkpt lat="45.83528" lon="4.72756">
        <ele>288.88586</ele>
        <time>2023-07-19T16:46:22.000Z</time>
      </trkpt>
      <trkpt lat="45.83531" lon="4.72755">
        <ele>289.0766</ele>
        <time>2023-07-19T16:46:23.000Z</time>
      </trkpt>
      <trkpt lat="45.83536" lon="4.72754">
        <ele>289.21069</ele>
        <time>2023-07-19T16:46:24.000Z</time>
      </trkpt>
      <trkpt lat="45.8354" lon="4.72751">
        <ele>289.37183</ele>
        <time>2023-07-19T16:46:25.000Z</time>
      </trkpt>
      <trkpt lat="45.83544" lon="4.7275">
        <ele>289.27307</ele>
        <time>2023-07-19T16:46:26.000Z</time>
      </trkpt>
      <trkpt lat="45.83549" lon="4.72748">
        <ele>289.39722</ele>
        <time>2023-07-19T16:46:27.000Z</time>
      </trkpt>
      <trkpt lat="45.83553" lon="4.72745">
        <ele>288.36688</ele>
        <time>2023-07-19T16:46:28.000Z</time>
      </trkpt>
      <trkpt lat="45.83558" lon="4.72742">
        <ele>287.35361</ele>
        <time>2023-07-19T16:46:29.000Z</time>
      </trkpt>
      <trkpt lat="45.83563" lon="4.7274">
        <ele>286.30954</ele>
        <time>2023-07-19T16:46:30.000Z</time>
      </trkpt>
      <trkpt lat="45.83567" lon="4.72737">
        <ele>285.30835</ele>
        <time>2023-07-19T16:46:31.000Z</time>
      </trkpt>
      <trkpt lat="45.83571" lon="4.72734">
        <ele>284.35025</ele>
        <time>2023-07-19T16:46:32.000Z</time>
      </trkpt>
      <trkpt lat="45.83575" lon="4.72732">
        <ele>283.4386</ele>
        <time>2023-07-19T16:46:33.000Z</time>
      </trkpt>
      <trkpt lat="45.83578" lon="4.72729">
        <ele>282.52521</ele>
        <time>2023-07-19T16:46:34.000Z</time>
      </trkpt>
      <trkpt lat="45.83582" lon="4.72726">
        <ele>282.91705</ele>
        <time>2023-07-19T16:46:35.000Z</time>
      </trkpt>
      <trkpt lat="45.83586" lon="4.72725">
        <ele>282.88391</ele>
        <time>2023-07-19T16:46:36.000Z</time>
      </trkpt>
      <trkpt lat="45.8359" lon="4.72723">
        <ele>282.86533</ele>
        <time>2023-07-19T16:46:37.000Z</time>
      </trkpt>
      <trkpt lat="45.83594" lon="4.72722">
        <ele>282.86288</ele>
        <time>2023-07-19T16:46:38.000Z</time>
      </trkpt>
      <trkpt lat="45.83598" lon="4.72721">
        <ele>282.96402</ele>
        <time>2023-07-19T16:46:39.000Z</time>
      </trkpt>
      <trkpt lat="45.83603" lon="4.72719">
        <ele>283.01917</ele>
        <time>2023-07-19T16:46:40.000Z</time>
      </trkpt>
      <trkpt lat="45.83609" lon="4.72715">
        <ele>283.07343</ele>
        <time>2023-07-19T16:46:41.000Z</time>
      </trkpt>
      <trkpt lat="45.83618" lon="4.72705">
        <ele>282.19055</ele>
        <time>2023-07-19T16:46:42.000Z</time>
      </trkpt>
      <trkpt lat="45.83622" lon="4.72697">
        <ele>281.1839</ele>
        <time>2023-07-19T16:46:43.000Z</time>
      </trkpt>
      <trkpt lat="45.8363" lon="4.72692">
        <ele>281.30438</ele>
        <time>2023-07-19T16:46:44.000Z</time>
      </trkpt>
      <trkpt lat="45.83636" lon="4.72686">
        <ele>281.39734</ele>
        <time>2023-07-19T16:46:45.000Z</time>
      </trkpt>
      <trkpt lat="45.83645" lon="4.72682">
        <ele>281.3996</ele>
        <time>2023-07-19T16:46:46.000Z</time>
      </trkpt>
      <trkpt lat="45.83652" lon="4.7268">
        <ele>281.21088</ele>
        <time>2023-07-19T16:46:47.000Z</time>
      </trkpt>
      <trkpt lat="45.83661" lon="4.72673">
        <ele>282.22644</ele>
        <time>2023-07-19T16:46:48.000Z</time>
      </trkpt>
      <trkpt lat="45.83667" lon="4.72671">
        <ele>283.21072</ele>
        <time>2023-07-19T16:46:49.000Z</time>
      </trkpt>
      <trkpt lat="45.83672" lon="4.7267">
        <ele>284.27704</ele>
        <time>2023-07-19T16:46:50.000Z</time>
      </trkpt>
      <trkpt lat="45.83678" lon="4.72668">
        <ele>285.35898</ele>
        <time>2023-07-19T16:46:51.000Z</time>
      </trkpt>
      <trkpt lat="45.83685" lon="4.72665">
        <ele>286.41049</ele>
        <time>2023-07-19T16:46:52.000Z</time>
      </trkpt>
      <trkpt lat="45.83691" lon="4.72663">
        <ele>287.4989</ele>
        <time>2023-07-19T16:46:53.000Z</time>
      </trkpt>
      <trkpt lat="45.83698" lon="4.72661">
        <ele>288.55969</ele>
        <time>2023-07-19T16:46:54.000Z</time>
      </trkpt>
      <trkpt lat="45.83708" lon="4.72657">
        <ele>288.48029</ele>
        <time>2023-07-19T16:46:55.000Z</time>
      </trkpt>
      <trkpt lat="45.83714" lon="4.72655">
        <ele>288.74152</ele>
        <time>2023-07-19T16:46:56.000Z</time>
      </trkpt>
      <trkpt lat="45.83719" lon="4.72653">
        <ele>288.95422</ele>
        <time>2023-07-19T16:46:57.000Z</time>
      </trkpt>
      <trkpt lat="45.83726" lon="4.72649">
        <ele>289.24493</ele>
        <time>2023-07-19T16:46:58.000Z</time>
      </trkpt>
      <trkpt lat="45.83734" lon="4.72642">
        <ele>289.21683</ele>
        <time>2023-07-19T16:46:59.000Z</time>
      </trkpt>
      <trkpt lat="45.8374" lon="4.72635">
        <ele>289.24179</ele>
        <time>2023-07-19T16:47:00.000Z</time>
      </trkpt>
      <trkpt lat="45.83747" lon="4.72632">
        <ele>289.20563</ele>
        <time>2023-07-19T16:47:01.000Z</time>
      </trkpt>
      <trkpt lat="45.83753" lon="4.72631">
        <ele>290.28082</ele>
        <time>2023-07-19T16:47:02.000Z</time>
      </trkpt>
      <trkpt lat="45.83759" lon="4.72628">
        <ele>290.94595</ele>
        <time>2023-07-19T16:47:03.000Z</time>
      </trkpt>
      <trkpt lat="45.83766" lon="4.72627">
        <ele>290.6698</ele>
        <time>2023-07-19T16:47:04.000Z</time>
      </trkpt>
      <trkpt lat="45.83772" lon="4.72628">
        <ele>290.39008</ele>
        <time>2023-07-19T16:47:05.000Z</time>
      </trkpt>
      <trkpt lat="45.83778" lon="4.72627">
        <ele>290.19882</ele>
        <time>2023-07-19T16:47:06.000Z</time>
      </trkpt>
      <trkpt lat="45.83783" lon="4.72626">
        <ele>290.03134</ele>
        <time>2023-07-19T16:47:07.000Z</time>
      </trkpt>
      <trkpt lat="45.8379" lon="4.72625">
        <ele>290.04144</ele>
        <time>2023-07-19T16:47:08.000Z</time>
      </trkpt>
      <trkpt lat="45.83794" lon="4.72623">
        <ele>290.02979</ele>
        <time>2023-07-19T16:47:09.000Z</time>
      </trkpt>
      <trkpt lat="45.83801" lon="4.7262">
        <ele>289.91876</ele>
        <time>2023-07-19T16:47:10.000Z</time>
      </trkpt>
      <trkpt lat="45.83805" lon="4.72618">
        <ele>289.79855</ele>
        <time>2023-07-19T16:47:11.000Z</time>
      </trkpt>
      <trkpt lat="45.8381" lon="4.72616">
        <ele>289.55316</ele>
        <time>2023-07-19T16:47:12.000Z</time>
      </trkpt>
      <trkpt lat="45.83815" lon="4.72613">
        <ele>289.21173</ele>
        <time>2023-07-19T16:47:13.000Z</time>
      </trkpt>
      <trkpt lat="45.83818" lon="4.72609">
        <ele>288.95258</ele>
        <time>2023-07-19T16:47:14.000Z</time>
      </trkpt>
      <trkpt lat="45.83822" lon="4.72604">
        <ele>288.53714</ele>
        <time>2023-07-19T16:47:15.000Z</time>
      </trkpt>
      <trkpt lat="45.83823" lon="4.72598">
        <ele>287.97162</ele>
        <time>2023-07-19T16:47:16.000Z</time>
      </trkpt>
      <trkpt lat="45.83827" lon="4.7259">
        <ele>287.26291</ele>
        <time>2023-07-19T16:47:17.000Z</time>
      </trkpt>
      <trkpt lat="45.83829" lon="4.72583">
        <ele>286.26831</ele>
        <time>2023-07-19T16:47:18.000Z</time>
      </trkpt>
      <trkpt lat="45.83831" lon="4.72576">
        <ele>285.5174</ele>
        <time>2023-07-19T16:47:19.000Z</time>
      </trkpt>
      <trkpt lat="45.83833" lon="4.7257">
        <ele>284.6716</ele>
        <time>2023-07-19T16:47:20.000Z</time>
      </trkpt>
      <trkpt lat="45.83833" lon="4.72566">
        <ele>284.02612</ele>
        <time>2023-07-19T16:47:21.000Z</time>
      </trkpt>
      <trkpt lat="45.83834" lon="4.72563">
        <ele>283.3262</ele>
        <time>2023-07-19T16:47:22.000Z</time>
      </trkpt>
      <trkpt lat="45.83837" lon="4.72558">
        <ele>283.44659</ele>
        <time>2023-07-19T16:47:23.000Z</time>
      </trkpt>
      <trkpt lat="45.83839" lon="4.72551">
        <ele>282.79221</ele>
        <time>2023-07-19T16:47:24.000Z</time>
      </trkpt>
      <trkpt lat="45.83839" lon="4.72547">
        <ele>282.12653</ele>
        <time>2023-07-19T16:47:25.000Z</time>
      </trkpt>
      <trkpt lat="45.8384" lon="4.72543">
        <ele>281.41272</ele>
        <time>2023-07-19T16:47:26.000Z</time>
      </trkpt>
      <trkpt lat="45.83841" lon="4.72534">
        <ele>280.26974</ele>
        <time>2023-07-19T16:47:27.000Z</time>
      </trkpt>
      <trkpt lat="45.83843" lon="4.72527">
        <ele>279.08759</ele>
        <time>2023-07-19T16:47:28.000Z</time>
      </trkpt>
      <trkpt lat="45.83843" lon="4.72519">
        <ele>277.87164</ele>
        <time>2023-07-19T16:47:29.000Z</time>
      </trkpt>
      <trkpt lat="45.83843" lon="4.72513">
        <ele>276.72614</ele>
        <time>2023-07-19T16:47:30.000Z</time>
      </trkpt>
      <trkpt lat="45.83844" lon="4.72507">
        <ele>275.50409</ele>
        <time>2023-07-19T16:47:31.000Z</time>
      </trkpt>
      <trkpt lat="45.83843" lon="4.72501">
        <ele>274.52374</ele>
        <time>2023-07-19T16:47:32.000Z</time>
      </trkpt>
      <trkpt lat="45.83843" lon="4.72494">
        <ele>273.55737</ele>
        <time>2023-07-19T16:47:33.000Z</time>
      </trkpt>
      <trkpt lat="45.83842" lon="4.72488">
        <ele>272.65057</ele>
        <time>2023-07-19T16:47:34.000Z</time>
      </trkpt>
      <trkpt lat="45.8384" lon="4.72484">
        <ele>271.44669</ele>
        <time>2023-07-19T16:47:35.000Z</time>
      </trkpt>
      <trkpt lat="45.83842" lon="4.7248">
        <ele>270.4451</ele>
        <time>2023-07-19T16:47:36.000Z</time>
      </trkpt>
      <trkpt lat="45.83842" lon="4.72476">
        <ele>269.71338</ele>
        <time>2023-07-19T16:47:37.000Z</time>
      </trkpt>
      <trkpt lat="45.83842" lon="4.7247">
        <ele>269.09106</ele>
        <time>2023-07-19T16:47:38.000Z</time>
      </trkpt>
      <trkpt lat="45.83842" lon="4.72465">
        <ele>268.43515</ele>
        <time>2023-07-19T16:47:39.000Z</time>
      </trkpt>
      <trkpt lat="45.83843" lon="4.72461">
        <ele>267.89166</ele>
        <time>2023-07-19T16:47:40.000Z</time>
      </trkpt>
      <trkpt lat="45.83844" lon="4.72455">
        <ele>267.15753</ele>
        <time>2023-07-19T16:47:41.000Z</time>
      </trkpt>
      <trkpt lat="45.83845" lon="4.7245">
        <ele>266.3591</ele>
        <time>2023-07-19T16:47:42.000Z</time>
      </trkpt>
      <trkpt lat="45.83847" lon="4.72446">
        <ele>265.2496</ele>
        <time>2023-07-19T16:47:43.000Z</time>
      </trkpt>
      <trkpt lat="45.83849" lon="4.72442">
        <ele>264.76633</ele>
        <time>2023-07-19T16:47:44.000Z</time>
      </trkpt>
      <trkpt lat="45.83851" lon="4.72438">
        <ele>264.24347</ele>
        <time>2023-07-19T16:47:45.000Z</time>
      </trkpt>
      <trkpt lat="45.83853" lon="4.72435">
        <ele>263.8176</ele>
        <time>2023-07-19T16:47:46.000Z</time>
      </trkpt>
      <trkpt lat="45.83856" lon="4.72432">
        <ele>263.79858</ele>
        <time>2023-07-19T16:47:47.000Z</time>
      </trkpt>
      <trkpt lat="45.83859" lon="4.7243">
        <ele>263.79758</ele>
        <time>2023-07-19T16:47:48.000Z</time>
      </trkpt>
      <trkpt lat="45.83861" lon="4.72429">
        <ele>264.78696</ele>
        <time>2023-07-19T16:47:49.000Z</time>
      </trkpt>
      <trkpt lat="45.83863" lon="4.72428">
        <ele>265.78946</ele>
        <time>2023-07-19T16:47:50.000Z</time>
      </trkpt>
      <trkpt lat="45.83867" lon="4.72428">
        <ele>265.3475</ele>
        <time>2023-07-19T16:47:51.000Z</time>
      </trkpt>
      <trkpt lat="45.83871" lon="4.72423">
        <ele>264.71423</ele>
        <time>2023-07-19T16:47:52.000Z</time>
      </trkpt>
      <trkpt lat="45.83875" lon="4.7242">
        <ele>265.78519</ele>
        <time>2023-07-19T16:47:53.000Z</time>
      </trkpt>
      <trkpt lat="45.83878" lon="4.72419">
        <ele>266.72113</ele>
        <time>2023-07-19T16:47:54.000Z</time>
      </trkpt>
      <trkpt lat="45.83884" lon="4.72417">
        <ele>268.00082</ele>
        <time>2023-07-19T16:47:55.000Z</time>
      </trkpt>
      <trkpt lat="45.83886" lon="4.72413">
        <ele>269.16995</ele>
        <time>2023-07-19T16:47:56.000Z</time>
      </trkpt>
      <trkpt lat="45.8389" lon="4.72411">
        <ele>270.18933</ele>
        <time>2023-07-19T16:47:57.000Z</time>
      </trkpt>
      <trkpt lat="45.83893" lon="4.72408">
        <ele>271.55112</ele>
        <time>2023-07-19T16:47:58.000Z</time>
      </trkpt>
      <trkpt lat="45.83896" lon="4.72405">
        <ele>272.94122</ele>
        <time>2023-07-19T16:47:59.000Z</time>
      </trkpt>
      <trkpt lat="45.83899" lon="4.72402">
        <ele>273.88254</ele>
        <time>2023-07-19T16:48:00.000Z</time>
      </trkpt>
      <trkpt lat="45.83904" lon="4.72398">
        <ele>274.95337</ele>
        <time>2023-07-19T16:48:01.000Z</time>
      </trkpt>
      <trkpt lat="45.83908" lon="4.72398">
        <ele>275.98776</ele>
        <time>2023-07-19T16:48:02.000Z</time>
      </trkpt>
      <trkpt lat="45.83912" lon="4.72398">
        <ele>277.10202</ele>
        <time>2023-07-19T16:48:03.000Z</time>
      </trkpt>
      <trkpt lat="45.83914" lon="4.72393">
        <ele>278.11346</ele>
        <time>2023-07-19T16:48:04.000Z</time>
      </trkpt>
      <trkpt lat="45.83919" lon="4.72392">
        <ele>279.13843</ele>
        <time>2023-07-19T16:48:05.000Z</time>
      </trkpt>
      <trkpt lat="45.83923" lon="4.72389">
        <ele>280.08087</ele>
        <time>2023-07-19T16:48:06.000Z</time>
      </trkpt>
      <trkpt lat="45.83927" lon="4.72392">
        <ele>281.01273</ele>
        <time>2023-07-19T16:48:07.000Z</time>
      </trkpt>
      <trkpt lat="45.83931" lon="4.7239">
        <ele>281.86923</ele>
        <time>2023-07-19T16:48:08.000Z</time>
      </trkpt>
      <trkpt lat="45.83934" lon="4.7239">
        <ele>281.91995</ele>
        <time>2023-07-19T16:48:09.000Z</time>
      </trkpt>
      <trkpt lat="45.83937" lon="4.72389">
        <ele>282.05643</ele>
        <time>2023-07-19T16:48:10.000Z</time>
      </trkpt>
      <trkpt lat="45.8394" lon="4.72388">
        <ele>283.73364</ele>
        <time>2023-07-19T16:48:11.000Z</time>
      </trkpt>
      <trkpt lat="45.83943" lon="4.72386">
        <ele>285.30927</ele>
        <time>2023-07-19T16:48:12.000Z</time>
      </trkpt>
      <trkpt lat="45.83947" lon="4.72384">
        <ele>285.24188</ele>
        <time>2023-07-19T16:48:13.000Z</time>
      </trkpt>
      <trkpt lat="45.83951" lon="4.72383">
        <ele>285.133</ele>
        <time>2023-07-19T16:48:14.000Z</time>
      </trkpt>
      <trkpt lat="45.83954" lon="4.72382">
        <ele>285.00546</ele>
        <time>2023-07-19T16:48:15.000Z</time>
      </trkpt>
      <trkpt lat="45.83957" lon="4.72381">
        <ele>285.00916</ele>
        <time>2023-07-19T16:48:16.000Z</time>
      </trkpt>
      <trkpt lat="45.8396" lon="4.72379">
        <ele>285.0824</ele>
        <time>2023-07-19T16:48:17.000Z</time>
      </trkpt>
      <trkpt lat="45.83963" lon="4.72376">
        <ele>285.1037</ele>
        <time>2023-07-19T16:48:18.000Z</time>
      </trkpt>
      <trkpt lat="45.83965" lon="4.72372">
        <ele>285.11273</ele>
        <time>2023-07-19T16:48:19.000Z</time>
      </trkpt>
      <trkpt lat="45.83969" lon="4.72369">
        <ele>285.66434</ele>
        <time>2023-07-19T16:48:20.000Z</time>
      </trkpt>
      <trkpt lat="45.83971" lon="4.72366">
        <ele>286.1412</ele>
        <time>2023-07-19T16:48:21.000Z</time>
      </trkpt>
      <trkpt lat="45.83974" lon="4.72364">
        <ele>286.76093</ele>
        <time>2023-07-19T16:48:22.000Z</time>
      </trkpt>
      <trkpt lat="45.83977" lon="4.72361">
        <ele>286.74609</ele>
        <time>2023-07-19T16:48:23.000Z</time>
      </trkpt>
      <trkpt lat="45.83981" lon="4.72358">
        <ele>286.86188</ele>
        <time>2023-07-19T16:48:24.000Z</time>
      </trkpt>
      <trkpt lat="45.83985" lon="4.72355">
        <ele>286.90189</ele>
        <time>2023-07-19T16:48:25.000Z</time>
      </trkpt>
      <trkpt lat="45.83988" lon="4.72351">
        <ele>287.01941</ele>
        <time>2023-07-19T16:48:26.000Z</time>
      </trkpt>
      <trkpt lat="45.83991" lon="4.72348">
        <ele>287.11789</ele>
        <time>2023-07-19T16:48:27.000Z</time>
      </trkpt>
      <trkpt lat="45.83995" lon="4.72343">
        <ele>287.24301</ele>
        <time>2023-07-19T16:48:28.000Z</time>
      </trkpt>
      <trkpt lat="45.83998" lon="4.72339">
        <ele>287.18176</ele>
        <time>2023-07-19T16:48:29.000Z</time>
      </trkpt>
      <trkpt lat="45.84001" lon="4.72335">
        <ele>286.98486</ele>
        <time>2023-07-19T16:48:30.000Z</time>
      </trkpt>
      <trkpt lat="45.84003" lon="4.72331">
        <ele>286.72049</ele>
        <time>2023-07-19T16:48:31.000Z</time>
      </trkpt>
      <trkpt lat="45.84005" lon="4.72327">
        <ele>286.76236</ele>
        <time>2023-07-19T16:48:32.000Z</time>
      </trkpt>
      <trkpt lat="45.84008" lon="4.72322">
        <ele>286.76151</ele>
        <time>2023-07-19T16:48:33.000Z</time>
      </trkpt>
      <trkpt lat="45.84009" lon="4.72318">
        <ele>287.04224</ele>
        <time>2023-07-19T16:48:34.000Z</time>
      </trkpt>
      <trkpt lat="45.8401" lon="4.72314">
        <ele>287.31671</ele>
        <time>2023-07-19T16:48:35.000Z</time>
      </trkpt>
      <trkpt lat="45.8401" lon="4.72308">
        <ele>287.45651</ele>
        <time>2023-07-19T16:48:36.000Z</time>
      </trkpt>
      <trkpt lat="45.8401" lon="4.72301">
        <ele>287.51898</ele>
        <time>2023-07-19T16:48:37.000Z</time>
      </trkpt>
      <trkpt lat="45.84008" lon="4.72293">
        <ele>287.5141</ele>
        <time>2023-07-19T16:48:38.000Z</time>
      </trkpt>
      <trkpt lat="45.84006" lon="4.72286">
        <ele>287.43811</ele>
        <time>2023-07-19T16:48:39.000Z</time>
      </trkpt>
      <trkpt lat="45.84003" lon="4.72278">
        <ele>287.21411</ele>
        <time>2023-07-19T16:48:40.000Z</time>
      </trkpt>
      <trkpt lat="45.83999" lon="4.72271">
        <ele>286.85614</ele>
        <time>2023-07-19T16:48:41.000Z</time>
      </trkpt>
      <trkpt lat="45.83995" lon="4.72264">
        <ele>285.94684</ele>
        <time>2023-07-19T16:48:42.000Z</time>
      </trkpt>
      <trkpt lat="45.83991" lon="4.72258">
        <ele>285.69931</ele>
        <time>2023-07-19T16:48:43.000Z</time>
      </trkpt>
      <trkpt lat="45.83987" lon="4.72251">
        <ele>285.40338</ele>
        <time>2023-07-19T16:48:44.000Z</time>
      </trkpt>
      <trkpt lat="45.83984" lon="4.72245">
        <ele>285.14612</ele>
        <time>2023-07-19T16:48:45.000Z</time>
      </trkpt>
      <trkpt lat="45.83982" lon="4.72238">
        <ele>284.83099</ele>
        <time>2023-07-19T16:48:46.000Z</time>
      </trkpt>
      <trkpt lat="45.83978" lon="4.72232">
        <ele>284.55267</ele>
        <time>2023-07-19T16:48:47.000Z</time>
      </trkpt>
      <trkpt lat="45.83975" lon="4.72226">
        <ele>284.27313</ele>
        <time>2023-07-19T16:48:48.000Z</time>
      </trkpt>
      <trkpt lat="45.83971" lon="4.7222">
        <ele>284.03232</ele>
        <time>2023-07-19T16:48:49.000Z</time>
      </trkpt>
      <trkpt lat="45.83968" lon="4.72214">
        <ele>283.85013</ele>
        <time>2023-07-19T16:48:50.000Z</time>
      </trkpt>
      <trkpt lat="45.83966" lon="4.72209">
        <ele>283.70547</ele>
        <time>2023-07-19T16:48:51.000Z</time>
      </trkpt>
      <trkpt lat="45.83964" lon="4.72203">
        <ele>283.41568</ele>
        <time>2023-07-19T16:48:52.000Z</time>
      </trkpt>
      <trkpt lat="45.83962" lon="4.72196">
        <ele>283.03299</ele>
        <time>2023-07-19T16:48:53.000Z</time>
      </trkpt>
      <trkpt lat="45.83959" lon="4.72189">
        <ele>282.54749</ele>
        <time>2023-07-19T16:48:54.000Z</time>
      </trkpt>
      <trkpt lat="45.83956" lon="4.72183">
        <ele>281.97128</ele>
        <time>2023-07-19T16:48:55.000Z</time>
      </trkpt>
      <trkpt lat="45.83953" lon="4.72178">
        <ele>281.38995</ele>
        <time>2023-07-19T16:48:56.000Z</time>
      </trkpt>
      <trkpt lat="45.83949" lon="4.72173">
        <ele>280.83667</ele>
        <time>2023-07-19T16:48:57.000Z</time>
      </trkpt>
      <trkpt lat="45.83946" lon="4.72168">
        <ele>280.35117</ele>
        <time>2023-07-19T16:48:58.000Z</time>
      </trkpt>
      <trkpt lat="45.83944" lon="4.72164">
        <ele>279.95743</ele>
        <time>2023-07-19T16:48:59.000Z</time>
      </trkpt>
      <trkpt lat="45.83944" lon="4.72159">
        <ele>279.71655</ele>
        <time>2023-07-19T16:49:00.000Z</time>
      </trkpt>
      <trkpt lat="45.83947" lon="4.72157">
        <ele>279.67392</ele>
        <time>2023-07-19T16:49:01.000Z</time>
      </trkpt>
      <trkpt lat="45.83951" lon="4.72157">
        <ele>280.13141</ele>
        <time>2023-07-19T16:49:02.000Z</time>
      </trkpt>
      <trkpt lat="45.83955" lon="4.72159">
        <ele>280.12811</ele>
        <time>2023-07-19T16:49:03.000Z</time>
      </trkpt>
      <trkpt lat="45.83959" lon="4.72161">
        <ele>280.38477</ele>
        <time>2023-07-19T16:49:04.000Z</time>
      </trkpt>
      <trkpt lat="45.83963" lon="4.72162">
        <ele>280.80975</ele>
        <time>2023-07-19T16:49:05.000Z</time>
      </trkpt>
      <trkpt lat="45.83966" lon="4.72162">
        <ele>281.32642</ele>
        <time>2023-07-19T16:49:06.000Z</time>
      </trkpt>
      <trkpt lat="45.83969" lon="4.72163">
        <ele>281.92035</ele>
        <time>2023-07-19T16:49:07.000Z</time>
      </trkpt>
      <trkpt lat="45.83973" lon="4.72163">
        <ele>282.50345</ele>
        <time>2023-07-19T16:49:08.000Z</time>
      </trkpt>
      <trkpt lat="45.83976" lon="4.72164">
        <ele>283.10834</ele>
        <time>2023-07-19T16:49:09.000Z</time>
      </trkpt>
      <trkpt lat="45.83979" lon="4.72165">
        <ele>283.74399</ele>
        <time>2023-07-19T16:49:10.000Z</time>
      </trkpt>
      <trkpt lat="45.83981" lon="4.72165">
        <ele>283.77139</ele>
        <time>2023-07-19T16:49:11.000Z</time>
      </trkpt>
      <trkpt lat="45.83983" lon="4.72165">
        <ele>283.86554</ele>
        <time>2023-07-19T16:49:12.000Z</time>
      </trkpt>
      <trkpt lat="45.83986" lon="4.72166">
        <ele>283.97385</ele>
        <time>2023-07-19T16:49:13.000Z</time>
      </trkpt>
      <trkpt lat="45.83989" lon="4.72167">
        <ele>283.95282</ele>
        <time>2023-07-19T16:49:14.000Z</time>
      </trkpt>
      <trkpt lat="45.83992" lon="4.72168">
        <ele>283.9957</ele>
        <time>2023-07-19T16:49:15.000Z</time>
      </trkpt>
      <trkpt lat="45.83995" lon="4.72169">
        <ele>284.12152</ele>
        <time>2023-07-19T16:49:16.000Z</time>
      </trkpt>
      <trkpt lat="45.83998" lon="4.7217">
        <ele>284.24109</ele>
        <time>2023-07-19T16:49:17.000Z</time>
      </trkpt>
      <trkpt lat="45.84001" lon="4.7217">
        <ele>284.23804</ele>
        <time>2023-07-19T16:49:18.000Z</time>
      </trkpt>
      <trkpt lat="45.84004" lon="4.7217">
        <ele>284.28323</ele>
        <time>2023-07-19T16:49:19.000Z</time>
      </trkpt>
      <trkpt lat="45.84007" lon="4.7217">
        <ele>283.78113</ele>
        <time>2023-07-19T16:49:20.000Z</time>
      </trkpt>
      <trkpt lat="45.84009" lon="4.72167">
        <ele>283.15054</ele>
        <time>2023-07-19T16:49:21.000Z</time>
      </trkpt>
      <trkpt lat="45.84012" lon="4.72162">
        <ele>282.44159</ele>
        <time>2023-07-19T16:49:22.000Z</time>
      </trkpt>
      <trkpt lat="45.84013" lon="4.72155">
        <ele>282.19855</ele>
        <time>2023-07-19T16:49:23.000Z</time>
      </trkpt>
      <trkpt lat="45.84014" lon="4.72148">
        <ele>281.67828</ele>
        <time>2023-07-19T16:49:24.000Z</time>
      </trkpt>
      <trkpt lat="45.84014" lon="4.72141">
        <ele>281.03629</ele>
        <time>2023-07-19T16:49:25.000Z</time>
      </trkpt>
      <trkpt lat="45.84014" lon="4.72133">
        <ele>280.30035</ele>
        <time>2023-07-19T16:49:26.000Z</time>
      </trkpt>
      <trkpt lat="45.84014" lon="4.72125">
        <ele>279.43982</ele>
        <time>2023-07-19T16:49:27.000Z</time>
      </trkpt>
      <trkpt lat="45.84013" lon="4.72116">
        <ele>278.55698</ele>
        <time>2023-07-19T16:49:28.000Z</time>
      </trkpt>
      <trkpt lat="45.84013" lon="4.72108">
        <ele>277.68845</ele>
        <time>2023-07-19T16:49:29.000Z</time>
      </trkpt>
      <trkpt lat="45.84013" lon="4.721">
        <ele>276.73874</ele>
        <time>2023-07-19T16:49:30.000Z</time>
      </trkpt>
      <trkpt lat="45.84012" lon="4.72091">
        <ele>276.34045</ele>
        <time>2023-07-19T16:49:31.000Z</time>
      </trkpt>
      <trkpt lat="45.84012" lon="4.72083">
        <ele>275.82474</ele>
        <time>2023-07-19T16:49:32.000Z</time>
      </trkpt>
      <trkpt lat="45.84011" lon="4.72075">
        <ele>275.38193</ele>
        <time>2023-07-19T16:49:33.000Z</time>
      </trkpt>
      <trkpt lat="45.84011" lon="4.72067">
        <ele>274.92661</ele>
        <time>2023-07-19T16:49:34.000Z</time>
      </trkpt>
      <trkpt lat="45.8401" lon="4.7206">
        <ele>274.85321</ele>
        <time>2023-07-19T16:49:35.000Z</time>
      </trkpt>
      <trkpt lat="45.8401" lon="4.72052">
        <ele>274.91788</ele>
        <time>2023-07-19T16:49:36.000Z</time>
      </trkpt>
      <trkpt lat="45.8401" lon="4.72045">
        <ele>274.99802</ele>
        <time>2023-07-19T16:49:37.000Z</time>
      </trkpt>
      <trkpt lat="45.84009" lon="4.72037">
        <ele>275.16943</ele>
        <time>2023-07-19T16:49:38.000Z</time>
      </trkpt>
      <trkpt lat="45.84009" lon="4.72031">
        <ele>274.94424</ele>
        <time>2023-07-19T16:49:39.000Z</time>
      </trkpt>
      <trkpt lat="45.84009" lon="4.72024">
        <ele>275.23874</ele>
        <time>2023-07-19T16:49:40.000Z</time>
      </trkpt>
      <trkpt lat="45.84009" lon="4.72018">
        <ele>275.57913</ele>
        <time>2023-07-19T16:49:41.000Z</time>
      </trkpt>
      <trkpt lat="45.84009" lon="4.72013">
        <ele>275.94736</ele>
        <time>2023-07-19T16:49:42.000Z</time>
      </trkpt>
      <trkpt lat="45.84009" lon="4.72007">
        <ele>276.2225</ele>
        <time>2023-07-19T16:49:43.000Z</time>
      </trkpt>
      <trkpt lat="45.8401" lon="4.72001">
        <ele>276.55228</ele>
        <time>2023-07-19T16:49:44.000Z</time>
      </trkpt>
      <trkpt lat="45.8401" lon="4.71995">
        <ele>276.86609</ele>
        <time>2023-07-19T16:49:45.000Z</time>
      </trkpt>
      <trkpt lat="45.8401" lon="4.71989">
        <ele>277.375</ele>
        <time>2023-07-19T16:49:46.000Z</time>
      </trkpt>
      <trkpt lat="45.84009" lon="4.71983">
        <ele>277.91391</ele>
        <time>2023-07-19T16:49:47.000Z</time>
      </trkpt>
      <trkpt lat="45.84009" lon="4.71977">
        <ele>278.47797</ele>
        <time>2023-07-19T16:49:48.000Z</time>
      </trkpt>
      <trkpt lat="45.84009" lon="4.71972">
        <ele>279.07233</ele>
        <time>2023-07-19T16:49:49.000Z</time>
      </trkpt>
      <trkpt lat="45.84009" lon="4.71966">
        <ele>279.77448</ele>
        <time>2023-07-19T16:49:50.000Z</time>
      </trkpt>
      <trkpt lat="45.84009" lon="4.71961">
        <ele>280.50186</ele>
        <time>2023-07-19T16:49:51.000Z</time>
      </trkpt>
      <trkpt lat="45.84009" lon="4.71956">
        <ele>280.92572</ele>
        <time>2023-07-19T16:49:52.000Z</time>
      </trkpt>
      <trkpt lat="45.84009" lon="4.71952">
        <ele>281.42786</ele>
        <time>2023-07-19T16:49:53.000Z</time>
      </trkpt>
      <trkpt lat="45.84009" lon="4.71948">
        <ele>281.95703</ele>
        <time>2023-07-19T16:49:54.000Z</time>
      </trkpt>
      <trkpt lat="45.84009" lon="4.71943">
        <ele>282.0878</ele>
        <time>2023-07-19T16:49:55.000Z</time>
      </trkpt>
      <trkpt lat="45.84009" lon="4.71939">
        <ele>282.04044</ele>
        <time>2023-07-19T16:49:56.000Z</time>
      </trkpt>
      <trkpt lat="45.84009" lon="4.71935">
        <ele>282.00827</ele>
        <time>2023-07-19T16:49:57.000Z</time>
      </trkpt>
      <trkpt lat="45.84008" lon="4.7193">
        <ele>281.87766</ele>
        <time>2023-07-19T16:49:58.000Z</time>
      </trkpt>
      <trkpt lat="45.84008" lon="4.71926">
        <ele>282.10519</ele>
        <time>2023-07-19T16:49:59.000Z</time>
      </trkpt>
      <trkpt lat="45.84008" lon="4.71921">
        <ele>282.26398</ele>
        <time>2023-07-19T16:50:00.000Z</time>
      </trkpt>
      <trkpt lat="45.84007" lon="4.71917">
        <ele>282.43549</ele>
        <time>2023-07-19T16:50:01.000Z</time>
      </trkpt>
      <trkpt lat="45.84007" lon="4.71912">
        <ele>282.59659</ele>
        <time>2023-07-19T16:50:02.000Z</time>
      </trkpt>
      <trkpt lat="45.84007" lon="4.71908">
        <ele>282.77655</ele>
        <time>2023-07-19T16:50:03.000Z</time>
      </trkpt>
      <trkpt lat="45.84007" lon="4.71903">
        <ele>282.92593</ele>
        <time>2023-07-19T16:50:04.000Z</time>
      </trkpt>
      <trkpt lat="45.84006" lon="4.71899">
        <ele>283.09909</ele>
        <time>2023-07-19T16:50:05.000Z</time>
      </trkpt>
      <trkpt lat="45.84006" lon="4.71894">
        <ele>283.25604</ele>
        <time>2023-07-19T16:50:06.000Z</time>
      </trkpt>
      <trkpt lat="45.84005" lon="4.7189">
        <ele>283.42203</ele>
        <time>2023-07-19T16:50:07.000Z</time>
      </trkpt>
      <trkpt lat="45.84004" lon="4.71886">
        <ele>283.59589</ele>
        <time>2023-07-19T16:50:08.000Z</time>
      </trkpt>
      <trkpt lat="45.84002" lon="4.71882">
        <ele>283.73798</ele>
        <time>2023-07-19T16:50:09.000Z</time>
      </trkpt>
      <trkpt lat="45.84" lon="4.71879">
        <ele>283.76657</ele>
        <time>2023-07-19T16:50:10.000Z</time>
      </trkpt>
      <trkpt lat="45.83998" lon="4.71875">
        <ele>283.79877</ele>
        <time>2023-07-19T16:50:11.000Z</time>
      </trkpt>
      <trkpt lat="45.83996" lon="4.71872">
        <ele>284.13443</ele>
        <time>2023-07-19T16:50:12.000Z</time>
      </trkpt>
      <trkpt lat="45.83995" lon="4.71868">
        <ele>284.37689</ele>
        <time>2023-07-19T16:50:13.000Z</time>
      </trkpt>
      <trkpt lat="45.83993" lon="4.71865">
        <ele>284.68011</ele>
        <time>2023-07-19T16:50:14.000Z</time>
      </trkpt>
      <trkpt lat="45.83992" lon="4.71861">
        <ele>284.67603</ele>
        <time>2023-07-19T16:50:15.000Z</time>
      </trkpt>
      <trkpt lat="45.8399" lon="4.71857">
        <ele>284.71811</ele>
        <time>2023-07-19T16:50:16.000Z</time>
      </trkpt>
      <trkpt lat="45.83988" lon="4.71853">
        <ele>284.71948</ele>
        <time>2023-07-19T16:50:17.000Z</time>
      </trkpt>
      <trkpt lat="45.83986" lon="4.7185">
        <ele>284.65109</ele>
        <time>2023-07-19T16:50:18.000Z</time>
      </trkpt>
      <trkpt lat="45.83984" lon="4.71847">
        <ele>284.65591</ele>
        <time>2023-07-19T16:50:19.000Z</time>
      </trkpt>
      <trkpt lat="45.83982" lon="4.71843">
        <ele>284.77191</ele>
        <time>2023-07-19T16:50:20.000Z</time>
      </trkpt>
      <trkpt lat="45.8398" lon="4.71839">
        <ele>284.8569</ele>
        <time>2023-07-19T16:50:21.000Z</time>
      </trkpt>
      <trkpt lat="45.83979" lon="4.71835">
        <ele>284.8952</ele>
        <time>2023-07-19T16:50:22.000Z</time>
      </trkpt>
      <trkpt lat="45.83977" lon="4.7183">
        <ele>284.90848</ele>
        <time>2023-07-19T16:50:23.000Z</time>
      </trkpt>
      <trkpt lat="45.83974" lon="4.71826">
        <ele>285.01004</ele>
        <time>2023-07-19T16:50:24.000Z</time>
      </trkpt>
      <trkpt lat="45.83971" lon="4.71821">
        <ele>285.08557</ele>
        <time>2023-07-19T16:50:25.000Z</time>
      </trkpt>
      <trkpt lat="45.83968" lon="4.71816">
        <ele>285.26486</ele>
        <time>2023-07-19T16:50:26.000Z</time>
      </trkpt>
      <trkpt lat="45.83966" lon="4.71812">
        <ele>285.44107</ele>
        <time>2023-07-19T16:50:27.000Z</time>
      </trkpt>
      <trkpt lat="45.83964" lon="4.71806">
        <ele>285.62906</ele>
        <time>2023-07-19T16:50:28.000Z</time>
      </trkpt>
      <trkpt lat="45.83958" lon="4.71798">
        <ele>284.92487</ele>
        <time>2023-07-19T16:50:29.000Z</time>
      </trkpt>
      <trkpt lat="45.83956" lon="4.71794">
        <ele>284.22845</ele>
        <time>2023-07-19T16:50:30.000Z</time>
      </trkpt>
      <trkpt lat="45.83953" lon="4.71788">
        <ele>284.55707</ele>
        <time>2023-07-19T16:50:31.000Z</time>
      </trkpt>
      <trkpt lat="45.83951" lon="4.71782">
        <ele>284.55496</ele>
        <time>2023-07-19T16:50:32.000Z</time>
      </trkpt>
      <trkpt lat="45.83949" lon="4.71776">
        <ele>284.6304</ele>
        <time>2023-07-19T16:50:33.000Z</time>
      </trkpt>
      <trkpt lat="45.83946" lon="4.71771">
        <ele>284.56415</ele>
        <time>2023-07-19T16:50:34.000Z</time>
      </trkpt>
      <trkpt lat="45.83943" lon="4.71766">
        <ele>284.78802</ele>
        <time>2023-07-19T16:50:35.000Z</time>
      </trkpt>
      <trkpt lat="45.83938" lon="4.71762">
        <ele>284.96002</ele>
        <time>2023-07-19T16:50:36.000Z</time>
      </trkpt>
      <trkpt lat="45.83935" lon="4.71758">
        <ele>285.32904</ele>
        <time>2023-07-19T16:50:37.000Z</time>
      </trkpt>
      <trkpt lat="45.83932" lon="4.71757">
        <ele>285.72745</ele>
        <time>2023-07-19T16:50:38.000Z</time>
      </trkpt>
      <trkpt lat="45.83928" lon="4.71756">
        <ele>286.09879</ele>
        <time>2023-07-19T16:50:39.000Z</time>
      </trkpt>
      <trkpt lat="45.83924" lon="4.71754">
        <ele>286.32953</ele>
        <time>2023-07-19T16:50:40.000Z</time>
      </trkpt>
      <trkpt lat="45.83922" lon="4.71752">
        <ele>286.62186</ele>
        <time>2023-07-19T16:50:41.000Z</time>
      </trkpt>
      <trkpt lat="45.83917" lon="4.7175">
        <ele>286.9967</ele>
        <time>2023-07-19T16:50:42.000Z</time>
      </trkpt>
      <trkpt lat="45.83912" lon="4.71748">
        <ele>287.51312</ele>
        <time>2023-07-19T16:50:43.000Z</time>
      </trkpt>
      <trkpt lat="45.8391" lon="4.71746">
        <ele>287.9212</ele>
        <time>2023-07-19T16:50:44.000Z</time>
      </trkpt>
      <trkpt lat="45.83906" lon="4.71743">
        <ele>288.3399</ele>
        <time>2023-07-19T16:50:45.000Z</time>
      </trkpt>
      <trkpt lat="45.83901" lon="4.7174">
        <ele>288.5307</ele>
        <time>2023-07-19T16:50:46.000Z</time>
      </trkpt>
      <trkpt lat="45.83895" lon="4.71737">
        <ele>288.73654</ele>
        <time>2023-07-19T16:50:47.000Z</time>
      </trkpt>
      <trkpt lat="45.8389" lon="4.71735">
        <ele>288.93567</ele>
        <time>2023-07-19T16:50:48.000Z</time>
      </trkpt>
      <trkpt lat="45.83885" lon="4.71732">
        <ele>289.96555</ele>
        <time>2023-07-19T16:50:49.000Z</time>
      </trkpt>
      <trkpt lat="45.8388" lon="4.71731">
        <ele>291.12622</ele>
        <time>2023-07-19T16:50:50.000Z</time>
      </trkpt>
      <trkpt lat="45.83875" lon="4.71727">
        <ele>291.30746</ele>
        <time>2023-07-19T16:50:51.000Z</time>
      </trkpt>
      <trkpt lat="45.83869" lon="4.71725">
        <ele>291.82111</ele>
        <time>2023-07-19T16:50:52.000Z</time>
      </trkpt>
      <trkpt lat="45.83856" lon="4.71722">
        <ele>292.2915</ele>
        <time>2023-07-19T16:50:53.000Z</time>
      </trkpt>
      <trkpt lat="45.83846" lon="4.71717">
        <ele>292.91971</ele>
        <time>2023-07-19T16:50:54.000Z</time>
      </trkpt>
      <trkpt lat="45.83843" lon="4.71715">
        <ele>293.17331</ele>
        <time>2023-07-19T16:50:55.000Z</time>
      </trkpt>
      <trkpt lat="45.83837" lon="4.71713">
        <ele>293.52423</ele>
        <time>2023-07-19T16:50:56.000Z</time>
      </trkpt>
      <trkpt lat="45.83832" lon="4.7171">
        <ele>293.68774</ele>
        <time>2023-07-19T16:50:57.000Z</time>
      </trkpt>
      <trkpt lat="45.83826" lon="4.7171">
        <ele>293.81708</ele>
        <time>2023-07-19T16:50:58.000Z</time>
      </trkpt>
      <trkpt lat="45.83821" lon="4.71708">
        <ele>293.83109</ele>
        <time>2023-07-19T16:50:59.000Z</time>
      </trkpt>
      <trkpt lat="45.83817" lon="4.71707">
        <ele>293.85242</ele>
        <time>2023-07-19T16:51:00.000Z</time>
      </trkpt>
      <trkpt lat="45.83808" lon="4.71706">
        <ele>293.83408</ele>
        <time>2023-07-19T16:51:01.000Z</time>
      </trkpt>
      <trkpt lat="45.83802" lon="4.71703">
        <ele>293.78616</ele>
        <time>2023-07-19T16:51:02.000Z</time>
      </trkpt>
      <trkpt lat="45.83796" lon="4.71703">
        <ele>293.55753</ele>
        <time>2023-07-19T16:51:03.000Z</time>
      </trkpt>
      <trkpt lat="45.83791" lon="4.71701">
        <ele>293.37158</ele>
        <time>2023-07-19T16:51:04.000Z</time>
      </trkpt>
      <trkpt lat="45.83785" lon="4.71697">
        <ele>293.16821</ele>
        <time>2023-07-19T16:51:05.000Z</time>
      </trkpt>
      <trkpt lat="45.8378" lon="4.71698">
        <ele>292.81253</ele>
        <time>2023-07-19T16:51:06.000Z</time>
      </trkpt>
      <trkpt lat="45.83776" lon="4.71697">
        <ele>292.51996</ele>
        <time>2023-07-19T16:51:07.000Z</time>
      </trkpt>
      <trkpt lat="45.8377" lon="4.71698">
        <ele>292.14972</ele>
        <time>2023-07-19T16:51:08.000Z</time>
      </trkpt>
      <trkpt lat="45.83764" lon="4.71697">
        <ele>291.72168</ele>
        <time>2023-07-19T16:51:09.000Z</time>
      </trkpt>
      <trkpt lat="45.83756" lon="4.71696">
        <ele>291.35544</ele>
        <time>2023-07-19T16:51:10.000Z</time>
      </trkpt>
      <trkpt lat="45.83751" lon="4.71696">
        <ele>290.94598</ele>
        <time>2023-07-19T16:51:11.000Z</time>
      </trkpt>
      <trkpt lat="45.83742" lon="4.71692">
        <ele>290.67084</ele>
        <time>2023-07-19T16:51:12.000Z</time>
      </trkpt>
      <trkpt lat="45.83736" lon="4.71692">
        <ele>290.49463</ele>
        <time>2023-07-19T16:51:13.000Z</time>
      </trkpt>
      <trkpt lat="45.8373" lon="4.71691">
        <ele>290.24359</ele>
        <time>2023-07-19T16:51:14.000Z</time>
      </trkpt>
      <trkpt lat="45.83727" lon="4.71692">
        <ele>290.01358</ele>
        <time>2023-07-19T16:51:15.000Z</time>
      </trkpt>
      <trkpt lat="45.83724" lon="4.71688">
        <ele>288.87402</ele>
        <time>2023-07-19T16:51:16.000Z</time>
      </trkpt>
      <trkpt lat="45.83721" lon="4.71683">
        <ele>287.68118</ele>
        <time>2023-07-19T16:51:17.000Z</time>
      </trkpt>
      <trkpt lat="45.8372" lon="4.71679">
        <ele>286.51929</ele>
        <time>2023-07-19T16:51:18.000Z</time>
      </trkpt>
      <trkpt lat="45.83719" lon="4.71674">
        <ele>285.4025</ele>
        <time>2023-07-19T16:51:19.000Z</time>
      </trkpt>
      <trkpt lat="45.83716" lon="4.7167">
        <ele>284.36285</ele>
        <time>2023-07-19T16:51:20.000Z</time>
      </trkpt>
      <trkpt lat="45.83718" lon="4.71665">
        <ele>283.33051</ele>
        <time>2023-07-19T16:51:21.000Z</time>
      </trkpt>
      <trkpt lat="45.83712" lon="4.7166">
        <ele>282.31442</ele>
        <time>2023-07-19T16:51:22.000Z</time>
      </trkpt>
      <trkpt lat="45.83711" lon="4.71656">
        <ele>281.39349</ele>
        <time>2023-07-19T16:51:23.000Z</time>
      </trkpt>
      <trkpt lat="45.83705" lon="4.71652">
        <ele>280.53668</ele>
        <time>2023-07-19T16:51:25.000Z</time>
      </trkpt>
      <trkpt lat="45.83701" lon="4.71649">
        <ele>279.70618</ele>
        <time>2023-07-19T16:51:26.000Z</time>
      </trkpt>
      <trkpt lat="45.83698" lon="4.7165">
        <ele>278.99127</ele>
        <time>2023-07-19T16:51:27.000Z</time>
      </trkpt>
      <trkpt lat="45.83694" lon="4.71651">
        <ele>278.22742</ele>
        <time>2023-07-19T16:51:28.000Z</time>
      </trkpt>
      <trkpt lat="45.83691" lon="4.71651">
        <ele>277.49911</ele>
        <time>2023-07-19T16:51:29.000Z</time>
      </trkpt>
      <trkpt lat="45.83689" lon="4.71652">
        <ele>276.91116</ele>
        <time>2023-07-19T16:51:30.000Z</time>
      </trkpt>
      <trkpt lat="45.83687" lon="4.71653">
        <ele>276.17474</ele>
        <time>2023-07-19T16:51:31.000Z</time>
      </trkpt>
      <trkpt lat="45.83684" lon="4.71653">
        <ele>275.43607</ele>
        <time>2023-07-19T16:51:32.000Z</time>
      </trkpt>
      <trkpt lat="45.83682" lon="4.71653">
        <ele>274.62143</ele>
        <time>2023-07-19T16:51:33.000Z</time>
      </trkpt>
      <trkpt lat="45.8368" lon="4.71653">
        <ele>273.69769</ele>
        <time>2023-07-19T16:51:34.000Z</time>
      </trkpt>
      <trkpt lat="45.83677" lon="4.71654">
        <ele>272.69611</ele>
        <time>2023-07-19T16:51:35.000Z</time>
      </trkpt>
      <trkpt lat="45.83674" lon="4.71654">
        <ele>272.06265</ele>
        <time>2023-07-19T16:51:36.000Z</time>
      </trkpt>
      <trkpt lat="45.8367" lon="4.71654">
        <ele>272.25784</ele>
        <time>2023-07-19T16:51:37.000Z</time>
      </trkpt>
      <trkpt lat="45.83666" lon="4.71654">
        <ele>272.48196</ele>
        <time>2023-07-19T16:51:38.000Z</time>
      </trkpt>
      <trkpt lat="45.83663" lon="4.71654">
        <ele>272.69937</ele>
        <time>2023-07-19T16:51:39.000Z</time>
      </trkpt>
      <trkpt lat="45.8366" lon="4.71653">
        <ele>272.92087</ele>
        <time>2023-07-19T16:51:40.000Z</time>
      </trkpt>
      <trkpt lat="45.83657" lon="4.71653">
        <ele>273.06757</ele>
        <time>2023-07-19T16:51:41.000Z</time>
      </trkpt>
      <trkpt lat="45.83655" lon="4.71653">
        <ele>273.16269</ele>
        <time>2023-07-19T16:51:42.000Z</time>
      </trkpt>
      <trkpt lat="45.83651" lon="4.71651">
        <ele>273.32388</ele>
        <time>2023-07-19T16:51:44.000Z</time>
      </trkpt>
      <trkpt lat="45.83649" lon="4.71649">
        <ele>273.46432</ele>
        <time>2023-07-19T16:51:45.000Z</time>
      </trkpt>
      <trkpt lat="45.83647" lon="4.71647">
        <ele>273.54318</ele>
        <time>2023-07-19T16:51:46.000Z</time>
      </trkpt>
      <trkpt lat="45.83645" lon="4.71646">
        <ele>273.63916</ele>
        <time>2023-07-19T16:51:47.000Z</time>
      </trkpt>
      <trkpt lat="45.83644" lon="4.71644">
        <ele>273.75388</ele>
        <time>2023-07-19T16:51:48.000Z</time>
      </trkpt>
      <trkpt lat="45.83642" lon="4.71642">
        <ele>273.81015</ele>
        <time>2023-07-19T16:51:49.000Z</time>
      </trkpt>
      <trkpt lat="45.83639" lon="4.7164">
        <ele>273.92157</ele>
        <time>2023-07-19T16:51:50.000Z</time>
      </trkpt>
      <trkpt lat="45.83637" lon="4.71636">
        <ele>274.00967</ele>
        <time>2023-07-19T16:51:51.000Z</time>
      </trkpt>
      <trkpt lat="45.83635" lon="4.71631">
        <ele>273.85608</ele>
        <time>2023-07-19T16:51:52.000Z</time>
      </trkpt>
      <trkpt lat="45.83634" lon="4.71627">
        <ele>273.71393</ele>
        <time>2023-07-19T16:51:53.000Z</time>
      </trkpt>
      <trkpt lat="45.83632" lon="4.71623">
        <ele>273.55649</ele>
        <time>2023-07-19T16:51:54.000Z</time>
      </trkpt>
      <trkpt lat="45.8363" lon="4.7162">
        <ele>273.98392</ele>
        <time>2023-07-19T16:51:55.000Z</time>
      </trkpt>
      <trkpt lat="45.83629" lon="4.71616">
        <ele>274.45367</ele>
        <time>2023-07-19T16:51:56.000Z</time>
      </trkpt>
      <trkpt lat="45.83628" lon="4.71612">
        <ele>274.96658</ele>
        <time>2023-07-19T16:51:57.000Z</time>
      </trkpt>
      <trkpt lat="45.83628" lon="4.71609">
        <ele>275.69034</ele>
        <time>2023-07-19T16:51:58.000Z</time>
      </trkpt>
      <trkpt lat="45.83628" lon="4.71607">
        <ele>276.49063</ele>
        <time>2023-07-19T16:51:59.000Z</time>
      </trkpt>
      <trkpt lat="45.83627" lon="4.71603">
        <ele>277.29541</ele>
        <time>2023-07-19T16:52:00.000Z</time>
      </trkpt>
      <trkpt lat="45.83627" lon="4.71599">
        <ele>278.00143</ele>
        <time>2023-07-19T16:52:01.000Z</time>
      </trkpt>
      <trkpt lat="45.83626" lon="4.71596">
        <ele>278.67926</ele>
        <time>2023-07-19T16:52:02.000Z</time>
      </trkpt>
      <trkpt lat="45.83626" lon="4.71593">
        <ele>279.49982</ele>
        <time>2023-07-19T16:52:03.000Z</time>
      </trkpt>
      <trkpt lat="45.83626" lon="4.7159">
        <ele>280.22406</ele>
        <time>2023-07-19T16:52:04.000Z</time>
      </trkpt>
      <trkpt lat="45.83625" lon="4.71586">
        <ele>280.99677</ele>
        <time>2023-07-19T16:52:05.000Z</time>
      </trkpt>
      <trkpt lat="45.83625" lon="4.71582">
        <ele>281.96332</ele>
        <time>2023-07-19T16:52:06.000Z</time>
      </trkpt>
      <trkpt lat="45.83625" lon="4.71578">
        <ele>282.61887</ele>
        <time>2023-07-19T16:52:07.000Z</time>
      </trkpt>
      <trkpt lat="45.83625" lon="4.71573">
        <ele>283.32129</ele>
        <time>2023-07-19T16:52:08.000Z</time>
      </trkpt>
      <trkpt lat="45.83626" lon="4.71569">
        <ele>284.0235</ele>
        <time>2023-07-19T16:52:09.000Z</time>
      </trkpt>
      <trkpt lat="45.83626" lon="4.71565">
        <ele>284.70615</ele>
        <time>2023-07-19T16:52:10.000Z</time>
      </trkpt>
      <trkpt lat="45.83625" lon="4.71561">
        <ele>285.40717</ele>
        <time>2023-07-19T16:52:11.000Z</time>
      </trkpt>
      <trkpt lat="45.83625" lon="4.71557">
        <ele>286.29065</ele>
        <time>2023-07-19T16:52:12.000Z</time>
      </trkpt>
      <trkpt lat="45.83625" lon="4.71553">
        <ele>287.1918</ele>
        <time>2023-07-19T16:52:13.000Z</time>
      </trkpt>
      <trkpt lat="45.83625" lon="4.7155">
        <ele>288.0079</ele>
        <time>2023-07-19T16:52:14.000Z</time>
      </trkpt>
      <trkpt lat="45.83625" lon="4.71547">
        <ele>288.23096</ele>
        <time>2023-07-19T16:52:15.000Z</time>
      </trkpt>
      <trkpt lat="45.83625" lon="4.71544">
        <ele>288.49622</ele>
        <time>2023-07-19T16:52:16.000Z</time>
      </trkpt>
      <trkpt lat="45.83625" lon="4.7154">
        <ele>288.73734</ele>
        <time>2023-07-19T16:52:17.000Z</time>
      </trkpt>
      <trkpt lat="45.83624" lon="4.71537">
        <ele>288.79721</ele>
        <time>2023-07-19T16:52:18.000Z</time>
      </trkpt>
      <trkpt lat="45.83622" lon="4.71533">
        <ele>288.8111</ele>
        <time>2023-07-19T16:52:19.000Z</time>
      </trkpt>
      <trkpt lat="45.8362" lon="4.7153">
        <ele>288.82913</ele>
        <time>2023-07-19T16:52:20.000Z</time>
      </trkpt>
      <trkpt lat="45.83618" lon="4.71527">
        <ele>288.90759</ele>
        <time>2023-07-19T16:52:21.000Z</time>
      </trkpt>
      <trkpt lat="45.83617" lon="4.71523">
        <ele>289.05499</ele>
        <time>2023-07-19T16:52:22.000Z</time>
      </trkpt>
      <trkpt lat="45.83615" lon="4.71519">
        <ele>289.29272</ele>
        <time>2023-07-19T16:52:23.000Z</time>
      </trkpt>
      <trkpt lat="45.83613" lon="4.71516">
        <ele>289.31689</ele>
        <time>2023-07-19T16:52:24.000Z</time>
      </trkpt>
      <trkpt lat="45.83611" lon="4.71513">
        <ele>289.2764</ele>
        <time>2023-07-19T16:52:25.000Z</time>
      </trkpt>
      <trkpt lat="45.8361" lon="4.71509">
        <ele>289.03799</ele>
        <time>2023-07-19T16:52:26.000Z</time>
      </trkpt>
      <trkpt lat="45.83609" lon="4.71506">
        <ele>289.22125</ele>
        <time>2023-07-19T16:52:27.000Z</time>
      </trkpt>
      <trkpt lat="45.83608" lon="4.71503">
        <ele>289.35757</ele>
        <time>2023-07-19T16:52:28.000Z</time>
      </trkpt>
      <trkpt lat="45.83607" lon="4.71499">
        <ele>289.56195</ele>
        <time>2023-07-19T16:52:29.000Z</time>
      </trkpt>
      <trkpt lat="45.83607" lon="4.71496">
        <ele>289.79465</ele>
        <time>2023-07-19T16:52:30.000Z</time>
      </trkpt>
      <trkpt lat="45.83608" lon="4.71493">
        <ele>289.87549</ele>
        <time>2023-07-19T16:52:31.000Z</time>
      </trkpt>
      <trkpt lat="45.83609" lon="4.71491">
        <ele>290.04178</ele>
        <time>2023-07-19T16:52:32.000Z</time>
      </trkpt>
      <trkpt lat="45.8361" lon="4.71488">
        <ele>290.22128</ele>
        <time>2023-07-19T16:52:33.000Z</time>
      </trkpt>
      <trkpt lat="45.83613" lon="4.71486">
        <ele>290.48581</ele>
        <time>2023-07-19T16:52:34.000Z</time>
      </trkpt>
      <trkpt lat="45.83615" lon="4.71485">
        <ele>290.73837</ele>
        <time>2023-07-19T16:52:35.000Z</time>
      </trkpt>
      <trkpt lat="45.83617" lon="4.71485">
        <ele>291.04834</ele>
        <time>2023-07-19T16:52:36.000Z</time>
      </trkpt>
      <trkpt lat="45.8362" lon="4.71484">
        <ele>291.46704</ele>
        <time>2023-07-19T16:52:38.000Z</time>
      </trkpt>
      <trkpt lat="45.83622" lon="4.71481">
        <ele>291.89474</ele>
        <time>2023-07-19T16:52:39.000Z</time>
      </trkpt>
      <trkpt lat="45.83624" lon="4.71476">
        <ele>292.2709</ele>
        <time>2023-07-19T16:52:40.000Z</time>
      </trkpt>
      <trkpt lat="45.83626" lon="4.71471">
        <ele>292.64374</ele>
        <time>2023-07-19T16:52:41.000Z</time>
      </trkpt>
      <trkpt lat="45.83627" lon="4.71465">
        <ele>293.02643</ele>
        <time>2023-07-19T16:52:42.000Z</time>
      </trkpt>
      <trkpt lat="45.83629" lon="4.71459">
        <ele>293.40112</ele>
        <time>2023-07-19T16:52:43.000Z</time>
      </trkpt>
      <trkpt lat="45.8363" lon="4.71454">
        <ele>293.5368</ele>
        <time>2023-07-19T16:52:44.000Z</time>
      </trkpt>
      <trkpt lat="45.83631" lon="4.71448">
        <ele>293.89493</ele>
        <time>2023-07-19T16:52:45.000Z</time>
      </trkpt>
      <trkpt lat="45.83633" lon="4.71443">
        <ele>294.21329</ele>
        <time>2023-07-19T16:52:46.000Z</time>
      </trkpt>
      <trkpt lat="45.83634" lon="4.71437">
        <ele>294.52902</ele>
        <time>2023-07-19T16:52:47.000Z</time>
      </trkpt>
      <trkpt lat="45.83635" lon="4.71432">
        <ele>294.7413</ele>
        <time>2023-07-19T16:52:48.000Z</time>
      </trkpt>
      <trkpt lat="45.83637" lon="4.71426">
        <ele>294.95013</ele>
        <time>2023-07-19T16:52:49.000Z</time>
      </trkpt>
      <trkpt lat="45.83639" lon="4.71421">
        <ele>295.12378</ele>
        <time>2023-07-19T16:52:50.000Z</time>
      </trkpt>
      <trkpt lat="45.8364" lon="4.71415">
        <ele>295.33905</ele>
        <time>2023-07-19T16:52:51.000Z</time>
      </trkpt>
      <trkpt lat="45.83642" lon="4.71409">
        <ele>295.69586</ele>
        <time>2023-07-19T16:52:52.000Z</time>
      </trkpt>
      <trkpt lat="45.83643" lon="4.71403">
        <ele>295.97095</ele>
        <time>2023-07-19T16:52:53.000Z</time>
      </trkpt>
      <trkpt lat="45.83645" lon="4.71398">
        <ele>296.20856</ele>
        <time>2023-07-19T16:52:54.000Z</time>
      </trkpt>
      <trkpt lat="45.83646" lon="4.71392">
        <ele>296.39783</ele>
        <time>2023-07-19T16:52:55.000Z</time>
      </trkpt>
      <trkpt lat="45.83648" lon="4.71386">
        <ele>296.62576</ele>
        <time>2023-07-19T16:52:56.000Z</time>
      </trkpt>
      <trkpt lat="45.83649" lon="4.7138">
        <ele>296.77237</ele>
        <time>2023-07-19T16:52:57.000Z</time>
      </trkpt>
      <trkpt lat="45.83651" lon="4.71374">
        <ele>296.82208</ele>
        <time>2023-07-19T16:52:58.000Z</time>
      </trkpt>
      <trkpt lat="45.83652" lon="4.71369">
        <ele>296.81332</ele>
        <time>2023-07-19T16:52:59.000Z</time>
      </trkpt>
      <trkpt lat="45.83653" lon="4.71363">
        <ele>296.82181</ele>
        <time>2023-07-19T16:53:00.000Z</time>
      </trkpt>
      <trkpt lat="45.83655" lon="4.71358">
        <ele>296.86151</ele>
        <time>2023-07-19T16:53:01.000Z</time>
      </trkpt>
      <trkpt lat="45.83657" lon="4.71352">
        <ele>297.00351</ele>
        <time>2023-07-19T16:53:02.000Z</time>
      </trkpt>
      <trkpt lat="45.83658" lon="4.71348">
        <ele>297.05219</ele>
        <time>2023-07-19T16:53:03.000Z</time>
      </trkpt>
      <trkpt lat="45.83658" lon="4.71345">
        <ele>297.25995</ele>
        <time>2023-07-19T16:53:04.000Z</time>
      </trkpt>
      <trkpt lat="45.83659" lon="4.71341">
        <ele>297.42209</ele>
        <time>2023-07-19T16:53:05.000Z</time>
      </trkpt>
      <trkpt lat="45.8366" lon="4.71335">
        <ele>297.61542</ele>
        <time>2023-07-19T16:53:06.000Z</time>
      </trkpt>
      <trkpt lat="45.83662" lon="4.71327">
        <ele>297.78381</ele>
        <time>2023-07-19T16:53:07.000Z</time>
      </trkpt>
      <trkpt lat="45.83664" lon="4.71321">
        <ele>297.96771</ele>
        <time>2023-07-19T16:53:08.000Z</time>
      </trkpt>
      <trkpt lat="45.83666" lon="4.71315">
        <ele>298.1076</ele>
        <time>2023-07-19T16:53:09.000Z</time>
      </trkpt>
      <trkpt lat="45.83668" lon="4.71308">
        <ele>298.28391</ele>
        <time>2023-07-19T16:53:10.000Z</time>
      </trkpt>
      <trkpt lat="45.83669" lon="4.71301">
        <ele>298.3913</ele>
        <time>2023-07-19T16:53:11.000Z</time>
      </trkpt>
      <trkpt lat="45.8367" lon="4.71294">
        <ele>298.49933</ele>
        <time>2023-07-19T16:53:12.000Z</time>
      </trkpt>
      <trkpt lat="45.83669" lon="4.71288">
        <ele>298.59723</ele>
        <time>2023-07-19T16:53:13.000Z</time>
      </trkpt>
      <trkpt lat="45.83669" lon="4.71282">
        <ele>298.70139</ele>
        <time>2023-07-19T16:53:14.000Z</time>
      </trkpt>
      <trkpt lat="45.8367" lon="4.71276">
        <ele>298.78989</ele>
        <time>2023-07-19T16:53:15.000Z</time>
      </trkpt>
      <trkpt lat="45.83671" lon="4.7127">
        <ele>298.88336</ele>
        <time>2023-07-19T16:53:16.000Z</time>
      </trkpt>
      <trkpt lat="45.83672" lon="4.71264">
        <ele>298.98303</ele>
        <time>2023-07-19T16:53:17.000Z</time>
      </trkpt>
      <trkpt lat="45.83673" lon="4.71259">
        <ele>298.91486</ele>
        <time>2023-07-19T16:53:18.000Z</time>
      </trkpt>
      <trkpt lat="45.83674" lon="4.71254">
        <ele>298.83511</ele>
        <time>2023-07-19T16:53:19.000Z</time>
      </trkpt>
      <trkpt lat="45.83675" lon="4.7125">
        <ele>298.77319</ele>
        <time>2023-07-19T16:53:20.000Z</time>
      </trkpt>
      <trkpt lat="45.83676" lon="4.71245">
        <ele>298.69873</ele>
        <time>2023-07-19T16:53:21.000Z</time>
      </trkpt>
      <trkpt lat="45.83677" lon="4.71241">
        <ele>298.54364</ele>
        <time>2023-07-19T16:53:22.000Z</time>
      </trkpt>
      <trkpt lat="45.83679" lon="4.71237">
        <ele>298.52533</ele>
        <time>2023-07-19T16:53:23.000Z</time>
      </trkpt>
      <trkpt lat="45.8368" lon="4.71233">
        <ele>298.45013</ele>
        <time>2023-07-19T16:53:24.000Z</time>
      </trkpt>
      <trkpt lat="45.83681" lon="4.7123">
        <ele>298.30719</ele>
        <time>2023-07-19T16:53:25.000Z</time>
      </trkpt>
      <trkpt lat="45.83681" lon="4.71224">
        <ele>297.88876</ele>
        <time>2023-07-19T16:53:26.000Z</time>
      </trkpt>
      <trkpt lat="45.83679" lon="4.71221">
        <ele>297.51544</ele>
        <time>2023-07-19T16:53:27.000Z</time>
      </trkpt>
      <trkpt lat="45.83677" lon="4.71219">
        <ele>297.29117</ele>
        <time>2023-07-19T16:53:28.000Z</time>
      </trkpt>
      <trkpt lat="45.83676" lon="4.71217">
        <ele>297.08563</ele>
        <time>2023-07-19T16:53:29.000Z</time>
      </trkpt>
      <trkpt lat="45.83672" lon="4.71214">
        <ele>296.76181</ele>
        <time>2023-07-19T16:53:31.000Z</time>
      </trkpt>
      <trkpt lat="45.8367" lon="4.71213">
        <ele>296.43079</ele>
        <time>2023-07-19T16:53:33.000Z</time>
      </trkpt>
      <trkpt lat="45.83668" lon="4.71212">
        <ele>296.09283</ele>
        <time>2023-07-19T16:53:34.000Z</time>
      </trkpt>
      <trkpt lat="45.83666" lon="4.71208">
        <ele>295.83841</ele>
        <time>2023-07-19T16:53:37.000Z</time>
      </trkpt>
      <trkpt lat="45.83665" lon="4.71207">
        <ele>295.60773</ele>
        <time>2023-07-19T16:53:39.000Z</time>
      </trkpt>
      <trkpt lat="45.83662" lon="4.71205">
        <ele>295.40558</ele>
        <time>2023-07-19T16:53:40.000Z</time>
      </trkpt>
      <trkpt lat="45.83659" lon="4.71203">
        <ele>294.815</ele>
        <time>2023-07-19T16:53:41.000Z</time>
      </trkpt>
      <trkpt lat="45.83656" lon="4.71201">
        <ele>294.24832</ele>
        <time>2023-07-19T16:53:42.000Z</time>
      </trkpt>
      <trkpt lat="45.83654" lon="4.71199">
        <ele>293.84909</ele>
        <time>2023-07-19T16:53:43.000Z</time>
      </trkpt>
      <trkpt lat="45.83653" lon="4.71198">
        <ele>293.47311</ele>
        <time>2023-07-19T16:53:44.000Z</time>
      </trkpt>
      <trkpt lat="45.8365" lon="4.71198">
        <ele>293.07336</ele>
        <time>2023-07-19T16:53:46.000Z</time>
      </trkpt>
      <trkpt lat="45.83647" lon="4.71197">
        <ele>292.68362</ele>
        <time>2023-07-19T16:53:47.000Z</time>
      </trkpt>
      <trkpt lat="45.83644" lon="4.71196">
        <ele>292.33759</ele>
        <time>2023-07-19T16:53:48.000Z</time>
      </trkpt>
      <trkpt lat="45.8364" lon="4.71193">
        <ele>291.95087</ele>
        <time>2023-07-19T16:53:49.000Z</time>
      </trkpt>
      <trkpt lat="45.83637" lon="4.7119">
        <ele>291.51489</ele>
        <time>2023-07-19T16:53:50.000Z</time>
      </trkpt>
      <trkpt lat="45.83634" lon="4.71187">
        <ele>291.15903</ele>
        <time>2023-07-19T16:53:51.000Z</time>
      </trkpt>
      <trkpt lat="45.8363" lon="4.71184">
        <ele>291.09235</ele>
        <time>2023-07-19T16:53:52.000Z</time>
      </trkpt>
      <trkpt lat="45.83627" lon="4.71182">
        <ele>291.00977</ele>
        <time>2023-07-19T16:53:53.000Z</time>
      </trkpt>
      <trkpt lat="45.83623" lon="4.7118">
        <ele>291.03864</ele>
        <time>2023-07-19T16:53:54.000Z</time>
      </trkpt>
      <trkpt lat="45.83619" lon="4.71178">
        <ele>291.08295</ele>
        <time>2023-07-19T16:53:55.000Z</time>
      </trkpt>
      <trkpt lat="45.83616" lon="4.71176">
        <ele>291.1734</ele>
        <time>2023-07-19T16:53:56.000Z</time>
      </trkpt>
      <trkpt lat="45.83613" lon="4.71174">
        <ele>291.2478</ele>
        <time>2023-07-19T16:53:57.000Z</time>
      </trkpt>
      <trkpt lat="45.8361" lon="4.71171">
        <ele>291.32477</ele>
        <time>2023-07-19T16:53:58.000Z</time>
      </trkpt>
      <trkpt lat="45.83607" lon="4.71169">
        <ele>291.35031</ele>
        <time>2023-07-19T16:53:59.000Z</time>
      </trkpt>
      <trkpt lat="45.83604" lon="4.71166">
        <ele>291.34354</ele>
        <time>2023-07-19T16:54:00.000Z</time>
      </trkpt>
      <trkpt lat="45.836" lon="4.71163">
        <ele>291.31757</ele>
        <time>2023-07-19T16:54:01.000Z</time>
      </trkpt>
      <trkpt lat="45.83597" lon="4.71161">
        <ele>291.63791</ele>
        <time>2023-07-19T16:54:02.000Z</time>
      </trkpt>
      <trkpt lat="45.83594" lon="4.71159">
        <ele>291.90775</ele>
        <time>2023-07-19T16:54:03.000Z</time>
      </trkpt>
      <trkpt lat="45.8359" lon="4.71157">
        <ele>292.17609</ele>
        <time>2023-07-19T16:54:04.000Z</time>
      </trkpt>
      <trkpt lat="45.83587" lon="4.71155">
        <ele>292.46301</ele>
        <time>2023-07-19T16:54:05.000Z</time>
      </trkpt>
      <trkpt lat="45.83583" lon="4.71153">
        <ele>292.78448</ele>
        <time>2023-07-19T16:54:06.000Z</time>
      </trkpt>
      <trkpt lat="45.8358" lon="4.71151">
        <ele>293.10956</ele>
        <time>2023-07-19T16:54:07.000Z</time>
      </trkpt>
      <trkpt lat="45.83577" lon="4.71149">
        <ele>293.40048</ele>
        <time>2023-07-19T16:54:08.000Z</time>
      </trkpt>
      <trkpt lat="45.83574" lon="4.71146">
        <ele>293.70831</ele>
        <time>2023-07-19T16:54:09.000Z</time>
      </trkpt>
      <trkpt lat="45.83572" lon="4.71143">
        <ele>294.02905</ele>
        <time>2023-07-19T16:54:10.000Z</time>
      </trkpt>
      <trkpt lat="45.8357" lon="4.71139">
        <ele>294.38895</ele>
        <time>2023-07-19T16:54:11.000Z</time>
      </trkpt>
      <trkpt lat="45.8357" lon="4.71134">
        <ele>294.78571</ele>
        <time>2023-07-19T16:54:12.000Z</time>
      </trkpt>
      <trkpt lat="45.8357" lon="4.71128">
        <ele>295.21323</ele>
        <time>2023-07-19T16:54:13.000Z</time>
      </trkpt>
      <trkpt lat="45.83572" lon="4.71123">
        <ele>295.35419</ele>
        <time>2023-07-19T16:54:14.000Z</time>
      </trkpt>
      <trkpt lat="45.83574" lon="4.71118">
        <ele>295.53693</ele>
        <time>2023-07-19T16:54:15.000Z</time>
      </trkpt>
      <trkpt lat="45.83576" lon="4.71112">
        <ele>295.7681</ele>
        <time>2023-07-19T16:54:16.000Z</time>
      </trkpt>
      <trkpt lat="45.83578" lon="4.71107">
        <ele>296.02246</ele>
        <time>2023-07-19T16:54:17.000Z</time>
      </trkpt>
      <trkpt lat="45.8358" lon="4.71102">
        <ele>296.28748</ele>
        <time>2023-07-19T16:54:18.000Z</time>
      </trkpt>
      <trkpt lat="45.83582" lon="4.71098">
        <ele>296.54718</ele>
        <time>2023-07-19T16:54:19.000Z</time>
      </trkpt>
      <trkpt lat="45.83584" lon="4.71093">
        <ele>296.78302</ele>
        <time>2023-07-19T16:54:20.000Z</time>
      </trkpt>
      <trkpt lat="45.83586" lon="4.71088">
        <ele>297.03339</ele>
        <time>2023-07-19T16:54:21.000Z</time>
      </trkpt>
      <trkpt lat="45.83587" lon="4.71084">
        <ele>297.29175</ele>
        <time>2023-07-19T16:54:22.000Z</time>
      </trkpt>
      <trkpt lat="45.83588" lon="4.71079">
        <ele>297.55911</ele>
        <time>2023-07-19T16:54:23.000Z</time>
      </trkpt>
      <trkpt lat="45.8359" lon="4.71074">
        <ele>297.80963</ele>
        <time>2023-07-19T16:54:24.000Z</time>
      </trkpt>
      <trkpt lat="45.83591" lon="4.7107">
        <ele>298.05423</ele>
        <time>2023-07-19T16:54:25.000Z</time>
      </trkpt>
      <trkpt lat="45.83592" lon="4.71065">
        <ele>298.30679</ele>
        <time>2023-07-19T16:54:26.000Z</time>
      </trkpt>
      <trkpt lat="45.83592" lon="4.71061">
        <ele>298.55487</ele>
        <time>2023-07-19T16:54:27.000Z</time>
      </trkpt>
      <trkpt lat="45.83591" lon="4.71057">
        <ele>298.78665</ele>
        <time>2023-07-19T16:54:28.000Z</time>
      </trkpt>
      <trkpt lat="45.8359" lon="4.71053">
        <ele>299.02902</ele>
        <time>2023-07-19T16:54:29.000Z</time>
      </trkpt>
      <trkpt lat="45.83588" lon="4.71049">
        <ele>299.2843</ele>
        <time>2023-07-19T16:54:30.000Z</time>
      </trkpt>
      <trkpt lat="45.83585" lon="4.71046">
        <ele>299.42398</ele>
        <time>2023-07-19T16:54:31.000Z</time>
      </trkpt>
      <trkpt lat="45.83582" lon="4.71043">
        <ele>299.53525</ele>
        <time>2023-07-19T16:54:32.000Z</time>
      </trkpt>
      <trkpt lat="45.8358" lon="4.7104">
        <ele>299.63248</ele>
        <time>2023-07-19T16:54:33.000Z</time>
      </trkpt>
      <trkpt lat="45.83577" lon="4.71038">
        <ele>299.72687</ele>
        <time>2023-07-19T16:54:34.000Z</time>
      </trkpt>
      <trkpt lat="45.83573" lon="4.71036">
        <ele>299.77206</ele>
        <time>2023-07-19T16:54:35.000Z</time>
      </trkpt>
      <trkpt lat="45.8357" lon="4.71035">
        <ele>299.79343</ele>
        <time>2023-07-19T16:54:36.000Z</time>
      </trkpt>
      <trkpt lat="45.83567" lon="4.71033">
        <ele>299.80988</ele>
        <time>2023-07-19T16:54:37.000Z</time>
      </trkpt>
      <trkpt lat="45.83564" lon="4.71032">
        <ele>299.83432</ele>
        <time>2023-07-19T16:54:38.000Z</time>
      </trkpt>
      <trkpt lat="45.83561" lon="4.7103">
        <ele>299.89993</ele>
        <time>2023-07-19T16:54:39.000Z</time>
      </trkpt>
      <trkpt lat="45.83558" lon="4.71028">
        <ele>299.96786</ele>
        <time>2023-07-19T16:54:40.000Z</time>
      </trkpt>
      <trkpt lat="45.83556" lon="4.71026">
        <ele>300.02771</ele>
        <time>2023-07-19T16:54:41.000Z</time>
      </trkpt>
      <trkpt lat="45.83553" lon="4.71024">
        <ele>300.1037</ele>
        <time>2023-07-19T16:54:42.000Z</time>
      </trkpt>
      <trkpt lat="45.8355" lon="4.71021">
        <ele>300.20514</ele>
        <time>2023-07-19T16:54:43.000Z</time>
      </trkpt>
      <trkpt lat="45.83547" lon="4.71018">
        <ele>300.31598</ele>
        <time>2023-07-19T16:54:44.000Z</time>
      </trkpt>
      <trkpt lat="45.83545" lon="4.71016">
        <ele>300.44586</ele>
        <time>2023-07-19T16:54:45.000Z</time>
      </trkpt>
      <trkpt lat="45.83542" lon="4.71013">
        <ele>300.58142</ele>
        <time>2023-07-19T16:54:46.000Z</time>
      </trkpt>
      <trkpt lat="45.83539" lon="4.71011">
        <ele>300.58038</ele>
        <time>2023-07-19T16:54:47.000Z</time>
      </trkpt>
      <trkpt lat="45.83536" lon="4.71009">
        <ele>300.63876</ele>
        <time>2023-07-19T16:54:48.000Z</time>
      </trkpt>
      <trkpt lat="45.83533" lon="4.71007">
        <ele>300.57181</ele>
        <time>2023-07-19T16:54:49.000Z</time>
      </trkpt>
      <trkpt lat="45.8353" lon="4.71004">
        <ele>300.47897</ele>
        <time>2023-07-19T16:54:50.000Z</time>
      </trkpt>
      <trkpt lat="45.83527" lon="4.71002">
        <ele>300.50455</ele>
        <time>2023-07-19T16:54:51.000Z</time>
      </trkpt>
      <trkpt lat="45.83524" lon="4.71">
        <ele>300.52856</ele>
        <time>2023-07-19T16:54:52.000Z</time>
      </trkpt>
      <trkpt lat="45.83521" lon="4.70997">
        <ele>300.55817</ele>
        <time>2023-07-19T16:54:53.000Z</time>
      </trkpt>
      <trkpt lat="45.83518" lon="4.70995">
        <ele>300.59094</ele>
        <time>2023-07-19T16:54:54.000Z</time>
      </trkpt>
      <trkpt lat="45.83515" lon="4.70993">
        <ele>300.59598</ele>
        <time>2023-07-19T16:54:55.000Z</time>
      </trkpt>
      <trkpt lat="45.83512" lon="4.70992">
        <ele>300.59671</ele>
        <time>2023-07-19T16:54:56.000Z</time>
      </trkpt>
      <trkpt lat="45.83509" lon="4.7099">
        <ele>300.56299</ele>
        <time>2023-07-19T16:54:57.000Z</time>
      </trkpt>
      <trkpt lat="45.83505" lon="4.70988">
        <ele>300.54251</ele>
        <time>2023-07-19T16:54:58.000Z</time>
      </trkpt>
      <trkpt lat="45.83502" lon="4.70987">
        <ele>300.46936</ele>
        <time>2023-07-19T16:54:59.000Z</time>
      </trkpt>
      <trkpt lat="45.83499" lon="4.70986">
        <ele>300.41925</ele>
        <time>2023-07-19T16:55:00.000Z</time>
      </trkpt>
      <trkpt lat="45.83495" lon="4.70986">
        <ele>300.38947</ele>
        <time>2023-07-19T16:55:01.000Z</time>
      </trkpt>
      <trkpt lat="45.83492" lon="4.70986">
        <ele>300.36188</ele>
        <time>2023-07-19T16:55:02.000Z</time>
      </trkpt>
      <trkpt lat="45.83488" lon="4.70986">
        <ele>300.32355</ele>
        <time>2023-07-19T16:55:03.000Z</time>
      </trkpt>
      <trkpt lat="45.83484" lon="4.70986">
        <ele>300.27509</ele>
        <time>2023-07-19T16:55:04.000Z</time>
      </trkpt>
      <trkpt lat="45.83481" lon="4.70985">
        <ele>300.14691</ele>
        <time>2023-07-19T16:55:05.000Z</time>
      </trkpt>
      <trkpt lat="45.83477" lon="4.70985">
        <ele>300.00699</ele>
        <time>2023-07-19T16:55:06.000Z</time>
      </trkpt>
      <trkpt lat="45.83473" lon="4.70985">
        <ele>299.97067</ele>
        <time>2023-07-19T16:55:07.000Z</time>
      </trkpt>
      <trkpt lat="45.83469" lon="4.70986">
        <ele>299.87567</ele>
        <time>2023-07-19T16:55:08.000Z</time>
      </trkpt>
      <trkpt lat="45.83465" lon="4.70986">
        <ele>299.86444</ele>
        <time>2023-07-19T16:55:09.000Z</time>
      </trkpt>
      <trkpt lat="45.83462" lon="4.70987">
        <ele>299.89545</ele>
        <time>2023-07-19T16:55:10.000Z</time>
      </trkpt>
      <trkpt lat="45.83458" lon="4.70987">
        <ele>299.91306</ele>
        <time>2023-07-19T16:55:11.000Z</time>
      </trkpt>
      <trkpt lat="45.83455" lon="4.70987">
        <ele>299.94501</ele>
        <time>2023-07-19T16:55:12.000Z</time>
      </trkpt>
      <trkpt lat="45.83451" lon="4.70987">
        <ele>299.9039</ele>
        <time>2023-07-19T16:55:13.000Z</time>
      </trkpt>
      <trkpt lat="45.83447" lon="4.70987">
        <ele>299.89142</ele>
        <time>2023-07-19T16:55:14.000Z</time>
      </trkpt>
      <trkpt lat="45.83444" lon="4.70986">
        <ele>299.93884</ele>
        <time>2023-07-19T16:55:15.000Z</time>
      </trkpt>
      <trkpt lat="45.8344" lon="4.70986">
        <ele>300.01886</ele>
        <time>2023-07-19T16:55:16.000Z</time>
      </trkpt>
      <trkpt lat="45.83436" lon="4.70986">
        <ele>300.23819</ele>
        <time>2023-07-19T16:55:17.000Z</time>
      </trkpt>
      <trkpt lat="45.83432" lon="4.70986">
        <ele>300.4357</ele>
        <time>2023-07-19T16:55:18.000Z</time>
      </trkpt>
      <trkpt lat="45.83429" lon="4.70986">
        <ele>300.6391</ele>
        <time>2023-07-19T16:55:19.000Z</time>
      </trkpt>
      <trkpt lat="45.83425" lon="4.70986">
        <ele>300.82172</ele>
        <time>2023-07-19T16:55:20.000Z</time>
      </trkpt>
      <trkpt lat="45.83421" lon="4.70986">
        <ele>300.9718</ele>
        <time>2023-07-19T16:55:21.000Z</time>
      </trkpt>
      <trkpt lat="45.83418" lon="4.70986">
        <ele>301.11633</ele>
        <time>2023-07-19T16:55:22.000Z</time>
      </trkpt>
      <trkpt lat="45.83414" lon="4.70986">
        <ele>301.25006</ele>
        <time>2023-07-19T16:55:23.000Z</time>
      </trkpt>
      <trkpt lat="45.83411" lon="4.70987">
        <ele>301.38721</ele>
        <time>2023-07-19T16:55:24.000Z</time>
      </trkpt>
      <trkpt lat="45.83407" lon="4.70986">
        <ele>301.59747</ele>
        <time>2023-07-19T16:55:25.000Z</time>
      </trkpt>
      <trkpt lat="45.83404" lon="4.70986">
        <ele>301.81717</ele>
        <time>2023-07-19T16:55:26.000Z</time>
      </trkpt>
      <trkpt lat="45.834" lon="4.70986">
        <ele>302.06964</ele>
        <time>2023-07-19T16:55:27.000Z</time>
      </trkpt>
      <trkpt lat="45.83396" lon="4.70986">
        <ele>302.33926</ele>
        <time>2023-07-19T16:55:28.000Z</time>
      </trkpt>
      <trkpt lat="45.83393" lon="4.70987">
        <ele>302.62936</ele>
        <time>2023-07-19T16:55:29.000Z</time>
      </trkpt>
      <trkpt lat="45.83389" lon="4.70987">
        <ele>302.92905</ele>
        <time>2023-07-19T16:55:30.000Z</time>
      </trkpt>
      <trkpt lat="45.83385" lon="4.70988">
        <ele>303.21387</ele>
        <time>2023-07-19T16:55:31.000Z</time>
      </trkpt>
      <trkpt lat="45.83381" lon="4.70989">
        <ele>303.43991</ele>
        <time>2023-07-19T16:55:32.000Z</time>
      </trkpt>
      <trkpt lat="45.83377" lon="4.7099">
        <ele>303.70245</ele>
        <time>2023-07-19T16:55:33.000Z</time>
      </trkpt>
      <trkpt lat="45.83373" lon="4.70992">
        <ele>303.9137</ele>
        <time>2023-07-19T16:55:34.000Z</time>
      </trkpt>
      <trkpt lat="45.83368" lon="4.70993">
        <ele>304.10406</ele>
        <time>2023-07-19T16:55:35.000Z</time>
      </trkpt>
      <trkpt lat="45.83363" lon="4.70994">
        <ele>304.28729</ele>
        <time>2023-07-19T16:55:36.000Z</time>
      </trkpt>
      <trkpt lat="45.83359" lon="4.70995">
        <ele>304.27222</ele>
        <time>2023-07-19T16:55:37.000Z</time>
      </trkpt>
      <trkpt lat="45.83355" lon="4.70996">
        <ele>304.23309</ele>
        <time>2023-07-19T16:55:38.000Z</time>
      </trkpt>
      <trkpt lat="45.83352" lon="4.70995">
        <ele>304.18762</ele>
        <time>2023-07-19T16:55:39.000Z</time>
      </trkpt>
      <trkpt lat="45.83348" lon="4.70995">
        <ele>304.18204</ele>
        <time>2023-07-19T16:55:40.000Z</time>
      </trkpt>
      <trkpt lat="45.83344" lon="4.70995">
        <ele>304.13843</ele>
        <time>2023-07-19T16:55:41.000Z</time>
      </trkpt>
      <trkpt lat="45.8334" lon="4.70995">
        <ele>304.08542</ele>
        <time>2023-07-19T16:55:42.000Z</time>
      </trkpt>
      <trkpt lat="45.83337" lon="4.70995">
        <ele>304.10593</ele>
        <time>2023-07-19T16:55:43.000Z</time>
      </trkpt>
      <trkpt lat="45.83333" lon="4.70995">
        <ele>304.15509</ele>
        <time>2023-07-19T16:55:44.000Z</time>
      </trkpt>
      <trkpt lat="45.8333" lon="4.70996">
        <ele>304.21719</ele>
        <time>2023-07-19T16:55:45.000Z</time>
      </trkpt>
      <trkpt lat="45.83327" lon="4.70997">
        <ele>304.27173</ele>
        <time>2023-07-19T16:55:46.000Z</time>
      </trkpt>
      <trkpt lat="45.83324" lon="4.70997">
        <ele>304.34113</ele>
        <time>2023-07-19T16:55:47.000Z</time>
      </trkpt>
      <trkpt lat="45.83321" lon="4.70998">
        <ele>304.38419</ele>
        <time>2023-07-19T16:55:48.000Z</time>
      </trkpt>
      <trkpt lat="45.83318" lon="4.70998">
        <ele>304.37384</ele>
        <time>2023-07-19T16:55:49.000Z</time>
      </trkpt>
      <trkpt lat="45.83315" lon="4.70997">
        <ele>304.31982</ele>
        <time>2023-07-19T16:55:50.000Z</time>
      </trkpt>
      <trkpt lat="45.83313" lon="4.70996">
        <ele>304.26553</ele>
        <time>2023-07-19T16:55:51.000Z</time>
      </trkpt>
      <trkpt lat="45.83311" lon="4.70994">
        <ele>304.23907</ele>
        <time>2023-07-19T16:55:52.000Z</time>
      </trkpt>
      <trkpt lat="45.8331" lon="4.70991">
        <ele>304.26413</ele>
        <time>2023-07-19T16:55:53.000Z</time>
      </trkpt>
      <trkpt lat="45.83309" lon="4.70988">
        <ele>304.31305</ele>
        <time>2023-07-19T16:55:54.000Z</time>
      </trkpt>
      <trkpt lat="45.83314" lon="4.70981">
        <ele>304.091</ele>
        <time>2023-07-19T16:55:55.000Z</time>
      </trkpt>
      <trkpt lat="45.83315" lon="4.70978">
        <ele>303.84039</ele>
        <time>2023-07-19T16:55:56.000Z</time>
      </trkpt>
      <trkpt lat="45.83315" lon="4.70973">
        <ele>303.91534</ele>
        <time>2023-07-19T16:55:57.000Z</time>
      </trkpt>
      <trkpt lat="45.83316" lon="4.7097">
        <ele>304.02679</ele>
        <time>2023-07-19T16:55:59.000Z</time>
      </trkpt>
      <trkpt lat="45.83317" lon="4.70966">
        <ele>304.09619</ele>
        <time>2023-07-19T16:56:00.000Z</time>
      </trkpt>
      <trkpt lat="45.83318" lon="4.70964">
        <ele>304.15189</ele>
        <time>2023-07-19T16:56:01.000Z</time>
      </trkpt>
      <trkpt lat="45.8332" lon="4.70959">
        <ele>304.2345</ele>
        <time>2023-07-19T16:56:03.000Z</time>
      </trkpt>
    </trkseg>
  </trk>
</gpx>